
Distance (Route):
Temperature : 13.1°C
Humidity : 86.7%
Pressure : 947.8hPa| Receiver | Frames | First received | Last received |
|---|---|---|---|
| BIOWL1-15 | 1248 | 2026-08-31 22:46:01 | 2026-09-01 02:15:39 |
| DM0DOS-11 | 1079 | 2026-08-31 22:45:33 | 2026-09-01 02:17:03 |
| HSKMA3-T | 862 | 2026-08-31 23:14:12 | 2026-09-01 02:14:09 |
| DL1XH-west | 812 | 2026-08-31 23:08:06 | 2026-09-01 01:45:44 |
| DL1XH1-15 | 497 | 2026-08-31 23:10:12 | 2026-09-01 01:42:35 |
| DL1NUX | 471 | 2026-08-31 23:20:10 | 2026-09-01 01:55:17 |
| AA1-15 | 466 | 2026-08-31 23:31:33 | 2026-09-01 01:25:34 |
| DO2JMG | 410 | 2026-08-31 23:09:50 | 2026-09-01 01:51:49 |
| DF8AY | 363 | 2026-08-31 23:32:39 | 2026-09-01 01:29:20 |
| DL1XH-15 | 351 | 2026-08-31 23:17:49 | 2026-09-01 01:26:27 |
| DD8BA-10 | 267 | 2026-08-31 22:55:20 | 2026-09-01 01:51:06 |
| GOEST3-10 | 187 | 2026-08-31 23:30:28 | 2026-09-01 01:26:11 |
| DO3DL | 184 | 2026-08-31 22:45:28 | 2026-09-01 01:48:46 |
| DJ2DS-15 | 179 | 2026-08-31 22:56:44 | 2026-09-01 01:48:56 |
| DL3AQ-11 | 159 | 2026-08-31 23:07:59 | 2026-09-01 01:46:26 |
| DB0DAN | 107 | 2026-09-01 01:11:10 | 2026-09-01 02:05:25 |
| DO9LL-15 | 103 | 2026-08-31 22:47:05 | 2026-09-01 02:00:00 |
| DB0NH | 103 | 2026-08-31 23:07:45 | 2026-09-01 02:06:52 |
| DB0UT-7 | 96 | 2026-08-31 22:50:27 | 2026-09-01 02:09:07 |
| DL1ZP-14 | 84 | 2026-08-31 23:03:37 | 2026-09-01 02:12:05 |
| DO3MHA-12 | 81 | 2026-08-31 23:35:55 | 2026-09-01 01:14:16 |
| DO3MHA-11 | 72 | 2026-08-31 23:34:57 | 2026-09-01 01:15:01 |
| BIOWL9-15 | 70 | 2026-08-31 22:47:25 | 2026-09-01 02:14:25 |
| SONCRA | 69 | 2026-08-31 23:22:50 | 2026-09-01 02:07:00 |
| DB0ND-19 | 68 | 2026-08-31 23:08:43 | 2026-09-01 02:04:03 |
| DD1CC8 | 67 | 2026-08-31 22:51:40 | 2026-09-01 02:04:09 |
| DJ2KF-10 | 66 | 2026-08-31 22:51:33 | 2026-09-01 01:17:55 |
| DL4BBY-15 | 64 | 2026-08-31 22:58:27 | 2026-09-01 01:34:43 |
| DD1CC3-15 | 62 | 2026-08-31 22:47:26 | 2026-09-01 02:03:41 |
| DL8DAS-14 | 62 | 2026-08-31 22:49:14 | 2026-09-01 01:46:38 |
| DJ8HS-15 | 62 | 2026-08-31 23:20:21 | 2026-09-01 01:38:12 |
| WPPR-10 | 59 | 2026-08-31 22:47:21 | 2026-09-01 01:56:41 |
| DH3RM | 58 | 2026-08-31 22:47:30 | 2026-08-31 23:19:51 |
| DD1CC9-15 | 54 | 2026-08-31 22:47:09 | 2026-09-01 00:42:38 |
| DO1YAY-16 | 53 | 2026-08-31 22:51:32 | 2026-09-01 01:22:44 |
| DO2KSM | 52 | 2026-08-31 22:47:13 | 2026-09-01 01:54:42 |
| DL4XJ-10 | 49 | 2026-08-31 23:32:18 | 2026-09-01 01:45:25 |
| DD1CC1-15 | 45 | 2026-08-31 22:47:33 | 2026-09-01 00:56:06 |
| HTAHTA | 44 | 2026-08-31 22:59:00 | 2026-09-01 01:30:39 |
| DF7PN | 43 | 2026-08-31 23:37:46 | 2026-09-01 02:00:08 |
| DL8DAS-15 | 42 | 2026-08-31 22:47:10 | 2026-09-01 01:47:47 |
| DK9SH | 37 | 2026-08-31 22:56:43 | 2026-09-01 02:00:12 |
| BUE01 | 36 | 2026-08-31 23:09:53 | 2026-09-01 01:46:47 |
| AM1SDL-15 | 35 | 2026-08-31 23:21:24 | 2026-09-01 01:54:49 |
| DJ3KS | 31 | 2026-08-31 22:56:08 | 2026-09-01 01:06:08 |
| BIOWL7-15 | 27 | 2026-08-31 22:49:36 | 2026-09-01 02:10:31 |
| SO1NDE-10 | 27 | 2026-08-31 23:19:15 | 2026-09-01 01:52:20 |
| DL3OBA | 27 | 2026-08-31 23:45:04 | 2026-09-01 01:53:28 |
| DL8OAI-8 | 26 | 2026-08-31 23:27:37 | 2026-09-01 02:11:33 |
| DD1CC2-15 | 25 | 2026-08-31 22:53:12 | 2026-09-01 00:10:02 |
| NBG1-10 | 21 | 2026-08-31 23:20:41 | 2026-09-01 01:56:13 |
| DL1CLM-18 | 18 | 2026-08-31 23:11:17 | 2026-09-01 01:32:59 |
| EDDB2-11 | 18 | 2026-09-01 00:00:55 | 2026-09-01 01:23:05 |
| DF5WG-10 | 12 | 2026-08-31 23:51:29 | 2026-09-01 00:53:53 |
| SONDE2-11 | 11 | 2026-09-01 00:49:14 | 2026-09-01 01:23:54 |
| WEDDY | 9 | 2026-08-31 23:20:20 | 2026-09-01 00:52:45 |
| DL1LOL-11 | 8 | 2026-08-31 23:15:04 | 2026-09-01 01:37:04 |
| DL0LBS | 5 | 2026-09-01 01:36:35 | 2026-09-01 01:59:31 |
| DJTTGO | 2 | 2026-08-31 23:52:46 | 2026-09-01 00:43:02 |
| DC6BW-12 | 1 | 2026-08-31 22:59:10 | 2026-08-31 22:59:10 |
| KNMI2-11 | 1 | 2026-09-01 00:05:35 | 2026-09-01 00:05:35 |
| DF3TZ-5 | 1 | 2026-09-01 00:41:05 | 2026-09-01 00:41:05 |
| DF8AY-15 | 1 | 2026-09-01 01:01:53 | 2026-09-01 01:01:53 |
| Receiver | Date | Latitude | Longitude | Direction | Speed | Altitude | Climb | Temperature | Humidity | Pressure | Voltage | Killtimer | Uptime | BKT | XDATA |
|---|---|---|---|---|---|---|---|---|---|---|---|---|---|---|---|
| DM0DOS-11 | 2026-09-01 02:17:03 | 51.13848 | 9.41305 | 99° | 42km/h | 642m | -1.8m/s | 13.1°C | 86.7% | 947.8hPa | 2.8V | 06:52:52 | 03:59:27 | 00:00:00 | |
| DM0DOS-11 | 2026-09-01 02:16:58 | 51.13850 | 9.41200 | 84° | 40km/h | 652m | -1.6m/s | 13.2°C | 85.3% | 946.7hPa | 2.8V | 06:52:58 | 03:59:21 | 00:00:00 | |
| DM0DOS-11 | 2026-09-01 02:16:52 | 51.13855 | 9.41094 | 104° | 33km/h | 666m | -1.9m/s | 13°C | 86% | 945.1hPa | 2.7V | 06:53:06 | 03:59:13 | 00:00:00 | |
| DM0DOS-11 | 2026-09-01 02:16:47 | 51.13862 | 9.41055 | 105° | 35km/h | 672m | -1.9m/s | 13°C | 86.1% | 944.4hPa | 2.8V | 06:53:09 | 03:59:10 | 00:00:00 | |
| DM0DOS-11 | 2026-09-01 02:16:42 | 51.13867 | 9.41027 | 106° | 37km/h | 676m | -2.2m/s | 13°C | 86% | 943.8hPa | 2.8V | 06:53:11 | 03:59:08 | 00:00:00 | |
| DM0DOS-11 | 2026-09-01 02:16:42 | 51.13875 | 9.40981 | 104° | 42km/h | 681m | -1.6m/s | 13°C | 85.9% | 943.3hPa | 2.8V | 06:53:14 | 03:59:05 | 00:00:00 | |
| DM0DOS-11 | 2026-09-01 02:16:37 | 51.13883 | 9.40910 | 94° | 46km/h | 687m | -1.4m/s | 13°C | 85.6% | 942.7hPa | 2.8V | 06:53:18 | 03:59:01 | 00:00:00 | |
| DM0DOS-11 | 2026-09-01 02:16:19 | 51.13908 | 9.40659 | 110° | 38km/h | 719m | -1.8m/s | 13°C | 83.9% | 939.2hPa | 2.8V | 06:53:35 | 03:58:44 | 00:00:00 | |
| DM0DOS-11 | 2026-09-01 02:16:19 | 51.13915 | 9.40630 | 111° | 40km/h | 723m | -1.9m/s | 13°C | 83.8% | 938.6hPa | 2.8V | 06:53:37 | 03:58:42 | 00:00:00 | |
| DM0DOS-11 | 2026-09-01 02:16:19 | 51.13922 | 9.40598 | 109° | 44km/h | 726m | -1.8m/s | 13°C | 83.9% | 938.2hPa | 2.8V | 06:53:39 | 03:58:40 | 00:00:00 | |
| DM0DOS-11 | 2026-09-01 02:16:13 | 51.13929 | 9.40563 | 105° | 47km/h | 730m | -1.8m/s | 12.9°C | 84.1% | 938hPa | 2.8V | 06:53:41 | 03:58:38 | 00:00:00 | |
| DM0DOS-11 | 2026-09-01 02:16:13 | 51.13934 | 9.40526 | 99° | 47km/h | 733m | -1.6m/s | 12.9°C | 84.5% | 937.5hPa | 2.7V | 06:53:43 | 03:58:36 | 00:00:00 | |
| DM0DOS-11 | 2026-09-01 02:16:13 | 51.13937 | 9.40489 | 95° | 46km/h | 737m | -1.8m/s | 12.8°C | 84.5% | 937hPa | 2.8V | 06:53:45 | 03:58:34 | 00:00:00 | |
| DM0DOS-11 | 2026-09-01 02:16:08 | 51.13939 | 9.40453 | 92° | 42km/h | 740m | -1.9m/s | 12.8°C | 84.7% | 936.7hPa | 2.8V | 06:53:47 | 03:58:32 | 00:00:00 | |
| DM0DOS-11 | 2026-09-01 02:16:08 | 51.13940 | 9.40421 | 93° | 38km/h | 744m | -1.9m/s | 12.8°C | 84.5% | 936.1hPa | 2.8V | 06:53:49 | 03:58:30 | 00:00:00 | |
| DM0DOS-11 | 2026-09-01 02:16:08 | 51.13942 | 9.40391 | 95° | 37km/h | 748m | -1.9m/s | 12.8°C | 84.7% | 935.8hPa | 2.8V | 06:53:51 | 03:58:28 | 00:00:00 | |
| DM0DOS-11 | 2026-09-01 02:16:01 | 51.13944 | 9.40363 | 100° | 35km/h | 752m | -2m/s | 12.8°C | 84.8% | 935.4hPa | 2.8V | 06:53:53 | 03:58:26 | 00:00:00 | |
| DM0DOS-11 | 2026-09-01 02:16:01 | 51.13948 | 9.40336 | 106° | 35km/h | 756m | -2.1m/s | 12.7°C | 84.9% | 934.8hPa | 2.7V | 06:53:55 | 03:58:24 | 00:00:00 | |
| DM0DOS-11 | 2026-09-01 02:16:01 | 51.13955 | 9.40308 | 112° | 40km/h | 760m | -2m/s | 12.8°C | 84.3% | 934.4hPa | 2.8V | 06:53:57 | 03:58:22 | 00:00:00 | |
| DM0DOS-11 | 2026-09-01 02:15:56 | 51.13963 | 9.40276 | 111° | 46km/h | 764m | -1.9m/s | 12.8°C | 83.7% | 933.9hPa | 2.8V | 06:53:59 | 03:58:20 | 00:00:00 | |
| DM0DOS-11 | 2026-09-01 02:15:56 | 51.13971 | 9.40240 | 106° | 49km/h | 768m | -1.9m/s | 12.7°C | 84.3% | 933.5hPa | 2.8V | 06:54:01 | 03:58:18 | 00:00:00 | |
| DM0DOS-11 | 2026-09-01 02:15:51 | 51.13979 | 9.40182 | 98° | 47km/h | 774m | -2m/s | 12.7°C | 84.4% | 933.1hPa | 2.8V | 06:54:04 | 03:58:15 | 00:00:00 | |
| DM0DOS-11 | 2026-09-01 02:15:51 | 51.13982 | 9.40128 | 95° | 42km/h | 780m | -2m/s | 12.7°C | 84.1% | 932.3hPa | 2.7V | 06:54:07 | 03:58:12 | 00:00:00 | |
| DM0DOS-11 | 2026-09-01 02:15:45 | 51.13989 | 9.40068 | 106° | 37km/h | 788m | -2m/s | 12.7°C | 84.2% | 931.5hPa | 2.8V | 06:54:11 | 03:58:08 | 00:00:00 | |
| DM0DOS-11 | 2026-09-01 02:15:45 | 51.13995 | 9.40039 | 111° | 38km/h | 792m | -2m/s | 12.6°C | 84.3% | 931.1hPa | 2.8V | 06:54:13 | 03:58:06 | 00:00:00 | |
| DM0DOS-11 | 2026-09-01 02:15:39 | 51.14003 | 9.40010 | 114° | 42km/h | 796m | -2m/s | 12.6°C | 84.5% | 930.5hPa | 2.8V | 06:54:15 | 03:58:04 | 00:00:00 | |
| BIOWL1-15 | 2026-09-01 02:15:39 | 51.14007 | 9.39995 | 114° | 42km/h | 798m | -2m/s | 12.6°C | 88% | 930.4hPa | 2.8V | 06:55:10 | 03:58:03 | 00:00:00 | |
| DM0DOS-11 | 2026-09-01 02:15:33 | 51.14029 | 9.39907 | 107° | 49km/h | 808m | -1.9m/s | 12.5°C | 84.8% | 929.1hPa | 2.8V | 06:54:21 | 03:57:58 | 00:00:00 | |
| DM0DOS-11 | 2026-09-01 02:15:33 | 51.14040 | 9.39828 | 98° | 47km/h | 816m | -2m/s | 12.4°C | 84.8% | 928.4hPa | 2.8V | 06:54:25 | 03:57:54 | 00:00:00 | |
| BIOWL1-15 | 2026-09-01 02:15:28 | 51.14041 | 9.39810 | 97° | 46km/h | 818m | -1.9m/s | 12.4°C | 86.9% | 928.1hPa | 2.8V | 06:55:10 | 03:57:53 | 00:00:00 | |
| DM0DOS-11 | 2026-09-01 02:15:27 | 51.14043 | 9.39792 | 97° | 42km/h | 820m | -1.6m/s | 12.4°C | 84.5% | 928hPa | 2.8V | 06:54:27 | 03:57:52 | 00:00:00 | |
| DM0DOS-11 | 2026-09-01 02:15:27 | 51.14047 | 9.39760 | 104° | 38km/h | 823m | -1.8m/s | 12.5°C | 83.8% | 927.4hPa | 2.7V | 06:54:29 | 03:57:50 | 00:00:00 | |
| DM0DOS-11 | 2026-09-01 02:15:27 | 51.14057 | 9.39715 | 112° | 40km/h | 829m | -1.9m/s | 12.5°C | 82.7% | 926.7hPa | 2.8V | 06:54:32 | 03:57:47 | 00:00:00 | |
| DM0DOS-11 | 2026-09-01 02:15:22 | 51.14061 | 9.39700 | 113° | 42km/h | 831m | -2.2m/s | 12.5°C | 82.6% | 926.6hPa | 2.8V | 06:54:33 | 03:57:46 | 00:00:00 | |
| DM0DOS-11 | 2026-09-01 02:15:22 | 51.14069 | 9.39669 | 114° | 44km/h | 835m | -2.1m/s | 12.5°C | 82.6% | 926.1hPa | 2.8V | 06:54:35 | 03:57:44 | 00:00:00 | |
| DM0DOS-11 | 2026-09-01 02:15:22 | 51.14079 | 9.39637 | 114° | 44km/h | 840m | -2.4m/s | 12.5°C | 82.5% | 925.7hPa | 2.8V | 06:54:37 | 03:57:42 | 00:00:00 | |
| BIOWL1-15 | 2026-09-01 02:15:19 | 51.14065 | 9.39685 | 114° | 42km/h | 833m | -2.2m/s | 12.5°C | 86.2% | 926.5hPa | 2.8V | 06:55:10 | 03:57:45 | 00:00:00 | |
| BIOWL1-15 | 2026-09-01 02:15:18 | 51.14069 | 9.39669 | 115° | 44km/h | 835m | -2.1m/s | 12.5°C | 86.5% | 926.1hPa | 2.8V | 06:55:10 | 03:57:44 | 00:00:00 | |
| BIOWL1-15 | 2026-09-01 02:15:17 | 51.14074 | 9.39653 | 115° | 44km/h | 837m | -2.1m/s | 12.5°C | 86.7% | 926hPa | 2.8V | 06:55:10 | 03:57:43 | 00:00:00 | |
| DM0DOS-11 | 2026-09-01 02:15:16 | 51.14088 | 9.39603 | 113° | 47km/h | 844m | -2m/s | 12.4°C | 82.7% | 925.2hPa | 2.8V | 06:54:39 | 03:57:40 | 00:00:00 | |
| DM0DOS-11 | 2026-09-01 02:15:16 | 51.14098 | 9.39566 | 109° | 51km/h | 848m | -2m/s | 12.4°C | 82.7% | 924.8hPa | 2.8V | 06:54:41 | 03:57:38 | 00:00:00 | |
| BIOWL1-15 | 2026-09-01 02:15:15 | 51.14088 | 9.39603 | 113° | 47km/h | 844m | -2m/s | 12.4°C | 86.5% | 925.2hPa | 2.8V | 06:55:10 | 03:57:40 | 00:00:00 | |
| DM0DOS-11 | 2026-09-01 02:15:11 | 51.14104 | 9.39526 | 103° | 51km/h | 852m | -2.1m/s | 12.3°C | 83.1% | 924.5hPa | 2.8V | 06:54:43 | 03:57:36 | 00:00:00 | |
| DM0DOS-11 | 2026-09-01 02:15:05 | 51.14115 | 9.39419 | 101° | 38km/h | 864m | -2.1m/s | 12.3°C | 82.7% | 923hPa | 2.8V | 06:54:49 | 03:57:30 | 00:00:00 | |
| DM0DOS-11 | 2026-09-01 02:15:05 | 51.14120 | 9.39389 | 106° | 38km/h | 868m | -2.2m/s | 12.4°C | 82% | 922.4hPa | 2.8V | 06:54:51 | 03:57:28 | 00:00:00 | |
| BIOWL1-15 | 2026-09-01 02:15:04 | 51.14117 | 9.39404 | 104° | 38km/h | 866m | -2.2m/s | 12.4°C | 85.1% | 922.8hPa | 2.7V | 06:55:10 | 03:57:29 | 00:00:00 | |
| DM0DOS-11 | 2026-09-01 02:15:00 | 51.14136 | 9.39327 | 114° | 46km/h | 877m | -2m/s | 12.5°C | 79.9% | 921.6hPa | 2.8V | 06:54:55 | 03:57:24 | 00:00:00 | |
| DM0DOS-11 | 2026-09-01 02:15:00 | 51.14145 | 9.39291 | 111° | 51km/h | 881m | -2.2m/s | 12.5°C | 79.5% | 921.2hPa | 2.8V | 06:54:57 | 03:57:22 | 00:00:00 | |
| BIOWL1-15 | 2026-09-01 02:14:55 | 51.14150 | 9.39271 | 109° | 53km/h | 884m | -2.2m/s | 12.5°C | 84% | 921hPa | 2.8V | 06:55:10 | 03:57:21 | 00:00:00 | |
| BIOWL1-15 | 2026-09-01 02:14:52 | 51.14161 | 9.39210 | 102° | 51km/h | 890m | -2.1m/s | 12.4°C | 83.4% | 920.3hPa | 2.7V | 06:55:10 | 03:57:18 | 00:00:00 | |
| BIOWL1-15 | 2026-09-01 02:14:51 | 51.14163 | 9.39190 | 101° | 49km/h | 892m | -2.1m/s | 12.4°C | 83.2% | 920.1hPa | 2.8V | 06:55:10 | 03:57:17 | 00:00:00 | |
| BIOWL1-15 | 2026-09-01 02:14:50 | 51.14165 | 9.39171 | 100° | 47km/h | 894m | -2.1m/s | 12.4°C | 82.8% | 919.6hPa | 2.8V | 06:55:10 | 03:57:16 | 00:00:00 | |
| DM0DOS-11 | 2026-09-01 02:14:49 | 51.14169 | 9.39136 | 101° | 42km/h | 898m | -2.1m/s | 12.4°C | 78.4% | 919.4hPa | 2.8V | 06:55:05 | 03:57:14 | 00:00:00 | |
| DM0DOS-11 | 2026-09-01 02:14:49 | 51.14174 | 9.39104 | 105° | 40km/h | 903m | -2.1m/s | 12.3°C | 78.4% | 918.9hPa | 2.8V | 06:55:07 | 03:57:12 | 00:00:00 | |
| BIOWL1-15 | 2026-09-01 02:14:47 | 51.14172 | 9.39119 | 103° | 40km/h | 900m | -2.3m/s | 12.4°C | 81.2% | 918.8hPa | 2.8V | 06:55:10 | 03:57:13 | 00:00:00 | |
| BIOWL1-15 | 2026-09-01 02:14:46 | 51.14180 | 9.39073 | 109° | 38km/h | 907m | -2.3m/s | 12.3°C | 81.4% | 918.2hPa | 2.8V | 06:55:10 | 03:57:10 | 00:00:00 | |
| DM0DOS-11 | 2026-09-01 02:14:43 | 51.14201 | 9.38987 | 114° | 38km/h | 920m | -2.3m/s | 12.3°C | 76.7% | 916.8hPa | 2.8V | 06:55:15 | 03:57:04 | 00:00:00 | |
| BIOWL1-15 | 2026-09-01 02:14:42 | 51.14201 | 9.38987 | 114° | 38km/h | 920m | -2.3m/s | 12.3°C | 81.1% | 916.8hPa | 2.8V | 06:56:01 | 03:57:04 | 00:00:00 | |
| BIOWL1-15 | 2026-09-01 02:14:42 | 51.14205 | 9.38973 | 116° | 38km/h | 923m | -2.4m/s | 12.3°C | 81.1% | 916.5hPa | 2.8V | 06:56:01 | 03:57:03 | 00:00:00 | |
| BIOWL1-15 | 2026-09-01 02:14:38 | 51.14210 | 9.38959 | 116° | 40km/h | 925m | -2.2m/s | 12.3°C | 80.4% | 916.4hPa | 2.8V | 06:56:01 | 03:57:02 | 00:00:00 | |
| DM0DOS-11 | 2026-09-01 02:14:37 | 51.14219 | 9.38929 | 118° | 42km/h | 930m | -2.5m/s | 12.2°C | 76% | 915.7hPa | 2.8V | 06:55:19 | 03:57:00 | 00:00:00 | |
| BIOWL1-15 | 2026-09-01 02:14:34 | 51.14219 | 9.38929 | 118° | 42km/h | 930m | -2.5m/s | 12.2°C | 80% | 915.7hPa | 2.8V | 06:56:01 | 03:57:00 | 00:00:00 | |
| BIOWL1-15 | 2026-09-01 02:14:33 | 51.14225 | 9.38914 | 119° | 44km/h | 932m | -2.4m/s | 12.2°C | 80.2% | 915.6hPa | 2.8V | 06:56:01 | 03:56:59 | 00:00:00 | |
| DM0DOS-11 | 2026-09-01 02:14:31 | 51.14241 | 9.38865 | 116° | 49km/h | 939m | -2.3m/s | 12.2°C | 76.9% | 914.8hPa | 2.8V | 06:55:23 | 03:56:56 | 00:00:00 | |
| DM0DOS-11 | 2026-09-01 02:14:31 | 51.14251 | 9.38829 | 110° | 49km/h | 943m | -2.1m/s | 12.2°C | 76.1% | 914.2hPa | 2.8V | 06:55:25 | 03:56:54 | 00:00:00 | |
| BIOWL1-15 | 2026-09-01 02:14:29 | 51.14246 | 9.38847 | 115° | 49km/h | 941m | -2.2m/s | 12.2°C | 79.5% | 914.6hPa | 2.8V | 06:56:01 | 03:56:55 | 00:00:00 | |
| BIOWL1-15 | 2026-09-01 02:14:28 | 51.14251 | 9.38829 | 111° | 49km/h | 943m | -2.1m/s | 12.2°C | 79.2% | 914.2hPa | 2.8V | 06:56:01 | 03:56:54 | 00:00:00 | |
| BIOWL1-15 | 2026-09-01 02:14:26 | 51.14259 | 9.38791 | 105° | 47km/h | 947m | -2.1m/s | 12.2°C | 78.9% | 913.9hPa | 2.8V | 06:56:01 | 03:56:52 | 00:00:00 | |
| BIOWL9-15 | 2026-09-01 02:14:25 | 51.14261 | 9.38773 | 102° | 44km/h | 949m | -2.2m/s | 12.2°C | 74.9% | 913.6hPa | 2.8V | 00:00:00 | 00:00:00 | 00:00:00 | |
| DM0DOS-11 | 2026-09-01 02:14:25 | 51.14273 | 9.38693 | 104° | 38km/h | 962m | -2.6m/s | 12.2°C | 72.1% | 912.2hPa | 2.8V | 06:55:33 | 03:56:46 | 00:00:00 | |
| BIOWL1-15 | 2026-09-01 02:14:24 | 51.14264 | 9.38756 | 103° | 42km/h | 952m | -2.3m/s | 12.2°C | 77.5% | 913.4hPa | 2.8V | 06:56:01 | 03:56:50 | 00:00:00 | |
| BIOWL1-15 | 2026-09-01 02:14:23 | 51.14266 | 9.38740 | 102° | 42km/h | 954m | -2.5m/s | 12.2°C | 77.1% | 913.1hPa | 2.8V | 06:56:01 | 03:56:49 | 00:00:00 | |
| BIOWL1-15 | 2026-09-01 02:14:21 | 51.14273 | 9.38693 | 105° | 38km/h | 962m | -2.6m/s | 12.2°C | 76.8% | 912.2hPa | 2.8V | 06:56:01 | 03:56:46 | 00:00:00 | |
| BIOWL1-15 | 2026-09-01 02:14:21 | 51.14276 | 9.38678 | 106° | 38km/h | 964m | -2.4m/s | 12.2°C | 76.9% | 912hPa | 2.8V | 06:56:01 | 03:56:45 | 00:00:00 | |
| DM0DOS-11 | 2026-09-01 02:14:20 | 51.14279 | 9.38663 | 108° | 38km/h | 967m | -2.3m/s | 12.2°C | 71.5% | 911.7hPa | 2.8V | 06:55:35 | 03:56:44 | 00:00:00 | |
| DM0DOS-11 | 2026-09-01 02:14:20 | 51.14285 | 9.38635 | 113° | 37km/h | 971m | -2.2m/s | 12.2°C | 71.5% | 911.2hPa | 2.8V | 06:55:37 | 03:56:42 | 00:00:00 | |
| BIOWL1-15 | 2026-09-01 02:14:17 | 51.14282 | 9.38649 | 111° | 37km/h | 969m | -2.3m/s | 12.2°C | 77% | 911.4hPa | 2.8V | 06:56:01 | 03:56:43 | 00:00:00 | |
| BIOWL1-15 | 2026-09-01 02:14:16 | 51.14285 | 9.38635 | 114° | 37km/h | 971m | -2.3m/s | 12.2°C | 76.7% | 911.2hPa | 2.8V | 06:56:01 | 03:56:42 | 00:00:00 | |
| DM0DOS-11 | 2026-09-01 02:14:15 | 51.14305 | 9.38580 | 122° | 44km/h | 980m | -2m/s | 12.2°C | 71% | 910.2hPa | 2.7V | 06:55:41 | 03:56:38 | 00:00:00 | |
| DM0DOS-11 | 2026-09-01 02:14:15 | 51.14317 | 9.38548 | 120° | 47km/h | 985m | -2.2m/s | 12.1°C | 71% | 909.8hPa | 2.8V | 06:55:43 | 03:56:36 | 00:00:00 | |
| BIOWL1-15 | 2026-09-01 02:14:14 | 51.14317 | 9.38548 | 121° | 47km/h | 985m | -2.2m/s | 12.1°C | 74.9% | 909.8hPa | 2.8V | 06:56:01 | 03:56:36 | 00:00:00 | |
| DM0DOS-11 | 2026-09-01 02:14:09 | 51.14329 | 9.38514 | 115° | 49km/h | 989m | -2m/s | 12.1°C | 71% | 909.5hPa | 2.8V | 06:55:45 | 03:56:34 | 00:00:00 | |
| DM0DOS-11 | 2026-09-01 02:14:09 | 51.14338 | 9.38477 | 108° | 47km/h | 993m | -2.1m/s | 12.1°C | 71% | 908.9hPa | 2.8V | 06:55:47 | 03:56:32 | 00:00:00 | |
| DM0DOS-11 | 2026-09-01 02:14:09 | 51.14344 | 9.38443 | 105° | 42km/h | 998m | -2.4m/s | 12.1°C | 71.4% | 908.5hPa | 2.8V | 06:55:49 | 03:56:30 | 00:00:00 | |
| HSKMA3-T | 2026-09-01 02:14:09 | 51.14323 | 9.38531 | 119° | 49km/h | 987m | -2.2m/s | 12.1°C | 75% | 909.7hPa | 2.8V | 06:57:43 | 03:56:35 | 00:00:00 | |
| BIOWL1-15 | 2026-09-01 02:14:08 | 51.14329 | 9.38514 | 116° | 49km/h | 989m | -2m/s | 12.1°C | 75.2% | 909.5hPa | 2.8V | 06:56:01 | 03:56:34 | 00:00:00 | |
| BIOWL1-15 | 2026-09-01 02:14:06 | 51.14338 | 9.38477 | 109° | 47km/h | 993m | -2.2m/s | 12.1°C | 75.2% | 908.9hPa | 2.8V | 06:56:01 | 03:56:32 | 00:00:00 | |
| BIOWL1-15 | 2026-09-01 02:14:05 | 51.14342 | 9.38460 | 106° | 44km/h | 995m | -2.3m/s | 12.1°C | 75.4% | 908.6hPa | 2.8V | 06:56:01 | 03:56:31 | 00:00:00 | |
| BIOWL1-15 | 2026-09-01 02:14:04 | 51.14365 | 9.38359 | 120° | 37km/h | 1012m | -2.5m/s | 11.9°C | 76.8% | 906.7hPa | 2.8V | 06:56:01 | 03:56:24 | 00:00:00 | |
| DM0DOS-11 | 2026-09-01 02:14:03 | 51.14357 | 9.38385 | 113° | 37km/h | 1007m | -2.2m/s | 11.9°C | 71.8% | 907.2hPa | 2.8V | 06:55:53 | 03:56:26 | 00:00:00 | |
| BIOWL1-15 | 2026-09-01 02:13:59 | 51.14370 | 9.38346 | 122° | 38km/h | 1015m | -2.3m/s | 11.9°C | 77.1% | 906.7hPa | 2.8V | 06:56:01 | 03:56:23 | 00:00:00 | |
| DM0DOS-11 | 2026-09-01 02:13:57 | 51.14375 | 9.38333 | 123° | 40km/h | 1017m | -2.4m/s | 11.9°C | 72% | 906.3hPa | 2.8V | 06:55:57 | 03:56:22 | 00:00:00 | |
| DM0DOS-11 | 2026-09-01 02:13:57 | 51.14388 | 9.38305 | 123° | 44km/h | 1022m | -2.3m/s | 11.8°C | 72% | 905.7hPa | 2.8V | 06:55:59 | 03:56:20 | 00:00:00 | |
| DM0DOS-11 | 2026-09-01 02:13:57 | 51.14400 | 9.38274 | 122° | 46km/h | 1027m | -2.4m/s | 11.8°C | 72.5% | 905.3hPa | 2.8V | 06:56:01 | 03:56:18 | 00:00:00 | |
| BIOWL1-15 | 2026-09-01 02:13:55 | 51.14381 | 9.38319 | 125° | 42km/h | 1020m | -2.5m/s | 11.8°C | 77.4% | 906hPa | 2.8V | 06:56:01 | 03:56:21 | 00:00:00 | |
| BIOWL1-15 | 2026-09-01 02:13:53 | 51.14418 | 9.38224 | 118° | 49km/h | 1034m | -2.3m/s | 11.7°C | 77% | 904.5hPa | 2.8V | 06:56:52 | 03:56:15 | 00:00:00 | |
| BIOWL1-15 | 2026-09-01 02:13:47 | 51.14434 | 9.38171 | 110° | 47km/h | 1041m | -2.3m/s | 11.7°C | 77.5% | 903.6hPa | 2.8V | 06:56:52 | 03:56:12 | 00:00:00 | |
| BIOWL1-15 | 2026-09-01 02:13:47 | 51.14437 | 9.38153 | 108° | 46km/h | 1043m | -2.5m/s | 11.6°C | 77.4% | 903.3hPa | 2.8V | 06:56:52 | 03:56:11 | 00:00:00 | |
| DM0DOS-11 | 2026-09-01 02:13:45 | 51.14452 | 9.38073 | 107° | 37km/h | 1056m | -2.6m/s | 11.5°C | 73.2% | 902.1hPa | 2.8V | 06:56:13 | 03:56:06 | 00:00:00 | |
| BIOWL1-15 | 2026-09-01 02:13:43 | 51.14447 | 9.38103 | 106° | 40km/h | 1051m | -2.4m/s | 11.5°C | 77.8% | 902.6hPa | 2.8V | 06:56:52 | 03:56:08 | 00:00:00 | |
| BIOWL1-15 | 2026-09-01 02:13:43 | 51.14450 | 9.38088 | 107° | 38km/h | 1053m | -2.5m/s | 11.5°C | 78% | 902.5hPa | 2.8V | 06:56:52 | 03:56:07 | 00:00:00 | |
| DM0DOS-11 | 2026-09-01 02:13:40 | 51.14458 | 9.38046 | 112° | 35km/h | 1061m | -2.5m/s | 11.5°C | 73.1% | 901.6hPa | 2.8V | 06:56:15 | 03:56:04 | 00:00:00 | |
| DM0DOS-11 | 2026-09-01 02:13:40 | 51.14466 | 9.38021 | 118° | 35km/h | 1066m | -2.5m/s | 11.4°C | 73.3% | 901.1hPa | 2.8V | 06:56:17 | 03:56:02 | 00:00:00 | |
| BIOWL1-15 | 2026-09-01 02:13:39 | 51.14455 | 9.38059 | 109° | 35km/h | 1058m | -2.5m/s | 11.5°C | 78.2% | 901.9hPa | 2.8V | 06:56:52 | 03:56:05 | 00:00:00 | |
| BIOWL1-15 | 2026-09-01 02:13:37 | 51.14462 | 9.38034 | 115° | 35km/h | 1063m | -2.5m/s | 11.5°C | 78.4% | 901.3hPa | 2.8V | 06:56:52 | 03:56:03 | 00:00:00 | |
| DM0DOS-11 | 2026-09-01 02:13:35 | 51.14486 | 9.37972 | 126° | 40km/h | 1076m | -2.6m/s | 11.3°C | 73.7% | 899.9hPa | 2.8V | 06:56:21 | 03:55:58 | 00:00:00 | |
| DM0DOS-11 | 2026-09-01 02:13:35 | 51.14499 | 9.37945 | 124° | 44km/h | 1081m | -2.4m/s | 11.3°C | 74% | 899.4hPa | 2.8V | 06:56:23 | 03:55:56 | 00:00:00 | |
| BIOWL1-15 | 2026-09-01 02:13:35 | 51.14470 | 9.38009 | 122° | 35km/h | 1068m | -2.6m/s | 11.4°C | 78.6% | 900.8hPa | 2.7V | 06:56:52 | 03:56:01 | 00:00:00 | |
| BIOWL1-15 | 2026-09-01 02:13:34 | 51.14475 | 9.37997 | 124° | 37km/h | 1071m | -2.6m/s | 11.4°C | 78.6% | 900.4hPa | 2.8V | 06:56:52 | 03:56:00 | 00:00:00 | |
| BIOWL1-15 | 2026-09-01 02:13:32 | 51.14486 | 9.37972 | 126° | 40km/h | 1076m | -2.6m/s | 11.3°C | 78.3% | 899.9hPa | 2.8V | 06:56:52 | 03:55:58 | 00:00:00 | |
| BIOWL1-15 | 2026-09-01 02:13:30 | 51.14499 | 9.37945 | 124° | 44km/h | 1081m | -2.4m/s | 11.3°C | 78.7% | 899.4hPa | 2.8V | 06:56:52 | 03:55:56 | 00:00:00 | |
| BIOWL1-15 | 2026-09-01 02:13:29 | 51.14505 | 9.37930 | 122° | 46km/h | 1083m | -2.3m/s | 11.2°C | 78.7% | 899.2hPa | 2.8V | 06:56:52 | 03:55:55 | 00:00:00 | |
| HSKMA3-T | 2026-09-01 02:13:28 | 51.14511 | 9.37914 | 120° | 47km/h | 1086m | -2.3m/s | 11.2°C | 78.8% | 899hPa | 2.8V | 06:57:43 | 03:55:54 | 00:00:00 | |
| BIOWL1-15 | 2026-09-01 02:13:27 | 51.14522 | 9.37879 | 113° | 47km/h | 1090m | -2.5m/s | 11.2°C | 78.7% | 898.2hPa | 2.7V | 06:56:52 | 03:55:52 | 00:00:00 | |
| BIOWL1-15 | 2026-09-01 02:13:27 | 51.14526 | 9.37861 | 110° | 46km/h | 1093m | -2.6m/s | 11.2°C | 78.7% | 898.1hPa | 2.8V | 06:56:52 | 03:55:51 | 00:00:00 | |
| BIOWL1-15 | 2026-09-01 02:13:23 | 51.14533 | 9.37828 | 107° | 42km/h | 1098m | -2.4m/s | 11.1°C | 78.6% | 897.6hPa | 2.8V | 06:56:52 | 03:55:49 | 00:00:00 | |
| BIOWL1-15 | 2026-09-01 02:13:21 | 51.14549 | 9.37759 | 118° | 33km/h | 1109m | -2.5m/s | 11°C | 79.1% | 896.2hPa | 2.8V | 06:56:52 | 03:55:44 | 00:00:00 | |
| HSKMA3-T | 2026-09-01 02:13:17 | 51.14553 | 9.37748 | 122° | 35km/h | 1112m | -2.5m/s | 11°C | 79.2% | 896hPa | 2.7V | 06:57:43 | 03:55:43 | 00:00:00 | |
| BIOWL1-15 | 2026-09-01 02:13:15 | 51.14564 | 9.37724 | 127° | 38km/h | 1116m | -2.5m/s | 10.9°C | 78.9% | 895.6hPa | 2.8V | 06:56:52 | 03:55:41 | 00:00:00 | |
| BIOWL1-15 | 2026-09-01 02:13:13 | 51.14582 | 9.37682 | 123° | 46km/h | 1124m | -2.4m/s | 10.9°C | 79.1% | 894.8hPa | 2.8V | 06:56:52 | 03:55:38 | 00:00:00 | |
| DM0DOS-11 | 2026-09-01 02:13:13 | 51.14594 | 9.37649 | 116° | 47km/h | 1129m | -2.3m/s | 10.8°C | 75% | 894.2hPa | 2.8V | 06:56:43 | 03:55:36 | 00:00:00 | |
| BIOWL1-15 | 2026-09-01 02:13:13 | 51.14588 | 9.37666 | 120° | 47km/h | 1126m | -2.5m/s | 10.9°C | 79.2% | 894.6hPa | 2.8V | 06:56:52 | 03:55:37 | 00:00:00 | |
| BIOWL1-15 | 2026-09-01 02:13:10 | 51.14594 | 9.37649 | 117° | 47km/h | 1129m | -2.3m/s | 10.8°C | 79.3% | 894.2hPa | 2.8V | 06:56:52 | 03:55:36 | 00:00:00 | |
| BIOWL1-15 | 2026-09-01 02:13:08 | 51.14604 | 9.37615 | 111° | 46km/h | 1134m | -2.5m/s | 10.8°C | 79.8% | 893.9hPa | 2.8V | 06:56:52 | 03:55:34 | 00:00:00 | |
| DM0DOS-11 | 2026-09-01 02:13:07 | 51.14611 | 9.37580 | 107° | 44km/h | 1138m | -2.2m/s | 10.8°C | 75.5% | 893.2hPa | 2.8V | 06:56:47 | 03:55:32 | 00:00:00 | |
| BIOWL1-15 | 2026-09-01 02:13:07 | 51.14608 | 9.37597 | 109° | 46km/h | 1136m | -2.5m/s | 10.8°C | 79.9% | 893.4hPa | 2.8V | 06:56:52 | 03:55:33 | 00:00:00 | |
| HSKMA3-T | 2026-09-01 02:13:06 | 51.14611 | 9.37580 | 107° | 44km/h | 1138m | -2.2m/s | 10.8°C | 80.1% | 893.2hPa | 2.8V | 06:57:43 | 03:55:32 | 00:00:00 | |
| BIOWL1-15 | 2026-09-01 02:13:05 | 51.14614 | 9.37564 | 106° | 40km/h | 1141m | -2.5m/s | 10.7°C | 80.1% | 893hPa | 2.8V | 06:56:52 | 03:55:31 | 00:00:00 | |
| BIOWL1-15 | 2026-09-01 02:13:04 | 51.14617 | 9.37549 | 106° | 38km/h | 1144m | -2.6m/s | 10.7°C | 80.2% | 892.9hPa | 2.8V | 06:56:52 | 03:55:30 | 00:00:00 | |
| BIOWL1-15 | 2026-09-01 02:13:02 | 51.14623 | 9.37520 | 108° | 35km/h | 1148m | -2.4m/s | 10.7°C | 80.5% | 892.1hPa | 2.8V | 06:56:52 | 03:55:28 | 00:00:00 | |
| BIOWL1-15 | 2026-09-01 02:13:00 | 51.14629 | 9.37495 | 115° | 33km/h | 1153m | -2.4m/s | 10.6°C | 80.7% | 891.7hPa | 2.7V | 06:57:43 | 03:55:26 | 00:00:00 | |
| BIOWL1-15 | 2026-09-01 02:12:59 | 51.14632 | 9.37483 | 119° | 33km/h | 1156m | -2.3m/s | 10.6°C | 80.8% | 891.4hPa | 2.8V | 06:57:43 | 03:55:25 | 00:00:00 | |
| BIOWL1-15 | 2026-09-01 02:12:58 | 51.14637 | 9.37472 | 122° | 33km/h | 1158m | -2.4m/s | 10.6°C | 80.8% | 891.1hPa | 2.8V | 06:57:43 | 03:55:24 | 00:00:00 | |
| BIOWL1-15 | 2026-09-01 02:12:56 | 51.14647 | 9.37448 | 127° | 38km/h | 1163m | -2.3m/s | 10.5°C | 80.7% | 890.7hPa | 2.8V | 06:57:43 | 03:55:22 | 00:00:00 | |
| DM0DOS-11 | 2026-09-01 02:12:55 | 51.14660 | 9.37422 | 125° | 44km/h | 1167m | -2.3m/s | 10.5°C | 76.7% | 890.1hPa | 2.8V | 06:56:59 | 03:55:20 | 00:00:00 | |
| DM0DOS-11 | 2026-09-01 02:12:55 | 51.14682 | 9.37358 | 112° | 46km/h | 1177m | -2.2m/s | 10.4°C | 77.1% | 889.2hPa | 2.8V | 06:57:03 | 03:55:16 | 00:00:00 | |
| BIOWL1-15 | 2026-09-01 02:12:55 | 51.14653 | 9.37435 | 127° | 40km/h | 1165m | -2.2m/s | 10.5°C | 80.7% | 890.5hPa | 2.8V | 06:57:43 | 03:55:21 | 00:00:00 | |
| BIOWL1-15 | 2026-09-01 02:12:53 | 51.14672 | 9.37391 | 120° | 46km/h | 1172m | -2.3m/s | 10.4°C | 80.9% | 889.5hPa | 2.8V | 06:57:43 | 03:55:18 | 00:00:00 | |
| BIOWL1-15 | 2026-09-01 02:12:53 | 51.14677 | 9.37375 | 116° | 47km/h | 1174m | -2.2m/s | 10.4°C | 81% | 889.5hPa | 2.7V | 06:57:43 | 03:55:17 | 00:00:00 | |
| BIOWL1-15 | 2026-09-01 02:12:49 | 51.14686 | 9.37341 | 110° | 44km/h | 1179m | -2.1m/s | 10.4°C | 81.8% | 889hPa | 2.8V | 06:57:43 | 03:55:15 | 00:00:00 | |
| BIOWL1-15 | 2026-09-01 02:12:48 | 51.14690 | 9.37325 | 108° | 42km/h | 1181m | -2.3m/s | 10.3°C | 81.9% | 888.6hPa | 2.8V | 06:57:43 | 03:55:14 | 00:00:00 | |
| BIOWL1-15 | 2026-09-01 02:12:46 | 51.14696 | 9.37294 | 107° | 37km/h | 1186m | -2.2m/s | 10.3°C | 82.1% | 888.2hPa | 2.8V | 06:57:43 | 03:55:12 | 00:00:00 | |
| BIOWL1-15 | 2026-09-01 02:12:44 | 51.14701 | 9.37267 | 111° | 33km/h | 1191m | -2.4m/s | 10.3°C | 81.6% | 887.6hPa | 2.8V | 06:57:43 | 03:55:10 | 00:00:00 | |
| DM0DOS-11 | 2026-09-01 02:12:43 | 51.14708 | 9.37243 | 119° | 33km/h | 1195m | -2.2m/s | 10.2°C | 77% | 887.2hPa | 2.8V | 06:57:11 | 03:55:08 | 00:00:00 | |
| BIOWL1-15 | 2026-09-01 02:12:42 | 51.14708 | 9.37243 | 120° | 33km/h | 1195m | -2.3m/s | 10.2°C | 82% | 887.2hPa | 2.8V | 06:57:43 | 03:55:08 | 00:00:00 | |
| HSKMA3-T | 2026-09-01 02:12:41 | 51.14713 | 9.37232 | 123° | 35km/h | 1198m | -2.3m/s | 10.2°C | 82.4% | 887hPa | 2.8V | 06:57:43 | 03:55:07 | 00:00:00 | |
| BIOWL1-15 | 2026-09-01 02:12:40 | 51.14718 | 9.37219 | 126° | 38km/h | 1200m | -2.4m/s | 10.2°C | 82.7% | 886.7hPa | 2.8V | 06:57:43 | 03:55:06 | 00:00:00 | |
| BIOWL1-15 | 2026-09-01 02:12:38 | 51.14736 | 9.37179 | 123° | 44km/h | 1207m | -2.3m/s | 10.1°C | 81.8% | 885.8hPa | 2.8V | 06:57:43 | 03:55:03 | 00:00:00 | |
| BIOWL1-15 | 2026-09-01 02:12:38 | 51.14742 | 9.37163 | 121° | 46km/h | 1209m | -2.5m/s | 10.1°C | 81.5% | 885.6hPa | 2.8V | 06:57:43 | 03:55:02 | 00:00:00 | |
| DM0DOS-11 | 2026-09-01 02:12:37 | 51.14753 | 9.37131 | 116° | 47km/h | 1215m | -2.7m/s | 10.1°C | 77.5% | 885.1hPa | 2.7V | 06:57:19 | 03:55:00 | 00:00:00 | |
| BIOWL1-15 | 2026-09-01 02:12:35 | 51.14748 | 9.37147 | 119° | 46km/h | 1212m | -2.4m/s | 10.1°C | 81.4% | 885.4hPa | 2.8V | 06:57:43 | 03:55:01 | 00:00:00 | |
| BIOWL1-15 | 2026-09-01 02:12:33 | 51.14763 | 9.37097 | 111° | 46km/h | 1220m | -2.5m/s | 10°C | 82% | 884.6hPa | 2.8V | 06:57:43 | 03:54:58 | 00:00:00 | |
| BIOWL1-15 | 2026-09-01 02:12:33 | 51.14767 | 9.37079 | 109° | 46km/h | 1222m | -2.7m/s | 10°C | 82.1% | 884.4hPa | 2.8V | 06:57:43 | 03:54:57 | 00:00:00 | |
| HSKMA3-T | 2026-09-01 02:12:30 | 51.14770 | 9.37062 | 108° | 44km/h | 1225m | -2.4m/s | 10°C | 82.1% | 884hPa | 2.8V | 06:57:43 | 03:54:56 | 00:00:00 | |
| BIOWL1-15 | 2026-09-01 02:12:29 | 51.14776 | 9.37031 | 106° | 38km/h | 1230m | -2.4m/s | 9.9°C | 81.8% | 883.5hPa | 2.8V | 06:57:43 | 03:54:54 | 00:00:00 | |
| BIOWL1-15 | 2026-09-01 02:12:29 | 51.14779 | 9.37016 | 107° | 37km/h | 1232m | -2.5m/s | 9.9°C | 81.5% | 883.1hPa | 2.8V | 06:57:43 | 03:54:53 | 00:00:00 | |
| DM0DOS-11 | 2026-09-01 02:12:25 | 51.14799 | 9.36954 | 125° | 37km/h | 1244m | -2.4m/s | 9.8°C | 77.7% | 882.1hPa | 2.8V | 06:57:31 | 03:54:48 | 00:00:00 | |
| BIOWL1-15 | 2026-09-01 02:12:25 | 51.14785 | 9.36990 | 115° | 33km/h | 1237m | -2.2m/s | 9.9°C | 81.5% | 882.9hPa | 2.8V | 06:57:43 | 03:54:51 | 00:00:00 | |
| BIOWL1-15 | 2026-09-01 02:12:24 | 51.14789 | 9.36978 | 119° | 33km/h | 1239m | -2.3m/s | 9.9°C | 81.6% | 882.5hPa | 2.8V | 06:57:43 | 03:54:50 | 00:00:00 | |
| BIOWL1-15 | 2026-09-01 02:12:22 | 51.14799 | 9.36954 | 125° | 37km/h | 1244m | -2.4m/s | 9.8°C | 81.4% | 882.1hPa | 2.8V | 06:57:43 | 03:54:48 | 00:00:00 | |
| HSKMA3-T | 2026-09-01 02:12:20 | 51.14810 | 9.36929 | 126° | 42km/h | 1248m | -2.5m/s | 9.8°C | 81.4% | 881.5hPa | 2.8V | 06:57:43 | 03:54:46 | 00:00:00 | |
| BIOWL1-15 | 2026-09-01 02:12:19 | 51.14816 | 9.36915 | 125° | 44km/h | 1251m | -2.4m/s | 9.8°C | 81.5% | 881.2hPa | 2.8V | 06:57:43 | 03:54:45 | 00:00:00 | |
| BIOWL1-15 | 2026-09-01 02:12:17 | 51.14829 | 9.36885 | 123° | 46km/h | 1256m | -2.5m/s | 9.8°C | 81.5% | 880.8hPa | 2.8V | 06:57:43 | 03:54:43 | 00:00:00 | |
| BIOWL1-15 | 2026-09-01 02:12:16 | 51.14835 | 9.36870 | 121° | 46km/h | 1258m | -2.4m/s | 9.8°C | 81.1% | 880.5hPa | 2.8V | 06:57:43 | 03:54:42 | 00:00:00 | |
| BIOWL1-15 | 2026-09-01 02:12:14 | 51.14846 | 9.36837 | 117° | 47km/h | 1263m | -2.4m/s | 9.7°C | 81.8% | 880.1hPa | 2.8V | 06:57:43 | 03:54:40 | 00:00:00 | |
| BIOWL1-15 | 2026-09-01 02:12:12 | 51.14857 | 9.36802 | 113° | 47km/h | 1267m | -2.2m/s | 9.7°C | 81.8% | 879.5hPa | 2.8V | 06:57:43 | 03:54:38 | 00:00:00 | |
| HSKMA3-T | 2026-09-01 02:12:10 | 51.14865 | 9.36766 | 109° | 47km/h | 1272m | -2.5m/s | 9.7°C | 82.2% | 879.1hPa | 2.7V | 06:57:43 | 03:54:36 | 00:00:00 | |
| DM0DOS-11 | 2026-09-01 02:12:09 | 51.14872 | 9.36730 | 105° | 46km/h | 1277m | -2.4m/s | 9.6°C | 77.1% | 878.5hPa | 2.8V | 06:57:45 | 03:54:34 | 00:00:00 | |
| DM0DOS-11 | 2026-09-01 02:12:09 | 51.14878 | 9.36697 | 103° | 42km/h | 1282m | -2.3m/s | 9.6°C | 77.3% | 878.2hPa | 2.8V | 06:57:47 | 03:54:32 | 00:00:00 | |
| BIOWL1-15 | 2026-09-01 02:12:08 | 51.14872 | 9.36730 | 106° | 46km/h | 1277m | -2.4m/s | 9.6°C | 82.2% | 878.5hPa | 2.8V | 06:58:34 | 03:54:34 | 00:00:00 | |
| BIOWL1-15 | 2026-09-01 02:12:07 | 51.14880 | 9.36681 | 104° | 38km/h | 1284m | -2m/s | 9.6°C | 82% | 877.8hPa | 2.8V | 06:58:34 | 03:54:31 | 00:00:00 | |
| BIOWL1-15 | 2026-09-01 02:12:06 | 51.14882 | 9.36667 | 106° | 37km/h | 1286m | -2.1m/s | 9.5°C | 81.8% | 877.5hPa | 2.8V | 06:58:34 | 03:54:30 | 00:00:00 | |
| DL1ZP-14 | 2026-09-01 02:12:05 | 51.14880 | 9.36681 | 103° | 38km/h | 1284m | -2.0m/s | 9.6°C | 77.1% | 877.8hPa | 2.8V | 00:00:00 | 00:00:00 | 00:00:00 | |
| DM0DOS-11 | 2026-09-01 02:12:03 | 51.14888 | 9.36641 | 114° | 35km/h | 1291m | -2.2m/s | 9.5°C | 77.7% | 877.1hPa | 2.7V | 06:57:51 | 03:54:28 | 00:00:00 | |
| DM0DOS-11 | 2026-09-01 02:12:03 | 51.14897 | 9.36616 | 121° | 37km/h | 1295m | -2.1m/s | 9.5°C | 77.9% | 876.7hPa | 2.8V | 06:57:53 | 03:54:26 | 00:00:00 | |
| BIOWL1-15 | 2026-09-01 02:12:02 | 51.14888 | 9.36641 | 115° | 35km/h | 1291m | -2.2m/s | 9.5°C | 81.9% | 877.1hPa | 2.7V | 06:58:34 | 03:54:28 | 00:00:00 | |
| BIOWL1-15 | 2026-09-01 02:12:00 | 51.14902 | 9.36602 | 123° | 40km/h | 1297m | -2.3m/s | 9.4°C | 81.6% | 876.3hPa | 2.8V | 06:58:34 | 03:54:25 | 00:00:00 | |
| BIOWL1-15 | 2026-09-01 02:12:00 | 51.14908 | 9.36588 | 121° | 44km/h | 1299m | -2.1m/s | 9.4°C | 81.2% | 876.2hPa | 2.8V | 06:58:34 | 03:54:24 | 00:00:00 | |
| HSKMA3-T | 2026-09-01 02:12:00 | 51.14897 | 9.36616 | 122° | 38km/h | 1295m | -2.1m/s | 9.5°C | 81.7% | 876.7hPa | 2.8V | 06:58:34 | 03:54:26 | 00:00:00 | |
| DM0DOS-11 | 2026-09-01 02:11:57 | 51.14919 | 9.36556 | 116° | 47km/h | 1304m | -2.1m/s | 9.4°C | 78.2% | 875.8hPa | 2.8V | 06:57:57 | 03:54:22 | 00:00:00 | |
| BIOWL1-15 | 2026-09-01 02:11:56 | 51.14919 | 9.36556 | 116° | 47km/h | 1304m | -2.2m/s | 9.4°C | 81.2% | 875.8hPa | 2.8V | 06:58:34 | 03:54:22 | 00:00:00 | |
| BIOWL1-15 | 2026-09-01 02:11:54 | 51.14928 | 9.36521 | 111° | 47km/h | 1309m | -2.3m/s | 9.4°C | 81.1% | 875.1hPa | 2.7V | 06:58:34 | 03:54:20 | 00:00:00 | |
| BIOWL1-15 | 2026-09-01 02:11:53 | 51.14933 | 9.36503 | 109° | 49km/h | 1311m | -2.2m/s | 9.3°C | 81.9% | 875hPa | 2.8V | 06:58:34 | 03:54:19 | 00:00:00 | |
| BIOWL1-15 | 2026-09-01 02:11:51 | 51.14940 | 9.36466 | 105° | 47km/h | 1316m | -2.4m/s | 9.3°C | 81.9% | 874.5hPa | 2.8V | 06:58:34 | 03:54:17 | 00:00:00 | |
| BIOWL1-15 | 2026-09-01 02:11:49 | 51.14945 | 9.36430 | 102° | 44km/h | 1320m | -2.6m/s | 9.3°C | 81.9% | 874hPa | 2.8V | 06:58:34 | 03:54:15 | 00:00:00 | |
| BIOWL1-15 | 2026-09-01 02:11:48 | 51.14947 | 9.36413 | 101° | 44km/h | 1323m | -2.3m/s | 9.3°C | 81.7% | 873.7hPa | 2.8V | 06:58:34 | 03:54:14 | 00:00:00 | |
| BIOWL1-15 | 2026-09-01 02:11:47 | 51.14949 | 9.36396 | 101° | 42km/h | 1325m | -2.3m/s | 9.2°C | 82.3% | 873.5hPa | 2.8V | 06:58:34 | 03:54:13 | 00:00:00 | |
| DM0DOS-11 | 2026-09-01 02:11:45 | 51.14960 | 9.36323 | 108° | 35km/h | 1337m | -2.3m/s | 9.2°C | 77.4% | 872.3hPa | 2.8V | 06:58:11 | 03:54:08 | 00:00:00 | |
| DM0DOS-11 | 2026-09-01 02:11:45 | 51.14966 | 9.36298 | 114° | 35km/h | 1342m | -2.4m/s | 9.1°C | 77.5% | 871.8hPa | 2.8V | 06:58:13 | 03:54:06 | 00:00:00 | |
| BIOWL1-15 | 2026-09-01 02:11:45 | 51.14953 | 9.36365 | 102° | 38km/h | 1330m | -2.5m/s | 9.2°C | 82.3% | 873hPa | 2.8V | 06:58:34 | 03:54:11 | 00:00:00 | |
| BIOWL1-15 | 2026-09-01 02:11:43 | 51.14957 | 9.36336 | 106° | 35km/h | 1334m | -2.4m/s | 9.2°C | 82.8% | 872.5hPa | 2.8V | 06:58:34 | 03:54:09 | 00:00:00 | |
| BIOWL1-15 | 2026-09-01 02:11:42 | 51.14960 | 9.36323 | 108° | 35km/h | 1337m | -2.3m/s | 9.2°C | 83% | 872.3hPa | 2.8V | 06:58:34 | 03:54:08 | 00:00:00 | |
| BIOWL1-15 | 2026-09-01 02:11:40 | 51.14974 | 9.36273 | 119° | 37km/h | 1347m | -2.5m/s | 9.2°C | 81.6% | 871.3hPa | 2.7V | 06:58:34 | 03:54:04 | 00:00:00 | |
| DM0DOS-11 | 2026-09-01 02:11:39 | 51.14974 | 9.36273 | 119° | 35km/h | 1346m | -2.5m/s | 9.2°C | 77.2% | 871.3hPa | 2.7V | 06:58:15 | 03:54:04 | 00:00:00 | |
| DM0DOS-11 | 2026-09-01 02:11:39 | 51.14984 | 9.36247 | 121° | 38km/h | 1351m | -2.2m/s | 9.2°C | 76.4% | 870.9hPa | 2.8V | 06:58:17 | 03:54:02 | 00:00:00 | |
| DM0DOS-11 | 2026-09-01 02:11:39 | 51.14994 | 9.36219 | 120° | 42km/h | 1356m | -2.2m/s | 9.1°C | 75.6% | 870.2hPa | 2.8V | 06:58:19 | 03:54:00 | 00:00:00 | |
| HSKMA3-T | 2026-09-01 02:11:39 | 51.14970 | 9.36286 | 117° | 35km/h | 1344m | -2.4m/s | 9.1°C | 82.2% | 871.6hPa | 2.8V | 06:58:34 | 03:54:05 | 00:00:00 | |
| BIOWL1-15 | 2026-09-01 02:11:36 | 51.14984 | 9.36247 | 121° | 38km/h | 1351m | -2.2m/s | 9.1°C | 80.2% | 870.9hPa | 2.8V | 06:58:34 | 03:54:02 | 00:00:00 | |
| BIOWL1-15 | 2026-09-01 02:11:34 | 51.14994 | 9.36219 | 121° | 42km/h | 1356m | -2.2m/s | 9.1°C | 78.7% | 870.2hPa | 2.8V | 06:58:34 | 03:54:00 | 00:00:00 | |
| DL1ZP-14 | 2026-09-01 02:11:34 | 51.14994 | 9.36219 | 120° | 42km/h | 1355m | -2.2m/s | 9.1°C | 75.2% | 870.2hPa | 2.8V | 00:00:00 | 00:00:00 | 00:00:00 | |
| DL8OAI-8 | 2026-09-01 02:11:33 | 51.14994 | 9.36219 | 122° | 42km/h | 1356m | -2.2m/s | 9.1°C | 75.2% | 870.2hPa | 2.7V | 06:58:00 | 00:00:00 | 00:00:00 | |
| DM0DOS-11 | 2026-09-01 02:11:33 | 51.15014 | 9.36153 | 109° | 47km/h | 1365m | -2.3m/s | 9.1°C | 73.7% | 869.4hPa | 2.7V | 06:58:23 | 03:53:56 | 00:00:00 | |
| DM0DOS-11 | 2026-09-01 02:11:33 | 51.15020 | 9.36118 | 102° | 44km/h | 1369m | -2m/s | 9.1°C | 73.7% | 868.8hPa | 2.8V | 06:58:25 | 03:53:54 | 00:00:00 | |
| BIOWL1-15 | 2026-09-01 02:11:32 | 51.15005 | 9.36188 | 116° | 46km/h | 1360m | -2.2m/s | 9.1°C | 78.2% | 869.7hPa | 2.8V | 06:58:34 | 03:53:58 | 00:00:00 | |
| BIOWL1-15 | 2026-09-01 02:11:30 | 51.15014 | 9.36153 | 109° | 47km/h | 1365m | -2.3m/s | 9.1°C | 76.8% | 869.4hPa | 2.7V | 06:58:34 | 03:53:56 | 00:00:00 | |
| BIOWL1-15 | 2026-09-01 02:11:28 | 51.15020 | 9.36118 | 103° | 44km/h | 1369m | -2m/s | 9.1°C | 76.6% | 868.8hPa | 2.8V | 06:58:34 | 03:53:54 | 00:00:00 | |
| DM0DOS-11 | 2026-09-01 02:11:27 | 51.15025 | 9.36085 | 99° | 40km/h | 1373m | -2.4m/s | 9.1°C | 73.6% | 868.4hPa | 2.8V | 06:58:27 | 03:53:52 | 00:00:00 | |
| BIOWL1-15 | 2026-09-01 02:11:27 | 51.15023 | 9.36101 | 101° | 42km/h | 1371m | -2.2m/s | 9.1°C | 76.8% | 868.6hPa | 2.8V | 06:58:34 | 03:53:53 | 00:00:00 | |
| BIOWL1-15 | 2026-09-01 02:11:26 | 51.15026 | 9.36069 | 99° | 38km/h | 1376m | -2.4m/s | 9.1°C | 78% | 868.1hPa | 2.8V | 06:58:34 | 03:53:51 | 00:00:00 | |
| BIOWL1-15 | 2026-09-01 02:11:23 | 51.15029 | 9.36041 | 102° | 35km/h | 1381m | -2.4m/s | 9°C | 78.5% | 867.6hPa | 2.7V | 06:58:34 | 03:53:49 | 00:00:00 | |
| DM0DOS-11 | 2026-09-01 02:11:21 | 51.15042 | 9.35979 | 115° | 33km/h | 1393m | -2.3m/s | 9°C | 72.5% | 866.2hPa | 2.8V | 06:58:35 | 03:53:44 | 00:00:00 | |
| DM0DOS-11 | 2026-09-01 02:11:21 | 51.15051 | 9.35954 | 119° | 37km/h | 1398m | -2.3m/s | 9°C | 72% | 865.8hPa | 2.8V | 06:58:37 | 03:53:42 | 00:00:00 | |
| BIOWL1-15 | 2026-09-01 02:11:21 | 51.15034 | 9.36015 | 108° | 33km/h | 1386m | -2.5m/s | 9°C | 78.2% | 867.2hPa | 2.8V | 06:58:34 | 03:53:47 | 00:00:00 | |
| BIOWL1-15 | 2026-09-01 02:11:20 | 51.15051 | 9.35954 | 120° | 37km/h | 1398m | -2.3m/s | 9°C | 77.6% | 865.8hPa | 2.8V | 06:59:25 | 03:53:42 | 00:00:00 | |
| BIOWL1-15 | 2026-09-01 02:11:19 | 51.15056 | 9.35941 | 121° | 38km/h | 1400m | -2.2m/s | 9°C | 77.1% | 865.5hPa | 2.7V | 06:59:25 | 03:53:41 | 00:00:00 | |
| HSKMA3-T | 2026-09-01 02:11:17 | 51.15047 | 9.35967 | 118° | 35km/h | 1395m | -2.3m/s | 9°C | 77.6% | 866.2hPa | 2.8V | 06:59:25 | 03:53:43 | 00:00:00 | |
| DM0DOS-11 | 2026-09-01 02:11:15 | 51.15081 | 9.35866 | 113° | 46km/h | 1412m | -2.3m/s | 8.9°C | 71.2% | 864.4hPa | 2.8V | 06:58:43 | 03:53:36 | 00:00:00 | |
| BIOWL1-15 | 2026-09-01 02:11:13 | 51.15066 | 9.35913 | 120° | 42km/h | 1405m | -2.4m/s | 9°C | 76.3% | 865.2hPa | 2.8V | 06:59:25 | 03:53:39 | 00:00:00 | |
| BIOWL1-15 | 2026-09-01 02:11:11 | 51.15076 | 9.35882 | 116° | 46km/h | 1409m | -2.4m/s | 8.9°C | 76.4% | 864.7hPa | 2.8V | 06:59:25 | 03:53:37 | 00:00:00 | |
| DL8OAI-8 | 2026-09-01 02:11:10 | 51.15076 | 9.35882 | 117° | 46km/h | 1409m | -2.4m/s | 8.9°C | 70.6% | 864.7hPa | 2.8V | 00:00:00 | 00:00:00 | 00:00:00 | |
| DM0DOS-11 | 2026-09-01 02:11:10 | 51.15096 | 9.35795 | 102° | 46km/h | 1421m | -2.2m/s | 8.8°C | 71.4% | 863.5hPa | 2.8V | 06:58:47 | 03:53:32 | 00:00:00 | |
| BIOWL1-15 | 2026-09-01 02:11:09 | 51.15086 | 9.35848 | 111° | 47km/h | 1414m | -2.4m/s | 8.9°C | 76.5% | 864.1hPa | 2.8V | 06:59:25 | 03:53:35 | 00:00:00 | |
| BIOWL1-15 | 2026-09-01 02:11:08 | 51.15090 | 9.35831 | 109° | 46km/h | 1416m | -2.3m/s | 8.9°C | 76.5% | 863.9hPa | 2.7V | 06:59:25 | 03:53:34 | 00:00:00 | |
| BIOWL1-15 | 2026-09-01 02:11:07 | 51.15093 | 9.35813 | 106° | 46km/h | 1419m | -2.4m/s | 8.9°C | 76.6% | 863.7hPa | 2.8V | 06:59:25 | 03:53:33 | 00:00:00 | |
| BIOWL1-15 | 2026-09-01 02:11:06 | 51.15096 | 9.35795 | 103° | 46km/h | 1421m | -2.2m/s | 8.8°C | 76.4% | 863.5hPa | 2.8V | 06:59:25 | 03:53:32 | 00:00:00 | |
| DM0DOS-11 | 2026-09-01 02:11:05 | 51.15100 | 9.35761 | 99° | 40km/h | 1426m | -2.4m/s | 8.8°C | 71.6% | 862.9hPa | 2.8V | 06:58:49 | 03:53:30 | 00:00:00 | |
| BIOWL1-15 | 2026-09-01 02:11:04 | 51.15100 | 9.35761 | 100° | 40km/h | 1426m | -2.4m/s | 8.8°C | 76% | 862.9hPa | 2.8V | 06:59:25 | 03:53:30 | 00:00:00 | |
| BIOWL1-15 | 2026-09-01 02:11:03 | 51.15102 | 9.35745 | 99° | 38km/h | 1428m | -2.4m/s | 8.8°C | 75.9% | 862.6hPa | 2.8V | 06:59:25 | 03:53:29 | 00:00:00 | |
| BIOWL1-15 | 2026-09-01 02:11:01 | 51.15105 | 9.35717 | 103° | 33km/h | 1433m | -2.4m/s | 8.7°C | 75.8% | 862.2hPa | 2.8V | 06:59:25 | 03:53:27 | 00:00:00 | |
| BIOWL1-15 | 2026-09-01 02:10:59 | 51.15111 | 9.35692 | 114° | 33km/h | 1437m | -2.3m/s | 8.7°C | 76.1% | 861.7hPa | 2.8V | 06:59:25 | 03:53:25 | 00:00:00 | |
| BIOWL1-15 | 2026-09-01 02:10:58 | 51.15114 | 9.35680 | 118° | 33km/h | 1439m | -2.5m/s | 8.7°C | 76.1% | 861.5hPa | 2.8V | 06:59:25 | 03:53:24 | 00:00:00 | |
| BIOWL1-15 | 2026-09-01 02:10:56 | 51.15123 | 9.35656 | 121° | 37km/h | 1444m | -2.4m/s | 8.6°C | 76.3% | 861.1hPa | 2.8V | 06:59:25 | 03:53:22 | 00:00:00 | |
| BIOWL1-15 | 2026-09-01 02:10:55 | 51.15128 | 9.35642 | 122° | 38km/h | 1447m | -2.5m/s | 8.6°C | 76.1% | 860.8hPa | 2.8V | 06:59:25 | 03:53:21 | 00:00:00 | |
| DM0DOS-11 | 2026-09-01 02:10:54 | 51.15139 | 9.35614 | 119° | 42km/h | 1451m | -2.4m/s | 8.6°C | 72.1% | 860.2hPa | 2.7V | 06:59:00 | 03:53:19 | 00:00:00 | |
| BIOWL1-15 | 2026-09-01 02:10:53 | 51.15144 | 9.35599 | 118° | 44km/h | 1454m | -2.5m/s | 8.6°C | 76.4% | 860hPa | 2.8V | 06:59:25 | 03:53:18 | 00:00:00 | |
| BIOWL1-15 | 2026-09-01 02:10:53 | 51.15149 | 9.35583 | 116° | 46km/h | 1456m | -2.5m/s | 8.5°C | 76.6% | 859.6hPa | 2.8V | 06:59:25 | 03:53:17 | 00:00:00 | |
| BIOWL1-15 | 2026-09-01 02:10:49 | 51.15158 | 9.35550 | 111° | 46km/h | 1461m | -2.4m/s | 8.5°C | 77% | 859.3hPa | 2.8V | 06:59:25 | 03:53:15 | 00:00:00 | |
| DM0DOS-11 | 2026-09-01 02:10:48 | 51.15171 | 9.35479 | 100° | 44km/h | 1471m | -2.2m/s | 8.5°C | 70.9% | 858.1hPa | 2.7V | 06:59:08 | 03:53:11 | 00:00:00 | |
| BIOWL1-15 | 2026-09-01 02:10:47 | 51.15166 | 9.35514 | 106° | 46km/h | 1466m | -2.6m/s | 8.5°C | 76% | 858.5hPa | 2.8V | 06:59:25 | 03:53:13 | 00:00:00 | |
| HSKMA3-T | 2026-09-01 02:10:46 | 51.15169 | 9.35496 | 103° | 46km/h | 1469m | -2.5m/s | 8.5°C | 75.7% | 858.3hPa | 2.8V | 06:59:25 | 03:53:12 | 00:00:00 | |
| BIOWL1-15 | 2026-09-01 02:10:45 | 51.15171 | 9.35479 | 101° | 44km/h | 1471m | -2.2m/s | 8.5°C | 75.3% | 858.1hPa | 2.7V | 06:59:25 | 03:53:11 | 00:00:00 | |
| BIOWL1-15 | 2026-09-01 02:10:43 | 51.15174 | 9.35446 | 98° | 38km/h | 1476m | -2.6m/s | 8.5°C | 73.9% | 857.6hPa | 2.8V | 06:59:25 | 03:53:09 | 00:00:00 | |
| DM0DOS-11 | 2026-09-01 02:10:42 | 51.15183 | 9.35392 | 113° | 33km/h | 1486m | -2.5m/s | 8.5°C | 67.9% | 856.7hPa | 2.8V | 06:59:14 | 03:53:05 | 00:00:00 | |
| BIOWL1-15 | 2026-09-01 02:10:41 | 51.15178 | 9.35417 | 103° | 33km/h | 1481m | -2.5m/s | 8.5°C | 74.1% | 857hPa | 2.8V | 06:59:25 | 03:53:07 | 00:00:00 | |
| BIOWL1-15 | 2026-09-01 02:10:39 | 51.15183 | 9.35392 | 113° | 33km/h | 1486m | -2.5m/s | 8.5°C | 72.8% | 856.7hPa | 2.8V | 06:59:25 | 03:53:05 | 00:00:00 | |
| BIOWL1-15 | 2026-09-01 02:10:37 | 51.15210 | 9.35307 | 113° | 46km/h | 1501m | -2.7m/s | 8.4°C | 72.2% | 854.9hPa | 2.8V | 06:59:25 | 03:52:59 | 00:00:00 | |
| BIOWL1-15 | 2026-09-01 02:10:37 | 51.15215 | 9.35289 | 111° | 47km/h | 1503m | -2.7m/s | 8.3°C | 72.2% | 854.8hPa | 2.8V | 06:59:25 | 03:52:58 | 00:00:00 | |
| DM0DOS-11 | 2026-09-01 02:10:36 | 51.15210 | 9.35307 | 113° | 46km/h | 1501m | -2.7m/s | 8.3°C | 67.7% | 854.9hPa | 2.8V | 06:59:20 | 03:52:59 | 00:00:00 | |
| HSKMA3-T | 2026-09-01 02:10:35 | 51.15201 | 9.35339 | 118° | 42km/h | 1496m | -2.4m/s | 8.4°C | 72.6% | 855.7hPa | 2.8V | 06:59:25 | 03:53:01 | 00:00:00 | |
| BIOWL1-15 | 2026-09-01 02:10:34 | 51.15219 | 9.35271 | 107° | 47km/h | 1506m | -2.5m/s | 8.3°C | 72.2% | 854.5hPa | 2.7V | 06:59:25 | 03:52:57 | 00:00:00 | |
| BIOWL1-15 | 2026-09-01 02:10:32 | 51.15222 | 9.35253 | 105° | 46km/h | 1508m | -2.5m/s | 8.3°C | 71.6% | 854.3hPa | 2.8V | 06:59:25 | 03:52:56 | 00:00:00 | |
| BIOWL7-15 | 2026-09-01 02:10:31 | 51.15215 | 9.35289 | 112° | 47km/h | 1503m | -2.7m/s | 8.3°C | 67.2% | 854.8hPa | 2.8V | 06:59:00 | 00:00:00 | 00:00:00 | |
| DM0DOS-11 | 2026-09-01 02:10:30 | 51.15225 | 9.35235 | 101° | 46km/h | 1511m | -2.6m/s | 8.3°C | 67.6% | 853.9hPa | 2.8V | 06:59:24 | 03:52:55 | 00:00:00 | |
| DM0DOS-11 | 2026-09-01 02:10:30 | 51.15229 | 9.35201 | 99° | 42km/h | 1516m | -2.5m/s | 8.2°C | 67.1% | 853.6hPa | 2.8V | 06:59:26 | 03:52:53 | 00:00:00 | |
| BIOWL1-15 | 2026-09-01 02:10:28 | 51.15229 | 9.35201 | 99° | 42km/h | 1516m | -2.5m/s | 8.2°C | 71.9% | 853.6hPa | 2.8V | 07:00:16 | 03:52:53 | 00:00:00 | |
| BIOWL1-15 | 2026-09-01 02:10:28 | 51.15230 | 9.35185 | 99° | 38km/h | 1519m | -2.5m/s | 8.2°C | 72% | 853.4hPa | 2.8V | 07:00:16 | 03:52:52 | 00:00:00 | |
| HSKMA3-T | 2026-09-01 02:10:25 | 51.15232 | 9.35170 | 100° | 37km/h | 1521m | -2.6m/s | 8.2°C | 72.1% | 852.9hPa | 2.8V | 07:00:16 | 03:52:51 | 00:00:00 | |
| BIOWL1-15 | 2026-09-01 02:10:24 | 51.15240 | 9.35116 | 108° | 33km/h | 1532m | -2.7m/s | 8.1°C | 73.3% | 852hPa | 2.8V | 07:00:16 | 03:52:47 | 00:00:00 | |
| BIOWL1-15 | 2026-09-01 02:10:24 | 51.15243 | 9.35103 | 111° | 33km/h | 1534m | -2.7m/s | 8.1°C | 74.1% | 851.6hPa | 2.8V | 07:00:16 | 03:52:46 | 00:00:00 | |
| BIOWL1-15 | 2026-09-01 02:10:21 | 51.15246 | 9.35091 | 115° | 33km/h | 1537m | -2.6m/s | 8°C | 74.8% | 851.4hPa | 2.8V | 07:00:16 | 03:52:45 | 00:00:00 | |
| DM0DOS-11 | 2026-09-01 02:10:20 | 51.15254 | 9.35066 | 118° | 37km/h | 1542m | -2.6m/s | 8°C | 70.9% | 850.8hPa | 2.7V | 06:59:36 | 03:52:43 | 00:00:00 | |
| DM0DOS-11 | 2026-09-01 02:10:20 | 51.15263 | 9.35039 | 119° | 40km/h | 1548m | -2.7m/s | 8°C | 72.1% | 850.2hPa | 2.8V | 06:59:38 | 03:52:41 | 00:00:00 | |
| BIOWL1-15 | 2026-09-01 02:10:18 | 51.15250 | 9.35078 | 117° | 35km/h | 1540m | -2.7m/s | 8°C | 75% | 851.1hPa | 2.8V | 07:00:16 | 03:52:44 | 00:00:00 | |
| BIOWL1-15 | 2026-09-01 02:10:16 | 51.15263 | 9.35039 | 119° | 40km/h | 1548m | -2.7m/s | 8°C | 76.5% | 850.2hPa | 2.8V | 07:00:16 | 03:52:41 | 00:00:00 | |
| DM0DOS-11 | 2026-09-01 02:10:14 | 51.15273 | 9.35009 | 117° | 44km/h | 1553m | -2.7m/s | 7.9°C | 73.6% | 849.6hPa | 2.8V | 06:59:40 | 03:52:39 | 00:00:00 | |
| DM0DOS-11 | 2026-09-01 02:10:14 | 51.15294 | 9.34940 | 112° | 49km/h | 1564m | -2.5m/s | 7.9°C | 72.7% | 848.6hPa | 2.8V | 06:59:44 | 03:52:35 | 00:00:00 | |
| HSKMA3-T | 2026-09-01 02:10:14 | 51.15268 | 9.35024 | 119° | 42km/h | 1551m | -2.7m/s | 8°C | 77.4% | 849.9hPa | 2.8V | 07:00:16 | 03:52:40 | 00:00:00 | |
| BIOWL1-15 | 2026-09-01 02:10:12 | 51.15294 | 9.34940 | 112° | 49km/h | 1564m | -2.5m/s | 7.9°C | 78.3% | 848.7hPa | 2.8V | 07:00:16 | 03:52:35 | 00:00:00 | |
| BIOWL1-15 | 2026-09-01 02:10:12 | 51.15298 | 9.34921 | 112° | 49km/h | 1566m | -2.7m/s | 7.9°C | 78.2% | 848.3hPa | 2.8V | 07:00:16 | 03:52:34 | 00:00:00 | |
| DL8OAI-8 | 2026-09-01 02:10:08 | 51.15293 | 9.34940 | 113° | 49km/h | 1564m | -2.5m/s | 7.9°C | 72.2% | 848.7hPa | 2.8V | 07:00:00 | 00:00:00 | 00:00:00 | |
| DM0DOS-11 | 2026-09-01 02:10:08 | 51.15303 | 9.34903 | 110° | 49km/h | 1569m | -2.8m/s | 7.8°C | 72.9% | 848.1hPa | 2.8V | 06:59:46 | 03:52:33 | 00:00:00 | |
| DM0DOS-11 | 2026-09-01 02:10:08 | 51.15311 | 9.34865 | 108° | 49km/h | 1575m | -2.7m/s | 7.8°C | 72.9% | 847.5hPa | 2.8V | 06:59:48 | 03:52:31 | 00:00:00 | |
| BIOWL1-15 | 2026-09-01 02:10:07 | 51.15303 | 9.34903 | 111° | 49km/h | 1569m | -2.8m/s | 7.8°C | 78.2% | 848.1hPa | 2.8V | 07:00:16 | 03:52:33 | 00:00:00 | |
| BIOWL1-15 | 2026-09-01 02:10:05 | 51.15311 | 9.34865 | 108° | 49km/h | 1575m | -2.7m/s | 7.8°C | 78.2% | 847.5hPa | 2.8V | 07:00:16 | 03:52:31 | 00:00:00 | |
| HSKMA3-T | 2026-09-01 02:10:04 | 51.15315 | 9.34846 | 107° | 49km/h | 1578m | -2.8m/s | 7.8°C | 78% | 847.1hPa | 2.8V | 07:00:16 | 03:52:30 | 00:00:00 | |
| BIOWL1-15 | 2026-09-01 02:10:03 | 51.15318 | 9.34827 | 105° | 49km/h | 1581m | -2.7m/s | 7.7°C | 77.7% | 846.9hPa | 2.7V | 07:00:16 | 03:52:29 | 00:00:00 | |
| BIOWL1-15 | 2026-09-01 02:10:03 | 51.15321 | 9.34808 | 103° | 47km/h | 1583m | -2.8m/s | 7.7°C | 77.6% | 846.6hPa | 2.8V | 07:00:16 | 03:52:28 | 00:00:00 | |
| DM0DOS-11 | 2026-09-01 02:10:02 | 51.15331 | 9.34723 | 101° | 37km/h | 1597m | -2.5m/s | 7.6°C | 74.6% | 845.2hPa | 2.8V | 06:59:56 | 03:52:23 | 00:00:00 | |
| BIOWL1-15 | 2026-09-01 02:10:00 | 51.15329 | 9.34738 | 99° | 40km/h | 1594m | -2.7m/s | 7.6°C | 77.6% | 845.5hPa | 2.8V | 07:00:16 | 03:52:24 | 00:00:00 | |
| BIOWL1-15 | 2026-09-01 02:09:56 | 51.15336 | 9.34695 | 110° | 35km/h | 1602m | -2.6m/s | 7.6°C | 78.4% | 844.6hPa | 2.8V | 07:00:16 | 03:52:21 | 00:00:00 | |
| DM0DOS-11 | 2026-09-01 02:09:56 | 51.15343 | 9.34669 | 116° | 38km/h | 1608m | -2.7m/s | 7.5°C | 74.4% | 844hPa | 2.8V | 07:00:00 | 03:52:19 | 00:00:00 | |
| HSKMA3-T | 2026-09-01 02:09:54 | 51.15339 | 9.34682 | 114° | 35km/h | 1605m | -2.9m/s | 7.5°C | 78.4% | 844.4hPa | 2.8V | 07:00:16 | 03:52:20 | 00:00:00 | |
| BIOWL1-15 | 2026-09-01 02:09:52 | 51.15347 | 9.34655 | 118° | 40km/h | 1611m | -2.8m/s | 7.5°C | 79% | 843.9hPa | 2.7V | 07:00:16 | 03:52:18 | 00:00:00 | |
| DM0DOS-11 | 2026-09-01 02:09:50 | 51.15362 | 9.34609 | 115° | 46km/h | 1619m | -2.9m/s | 7.4°C | 75.3% | 842.9hPa | 2.8V | 07:00:04 | 03:52:15 | 00:00:00 | |
| DM0DOS-11 | 2026-09-01 02:09:50 | 51.15372 | 9.34574 | 112° | 49km/h | 1625m | -3m/s | 7.4°C | 75.9% | 842.3hPa | 2.8V | 07:00:06 | 03:52:13 | 00:00:00 | |
| BIOWL1-15 | 2026-09-01 02:09:50 | 51.15357 | 9.34625 | 117° | 44km/h | 1616m | -3.1m/s | 7.5°C | 79.4% | 843.2hPa | 2.8V | 07:00:16 | 03:52:16 | 00:00:00 | |
| BIOWL1-15 | 2026-09-01 02:09:48 | 51.15367 | 9.34592 | 114° | 47km/h | 1622m | -2.9m/s | 7.4°C | 79.5% | 842.9hPa | 2.8V | 07:00:16 | 03:52:14 | 00:00:00 | |
| BIOWL1-15 | 2026-09-01 02:09:47 | 51.15372 | 9.34574 | 113° | 49km/h | 1625m | -3m/s | 7.4°C | 79.8% | 842.3hPa | 2.8V | 07:00:16 | 03:52:13 | 00:00:00 | |
| BIOWL1-15 | 2026-09-01 02:09:45 | 51.15381 | 9.34537 | 110° | 49km/h | 1631m | -3m/s | 7.3°C | 80.3% | 841.6hPa | 2.8V | 07:00:16 | 03:52:11 | 00:00:00 | |
| BIOWL1-15 | 2026-09-01 02:09:44 | 51.15385 | 9.34517 | 108° | 49km/h | 1634m | -2.9m/s | 7.3°C | 80.7% | 841.4hPa | 2.7V | 07:00:16 | 03:52:10 | 00:00:00 | |
| BIOWL1-15 | 2026-09-01 02:09:43 | 51.15389 | 9.34498 | 106° | 51km/h | 1637m | -2.9m/s | 7.3°C | 81.2% | 841.1hPa | 2.8V | 07:00:16 | 03:52:09 | 00:00:00 | |
| BIOWL1-15 | 2026-09-01 02:09:41 | 51.15398 | 9.34440 | 101° | 47km/h | 1646m | -3m/s | 7.2°C | 81.4% | 840.1hPa | 2.8V | 07:00:16 | 03:52:06 | 00:00:00 | |
| BIOWL1-15 | 2026-09-01 02:09:41 | 51.15400 | 9.34422 | 99° | 46km/h | 1649m | -2.9m/s | 7.2°C | 81.7% | 839.9hPa | 2.8V | 07:00:16 | 03:52:05 | 00:00:00 | |
| DM0DOS-11 | 2026-09-01 02:09:40 | 51.15403 | 9.34386 | 97° | 42km/h | 1654m | -2.8m/s | 7.2°C | 76.8% | 839.2hPa | 2.8V | 07:00:16 | 03:52:03 | 00:00:00 | |
| BIOWL1-15 | 2026-09-01 02:09:38 | 51.15404 | 9.34370 | 98° | 40km/h | 1657m | -2.8m/s | 7.2°C | 81% | 839hPa | 2.8V | 07:01:07 | 03:52:02 | 00:00:00 | |
| BIOWL1-15 | 2026-09-01 02:09:37 | 51.15405 | 9.34354 | 99° | 38km/h | 1660m | -2.8m/s | 7.2°C | 80.8% | 838.8hPa | 2.8V | 07:01:07 | 03:52:01 | 00:00:00 | |
| DM0DOS-11 | 2026-09-01 02:09:35 | 51.15409 | 9.34326 | 106° | 35km/h | 1665m | -2.9m/s | 7.1°C | 76.8% | 838.1hPa | 2.7V | 07:00:20 | 03:51:59 | 00:00:00 | |
| BIOWL1-15 | 2026-09-01 02:09:34 | 51.15407 | 9.34340 | 103° | 37km/h | 1663m | -2.8m/s | 7.1°C | 81% | 838.5hPa | 2.8V | 07:01:07 | 03:52:00 | 00:00:00 | |
| BIOWL1-15 | 2026-09-01 02:09:32 | 51.15412 | 9.34312 | 110° | 35km/h | 1668m | -2.9m/s | 7.1°C | 80.9% | 837.8hPa | 2.7V | 07:01:07 | 03:51:58 | 00:00:00 | |
| DM0DOS-11 | 2026-09-01 02:09:30 | 51.15424 | 9.34271 | 115° | 38km/h | 1678m | -3.1m/s | 7.1°C | 76.6% | 836.9hPa | 2.8V | 07:00:24 | 03:51:55 | 00:00:00 | |
| BIOWL1-15 | 2026-09-01 02:09:30 | 51.15419 | 9.34285 | 114° | 38km/h | 1675m | -3.1m/s | 7.1°C | 80.8% | 837.2hPa | 2.8V | 07:01:07 | 03:51:56 | 00:00:00 | |
| BIOWL1-15 | 2026-09-01 02:09:29 | 51.15423 | 9.34271 | 116° | 38km/h | 1678m | -3.1m/s | 7.1°C | 80.8% | 836.9hPa | 2.8V | 07:01:07 | 03:51:55 | 00:00:00 | |
| BIOWL1-15 | 2026-09-01 02:09:27 | 51.15433 | 9.34241 | 117° | 44km/h | 1683m | -2.9m/s | 7°C | 80.7% | 836.3hPa | 2.8V | 07:01:07 | 03:51:53 | 00:00:00 | |
| BIOWL1-15 | 2026-09-01 02:09:25 | 51.15443 | 9.34209 | 114° | 47km/h | 1690m | -3m/s | 7°C | 80.8% | 835.7hPa | 2.8V | 07:01:07 | 03:51:51 | 00:00:00 | |
| DM0DOS-11 | 2026-09-01 02:09:24 | 51.15459 | 9.34133 | 104° | 51km/h | 1701m | -3m/s | 7°C | 75.7% | 834.4hPa | 2.7V | 07:00:32 | 03:51:47 | 00:00:00 | |
| BIOWL1-15 | 2026-09-01 02:09:24 | 51.15447 | 9.34191 | 112° | 49km/h | 1693m | -2.8m/s | 7°C | 80.6% | 835.4hPa | 2.8V | 07:01:07 | 03:51:50 | 00:00:00 | |
| HSKMA3-T | 2026-09-01 02:09:23 | 51.15452 | 9.34172 | 110° | 49km/h | 1695m | -2.9m/s | 7°C | 80.6% | 835.2hPa | 2.8V | 07:01:07 | 03:51:49 | 00:00:00 | |
| BIOWL1-15 | 2026-09-01 02:09:22 | 51.15456 | 9.34153 | 107° | 51km/h | 1698m | -2.9m/s | 7°C | 80.6% | 834.9hPa | 2.8V | 07:01:07 | 03:51:48 | 00:00:00 | |
| BIOWL1-15 | 2026-09-01 02:09:20 | 51.15462 | 9.34114 | 101° | 49km/h | 1704m | -3m/s | 6.9°C | 80.5% | 834.2hPa | 2.7V | 07:01:07 | 03:51:46 | 00:00:00 | |
| BIOWL1-15 | 2026-09-01 02:09:19 | 51.15464 | 9.34094 | 99° | 49km/h | 1707m | -3.1m/s | 6.9°C | 80.6% | 833.9hPa | 2.8V | 07:01:07 | 03:51:45 | 00:00:00 | |
| BIOWL1-15 | 2026-09-01 02:09:17 | 51.15470 | 9.34022 | 97° | 40km/h | 1719m | -3.1m/s | 6.8°C | 80.1% | 832.8hPa | 2.8V | 07:01:07 | 03:51:41 | 00:00:00 | |
| BIOWL1-15 | 2026-09-01 02:09:13 | 51.15478 | 9.33963 | 108° | 37km/h | 1732m | -3.1m/s | 6.8°C | 79.7% | 831.5hPa | 2.8V | 07:01:07 | 03:51:37 | 00:00:00 | |
| DM0DOS-11 | 2026-09-01 02:09:12 | 51.15478 | 9.33963 | 108° | 37km/h | 1732m | -3.1m/s | 6.8°C | 74.8% | 831.5hPa | 2.8V | 07:00:42 | 03:51:37 | 00:00:00 | |
| DM0DOS-11 | 2026-09-01 02:09:12 | 51.15493 | 9.33907 | 116° | 40km/h | 1744m | -3.2m/s | 6.7°C | 74.4% | 830.1hPa | 2.8V | 07:00:46 | 03:51:33 | 00:00:00 | |
| HSKMA3-T | 2026-09-01 02:09:12 | 51.15475 | 9.33977 | 104° | 37km/h | 1729m | -3.1m/s | 6.8°C | 80% | 831.8hPa | 2.8V | 07:01:07 | 03:51:38 | 00:00:00 | |
| BIOWL1-15 | 2026-09-01 02:09:09 | 51.15485 | 9.33935 | 113° | 37km/h | 1738m | -3.1m/s | 6.7°C | 80% | 830.9hPa | 2.7V | 07:01:07 | 03:51:35 | 00:00:00 | |
| BIOWL1-15 | 2026-09-01 02:09:07 | 51.15493 | 9.33907 | 116° | 40km/h | 1744m | -3.2m/s | 6.7°C | 79.6% | 830.1hPa | 2.8V | 07:01:07 | 03:51:33 | 00:00:00 | |
| DB0UT-7 | 2026-09-01 02:09:07 | 51.15492 | 9.33907 | 117° | 47km/h | 1744m | -3.1m/s | 6.6°C | 74.4% | 830.1hPa | 2.7V | 00:00:00 | 03:51:33 | 00:00:00 | |
| DM0DOS-11 | 2026-09-01 02:09:06 | 51.15512 | 9.33844 | 115° | 47km/h | 1756m | -2.9m/s | 6.6°C | 74.5% | 828.8hPa | 2.8V | 07:00:50 | 03:51:29 | 00:00:00 | |
| DM0DOS-11 | 2026-09-01 02:09:06 | 51.15522 | 9.33806 | 109° | 51km/h | 1762m | -2.9m/s | 6.5°C | 74.6% | 828.3hPa | 2.8V | 07:00:52 | 03:51:27 | 00:00:00 | |
| BIOWL1-15 | 2026-09-01 02:09:06 | 51.15497 | 9.33892 | 117° | 42km/h | 1747m | -3.1m/s | 6.6°C | 79.6% | 829.8hPa | 2.8V | 07:01:07 | 03:51:32 | 00:00:00 | |
| BIOWL1-15 | 2026-09-01 02:09:04 | 51.15507 | 9.33861 | 116° | 46km/h | 1754m | -3.1m/s | 6.6°C | 79.8% | 829.2hPa | 2.8V | 07:01:07 | 03:51:30 | 00:00:00 | |
| BIOWL1-15 | 2026-09-01 02:09:03 | 51.15512 | 9.33844 | 115° | 47km/h | 1757m | -2.9m/s | 6.6°C | 79.6% | 828.8hPa | 2.8V | 07:01:07 | 03:51:29 | 00:00:00 | |
| BIOWL1-15 | 2026-09-01 02:09:02 | 51.15517 | 9.33825 | 112° | 49km/h | 1759m | -2.9m/s | 6.5°C | 79.6% | 828.6hPa | 2.8V | 07:01:07 | 03:51:28 | 00:00:00 | |
| HSKMA3-T | 2026-09-01 02:09:01 | 51.15522 | 9.33806 | 110° | 51km/h | 1762m | -2.9m/s | 6.5°C | 79.6% | 828.3hPa | 2.8V | 07:01:07 | 03:51:27 | 00:00:00 | |
| DM0DOS-11 | 2026-09-01 02:09:00 | 51.15529 | 9.33767 | 103° | 51km/h | 1768m | -3m/s | 6.5°C | 74.8% | 827.8hPa | 2.8V | 07:00:54 | 03:51:25 | 00:00:00 | |
| DM0DOS-11 | 2026-09-01 02:09:00 | 51.15537 | 9.33693 | 98° | 42km/h | 1780m | -3.1m/s | 6.3°C | 75% | 826.6hPa | 2.8V | 07:00:58 | 03:51:21 | 00:00:00 | |
| BIOWL1-15 | 2026-09-01 02:09:00 | 51.15526 | 9.33787 | 107° | 51km/h | 1765m | -3m/s | 6.5°C | 79.5% | 828hPa | 2.8V | 07:01:07 | 03:51:26 | 00:00:00 | |
| BIOWL1-15 | 2026-09-01 02:08:59 | 51.15529 | 9.33767 | 104° | 51km/h | 1768m | -3m/s | 6.5°C | 79.6% | 827.8hPa | 2.8V | 07:01:07 | 03:51:25 | 00:00:00 | |
| BIOWL1-15 | 2026-09-01 02:08:57 | 51.15534 | 9.33728 | 99° | 47km/h | 1774m | -2.9m/s | 6.4°C | 80.1% | 827.3hPa | 2.7V | 07:01:07 | 03:51:23 | 00:00:00 | |
| BIOWL1-15 | 2026-09-01 02:08:56 | 51.15536 | 9.33710 | 98° | 44km/h | 1777m | -3m/s | 6.4°C | 80.1% | 826.9hPa | 2.7V | 07:01:07 | 03:51:22 | 00:00:00 | |
| BIOWL1-15 | 2026-09-01 02:08:54 | 51.15540 | 9.33661 | 101° | 38km/h | 1786m | -3.1m/s | 6.3°C | 80.5% | 825.9hPa | 2.8V | 07:01:07 | 03:51:19 | 00:00:00 | |
| DM0DOS-11 | 2026-09-01 02:08:54 | 51.15540 | 9.33661 | 100° | 38km/h | 1786m | -3.1m/s | 6.3°C | 75.3% | 825.9hPa | 2.8V | 07:01:00 | 03:51:19 | 00:00:00 | |
| DM0DOS-11 | 2026-09-01 02:08:54 | 51.15545 | 9.33633 | 106° | 37km/h | 1793m | -3.1m/s | 6.2°C | 75.3% | 825.3hPa | 2.8V | 07:01:02 | 03:51:17 | 00:00:00 | |
| BIOWL1-15 | 2026-09-01 02:08:54 | 51.15542 | 9.33647 | 103° | 37km/h | 1789m | -3.2m/s | 6.3°C | 80.4% | 825.6hPa | 2.8V | 07:01:07 | 03:51:18 | 00:00:00 | |
| BIOWL1-15 | 2026-09-01 02:08:50 | 51.15551 | 9.33605 | 112° | 37km/h | 1799m | -3.1m/s | 6.2°C | 80.6% | 824.6hPa | 2.8V | 07:01:07 | 03:51:15 | 00:00:00 | |
| HSKMA3-T | 2026-09-01 02:08:50 | 51.15547 | 9.33619 | 109° | 37km/h | 1796m | -3.1m/s | 6.2°C | 80.6% | 825hPa | 2.8V | 07:01:07 | 03:51:16 | 00:00:00 | |
| BIOWL1-15 | 2026-09-01 02:08:50 | 51.15554 | 9.33591 | 115° | 38km/h | 1802m | -3.2m/s | 6.1°C | 80.8% | 824.2hPa | 2.8V | 07:01:07 | 03:51:14 | 00:00:00 | |
| DM0DOS-11 | 2026-09-01 02:08:48 | 51.15559 | 9.33577 | 116° | 40km/h | 1805m | -3.2m/s | 6.1°C | 75.4% | 824hPa | 2.8V | 07:01:06 | 03:51:13 | 00:00:00 | |
| BIOWL1-15 | 2026-09-01 02:08:46 | 51.15563 | 9.33562 | 118° | 42km/h | 1809m | -3m/s | 6.1°C | 80.2% | 823.7hPa | 2.8V | 07:01:07 | 03:51:12 | 00:00:00 | |
| BIOWL1-15 | 2026-09-01 02:08:44 | 51.15574 | 9.33531 | 117° | 47km/h | 1815m | -3m/s | 6.1°C | 80.2% | 823hPa | 2.7V | 07:01:58 | 03:51:10 | 00:00:00 | |
| BIOWL1-15 | 2026-09-01 02:08:42 | 51.15584 | 9.33495 | 113° | 51km/h | 1821m | -3.2m/s | 6°C | 79.8% | 822.5hPa | 2.8V | 07:01:58 | 03:51:08 | 00:00:00 | |
| DM0DOS-11 | 2026-09-01 02:08:42 | 51.15589 | 9.33476 | 109° | 51km/h | 1824m | -3.1m/s | 6°C | 74.9% | 822.1hPa | 2.8V | 07:01:12 | 03:51:07 | 00:00:00 | |
| DM0DOS-11 | 2026-09-01 02:08:42 | 51.15596 | 9.33436 | 103° | 49km/h | 1830m | -3m/s | 5.9°C | 75.2% | 821.5hPa | 2.8V | 07:01:14 | 03:51:05 | 00:00:00 | |
| DM0DOS-11 | 2026-09-01 02:08:42 | 51.15601 | 9.33399 | 99° | 46km/h | 1836m | -3.2m/s | 5.8°C | 75% | 820.9hPa | 2.7V | 07:01:16 | 03:51:03 | 00:00:00 | |
| BIOWL1-15 | 2026-09-01 02:08:41 | 51.15589 | 9.33476 | 110° | 51km/h | 1824m | -3.1m/s | 6°C | 79.8% | 822.1hPa | 2.8V | 07:01:58 | 03:51:07 | 00:00:00 | |
| HSKMA3-T | 2026-09-01 02:08:40 | 51.15593 | 9.33456 | 106° | 51km/h | 1827m | -3m/s | 5.9°C | 79.9% | 821.9hPa | 2.8V | 07:01:58 | 03:51:06 | 00:00:00 | |
| BIOWL1-15 | 2026-09-01 02:08:39 | 51.15606 | 9.33349 | 103° | 38km/h | 1846m | -3.1m/s | 5.8°C | 80.3% | 820hPa | 2.8V | 07:01:58 | 03:51:00 | 00:00:00 | |
| BIOWL1-15 | 2026-09-01 02:08:39 | 51.15609 | 9.33334 | 106° | 37km/h | 1849m | -3.1m/s | 5.7°C | 80.6% | 819.7hPa | 2.8V | 07:01:58 | 03:50:59 | 00:00:00 | |
| DB0UT-7 | 2026-09-01 02:08:37 | 51.15601 | 9.33399 | 100° | 40km/h | 1836m | -3.2m/s | 5.8°C | 75.0% | 820.8hPa | 2.7V | 00:00:00 | 00:00:00 | 00:00:00 | |
| DM0DOS-11 | 2026-09-01 02:08:36 | 51.15604 | 9.33364 | 100° | 40km/h | 1843m | -3m/s | 5.8°C | 75.6% | 820.2hPa | 2.8V | 07:01:18 | 03:51:01 | 00:00:00 | |
| DM0DOS-11 | 2026-09-01 02:08:36 | 51.15609 | 9.33334 | 106° | 37km/h | 1849m | -3.1m/s | 5.7°C | 75.3% | 819.7hPa | 2.8V | 07:01:20 | 03:50:59 | 00:00:00 | |
| BIOWL1-15 | 2026-09-01 02:08:31 | 51.15629 | 9.33264 | 119° | 44km/h | 1864m | -3m/s | 5.6°C | 80.5% | 818.1hPa | 2.8V | 07:01:58 | 03:50:54 | 00:00:00 | |
| BIOWL1-15 | 2026-09-01 02:08:31 | 51.15635 | 9.33248 | 119° | 46km/h | 1867m | -3m/s | 5.6°C | 80.3% | 817.8hPa | 2.8V | 07:01:58 | 03:50:53 | 00:00:00 | |
| HSKMA3-T | 2026-09-01 02:08:29 | 51.15624 | 9.33278 | 119° | 42km/h | 1861m | -3m/s | 5.7°C | 80.6% | 818.4hPa | 2.8V | 07:01:58 | 03:50:55 | 00:00:00 | |
| BIOWL1-15 | 2026-09-01 02:08:26 | 51.15640 | 9.33231 | 117° | 47km/h | 1870m | -3m/s | 5.6°C | 80.1% | 817.4hPa | 2.8V | 07:01:58 | 03:50:52 | 00:00:00 | |
| DL8OAI-8 | 2026-09-01 02:08:25 | 51.15640 | 9.33231 | 118° | 47km/h | 1870m | -3.0m/s | 5.6°C | 75.2% | 817.4hPa | 2.8V | 07:01:00 | 00:00:00 | 00:00:00 | |
| DM0DOS-11 | 2026-09-01 02:08:24 | 51.15655 | 9.33176 | 107° | 51km/h | 1879m | -2.9m/s | 5.5°C | 76% | 816.6hPa | 2.8V | 07:01:30 | 03:50:49 | 00:00:00 | |
| DM0DOS-11 | 2026-09-01 02:08:24 | 51.15665 | 9.33103 | 100° | 42km/h | 1891m | -2.9m/s | 5.4°C | 76.7% | 815.5hPa | 2.8V | 07:01:34 | 03:50:45 | 00:00:00 | |
| BIOWL1-15 | 2026-09-01 02:08:24 | 51.15651 | 9.33195 | 111° | 51km/h | 1876m | -3m/s | 5.5°C | 80.1% | 817hPa | 2.8V | 07:01:58 | 03:50:50 | 00:00:00 | |
| BIOWL1-15 | 2026-09-01 02:08:22 | 51.15658 | 9.33157 | 104° | 49km/h | 1882m | -2.9m/s | 5.4°C | 80.3% | 816.3hPa | 2.8V | 07:01:58 | 03:50:48 | 00:00:00 | |
| BIOWL1-15 | 2026-09-01 02:08:20 | 51.15663 | 9.33120 | 101° | 44km/h | 1888m | -3m/s | 5.4°C | 80.1% | 815.8hPa | 2.7V | 07:01:58 | 03:50:46 | 00:00:00 | |
| DM0DOS-11 | 2026-09-01 02:08:18 | 51.15670 | 9.33070 | 103° | 38km/h | 1897m | -3m/s | 5.3°C | 76.9% | 814.8hPa | 2.8V | 07:01:36 | 03:50:43 | 00:00:00 | |
| BIOWL1-15 | 2026-09-01 02:08:18 | 51.15667 | 9.33086 | 102° | 40km/h | 1894m | -3m/s | 5.3°C | 80.3% | 815.1hPa | 2.8V | 07:01:58 | 03:50:44 | 00:00:00 | |
| BIOWL1-15 | 2026-09-01 02:08:16 | 51.15672 | 9.33055 | 105° | 38km/h | 1900m | -2.9m/s | 5.3°C | 80.9% | 814.5hPa | 2.8V | 07:01:58 | 03:50:42 | 00:00:00 | |
| BIOWL1-15 | 2026-09-01 02:08:15 | 51.15675 | 9.33041 | 109° | 37km/h | 1903m | -3m/s | 5.3°C | 81.4% | 814.3hPa | 2.8V | 07:01:58 | 03:50:41 | 00:00:00 | |
| BIOWL1-15 | 2026-09-01 02:08:13 | 51.15681 | 9.33014 | 114° | 37km/h | 1909m | -3m/s | 5.2°C | 81.8% | 813.7hPa | 2.7V | 07:01:58 | 03:50:39 | 00:00:00 | |
| BIOWL9-15 | 2026-09-01 02:08:13 | 51.15685 | 9.33000 | 117° | 37km/h | 1911m | -3.1m/s | 5.2°C | 75.7% | 813.4hPa | 2.8V | 00:00:00 | 00:00:00 | 00:00:00 | |
| DM0DOS-11 | 2026-09-01 02:08:12 | 51.15700 | 9.32960 | 121° | 42km/h | 1921m | -2.9m/s | 5.2°C | 76.6% | 812.4hPa | 2.8V | 07:01:44 | 03:50:35 | 00:00:00 | |
| BIOWL1-15 | 2026-09-01 02:08:12 | 51.15685 | 9.33000 | 117° | 37km/h | 1912m | -3.1m/s | 5.2°C | 82% | 813.4hPa | 2.8V | 07:01:58 | 03:50:38 | 00:00:00 | |
| BIOWL1-15 | 2026-09-01 02:08:11 | 51.15690 | 9.32987 | 119° | 38km/h | 1915m | -3m/s | 5.2°C | 81.7% | 813.1hPa | 2.8V | 07:01:58 | 03:50:37 | 00:00:00 | |
| BIOWL1-15 | 2026-09-01 02:08:09 | 51.15700 | 9.32960 | 122° | 42km/h | 1921m | -2.9m/s | 5.1°C | 82.1% | 812.4hPa | 2.8V | 07:01:58 | 03:50:35 | 00:00:00 | |
| BIOWL1-15 | 2026-09-01 02:08:08 | 51.15706 | 9.32945 | 122° | 44km/h | 1924m | -2.9m/s | 5.1°C | 81.9% | 812hPa | 2.8V | 07:01:58 | 03:50:34 | 00:00:00 | |
| BIOWL1-15 | 2026-09-01 02:08:06 | 51.15718 | 9.32914 | 120° | 47km/h | 1929m | -3.1m/s | 5.1°C | 81.8% | 811.6hPa | 2.8V | 07:01:58 | 03:50:32 | 00:00:00 | |
| DM0DOS-11 | 2026-09-01 02:08:05 | 51.15748 | 9.32804 | 105° | 49km/h | 1946m | -2.7m/s | 4.9°C | 77.7% | 809.8hPa | 2.8V | 07:01:53 | 03:50:26 | 00:00:00 | |
| BIOWL1-15 | 2026-09-01 02:08:05 | 51.15724 | 9.32897 | 119° | 49km/h | 1932m | -2.7m/s | 5°C | 81.5% | 811.3hPa | 2.8V | 07:01:58 | 03:50:31 | 00:00:00 | |
| BIOWL1-15 | 2026-09-01 02:08:04 | 51.15730 | 9.32879 | 117° | 49km/h | 1935m | -2.9m/s | 5°C | 81.4% | 810.9hPa | 2.8V | 07:01:58 | 03:50:30 | 00:00:00 | |
| BIOWL1-15 | 2026-09-01 02:08:02 | 51.15740 | 9.32842 | 111° | 51km/h | 1941m | -2.7m/s | 5°C | 81.2% | 810.5hPa | 2.8V | 07:01:58 | 03:50:28 | 00:00:00 | |
| BIOWL1-15 | 2026-09-01 02:08:00 | 51.15751 | 9.32784 | 104° | 47km/h | 1949m | -2.9m/s | 4.9°C | 81.7% | 809.6hPa | 2.8V | 07:01:58 | 03:50:25 | 00:00:00 | |
| BIOWL1-15 | 2026-09-01 02:08:00 | 51.15754 | 9.32766 | 102° | 47km/h | 1952m | -2.9m/s | 4.8°C | 81.7% | 809.4hPa | 2.8V | 07:01:58 | 03:50:24 | 00:00:00 | |
| DM0DOS-11 | 2026-09-01 02:07:59 | 51.15759 | 9.32730 | 100° | 44km/h | 1958m | -2.9m/s | 4.8°C | 77.9% | 808.8hPa | 2.8V | 07:01:57 | 03:50:22 | 00:00:00 | |
| DM0DOS-11 | 2026-09-01 02:07:59 | 51.15763 | 9.32697 | 101° | 40km/h | 1964m | -2.8m/s | 4.8°C | 78.2% | 808.2hPa | 2.8V | 07:01:59 | 03:50:20 | 00:00:00 | |
| HSKMA3-T | 2026-09-01 02:07:57 | 51.15757 | 9.32747 | 101° | 46km/h | 1955m | -2.9m/s | 4.8°C | 81.6% | 809hPa | 2.8V | 07:01:58 | 03:50:23 | 00:00:00 | |
| BIOWL1-15 | 2026-09-01 02:07:56 | 51.15761 | 9.32713 | 101° | 42km/h | 1961m | -2.9m/s | 4.8°C | 81.7% | 808.6hPa | 2.7V | 07:01:58 | 03:50:21 | 00:00:00 | |
| BIOWL1-15 | 2026-09-01 02:07:56 | 51.15763 | 9.32697 | 102° | 40km/h | 1964m | -2.8m/s | 4.8°C | 81.7% | 808.2hPa | 2.8V | 07:02:49 | 03:50:20 | 00:00:00 | |
| DM0DOS-11 | 2026-09-01 02:07:53 | 51.15768 | 9.32667 | 108° | 37km/h | 1970m | -2.8m/s | 4.7°C | 78.1% | 807.6hPa | 2.8V | 07:02:01 | 03:50:18 | 00:00:00 | |
| DM0DOS-11 | 2026-09-01 02:07:53 | 51.15775 | 9.32640 | 117° | 37km/h | 1975m | -2.9m/s | 4.7°C | 78.7% | 807.1hPa | 2.7V | 07:02:03 | 03:50:16 | 00:00:00 | |
| DM0DOS-11 | 2026-09-01 02:07:53 | 51.15785 | 9.32614 | 122° | 40km/h | 1981m | -2.8m/s | 4.7°C | 79.3% | 806.5hPa | 2.8V | 07:02:05 | 03:50:14 | 00:00:00 | |
| BIOWL1-15 | 2026-09-01 02:07:52 | 51.15771 | 9.32654 | 113° | 37km/h | 1972m | -2.7m/s | 4.7°C | 81.7% | 807.4hPa | 2.7V | 07:02:49 | 03:50:17 | 00:00:00 | |
| BIOWL1-15 | 2026-09-01 02:07:52 | 51.15775 | 9.32640 | 118° | 37km/h | 1975m | -2.9m/s | 4.7°C | 81.9% | 807.1hPa | 2.7V | 07:02:49 | 03:50:16 | 00:00:00 | |
| BIOWL1-15 | 2026-09-01 02:07:48 | 51.15797 | 9.32585 | 123° | 46km/h | 1987m | -2.8m/s | 4.6°C | 82.3% | 805.9hPa | 2.8V | 07:02:49 | 03:50:12 | 00:00:00 | |
| DM0DOS-11 | 2026-09-01 02:07:47 | 51.15797 | 9.32585 | 123° | 46km/h | 1987m | -2.8m/s | 4.6°C | 79.8% | 805.9hPa | 2.8V | 07:02:07 | 03:50:12 | 00:00:00 | |
| DM0DOS-11 | 2026-09-01 02:07:47 | 51.15809 | 9.32552 | 118° | 49km/h | 1992m | -2.8m/s | 4.6°C | 79.9% | 805.4hPa | 2.8V | 07:02:09 | 03:50:10 | 00:00:00 | |
| DM0DOS-11 | 2026-09-01 02:07:47 | 51.15820 | 9.32516 | 112° | 49km/h | 1998m | -2.6m/s | 4.6°C | 79.9% | 804.9hPa | 2.8V | 07:02:11 | 03:50:08 | 00:00:00 | |
| HSKMA3-T | 2026-09-01 02:07:47 | 51.15791 | 9.32600 | 124° | 44km/h | 1984m | -2.8m/s | 4.7°C | 82.3% | 806.3hPa | 2.8V | 07:02:49 | 03:50:13 | 00:00:00 | |
| BIOWL1-15 | 2026-09-01 02:07:44 | 51.15815 | 9.32535 | 116° | 49km/h | 1995m | -3m/s | 4.6°C | 82.4% | 805.1hPa | 2.8V | 07:02:49 | 03:50:09 | 00:00:00 | |
| BIOWL1-15 | 2026-09-01 02:07:44 | 51.15820 | 9.32516 | 113° | 51km/h | 1998m | -2.6m/s | 4.6°C | 82.5% | 804.9hPa | 2.8V | 07:02:49 | 03:50:08 | 00:00:00 | |
| DM0DOS-11 | 2026-09-01 02:07:42 | 51.15837 | 9.32425 | 102° | 42km/h | 2011m | -2.8m/s | 4.6°C | 79% | 803.4hPa | 2.8V | 07:02:16 | 03:50:03 | 00:00:00 | |
| HSKMA3-T | 2026-09-01 02:07:37 | 51.15837 | 9.32425 | 102° | 42km/h | 2011m | -2.8m/s | 4.6°C | 82.2% | 803.4hPa | 2.8V | 07:02:49 | 03:50:03 | 00:00:00 | |
| BIOWL1-15 | 2026-09-01 02:07:35 | 51.15845 | 9.32362 | 103° | 37km/h | 2023m | -2.9m/s | 4.7°C | 80.8% | 802.3hPa | 2.8V | 07:02:49 | 03:49:59 | 00:00:00 | |
| DM0DOS-11 | 2026-09-01 02:07:32 | 51.15868 | 9.32272 | 122° | 37km/h | 2043m | -2.7m/s | 4.7°C | 73.7% | 800.4hPa | 2.8V | 07:02:27 | 03:49:52 | 00:00:00 | |
| HSKMA3-T | 2026-09-01 02:07:27 | 51.15863 | 9.32284 | 119° | 35km/h | 2040m | -2.9m/s | 4.7°C | 78.4% | 800.7hPa | 2.8V | 07:02:49 | 03:49:53 | 00:00:00 | |
| DM0DOS-11 | 2026-09-01 02:07:26 | 51.15896 | 9.32198 | 116° | 47km/h | 2056m | -3m/s | 4.6°C | 74.8% | 799hPa | 2.7V | 07:02:32 | 03:49:47 | 00:00:00 | |
| BIOWL1-15 | 2026-09-01 02:07:23 | 51.15884 | 9.32231 | 123° | 44km/h | 2051m | -2.7m/s | 4.6°C | 77.3% | 799.6hPa | 2.8V | 07:02:49 | 03:49:49 | 00:00:00 | |
| DM0DOS-11 | 2026-09-01 02:07:21 | 51.15915 | 9.32109 | 102° | 44km/h | 2069m | -2.7m/s | 4.5°C | 76.5% | 797.8hPa | 2.8V | 07:02:37 | 03:49:42 | 00:00:00 | |
| HSKMA3-T | 2026-09-01 02:07:16 | 51.15915 | 9.32109 | 103° | 44km/h | 2069m | -2.7m/s | 4.5°C | 80.1% | 797.8hPa | 2.8V | 07:02:49 | 03:49:42 | 00:00:00 | |
| BIOWL1-15 | 2026-09-01 02:07:14 | 51.15924 | 9.32048 | 106° | 35km/h | 2080m | -2.9m/s | 4.4°C | 82.2% | 796.9hPa | 2.8V | 07:02:49 | 03:49:38 | 00:00:00 | |
| HSKMA3-T | 2026-09-01 02:07:06 | 51.15949 | 9.31972 | 125° | 40km/h | 2096m | -2.7m/s | 4.4°C | 86.1% | 795.1hPa | 2.7V | 07:02:49 | 03:49:32 | 00:00:00 | |
| DM0DOS-11 | 2026-09-01 02:07:05 | 51.15977 | 9.31893 | 113° | 47km/h | 2109m | -2.8m/s | 4.2°C | 82.2% | 793.9hPa | 2.7V | 07:02:52 | 03:49:27 | 00:00:00 | |
| BIOWL1-15 | 2026-09-01 02:07:03 | 51.15978 | 9.31893 | 113° | 47km/h | 2109m | -2.8m/s | 4.3°C | 86.8% | 793.9hPa | 2.7V | 07:03:40 | 03:49:27 | 00:00:00 | |
| SONCRA | 2026-09-01 02:07:00 | 51.15982 | 9.31875 | 110° | 47km/h | 2112m | -2.8m/s | 4.2°C | 81.3% | 793.6hPa | 2.8V | 00:00:00 | 00:00:00 | 00:00:00 | |
| DB0UT-7 | 2026-09-01 02:06:57 | 51.15992 | 9.31822 | 104° | 42km/h | 2120m | -2.7m/s | 4.1°C | 82.6% | 792.8hPa | 2.8V | 00:00:00 | 00:00:00 | 00:00:00 | |
| DM0DOS-11 | 2026-09-01 02:06:56 | 51.16008 | 9.31738 | 118° | 33km/h | 2135m | -2.6m/s | 4°C | 83.5% | 791.2hPa | 2.8V | 07:03:02 | 03:49:17 | 00:00:00 | |
| HSKMA3-T | 2026-09-01 02:06:55 | 51.15997 | 9.31791 | 103° | 38km/h | 2125m | -2.6m/s | 4.1°C | 86.7% | 792.3hPa | 2.7V | 07:03:40 | 03:49:21 | 00:00:00 | |
| BIOWL1-15 | 2026-09-01 02:06:54 | 51.16012 | 9.31726 | 123° | 35km/h | 2138m | -2.7m/s | 4°C | 86.6% | 791hPa | 2.7V | 07:03:40 | 03:49:16 | 00:00:00 | |
| DB0NH | 2026-09-01 02:06:52 | 51.16004 | 9.31750 | 114° | 42km/h | 2133m | -2.4m/s | 4.0°C | 83.1% | 791.4hPa | 2.8V | 00:00:00 | 03:49:18 | 00:00:00 | |
| DM0DOS-11 | 2026-09-01 02:06:51 | 51.16035 | 9.31672 | 122° | 46km/h | 2149m | -2.7m/s | 3.9°C | 83.8% | 790.1hPa | 2.8V | 07:03:07 | 03:49:12 | 00:00:00 | |
| DM0DOS-11 | 2026-09-01 02:06:46 | 51.16062 | 9.31587 | 110° | 47km/h | 2162m | -2.8m/s | 3.8°C | 84.5% | 788.7hPa | 2.7V | 07:03:12 | 03:49:07 | 00:00:00 | |
| HSKMA3-T | 2026-09-01 02:06:44 | 51.16047 | 9.31640 | 118° | 47km/h | 2154m | -2.6m/s | 3.9°C | 88.3% | 789.4hPa | 2.8V | 07:03:40 | 03:49:10 | 00:00:00 | |
| BIOWL1-15 | 2026-09-01 02:06:44 | 51.16066 | 9.31569 | 107° | 47km/h | 2164m | -2.7m/s | 3.8°C | 89.7% | 788.4hPa | 2.7V | 07:03:40 | 03:49:06 | 00:00:00 | |
| DM0DOS-11 | 2026-09-01 02:06:41 | 51.16077 | 9.31501 | 102° | 38km/h | 2175m | -2.5m/s | 3.7°C | 84.7% | 787.6hPa | 2.8V | 07:03:17 | 03:49:02 | 00:00:00 | |
| BIOWL9-15 | 2026-09-01 02:06:40 | 51.16069 | 9.31551 | 104° | 44km/h | 2167m | -2.7m/s | 3.7°C | 83.9% | 788.2hPa | 2.7V | 00:00:00 | 00:00:00 | 00:00:00 | |
| DB0UT-7 | 2026-09-01 02:06:37 | 51.16074 | 9.31517 | 103° | 40km/h | 2173m | -2.6m/s | 3.7°C | 84.6% | 787.6hPa | 2.7V | 00:00:00 | 03:49:03 | 00:00:00 | |
| DM0DOS-11 | 2026-09-01 02:06:36 | 51.16091 | 9.31435 | 119° | 35km/h | 2188m | -2.6m/s | 3.6°C | 85.3% | 786.1hPa | 2.7V | 07:03:22 | 03:48:57 | 00:00:00 | |
| HSKMA3-T | 2026-09-01 02:06:34 | 51.16081 | 9.31472 | 106° | 35km/h | 2180m | -2.6m/s | 3.6°C | 88.9% | 787hPa | 2.7V | 07:03:40 | 03:49:00 | 00:00:00 | |
| BIOWL1-15 | 2026-09-01 02:06:33 | 51.16100 | 9.31411 | 124° | 38km/h | 2193m | -2.7m/s | 3.5°C | 88.5% | 785.6hPa | 2.7V | 07:03:40 | 03:48:55 | 00:00:00 | |
| DB0NH | 2026-09-01 02:06:32 | 51.16087 | 9.31447 | 115° | 40km/h | 2185m | -2.6m/s | 3.6°C | 85.2% | 786.2hPa | 2.7V | 00:00:00 | 03:48:58 | 00:00:00 | |
| DM0DOS-11 | 2026-09-01 02:06:31 | 51.16118 | 9.31368 | 119° | 46km/h | 2201m | -2.4m/s | 3.5°C | 86.1% | 784.9hPa | 2.7V | 07:03:27 | 03:48:52 | 00:00:00 | |
| HSKMA3-T | 2026-09-01 02:06:23 | 51.16133 | 9.31316 | 110° | 47km/h | 2209m | -2.5m/s | 3.4°C | 88.6% | 784hPa | 2.7V | 07:03:40 | 03:48:49 | 00:00:00 | |
| DM0DOS-11 | 2026-09-01 02:06:21 | 51.16140 | 9.31280 | 104° | 46km/h | 2214m | -2.7m/s | 3.3°C | 87.6% | 783.6hPa | 2.7V | 07:03:32 | 03:48:47 | 00:00:00 | |
| DM0DOS-11 | 2026-09-01 02:06:21 | 51.16151 | 9.31197 | 101° | 38km/h | 2227m | -2.7m/s | 3.3°C | 87.7% | 782.3hPa | 2.7V | 07:03:37 | 03:48:42 | 00:00:00 | |
| BIOWL1-15 | 2026-09-01 02:06:21 | 51.16145 | 9.31245 | 102° | 42km/h | 2220m | -2.8m/s | 3.4°C | 90.1% | 783.2hPa | 2.7V | 07:03:40 | 03:48:45 | 00:00:00 | |
| DL8OAI-8 | 2026-09-01 02:06:18 | 51.16145 | 9.31245 | 103° | 42km/h | 2220m | -2.8m/s | 3.4°C | 86.3% | 783.2hPa | 2.7V | 07:03:00 | 00:00:00 | 00:00:00 | |
| DB0UT-7 | 2026-09-01 02:06:17 | 51.16149 | 9.31212 | 101° | 40km/h | 2225m | -2.7m/s | 3.3°C | 86.7% | 782.6hPa | 2.7V | 00:00:00 | 00:00:00 | 00:00:00 | |
| DM0DOS-11 | 2026-09-01 02:06:16 | 51.16163 | 9.31131 | 115° | 33km/h | 2241m | -2.6m/s | 3.2°C | 88.2% | 781hPa | 2.7V | 07:03:42 | 03:48:37 | 00:00:00 | |
| HSKMA3-T | 2026-09-01 02:06:12 | 51.16160 | 9.31143 | 111° | 33km/h | 2238m | -2.6m/s | 3.3°C | 91.6% | 781.3hPa | 2.7V | 07:04:31 | 03:48:38 | 00:00:00 | |
| DB0NH | 2026-09-01 02:06:12 | 51.16160 | 9.31143 | 111° | 42km/h | 2238m | -2.5m/s | 3.2°C | 88.2% | 781.3hPa | 2.7V | 00:00:00 | 03:48:38 | 00:00:00 | |
| DM0DOS-11 | 2026-09-01 02:06:11 | 51.16188 | 9.31066 | 122° | 44km/h | 2254m | -2.6m/s | 3.3°C | 81.9% | 779.9hPa | 2.7V | 07:03:47 | 03:48:32 | 00:00:00 | |
| BIOWL1-15 | 2026-09-01 02:06:08 | 51.16177 | 9.31094 | 123° | 38km/h | 2249m | -2.6m/s | 3.2°C | 89.7% | 780.3hPa | 2.7V | 07:04:31 | 03:48:34 | 00:00:00 | |
| DM0DOS-11 | 2026-09-01 02:06:06 | 51.16216 | 9.30983 | 111° | 49km/h | 2266m | -2.6m/s | 3.2°C | 81.7% | 778.6hPa | 2.7V | 07:03:52 | 03:48:27 | 00:00:00 | |
| HSKMA3-T | 2026-09-01 02:06:02 | 51.16211 | 9.31001 | 114° | 49km/h | 2264m | -2.7m/s | 3.2°C | 85.6% | 778.9hPa | 2.7V | 07:04:31 | 03:48:28 | 00:00:00 | |
| BIOWL1-15 | 2026-09-01 02:05:57 | 51.16229 | 9.30911 | 103° | 44km/h | 2277m | -2.5m/s | 3.1°C | 85.5% | 777.6hPa | 2.7V | 07:04:31 | 03:48:23 | 00:00:00 | |
| DB0UT-7 | 2026-09-01 02:05:57 | 51.16229 | 9.30911 | 103° | 40km/h | 2277m | -2.5m/s | 3.1°C | 82.0% | 777.6hPa | 2.7V | 07:03:00 | 03:48:23 | 00:00:00 | |
| DM0DOS-11 | 2026-09-01 02:05:56 | 51.16246 | 9.30829 | 119° | 35km/h | 2292m | -2.6m/s | 3°C | 83.1% | 776.2hPa | 2.7V | 07:04:02 | 03:48:17 | 00:00:00 | |
| DB0NH | 2026-09-01 02:05:52 | 51.16242 | 9.30841 | 116° | 40km/h | 2289m | -2.4m/s | 3.0°C | 82.7% | 776.4hPa | 2.7V | 00:00:00 | 03:48:18 | 00:00:00 | |
| DM0DOS-11 | 2026-09-01 02:05:51 | 51.16272 | 9.30766 | 122° | 42km/h | 2305m | -2.5m/s | 2.9°C | 84% | 774.9hPa | 2.7V | 07:04:07 | 03:48:12 | 00:00:00 | |
| HSKMA3-T | 2026-09-01 02:05:51 | 51.16246 | 9.30829 | 119° | 35km/h | 2292m | -2.6m/s | 3°C | 87.5% | 776.2hPa | 2.7V | 07:04:31 | 03:48:17 | 00:00:00 | |
| BIOWL1-15 | 2026-09-01 02:05:46 | 51.16272 | 9.30766 | 122° | 42km/h | 2305m | -2.5m/s | 2.9°C | 87.8% | 774.9hPa | 2.7V | 07:04:31 | 03:48:12 | 00:00:00 | |
| HSKMA3-T | 2026-09-01 02:05:40 | 51.16301 | 9.30664 | 106° | 46km/h | 2320m | -2.5m/s | 2.8°C | 89.7% | 773.5hPa | 2.7V | 07:04:31 | 03:48:06 | 00:00:00 | |
| BIOWL7-15 | 2026-09-01 02:05:39 | 51.16301 | 9.30664 | 106° | 46km/h | 2320m | -2.5m/s | 2.8°C | 86.9% | 773.5hPa | 2.7V | 00:00:00 | 00:00:00 | 00:00:00 | |
| DL8OAI-8 | 2026-09-01 02:05:37 | 51.16306 | 9.30630 | 103° | 42km/h | 2326m | -2.6m/s | 2.8°C | 86.2% | 773.0hPa | 2.7V | 07:04:00 | 00:00:00 | 00:00:00 | |
| DM0DOS-11 | 2026-09-01 02:05:36 | 51.16310 | 9.30599 | 102° | 37km/h | 2331m | -2.7m/s | 2.8°C | 87.7% | 772.4hPa | 2.7V | 07:04:17 | 03:48:02 | 00:00:00 | |
| DM0DOS-11 | 2026-09-01 02:05:36 | 51.16323 | 9.30534 | 117° | 33km/h | 2344m | -2.4m/s | 2.7°C | 87.3% | 771.2hPa | 2.7V | 07:04:22 | 03:47:57 | 00:00:00 | |
| BIOWL1-15 | 2026-09-01 02:05:36 | 51.16310 | 9.30599 | 102° | 37km/h | 2331m | -2.7m/s | 2.8°C | 90.3% | 772.4hPa | 2.7V | 07:04:31 | 03:48:02 | 00:00:00 | |
| DB0NH | 2026-09-01 02:05:32 | 51.16320 | 9.30546 | 113° | 40km/h | 2341m | -2.5m/s | 2.7°C | 87.5% | 771.5hPa | 2.7V | 00:00:00 | 03:47:58 | 00:00:00 | |
| DM0DOS-11 | 2026-09-01 02:05:31 | 51.16350 | 9.30469 | 122° | 46km/h | 2356m | -2.5m/s | 2.6°C | 85.9% | 770.1hPa | 2.7V | 07:04:27 | 03:47:52 | 00:00:00 | |
| HSKMA3-T | 2026-09-01 02:05:29 | 51.16332 | 9.30510 | 124° | 37km/h | 2349m | -2.7m/s | 2.7°C | 89.7% | 770.8hPa | 2.7V | 07:04:31 | 03:47:55 | 00:00:00 | |
| BIOWL1-15 | 2026-09-01 02:05:27 | 51.16356 | 9.30453 | 120° | 47km/h | 2359m | -2.9m/s | 2.6°C | 90.3% | 769.9hPa | 2.7V | 07:04:31 | 03:47:51 | 00:00:00 | |
| DM0DOS-11 | 2026-09-01 02:05:26 | 51.16375 | 9.30383 | 107° | 46km/h | 2370m | -2.6m/s | 2.6°C | 84.5% | 768.8hPa | 2.7V | 07:04:32 | 03:47:47 | 00:00:00 | |
| DB0DAN | 2026-09-01 02:05:25 | 51.16356 | 9.30453 | 120° | 46km/h | 2359m | -2.9m/s | 2.6°C | 84.4% | 769.88hPa | 2.7V | 00:00:00 | 00:00:00 | 00:00:00 | |
| HSKMA3-T | 2026-09-01 02:05:19 | 51.16381 | 9.30350 | 104° | 40km/h | 2375m | -2.4m/s | 2.5°C | 86.9% | 768.3hPa | 2.7V | 07:05:22 | 03:47:45 | 00:00:00 | |
| DB0UT-7 | 2026-09-01 02:05:17 | 51.16386 | 9.30319 | 106° | 40km/h | 2380m | -2.1m/s | 2.4°C | 84.1% | 767.8hPa | 2.7V | 00:00:00 | 03:47:43 | 00:00:00 | |
| DM0DOS-11 | 2026-09-01 02:05:16 | 51.16405 | 9.30243 | 119° | 35km/h | 2393m | -2.3m/s | 2.4°C | 83.8% | 766.6hPa | 2.7V | 07:04:42 | 03:47:37 | 00:00:00 | |
| BIOWL1-15 | 2026-09-01 02:05:14 | 51.16394 | 9.30279 | 111° | 33km/h | 2386m | -2.2m/s | 2.4°C | 85.3% | 767.4hPa | 2.7V | 07:05:22 | 03:47:40 | 00:00:00 | |
| DM0DOS-11 | 2026-09-01 02:05:11 | 51.16431 | 9.30180 | 126° | 42km/h | 2406m | -2.4m/s | 2.3°C | 82.3% | 765.2hPa | 2.7V | 07:04:47 | 03:47:32 | 00:00:00 | |
| HSKMA3-T | 2026-09-01 02:05:08 | 51.16419 | 9.30206 | 126° | 38km/h | 2401m | -2.6m/s | 2.3°C | 87.6% | 765.8hPa | 2.7V | 07:05:22 | 03:47:34 | 00:00:00 | |
| BIOWL9-15 | 2026-09-01 02:05:07 | 51.16431 | 9.30180 | 126° | 40km/h | 2406m | -2.4m/s | 2.3°C | 81.4% | 765.2hPa | 2.7V | 00:00:00 | 00:00:00 | 00:00:00 | |
| DM0DOS-11 | 2026-09-01 02:05:05 | 51.16464 | 9.30105 | 121° | 49km/h | 2419m | -2.2m/s | 2.3°C | 80.7% | 764.2hPa | 2.7V | 07:04:52 | 03:47:27 | 00:00:00 | |
| BIOWL1-15 | 2026-09-01 02:05:03 | 51.16471 | 9.30088 | 120° | 49km/h | 2421m | -2.3m/s | 2.2°C | 84.7% | 763.9hPa | 2.7V | 07:05:22 | 03:47:26 | 00:00:00 | |
| HSKMA3-T | 2026-09-01 02:04:58 | 51.16482 | 9.30052 | 114° | 49km/h | 2425m | -2m/s | 2.2°C | 84.1% | 763.5hPa | 2.7V | 07:05:22 | 03:47:24 | 00:00:00 | |
| DM0DOS-11 | 2026-09-01 02:04:56 | 51.16491 | 9.30017 | 108° | 46km/h | 2429m | -1.9m/s | 2.2°C | 81% | 763.2hPa | 2.7V | 07:04:57 | 03:47:22 | 00:00:00 | |
| DM0DOS-11 | 2026-09-01 02:04:56 | 51.16508 | 9.29946 | 117° | 35km/h | 2439m | -2.2m/s | 2.1°C | 82.4% | 762.1hPa | 2.7V | 07:05:02 | 03:47:17 | 00:00:00 | |
| BIOWL7-15 | 2026-09-01 02:04:54 | 51.16494 | 9.30000 | 110° | 40km/h | 2431m | -1.9m/s | 2.2°C | 79.9% | 763.1hPa | 2.7V | 07:05:00 | 00:00:00 | 00:00:00 | |
| DB0NH | 2026-09-01 02:04:52 | 51.16504 | 9.29958 | 115° | 44km/h | 2437m | -2.0m/s | 0°C | 0% | 0hPa | 2.7V | 00:00:00 | 03:47:18 | 00:00:00 | |
| DM0DOS-11 | 2026-09-01 02:04:51 | 51.16531 | 9.29885 | 125° | 38km/h | 2450m | -2.6m/s | 2°C | 83.5% | 761hPa | 2.7V | 07:05:07 | 03:47:12 | 00:00:00 | |
| BIOWL1-15 | 2026-09-01 02:04:51 | 51.16508 | 9.29946 | 117° | 35km/h | 2439m | -2.2m/s | 2.1°C | 85.2% | 762.1hPa | 2.7V | 07:05:22 | 03:47:17 | 00:00:00 | |
| HSKMA3-T | 2026-09-01 02:04:47 | 51.16526 | 9.29898 | 124° | 37km/h | 2448m | -2.3m/s | 2°C | 86.5% | 761.3hPa | 2.7V | 07:05:22 | 03:47:13 | 00:00:00 | |
| BIOWL1-15 | 2026-09-01 02:04:40 | 51.16585 | 9.29765 | 122° | 51km/h | 2468m | -2m/s | 2°C | 89.4% | 759.5hPa | 2.7V | 07:05:22 | 03:47:04 | 00:00:00 | |
| HSKMA3-T | 2026-09-01 02:04:36 | 51.16599 | 9.29730 | 121° | 51km/h | 2472m | -2m/s | 1.9°C | 89.5% | 759hPa | 2.7V | 07:05:22 | 03:47:02 | 00:00:00 | |
| BIOWL1-15 | 2026-09-01 02:04:30 | 51.16641 | 9.29582 | 110° | 44km/h | 2491m | -2.2m/s | 1.7°C | 90.1% | 757.4hPa | 2.7V | 07:06:13 | 03:46:54 | 00:00:00 | |
| HSKMA3-T | 2026-09-01 02:04:25 | 51.16653 | 9.29538 | 120° | 38km/h | 2497m | -2.2m/s | 1.8°C | 88.6% | 756.7hPa | 2.7V | 07:06:13 | 03:46:51 | 00:00:00 | |
| BIOWL1-15 | 2026-09-01 02:04:20 | 51.16684 | 9.29473 | 130° | 44km/h | 2508m | -2.4m/s | 1.6°C | 89.3% | 755.7hPa | 2.7V | 07:06:13 | 03:46:46 | 00:00:00 | |
| DL1ZP-14 | 2026-09-01 02:04:19 | 51.16692 | 9.29459 | 130° | 44km/h | 2510m | -2.4m/s | 1.6°C | 86.3% | 755.3hPa | 2.7V | 00:00:00 | 00:00:00 | 00:00:00 | |
| DB0UT-7 | 2026-09-01 02:04:17 | 51.16706 | 9.29430 | 129° | 49km/h | 2515m | -2.2m/s | 1.6°C | 86.1% | 754.9hPa | 2.7V | 00:00:00 | 00:00:00 | 00:00:00 | |
| DM0DOS-11 | 2026-09-01 02:04:16 | 51.16751 | 9.29326 | 121° | 53km/h | 2529m | -2.4m/s | 1.5°C | 87.1% | 753.6hPa | 2.7V | 07:05:42 | 03:46:37 | 00:00:00 | |
| HSKMA3-T | 2026-09-01 02:04:15 | 51.16722 | 9.29398 | 126° | 51km/h | 2520m | -2.4m/s | 1.5°C | 90.5% | 754.6hPa | 2.7V | 07:06:13 | 03:46:41 | 00:00:00 | |
| BIOWL1-15 | 2026-09-01 02:04:12 | 51.16759 | 9.29308 | 120° | 53km/h | 2531m | -2.2m/s | 1.5°C | 88.8% | 753.4hPa | 2.7V | 07:06:13 | 03:46:36 | 00:00:00 | |
| DB0NH | 2026-09-01 02:04:12 | 51.16744 | 9.29345 | 123° | 47km/h | 2526m | -2.3m/s | 1.4°C | 87.0% | 753.8hPa | 2.7V | 00:00:00 | 03:46:38 | 00:00:00 | |
| DM0DOS-11 | 2026-09-01 02:04:11 | 51.16784 | 9.29232 | 114° | 51km/h | 2540m | -2.2m/s | 1.7°C | 79.8% | 752.6hPa | 2.7V | 07:05:47 | 03:46:32 | 00:00:00 | |
| DB0DAN | 2026-09-01 02:04:10 | 51.16759 | 9.29308 | 120° | 51km/h | 2531m | -2.2m/s | 1.5°C | 85.7% | 753.43hPa | 2.7V | 00:00:00 | 00:00:00 | 00:00:00 | |
| DD1CC8 | 2026-09-01 02:04:09 | 51.16765 | 9.29289 | 118° | 53km/h | 2533m | -2.1m/s | 1.5°C | 83.6% | 753.2hPa | 2.7V | 00:00:00 | 00:00:00 | 00:00:00 | |
| DM0DOS-11 | 2026-09-01 02:04:06 | 51.16806 | 9.29144 | 111° | 44km/h | 2551m | -2.3m/s | 1.6°C | 79.9% | 751.7hPa | 2.7V | 07:05:52 | 03:46:27 | 00:00:00 | |
| HSKMA3-T | 2026-09-01 02:04:05 | 51.16788 | 9.29214 | 113° | 49km/h | 2542m | -2m/s | 1.7°C | 81.9% | 752.4hPa | 2.7V | 07:06:13 | 03:46:31 | 00:00:00 | |
| BIOWL9-15 | 2026-09-01 02:04:04 | 51.16793 | 9.29196 | 112° | 47km/h | 2544m | -2.2m/s | 1.7°C | 79.0% | 752.2hPa | 2.7V | 00:00:00 | 00:00:00 | 00:00:00 | |
| DB0ND-19 | 2026-09-01 02:04:03 | 51.16870 | 9.28858 | 112° | 38km/h | 2598m | -3.0m/s | 1.8°C | 64.4% | 747.2hPa | 2.7V | 00:00:00 | 00:00:00 | 00:00:00 | |
| DM0DOS-11 | 2026-09-01 02:04:01 | 51.16827 | 9.29058 | 109° | 46km/h | 2563m | -2.4m/s | 1.7°C | 76.2% | 750.5hPa | 2.7V | 07:05:57 | 03:46:22 | 00:00:00 | |
| BIOWL1-15 | 2026-09-01 02:04:00 | 51.16810 | 9.29128 | 112° | 46km/h | 2553m | -2.6m/s | 1.6°C | 81.8% | 751.5hPa | 2.7V | 07:06:13 | 03:46:26 | 00:00:00 | |
| DB0UT-7 | 2026-09-01 02:03:57 | 51.16823 | 9.29075 | 110° | 42km/h | 2561m | -2.4m/s | 1.7°C | 75.4% | 750.6hPa | 2.7V | 00:00:00 | 03:46:23 | 00:00:00 | |
| DM0DOS-11 | 2026-09-01 02:03:56 | 51.16845 | 9.28972 | 108° | 46km/h | 2576m | -2.8m/s | 1.7°C | 73.3% | 749.2hPa | 2.7V | 07:06:02 | 03:46:17 | 00:00:00 | |
| DB0DAN | 2026-09-01 02:03:55 | 51.16831 | 9.29040 | 109° | 44km/h | 2566m | -2.4m/s | 1.7°C | 74.2% | 750.29hPa | 2.7V | 00:00:00 | 00:00:00 | 00:00:00 | |
| HSKMA3-T | 2026-09-01 02:03:54 | 51.16834 | 9.29023 | 108° | 46km/h | 2568m | -2.6m/s | 1.8°C | 76.7% | 750.1hPa | 2.7V | 07:06:13 | 03:46:20 | 00:00:00 | |
| DB0NH | 2026-09-01 02:03:52 | 51.16841 | 9.28989 | 109° | 42km/h | 2573m | -2.9m/s | 1.7°C | 73.1% | 749.6hPa | 2.7V | 00:00:00 | 03:46:18 | 00:00:00 | |
| DM0DOS-11 | 2026-09-01 02:03:51 | 51.16863 | 9.28889 | 110° | 42km/h | 2592m | -3.3m/s | 1.7°C | 70.8% | 747.8hPa | 2.7V | 07:06:07 | 03:46:12 | 00:00:00 | |
| BIOWL1-15 | 2026-09-01 02:03:49 | 51.16863 | 9.28888 | 110° | 42km/h | 2592m | -3.3m/s | 1.7°C | 73.9% | 747.8hPa | 2.7V | 07:06:13 | 03:46:12 | 00:00:00 | |
| DL1ZP-14 | 2026-09-01 02:03:48 | 51.16856 | 9.28921 | 108° | 42km/h | 2585m | -3.1m/s | 1.7°C | 70.5% | 748.5hPa | 2.7V | 00:00:00 | 00:00:00 | 00:00:00 | |
| DM0DOS-11 | 2026-09-01 02:03:45 | 51.16882 | 9.28819 | 119° | 35km/h | 2606m | -2.4m/s | 1.9°C | 60.8% | 746.5hPa | 2.7V | 07:06:12 | 03:46:07 | 00:00:00 | |
| HSKMA3-T | 2026-09-01 02:03:43 | 51.16874 | 9.28844 | 114° | 37km/h | 2601m | -2.7m/s | 1.9°C | 68.6% | 747hPa | 2.7V | 07:06:13 | 03:46:09 | 00:00:00 | |
| DD1CC3-15 | 2026-09-01 02:03:41 | 51.16878 | 9.28831 | 118° | 37km/h | 2604m | -2.5m/s | 1.9°C | 61.1% | 746.8hPa | 2.7V | 07:06:00 | 00:00:00 | 00:00:00 | |
| DB0DAN | 2026-09-01 02:03:40 | 51.16887 | 9.28806 | 123° | 35km/h | 2608m | -2.2m/s | 1.9°C | 59% | 746.5hPa | 2.7V | 00:00:00 | 00:00:00 | 00:00:00 | |
| BIOWL1-15 | 2026-09-01 02:03:40 | 51.16898 | 9.28781 | 125° | 42km/h | 2613m | -2.6m/s | 1.9°C | 65.6% | 746hPa | 2.7V | 07:07:04 | 03:46:04 | 00:00:00 | |
| DD1CC8 | 2026-09-01 02:03:38 | 51.16898 | 9.28781 | 124° | 40km/h | 2613m | -2.6m/s | 1.9°C | 60.3% | 746.0hPa | 2.7V | 00:00:00 | 00:00:00 | 00:00:00 | |
| DM0DOS-11 | 2026-09-01 02:03:36 | 51.16911 | 9.28751 | 124° | 47km/h | 2619m | -2.5m/s | 1.9°C | 59.9% | 745.4hPa | 2.7V | 07:06:17 | 03:46:02 | 00:00:00 | |
| DM0DOS-11 | 2026-09-01 02:03:36 | 51.16942 | 9.28661 | 112° | 51km/h | 2633m | -2.8m/s | 1.7°C | 59.8% | 744.2hPa | 2.7V | 07:06:22 | 03:45:57 | 00:00:00 | |
| HSKMA3-T | 2026-09-01 02:03:33 | 51.16931 | 9.28699 | 117° | 53km/h | 2627m | -2.9m/s | 1.7°C | 67.7% | 744.7hPa | 2.7V | 07:07:04 | 03:45:59 | 00:00:00 | |
| DB0NH | 2026-09-01 02:03:32 | 51.16937 | 9.28680 | 116° | 44km/h | 2630m | -2.9m/s | 1.7°C | 61.6% | 744.3hPa | 2.7V | 00:00:00 | 03:45:58 | 00:00:00 | |
| DM0DOS-11 | 2026-09-01 02:03:31 | 51.16961 | 9.28569 | 103° | 42km/h | 2647m | -2.7m/s | 1.5°C | 62% | 742.8hPa | 2.7V | 07:06:27 | 03:45:52 | 00:00:00 | |
| BIOWL1-15 | 2026-09-01 02:03:27 | 51.16958 | 9.28586 | 104° | 44km/h | 2645m | -2.9m/s | 1.5°C | 67.2% | 743hPa | 2.7V | 07:07:04 | 03:45:53 | 00:00:00 | |
| DM0DOS-11 | 2026-09-01 02:03:26 | 51.16977 | 9.28497 | 120° | 38km/h | 2661m | -2.4m/s | 1.5°C | 59.5% | 741.5hPa | 2.7V | 07:06:32 | 03:45:47 | 00:00:00 | |
| DB0DAN | 2026-09-01 02:03:25 | 51.16963 | 9.28553 | 104° | 38km/h | 2650m | -2.8m/s | 1.5°C | 61.8% | 742.5hPa | 2.7V | 00:00:00 | 00:00:00 | 00:00:00 | |
| HSKMA3-T | 2026-09-01 02:03:22 | 51.16972 | 9.28511 | 115° | 37km/h | 2658m | -2.4m/s | 1.5°C | 63.6% | 741.8hPa | 2.7V | 07:07:04 | 03:45:48 | 00:00:00 | |
| DM0DOS-11 | 2026-09-01 02:03:21 | 51.17006 | 9.28427 | 124° | 46km/h | 2674m | -2.9m/s | 1.5°C | 56.4% | 740.4hPa | 2.7V | 07:06:37 | 03:45:42 | 00:00:00 | |
| BIOWL1-15 | 2026-09-01 02:03:19 | 51.17006 | 9.28427 | 124° | 46km/h | 2674m | -2.9m/s | 1.5°C | 60.3% | 740.4hPa | 2.7V | 07:07:04 | 03:45:42 | 00:00:00 | |
| HSKMA3-T | 2026-09-01 02:03:12 | 51.17032 | 9.28359 | 118° | 51km/h | 2685m | -2.5m/s | 1.5°C | 56.2% | 739.3hPa | 2.7V | 07:07:04 | 03:45:38 | 00:00:00 | |
| DB0NH | 2026-09-01 02:03:12 | 51.17032 | 9.28359 | 119° | 47km/h | 2685m | -2.5m/s | 1.5°C | 51.0% | 739.3hPa | 2.7V | 00:00:00 | 03:45:38 | 00:00:00 | |
| DM0DOS-11 | 2026-09-01 02:03:11 | 51.17061 | 9.28242 | 105° | 51km/h | 2701m | -2.6m/s | 1.4°C | 48.3% | 737.8hPa | 2.7V | 07:06:47 | 03:45:32 | 00:00:00 | |
| DB0DAN | 2026-09-01 02:03:10 | 51.17043 | 9.28322 | 114° | 51km/h | 2690m | -2.7m/s | 1.5°C | 50.2% | 738.78hPa | 2.7V | 00:00:00 | 00:00:00 | 00:00:00 | |
| BIOWL1-15 | 2026-09-01 02:03:08 | 51.17061 | 9.28242 | 105° | 51km/h | 2701m | -2.6m/s | 1.5°C | 53.1% | 737.8hPa | 2.7V | 07:07:04 | 03:45:32 | 00:00:00 | |
| HSKMA3-T | 2026-09-01 02:03:02 | 51.17071 | 9.28170 | 104° | 40km/h | 2711m | -2.4m/s | 1.4°C | 50.7% | 736.9hPa | 2.7V | 07:07:04 | 03:45:28 | 00:00:00 | |
| BIOWL1-15 | 2026-09-01 02:02:59 | 51.17102 | 9.28068 | 121° | 47km/h | 2729m | -2.6m/s | 1.4°C | 45% | 735.3hPa | 2.7V | 07:07:04 | 03:45:21 | 00:00:00 | |
| DB0UT-7 | 2026-09-01 02:02:57 | 51.17090 | 9.28098 | 121° | 47km/h | 2724m | -2.5m/s | 1.4°C | 41.5% | 735.7hPa | 2.7V | 00:00:00 | 00:00:00 | 00:00:00 | |
| DM0DOS-11 | 2026-09-01 02:02:56 | 51.17127 | 9.27995 | 114° | 53km/h | 2740m | -2.5m/s | 1.3°C | 41.1% | 734.3hPa | 2.7V | 07:07:02 | 03:45:17 | 00:00:00 | |
| DB0DAN | 2026-09-01 02:02:55 | 51.17102 | 9.28068 | 121° | 46km/h | 2729m | -2.6m/s | 1.4°C | 39.7% | 735.29hPa | 2.7V | 00:00:00 | 00:00:00 | 00:00:00 | |
| HSKMA3-T | 2026-09-01 02:02:51 | 51.17127 | 9.27995 | 114° | 53km/h | 2740m | -2.5m/s | 1.3°C | 45.7% | 734.3hPa | 2.7V | 07:07:04 | 03:45:17 | 00:00:00 | |
| BIOWL1-15 | 2026-09-01 02:02:47 | 51.17153 | 9.27874 | 103° | 49km/h | 2755m | -2.6m/s | 1.3°C | 45.2% | 732.8hPa | 2.7V | 07:07:55 | 03:45:11 | 00:00:00 | |
| DM0DOS-11 | 2026-09-01 02:02:46 | 51.17162 | 9.27802 | 101° | 42km/h | 2765m | -2.6m/s | 1.2°C | 41.3% | 731.9hPa | 2.6V | 07:07:12 | 03:45:07 | 00:00:00 | |
| DL1ZP-14 | 2026-09-01 02:02:46 | 51.17153 | 9.27874 | 102° | 49km/h | 2755m | -2.6m/s | 1.3°C | 40.1% | 732.8hPa | 2.7V | 00:00:00 | 00:00:00 | 00:00:00 | |
| DB0DAN | 2026-09-01 02:02:40 | 51.17164 | 9.27785 | 103° | 38km/h | 2768m | -2.4m/s | 1.2°C | 40.4% | 731.74hPa | 2.7V | 00:00:00 | 00:00:00 | 00:00:00 | |
| HSKMA3-T | 2026-09-01 02:02:40 | 51.17164 | 9.27785 | 103° | 40km/h | 2768m | -2.4m/s | 1.2°C | 45.6% | 731.7hPa | 2.7V | 07:07:55 | 03:45:06 | 00:00:00 | |
| BIOWL1-15 | 2026-09-01 02:02:38 | 51.17186 | 9.27699 | 122° | 40km/h | 2783m | -2.6m/s | 1.1°C | 45.9% | 730.3hPa | 2.7V | 07:07:55 | 03:45:00 | 00:00:00 | |
| DB0UT-7 | 2026-09-01 02:02:37 | 51.17173 | 9.27740 | 112° | 44km/h | 2775m | -2.4m/s | 1.1°C | 39.9% | 731.0hPa | 2.7V | 00:00:00 | 03:45:03 | 00:00:00 | |
| DM0DOS-11 | 2026-09-01 02:02:36 | 51.17204 | 9.27654 | 120° | 47km/h | 2790m | -2.4m/s | 1°C | 40.8% | 729.5hPa | 2.7V | 07:07:22 | 03:44:57 | 00:00:00 | |
| HSKMA3-T | 2026-09-01 02:02:30 | 51.17210 | 9.27637 | 119° | 49km/h | 2793m | -2.4m/s | 1°C | 45.4% | 729.4hPa | 2.7V | 07:07:55 | 03:44:56 | 00:00:00 | |
| BIOWL1-15 | 2026-09-01 02:02:26 | 51.17235 | 9.27522 | 102° | 46km/h | 2808m | -2.7m/s | 0.8°C | 49.7% | 728hPa | 2.6V | 07:07:55 | 03:44:50 | 00:00:00 | |
| DB0DAN | 2026-09-01 02:02:25 | 51.17232 | 9.27541 | 103° | 46km/h | 2805m | -2.6m/s | 0.9°C | 45.3% | 728.17hPa | 2.7V | 00:00:00 | 00:00:00 | 00:00:00 | |
| DM0DOS-11 | 2026-09-01 02:02:25 | 51.17242 | 9.27472 | 104° | 38km/h | 2816m | -2.7m/s | 0.8°C | 52.2% | 727.3hPa | 2.7V | 07:07:32 | 03:44:47 | 00:00:00 | |
| HSKMA3-T | 2026-09-01 02:02:20 | 51.17244 | 9.27457 | 106° | 38km/h | 2819m | -2.8m/s | 0.7°C | 58.1% | 727hPa | 2.7V | 07:07:55 | 03:44:46 | 00:00:00 | |
| DD1CC3-15 | 2026-09-01 02:02:18 | 51.17247 | 9.27443 | 109° | 37km/h | 2822m | -2.6m/s | 0.7°C | 54.0% | 726.8hPa | 2.7V | 07:07:00 | 00:00:00 | 00:00:00 | |
| DM0DOS-11 | 2026-09-01 02:02:16 | 51.17257 | 9.27402 | 117° | 38km/h | 2829m | -2.7m/s | 0.6°C | 56.7% | 726hPa | 2.7V | 07:07:37 | 03:44:42 | 00:00:00 | |
| DM0DOS-11 | 2026-09-01 02:02:16 | 51.17286 | 9.27327 | 119° | 49km/h | 2842m | -2.6m/s | 0.5°C | 60.1% | 725hPa | 2.7V | 07:07:42 | 03:44:37 | 00:00:00 | |
| BIOWL1-15 | 2026-09-01 02:02:15 | 51.17334 | 9.27084 | 101° | 40km/h | 2877m | -2.6m/s | 0.5°C | 66.5% | 721.9hPa | 2.7V | 07:07:55 | 03:44:24 | 00:00:00 | |
| DL1ZP-14 | 2026-09-01 02:02:15 | 51.17268 | 9.27375 | 122° | 40km/h | 2834m | -2.5m/s | 0.6°C | 57.2% | 725.6hPa | 2.6V | 00:00:00 | 00:00:00 | 00:00:00 | |
| DB0NH | 2026-09-01 02:02:12 | 51.17279 | 9.27344 | 121° | 46km/h | 2840m | -2.5m/s | 0.5°C | 59.6% | 725.1hPa | 2.7V | 00:00:00 | 03:44:38 | 00:00:00 | |
| DB0DAN | 2026-09-01 02:02:10 | 51.17292 | 9.27309 | 117° | 47km/h | 2845m | -2.6m/s | 0.5°C | 59.7% | 724.55hPa | 2.7V | 00:00:00 | 00:00:00 | 00:00:00 | |
| HSKMA3-T | 2026-09-01 02:02:10 | 51.17292 | 9.27309 | 117° | 51km/h | 2845m | -2.6m/s | 0.5°C | 64% | 724.5hPa | 2.7V | 07:07:55 | 03:44:36 | 00:00:00 | |
| BIOWL1-15 | 2026-09-01 02:02:08 | 51.17336 | 9.27069 | 103° | 38km/h | 2879m | -2.5m/s | 0.6°C | 65.5% | 721.6hPa | 2.7V | 07:08:46 | 03:44:23 | 00:00:00 | |
| DM0DOS-11 | 2026-09-01 02:02:06 | 51.17327 | 9.27136 | 101° | 46km/h | 2869m | -2.8m/s | 0.5°C | 61.4% | 722.5hPa | 2.6V | 07:07:52 | 03:44:27 | 00:00:00 | |
| HSKMA3-T | 2026-09-01 02:01:59 | 51.17332 | 9.27101 | 100° | 44km/h | 2874m | -2.7m/s | 0.5°C | 66.9% | 722hPa | 2.7V | 07:07:55 | 03:44:25 | 00:00:00 | |
| DB0ND-19 | 2026-09-01 02:01:59 | 51.17336 | 9.27069 | 102° | 38km/h | 2879m | -2.5m/s | 0.6°C | 59.7% | 721.6hPa | 2.7V | 00:00:00 | 00:00:00 | 00:00:00 | |
| DD1CC3-15 | 2026-09-01 02:01:58 | 51.17332 | 9.27101 | 101° | 44km/h | 2875m | -2.7m/s | 0.5°C | 61.2% | 722.0hPa | 2.7V | 07:07:00 | 00:00:00 | 00:00:00 | |
| DB0UT-7 | 2026-09-01 02:01:57 | 51.17336 | 9.27069 | 103° | 47km/h | 2879m | -2.5m/s | 0.5°C | 60.5% | 721.6hPa | 2.7V | 00:00:00 | 03:44:23 | 00:00:00 | |
| DM0DOS-11 | 2026-09-01 02:01:56 | 51.17359 | 9.26986 | 121° | 44km/h | 2894m | -2.6m/s | 0.6°C | 58.6% | 720.2hPa | 2.7V | 07:08:02 | 03:44:17 | 00:00:00 | |
| DB0DAN | 2026-09-01 02:01:55 | 51.17341 | 9.27040 | 111° | 35km/h | 2884m | -2.5m/s | 0.6°C | 59% | 721.09hPa | 2.7V | 00:00:00 | 00:00:00 | 00:00:00 | |
| BIOWL1-15 | 2026-09-01 02:01:52 | 51.17365 | 9.26970 | 121° | 46km/h | 2897m | -2.6m/s | 0.6°C | 62.2% | 719.9hPa | 2.7V | 07:08:46 | 03:44:16 | 00:00:00 | |
| DB0NH | 2026-09-01 02:01:52 | 51.17354 | 9.27000 | 122° | 51km/h | 2892m | -2.5m/s | 0.6°C | 58.8% | 720.5hPa | 2.7V | 00:00:00 | 03:44:18 | 00:00:00 | |
| DM0DOS-11 | 2026-09-01 02:01:51 | 51.17389 | 9.26899 | 114° | 51km/h | 2907m | -2.9m/s | 0.5°C | 58.1% | 719.1hPa | 2.7V | 07:08:07 | 03:44:12 | 00:00:00 | |
| HSKMA3-T | 2026-09-01 02:01:48 | 51.17377 | 9.26936 | 118° | 49km/h | 2902m | -2.5m/s | 0.6°C | 61.5% | 719.6hPa | 2.7V | 07:08:46 | 03:44:14 | 00:00:00 | |
| DM0DOS-11 | 2026-09-01 02:01:45 | 51.17412 | 9.26802 | 108° | 53km/h | 2921m | -2.6m/s | 0.4°C | 56.7% | 717.9hPa | 2.7V | 07:08:12 | 03:44:07 | 00:00:00 | |
| BIOWL1-15 | 2026-09-01 02:01:42 | 51.17416 | 9.26782 | 107° | 53km/h | 2923m | -2.8m/s | 0.4°C | 61.4% | 717.6hPa | 2.7V | 07:08:46 | 03:44:06 | 00:00:00 | |
| DB0DAN | 2026-09-01 02:01:40 | 51.17416 | 9.26782 | 107° | 49km/h | 2923m | -2.8m/s | 0.4°C | 56% | 717.62hPa | 2.7V | 00:00:00 | 00:00:00 | 00:00:00 | |
| HSKMA3-T | 2026-09-01 02:01:37 | 51.17427 | 9.26721 | 105° | 51km/h | 2931m | -2.9m/s | 0.4°C | 62.4% | 716.9hPa | 2.7V | 07:08:46 | 03:44:03 | 00:00:00 | |
| DM0DOS-11 | 2026-09-01 02:01:36 | 51.17430 | 9.26700 | 103° | 51km/h | 2934m | -2.8m/s | 0.4°C | 56.5% | 716.6hPa | 2.6V | 07:08:17 | 03:44:02 | 00:00:00 | |
| DM0DOS-11 | 2026-09-01 02:01:36 | 51.17443 | 9.26600 | 99° | 49km/h | 2948m | -2.6m/s | 0.3°C | 55% | 715.5hPa | 2.7V | 07:08:22 | 03:43:57 | 00:00:00 | |
| DD1CC8 | 2026-09-01 02:01:34 | 51.17439 | 9.26640 | 101° | 51km/h | 2943m | -2.7m/s | 0.3°C | 54.4% | 715.7hPa | 2.7V | 00:00:00 | 00:00:00 | 00:00:00 | |
| DB0NH | 2026-09-01 02:01:32 | 51.17441 | 9.26620 | 101° | 47km/h | 2945m | -2.6m/s | 0.2°C | 55.2% | 715.6hPa | 2.7V | 00:00:00 | 03:43:58 | 00:00:00 | |
| DM0DOS-11 | 2026-09-01 02:01:31 | 51.17452 | 9.26512 | 102° | 40km/h | 2961m | -2.4m/s | 0.3°C | 47% | 714.2hPa | 2.6V | 07:08:27 | 03:43:52 | 00:00:00 | |
| BIOWL1-15 | 2026-09-01 02:01:31 | 51.17447 | 9.26562 | 98° | 46km/h | 2953m | -2.7m/s | 0.3°C | 58.4% | 714.9hPa | 2.7V | 07:08:46 | 03:43:55 | 00:00:00 | |
| HSKMA3-T | 2026-09-01 02:01:27 | 51.17450 | 9.26528 | 99° | 42km/h | 2958m | -2.5m/s | 0.3°C | 53.1% | 714.5hPa | 2.6V | 07:08:46 | 03:43:53 | 00:00:00 | |
| DM0DOS-11 | 2026-09-01 02:01:26 | 51.17473 | 9.26428 | 114° | 49km/h | 2973m | -2.5m/s | 0.2°C | 44.7% | 713.1hPa | 2.6V | 07:08:32 | 03:43:47 | 00:00:00 | |
| DB0DAN | 2026-09-01 02:01:25 | 51.17455 | 9.26496 | 108° | 40km/h | 2963m | -2.4m/s | 0.3°C | 45.9% | 714.04hPa | 2.7V | 00:00:00 | 00:00:00 | 00:00:00 | |
| BIOWL1-15 | 2026-09-01 02:01:22 | 51.17483 | 9.26392 | 114° | 49km/h | 2979m | -2.9m/s | 0.2°C | 48.8% | 712.5hPa | 2.7V | 07:08:46 | 03:43:45 | 00:00:00 | |
| DM0DOS-11 | 2026-09-01 02:01:21 | 51.17499 | 9.26335 | 112° | 53km/h | 2987m | -2.9m/s | 0.2°C | 40.3% | 711.9hPa | 2.7V | 07:08:37 | 03:43:42 | 00:00:00 | |
| HSKMA3-T | 2026-09-01 02:01:17 | 51.17494 | 9.26355 | 113° | 51km/h | 2985m | -2.9m/s | 0.2°C | 45.8% | 712.2hPa | 2.7V | 07:08:46 | 03:43:43 | 00:00:00 | |
| DM0DOS-11 | 2026-09-01 02:01:16 | 51.17520 | 9.26230 | 102° | 55km/h | 3001m | -2.8m/s | 0.2°C | 39.4% | 710.6hPa | 2.7V | 07:08:42 | 03:43:37 | 00:00:00 | |
| DB0NH | 2026-09-01 02:01:12 | 51.17516 | 9.26252 | 105° | 47km/h | 2999m | -2.8m/s | 0.2°C | 39.4% | 710.8hPa | 2.7V | 00:00:00 | 03:43:38 | 00:00:00 | |
| DM0DOS-11 | 2026-09-01 02:01:11 | 51.17531 | 9.26122 | 96° | 53km/h | 3016m | -2.8m/s | 0.2°C | 44.9% | 709.4hPa | 2.7V | 07:08:47 | 03:43:32 | 00:00:00 | |
| BIOWL1-15 | 2026-09-01 02:01:11 | 51.17525 | 9.26187 | 100° | 55km/h | 3007m | -3m/s | 0.3°C | 45.1% | 710.1hPa | 2.7V | 07:08:46 | 03:43:35 | 00:00:00 | |
| DB0DAN | 2026-09-01 02:01:10 | 51.17523 | 9.26209 | 101° | 53km/h | 3004m | -2.8m/s | 0.2°C | 38.9% | 710.27hPa | 2.7V | 00:00:00 | 00:00:00 | 00:00:00 | |
| HSKMA3-T | 2026-09-01 02:01:06 | 51.17531 | 9.26122 | 97° | 53km/h | 3016m | -2.8m/s | 0.2°C | 49.5% | 709.4hPa | 2.7V | 07:09:37 | 03:43:32 | 00:00:00 | |
| DM0DOS-11 | 2026-09-01 02:01:05 | 51.17536 | 9.26022 | 93° | 46km/h | 3030m | -2.8m/s | 0.1°C | 48.4% | 708.1hPa | 2.6V | 07:08:52 | 03:43:27 | 00:00:00 | |
| BIOWL1-15 | 2026-09-01 02:01:00 | 51.17539 | 9.25968 | 97° | 42km/h | 3039m | -2.8m/s | 0.1°C | 50% | 707.3hPa | 2.7V | 07:09:37 | 03:43:24 | 00:00:00 | |
| BIOWL9-15 | 2026-09-01 02:00:59 | 51.17539 | 9.25968 | 96° | 42km/h | 3038m | -2.8m/s | 0.1°C | 45.0% | 707.3hPa | 2.7V | 00:00:00 | 00:00:00 | 00:00:00 | |
| DB0ND-19 | 2026-09-01 02:00:57 | 51.17542 | 9.25936 | 100° | 40km/h | 3044m | -3.0m/s | 0.1°C | 45.8% | 707.0hPa | 2.7V | 00:00:00 | 00:00:00 | 00:00:00 | |
| DM0DOS-11 | 2026-09-01 02:00:56 | 51.17542 | 9.25936 | 100° | 40km/h | 3044m | -3m/s | 0.1°C | 46.5% | 707hPa | 2.7V | 07:08:57 | 03:43:22 | 00:00:00 | |
| DM0DOS-11 | 2026-09-01 02:00:56 | 51.17556 | 9.25858 | 111° | 42km/h | 3059m | -3m/s | 0.1°C | 40.8% | 705.6hPa | 2.7V | 07:09:02 | 03:43:17 | 00:00:00 | |
| HSKMA3-T | 2026-09-01 02:00:56 | 51.17542 | 9.25936 | 100° | 40km/h | 3044m | -3m/s | 0.1°C | 51% | 707hPa | 2.7V | 07:09:37 | 03:43:22 | 00:00:00 | |
| DB0DAN | 2026-09-01 02:00:55 | 51.17544 | 9.25920 | 102° | 38km/h | 3047m | -2.9m/s | 0.1°C | 45.8% | 706.6hPa | 2.7V | 00:00:00 | 00:00:00 | 00:00:00 | |
| DM0DOS-11 | 2026-09-01 02:00:51 | 51.17580 | 9.25769 | 111° | 55km/h | 3074m | -2.9m/s | -0°C | 41.5% | 704.4hPa | 2.7V | 07:09:07 | 03:43:12 | 00:00:00 | |
| BIOWL1-15 | 2026-09-01 02:00:48 | 51.17593 | 9.25705 | 104° | 57km/h | 3082m | -2.9m/s | -0.1°C | 47.6% | 703.5hPa | 2.7V | 07:09:37 | 03:43:09 | 00:00:00 | |
| SONCRA | 2026-09-01 02:00:48 | 51.17575 | 9.25789 | 113° | 51km/h | 3071m | -2.9m/s | -0.0°C | 37.9% | 704.6hPa | 2.7V | 00:00:00 | 00:00:00 | 00:00:00 | |
| DM0DOS-11 | 2026-09-01 02:00:46 | 51.17599 | 9.25660 | 99° | 55km/h | 3089m | -2.9m/s | -0.1°C | 43% | 703hPa | 2.7V | 07:09:12 | 03:43:07 | 00:00:00 | |
| HSKMA3-T | 2026-09-01 02:00:46 | 51.17580 | 9.25769 | 112° | 55km/h | 3074m | -2.9m/s | -0°C | 46% | 704.4hPa | 2.7V | 07:09:37 | 03:43:12 | 00:00:00 | |
| DB0NH | 2026-09-01 02:00:45 | 51.17584 | 9.25748 | 110° | 51km/h | 3077m | -2.8m/s | -0.0°C | 42.9% | 703.9hPa | 2.6V | 00:00:00 | 03:43:11 | 00:00:00 | |
| DM0DOS-11 | 2026-09-01 02:00:41 | 51.17606 | 9.25562 | 98° | 42km/h | 3103m | -2.8m/s | -0.1°C | 40% | 701.8hPa | 2.6V | 07:09:17 | 03:43:02 | 00:00:00 | |
| DB0DAN | 2026-09-01 02:00:40 | 51.17601 | 9.25638 | 97° | 51km/h | 3091m | -2.8m/s | -0.1°C | 42% | 702.84hPa | 2.7V | 00:00:00 | 00:00:00 | 00:00:00 | |
| HSKMA3-T | 2026-09-01 02:00:36 | 51.17606 | 9.25562 | 98° | 42km/h | 3103m | -2.8m/s | -0.1°C | 44.2% | 701.8hPa | 2.6V | 07:09:37 | 03:43:02 | 00:00:00 | |
| DM0DOS-11 | 2026-09-01 02:00:31 | 51.17622 | 9.25480 | 114° | 47km/h | 3117m | -2.9m/s | -0.1°C | 33.5% | 700.5hPa | 2.7V | 07:09:22 | 03:42:57 | 00:00:00 | |
| DM0DOS-11 | 2026-09-01 02:00:31 | 51.17648 | 9.25384 | 110° | 55km/h | 3132m | -3m/s | -0.1°C | 38.9% | 699.2hPa | 2.7V | 07:09:27 | 03:42:52 | 00:00:00 | |
| BIOWL1-15 | 2026-09-01 02:00:30 | 51.17661 | 9.25319 | 104° | 57km/h | 3141m | -2.9m/s | -0.2°C | 49.3% | 698.4hPa | 2.7V | 07:09:37 | 03:42:49 | 00:00:00 | |
| HSKMA3-T | 2026-09-01 02:00:26 | 51.17648 | 9.25384 | 111° | 55km/h | 3132m | -3m/s | -0.1°C | 43.6% | 699.2hPa | 2.7V | 07:09:37 | 03:42:52 | 00:00:00 | |
| DB0DAN | 2026-09-01 02:00:25 | 51.17653 | 9.25363 | 109° | 53km/h | 3135m | -3m/s | -0.2°C | 39.3% | 698.85hPa | 2.7V | 00:00:00 | 00:00:00 | 00:00:00 | |
| DM0DOS-11 | 2026-09-01 02:00:16 | 51.17672 | 9.25175 | 96° | 44km/h | 3162m | -2.8m/s | -0.3°C | 48% | 696.5hPa | 2.7V | 07:09:37 | 03:42:42 | 00:00:00 | |
| DM0DOS-11 | 2026-09-01 02:00:16 | 51.17687 | 9.25093 | 113° | 46km/h | 3176m | -3m/s | -0.3°C | 49% | 695.3hPa | 2.6V | 07:09:42 | 03:42:37 | 00:00:00 | |
| HSKMA3-T | 2026-09-01 02:00:16 | 51.17672 | 9.25175 | 96° | 44km/h | 3162m | -2.8m/s | -0.3°C | 52% | 696.5hPa | 2.7V | 07:09:37 | 03:42:42 | 00:00:00 | |
| BIOWL1-15 | 2026-09-01 02:00:15 | 51.17676 | 9.25142 | 105° | 42km/h | 3168m | -2.7m/s | -0.3°C | 52.8% | 696hPa | 2.7V | 07:10:28 | 03:42:40 | 00:00:00 | |
| DB0NH | 2026-09-01 02:00:15 | 51.17674 | 9.25158 | 101° | 49km/h | 3165m | -2.7m/s | -0.2°C | 48.2% | 696.2hPa | 2.7V | 00:00:00 | 03:42:41 | 00:00:00 | |
| DK9SH | 2026-09-01 02:00:12 | 51.17679 | 9.25126 | 109° | 42km/h | 3171m | -2.7m/s | -0.3°C | 48.1% | 695.8hPa | 2.7V | 00:00:00 | 00:00:00 | 00:00:00 | |
| DM0DOS-11 | 2026-09-01 02:00:11 | 51.17711 | 9.25000 | 110° | 55km/h | 3191m | -2.9m/s | -0.3°C | 46.9% | 694hPa | 2.7V | 07:09:47 | 03:42:32 | 00:00:00 | |
| DL1ZP-14 | 2026-09-01 02:00:10 | 51.17696 | 9.25058 | 113° | 47km/h | 3182m | -3.1m/s | -0.4°C | 48.4% | 694.7hPa | 2.7V | 00:00:00 | 00:00:00 | 00:00:00 | |
| DF7PN | 2026-09-01 02:00:08 | 51.17701 | 9.25039 | 113° | 49km/h | 3185m | -3.2m/s | -0.4°C | 48.3% | 694.4hPa | 2.7V | 00:00:00 | 00:00:00 | 00:00:00 | |
| DL8OAI-8 | 2026-09-01 02:00:07 | 51.17701 | 9.25039 | 114° | 51km/h | 3185m | -3.2m/s | -0.4°C | 48.3% | 694.4hPa | 2.7V | 07:10:00 | 00:00:00 | 00:00:00 | |
| DM0DOS-11 | 2026-09-01 02:00:06 | 51.17732 | 9.24890 | 101° | 58km/h | 3207m | -3m/s | -0.4°C | 45.5% | 692.6hPa | 2.7V | 07:09:52 | 03:42:27 | 00:00:00 | |
| HSKMA3-T | 2026-09-01 02:00:05 | 51.17716 | 9.24979 | 109° | 57km/h | 3194m | -3.2m/s | -0.4°C | 51.4% | 693.7hPa | 2.7V | 07:10:28 | 03:42:31 | 00:00:00 | |
| BIOWL1-15 | 2026-09-01 02:00:03 | 51.17725 | 9.24935 | 106° | 58km/h | 3201m | -3.4m/s | -0.3°C | 51.4% | 693.1hPa | 2.6V | 07:10:28 | 03:42:29 | 00:00:00 | |
| DM0DOS-11 | 2026-09-01 02:00:01 | 51.17741 | 9.24777 | 92° | 51km/h | 3223m | -3.1m/s | -0.5°C | 45.2% | 691.2hPa | 2.6V | 07:09:57 | 03:42:22 | 00:00:00 | |
| DD1CC8 | 2026-09-01 02:00:01 | 51.17735 | 9.24867 | 99° | 58km/h | 3210m | -3.1m/s | -0.4°C | 44.4% | 692.3hPa | 2.7V | 00:00:00 | 00:00:00 | 00:00:00 | |
| DO9LL-15 | 2026-09-01 02:00:00 | 51.17735 | 9.24867 | 100° | 57km/h | 3210m | -3.0m/s | -0.3°C | 45.1% | 692.2hPa | 2.7V | 00:00:00 | 03:42:26 | 00:00:00 | |
| DB0UT-7 | 2026-09-01 01:59:57 | 51.17740 | 9.24799 | 95° | 51km/h | 3220m | -3.0m/s | -0.4°C | 45.2% | 691.4hPa | 2.7V | 00:00:00 | 00:00:00 | 00:00:00 | |
| DM0DOS-11 | 2026-09-01 01:59:56 | 51.17747 | 9.24687 | 104° | 42km/h | 3238m | -3.1m/s | -0.6°C | 45.4% | 689.8hPa | 2.7V | 07:10:02 | 03:42:17 | 00:00:00 | |
| HSKMA3-T | 2026-09-01 01:59:54 | 51.17742 | 9.24738 | 93° | 46km/h | 3229m | -3.2m/s | -0.5°C | 49.9% | 690.6hPa | 2.7V | 07:10:28 | 03:42:20 | 00:00:00 | |
| BIOWL1-15 | 2026-09-01 01:59:53 | 51.17743 | 9.24720 | 96° | 44km/h | 3232m | -3.1m/s | -0.6°C | 49.9% | 690.3hPa | 2.7V | 07:10:28 | 03:42:19 | 00:00:00 | |
| DM0DOS-11 | 2026-09-01 01:59:51 | 51.17767 | 9.24595 | 109° | 55km/h | 3254m | -3.3m/s | -0.7°C | 45.6% | 688.5hPa | 2.7V | 07:10:07 | 03:42:12 | 00:00:00 | |
| SONCRA | 2026-09-01 01:59:46 | 51.17771 | 9.24574 | 107° | 57km/h | 3257m | -3.3m/s | -0.7°C | 44.8% | 688.3hPa | 2.7V | 00:00:00 | 00:00:00 | 00:00:00 | |
| DM0DOS-11 | 2026-09-01 01:59:45 | 51.17785 | 9.24482 | 99° | 60km/h | 3270m | -3.1m/s | -0.8°C | 45.5% | 687.1hPa | 2.7V | 07:10:12 | 03:42:07 | 00:00:00 | |
| HSKMA3-T | 2026-09-01 01:59:44 | 51.17775 | 9.24551 | 105° | 58km/h | 3261m | -3.1m/s | -0.8°C | 50.4% | 688hPa | 2.7V | 07:10:28 | 03:42:10 | 00:00:00 | |
| BIOWL1-15 | 2026-09-01 01:59:43 | 51.17779 | 9.24529 | 103° | 58km/h | 3264m | -3.1m/s | -0.8°C | 50.6% | 687.7hPa | 2.7V | 07:10:28 | 03:42:09 | 00:00:00 | |
| DM0DOS-11 | 2026-09-01 01:59:36 | 51.17791 | 9.24368 | 91° | 53km/h | 3287m | -3.4m/s | -0.9°C | 45% | 685.9hPa | 2.7V | 07:10:17 | 03:42:02 | 00:00:00 | |
| DM0DOS-11 | 2026-09-01 01:59:36 | 51.17794 | 9.24275 | 100° | 42km/h | 3303m | -3.2m/s | -1°C | 45.3% | 684.4hPa | 2.6V | 07:10:22 | 03:41:57 | 00:00:00 | |
| HSKMA3-T | 2026-09-01 01:59:34 | 51.17791 | 9.24328 | 91° | 47km/h | 3293m | -3.2m/s | -0.9°C | 50.4% | 685.2hPa | 2.7V | 07:10:28 | 03:42:00 | 00:00:00 | |
| BIOWL1-15 | 2026-09-01 01:59:32 | 51.17803 | 9.24223 | 108° | 49km/h | 3312m | -3.1m/s | -1.1°C | 50.2% | 683.5hPa | 2.7V | 07:10:28 | 03:41:54 | 00:00:00 | |
| DL0LBS | 2026-09-01 01:59:31 | 51.17792 | 9.24292 | 97° | 44km/h | 3299m | -3.2m/s | -1.0°C | 44.5% | 684.6hPa | 2.7V | 00:00:00 | 00:00:00 | 00:00:00 | |
| DD1CC8 | 2026-09-01 01:59:30 | 51.17799 | 9.24241 | 106° | 44km/h | 3309m | -3.3m/s | -1.1°C | 44.9% | 683.8hPa | 2.7V | 00:00:00 | 00:00:00 | 00:00:00 | |
| DB0UT-7 | 2026-09-01 01:59:27 | 51.17806 | 9.24204 | 108° | 53km/h | 3315m | -3.1m/s | -1.0°C | 45.4% | 683.3hPa | 2.7V | 00:00:00 | 03:41:53 | 00:00:00 | |
| DM0DOS-11 | 2026-09-01 01:59:26 | 51.17825 | 9.24068 | 97° | 60km/h | 3335m | -3.4m/s | -1.3°C | 45.7% | 681.6hPa | 2.7V | 07:10:32 | 03:41:47 | 00:00:00 | |
| HSKMA3-T | 2026-09-01 01:59:24 | 51.17817 | 9.24138 | 102° | 58km/h | 3325m | -3.4m/s | -1.2°C | 50.2% | 682.5hPa | 2.6V | 07:11:19 | 03:41:50 | 00:00:00 | |
| BIOWL1-15 | 2026-09-01 01:59:21 | 51.17825 | 9.24068 | 98° | 60km/h | 3335m | -3.4m/s | -1.3°C | 50.8% | 681.6hPa | 2.7V | 07:11:19 | 03:41:47 | 00:00:00 | |
| DM0DOS-11 | 2026-09-01 01:59:16 | 51.17831 | 9.23849 | 90° | 46km/h | 3369m | -3.2m/s | -1.6°C | 45.3% | 678.8hPa | 2.7V | 07:10:42 | 03:41:37 | 00:00:00 | |
| HSKMA3-T | 2026-09-01 01:59:13 | 51.17831 | 9.23888 | 89° | 49km/h | 3362m | -3.4m/s | -1.5°C | 50.8% | 679.3hPa | 2.7V | 07:11:19 | 03:41:39 | 00:00:00 | |
| BIOWL1-15 | 2026-09-01 01:59:10 | 51.17831 | 9.23831 | 93° | 44km/h | 3372m | -3.1m/s | -1.6°C | 50.1% | 678.5hPa | 2.7V | 07:11:19 | 03:41:36 | 00:00:00 | |
| DO9LL-15 | 2026-09-01 01:59:10 | 51.17831 | 9.23831 | 94° | 51km/h | 3372m | -3.1m/s | -1.6°C | 45.3% | 678.5hPa | 2.7V | 00:00:00 | 03:41:36 | 00:00:00 | |
| DL0LBS | 2026-09-01 01:59:09 | 51.17831 | 9.23831 | 94° | 44km/h | 3372m | -3.1m/s | -1.6°C | 44.6% | 678.5hPa | 2.6V | 00:00:00 | 00:00:00 | 00:00:00 | |
| DL1ZP-14 | 2026-09-01 01:59:08 | 51.17834 | 9.23797 | 99° | 42km/h | 3378m | -3.1m/s | -1.7°C | 45.2% | 678.0hPa | 2.6V | 00:00:00 | 00:00:00 | 00:00:00 | |
| DF7PN | 2026-09-01 01:59:06 | 51.17838 | 9.23763 | 104° | 44km/h | 3385m | -3.4m/s | -1.7°C | 45.4% | 677.5hPa | 2.6V | 00:00:00 | 00:00:00 | 00:00:00 | |
| DM0DOS-11 | 2026-09-01 01:59:05 | 51.17857 | 9.23667 | 105° | 55km/h | 3402m | -3.3m/s | -1.9°C | 46.5% | 675.8hPa | 2.6V | 07:10:52 | 03:41:27 | 00:00:00 | |
| HSKMA3-T | 2026-09-01 01:59:03 | 51.17849 | 9.23708 | 108° | 51km/h | 3395m | -3.3m/s | -1.8°C | 51.3% | 676.5hPa | 2.7V | 07:11:19 | 03:41:29 | 00:00:00 | |
| BIOWL1-15 | 2026-09-01 01:59:02 | 51.17860 | 9.23645 | 104° | 57km/h | 3405m | -3.3m/s | -1.9°C | 51.6% | 675.7hPa | 2.6V | 07:11:19 | 03:41:26 | 00:00:00 | |
| DD1CC8 | 2026-09-01 01:58:59 | 51.17867 | 9.23599 | 100° | 58km/h | 3411m | -3.3m/s | -2.0°C | 46.2% | 675.1hPa | 2.7V | 00:00:00 | 00:00:00 | 00:00:00 | |
| DM0DOS-11 | 2026-09-01 01:58:56 | 51.17871 | 9.23552 | 96° | 60km/h | 3418m | -3.3m/s | -2°C | 47.1% | 674.5hPa | 2.7V | 07:10:57 | 03:41:22 | 00:00:00 | |
| DM0DOS-11 | 2026-09-01 01:58:56 | 51.17875 | 9.23435 | 89° | 55km/h | 3435m | -3.4m/s | -2.2°C | 47.5% | 673.1hPa | 2.7V | 07:11:02 | 03:41:17 | 00:00:00 | |
| HSKMA3-T | 2026-09-01 01:58:52 | 51.17875 | 9.23458 | 91° | 57km/h | 3432m | -3.3m/s | -2.2°C | 52.6% | 673.4hPa | 2.6V | 07:11:19 | 03:41:18 | 00:00:00 | |
| DM0DOS-11 | 2026-09-01 01:58:51 | 51.17875 | 9.23337 | 93° | 44km/h | 3452m | -3.3m/s | -2.3°C | 47.6% | 671.7hPa | 2.7V | 07:11:07 | 03:41:12 | 00:00:00 | |
| BIOWL1-15 | 2026-09-01 01:58:50 | 51.17875 | 9.23413 | 89° | 53km/h | 3439m | -3.5m/s | -2.2°C | 52.4% | 672.9hPa | 2.7V | 07:11:19 | 03:41:16 | 00:00:00 | |
| DL0LBS | 2026-09-01 01:58:48 | 51.17875 | 9.23392 | 90° | 51km/h | 3442m | -3.4m/s | -2.2°C | 46.7% | 672.6hPa | 2.7V | 00:00:00 | 00:00:00 | 00:00:00 | |
| DM0DOS-11 | 2026-09-01 01:58:46 | 51.17887 | 9.23249 | 107° | 49km/h | 3469m | -3.4m/s | -2.4°C | 48.2% | 670.4hPa | 2.7V | 07:11:12 | 03:41:07 | 00:00:00 | |
| HSKMA3-T | 2026-09-01 01:58:42 | 51.17883 | 9.23267 | 106° | 47km/h | 3465m | -3.3m/s | -2.4°C | 52.7% | 670.5hPa | 2.7V | 07:11:19 | 03:41:08 | 00:00:00 | |
| DM0DOS-11 | 2026-09-01 01:58:41 | 51.17905 | 9.23143 | 101° | 58km/h | 3485m | -3.4m/s | -2.5°C | 48.1% | 668.9hPa | 2.7V | 07:11:17 | 03:41:02 | 00:00:00 | |
| BIOWL1-15 | 2026-09-01 01:58:39 | 51.17894 | 9.23209 | 106° | 55km/h | 3475m | -3.3m/s | -2.5°C | 53.2% | 669.7hPa | 2.7V | 07:11:19 | 03:41:05 | 00:00:00 | |
| DO9LL-15 | 2026-09-01 01:58:39 | 51.17894 | 9.23209 | 107° | 55km/h | 3476m | -3.2m/s | -2.4°C | 48.2% | 669.7hPa | 2.7V | 00:00:00 | 03:41:05 | 00:00:00 | |
| DL1ZP-14 | 2026-09-01 01:58:37 | 51.17908 | 9.23119 | 99° | 58km/h | 3489m | -3.3m/s | -2.6°C | 47.3% | 668.7hPa | 2.7V | 00:00:00 | 00:00:00 | 00:00:00 | |
| DM0DOS-11 | 2026-09-01 01:58:36 | 51.17915 | 9.23024 | 94° | 60km/h | 3502m | -3.3m/s | -2.7°C | 48.3% | 667.5hPa | 2.7V | 07:11:22 | 03:40:57 | 00:00:00 | |
| HSKMA3-T | 2026-09-01 01:58:32 | 51.17914 | 9.23048 | 96° | 60km/h | 3499m | -3.2m/s | -2.6°C | 53.6% | 667.8hPa | 2.7V | 07:12:10 | 03:40:58 | 00:00:00 | |
| DM0DOS-11 | 2026-09-01 01:58:31 | 51.17916 | 9.22909 | 87° | 53km/h | 3518m | -3.3m/s | -2.8°C | 48.5% | 666hPa | 2.7V | 07:11:27 | 03:40:52 | 00:00:00 | |
| BIOWL1-15 | 2026-09-01 01:58:29 | 51.17917 | 9.22977 | 91° | 58km/h | 3509m | -3.1m/s | -2.7°C | 53.7% | 666.9hPa | 2.6V | 07:12:10 | 03:40:55 | 00:00:00 | |
| DB0UT-7 | 2026-09-01 01:58:27 | 51.17916 | 9.22931 | 89° | 51km/h | 3515m | -3.4m/s | -2.7°C | 48.5% | 666.3hPa | 2.7V | 00:00:00 | 03:40:53 | 00:00:00 | |
| DB0DAN | 2026-09-01 01:58:25 | 51.17916 | 9.22888 | 88° | 49km/h | 3522m | -3.3m/s | -2.8°C | 47.7% | 665.72hPa | 2.7V | 00:00:00 | 00:00:00 | 00:00:00 | |
| DM0DOS-11 | 2026-09-01 01:58:25 | 51.17917 | 9.22814 | 99° | 44km/h | 3534m | -3.2m/s | -2.9°C | 48.8% | 664.6hPa | 2.7V | 07:11:32 | 03:40:47 | 00:00:00 | |
| HSKMA3-T | 2026-09-01 01:58:21 | 51.17917 | 9.22814 | 99° | 44km/h | 3534m | -3.3m/s | -2.9°C | 53.7% | 664.7hPa | 2.7V | 07:12:10 | 03:40:47 | 00:00:00 | |
| BIOWL1-15 | 2026-09-01 01:58:21 | 51.17922 | 9.22779 | 106° | 46km/h | 3541m | -3.4m/s | -3°C | 53.5% | 664.2hPa | 2.7V | 07:12:10 | 03:40:45 | 00:00:00 | |
| DM0DOS-11 | 2026-09-01 01:58:16 | 51.17947 | 9.22609 | 96° | 58km/h | 3568m | -3.3m/s | -3.2°C | 48.9% | 662hPa | 2.7V | 07:11:42 | 03:40:37 | 00:00:00 | |
| HSKMA3-T | 2026-09-01 01:58:11 | 51.17947 | 9.22609 | 96° | 58km/h | 3568m | -3.3m/s | -3.2°C | 53.3% | 662hPa | 2.7V | 07:12:10 | 03:40:37 | 00:00:00 | |
| DB0DAN | 2026-09-01 01:58:10 | 51.17949 | 9.22586 | 94° | 55km/h | 3571m | -3.4m/s | -3.2°C | 48.1% | 661.77hPa | 2.7V | 00:00:00 | 00:00:00 | 00:00:00 | |
| BIOWL1-15 | 2026-09-01 01:58:09 | 51.17949 | 9.22562 | 92° | 57km/h | 3574m | -3.3m/s | -3.2°C | 53.4% | 661.4hPa | 2.7V | 07:12:10 | 03:40:35 | 00:00:00 | |
| DO9LL-15 | 2026-09-01 01:58:09 | 51.17949 | 9.22562 | 93° | 49km/h | 3574m | -3.3m/s | -3.2°C | 48.9% | 661.3hPa | 2.7V | 00:00:00 | 03:40:35 | 00:00:00 | |
| DM0DOS-11 | 2026-09-01 01:58:06 | 51.17947 | 9.22393 | 87° | 47km/h | 3601m | -3.4m/s | -3.4°C | 48.7% | 659.1hPa | 2.7V | 07:11:52 | 03:40:27 | 00:00:00 | |
| DL8OAI-8 | 2026-09-01 01:58:03 | 51.17949 | 9.22453 | 88° | 53km/h | 3591m | -3.3m/s | -3.4°C | 47.8% | 660.0hPa | 2.7V | 07:12:00 | 00:00:00 | 00:00:00 | |
| DM0DOS-11 | 2026-09-01 01:58:01 | 51.17949 | 9.22305 | 100° | 42km/h | 3618m | -3.4m/s | -3.5°C | 49% | 657.7hPa | 2.7V | 07:11:57 | 03:40:22 | 00:00:00 | |
| HSKMA3-T | 2026-09-01 01:58:00 | 51.17946 | 9.22374 | 89° | 46km/h | 3605m | -3.4m/s | -3.5°C | 53.9% | 659hPa | 2.6V | 07:12:10 | 03:40:26 | 00:00:00 | |
| BIOWL1-15 | 2026-09-01 01:57:59 | 51.17946 | 9.22356 | 91° | 44km/h | 3608m | -3.3m/s | -3.5°C | 54% | 658.6hPa | 2.6V | 07:12:10 | 03:40:25 | 00:00:00 | |
| DB0UT-7 | 2026-09-01 01:57:57 | 51.17948 | 9.22322 | 98° | 49km/h | 3614m | -3.2m/s | -3.5°C | 48.8% | 658.0hPa | 2.7V | 00:00:00 | 00:00:00 | 00:00:00 | |
| DM0DOS-11 | 2026-09-01 01:57:56 | 51.17965 | 9.22211 | 104° | 55km/h | 3634m | -3m/s | -3.6°C | 48.2% | 656.5hPa | 2.7V | 07:12:02 | 03:40:17 | 00:00:00 | |
| DB0DAN | 2026-09-01 01:57:55 | 51.17952 | 9.22288 | 103° | 42km/h | 3621m | -3.3m/s | -3.6°C | 48.1% | 657.48hPa | 2.7V | 00:00:00 | 00:00:00 | 00:00:00 | |
| BIOWL1-15 | 2026-09-01 01:57:51 | 51.17971 | 9.22166 | 98° | 58km/h | 3640m | -3m/s | -3.7°C | 52.2% | 656.1hPa | 2.7V | 07:12:10 | 03:40:15 | 00:00:00 | |
| HSKMA3-T | 2026-09-01 01:57:50 | 51.17968 | 9.22189 | 102° | 57km/h | 3637m | -3.1m/s | -3.6°C | 52.4% | 656.2hPa | 2.7V | 07:12:10 | 03:40:16 | 00:00:00 | |
| DM0DOS-11 | 2026-09-01 01:57:48 | 51.17974 | 9.22097 | 90° | 55km/h | 3649m | -3.1m/s | -3.7°C | 48.1% | 655.2hPa | 2.7V | 07:12:07 | 03:40:12 | 00:00:00 | |
| DB0NH | 2026-09-01 01:57:45 | 51.17973 | 9.22075 | 89° | 49km/h | 3652m | -2.9m/s | -3.7°C | 48.0% | 654.9hPa | 2.7V | 00:00:00 | 03:40:11 | 00:00:00 | |
| DL8OAI-8 | 2026-09-01 01:57:42 | 51.17973 | 9.22034 | 89° | 47km/h | 3658m | -3.2m/s | -3.8°C | 47.1% | 654.4hPa | 2.7V | 07:12:00 | 00:00:00 | 00:00:00 | |
| DM0DOS-11 | 2026-09-01 01:57:41 | 51.17972 | 9.21998 | 89° | 44km/h | 3664m | -3.2m/s | -3.8°C | 48% | 654hPa | 2.7V | 07:12:12 | 03:40:07 | 00:00:00 | |
| DM0DOS-11 | 2026-09-01 01:57:41 | 51.17977 | 9.21914 | 100° | 42km/h | 3680m | -3.2m/s | -3.9°C | 47.6% | 652.6hPa | 2.7V | 07:12:17 | 03:40:02 | 00:00:00 | |
| DB0DAN | 2026-09-01 01:57:40 | 51.17972 | 9.21981 | 92° | 40km/h | 3668m | -3.1m/s | -3.9°C | 47.1% | 653.61hPa | 2.7V | 00:00:00 | 00:00:00 | 00:00:00 | |
| BIOWL1-15 | 2026-09-01 01:57:40 | 51.17974 | 9.21947 | 96° | 42km/h | 3674m | -3m/s | -3.9°C | 52.6% | 653.1hPa | 2.6V | 07:13:01 | 03:40:04 | 00:00:00 | |
| HSKMA3-T | 2026-09-01 01:57:39 | 51.17973 | 9.21964 | 94° | 42km/h | 3671m | -3.2m/s | -3.9°C | 52.6% | 653.5hPa | 2.7V | 07:13:01 | 03:40:05 | 00:00:00 | |
| DO9LL-15 | 2026-09-01 01:57:39 | 51.17973 | 9.21964 | 95° | 47km/h | 3671m | -3.1m/s | -3.8°C | 47.9% | 653.4hPa | 2.7V | 07:12:00 | 03:40:05 | 00:00:00 | |
| BIOWL7-15 | 2026-09-01 01:57:37 | 51.17974 | 9.21947 | 97° | 42km/h | 3674m | -3.0m/s | -3.9°C | 47.1% | 653.1hPa | 2.6V | 00:00:00 | 00:00:00 | 00:00:00 | |
| DM0DOS-11 | 2026-09-01 01:57:36 | 51.17992 | 9.21826 | 107° | 49km/h | 3695m | -3m/s | -4°C | 46.1% | 651.3hPa | 2.6V | 07:12:22 | 03:39:57 | 00:00:00 | |
| DL1ZP-14 | 2026-09-01 01:57:35 | 51.17979 | 9.21897 | 103° | 42km/h | 3683m | -3.2m/s | -3.9°C | 46.2% | 652.3hPa | 2.7V | 00:00:00 | 00:00:00 | 00:00:00 | |
| DF7PN | 2026-09-01 01:57:32 | 51.17989 | 9.21844 | 107° | 46km/h | 3692m | -3.1m/s | -4.0°C | 45.4% | 651.6hPa | 2.7V | 00:00:00 | 00:00:00 | 00:00:00 | |
| DM0DOS-11 | 2026-09-01 01:57:31 | 51.18010 | 9.21720 | 100° | 58km/h | 3710m | -3m/s | -4.1°C | 45.9% | 650.1hPa | 2.7V | 07:12:27 | 03:39:52 | 00:00:00 | |
| HSKMA3-T | 2026-09-01 01:57:28 | 51.18004 | 9.21765 | 105° | 57km/h | 3704m | -3.1m/s | -4.1°C | 50.9% | 650.6hPa | 2.7V | 07:13:01 | 03:39:54 | 00:00:00 | |
| BIOWL1-15 | 2026-09-01 01:57:27 | 51.18007 | 9.21743 | 103° | 57km/h | 3707m | -3m/s | -4.1°C | 50.8% | 650.3hPa | 2.7V | 07:13:01 | 03:39:53 | 00:00:00 | |
| DB0UT-7 | 2026-09-01 01:57:27 | 51.18007 | 9.21743 | 103° | 51km/h | 3707m | -2.9m/s | -4.1°C | 45.8% | 650.2hPa | 2.7V | 00:00:00 | 03:39:53 | 00:00:00 | |
| DB0DAN | 2026-09-01 01:57:25 | 51.18013 | 9.21697 | 97° | 55km/h | 3713m | -2.8m/s | -4.2°C | 44.9% | 649.91hPa | 2.7V | 00:00:00 | 00:00:00 | 00:00:00 | |
| DM0DOS-11 | 2026-09-01 01:57:21 | 51.18014 | 9.21516 | 94° | 42km/h | 3739m | -2.9m/s | -4.3°C | 45.4% | 647.7hPa | 2.6V | 07:12:37 | 03:39:42 | 00:00:00 | |
| BIOWL1-15 | 2026-09-01 01:57:18 | 51.18014 | 9.21516 | 94° | 42km/h | 3739m | -2.9m/s | -4.3°C | 49.2% | 647.7hPa | 2.6V | 07:13:01 | 03:39:42 | 00:00:00 | |
| HSKMA3-T | 2026-09-01 01:57:18 | 51.18014 | 9.21551 | 89° | 46km/h | 3733m | -3m/s | -4.3°C | 49.3% | 648.2hPa | 2.7V | 07:13:01 | 03:39:44 | 00:00:00 | |
| DB0NH | 2026-09-01 01:57:15 | 51.18015 | 9.21499 | 98° | 51km/h | 3742m | -2.9m/s | -4.3°C | 45.4% | 647.5hPa | 2.6V | 00:00:00 | 03:39:41 | 00:00:00 | |
| BIOWL7-15 | 2026-09-01 01:57:14 | 51.18015 | 9.21499 | 99° | 42km/h | 3742m | -3.0m/s | -4.4°C | 44.6% | 647.5hPa | 2.7V | 00:00:00 | 00:00:00 | 00:00:00 | |
| DB0DAN | 2026-09-01 01:57:10 | 51.18029 | 9.21416 | 109° | 44km/h | 3757m | -3.1m/s | -4.5°C | 44.9% | 646.3hPa | 2.7V | 00:00:00 | 00:00:00 | 00:00:00 | |
| DO9LL-15 | 2026-09-01 01:57:09 | 51.18033 | 9.21398 | 109° | 53km/h | 3759m | -2.8m/s | -4.5°C | 45.7% | 646.1hPa | 2.7V | 00:00:00 | 03:39:35 | 00:00:00 | |
| DM0DOS-11 | 2026-09-01 01:57:08 | 51.18045 | 9.21339 | 108° | 53km/h | 3768m | -3m/s | -4.6°C | 46.1% | 645.5hPa | 2.7V | 07:12:47 | 03:39:32 | 00:00:00 | |
| HSKMA3-T | 2026-09-01 01:57:07 | 51.18041 | 9.21359 | 109° | 53km/h | 3765m | -2.9m/s | -4.6°C | 50.6% | 645.7hPa | 2.7V | 07:13:01 | 03:39:33 | 00:00:00 | |
| BIOWL1-15 | 2026-09-01 01:57:07 | 51.18049 | 9.21318 | 108° | 55km/h | 3771m | -2.8m/s | -4.6°C | 51% | 645.2hPa | 2.7V | 07:13:01 | 03:39:31 | 00:00:00 | |
| DL1ZP-14 | 2026-09-01 01:57:04 | 51.18054 | 9.21297 | 106° | 55km/h | 3773m | -2.8m/s | -4.6°C | 45.0% | 644.9hPa | 2.7V | 00:00:00 | 00:00:00 | 00:00:00 | |
| DM0DOS-11 | 2026-09-01 01:57:01 | 51.18065 | 9.21230 | 103° | 58km/h | 3782m | -3m/s | -4.7°C | 46% | 644.2hPa | 2.6V | 07:12:52 | 03:39:27 | 00:00:00 | |
| DM0DOS-11 | 2026-09-01 01:57:01 | 51.18076 | 9.21092 | 90° | 55km/h | 3799m | -2.7m/s | -4.8°C | 46.1% | 642.9hPa | 2.7V | 07:12:58 | 03:39:21 | 00:00:00 | |
| HSKMA3-T | 2026-09-01 01:56:57 | 51.18074 | 9.21137 | 94° | 58km/h | 3793m | -2.9m/s | -4.8°C | 50.4% | 643.3hPa | 2.7V | 07:13:01 | 03:39:23 | 00:00:00 | |
| DB0UT-7 | 2026-09-01 01:56:57 | 51.18074 | 9.21136 | 95° | 53km/h | 3793m | -2.8m/s | -4.7°C | 45.9% | 643.2hPa | 2.7V | 00:00:00 | 00:00:00 | 00:00:00 | |
| DM0DOS-11 | 2026-09-01 01:56:56 | 51.18075 | 9.20991 | 91° | 46km/h | 3813m | -2.6m/s | -4.9°C | 45.5% | 641.8hPa | 2.7V | 07:13:03 | 03:39:16 | 00:00:00 | |
| DB0DAN | 2026-09-01 01:56:55 | 51.18076 | 9.21092 | 90° | 51km/h | 3799m | -2.7m/s | -4.8°C | 45.2% | 642.89hPa | 2.7V | 00:00:00 | 00:00:00 | 00:00:00 | |
| BIOWL1-15 | 2026-09-01 01:56:55 | 51.18076 | 9.21092 | 90° | 55km/h | 3799m | -2.7m/s | -4.8°C | 50.2% | 642.9hPa | 2.7V | 07:13:01 | 03:39:21 | 00:00:00 | |
| HSKMA3-T | 2026-09-01 01:56:47 | 51.18079 | 9.20939 | 103° | 44km/h | 3821m | -2.7m/s | -5°C | 49% | 641.1hPa | 2.6V | 07:13:52 | 03:39:13 | 00:00:00 | |
| DM0DOS-11 | 2026-09-01 01:56:45 | 51.18085 | 9.20903 | 106° | 47km/h | 3826m | -2.8m/s | -5°C | 45.1% | 640.8hPa | 2.7V | 07:13:08 | 03:39:11 | 00:00:00 | |
| DM0DOS-11 | 2026-09-01 01:56:45 | 51.18104 | 9.20802 | 105° | 57km/h | 3840m | -2.6m/s | -5°C | 43.5% | 639.6hPa | 2.6V | 07:13:13 | 03:39:06 | 00:00:00 | |
| BIOWL1-15 | 2026-09-01 01:56:44 | 51.18089 | 9.20884 | 106° | 49km/h | 3829m | -2.6m/s | -5°C | 49.7% | 640.5hPa | 2.7V | 07:13:52 | 03:39:10 | 00:00:00 | |
| WPPR-10 | 2026-09-01 01:56:41 | 51.18115 | 9.20734 | 103° | 58km/h | 3848m | -2.7m/s | -5.0°C | 42.6% | 638.9hPa | 2.7V | 00:00:00 | 00:00:00 | 00:00:00 | |
| DM0DOS-11 | 2026-09-01 01:56:40 | 51.18121 | 9.20687 | 100° | 60km/h | 3854m | -3m/s | -5°C | 43.1% | 638.5hPa | 2.7V | 07:13:18 | 03:39:01 | 00:00:00 | |
| HSKMA3-T | 2026-09-01 01:56:36 | 51.18118 | 9.20711 | 102° | 60km/h | 3851m | -2.9m/s | -5°C | 47.5% | 638.7hPa | 2.7V | 07:13:52 | 03:39:02 | 00:00:00 | |
| DM0DOS-11 | 2026-09-01 01:56:35 | 51.18131 | 9.20566 | 92° | 58km/h | 3868m | -2.7m/s | -5.1°C | 42.6% | 637.3hPa | 2.7V | 07:13:23 | 03:38:56 | 00:00:00 | |
| BIOWL1-15 | 2026-09-01 01:56:35 | 51.18127 | 9.20639 | 98° | 62km/h | 3860m | -2.8m/s | -5°C | 47.4% | 637.9hPa | 2.6V | 07:13:52 | 03:38:59 | 00:00:00 | |
| DL1ZP-14 | 2026-09-01 01:56:33 | 51.18127 | 9.20639 | 98° | 60km/h | 3860m | -2.8m/s | -5.0°C | 42.0% | 637.9hPa | 2.6V | 00:00:00 | 00:00:00 | 00:00:00 | |
| DM0DOS-11 | 2026-09-01 01:56:30 | 51.18130 | 9.20459 | 90° | 46km/h | 3881m | -2.6m/s | -5.2°C | 42.6% | 636.3hPa | 2.6V | 07:13:28 | 03:38:51 | 00:00:00 | |
| HSKMA3-T | 2026-09-01 01:56:26 | 51.18130 | 9.20478 | 88° | 49km/h | 3879m | -2.4m/s | -5.2°C | 46.5% | 636.3hPa | 2.6V | 07:13:52 | 03:38:52 | 00:00:00 | |
| DM0DOS-11 | 2026-09-01 01:56:25 | 51.18138 | 9.20369 | 104° | 47km/h | 3894m | -2.7m/s | -5.2°C | 41.9% | 635.2hPa | 2.7V | 07:13:33 | 03:38:46 | 00:00:00 | |
| BIOWL1-15 | 2026-09-01 01:56:23 | 51.18131 | 9.20423 | 97° | 44km/h | 3886m | -2.6m/s | -5.2°C | 46.4% | 635.8hPa | 2.7V | 07:13:52 | 03:38:49 | 00:00:00 | |
| DM0DOS-11 | 2026-09-01 01:56:20 | 51.18156 | 9.20266 | 104° | 57km/h | 3907m | -2.5m/s | -5.2°C | 41.6% | 634.1hPa | 2.7V | 07:13:38 | 03:38:41 | 00:00:00 | |
| HSKMA3-T | 2026-09-01 01:56:15 | 51.18156 | 9.20266 | 104° | 57km/h | 3907m | -2.5m/s | -5.2°C | 46.3% | 634.1hPa | 2.7V | 07:13:52 | 03:38:41 | 00:00:00 | |
| BIOWL1-15 | 2026-09-01 01:56:13 | 51.18162 | 9.20220 | 101° | 60km/h | 3912m | -2.8m/s | -5.3°C | 46.3% | 633.7hPa | 2.7V | 07:13:52 | 03:38:39 | 00:00:00 | |
| NBG1-10 | 2026-09-01 01:56:13 | 51.18162 | 9.20220 | 102° | 53km/h | 3913m | -2.7m/s | -5.2°C | 41.8% | 633.7hPa | 2.7V | 00:00:00 | 03:38:39 | 00:00:00 | |
| BIOWL7-15 | 2026-09-01 01:56:11 | 51.18165 | 9.20196 | 100° | 60km/h | 3915m | -2.7m/s | -5.3°C | 40.9% | 633.5hPa | 2.7V | 00:00:00 | 00:00:00 | 00:00:00 | |
| DO9LL-15 | 2026-09-01 01:56:09 | 51.18170 | 9.20123 | 94° | 51km/h | 3923m | -2.4m/s | -5.3°C | 42.0% | 632.9hPa | 2.7V | 00:00:00 | 03:38:35 | 00:00:00 | |
| DM0DOS-11 | 2026-09-01 01:56:08 | 51.18171 | 9.20034 | 89° | 53km/h | 3933m | -2.5m/s | -5.4°C | 41.7% | 632.1hPa | 2.6V | 07:13:48 | 03:38:31 | 00:00:00 | |
| HSKMA3-T | 2026-09-01 01:56:05 | 51.18171 | 9.20034 | 89° | 53km/h | 3933m | -2.5m/s | -5.4°C | 46.2% | 632.1hPa | 2.6V | 07:13:52 | 03:38:31 | 00:00:00 | |
| DL1ZP-14 | 2026-09-01 01:56:02 | 51.18170 | 9.19972 | 88° | 49km/h | 3940m | -2.6m/s | -5.4°C | 40.7% | 631.5hPa | 2.7V | 00:00:00 | 00:00:00 | 00:00:00 | |
| BIOWL1-15 | 2026-09-01 01:56:02 | 51.18170 | 9.19972 | 89° | 51km/h | 3940m | -2.6m/s | -5.4°C | 45.8% | 631.5hPa | 2.7V | 07:13:52 | 03:38:28 | 00:00:00 | |
| DM0DOS-11 | 2026-09-01 01:56:00 | 51.18170 | 9.19838 | 94° | 44km/h | 3958m | -2.6m/s | -5.5°C | 41.8% | 630hPa | 2.7V | 07:13:58 | 03:38:21 | 00:00:00 | |
| DF7PN | 2026-09-01 01:55:59 | 51.18169 | 9.19912 | 89° | 47km/h | 3948m | -2.6m/s | -5.5°C | 40.9% | 630.8hPa | 2.6V | 00:00:00 | 00:00:00 | 00:00:00 | |
| DB0UT-7 | 2026-09-01 01:55:57 | 51.18169 | 9.19874 | 92° | 51km/h | 3954m | -2.5m/s | -5.5°C | 41.9% | 630.3hPa | 2.6V | 00:00:00 | 00:00:00 | 00:00:00 | |
| DB0DAN | 2026-09-01 01:55:55 | 51.18170 | 9.19838 | 94° | 42km/h | 3959m | -2.6m/s | -5.5°C | 41% | 629.95hPa | 2.7V | 00:00:00 | 00:00:00 | 00:00:00 | |
| HSKMA3-T | 2026-09-01 01:55:54 | 51.18171 | 9.19820 | 97° | 44km/h | 3961m | -2.6m/s | -5.5°C | 46.1% | 629.9hPa | 2.7V | 07:14:43 | 03:38:20 | 00:00:00 | |
| BIOWL1-15 | 2026-09-01 01:55:52 | 51.18175 | 9.19786 | 102° | 44km/h | 3966m | -2.6m/s | -5.6°C | 46.6% | 629.4hPa | 2.7V | 07:14:43 | 03:38:18 | 00:00:00 | |
| BIOWL9-15 | 2026-09-01 01:55:48 | 51.18192 | 9.19695 | 109° | 51km/h | 3979m | -2.6m/s | -5.7°C | 41.4% | 628.3hPa | 2.7V | 00:00:00 | 00:00:00 | 00:00:00 | |
| DB0ND-19 | 2026-09-01 01:55:46 | 51.18196 | 9.19675 | 109° | 53km/h | 3982m | -2.4m/s | -5.7°C | 41.4% | 628.0hPa | 2.7V | 00:00:00 | 00:00:00 | 00:00:00 | |
| DM0DOS-11 | 2026-09-01 01:55:45 | 51.18218 | 9.19538 | 97° | 62km/h | 3996m | -2.6m/s | -5.8°C | 42.3% | 627hPa | 2.7V | 07:14:13 | 03:38:06 | 00:00:00 | |
| HSKMA3-T | 2026-09-01 01:55:44 | 51.18205 | 9.19633 | 107° | 58km/h | 3987m | -2.3m/s | -5.7°C | 47% | 627.8hPa | 2.6V | 07:14:43 | 03:38:10 | 00:00:00 | |
| BIOWL1-15 | 2026-09-01 01:55:41 | 51.18221 | 9.19489 | 93° | 58km/h | 4001m | -2.5m/s | -5.9°C | 46.9% | 626.5hPa | 2.7V | 07:14:43 | 03:38:04 | 00:00:00 | |
| DB0DAN | 2026-09-01 01:55:40 | 51.18218 | 9.19538 | 97° | 58km/h | 3997m | -2.6m/s | -5.8°C | 41.4% | 626.97hPa | 2.7V | 00:00:00 | 00:00:00 | 00:00:00 | |
| DM0DOS-11 | 2026-09-01 01:55:40 | 51.18222 | 9.19424 | 91° | 49km/h | 4008m | -2.2m/s | -5.9°C | 42.5% | 626.1hPa | 2.7V | 07:14:18 | 03:38:01 | 00:00:00 | |
| DO9LL-15 | 2026-09-01 01:55:39 | 51.18219 | 9.19513 | 95° | 55km/h | 3999m | -2.4m/s | -5.8°C | 42.5% | 626.8hPa | 2.6V | 00:00:00 | 03:38:05 | 00:00:00 | |
| WPPR-10 | 2026-09-01 01:55:38 | 51.18221 | 9.19489 | 92° | 58km/h | 4001m | -2.5m/s | -5.9°C | 41.7% | 626.5hPa | 2.6V | 00:00:00 | 00:00:00 | 00:00:00 | |
| SONCRA | 2026-09-01 01:55:37 | 51.18221 | 9.19466 | 91° | 55km/h | 4004m | -2.4m/s | -5.9°C | 41.6% | 626.4hPa | 2.6V | 00:00:00 | 00:00:00 | 00:00:00 | |
| DM0DOS-11 | 2026-09-01 01:55:35 | 51.18231 | 9.19332 | 108° | 47km/h | 4020m | -2.5m/s | -6°C | 42.3% | 625.1hPa | 2.6V | 07:14:23 | 03:37:56 | 00:00:00 | |
| HSKMA3-T | 2026-09-01 01:55:34 | 51.18222 | 9.19404 | 94° | 47km/h | 4011m | -2.3m/s | -5.9°C | 46.7% | 625.9hPa | 2.7V | 07:14:43 | 03:38:00 | 00:00:00 | |
| BIOWL1-15 | 2026-09-01 01:55:29 | 51.18235 | 9.19313 | 109° | 51km/h | 4022m | -2.5m/s | -6°C | 46.3% | 625hPa | 2.6V | 07:14:43 | 03:37:55 | 00:00:00 | |
| DF7PN | 2026-09-01 01:55:28 | 51.18240 | 9.19294 | 109° | 53km/h | 4025m | -2.5m/s | -6.0°C | 41.6% | 624.8hPa | 2.7V | 00:00:00 | 00:00:00 | 00:00:00 | |
| DB0UT-7 | 2026-09-01 01:55:27 | 51.18244 | 9.19273 | 109° | 55km/h | 4028m | -2.3m/s | -6.0°C | 42.4% | 624.5hPa | 2.7V | 00:00:00 | 03:37:53 | 00:00:00 | |
| DB0DAN | 2026-09-01 01:55:25 | 51.18253 | 9.19230 | 107° | 55km/h | 4032m | -2.3m/s | -6.1°C | 41.5% | 624.18hPa | 2.7V | 00:00:00 | 00:00:00 | 00:00:00 | |
| DM0DOS-11 | 2026-09-01 01:55:25 | 51.18253 | 9.19230 | 107° | 58km/h | 4032m | -2.3m/s | -6.1°C | 42.4% | 624.2hPa | 2.7V | 07:14:28 | 03:37:51 | 00:00:00 | |
| DM0DOS-11 | 2026-09-01 01:55:25 | 51.18270 | 9.19112 | 99° | 60km/h | 4044m | -2.4m/s | -6.2°C | 42.8% | 623.1hPa | 2.7V | 07:14:33 | 03:37:46 | 00:00:00 | |
| HSKMA3-T | 2026-09-01 01:55:23 | 51.18261 | 9.19184 | 104° | 60km/h | 4037m | -2.4m/s | -6.1°C | 45.9% | 623.6hPa | 2.6V | 07:14:43 | 03:37:49 | 00:00:00 | |
| DD1CC8 | 2026-09-01 01:55:21 | 51.18268 | 9.19136 | 100° | 60km/h | 4042m | -2.4m/s | -6.2°C | 41.8% | 623.4hPa | 2.6V | 00:00:00 | 00:00:00 | 00:00:00 | |
| DM0DOS-11 | 2026-09-01 01:55:20 | 51.18279 | 9.18991 | 92° | 58km/h | 4057m | -2.3m/s | -6.2°C | 41.2% | 622.3hPa | 2.6V | 07:14:38 | 03:37:41 | 00:00:00 | |
| BIOWL1-15 | 2026-09-01 01:55:18 | 51.18275 | 9.19064 | 97° | 62km/h | 4050m | -2.3m/s | -6.2°C | 46.4% | 622.8hPa | 2.7V | 07:14:43 | 03:37:44 | 00:00:00 | |
| DL1NUX | 2026-09-01 01:55:17 | 51.18280 | 9.18921 | 89° | 57km/h | 4064m | -2.6m/s | -6.2°C | 40.2% | 621.6hPa | 2.7V | 07:14:41 | 03:37:38 | 00:00:00 | |
| BIOWL9-15 | 2026-09-01 01:55:17 | 51.18278 | 9.19015 | 93° | 58km/h | 4054m | -2.4m/s | -6.2°C | 40.7% | 622.4hPa | 2.6V | 00:00:00 | 00:00:00 | 00:00:00 | |
| DB0NH | 2026-09-01 01:55:15 | 51.18279 | 9.18991 | 93° | 53km/h | 4057m | -2.3m/s | -6.1°C | 41.2% | 622.2hPa | 2.6V | 07:14:00 | 03:37:41 | 00:00:00 | |
| DM0DOS-11 | 2026-09-01 01:55:14 | 51.18279 | 9.18856 | 88° | 51km/h | 4072m | -2.3m/s | -6.2°C | 41.6% | 621hPa | 2.6V | 07:14:44 | 03:37:35 | 00:00:00 | |
| HSKMA3-T | 2026-09-01 01:55:12 | 51.18280 | 9.18921 | 90° | 57km/h | 4064m | -2.6m/s | -6.2°C | 44.4% | 621.6hPa | 2.7V | 07:14:43 | 03:37:38 | 00:00:00 | |
| DB0DAN | 2026-09-01 01:55:10 | 51.18279 | 9.18877 | 88° | 51km/h | 4069m | -2.3m/s | -6.2°C | 40.2% | 621.18hPa | 2.7V | 00:00:00 | 00:00:00 | 00:00:00 | |
| BIOWL1-15 | 2026-09-01 01:55:09 | 51.18278 | 9.18816 | 89° | 47km/h | 4077m | -2.4m/s | -6.2°C | 44.9% | 620.6hPa | 2.7V | 07:15:34 | 03:37:33 | 00:00:00 | |
| DO9LL-15 | 2026-09-01 01:55:09 | 51.18279 | 9.18856 | 89° | 49km/h | 4072m | -2.3m/s | -6.2°C | 41.6% | 620.9hPa | 2.6V | 00:00:00 | 03:37:35 | 00:00:00 | |
| BIOWL7-15 | 2026-09-01 01:55:08 | 51.18279 | 9.18835 | 89° | 49km/h | 4074m | -2.7m/s | -6.2°C | 40.8% | 620.8hPa | 2.6V | 00:00:00 | 00:00:00 | 00:00:00 | |
| DM0DOS-11 | 2026-09-01 01:55:07 | 51.18284 | 9.18727 | 104° | 47km/h | 4089m | -2.1m/s | -6.2°C | 39.1% | 619.7hPa | 2.6V | 07:14:51 | 03:37:28 | 00:00:00 | |
| SONCRA | 2026-09-01 01:55:06 | 51.18278 | 9.18797 | 90° | 44km/h | 4079m | -2.3m/s | -6.2°C | 39.4% | 620.5hPa | 2.7V | 00:00:00 | 00:00:00 | 00:00:00 | |
| DD1CC3-15 | 2026-09-01 01:55:04 | 51.18279 | 9.18779 | 95° | 44km/h | 4082m | -2.3m/s | -6.2°C | 38.9% | 620.3hPa | 2.7V | 07:15:00 | 00:00:00 | 00:00:00 | |
| DM0DOS-11 | 2026-09-01 01:55:02 | 51.18301 | 9.18620 | 100° | 60km/h | 4100m | -2.3m/s | -6.2°C | 37.4% | 618.9hPa | 2.7V | 07:14:56 | 03:37:23 | 00:00:00 | |
| HSKMA3-T | 2026-09-01 01:55:01 | 51.18287 | 9.18708 | 107° | 49km/h | 4091m | -2.3m/s | -6.2°C | 43.4% | 619.5hPa | 2.6V | 07:15:34 | 03:37:27 | 00:00:00 | |
| DL1ZP-14 | 2026-09-01 01:55:00 | 51.18295 | 9.18667 | 105° | 57km/h | 4095m | -2.3m/s | -6.2°C | 37.4% | 619.2hPa | 2.7V | 00:00:00 | 00:00:00 | 00:00:00 | |
| DM0DOS-11 | 2026-09-01 01:54:57 | 51.18307 | 9.18501 | 88° | 55km/h | 4112m | -2.2m/s | -6.2°C | 35.3% | 617.8hPa | 2.7V | 07:15:01 | 03:37:18 | 00:00:00 | |
| BIOWL1-15 | 2026-09-01 01:54:56 | 51.18307 | 9.18548 | 93° | 60km/h | 4107m | -2.5m/s | -6.1°C | 39.5% | 618.3hPa | 2.7V | 07:15:34 | 03:37:20 | 00:00:00 | |
| DB0DAN | 2026-09-01 01:54:55 | 51.18306 | 9.18572 | 95° | 58km/h | 4105m | -2.4m/s | -6.1°C | 34.7% | 618.44hPa | 2.6V | 00:00:00 | 00:00:00 | 00:00:00 | |
| HSKMA3-T | 2026-09-01 01:54:51 | 51.18306 | 9.18480 | 88° | 53km/h | 4114m | -2.1m/s | -6.2°C | 39.2% | 617.6hPa | 2.7V | 07:15:34 | 03:37:17 | 00:00:00 | |
| DD1CC8 | 2026-09-01 01:54:50 | 51.18306 | 9.18459 | 88° | 47km/h | 4116m | -2.1m/s | -6.2°C | 34.0% | 617.5hPa | 2.6V | 00:00:00 | 00:00:00 | 00:00:00 | |
| AM1SDL-15 | 2026-09-01 01:54:49 | 51.18306 | 9.18440 | 91° | 46km/h | 4118m | -2.1m/s | -6.1°C | 34.4% | 617.3hPa | 2.6V | 00:00:00 | 03:37:15 | 00:00:00 | |
| DL1NUX | 2026-09-01 01:54:48 | 51.18314 | 9.18335 | 102° | 46km/h | 4132m | -2.3m/s | -6.2°C | 33.8% | 616.2hPa | 2.7V | 07:15:10 | 03:37:09 | 00:00:00 | |
| BIOWL1-15 | 2026-09-01 01:54:45 | 51.18311 | 9.18353 | 101° | 44km/h | 4130m | -2.3m/s | -6.2°C | 37.2% | 616.4hPa | 2.7V | 07:15:34 | 03:37:10 | 00:00:00 | |
| DB0ND-19 | 2026-09-01 01:54:44 | 51.18311 | 9.18353 | 100° | 44km/h | 4130m | -2.3m/s | -6.2°C | 33.2% | 616.4hPa | 2.7V | 00:00:00 | 00:00:00 | 00:00:00 | |
| DM0DOS-11 | 2026-09-01 01:54:43 | 51.18330 | 9.18239 | 105° | 55km/h | 4144m | -2.3m/s | -6.2°C | 34.2% | 615.4hPa | 2.7V | 07:15:15 | 03:37:04 | 00:00:00 | |
| DO2KSM | 2026-09-01 01:54:42 | 51.18314 | 9.18335 | 103° | 46km/h | 4132m | -2.3m/s | -6.2°C | 33.1% | 616.2hPa | 2.7V | 00:00:00 | 00:00:00 | 00:00:00 | |
| DB0DAN | 2026-09-01 01:54:40 | 51.18322 | 9.18279 | 105° | 47km/h | 4139m | -2.2m/s | -6.2°C | 33% | 615.71hPa | 2.7V | 00:00:00 | 00:00:00 | 00:00:00 | |
| HSKMA3-T | 2026-09-01 01:54:40 | 51.18322 | 9.18279 | 105° | 51km/h | 4139m | -2.2m/s | -6.2°C | 37.6% | 615.7hPa | 2.7V | 07:15:34 | 03:37:06 | 00:00:00 | |
| DO9LL-15 | 2026-09-01 01:54:39 | 51.18326 | 9.18259 | 106° | 55km/h | 4142m | -2.2m/s | -6.2°C | 34.0% | 615.5hPa | 2.7V | 00:00:00 | 03:37:05 | 00:00:00 | |
| DM0DOS-11 | 2026-09-01 01:54:38 | 51.18348 | 9.18128 | 102° | 60km/h | 4156m | -2.6m/s | -6.3°C | 34.4% | 614.4hPa | 2.7V | 07:15:20 | 03:36:59 | 00:00:00 | |
| BIOWL1-15 | 2026-09-01 01:54:36 | 51.18344 | 9.18151 | 104° | 58km/h | 4153m | -2.5m/s | -6.3°C | 38.7% | 614.5hPa | 2.7V | 07:15:34 | 03:37:00 | 00:00:00 | |
| SONCRA | 2026-09-01 01:54:35 | 51.18341 | 9.18174 | 104° | 57km/h | 4151m | -2.1m/s | -6.3°C | 33.5% | 614.8hPa | 2.6V | 00:00:00 | 00:00:00 | 00:00:00 | |
| DM0DOS-11 | 2026-09-01 01:54:33 | 51.18361 | 9.18007 | 95° | 62km/h | 4168m | -2.5m/s | -6.3°C | 31.5% | 613.5hPa | 2.6V | 07:15:25 | 03:36:54 | 00:00:00 | |
| HSKMA3-T | 2026-09-01 01:54:30 | 51.18356 | 9.18056 | 99° | 62km/h | 4163m | -2.5m/s | -6.3°C | 35.3% | 613.7hPa | 2.7V | 07:15:34 | 03:36:56 | 00:00:00 | |
| DL1ZP-14 | 2026-09-01 01:54:29 | 51.18360 | 9.18007 | 95° | 60km/h | 4168m | -2.5m/s | -6.3°C | 30.8% | 613.5hPa | 2.6V | 00:00:00 | 00:00:00 | 00:00:00 | |
| DM0DOS-11 | 2026-09-01 01:54:28 | 51.18361 | 9.17890 | 87° | 53km/h | 4179m | -2.4m/s | -6.3°C | 33% | 612.6hPa | 2.7V | 07:15:30 | 03:36:49 | 00:00:00 | |
| DL1NUX | 2026-09-01 01:54:27 | 51.18361 | 9.17869 | 88° | 49km/h | 4182m | -2.4m/s | -6.4°C | 33.1% | 612.4hPa | 2.6V | 07:15:31 | 03:36:48 | 00:00:00 | |
| BIOWL1-15 | 2026-09-01 01:54:25 | 51.18361 | 9.17890 | 88° | 53km/h | 4179m | -2.4m/s | -6.3°C | 36.7% | 612.6hPa | 2.7V | 07:15:34 | 03:36:49 | 00:00:00 | |
| DB0DAN | 2026-09-01 01:54:25 | 51.18362 | 9.17934 | 89° | 55km/h | 4175m | -2.3m/s | -6.3°C | 31.9% | 612.85hPa | 2.7V | 00:00:00 | 00:00:00 | 00:00:00 | |
| HSKMA3-T | 2026-09-01 01:54:19 | 51.18362 | 9.17813 | 97° | 46km/h | 4188m | -2.2m/s | -6.4°C | 37.1% | 611.9hPa | 2.7V | 07:15:34 | 03:36:45 | 00:00:00 | |
| DM0DOS-11 | 2026-09-01 01:54:18 | 51.18364 | 9.17795 | 100° | 46km/h | 4190m | -2.4m/s | -6.4°C | 33.8% | 611.6hPa | 2.7V | 07:15:35 | 03:36:44 | 00:00:00 | |
| DM0DOS-11 | 2026-09-01 01:54:18 | 51.18380 | 9.17701 | 107° | 51km/h | 4202m | -2.5m/s | -6.4°C | 34.4% | 610.7hPa | 2.7V | 07:15:40 | 03:36:39 | 00:00:00 | |
| BIOWL1-15 | 2026-09-01 01:54:15 | 51.18380 | 9.17701 | 108° | 51km/h | 4202m | -2.5m/s | -6.5°C | 38.6% | 610.7hPa | 2.7V | 07:16:25 | 03:36:39 | 00:00:00 | |
| BIOWL9-15 | 2026-09-01 01:54:15 | 51.18376 | 9.17720 | 107° | 49km/h | 4200m | -2.5m/s | -6.4°C | 33.4% | 610.9hPa | 2.7V | 00:00:00 | 00:00:00 | 00:00:00 | |
| DB0ND-19 | 2026-09-01 01:54:13 | 51.18380 | 9.17701 | 107° | 51km/h | 4202m | -2.5m/s | -6.5°C | 33.6% | 610.7hPa | 2.7V | 00:00:00 | 00:00:00 | 00:00:00 | |
| DB0DAN | 2026-09-01 01:54:10 | 51.18392 | 9.17639 | 107° | 55km/h | 4210m | -2.5m/s | -6.5°C | 32.6% | 610.21hPa | 2.7V | 00:00:00 | 00:00:00 | 00:00:00 | |
| HSKMA3-T | 2026-09-01 01:54:08 | 51.18401 | 9.17594 | 105° | 60km/h | 4215m | -2.4m/s | -6.5°C | 37.5% | 609.8hPa | 2.6V | 07:16:25 | 03:36:34 | 00:00:00 | |
| DL1NUX | 2026-09-01 01:54:06 | 51.18408 | 9.17546 | 101° | 62km/h | 4219m | -2.4m/s | -6.5°C | 32.3% | 609.4hPa | 2.7V | 07:15:47 | 03:36:32 | 00:00:00 | |
| DL1NUX | 2026-09-01 01:54:06 | 51.18416 | 9.17422 | 90° | 57km/h | 4231m | -2.2m/s | -6.5°C | 31.1% | 608.6hPa | 2.7V | 07:15:52 | 03:36:27 | 00:00:00 | |
| SONCRA | 2026-09-01 01:54:04 | 51.18413 | 9.17496 | 97° | 62km/h | 4224m | -2.4m/s | -6.5°C | 32.5% | 609.0hPa | 2.7V | 00:00:00 | 00:00:00 | 00:00:00 | |
| DM0DOS-11 | 2026-09-01 01:54:03 | 51.18416 | 9.17359 | 91° | 47km/h | 4238m | -2.2m/s | -6.6°C | 30% | 608hPa | 2.7V | 07:15:55 | 03:36:24 | 00:00:00 | |
| BIOWL1-15 | 2026-09-01 01:54:03 | 51.18414 | 9.17471 | 95° | 62km/h | 4227m | -2.4m/s | -6.5°C | 37.3% | 608.9hPa | 2.6V | 07:16:25 | 03:36:29 | 00:00:00 | |
| DD1CC3-15 | 2026-09-01 01:54:02 | 51.18414 | 9.17471 | 96° | 62km/h | 4227m | -2.4m/s | -6.5°C | 32.5% | 608.8hPa | 2.6V | 07:16:00 | 00:00:00 | 00:00:00 | |
| DL1NUX | 2026-09-01 01:54:01 | 51.18417 | 9.17322 | 96° | 46km/h | 4243m | -2.5m/s | -6.6°C | 30% | 607.6hPa | 2.6V | 07:15:57 | 03:36:22 | 00:00:00 | |
| HSKMA3-T | 2026-09-01 01:53:58 | 51.18416 | 9.17359 | 91° | 47km/h | 4238m | -2.3m/s | -6.6°C | 33.6% | 608hPa | 2.7V | 07:16:25 | 03:36:24 | 00:00:00 | |
| DL1ZP-14 | 2026-09-01 01:53:58 | 51.18416 | 9.17340 | 93° | 46km/h | 4240m | -2.4m/s | -6.6°C | 29.2% | 607.8hPa | 2.7V | 00:00:00 | 00:00:00 | 00:00:00 | |
| DB0UT-7 | 2026-09-01 01:53:57 | 51.18416 | 9.17340 | 94° | 51km/h | 4240m | -2.3m/s | -6.5°C | 29.9% | 607.7hPa | 2.7V | 00:00:00 | 00:00:00 | 00:00:00 | |
| DL1NUX | 2026-09-01 01:53:56 | 51.18431 | 9.17231 | 108° | 49km/h | 4255m | -2.5m/s | -6.7°C | 30.4% | 606.6hPa | 2.7V | 07:16:02 | 03:36:17 | 00:00:00 | |
| DB0DAN | 2026-09-01 01:53:55 | 51.18419 | 9.17304 | 100° | 44km/h | 4245m | -2.4m/s | -6.6°C | 29.5% | 607.42hPa | 2.6V | 00:00:00 | 00:00:00 | 00:00:00 | |
| DM0DOS-11 | 2026-09-01 01:53:53 | 51.18444 | 9.17171 | 108° | 55km/h | 4262m | -2.4m/s | -6.8°C | 30.8% | 606.2hPa | 2.7V | 07:16:05 | 03:36:14 | 00:00:00 | |
| BIOWL1-15 | 2026-09-01 01:53:52 | 51.18427 | 9.17250 | 107° | 47km/h | 4253m | -2.5m/s | -6.7°C | 34.2% | 606.9hPa | 2.7V | 07:16:25 | 03:36:18 | 00:00:00 | |
| DL1NUX | 2026-09-01 01:53:51 | 51.18453 | 9.17127 | 106° | 60km/h | 4267m | -2.2m/s | -6.8°C | 31.4% | 605.9hPa | 2.7V | 07:16:07 | 03:36:12 | 00:00:00 | |
| HSKMA3-T | 2026-09-01 01:53:47 | 51.18449 | 9.17150 | 109° | 57km/h | 4265m | -2.4m/s | -6.8°C | 34.6% | 606hPa | 2.7V | 07:16:25 | 03:36:13 | 00:00:00 | |
| DL1NUX | 2026-09-01 01:53:46 | 51.18467 | 9.17006 | 93° | 60km/h | 4278m | -2m/s | -6.9°C | 33.1% | 605hPa | 2.7V | 07:16:12 | 03:36:07 | 00:00:00 | |
| DM0DOS-11 | 2026-09-01 01:53:45 | 51.18468 | 9.16982 | 91° | 57km/h | 4280m | -2.2m/s | -6.9°C | 33.1% | 604.8hPa | 2.7V | 07:16:13 | 03:36:06 | 00:00:00 | |
| BIOWL1-15 | 2026-09-01 01:53:41 | 51.18467 | 9.17006 | 94° | 60km/h | 4278m | -2m/s | -6.9°C | 36.7% | 605hPa | 2.7V | 07:16:25 | 03:36:07 | 00:00:00 | |
| DB0DAN | 2026-09-01 01:53:40 | 51.18468 | 9.16982 | 92° | 55km/h | 4280m | -2.2m/s | -6.9°C | 32.3% | 604.77hPa | 2.7V | 00:00:00 | 00:00:00 | 00:00:00 | |
| DM0DOS-11 | 2026-09-01 01:53:40 | 51.18472 | 9.16881 | 98° | 46km/h | 4291m | -2.1m/s | -6.9°C | 31% | 604hPa | 2.7V | 07:16:18 | 03:36:01 | 00:00:00 | |
| HSKMA3-T | 2026-09-01 01:53:37 | 51.18469 | 9.16919 | 93° | 49km/h | 4287m | -2.3m/s | -7°C | 36.5% | 604.2hPa | 2.6V | 07:16:25 | 03:36:03 | 00:00:00 | |
| DL1NUX | 2026-09-01 01:53:36 | 51.18483 | 9.16808 | 108° | 47km/h | 4300m | -2.5m/s | -6.9°C | 30.8% | 603.2hPa | 2.7V | 07:16:22 | 03:35:57 | 00:00:00 | |
| DM0DOS-11 | 2026-09-01 01:53:35 | 51.18487 | 9.16790 | 109° | 49km/h | 4303m | -2.4m/s | -6.9°C | 30.7% | 602.9hPa | 2.6V | 07:16:23 | 03:35:56 | 00:00:00 | |
| BIOWL1-15 | 2026-09-01 01:53:33 | 51.18483 | 9.16808 | 109° | 47km/h | 4301m | -2.5m/s | -6.9°C | 34.8% | 603.2hPa | 2.7V | 07:16:25 | 03:35:57 | 00:00:00 | |
| DL0LBS | 2026-09-01 01:53:29 | 51.18487 | 9.16790 | 110° | 49km/h | 4303m | -2.4m/s | -6.9°C | 30.0% | 602.9hPa | 2.7V | 00:00:00 | 00:00:00 | 00:00:00 | |
| DL3OBA | 2026-09-01 01:53:28 | 51.18491 | 9.16771 | 111° | 49km/h | 4306m | -2.5m/s | -7.0°C | 29.7% | 602.8hPa | 2.7V | 00:00:00 | 00:00:00 | 00:00:00 | |
| DL1NUX | 2026-09-01 01:53:26 | 51.18505 | 9.16712 | 110° | 55km/h | 4313m | -2.3m/s | -7°C | 29.5% | 602.3hPa | 2.7V | 07:16:27 | 03:35:52 | 00:00:00 | |
| HSKMA3-T | 2026-09-01 01:53:26 | 51.18506 | 9.16712 | 111° | 55km/h | 4313m | -2.3m/s | -7°C | 33.2% | 602.3hPa | 2.7V | 07:17:16 | 03:35:52 | 00:00:00 | |
| DM0DOS-11 | 2026-09-01 01:53:25 | 51.18510 | 9.16691 | 109° | 57km/h | 4315m | -2.1m/s | -7°C | 29% | 602.1hPa | 2.7V | 07:16:28 | 03:35:51 | 00:00:00 | |
| DM0DOS-11 | 2026-09-01 01:53:25 | 51.18532 | 9.16572 | 101° | 64km/h | 4326m | -2.3m/s | -7°C | 28.1% | 601.1hPa | 2.7V | 07:16:33 | 03:35:46 | 00:00:00 | |
| DF7PN | 2026-09-01 01:53:24 | 51.18515 | 9.16669 | 108° | 58km/h | 4317m | -2.2m/s | -7.0°C | 27.6% | 601.9hPa | 2.7V | 00:00:00 | 00:00:00 | 00:00:00 | |
| DL1NUX | 2026-09-01 01:53:21 | 51.18542 | 9.16472 | 96° | 62km/h | 4335m | -2.7m/s | -7°C | 27.5% | 600.5hPa | 2.7V | 07:16:37 | 03:35:42 | 00:00:00 | |
| BIOWL1-15 | 2026-09-01 01:53:20 | 51.18532 | 9.16572 | 102° | 64km/h | 4326m | -2.3m/s | -7°C | 31.1% | 601.1hPa | 2.7V | 07:17:16 | 03:35:46 | 00:00:00 | |
| HSKMA3-T | 2026-09-01 01:53:16 | 51.18542 | 9.16472 | 96° | 62km/h | 4335m | -2.7m/s | -7°C | 30.7% | 600.5hPa | 2.7V | 07:17:16 | 03:35:42 | 00:00:00 | |
| BIOWL1-15 | 2026-09-01 01:53:09 | 51.18549 | 9.16267 | 94° | 47km/h | 4359m | -2.3m/s | -7°C | 28.8% | 598.5hPa | 2.7V | 07:17:16 | 03:35:33 | 00:00:00 | |
| HSKMA3-T | 2026-09-01 01:53:05 | 51.18552 | 9.16229 | 100° | 46km/h | 4364m | -2.4m/s | -7°C | 27.6% | 598.2hPa | 2.6V | 07:17:16 | 03:35:31 | 00:00:00 | |
| BIOWL1-15 | 2026-09-01 01:53:03 | 51.18576 | 9.16109 | 108° | 60km/h | 4378m | -2.6m/s | -7°C | 27.8% | 597.2hPa | 2.6V | 07:17:16 | 03:35:25 | 00:00:00 | |
| SONCRA | 2026-09-01 01:53:02 | 51.18566 | 9.16153 | 110° | 55km/h | 4373m | -2.3m/s | -7.0°C | 23.4% | 597.6hPa | 2.7V | 00:00:00 | 00:00:00 | 00:00:00 | |
| DM0DOS-11 | 2026-09-01 01:53:00 | 51.18592 | 9.16011 | 101° | 64km/h | 4388m | -2.4m/s | -7.1°C | 24.8% | 596.5hPa | 2.7V | 07:16:58 | 03:35:21 | 00:00:00 | |
| DL1ZP-14 | 2026-09-01 01:52:56 | 51.18592 | 9.16011 | 101° | 64km/h | 4388m | -2.4m/s | -7.1°C | 24.2% | 596.5hPa | 2.7V | 00:00:00 | 00:00:00 | 00:00:00 | |
| DM0DOS-11 | 2026-09-01 01:52:55 | 51.18600 | 9.15887 | 90° | 58km/h | 4401m | -2.8m/s | -7.1°C | 24.2% | 595.5hPa | 2.7V | 07:17:03 | 03:35:16 | 00:00:00 | |
| HSKMA3-T | 2026-09-01 01:52:54 | 51.18595 | 9.15986 | 99° | 64km/h | 4391m | -2.6m/s | -7.1°C | 27.8% | 596.2hPa | 2.7V | 07:17:16 | 03:35:20 | 00:00:00 | |
| BIOWL1-15 | 2026-09-01 01:52:49 | 51.18600 | 9.15864 | 90° | 57km/h | 4403m | -2.6m/s | -7.1°C | 28% | 595.3hPa | 2.7V | 07:17:16 | 03:35:15 | 00:00:00 | |
| DM0DOS-11 | 2026-09-01 01:52:48 | 51.18601 | 9.15781 | 92° | 47km/h | 4414m | -2.5m/s | -7.2°C | 24.5% | 594.5hPa | 2.6V | 07:17:08 | 03:35:11 | 00:00:00 | |
| HSKMA3-T | 2026-09-01 01:52:44 | 51.18602 | 9.15762 | 96° | 46km/h | 4416m | -2.4m/s | -7.2°C | 27.9% | 594.3hPa | 2.7V | 07:17:16 | 03:35:10 | 00:00:00 | |
| NBG1-10 | 2026-09-01 01:52:42 | 51.18605 | 9.15726 | 103° | 57km/h | 4421m | -2.2m/s | -7.2°C | 24.5% | 594.0hPa | 2.7V | 00:00:00 | 03:35:08 | 00:00:00 | |
| DM0DOS-11 | 2026-09-01 01:52:40 | 51.18612 | 9.15688 | 106° | 51km/h | 4425m | -2.2m/s | -7.3°C | 24.6% | 593.6hPa | 2.6V | 07:17:13 | 03:35:06 | 00:00:00 | |
| DM0DOS-11 | 2026-09-01 01:52:40 | 51.18632 | 9.15575 | 103° | 62km/h | 4438m | -2.9m/s | -7.5°C | 24.8% | 592.6hPa | 2.7V | 07:17:18 | 03:35:01 | 00:00:00 | |
| BIOWL1-15 | 2026-09-01 01:52:40 | 51.18620 | 9.15646 | 106° | 58km/h | 4430m | -2.6m/s | -7.4°C | 27.9% | 593.3hPa | 2.7V | 07:17:16 | 03:35:04 | 00:00:00 | |
| DO9LL-15 | 2026-09-01 01:52:39 | 51.18616 | 9.15667 | 107° | 58km/h | 4428m | -2.4m/s | -7.3°C | 24.6% | 593.4hPa | 2.7V | 00:00:00 | 03:35:05 | 00:00:00 | |
| DM0DOS-11 | 2026-09-01 01:52:35 | 51.18645 | 9.15450 | 96° | 64km/h | 4451m | -2.6m/s | -7.6°C | 25% | 591.6hPa | 2.7V | 07:17:23 | 03:34:56 | 00:00:00 | |
| HSKMA3-T | 2026-09-01 01:52:33 | 51.18638 | 9.15526 | 101° | 64km/h | 4443m | -2.6m/s | -7.5°C | 28.4% | 592.2hPa | 2.6V | 07:18:07 | 03:34:59 | 00:00:00 | |
| SONCRA | 2026-09-01 01:52:31 | 51.18646 | 9.15450 | 96° | 64km/h | 4451m | -2.6m/s | -7.6°C | 24.3% | 591.6hPa | 2.7V | 00:00:00 | 00:00:00 | 00:00:00 | |
| DM0DOS-11 | 2026-09-01 01:52:30 | 51.18647 | 9.15327 | 87° | 57km/h | 4465m | -2.8m/s | -7.7°C | 25.4% | 590.5hPa | 2.7V | 07:17:28 | 03:34:51 | 00:00:00 | |
| BIOWL1-15 | 2026-09-01 01:52:28 | 51.18648 | 9.15399 | 92° | 62km/h | 4457m | -2.9m/s | -7.6°C | 29.2% | 591.1hPa | 2.7V | 07:18:07 | 03:34:54 | 00:00:00 | |
| DB0UT-7 | 2026-09-01 01:52:27 | 51.18648 | 9.15374 | 90° | 55km/h | 4460m | -2.7m/s | -7.6°C | 25.4% | 590.9hPa | 2.7V | 07:17:00 | 03:34:53 | 00:00:00 | |
| DL3OBA | 2026-09-01 01:52:26 | 51.18648 | 9.15374 | 91° | 60km/h | 4460m | -2.7m/s | -7.7°C | 24.8% | 591.0hPa | 2.7V | 07:18:00 | 00:00:00 | 00:00:00 | |
| DB0DAN | 2026-09-01 01:52:25 | 51.18647 | 9.15327 | 88° | 53km/h | 4465m | -2.8m/s | -7.7°C | 24.7% | 590.52hPa | 2.7V | 00:00:00 | 00:00:00 | 00:00:00 | |
| DL1NUX | 2026-09-01 01:52:25 | 51.18647 | 9.15227 | 95° | 46km/h | 4479m | -2.6m/s | -7.8°C | 26.1% | 589.5hPa | 2.6V | 07:17:33 | 03:34:46 | 00:00:00 | |
| HSKMA3-T | 2026-09-01 01:52:23 | 51.18646 | 9.15284 | 88° | 51km/h | 4471m | -2.7m/s | -7.8°C | 29.1% | 590hPa | 2.7V | 07:18:07 | 03:34:49 | 00:00:00 | |
| BIOWL1-15 | 2026-09-01 01:52:20 | 51.18650 | 9.15191 | 102° | 47km/h | 4484m | -2.6m/s | -7.8°C | 27.4% | 589.2hPa | 2.7V | 07:18:07 | 03:34:44 | 00:00:00 | |
| SO1NDE-10 | 2026-09-01 01:52:20 | 51.18647 | 9.15227 | 96° | 55km/h | 4479m | -2.5m/s | -7.8°C | 26.1% | 589.4hPa | 2.6V | 00:00:00 | 03:34:46 | 00:00:00 | |
| DD1CC3-15 | 2026-09-01 01:52:19 | 51.18647 | 9.15227 | 96° | 46km/h | 4479m | -2.6m/s | -7.8°C | 25.4% | 589.5hPa | 2.6V | 07:18:00 | 00:00:00 | 00:00:00 | |
| DM0DOS-11 | 2026-09-01 01:52:15 | 51.18660 | 9.15131 | 105° | 57km/h | 4492m | -2.7m/s | -7.9°C | 26.3% | 588.5hPa | 2.6V | 07:17:38 | 03:34:41 | 00:00:00 | |
| DM0DOS-11 | 2026-09-01 01:52:15 | 51.18675 | 9.15010 | 96° | 64km/h | 4506m | -2.7m/s | -8°C | 26.8% | 587.5hPa | 2.7V | 07:17:43 | 03:34:36 | 00:00:00 | |
| DB0NH | 2026-09-01 01:52:15 | 51.18660 | 9.15130 | 106° | 55km/h | 4492m | -2.6m/s | -7.8°C | 26.3% | 588.4hPa | 2.7V | 00:00:00 | 03:34:41 | 00:00:00 | |
| DL8OAI-8 | 2026-09-01 01:52:14 | 51.18660 | 9.15130 | 106° | 57km/h | 4492m | -2.7m/s | -7.9°C | 25.6% | 588.5hPa | 2.7V | 07:18:00 | 00:00:00 | 00:00:00 | |
| DL1NUX | 2026-09-01 01:52:13 | 51.18668 | 9.15085 | 102° | 60km/h | 4497m | -2.7m/s | -8°C | 26.8% | 588.1hPa | 2.7V | 07:17:40 | 03:34:39 | 00:00:00 | |
| DL1NUX | 2026-09-01 01:52:13 | 51.18678 | 9.14959 | 91° | 62km/h | 4511m | -2.8m/s | -8°C | 26.7% | 587.1hPa | 2.6V | 07:17:45 | 03:34:34 | 00:00:00 | |
| HSKMA3-T | 2026-09-01 01:52:13 | 51.18667 | 9.15085 | 103° | 62km/h | 4497m | -2.7m/s | -8°C | 30.3% | 588.1hPa | 2.7V | 07:18:07 | 03:34:39 | 00:00:00 | |
| DB0DAN | 2026-09-01 01:52:10 | 51.18675 | 9.15010 | 96° | 60km/h | 4506m | -2.7m/s | -8°C | 26.1% | 587.51hPa | 2.7V | 00:00:00 | 00:00:00 | 00:00:00 | |
| BIOWL9-15 | 2026-09-01 01:52:10 | 51.18677 | 9.14984 | 93° | 62km/h | 4508m | -2.7m/s | -8.0°C | 26.2% | 587.3hPa | 2.6V | 00:00:00 | 00:00:00 | 00:00:00 | |
| DO9LL-15 | 2026-09-01 01:52:09 | 51.18677 | 9.14984 | 94° | 55km/h | 4509m | -2.7m/s | -8.0°C | 26.9% | 587.3hPa | 2.6V | 00:00:00 | 03:34:35 | 00:00:00 | |
| DL1NUX | 2026-09-01 01:52:08 | 51.18674 | 9.14843 | 85° | 51km/h | 4525m | -2.8m/s | -8.1°C | 25.9% | 586hPa | 2.6V | 07:17:50 | 03:34:29 | 00:00:00 | |
| BIOWL1-15 | 2026-09-01 01:52:07 | 51.18677 | 9.14934 | 89° | 62km/h | 4514m | -2.7m/s | -8°C | 29.5% | 586.9hPa | 2.7V | 07:18:07 | 03:34:33 | 00:00:00 | |
| DL3OBA | 2026-09-01 01:52:06 | 51.18677 | 9.14934 | 90° | 62km/h | 4514m | -2.7m/s | -8.0°C | 25.3% | 586.9hPa | 2.7V | 07:18:00 | 00:00:00 | 00:00:00 | |
| DL1NUX | 2026-09-01 01:52:03 | 51.18674 | 9.14747 | 94° | 46km/h | 4539m | -3m/s | -8.2°C | 25.2% | 585hPa | 2.7V | 07:17:55 | 03:34:24 | 00:00:00 | |
| HSKMA3-T | 2026-09-01 01:52:02 | 51.18673 | 9.14823 | 87° | 49km/h | 4528m | -2.8m/s | -8.1°C | 29.1% | 585.8hPa | 2.6V | 07:18:07 | 03:34:28 | 00:00:00 | |
| DM0DOS-11 | 2026-09-01 01:52:00 | 51.18673 | 9.14784 | 91° | 47km/h | 4533m | -2.8m/s | -8.2°C | 25.6% | 585.3hPa | 2.7V | 07:17:53 | 03:34:26 | 00:00:00 | |
| DM0DOS-11 | 2026-09-01 01:52:00 | 51.18678 | 9.14692 | 100° | 47km/h | 4547m | -2.8m/s | -8.2°C | 24.9% | 584.2hPa | 2.7V | 07:17:58 | 03:34:21 | 00:00:00 | |
| SONCRA | 2026-09-01 01:52:00 | 51.18673 | 9.14765 | 93° | 46km/h | 4536m | -2.8m/s | -8.2°C | 24.8% | 585.2hPa | 2.7V | 00:00:00 | 00:00:00 | 00:00:00 | |
| DD1CC3-15 | 2026-09-01 01:51:59 | 51.18673 | 9.14784 | 92° | 47km/h | 4533m | -2.8m/s | -8.2°C | 24.9% | 585.3hPa | 2.7V | 07:18:00 | 00:00:00 | 00:00:00 | |
| DL1NUX | 2026-09-01 01:51:58 | 51.18683 | 9.14653 | 103° | 49km/h | 4553m | -2.8m/s | -8.3°C | 24.9% | 583.9hPa | 2.7V | 07:18:00 | 03:34:19 | 00:00:00 | |
| BIOWL1-15 | 2026-09-01 01:51:56 | 51.18677 | 9.14710 | 98° | 46km/h | 4545m | -2.9m/s | -8.2°C | 28.3% | 584.5hPa | 2.6V | 07:18:07 | 03:34:22 | 00:00:00 | |
| DB0DAN | 2026-09-01 01:51:55 | 51.18678 | 9.14692 | 100° | 44km/h | 4547m | -2.8m/s | -8.2°C | 24.2% | 584.2hPa | 2.7V | 00:00:00 | 00:00:00 | 00:00:00 | |
| DM0DOS-11 | 2026-09-01 01:51:55 | 51.18693 | 9.14590 | 103° | 57km/h | 4561m | -3.2m/s | -8.3°C | 24.2% | 583.2hPa | 2.6V | 07:18:03 | 03:34:16 | 00:00:00 | |
| HSKMA3-T | 2026-09-01 01:51:51 | 51.18690 | 9.14612 | 104° | 55km/h | 4558m | -2.7m/s | -8.3°C | 27.9% | 583.6hPa | 2.6V | 07:18:07 | 03:34:17 | 00:00:00 | |
| DM0DOS-11 | 2026-09-01 01:51:50 | 51.18708 | 9.14469 | 95° | 64km/h | 4576m | -2.8m/s | -8.3°C | 23.3% | 582.1hPa | 2.6V | 07:18:08 | 03:34:11 | 00:00:00 | |
| DO2JMG | 2026-09-01 01:51:49 | 51.18697 | 9.14567 | 103° | 58km/h | 4564m | -3.1m/s | 0°C | 0% | 583.1hPa | 2.7V | 07:18:07 | 03:34:15 | 00:00:00 | |
| SO1NDE-10 | 2026-09-01 01:51:49 | 51.18697 | 9.14567 | 104° | 57km/h | 4564m | -3.0m/s | -8.3°C | 24.0% | 583.0hPa | 2.7V | 00:00:00 | 03:34:15 | 00:00:00 | |
| DL1NUX | 2026-09-01 01:51:48 | 51.18709 | 9.14418 | 90° | 64km/h | 4582m | -3.1m/s | -8.3°C | 22.7% | 581.7hPa | 2.7V | 07:18:10 | 03:34:09 | 00:00:00 | |
| BIOWL1-15 | 2026-09-01 01:51:46 | 51.18706 | 9.14495 | 98° | 64km/h | 4573m | -2.9m/s | -8.3°C | 26.9% | 582.4hPa | 2.7V | 07:18:07 | 03:34:12 | 00:00:00 | |
| DM0DOS-11 | 2026-09-01 01:51:45 | 51.18707 | 9.14345 | 85° | 58km/h | 4591m | -2.9m/s | -8.4°C | 23% | 581.1hPa | 2.7V | 07:18:13 | 03:34:06 | 00:00:00 | |
| DD1CC8 | 2026-09-01 01:51:44 | 51.18709 | 9.14444 | 93° | 64km/h | 4579m | -2.9m/s | -8.3°C | 22.2% | 581.9hPa | 2.7V | 00:00:00 | 00:00:00 | 00:00:00 | |
| DB0DAN | 2026-09-01 01:51:40 | 51.18707 | 9.14345 | 85° | 55km/h | 4591m | -2.9m/s | -8.4°C | 22.4% | 581.07hPa | 2.7V | 00:00:00 | 00:00:00 | 00:00:00 | |
| HSKMA3-T | 2026-09-01 01:51:40 | 51.18707 | 9.14345 | 85° | 58km/h | 4591m | -2.9m/s | -8.4°C | 26.3% | 581.1hPa | 2.7V | 07:18:58 | 03:34:06 | 00:00:00 | |
| DO2JMG | 2026-09-01 01:51:38 | 51.18705 | 9.14300 | 84° | 53km/h | 4596m | -3.2m/s | 0°C | 0% | 580.6hPa | 2.6V | 07:18:58 | 03:34:04 | 00:00:00 | |
| BIOWL1-15 | 2026-09-01 01:51:35 | 51.18703 | 9.14187 | 97° | 46km/h | 4615m | -3.3m/s | -8.6°C | 27% | 579.2hPa | 2.6V | 07:18:58 | 03:33:58 | 00:00:00 | |
| DM0DOS-11 | 2026-09-01 01:51:35 | 51.18707 | 9.14150 | 102° | 47km/h | 4621m | -3m/s | -8.7°C | 23.4% | 578.8hPa | 2.7V | 07:18:23 | 03:33:56 | 00:00:00 | |
| DL1NUX | 2026-09-01 01:51:33 | 51.18713 | 9.14110 | 103° | 53km/h | 4627m | -3m/s | -8.7°C | 23.6% | 578.3hPa | 2.7V | 07:18:25 | 03:33:54 | 00:00:00 | |
| HSKMA3-T | 2026-09-01 01:51:30 | 51.18707 | 9.14150 | 102° | 47km/h | 4621m | -3m/s | -8.7°C | 26.9% | 578.8hPa | 2.7V | 07:18:58 | 03:33:56 | 00:00:00 | |
| DO2JMG | 2026-09-01 01:51:28 | 51.18713 | 9.14110 | 104° | 53km/h | 4627m | -3m/s | 0°C | 0% | 0hPa | 2.7V | 07:18:58 | 03:33:54 | 00:00:00 | |
| DB0UT-7 | 2026-09-01 01:51:27 | 51.18716 | 9.14089 | 104° | 57km/h | 4630m | -2.9m/s | -8.7°C | 23.8% | 578.1hPa | 2.6V | 00:00:00 | 03:33:53 | 00:00:00 | |
| DL3OBA | 2026-09-01 01:51:26 | 51.18716 | 9.14088 | 104° | 57km/h | 4630m | -2.9m/s | -8.8°C | 23.1% | 578.1hPa | 2.7V | 07:18:00 | 00:00:00 | 00:00:00 | |
| DB0DAN | 2026-09-01 01:51:25 | 51.18722 | 9.14042 | 100° | 58km/h | 4636m | -3m/s | -8.8°C | 23.2% | 577.68hPa | 2.7V | 00:00:00 | 00:00:00 | 00:00:00 | |
| DL1NUX | 2026-09-01 01:51:23 | 51.18726 | 9.13992 | 93° | 64km/h | 4642m | -2.9m/s | -8.9°C | 23.8% | 577.3hPa | 2.7V | 07:18:30 | 03:33:49 | 00:00:00 | |
| DL1NUX | 2026-09-01 01:51:23 | 51.18724 | 9.13868 | 84° | 57km/h | 4658m | -3.1m/s | -9°C | 22.7% | 576.2hPa | 2.7V | 07:18:35 | 03:33:44 | 00:00:00 | |
| BIOWL1-15 | 2026-09-01 01:51:22 | 51.18727 | 9.13966 | 91° | 64km/h | 4645m | -3.2m/s | -8.9°C | 27.3% | 577hPa | 2.7V | 07:18:58 | 03:33:48 | 00:00:00 | |
| DM0DOS-11 | 2026-09-01 01:51:20 | 51.18726 | 9.13916 | 87° | 60km/h | 4651m | -3.1m/s | -8.9°C | 23.7% | 576.5hPa | 2.6V | 07:18:33 | 03:33:46 | 00:00:00 | |
| HSKMA3-T | 2026-09-01 01:51:19 | 51.18725 | 9.13892 | 86° | 60km/h | 4654m | -3.1m/s | -8.9°C | 26.6% | 576.4hPa | 2.7V | 07:18:58 | 03:33:45 | 00:00:00 | |
| DO2JMG | 2026-09-01 01:51:17 | 51.18723 | 9.13846 | 84° | 55km/h | 4661m | -3.1m/s | 0°C | 0% | 0hPa | 2.7V | 07:18:58 | 03:33:43 | 00:00:00 | |
| DM0DOS-11 | 2026-09-01 01:51:15 | 51.18718 | 9.13710 | 95° | 46km/h | 4682m | -3m/s | -9.2°C | 21.1% | 574.2hPa | 2.7V | 07:18:43 | 03:33:36 | 00:00:00 | |
| DB0NH | 2026-09-01 01:51:15 | 51.18720 | 9.13803 | 84° | 53km/h | 4667m | -2.9m/s | -9.0°C | 22.3% | 575.4hPa | 2.6V | 07:18:00 | 03:33:41 | 00:00:00 | |
| DL1NUX | 2026-09-01 01:51:13 | 51.18718 | 9.13764 | 86° | 46km/h | 4673m | -3m/s | -9.1°C | 21.4% | 574.9hPa | 2.7V | 07:18:40 | 03:33:39 | 00:00:00 | |
| DL1NUX | 2026-09-01 01:51:13 | 51.18722 | 9.13673 | 101° | 47km/h | 4688m | -3m/s | -9.2°C | 21.1% | 573.8hPa | 2.6V | 07:18:45 | 03:33:34 | 00:00:00 | |
| BIOWL1-15 | 2026-09-01 01:51:11 | 51.18718 | 9.13710 | 96° | 46km/h | 4682m | -3m/s | -9.2°C | 24.2% | 574.2hPa | 2.7V | 07:18:58 | 03:33:36 | 00:00:00 | |
| DB0DAN | 2026-09-01 01:51:10 | 51.18718 | 9.13710 | 96° | 42km/h | 4682m | -3m/s | -9.2°C | 20.5% | 574.22hPa | 2.7V | 00:00:00 | 00:00:00 | 00:00:00 | |
| HSKMA3-T | 2026-09-01 01:51:09 | 51.18720 | 9.13692 | 100° | 46km/h | 4685m | -3m/s | -9.2°C | 24.2% | 574.1hPa | 2.6V | 07:18:58 | 03:33:35 | 00:00:00 | |
| DO2JMG | 2026-09-01 01:51:06 | 51.18728 | 9.13633 | 104° | 53km/h | 4694m | -3.1m/s | 0°C | 0% | 0hPa | 2.7V | 07:18:58 | 03:33:32 | 00:00:00 | |
| DD8BA-10 | 2026-09-01 01:51:06 | 51.18728 | 9.13633 | 104° | 57km/h | 4694m | -3.0m/s | -9.2°C | 21.1% | 573.3hPa | 2.7V | 00:00:00 | 00:00:00 | 00:00:00 | |
| DM0DOS-11 | 2026-09-01 01:51:05 | 51.18742 | 9.13490 | 92° | 64km/h | 4713m | -3m/s | -9.4°C | 21% | 572.1hPa | 2.7V | 07:18:53 | 03:33:26 | 00:00:00 | |
| DL3OBA | 2026-09-01 01:51:04 | 51.18731 | 9.13611 | 104° | 57km/h | 4697m | -3.1m/s | -9.3°C | 20.5% | 573.1hPa | 2.6V | 07:18:00 | 00:00:00 | 00:00:00 | |
| DL1NUX | 2026-09-01 01:51:03 | 51.18737 | 9.13565 | 99° | 60km/h | 4703m | -3.1m/s | -9.3°C | 21.2% | 572.8hPa | 2.6V | 07:18:50 | 03:33:29 | 00:00:00 | |
| DL1NUX | 2026-09-01 01:51:03 | 51.18742 | 9.13439 | 88° | 62km/h | 4719m | -3.3m/s | -9.4°C | 21% | 571.6hPa | 2.7V | 07:18:55 | 03:33:24 | 00:00:00 | |
| BIOWL1-15 | 2026-09-01 01:51:00 | 51.18743 | 9.13464 | 90° | 62km/h | 4716m | -3.2m/s | -9.4°C | 24.2% | 571.7hPa | 2.7V | 07:18:58 | 03:33:25 | 00:00:00 | |
| DM0DOS-11 | 2026-09-01 01:51:00 | 51.18739 | 9.13369 | 84° | 55km/h | 4729m | -3.2m/s | -9.5°C | 21.1% | 570.8hPa | 2.7V | 07:18:58 | 03:33:21 | 00:00:00 | |
| HSKMA3-T | 2026-09-01 01:50:58 | 51.18742 | 9.13439 | 88° | 62km/h | 4719m | -3.3m/s | -9.5°C | 24.1% | 571.6hPa | 2.7V | 07:18:58 | 03:33:24 | 00:00:00 | |
| DB0UT-7 | 2026-09-01 01:50:57 | 51.18742 | 9.13415 | 87° | 53km/h | 4722m | -3.2m/s | -9.4°C | 21.0% | 571.2hPa | 2.6V | 00:00:00 | 00:00:00 | 00:00:00 | |
| DM0DOS-11 | 2026-09-01 01:50:55 | 51.18736 | 9.13270 | 91° | 46km/h | 4744m | -3.3m/s | -9.7°C | 21.2% | 569.7hPa | 2.6V | 07:19:03 | 03:33:16 | 00:00:00 | |
| DB0DAN | 2026-09-01 01:50:55 | 51.18739 | 9.13369 | 85° | 53km/h | 4729m | -3.2m/s | -9.5°C | 20.4% | 570.8hPa | 2.7V | 00:00:00 | 00:00:00 | 00:00:00 | |
| DO2JMG | 2026-09-01 01:50:55 | 51.18739 | 9.13369 | 85° | 55km/h | 4729m | -3.2m/s | 0°C | 0% | 0hPa | 2.7V | 07:18:58 | 03:33:21 | 00:00:00 | |
| DL1NUX | 2026-09-01 01:50:53 | 51.18737 | 9.13234 | 95° | 46km/h | 4751m | -3.3m/s | -9.7°C | 21.2% | 569.1hPa | 2.7V | 07:19:05 | 03:33:14 | 00:00:00 | |
| BIOWL1-15 | 2026-09-01 01:50:53 | 51.18737 | 9.13252 | 93° | 46km/h | 4748m | -3.1m/s | -9.7°C | 24.2% | 569.5hPa | 2.7V | 07:19:49 | 03:33:15 | 00:00:00 | |
| DL1ZP-14 | 2026-09-01 01:50:51 | 51.18736 | 9.13289 | 89° | 46km/h | 4741m | -3.2m/s | -9.6°C | 20.6% | 569.9hPa | 2.6V | 00:00:00 | 00:00:00 | 00:00:00 | |
| SO1NDE-10 | 2026-09-01 01:50:49 | 51.18736 | 9.13252 | 94° | 51km/h | 4748m | -3.1m/s | -9.6°C | 21.2% | 569.4hPa | 2.7V | 00:00:00 | 03:33:15 | 00:00:00 | |
| DM0DOS-11 | 2026-09-01 01:50:48 | 51.18743 | 9.13179 | 101° | 47km/h | 4760m | -3m/s | -9.8°C | 21.2% | 568.5hPa | 2.6V | 07:19:08 | 03:33:11 | 00:00:00 | |
| HSKMA3-T | 2026-09-01 01:50:48 | 51.18737 | 9.13234 | 96° | 46km/h | 4751m | -3.3m/s | -9.7°C | 24.3% | 569.1hPa | 2.7V | 07:19:49 | 03:33:14 | 00:00:00 | |
| DB0NH | 2026-09-01 01:50:45 | 51.18742 | 9.13179 | 102° | 51km/h | 4761m | -3.0m/s | -9.7°C | 21.2% | 568.4hPa | 2.7V | 00:00:00 | 03:33:11 | 00:00:00 | |
| BIOWL7-15 | 2026-09-01 01:50:44 | 51.18743 | 9.13179 | 102° | 47km/h | 4761m | -3.0m/s | -9.8°C | 20.5% | 568.5hPa | 2.7V | 07:19:00 | 00:00:00 | 00:00:00 | |
| DL1NUX | 2026-09-01 01:50:43 | 51.18748 | 9.13141 | 104° | 51km/h | 4767m | -3.3m/s | -9.8°C | 20.8% | 568hPa | 2.7V | 07:19:10 | 03:33:09 | 00:00:00 | |
| DL1NUX | 2026-09-01 01:50:43 | 51.18766 | 9.13034 | 102° | 60km/h | 4783m | -3.2m/s | -9.9°C | 20.3% | 566.7hPa | 2.6V | 07:19:15 | 03:33:04 | 00:00:00 | |
| DD8BA-10 | 2026-09-01 01:50:42 | 51.18751 | 9.13121 | 106° | 53km/h | 4770m | -3.4m/s | -9.8°C | 20.5% | 567.6hPa | 2.7V | 00:00:00 | 00:00:00 | 00:00:00 | |
| DM0DOS-11 | 2026-09-01 01:50:40 | 51.18759 | 9.13079 | 104° | 57km/h | 4777m | -3.1m/s | -9.8°C | 20.2% | 567.2hPa | 2.7V | 07:19:13 | 03:33:06 | 00:00:00 | |
| DM0DOS-11 | 2026-09-01 01:50:40 | 51.18773 | 9.12960 | 93° | 62km/h | 4793m | -3m/s | -10°C | 20.4% | 566hPa | 2.7V | 07:19:18 | 03:33:01 | 00:00:00 | |
| HSKMA3-T | 2026-09-01 01:50:37 | 51.18769 | 9.13010 | 100° | 62km/h | 4786m | -3.3m/s | -9.9°C | 23.3% | 566.5hPa | 2.7V | 07:19:49 | 03:33:03 | 00:00:00 | |
| BIOWL9-15 | 2026-09-01 01:50:37 | 51.18771 | 9.12985 | 96° | 62km/h | 4789m | -3.4m/s | -9.9°C | 19.7% | 566.2hPa | 2.7V | 00:00:00 | 00:00:00 | 00:00:00 | |
| DB0ND-19 | 2026-09-01 01:50:36 | 51.18771 | 9.12985 | 96° | 62km/h | 4789m | -3.4m/s | -9.9°C | 19.7% | 566.2hPa | 2.7V | 00:00:00 | 00:00:00 | 00:00:00 | |
| DM0DOS-11 | 2026-09-01 01:50:35 | 51.18772 | 9.12847 | 89° | 49km/h | 4808m | -3.3m/s | -10.1°C | 20.6% | 564.9hPa | 2.7V | 07:19:23 | 03:32:56 | 00:00:00 | |
| DL1NUX | 2026-09-01 01:50:33 | 51.18773 | 9.12911 | 88° | 58km/h | 4799m | -3.1m/s | -10°C | 20.4% | 565.6hPa | 2.6V | 07:19:20 | 03:32:59 | 00:00:00 | |
| DL1NUX | 2026-09-01 01:50:33 | 51.18772 | 9.12808 | 91° | 47km/h | 4815m | -3.2m/s | -10.2°C | 20.7% | 564.4hPa | 2.7V | 07:19:25 | 03:32:54 | 00:00:00 | |
| DM0DOS-11 | 2026-09-01 01:50:30 | 51.18774 | 9.12753 | 95° | 44km/h | 4825m | -3.5m/s | -10.2°C | 20.9% | 563.6hPa | 2.7V | 07:19:28 | 03:32:51 | 00:00:00 | |
| BIOWL1-15 | 2026-09-01 01:50:28 | 51.18772 | 9.12808 | 92° | 47km/h | 4815m | -3.2m/s | -10.2°C | 23.6% | 564.4hPa | 2.7V | 07:19:49 | 03:32:54 | 00:00:00 | |
| HSKMA3-T | 2026-09-01 01:50:26 | 51.18773 | 9.12771 | 94° | 46km/h | 4821m | -3.4m/s | -10.2°C | 23.9% | 563.9hPa | 2.6V | 07:19:49 | 03:32:52 | 00:00:00 | |
| DM0DOS-11 | 2026-09-01 01:50:25 | 51.18784 | 9.12664 | 103° | 46km/h | 4841m | -3.4m/s | -10.4°C | 21.1% | 562.4hPa | 2.7V | 07:19:33 | 03:32:46 | 00:00:00 | |
| DL1NUX | 2026-09-01 01:50:23 | 51.18790 | 9.12627 | 106° | 49km/h | 4848m | -3.4m/s | -10.4°C | 21.2% | 561.9hPa | 2.7V | 07:19:35 | 03:32:44 | 00:00:00 | |
| DM0DOS-11 | 2026-09-01 01:50:20 | 51.18801 | 9.12565 | 105° | 58km/h | 4858m | -3.3m/s | -10.5°C | 21.2% | 561.2hPa | 2.6V | 07:19:38 | 03:32:41 | 00:00:00 | |
| BIOWL1-15 | 2026-09-01 01:50:18 | 51.18790 | 9.12627 | 107° | 49km/h | 4848m | -3.4m/s | -10.5°C | 24.6% | 562hPa | 2.7V | 07:19:49 | 03:32:44 | 00:00:00 | |
| DD1CC3-15 | 2026-09-01 01:50:16 | 51.18793 | 9.12607 | 108° | 53km/h | 4852m | -3.5m/s | -10.5°C | 20.6% | 561.7hPa | 2.6V | 07:19:00 | 00:00:00 | 00:00:00 | |
| DM0DOS-11 | 2026-09-01 01:50:15 | 51.18814 | 9.12442 | 91° | 60km/h | 4875m | -3.1m/s | -10.7°C | 21.3% | 560.1hPa | 2.6V | 07:19:43 | 03:32:36 | 00:00:00 | |
| HSKMA3-T | 2026-09-01 01:50:15 | 51.18802 | 9.12565 | 106° | 58km/h | 4858m | -3.3m/s | -10.5°C | 24.4% | 561.2hPa | 2.6V | 07:19:49 | 03:32:41 | 00:00:00 | |
| DB0NH | 2026-09-01 01:50:15 | 51.18801 | 9.12565 | 106° | 55km/h | 4859m | -3.3m/s | -10.5°C | 21.2% | 561.2hPa | 2.6V | 00:00:00 | 03:32:41 | 00:00:00 | |
| DL8OAI-8 | 2026-09-01 01:50:10 | 51.18813 | 9.12467 | 95° | 62km/h | 4872m | -3.2m/s | -10.6°C | 20.6% | 560.4hPa | 2.6V | 07:19:00 | 00:00:00 | 00:00:00 | |
| DO9LL-15 | 2026-09-01 01:50:09 | 51.18814 | 9.12419 | 90° | 53km/h | 4878m | -3.2m/s | -10.6°C | 21.1% | 559.8hPa | 2.6V | 00:00:00 | 03:32:35 | 00:00:00 | |
| DM0DOS-11 | 2026-09-01 01:50:08 | 51.18814 | 9.12334 | 91° | 47km/h | 4891m | -3.2m/s | -10.8°C | 20.9% | 558.9hPa | 2.7V | 07:19:48 | 03:32:31 | 00:00:00 | |
| BIOWL1-15 | 2026-09-01 01:50:07 | 51.18814 | 9.12374 | 89° | 51km/h | 4884m | -3.1m/s | -10.7°C | 23.8% | 559.4hPa | 2.7V | 07:19:49 | 03:32:33 | 00:00:00 | |
| HSKMA3-T | 2026-09-01 01:50:05 | 51.18814 | 9.12334 | 91° | 47km/h | 4891m | -3.2m/s | -10.8°C | 24% | 558.9hPa | 2.7V | 07:19:49 | 03:32:31 | 00:00:00 | |
| DB0ND-19 | 2026-09-01 01:50:05 | 51.18814 | 9.12334 | 91° | 46km/h | 4891m | -3.2m/s | -10.8°C | 20.3% | 558.9hPa | 2.6V | 00:00:00 | 00:00:00 | 00:00:00 | |
| DL1NUX | 2026-09-01 01:50:04 | 51.18821 | 9.12225 | 102° | 46km/h | 4911m | -3.2m/s | -10.9°C | 21% | 557.4hPa | 2.6V | 07:19:54 | 03:32:25 | 00:00:00 | |
| DL3OBA | 2026-09-01 01:50:03 | 51.18814 | 9.12315 | 94° | 46km/h | 4894m | -3.3m/s | -10.8°C | 20.3% | 558.6hPa | 2.7V | 07:19:00 | 00:00:00 | 00:00:00 | |
| DM0DOS-11 | 2026-09-01 01:50:00 | 51.18834 | 9.12149 | 108° | 55km/h | 4924m | -3.3m/s | -11°C | 21% | 556.5hPa | 2.7V | 07:19:58 | 03:32:21 | 00:00:00 | |
| DL1NUX | 2026-09-01 01:49:59 | 51.18839 | 9.12127 | 107° | 58km/h | 4928m | -3.1m/s | -11.1°C | 21.1% | 556.1hPa | 2.7V | 07:19:59 | 03:32:20 | 00:00:00 | |
| BIOWL1-15 | 2026-09-01 01:49:57 | 51.18826 | 9.12189 | 107° | 49km/h | 4918m | -3.2m/s | -11°C | 24.1% | 557hPa | 2.7V | 07:20:40 | 03:32:23 | 00:00:00 | |
| WPPR-10 | 2026-09-01 01:49:57 | 51.18830 | 9.12170 | 108° | 51km/h | 4921m | -3.3m/s | -11.0°C | 20.3% | 556.8hPa | 2.7V | 00:00:00 | 00:00:00 | 00:00:00 | |
| DD1CC3-15 | 2026-09-01 01:49:56 | 51.18826 | 9.12189 | 108° | 49km/h | 4918m | -3.2m/s | -11.0°C | 20.3% | 557.0hPa | 2.7V | 07:20:00 | 00:00:00 | 00:00:00 | |
| DM0DOS-11 | 2026-09-01 01:49:55 | 51.18853 | 9.12031 | 98° | 64km/h | 4941m | -3.2m/s | -11.2°C | 21.2% | 555.3hPa | 2.7V | 07:20:03 | 03:32:16 | 00:00:00 | |
| HSKMA3-T | 2026-09-01 01:49:55 | 51.18834 | 9.12149 | 108° | 55km/h | 4924m | -3.3m/s | -11°C | 24.3% | 556.5hPa | 2.7V | 07:20:40 | 03:32:21 | 00:00:00 | |
| DM0DOS-11 | 2026-09-01 01:49:50 | 51.18858 | 9.11906 | 88° | 58km/h | 4957m | -3.2m/s | -11.4°C | 21.4% | 554.1hPa | 2.7V | 07:20:08 | 03:32:11 | 00:00:00 | |
| BIOWL1-15 | 2026-09-01 01:49:47 | 51.18858 | 9.11954 | 92° | 62km/h | 4951m | -3.4m/s | -11.3°C | 24.6% | 554.5hPa | 2.6V | 07:20:40 | 03:32:13 | 00:00:00 | |
| DF7PN | 2026-09-01 01:49:47 | 51.18858 | 9.11930 | 90° | 58km/h | 4954m | -3.0m/s | -11.3°C | 20.6% | 554.3hPa | 2.7V | 00:00:00 | 00:00:00 | 00:00:00 | |
| DM0DOS-11 | 2026-09-01 01:49:45 | 51.18858 | 9.11803 | 95° | 46km/h | 4973m | -3.1m/s | -11.5°C | 21.5% | 552.9hPa | 2.7V | 07:20:13 | 03:32:06 | 00:00:00 | |
| DL1NUX | 2026-09-01 01:49:44 | 51.18858 | 9.11883 | 87° | 55km/h | 4960m | -3.2m/s | -11.4°C | 21.4% | 553.8hPa | 2.7V | 07:20:09 | 03:32:10 | 00:00:00 | |
| HSKMA3-T | 2026-09-01 01:49:44 | 51.18858 | 9.11883 | 88° | 55km/h | 4960m | -3.2m/s | -11.4°C | 24.6% | 553.8hPa | 2.7V | 07:20:40 | 03:32:10 | 00:00:00 | |
| DL3OBA | 2026-09-01 01:49:42 | 51.18858 | 9.11862 | 89° | 53km/h | 4964m | -3.2m/s | -11.4°C | 20.6% | 553.6hPa | 2.6V | 07:20:00 | 00:00:00 | 00:00:00 | |
| AM1SDL-15 | 2026-09-01 01:49:41 | 51.18857 | 9.11821 | 93° | 51km/h | 4970m | -3.2m/s | -11.4°C | 21.4% | 553.2hPa | 2.6V | 00:00:00 | 03:32:07 | 00:00:00 | |
| DM0DOS-11 | 2026-09-01 01:49:40 | 51.18873 | 9.11710 | 108° | 51km/h | 4989m | -3.5m/s | -11.6°C | 21.4% | 551.7hPa | 2.6V | 07:20:18 | 03:32:01 | 00:00:00 | |
| BIOWL1-15 | 2026-09-01 01:49:36 | 51.18886 | 9.11647 | 108° | 58km/h | 4999m | -3.4m/s | -11.7°C | 24.5% | 551hPa | 2.7V | 07:20:40 | 03:31:58 | 00:00:00 | |
| DM0DOS-11 | 2026-09-01 01:49:35 | 51.18895 | 9.11601 | 105° | 62km/h | 5006m | -3m/s | -11.8°C | 21.1% | 550.5hPa | 2.6V | 07:20:23 | 03:31:56 | 00:00:00 | |
| DL1NUX | 2026-09-01 01:49:34 | 51.18877 | 9.11689 | 109° | 55km/h | 4992m | -3.4m/s | -11.7°C | 21.3% | 551.6hPa | 2.7V | 07:20:19 | 03:32:00 | 00:00:00 | |
| DL1NUX | 2026-09-01 01:49:34 | 51.18899 | 9.11576 | 102° | 64km/h | 5009m | -3.2m/s | -11.8°C | 20.9% | 550.3hPa | 2.6V | 07:20:24 | 03:31:55 | 00:00:00 | |
| HSKMA3-T | 2026-09-01 01:49:33 | 51.18882 | 9.11669 | 109° | 57km/h | 4996m | -3.3m/s | -11.7°C | 24.5% | 551.4hPa | 2.7V | 07:20:40 | 03:31:59 | 00:00:00 | |
| BIOWL1-15 | 2026-09-01 01:49:26 | 51.18906 | 9.11500 | 94° | 64km/h | 5019m | -3.1m/s | -11.9°C | 23.7% | 549.6hPa | 2.7V | 07:20:40 | 03:31:52 | 00:00:00 | |
| DM0DOS-11 | 2026-09-01 01:49:25 | 51.18905 | 9.11361 | 89° | 51km/h | 5038m | -3.2m/s | -12°C | 20.8% | 548.4hPa | 2.7V | 07:20:33 | 03:31:46 | 00:00:00 | |
| DL1NUX | 2026-09-01 01:49:24 | 51.18905 | 9.11341 | 91° | 49km/h | 5041m | -3.3m/s | -12°C | 20.9% | 548.1hPa | 2.6V | 07:20:34 | 03:31:45 | 00:00:00 | |
| HSKMA3-T | 2026-09-01 01:49:23 | 51.18906 | 9.11427 | 89° | 58km/h | 5028m | -3.3m/s | -11.9°C | 23.7% | 549hPa | 2.7V | 07:20:40 | 03:31:49 | 00:00:00 | |
| BIOWL1-15 | 2026-09-01 01:49:15 | 51.18911 | 9.11266 | 105° | 47km/h | 5054m | -2.8m/s | -12.2°C | 24% | 547.2hPa | 2.7V | 07:20:40 | 03:31:41 | 00:00:00 | |
| DB0NH | 2026-09-01 01:49:15 | 51.18911 | 9.11266 | 105° | 57km/h | 5054m | -2.8m/s | -12.1°C | 20.9% | 547.1hPa | 2.7V | 00:00:00 | 03:31:41 | 00:00:00 | |
| DL1NUX | 2026-09-01 01:49:14 | 51.18937 | 9.11143 | 108° | 58km/h | 5072m | -3.4m/s | -12.3°C | 20.9% | 545.8hPa | 2.7V | 07:20:44 | 03:31:35 | 00:00:00 | |
| HSKMA3-T | 2026-09-01 01:49:12 | 51.18923 | 9.11208 | 109° | 53km/h | 5063m | -3.1m/s | -12.2°C | 24.1% | 546.4hPa | 2.7V | 07:21:31 | 03:31:38 | 00:00:00 | |
| DB0DAN | 2026-09-01 01:49:10 | 51.18932 | 9.11166 | 109° | 55km/h | 5069m | -3.2m/s | -12.3°C | 20.1% | 546.01hPa | 2.7V | 00:00:00 | 00:00:00 | 00:00:00 | |
| BIOWL1-15 | 2026-09-01 01:49:07 | 51.18955 | 9.11048 | 103° | 64km/h | 5086m | -3.2m/s | -12.4°C | 23.9% | 544.9hPa | 2.7V | 07:21:31 | 03:31:31 | 00:00:00 | |
| AM1SDL-15 | 2026-09-01 01:49:05 | 51.18955 | 9.11048 | 104° | 57km/h | 5086m | -3.1m/s | -12.4°C | 20.8% | 544.9hPa | 2.7V | 00:00:00 | 03:31:31 | 00:00:00 | |
| DL1NUX | 2026-09-01 01:49:04 | 51.18964 | 9.10901 | 90° | 53km/h | 5104m | -2.8m/s | -12.6°C | 21% | 543.6hPa | 2.7V | 07:20:54 | 03:31:25 | 00:00:00 | |
| HSKMA3-T | 2026-09-01 01:49:01 | 51.18963 | 9.10946 | 92° | 60km/h | 5098m | -3.1m/s | -12.6°C | 23.8% | 544hPa | 2.6V | 07:21:31 | 03:31:27 | 00:00:00 | |
| BIOWL1-15 | 2026-09-01 01:48:58 | 51.18971 | 9.10804 | 104° | 47km/h | 5119m | -3.2m/s | -12.8°C | 24.2% | 542.5hPa | 2.7V | 07:21:31 | 03:31:20 | 00:00:00 | |
| DJ2DS-15 | 2026-09-01 01:48:56 | 51.18991 | 9.10705 | 109° | 57km/h | 5135m | -3.3m/s | -12.9°C | 20.6% | 541.3hPa | 2.7V | 00:00:00 | 00:00:00 | 00:00:00 | |
| DB0DAN | 2026-09-01 01:48:55 | 51.18968 | 9.10823 | 101° | 44km/h | 5116m | -2.9m/s | -12.7°C | 20.4% | 542.61hPa | 2.7V | 00:00:00 | 00:00:00 | 00:00:00 | |
| DM0DOS-11 | 2026-09-01 01:48:55 | 51.18987 | 9.10726 | 109° | 55km/h | 5132m | -3.1m/s | -12.9°C | 21.4% | 541.5hPa | 2.6V | 07:21:03 | 03:31:16 | 00:00:00 | |
| DL1NUX | 2026-09-01 01:48:54 | 51.18991 | 9.10705 | 109° | 57km/h | 5135m | -3.3m/s | -12.9°C | 21.4% | 541.3hPa | 2.7V | 07:21:04 | 03:31:15 | 00:00:00 | |
| HSKMA3-T | 2026-09-01 01:48:50 | 51.18987 | 9.10726 | 110° | 55km/h | 5132m | -3.1m/s | -12.9°C | 24.6% | 541.5hPa | 2.6V | 07:21:31 | 03:31:16 | 00:00:00 | |
| DL1ZP-14 | 2026-09-01 01:48:47 | 51.19001 | 9.10659 | 107° | 62km/h | 5141m | -3.1m/s | -12.9°C | 20.5% | 540.9hPa | 2.7V | 00:00:00 | 00:00:00 | 00:00:00 | |
| DO3DL | 2026-09-01 01:48:46 | 51.19001 | 9.10659 | 108° | 62km/h | 5141m | -3.1m/s | -12.9°C | 20.5% | 540.9hPa | 2.6V | 07:21:00 | 00:00:00 | 00:00:00 | |
| DM0DOS-11 | 2026-09-01 01:48:45 | 51.19018 | 9.10482 | 90° | 58km/h | 5162m | -3m/s | -13°C | 20.7% | 539.5hPa | 2.6V | 07:21:13 | 03:31:06 | 00:00:00 | |
| BIOWL1-15 | 2026-09-01 01:48:44 | 51.19013 | 9.10583 | 100° | 66km/h | 5150m | -2.9m/s | -13°C | 23.8% | 540.3hPa | 2.7V | 07:21:31 | 03:31:10 | 00:00:00 | |
| DD8BA-10 | 2026-09-01 01:48:42 | 51.19017 | 9.10531 | 95° | 53km/h | 5156m | -3.0m/s | -13.0°C | 21.0% | 539.7hPa | 2.6V | 00:00:00 | 00:00:00 | 00:00:00 | |
| DL3OBA | 2026-09-01 01:48:41 | 51.19017 | 9.10531 | 95° | 64km/h | 5156m | -3.0m/s | -13.0°C | 20.2% | 539.8hPa | 2.6V | 07:21:00 | 00:00:00 | 00:00:00 | |
| DB0DAN | 2026-09-01 01:48:40 | 51.19018 | 9.10482 | 91° | 55km/h | 5162m | -3m/s | -13°C | 19.9% | 539.46hPa | 2.6V | 00:00:00 | 00:00:00 | 00:00:00 | |
| HSKMA3-T | 2026-09-01 01:48:39 | 51.19019 | 9.10460 | 91° | 55km/h | 5165m | -3m/s | -13.1°C | 23.4% | 539.2hPa | 2.6V | 07:21:31 | 03:31:05 | 00:00:00 | |
| DO9LL-15 | 2026-09-01 01:48:39 | 51.19019 | 9.10460 | 92° | 57km/h | 5165m | -2.9m/s | -13.0°C | 20.6% | 539.2hPa | 2.6V | 00:00:00 | 03:31:05 | 00:00:00 | |
| DD1CC8 | 2026-09-01 01:48:38 | 51.19020 | 9.10418 | 94° | 47km/h | 5171m | -3.0m/s | -13.1°C | 19.9% | 538.8hPa | 2.7V | 00:00:00 | 00:00:00 | 00:00:00 | |
| DM0DOS-11 | 2026-09-01 01:48:35 | 51.19041 | 9.10284 | 111° | 55km/h | 5193m | -3.1m/s | -13.3°C | 20.9% | 537.3hPa | 2.7V | 07:21:23 | 03:30:56 | 00:00:00 | |
| DL1NUX | 2026-09-01 01:48:34 | 51.19046 | 9.10263 | 110° | 58km/h | 5196m | -3m/s | -13.3°C | 20.9% | 537.1hPa | 2.6V | 07:21:24 | 03:30:55 | 00:00:00 | |
| BIOWL1-15 | 2026-09-01 01:48:33 | 51.19047 | 9.10263 | 111° | 58km/h | 5196m | -3m/s | -13.3°C | 23.8% | 537.1hPa | 2.6V | 07:21:31 | 03:30:55 | 00:00:00 | |
| HSKMA3-T | 2026-09-01 01:48:28 | 51.19052 | 9.10240 | 110° | 62km/h | 5199m | -2.9m/s | -13.4°C | 23.9% | 536.8hPa | 2.6V | 07:21:31 | 03:30:54 | 00:00:00 | |
| DB0UT-7 | 2026-09-01 01:48:27 | 51.19057 | 9.10217 | 109° | 60km/h | 5202m | -2.9m/s | -13.4°C | 21.0% | 536.6hPa | 2.7V | 07:21:00 | 03:30:53 | 00:00:00 | |
| DM0DOS-11 | 2026-09-01 01:48:25 | 51.19078 | 9.10035 | 92° | 62km/h | 5222m | -2.8m/s | -13.6°C | 21.2% | 535.2hPa | 2.7V | 07:21:33 | 03:30:46 | 00:00:00 | |
| DL1NUX | 2026-09-01 01:48:24 | 51.19078 | 9.10011 | 92° | 58km/h | 5225m | -2.9m/s | -13.6°C | 21.3% | 535hPa | 2.7V | 07:21:34 | 03:30:45 | 00:00:00 | |
| BIOWL1-15 | 2026-09-01 01:48:23 | 51.19073 | 9.10113 | 99° | 68km/h | 5214m | -2.8m/s | -13.5°C | 23.7% | 535.8hPa | 2.6V | 07:21:31 | 03:30:49 | 00:00:00 | |
| HSKMA3-T | 2026-09-01 01:48:17 | 51.19079 | 9.09965 | 94° | 53km/h | 5231m | -2.9m/s | -13.6°C | 24% | 534.6hPa | 2.6V | 07:22:22 | 03:30:43 | 00:00:00 | |
| DL1ZP-14 | 2026-09-01 01:48:16 | 51.19081 | 9.09944 | 96° | 49km/h | 5234m | -2.9m/s | -13.6°C | 20.5% | 534.3hPa | 2.7V | 00:00:00 | 00:00:00 | 00:00:00 | |
| DM0DOS-11 | 2026-09-01 01:48:15 | 51.19103 | 9.09826 | 111° | 55km/h | 5251m | -2.8m/s | -13.7°C | 20.9% | 533.1hPa | 2.7V | 07:21:43 | 03:30:36 | 00:00:00 | |
| DB0NH | 2026-09-01 01:48:15 | 51.19082 | 9.09925 | 101° | 57km/h | 5237m | -2.6m/s | -13.6°C | 21.2% | 534.0hPa | 2.7V | 00:00:00 | 03:30:41 | 00:00:00 | |
| DL1NUX | 2026-09-01 01:48:14 | 51.19108 | 9.09805 | 112° | 57km/h | 5254m | -3m/s | -13.8°C | 20.9% | 532.9hPa | 2.7V | 07:21:44 | 03:30:35 | 00:00:00 | |
| BIOWL1-15 | 2026-09-01 01:48:12 | 51.19093 | 9.09866 | 110° | 51km/h | 5246m | -2.9m/s | -13.7°C | 24% | 533.6hPa | 2.6V | 07:22:22 | 03:30:38 | 00:00:00 | |
| DD8BA-10 | 2026-09-01 01:48:12 | 51.19093 | 9.09866 | 111° | 60km/h | 5246m | -2.8m/s | -13.7°C | 21.2% | 533.6hPa | 2.7V | 00:00:00 | 00:00:00 | 00:00:00 | |
| DB0DAN | 2026-09-01 01:48:10 | 51.19103 | 9.09826 | 112° | 53km/h | 5251m | -2.8m/s | -13.7°C | 20.1% | 533.11hPa | 2.7V | 00:00:00 | 00:00:00 | 00:00:00 | |
| HSKMA3-T | 2026-09-01 01:48:08 | 51.19119 | 9.09761 | 111° | 62km/h | 5261m | -3m/s | -13.8°C | 23.5% | 532.5hPa | 2.6V | 07:22:22 | 03:30:33 | 00:00:00 | |
| DL8OAI-8 | 2026-09-01 01:48:08 | 51.19114 | 9.09783 | 113° | 58km/h | 5257m | -3.3m/s | -13.8°C | 20.0% | 532.7hPa | 2.7V | 07:22:00 | 00:00:00 | 00:00:00 | |
| DD1CC8 | 2026-09-01 01:48:07 | 51.19125 | 9.09737 | 109° | 64km/h | 5263m | -2.7m/s | -13.8°C | 19.8% | 532.3hPa | 2.7V | 00:00:00 | 00:00:00 | 00:00:00 | |
| AM1SDL-15 | 2026-09-01 01:48:05 | 51.19130 | 9.09712 | 108° | 62km/h | 5266m | -2.5m/s | -13.8°C | 20.5% | 532.1hPa | 2.7V | 00:00:00 | 03:30:31 | 00:00:00 | |
| DM0DOS-11 | 2026-09-01 01:48:05 | 51.19146 | 9.09580 | 95° | 64km/h | 5280m | -2.7m/s | -13.8°C | 19.6% | 531hPa | 2.7V | 07:21:53 | 03:30:26 | 00:00:00 | |
| DL1NUX | 2026-09-01 01:48:04 | 51.19147 | 9.09554 | 94° | 62km/h | 5282m | -2.8m/s | -13.8°C | 19.5% | 530.9hPa | 2.7V | 07:21:54 | 03:30:25 | 00:00:00 | |
| BIOWL1-15 | 2026-09-01 01:48:01 | 51.19144 | 9.09606 | 97° | 66km/h | 5277m | -2.7m/s | -13.8°C | 22.3% | 531.2hPa | 2.6V | 07:22:22 | 03:30:27 | 00:00:00 | |
| HSKMA3-T | 2026-09-01 01:47:56 | 51.19150 | 9.09485 | 94° | 53km/h | 5291m | -2.7m/s | -13.9°C | 22.4% | 530.4hPa | 2.6V | 07:22:22 | 03:30:22 | 00:00:00 | |
| DB0DAN | 2026-09-01 01:47:55 | 51.19152 | 9.09464 | 96° | 49km/h | 5293m | -3m/s | -14°C | 18.8% | 530.15hPa | 2.6V | 00:00:00 | 00:00:00 | 00:00:00 | |
| DL1NUX | 2026-09-01 01:47:54 | 51.19166 | 9.09348 | 107° | 49km/h | 5311m | -2.9m/s | -14.1°C | 19.7% | 528.9hPa | 2.7V | 07:22:04 | 03:30:15 | 00:00:00 | |
| BIOWL1-15 | 2026-09-01 01:47:50 | 51.19163 | 9.09367 | 105° | 47km/h | 5308m | -3m/s | -14.1°C | 22.5% | 529.2hPa | 2.6V | 07:22:22 | 03:30:16 | 00:00:00 | |
| SO1NDE-10 | 2026-09-01 01:47:48 | 51.19170 | 9.09329 | 110° | 58km/h | 5314m | -2.8m/s | -14.1°C | 19.8% | 528.7hPa | 2.7V | 00:00:00 | 03:30:14 | 00:00:00 | |
| DL8DAS-15 | 2026-09-01 01:47:47 | 51.19170 | 9.09329 | 110° | 51km/h | 5314m | -2.8m/s | -14.1°C | 19.0% | 528.8hPa | 2.6V | 00:00:00 | 00:00:00 | 00:00:00 | |
| DL8OAI-8 | 2026-09-01 01:47:46 | 51.19175 | 9.09309 | 112° | 53km/h | 5317m | -2.8m/s | -14.2°C | 19.0% | 528.5hPa | 2.6V | 07:22:00 | 00:00:00 | 00:00:00 | |
| DM0DOS-11 | 2026-09-01 01:47:45 | 51.19211 | 9.09143 | 102° | 68km/h | 5336m | -2.7m/s | -14.3°C | 20% | 527.2hPa | 2.6V | 07:22:13 | 03:30:06 | 00:00:00 | |
| DL1ZP-14 | 2026-09-01 01:47:45 | 51.19185 | 9.09267 | 111° | 58km/h | 5322m | -2.7m/s | -14.2°C | 18.9% | 528.2hPa | 2.6V | 00:00:00 | 00:00:00 | 00:00:00 | |
| HSKMA3-T | 2026-09-01 01:47:45 | 51.19185 | 9.09267 | 112° | 60km/h | 5322m | -2.7m/s | -14.2°C | 22.5% | 528.2hPa | 2.6V | 07:22:22 | 03:30:11 | 00:00:00 | |
| BIOWL1-15 | 2026-09-01 01:47:44 | 51.19211 | 9.09143 | 103° | 68km/h | 5336m | -2.7m/s | -14.4°C | 22.6% | 527.2hPa | 2.6V | 07:22:22 | 03:30:06 | 00:00:00 | |
| DF7PN | 2026-09-01 01:47:43 | 51.19202 | 9.09195 | 107° | 66km/h | 5331m | -3.0m/s | -14.3°C | 19.2% | 527.6hPa | 2.6V | 00:00:00 | 00:00:00 | 00:00:00 | |
| DD8BA-10 | 2026-09-01 01:47:42 | 51.19202 | 9.09195 | 108° | 62km/h | 5331m | -2.9m/s | -14.3°C | 20.0% | 527.5hPa | 2.6V | 00:00:00 | 00:00:00 | 00:00:00 | |
| DB0DAN | 2026-09-01 01:47:40 | 51.19211 | 9.09143 | 103° | 64km/h | 5336m | -2.7m/s | -14.4°C | 19.2% | 527.2hPa | 2.6V | 00:00:00 | 00:00:00 | 00:00:00 | |
| HSKMA3-T | 2026-09-01 01:47:34 | 51.19223 | 9.08992 | 94° | 57km/h | 5353m | -2.7m/s | -14.5°C | 22.2% | 526hPa | 2.6V | 07:22:22 | 03:30:00 | 00:00:00 | |
| BIOWL1-15 | 2026-09-01 01:47:29 | 51.19229 | 9.08887 | 99° | 49km/h | 5366m | -2.8m/s | -14.6°C | 21.8% | 525.1hPa | 2.6V | 07:23:13 | 03:29:55 | 00:00:00 | |
| DB0UT-7 | 2026-09-01 01:47:27 | 51.19234 | 9.08849 | 106° | 58km/h | 5372m | -2.7m/s | -14.5°C | 19.4% | 524.6hPa | 2.7V | 00:00:00 | 03:29:53 | 00:00:00 | |
| DL8OAI-8 | 2026-09-01 01:47:26 | 51.19234 | 9.08849 | 106° | 47km/h | 5372m | -2.8m/s | -14.6°C | 18.6% | 524.7hPa | 2.7V | 07:23:00 | 00:00:00 | 00:00:00 | |
| DB0DAN | 2026-09-01 01:47:25 | 51.19242 | 9.08811 | 111° | 49km/h | 5377m | -2.6m/s | -14.5°C | 17.3% | 524.37hPa | 2.7V | 00:00:00 | 00:00:00 | 00:00:00 | |
| DM0DOS-11 | 2026-09-01 01:47:25 | 51.19269 | 9.08704 | 110° | 64km/h | 5390m | -2.8m/s | -14.6°C | 18.2% | 523.5hPa | 2.7V | 07:22:33 | 03:29:46 | 00:00:00 | |
| DL1NUX | 2026-09-01 01:47:24 | 51.19274 | 9.08679 | 108° | 66km/h | 5393m | -2.7m/s | -14.6°C | 18.3% | 523.3hPa | 2.7V | 07:22:34 | 03:29:45 | 00:00:00 | |
| HSKMA3-T | 2026-09-01 01:47:23 | 51.19252 | 9.08772 | 113° | 57km/h | 5382m | -2.7m/s | -14.5°C | 20.3% | 524hPa | 2.6V | 07:23:13 | 03:29:49 | 00:00:00 | |
| BIOWL1-15 | 2026-09-01 01:47:18 | 51.19296 | 9.08547 | 101° | 68km/h | 5407m | -2.7m/s | -14.7°C | 20.4% | 522.3hPa | 2.6V | 07:23:13 | 03:29:40 | 00:00:00 | |
| SO1NDE-10 | 2026-09-01 01:47:18 | 51.19279 | 9.08653 | 107° | 60km/h | 5396m | -2.5m/s | -14.6°C | 18.4% | 523.0hPa | 2.7V | 00:00:00 | 03:29:44 | 00:00:00 | |
| DO3DL | 2026-09-01 01:47:17 | 51.19279 | 9.08653 | 108° | 68km/h | 5396m | -2.6m/s | -14.6°C | 17.6% | 523.1hPa | 2.7V | 07:23:00 | 00:00:00 | 00:00:00 | |
| DM0DOS-11 | 2026-09-01 01:47:15 | 51.19305 | 9.08443 | 94° | 60km/h | 5418m | -2.7m/s | -14.7°C | 17.7% | 521.5hPa | 2.7V | 07:22:43 | 03:29:36 | 00:00:00 | |
| DB0NH | 2026-09-01 01:47:15 | 51.19292 | 9.08574 | 103° | 60km/h | 5404m | -2.9m/s | -14.6°C | 18.0% | 522.5hPa | 2.7V | 07:22:00 | 03:29:41 | 00:00:00 | |
| DL1NUX | 2026-09-01 01:47:14 | 51.19306 | 9.08419 | 94° | 58km/h | 5420m | -2.5m/s | -14.8°C | 17.9% | 521.3hPa | 2.7V | 07:22:44 | 03:29:35 | 00:00:00 | |
| HSKMA3-T | 2026-09-01 01:47:13 | 51.19299 | 9.08521 | 99° | 68km/h | 5410m | -2.7m/s | -14.7°C | 20.4% | 522.1hPa | 2.6V | 07:23:13 | 03:29:39 | 00:00:00 | |
| BIOWL1-15 | 2026-09-01 01:47:07 | 51.19308 | 9.08375 | 96° | 51km/h | 5425m | -2.4m/s | -14.8°C | 20% | 521hPa | 2.6V | 07:23:13 | 03:29:33 | 00:00:00 | |
| DM0DOS-11 | 2026-09-01 01:47:05 | 51.19335 | 9.08239 | 114° | 57km/h | 5444m | -2.8m/s | -14.9°C | 16.9% | 519.8hPa | 2.6V | 07:22:53 | 03:29:26 | 00:00:00 | |
| DL1NUX | 2026-09-01 01:47:04 | 51.19341 | 9.08218 | 113° | 58km/h | 5447m | -2.7m/s | -14.9°C | 16.8% | 519.5hPa | 2.7V | 07:22:54 | 03:29:25 | 00:00:00 | |
| HSKMA3-T | 2026-09-01 01:47:02 | 51.19324 | 9.08279 | 112° | 51km/h | 5438m | -2.9m/s | -14.9°C | 19.5% | 520.1hPa | 2.6V | 07:23:13 | 03:29:28 | 00:00:00 | |
| BIOWL1-15 | 2026-09-01 01:46:56 | 51.19359 | 9.08148 | 110° | 66km/h | 5455m | -2.7m/s | -15°C | 18.9% | 519.1hPa | 2.7V | 07:23:13 | 03:29:22 | 00:00:00 | |
| DB0DAN | 2026-09-01 01:46:55 | 51.19365 | 9.08123 | 108° | 64km/h | 5457m | -2.7m/s | -15°C | 16.1% | 518.83hPa | 2.7V | 00:00:00 | 00:00:00 | 00:00:00 | |
| DL1NUX | 2026-09-01 01:46:54 | 51.19382 | 9.07969 | 95° | 58km/h | 5473m | -2.6m/s | -15.1°C | 16% | 517.8hPa | 2.6V | 07:23:04 | 03:29:15 | 00:00:00 | |
| HSKMA3-T | 2026-09-01 01:46:51 | 51.19379 | 9.08018 | 97° | 64km/h | 5468m | -2.7m/s | -15°C | 18.1% | 518.2hPa | 2.7V | 07:23:13 | 03:29:17 | 00:00:00 | |
| BIOWL1-15 | 2026-09-01 01:46:47 | 51.19389 | 9.07882 | 100° | 51km/h | 5483m | -2.8m/s | -15.1°C | 17.7% | 517hPa | 2.7V | 07:23:13 | 03:29:11 | 00:00:00 | |
| BUE01 | 2026-09-01 01:46:47 | 51.19387 | 9.07903 | 97° | 51km/h | 5481m | -2.7m/s | -15.1°C | 15.2% | 517.2hPa | 2.7V | 00:00:00 | 00:00:00 | 00:00:00 | |
| DJ2DS-15 | 2026-09-01 01:46:46 | 51.19386 | 9.07903 | 98° | 60km/h | 5481m | -2.6m/s | -15.1°C | 15.9% | 517.1hPa | 2.7V | 00:00:00 | 03:29:12 | 00:00:00 | |
| DM0DOS-11 | 2026-09-01 01:46:45 | 51.19405 | 9.07787 | 111° | 49km/h | 5497m | -2.9m/s | -15.2°C | 15% | 516.1hPa | 2.7V | 07:23:13 | 03:29:06 | 00:00:00 | |
| HSKMA3-T | 2026-09-01 01:46:41 | 51.19401 | 9.07806 | 110° | 49km/h | 5495m | -2.7m/s | -15.1°C | 17.3% | 516.3hPa | 2.6V | 07:23:13 | 03:29:07 | 00:00:00 | |
| DB0DAN | 2026-09-01 01:46:40 | 51.19405 | 9.07787 | 111° | 47km/h | 5497m | -2.9m/s | -15.2°C | 14.3% | 516.14hPa | 2.7V | 00:00:00 | 00:00:00 | 00:00:00 | |
| DO9LL-15 | 2026-09-01 01:46:39 | 51.19410 | 9.07769 | 113° | 58km/h | 5500m | -2.8m/s | -15.1°C | 15.0% | 515.9hPa | 2.6V | 00:00:00 | 03:29:05 | 00:00:00 | |
| DL8DAS-14 | 2026-09-01 01:46:38 | 51.19421 | 9.07730 | 115° | 55km/h | 5506m | -2.7m/s | -15.2°C | 14.3% | 515.5hPa | 2.6V | 00:00:00 | 00:00:00 | 00:00:00 | |
| DL3OBA | 2026-09-01 01:46:36 | 51.19421 | 9.07730 | 117° | 55km/h | 5506m | -2.7m/s | -15.2°C | 14.3% | 515.5hPa | 2.6V | 07:24:00 | 00:00:00 | 00:00:00 | |
| DM0DOS-11 | 2026-09-01 01:46:35 | 51.19462 | 9.07564 | 104° | 68km/h | 5524m | -2.6m/s | -15.3°C | 15.2% | 514.2hPa | 2.6V | 07:23:23 | 03:28:56 | 00:00:00 | |
| DL1NUX | 2026-09-01 01:46:34 | 51.19466 | 9.07538 | 101° | 64km/h | 5527m | -2.7m/s | -15.3°C | 15.2% | 514.1hPa | 2.6V | 07:23:24 | 03:28:55 | 00:00:00 | |
| BIOWL1-15 | 2026-09-01 01:46:34 | 51.19440 | 9.07665 | 114° | 64km/h | 5513m | -2.6m/s | -15.3°C | 17% | 515hPa | 2.6V | 07:24:04 | 03:29:00 | 00:00:00 | |
| HSKMA3-T | 2026-09-01 01:46:30 | 51.19462 | 9.07564 | 104° | 68km/h | 5524m | -2.6m/s | -15.3°C | 17.1% | 514.2hPa | 2.6V | 07:24:04 | 03:28:56 | 00:00:00 | |
| BIOWL9-15 | 2026-09-01 01:46:28 | 51.19469 | 9.07513 | 99° | 62km/h | 5529m | -2.6m/s | -15.4°C | 14.5% | 514.0hPa | 2.6V | 00:00:00 | 00:00:00 | 00:00:00 | |
| DB0UT-7 | 2026-09-01 01:46:27 | 51.19471 | 9.07488 | 98° | 58km/h | 5532m | -2.4m/s | -15.3°C | 15.2% | 513.8hPa | 2.6V | 00:00:00 | 03:28:53 | 00:00:00 | |
| DL3AQ-11 | 2026-09-01 01:46:26 | 51.19475 | 9.07443 | 97° | 55km/h | 5537m | -2.8m/s | -15.4°C | 14.5% | 513.4hPa | 2.6V | 00:00:00 | 00:00:00 | 00:00:00 | |
| DM0DOS-11 | 2026-09-01 01:46:25 | 51.19487 | 9.07341 | 106° | 47km/h | 5550m | -2.6m/s | -15.5°C | 15.3% | 512.5hPa | 2.6V | 07:23:33 | 03:28:46 | 00:00:00 | |
| DL1NUX | 2026-09-01 01:46:24 | 51.19490 | 9.07323 | 111° | 49km/h | 5553m | -2.5m/s | -15.6°C | 15.3% | 512.3hPa | 2.6V | 07:23:34 | 03:28:45 | 00:00:00 | |
| BIOWL1-15 | 2026-09-01 01:46:23 | 51.19479 | 9.07400 | 99° | 51km/h | 5542m | -2.8m/s | -15.5°C | 17.2% | 513hPa | 2.6V | 07:24:04 | 03:28:49 | 00:00:00 | |
| HSKMA3-T | 2026-09-01 01:46:19 | 51.19491 | 9.07323 | 111° | 49km/h | 5553m | -2.5m/s | -15.6°C | 17.2% | 512.3hPa | 2.6V | 07:24:04 | 03:28:45 | 00:00:00 | |
| SO1NDE-10 | 2026-09-01 01:46:18 | 51.19495 | 9.07304 | 114° | 58km/h | 5556m | -2.4m/s | -15.5°C | 15.3% | 512.1hPa | 2.6V | 00:00:00 | 03:28:44 | 00:00:00 | |
| BUE01 | 2026-09-01 01:46:16 | 51.19513 | 9.07245 | 117° | 57km/h | 5563m | -2.6m/s | -15.7°C | 14.5% | 511.7hPa | 2.6V | 00:00:00 | 00:00:00 | 00:00:00 | |
| DM0DOS-11 | 2026-09-01 01:46:15 | 51.19545 | 9.07128 | 108° | 68km/h | 5577m | -2.7m/s | -15.8°C | 15.1% | 510.7hPa | 2.6V | 07:23:43 | 03:28:36 | 00:00:00 | |
| DB0NH | 2026-09-01 01:46:15 | 51.19513 | 9.07245 | 118° | 58km/h | 5564m | -2.6m/s | -15.6°C | 15.2% | 511.6hPa | 2.7V | 00:00:00 | 03:28:41 | 00:00:00 | |
| DL1NUX | 2026-09-01 01:46:14 | 51.19550 | 9.07102 | 106° | 68km/h | 5579m | -2.6m/s | -15.8°C | 15% | 510.5hPa | 2.7V | 07:23:44 | 03:28:35 | 00:00:00 | |
| BIOWL1-15 | 2026-09-01 01:46:12 | 51.19533 | 9.07178 | 112° | 66km/h | 5571m | -2.6m/s | -15.7°C | 17.1% | 511hPa | 2.6V | 07:24:04 | 03:28:38 | 00:00:00 | |
| DB0DAN | 2026-09-01 01:46:10 | 51.19545 | 9.07128 | 109° | 64km/h | 5577m | -2.7m/s | -15.8°C | 14.3% | 510.69hPa | 2.6V | 00:00:00 | 00:00:00 | 00:00:00 | |
| HSKMA3-T | 2026-09-01 01:46:08 | 51.19555 | 9.07076 | 105° | 66km/h | 5582m | -2.7m/s | -15.8°C | 16.9% | 510.4hPa | 2.7V | 07:24:04 | 03:28:34 | 00:00:00 | |
| DL8DAS-14 | 2026-09-01 01:46:07 | 51.19559 | 9.07051 | 103° | 66km/h | 5585m | -2.6m/s | -15.8°C | 14.2% | 510.1hPa | 2.6V | 00:00:00 | 00:00:00 | 00:00:00 | |
| DL1NUX | 2026-09-01 01:46:04 | 51.19579 | 9.06859 | 98° | 53km/h | 5606m | -2.8m/s | -15.9°C | 14.2% | 508.6hPa | 2.6V | 07:23:54 | 03:28:25 | 00:00:00 | |
| BIOWL1-15 | 2026-09-01 01:46:01 | 51.19586 | 9.06799 | 106° | 49km/h | 5614m | -2.7m/s | -16°C | 16.1% | 508.2hPa | 2.6V | 07:24:04 | 03:28:22 | 00:00:00 | |
| HSKMA3-T | 2026-09-01 01:45:57 | 51.19583 | 9.06818 | 102° | 49km/h | 5612m | -2.5m/s | -16°C | 16.1% | 508.4hPa | 2.6V | 07:24:04 | 03:28:23 | 00:00:00 | |
| DB0ND-19 | 2026-09-01 01:45:57 | 51.19586 | 9.06799 | 105° | 47km/h | 5614m | -2.7m/s | -16.0°C | 13.6% | 508.2hPa | 2.6V | 00:00:00 | 00:00:00 | 00:00:00 | |
| DM0DOS-11 | 2026-09-01 01:45:55 | 51.19615 | 9.06684 | 114° | 53km/h | 5630m | -2.7m/s | -16.1°C | 13.9% | 507.1hPa | 2.6V | 07:24:03 | 03:28:16 | 00:00:00 | |
| DL1NUX | 2026-09-01 01:45:54 | 51.19621 | 9.06664 | 115° | 55km/h | 5632m | -2.5m/s | -16.1°C | 13.9% | 507hPa | 2.6V | 07:24:04 | 03:28:15 | 00:00:00 | |
| BIOWL1-15 | 2026-09-01 01:45:53 | 51.19609 | 9.06704 | 114° | 53km/h | 5627m | -2.7m/s | -16.1°C | 15.6% | 507.4hPa | 2.6V | 07:24:04 | 03:28:17 | 00:00:00 | |
| HSKMA3-T | 2026-09-01 01:45:47 | 51.19633 | 9.06624 | 115° | 57km/h | 5637m | -2.8m/s | -16.2°C | 15.3% | 506.6hPa | 2.6V | 07:24:55 | 03:28:13 | 00:00:00 | |
| SONCRA | 2026-09-01 01:45:47 | 51.19639 | 9.06603 | 115° | 58km/h | 5640m | -2.6m/s | -16.2°C | 13.0% | 506.3hPa | 2.6V | 00:00:00 | 00:00:00 | 00:00:00 | |
| DL8DAS-15 | 2026-09-01 01:45:46 | 51.19633 | 9.06624 | 116° | 57km/h | 5637m | -2.8m/s | -16.2°C | 13.1% | 506.6hPa | 2.6V | 00:00:00 | 00:00:00 | 00:00:00 | |
| DB0NH | 2026-09-01 01:45:45 | 51.19645 | 9.06581 | 115° | 60km/h | 5643m | -2.7m/s | -16.1°C | 13.7% | 506.2hPa | 2.6V | 00:00:00 | 03:28:11 | 00:00:00 | |
| DL1NUX | 2026-09-01 01:45:44 | 51.19683 | 9.06439 | 109° | 68km/h | 5659m | -2.8m/s | -16.3°C | 13.4% | 505.2hPa | 2.6V | 07:24:14 | 03:28:05 | 00:00:00 | |
| DL1XH-west | 2026-09-01 01:45:44 | 51.19652 | 9.06559 | 115° | 62km/h | 5646m | -2.7m/s | -16.2°C | 15.1% | 506.1hPa | 2.6V | 07:26:37 | 03:28:10 | 00:00:00 | |
| DO3DL | 2026-09-01 01:45:41 | 51.19664 | 9.06512 | 114° | 64km/h | 5651m | -2.6m/s | -16.2°C | 12.9% | 505.6hPa | 2.6V | 07:24:00 | 00:00:00 | 00:00:00 | |
| DB0DAN | 2026-09-01 01:45:40 | 51.19677 | 9.06464 | 111° | 64km/h | 5656m | -2.9m/s | -16.3°C | 12.8% | 505.26hPa | 2.6V | 00:00:00 | 00:00:00 | 00:00:00 | |
| HSKMA3-T | 2026-09-01 01:45:36 | 51.19697 | 9.06361 | 103° | 68km/h | 5667m | -2.6m/s | -16.3°C | 14.9% | 504.5hPa | 2.6V | 07:24:55 | 03:28:02 | 00:00:00 | |
| DL8DAS-14 | 2026-09-01 01:45:36 | 51.19701 | 9.06334 | 101° | 66km/h | 5670m | -2.7m/s | -16.3°C | 12.7% | 504.4hPa | 2.6V | 00:00:00 | 00:00:00 | 00:00:00 | |
| DM0DOS-11 | 2026-09-01 01:45:35 | 51.19712 | 9.06210 | 96° | 55km/h | 5683m | -2.5m/s | -16.4°C | 13.2% | 503.5hPa | 2.6V | 07:24:23 | 03:27:56 | 00:00:00 | |
| BIOWL1-15 | 2026-09-01 01:45:34 | 51.19741 | 9.06057 | 115° | 55km/h | 5704m | -2.7m/s | -16.5°C | 14.2% | 502.1hPa | 2.6V | 07:24:55 | 03:27:48 | 00:00:00 | |
| HSKMA3-T | 2026-09-01 01:45:26 | 51.19721 | 9.06132 | 108° | 47km/h | 5693m | -2.7m/s | -16.5°C | 14.9% | 502.9hPa | 2.7V | 07:24:55 | 03:27:52 | 00:00:00 | |
| DB0DAN | 2026-09-01 01:45:25 | 51.19725 | 9.06113 | 111° | 46km/h | 5696m | -2.5m/s | -16.5°C | 12.4% | 502.73hPa | 2.6V | 00:00:00 | 00:00:00 | 00:00:00 | |
| DM0DOS-11 | 2026-09-01 01:45:25 | 51.19753 | 9.06014 | 113° | 60km/h | 5710m | -2.7m/s | -16.6°C | 12.6% | 501.8hPa | 2.6V | 07:24:33 | 03:27:46 | 00:00:00 | |
| DL4XJ-10 | 2026-09-01 01:45:25 | 51.19725 | 9.06113 | 111° | 49km/h | 5696m | -2.5m/s | -16.4°C | 0% | 0hPa | 2.6V | 00:00:00 | 00:00:00 | 00:00:00 | |
| DL1NUX | 2026-09-01 01:45:24 | 51.19759 | 9.05991 | 112° | 64km/h | 5712m | -2.7m/s | -16.6°C | 12.5% | 501.7hPa | 2.6V | 07:24:34 | 03:27:45 | 00:00:00 | |
| DO2JMG | 2026-09-01 01:45:24 | 51.19730 | 9.06095 | 113° | 49km/h | 5698m | -2.7m/s | -16.5°C | 14.5% | 502.5hPa | 2.6V | 07:27:28 | 03:27:50 | 00:00:00 | |
| BIOWL1-15 | 2026-09-01 01:45:18 | 51.19775 | 9.05916 | 105° | 66km/h | 5720m | -2.6m/s | -16.7°C | 14% | 501hPa | 2.6V | 07:24:55 | 03:27:42 | 00:00:00 | |
| HSKMA3-T | 2026-09-01 01:45:15 | 51.19778 | 9.05890 | 102° | 66km/h | 5723m | -2.6m/s | -16.7°C | 14.1% | 500.9hPa | 2.6V | 07:24:55 | 03:27:41 | 00:00:00 | |
| DB0NH | 2026-09-01 01:45:15 | 51.19778 | 9.05890 | 103° | 55km/h | 5723m | -2.5m/s | -16.6°C | 12.5% | 500.8hPa | 2.6V | 00:00:00 | 03:27:41 | 00:00:00 | |
| DL1NUX | 2026-09-01 01:45:14 | 51.19793 | 9.05741 | 96° | 60km/h | 5738m | -2.8m/s | -16.8°C | 13.6% | 499.9hPa | 2.6V | 07:24:44 | 03:27:35 | 00:00:00 | |
| DO2JMG | 2026-09-01 01:45:13 | 51.19784 | 9.05839 | 99° | 64km/h | 5728m | -2.7m/s | -16.7°C | 14.8% | 500.6hPa | 2.6V | 07:27:28 | 03:27:39 | 00:00:00 | |
| BIOWL1-15 | 2026-09-01 01:45:05 | 51.19798 | 9.05650 | 96° | 53km/h | 5749m | -2.7m/s | -16.9°C | 15.2% | 499.2hPa | 2.6V | 07:24:55 | 03:27:31 | 00:00:00 | |
| HSKMA3-T | 2026-09-01 01:44:54 | 51.19823 | 9.05440 | 112° | 46km/h | 5780m | -3m/s | -17.2°C | 19.4% | 497hPa | 2.6V | 07:25:46 | 03:27:20 | 00:00:00 | |
| DL3AQ-11 | 2026-09-01 01:44:52 | 51.19833 | 9.05405 | 114° | 47km/h | 5786m | -2.8m/s | -17.2°C | 13.3% | 496.6hPa | 2.6V | 00:00:00 | 00:00:00 | 00:00:00 | |
| SONCRA | 2026-09-01 01:44:45 | 51.19877 | 9.05230 | 103° | 64km/h | 5809m | -2.9m/s | -17.3°C | 10.9% | 495.2hPa | 2.6V | 00:00:00 | 00:00:00 | 00:00:00 | |
| DL1NUX | 2026-09-01 01:44:44 | 51.19888 | 9.05112 | 95° | 53km/h | 5823m | -2.8m/s | -17.4°C | 15.4% | 494.1hPa | 2.6V | 07:25:14 | 03:27:05 | 00:00:00 | |
| BIOWL1-15 | 2026-09-01 01:44:44 | 51.19877 | 9.05230 | 104° | 64km/h | 5809m | -2.9m/s | -17.3°C | 12.9% | 495.2hPa | 2.6V | 07:25:46 | 03:27:10 | 00:00:00 | |
| HSKMA3-T | 2026-09-01 01:44:43 | 51.19881 | 9.05205 | 101° | 64km/h | 5812m | -2.9m/s | -17.3°C | 13.4% | 495hPa | 2.6V | 07:25:46 | 03:27:09 | 00:00:00 | |
| DB0DAN | 2026-09-01 01:44:40 | 51.19887 | 9.05134 | 95° | 53km/h | 5820m | -3m/s | -17.4°C | 12.5% | 494.41hPa | 2.6V | 00:00:00 | 00:00:00 | 00:00:00 | |
| DL1ZP-14 | 2026-09-01 01:44:39 | 51.19889 | 9.05092 | 96° | 47km/h | 5826m | -2.7m/s | -17.4°C | 15.1% | 494.0hPa | 2.6V | 00:00:00 | 00:00:00 | 00:00:00 | |
| DF7PN | 2026-09-01 01:44:36 | 51.19893 | 9.05054 | 101° | 44km/h | 5831m | -2.9m/s | -17.5°C | 15.9% | 493.6hPa | 2.6V | 00:00:00 | 00:00:00 | 00:00:00 | |
| DM0DOS-11 | 2026-09-01 01:44:35 | 51.19919 | 9.04948 | 115° | 55km/h | 5849m | -3m/s | -17.6°C | 17.9% | 492.6hPa | 2.6V | 07:25:23 | 03:26:56 | 00:00:00 | |
| BIOWL1-15 | 2026-09-01 01:44:34 | 51.19899 | 9.05020 | 110° | 46km/h | 5837m | -2.9m/s | -17.5°C | 19.6% | 493.2hPa | 2.6V | 07:25:46 | 03:27:00 | 00:00:00 | |
| HSKMA3-T | 2026-09-01 01:44:33 | 51.19903 | 9.05003 | 113° | 46km/h | 5840m | -3.1m/s | -17.5°C | 20.1% | 493.1hPa | 2.6V | 07:25:46 | 03:26:59 | 00:00:00 | |
| DL1XH-west | 2026-09-01 01:44:26 | 51.19942 | 9.04860 | 109° | 62km/h | 5861m | -3.1m/s | -17.7°C | 20.5% | 491.7hPa | 2.6V | 07:26:37 | 03:26:52 | 00:00:00 | |
| DM0DOS-11 | 2026-09-01 01:44:25 | 51.19966 | 9.04711 | 100° | 64km/h | 5879m | -3.2m/s | -17.9°C | 19.9% | 490.5hPa | 2.6V | 07:25:33 | 03:26:46 | 00:00:00 | |
| DB0DAN | 2026-09-01 01:44:25 | 51.19947 | 9.04836 | 107° | 60km/h | 5864m | -3m/s | -17.8°C | 17.6% | 491.45hPa | 2.6V | 00:00:00 | 00:00:00 | 00:00:00 | |
| DL1NUX | 2026-09-01 01:44:24 | 51.19969 | 9.04686 | 98° | 62km/h | 5883m | -3.3m/s | -17.9°C | 20.1% | 490.3hPa | 2.6V | 07:25:34 | 03:26:45 | 00:00:00 | |
| BIOWL1-15 | 2026-09-01 01:44:24 | 51.19952 | 9.04812 | 106° | 64km/h | 5867m | -3m/s | -17.8°C | 20.9% | 491.4hPa | 2.6V | 07:25:46 | 03:26:50 | 00:00:00 | |
| HSKMA3-T | 2026-09-01 01:44:22 | 51.19960 | 9.04762 | 103° | 64km/h | 5873m | -3m/s | -17.9°C | 21.7% | 490.9hPa | 2.6V | 07:25:46 | 03:26:48 | 00:00:00 | |
| DO2KSM | 2026-09-01 01:44:21 | 51.19960 | 9.04762 | 104° | 64km/h | 5873m | -3.0m/s | -17.9°C | 18.4% | 490.9hPa | 2.6V | 07:25:00 | 00:00:00 | 00:00:00 | |
| DD8BA-10 | 2026-09-01 01:44:19 | 51.19969 | 9.04686 | 99° | 55km/h | 5883m | -3.3m/s | -17.9°C | 20.1% | 490.3hPa | 2.6V | 00:00:00 | 00:00:00 | 00:00:00 | |
| SO1NDE-10 | 2026-09-01 01:44:18 | 51.19971 | 9.04661 | 97° | 57km/h | 5886m | -3.2m/s | -17.9°C | 20.2% | 490.0hPa | 2.6V | 00:00:00 | 03:26:44 | 00:00:00 | |
| DM0DOS-11 | 2026-09-01 01:44:15 | 51.19980 | 9.04485 | 100° | 46km/h | 5910m | -2.8m/s | -18.1°C | 16.4% | 488.4hPa | 2.6V | 07:25:43 | 03:26:36 | 00:00:00 | |
| DL1NUX | 2026-09-01 01:44:14 | 51.19983 | 9.04468 | 105° | 46km/h | 5913m | -3m/s | -18.1°C | 16.5% | 488.4hPa | 2.6V | 07:25:44 | 03:26:35 | 00:00:00 | |
| DL1XH-west | 2026-09-01 01:44:13 | 51.19976 | 9.04543 | 92° | 53km/h | 5902m | -3m/s | -18°C | 17.1% | 489.1hPa | 2.6V | 07:26:37 | 03:26:39 | 00:00:00 | |
| HSKMA3-T | 2026-09-01 01:44:11 | 51.19978 | 9.04504 | 97° | 47km/h | 5908m | -3m/s | -18.1°C | 17.9% | 488.7hPa | 2.6V | 07:25:46 | 03:26:37 | 00:00:00 | |
| DB0DAN | 2026-09-01 01:44:10 | 51.19980 | 9.04485 | 101° | 42km/h | 5911m | -2.8m/s | -18.1°C | 15.5% | 488.41hPa | 2.6V | 00:00:00 | 00:00:00 | 00:00:00 | |
| BIOWL1-15 | 2026-09-01 01:44:06 | 51.20017 | 9.04323 | 107° | 64km/h | 5934m | -3.1m/s | -18.3°C | 21.4% | 487hPa | 2.6V | 07:26:37 | 03:26:28 | 00:00:00 | |
| DM0DOS-11 | 2026-09-01 01:44:05 | 51.20025 | 9.04273 | 103° | 66km/h | 5941m | -3.1m/s | -18.3°C | 18.7% | 486.6hPa | 2.6V | 07:25:53 | 03:26:26 | 00:00:00 | |
| DL1NUX | 2026-09-01 01:44:04 | 51.20029 | 9.04247 | 100° | 66km/h | 5944m | -3m/s | -18.4°C | 18.9% | 486.4hPa | 2.6V | 07:25:54 | 03:26:25 | 00:00:00 | |
| HSKMA3-T | 2026-09-01 01:44:01 | 51.20021 | 9.04298 | 105° | 64km/h | 5938m | -3.2m/s | -18.3°C | 21.1% | 486.8hPa | 2.6V | 07:26:37 | 03:26:27 | 00:00:00 | |
| DD1CC8 | 2026-09-01 01:43:58 | 51.20037 | 9.04097 | 91° | 57km/h | 5962m | -3.2m/s | -18.6°C | 18.4% | 485.1hPa | 2.6V | 00:00:00 | 00:00:00 | 00:00:00 | |
| DB0UT-7 | 2026-09-01 01:43:57 | 51.20034 | 9.04195 | 97° | 58km/h | 5950m | -3.0m/s | -18.4°C | 19.2% | 485.9hPa | 2.6V | 00:00:00 | 00:00:00 | 00:00:00 | |
| DM0DOS-11 | 2026-09-01 01:43:55 | 51.20039 | 9.04033 | 94° | 49km/h | 5972m | -2.9m/s | -18.6°C | 20% | 484.5hPa | 2.6V | 07:26:03 | 03:26:16 | 00:00:00 | |
| DB0DAN | 2026-09-01 01:43:55 | 51.20036 | 9.04145 | 93° | 58km/h | 5956m | -3.1m/s | -18.5°C | 18% | 485.56hPa | 2.6V | 00:00:00 | 00:00:00 | 00:00:00 | |
| DL1NUX | 2026-09-01 01:43:54 | 51.20040 | 9.04013 | 98° | 47km/h | 5974m | -2.8m/s | -18.7°C | 21.1% | 484.3hPa | 2.6V | 07:26:04 | 03:26:15 | 00:00:00 | |
| BIOWL1-15 | 2026-09-01 01:43:52 | 51.20038 | 9.04075 | 91° | 55km/h | 5966m | -2.9m/s | -18.6°C | 21.7% | 484.9hPa | 2.5V | 07:26:37 | 03:26:18 | 00:00:00 | |
| HSKMA3-T | 2026-09-01 01:43:51 | 51.20038 | 9.04053 | 92° | 51km/h | 5969m | -3m/s | -18.6°C | 21.6% | 484.7hPa | 2.6V | 07:26:37 | 03:26:17 | 00:00:00 | |
| AM1SDL-15 | 2026-09-01 01:43:50 | 51.20039 | 9.04033 | 95° | 53km/h | 5972m | -2.8m/s | -18.6°C | 20.0% | 484.5hPa | 2.6V | 00:00:00 | 03:26:16 | 00:00:00 | |
| DD8BA-10 | 2026-09-01 01:43:48 | 51.20042 | 9.03994 | 103° | 55km/h | 5977m | -2.8m/s | -18.7°C | 23.7% | 484.2hPa | 2.6V | 00:00:00 | 00:00:00 | 00:00:00 | |
| BIOWL7-15 | 2026-09-01 01:43:46 | 51.20045 | 9.03975 | 107° | 49km/h | 5980m | -2.8m/s | -18.7°C | 22.4% | 484.0hPa | 2.6V | 00:00:00 | 00:00:00 | 00:00:00 | |
| DM0DOS-11 | 2026-09-01 01:43:45 | 51.20077 | 9.03831 | 110° | 58km/h | 6001m | -3.1m/s | -18.9°C | 25.1% | 482.6hPa | 2.6V | 07:26:13 | 03:26:06 | 00:00:00 | |
| DB0NH | 2026-09-01 01:43:45 | 51.20053 | 9.03936 | 109° | 60km/h | 5986m | -2.8m/s | -18.7°C | 24.8% | 483.5hPa | 2.6V | 00:00:00 | 03:26:11 | 00:00:00 | |
| DL1NUX | 2026-09-01 01:43:44 | 51.20082 | 9.03808 | 110° | 60km/h | 6004m | -2.9m/s | -18.9°C | 26% | 482.4hPa | 2.6V | 07:26:14 | 03:26:05 | 00:00:00 | |
| BIOWL1-15 | 2026-09-01 01:43:41 | 51.20072 | 9.03853 | 110° | 57km/h | 5998m | -3.1m/s | -18.9°C | 27.6% | 482.8hPa | 2.5V | 07:26:37 | 03:26:07 | 00:00:00 | |
| DB0DAN | 2026-09-01 01:43:40 | 51.20077 | 9.03831 | 110° | 55km/h | 6001m | -3.1m/s | -18.9°C | 23.9% | 482.65hPa | 2.6V | 00:00:00 | 00:00:00 | 00:00:00 | |
| HSKMA3-T | 2026-09-01 01:43:40 | 51.20077 | 9.03831 | 110° | 58km/h | 6001m | -3.1m/s | -18.9°C | 27.3% | 482.6hPa | 2.6V | 07:26:37 | 03:26:06 | 00:00:00 | |
| DO9LL-15 | 2026-09-01 01:43:39 | 51.20082 | 9.03808 | 111° | 62km/h | 6004m | -2.8m/s | -18.9°C | 26.0% | 482.4hPa | 2.6V | 00:00:00 | 03:26:05 | 00:00:00 | |
| DD8BA-10 | 2026-09-01 01:43:38 | 51.20088 | 9.03786 | 110° | 66km/h | 6007m | -2.9m/s | -18.9°C | 26.0% | 482.2hPa | 2.6V | 00:00:00 | 00:00:00 | 00:00:00 | |
| DL8DAS-15 | 2026-09-01 01:43:37 | 51.20088 | 9.03786 | 111° | 60km/h | 6007m | -3.0m/s | -19.0°C | 24.7% | 482.3hPa | 2.6V | 00:00:00 | 00:00:00 | 00:00:00 | |
| DM0DOS-11 | 2026-09-01 01:43:35 | 51.20124 | 9.03582 | 99° | 69km/h | 6032m | -3.1m/s | -19.2°C | 18.7% | 480.5hPa | 2.6V | 07:26:23 | 03:25:56 | 00:00:00 | |
| DL1NUX | 2026-09-01 01:43:34 | 51.20127 | 9.03555 | 97° | 69km/h | 6035m | -2.8m/s | -19.2°C | 18.8% | 480.3hPa | 2.6V | 07:26:24 | 03:25:55 | 00:00:00 | |
| BIOWL1-15 | 2026-09-01 01:43:30 | 51.20124 | 9.03583 | 100° | 69km/h | 6032m | -3.1m/s | -19.2°C | 21.2% | 480.5hPa | 2.6V | 07:26:37 | 03:25:56 | 00:00:00 | |
| HSKMA3-T | 2026-09-01 01:43:29 | 51.20127 | 9.03555 | 97° | 69km/h | 6035m | -2.8m/s | -19.2°C | 21.2% | 480.3hPa | 2.6V | 07:26:37 | 03:25:55 | 00:00:00 | |
| DL1XH-west | 2026-09-01 01:43:26 | 51.20130 | 9.03476 | 91° | 60km/h | 6044m | -3.2m/s | -19.3°C | 21.8% | 479.7hPa | 2.6V | 07:26:37 | 03:25:52 | 00:00:00 | |
| DB0DAN | 2026-09-01 01:43:25 | 51.20130 | 9.03452 | 90° | 55km/h | 6048m | -3.1m/s | -19.3°C | 19.2% | 479.55hPa | 2.6V | 00:00:00 | 00:00:00 | 00:00:00 | |
| DL1NUX | 2026-09-01 01:43:24 | 51.20142 | 9.03329 | 108° | 53km/h | 6066m | -3m/s | -19.4°C | 19.9% | 478.4hPa | 2.6V | 07:26:34 | 03:25:45 | 00:00:00 | |
| BIOWL1-15 | 2026-09-01 01:43:24 | 51.20138 | 9.03349 | 106° | 51km/h | 6063m | -2.9m/s | -19.4°C | 22% | 478.6hPa | 2.6V | 07:26:37 | 03:25:46 | 00:00:00 | |
| HSKMA3-T | 2026-09-01 01:43:18 | 51.20147 | 9.03308 | 110° | 57km/h | 6069m | -3.2m/s | -19.5°C | 21.9% | 478.2hPa | 2.6V | 07:26:37 | 03:25:44 | 00:00:00 | |
| DL1XH-west | 2026-09-01 01:43:15 | 51.20162 | 9.03239 | 108° | 64km/h | 6079m | -3m/s | -19.5°C | 22.5% | 477.6hPa | 2.6V | 07:27:28 | 03:25:41 | 00:00:00 | |
| DB0NH | 2026-09-01 01:43:15 | 51.20162 | 9.03239 | 109° | 64km/h | 6079m | -2.9m/s | -19.5°C | 20.2% | 477.5hPa | 2.5V | 07:26:00 | 03:25:41 | 00:00:00 | |
| AM1SDL-15 | 2026-09-01 01:43:14 | 51.20167 | 9.03214 | 107° | 60km/h | 6082m | -3.1m/s | -19.5°C | 20.3% | 477.4hPa | 2.5V | 00:00:00 | 03:25:40 | 00:00:00 | |
| DO3DL | 2026-09-01 01:43:13 | 51.20167 | 9.03214 | 108° | 68km/h | 6082m | -3.1m/s | -19.5°C | 19.2% | 477.4hPa | 2.5V | 07:27:00 | 00:00:00 | 00:00:00 | |
| DK9SH | 2026-09-01 01:43:12 | 51.20171 | 9.03187 | 105° | 69km/h | 6085m | -3.3m/s | -19.6°C | 19.6% | 477.3hPa | 2.5V | 07:27:00 | 00:00:00 | 00:00:00 | |
| DB0DAN | 2026-09-01 01:43:10 | 51.20182 | 9.03104 | 98° | 68km/h | 6094m | -3.2m/s | -19.6°C | 19.9% | 476.52hPa | 2.5V | 00:00:00 | 00:00:00 | 00:00:00 | |
| BIOWL1-15 | 2026-09-01 01:43:09 | 51.20184 | 9.03075 | 96° | 69km/h | 6098m | -3.3m/s | -19.7°C | 24.4% | 476.3hPa | 2.5V | 07:27:28 | 03:25:35 | 00:00:00 | |
| HSKMA3-T | 2026-09-01 01:43:08 | 51.20185 | 9.03048 | 93° | 68km/h | 6101m | -3.2m/s | -19.7°C | 24.5% | 476.1hPa | 2.6V | 07:27:28 | 03:25:34 | 00:00:00 | |
| DO2JMG | 2026-09-01 01:43:07 | 51.20186 | 9.03021 | 91° | 66km/h | 6104m | -3.1m/s | -19.7°C | 24.3% | 475.9hPa | 2.6V | 07:27:28 | 03:25:33 | 00:00:00 | |
| DL3AQ-11 | 2026-09-01 01:43:06 | 51.20186 | 9.02971 | 91° | 57km/h | 6110m | -2.9m/s | -19.8°C | 21.6% | 475.6hPa | 2.6V | 00:00:00 | 00:00:00 | 00:00:00 | |
| DM0DOS-11 | 2026-09-01 01:43:05 | 51.20197 | 9.02864 | 107° | 55km/h | 6126m | -3.3m/s | -19.9°C | 23.6% | 474.6hPa | 2.6V | 07:26:53 | 03:25:26 | 00:00:00 | |
| DL1XH-west | 2026-09-01 01:43:04 | 51.20187 | 9.02948 | 93° | 55km/h | 6113m | -3m/s | -19.8°C | 24.8% | 475.3hPa | 2.5V | 07:27:28 | 03:25:30 | 00:00:00 | |
| BIOWL1-15 | 2026-09-01 01:42:58 | 51.20206 | 9.02820 | 109° | 58km/h | 6132m | -3.4m/s | -20°C | 27.8% | 474.2hPa | 2.5V | 07:27:28 | 03:25:24 | 00:00:00 | |
| HSKMA3-T | 2026-09-01 01:42:57 | 51.20211 | 9.02797 | 110° | 62km/h | 6136m | -3.2m/s | -20°C | 27.5% | 473.9hPa | 2.5V | 07:27:28 | 03:25:23 | 00:00:00 | |
| DD1CC8 | 2026-09-01 01:42:56 | 51.20216 | 9.02773 | 109° | 62km/h | 6139m | -3.3m/s | -20.0°C | 24.0% | 473.8hPa | 2.5V | 00:00:00 | 00:00:00 | 00:00:00 | |
| DJ2DS-15 | 2026-09-01 01:42:55 | 51.20222 | 9.02749 | 109° | 64km/h | 6142m | -3.5m/s | -20.0°C | 23.6% | 473.5hPa | 2.5V | 00:00:00 | 00:00:00 | 00:00:00 | |
| DM0DOS-11 | 2026-09-01 01:42:54 | 51.20250 | 9.02621 | 109° | 69km/h | 6159m | -3.3m/s | -20.1°C | 21.8% | 472.4hPa | 2.5V | 07:27:03 | 03:25:16 | 00:00:00 | |
| DL1XH-west | 2026-09-01 01:42:54 | 51.20227 | 9.02724 | 110° | 66km/h | 6146m | -3.5m/s | -20.1°C | 26.5% | 473.3hPa | 2.6V | 07:27:28 | 03:25:20 | 00:00:00 | |
| DO2JMG | 2026-09-01 01:42:53 | 51.20233 | 9.02699 | 109° | 68km/h | 6149m | -3.4m/s | -20.1°C | 26% | 473.1hPa | 2.6V | 07:27:28 | 03:25:19 | 00:00:00 | |
| HSKMA3-T | 2026-09-01 01:42:47 | 51.20267 | 9.02540 | 107° | 73km/h | 6169m | -3.2m/s | -20.2°C | 24.5% | 471.9hPa | 2.6V | 07:27:28 | 03:25:13 | 00:00:00 | |
| DJ2DS-15 | 2026-09-01 01:42:46 | 51.20272 | 9.02511 | 106° | 66km/h | 6172m | -2.9m/s | -20.1°C | 21.1% | 471.5hPa | 2.6V | 00:00:00 | 03:25:12 | 00:00:00 | |
| DM0DOS-11 | 2026-09-01 01:42:45 | 51.20292 | 9.02342 | 98° | 62km/h | 6189m | -2.8m/s | -20.2°C | 19% | 470.5hPa | 2.6V | 07:27:13 | 03:25:06 | 00:00:00 | |
| DB0NH | 2026-09-01 01:42:45 | 51.20277 | 9.02482 | 104° | 68km/h | 6175m | -2.8m/s | -20.1°C | 18.5% | 471.4hPa | 2.6V | 00:00:00 | 03:25:11 | 00:00:00 | |
| DL1NUX | 2026-09-01 01:42:44 | 51.20295 | 9.02318 | 101° | 58km/h | 6191m | -2.9m/s | -20.2°C | 20.1% | 470.3hPa | 2.6V | 07:27:14 | 03:25:05 | 00:00:00 | |
| DL1XH-west | 2026-09-01 01:42:43 | 51.20285 | 9.02423 | 99° | 73km/h | 6180m | -2.8m/s | -20.2°C | 18.9% | 471hPa | 2.5V | 07:27:28 | 03:25:09 | 00:00:00 | |
| BIOWL1-15 | 2026-09-01 01:42:41 | 51.20310 | 9.02229 | 109° | 57km/h | 6203m | -3m/s | -20.3°C | 23.6% | 469.5hPa | 2.6V | 07:27:28 | 03:25:01 | 00:00:00 | |
| DB0DAN | 2026-09-01 01:42:40 | 51.20292 | 9.02342 | 99° | 58km/h | 6189m | -2.8m/s | -20.2°C | 17.9% | 470.54hPa | 2.6V | 00:00:00 | 00:00:00 | 00:00:00 | |
| HSKMA3-T | 2026-09-01 01:42:36 | 51.20305 | 9.02251 | 107° | 58km/h | 6201m | -3.2m/s | -20.3°C | 23.6% | 469.7hPa | 2.5V | 07:27:28 | 03:25:02 | 00:00:00 | |
| DL1XH1-15 | 2026-09-01 01:42:35 | 51.20315 | 9.02207 | 110° | 58km/h | 6206m | -3.1m/s | -20.3°C | 22% | 469.4hPa | 2.6V | 07:27:19 | 03:25:00 | 00:00:00 | |
| DL1NUX | 2026-09-01 01:42:34 | 51.20345 | 9.02092 | 114° | 66km/h | 6222m | -3.1m/s | -20.2°C | 16.9% | 468.3hPa | 2.5V | 07:27:24 | 03:24:55 | 00:00:00 | |
| DO2JMG | 2026-09-01 01:42:33 | 51.20320 | 9.02184 | 111° | 60km/h | 6209m | -3.1m/s | -20.3°C | 23.1% | 469.1hPa | 2.6V | 07:27:28 | 03:24:59 | 00:00:00 | |
| DL1XH-west | 2026-09-01 01:42:32 | 51.20326 | 9.02162 | 113° | 60km/h | 6212m | -3.2m/s | -20.3°C | 22.1% | 469hPa | 2.6V | 07:27:28 | 03:24:58 | 00:00:00 | |
| HSKMA3-T | 2026-09-01 01:42:26 | 51.20367 | 9.02017 | 115° | 71km/h | 6232m | -3.3m/s | -20.1°C | 13.9% | 467.8hPa | 2.6V | 07:27:28 | 03:24:52 | 00:00:00 | |
| DB0DAN | 2026-09-01 01:42:25 | 51.20375 | 9.01991 | 115° | 69km/h | 6235m | -3.2m/s | -20°C | 11% | 467.6hPa | 2.6V | 00:00:00 | 00:00:00 | 00:00:00 | |
| DD1CC8 | 2026-09-01 01:42:25 | 51.20375 | 9.01991 | 114° | 73km/h | 6235m | -3.2m/s | -20.0°C | 11.0% | 467.6hPa | 2.6V | 00:00:00 | 00:00:00 | 00:00:00 | |
| BIOWL1-15 | 2026-09-01 01:42:25 | 51.20375 | 9.01991 | 115° | 73km/h | 6235m | -3.2m/s | -20°C | 12.9% | 467.6hPa | 2.6V | 07:27:28 | 03:24:51 | 00:00:00 | |
| DL1NUX | 2026-09-01 01:42:24 | 51.20414 | 9.01814 | 102° | 77km/h | 6253m | -2.9m/s | -19.9°C | 7.4% | 466.4hPa | 2.6V | 07:27:34 | 03:24:45 | 00:00:00 | |
| DO2JMG | 2026-09-01 01:42:22 | 51.20397 | 9.01905 | 110° | 78km/h | 6244m | -3m/s | -19.9°C | 7.4% | 467hPa | 2.5V | 07:29:10 | 03:24:48 | 00:00:00 | |
| DL1XH-west | 2026-09-01 01:42:21 | 51.20404 | 9.01875 | 108° | 80km/h | 6247m | -2.9m/s | -19.9°C | 7.4% | 466.8hPa | 2.6V | 07:28:19 | 03:24:47 | 00:00:00 | |
| HSKMA3-T | 2026-09-01 01:42:15 | 51.20429 | 9.01706 | 104° | 62km/h | 6264m | -2.8m/s | -20.1°C | 7.2% | 465.7hPa | 2.5V | 07:28:19 | 03:24:41 | 00:00:00 | |
| BIOWL1-15 | 2026-09-01 01:42:14 | 51.20433 | 9.01682 | 106° | 60km/h | 6267m | -2.9m/s | -20.1°C | 7.1% | 465.6hPa | 2.6V | 07:28:19 | 03:24:40 | 00:00:00 | |
| DL1NUX | 2026-09-01 01:42:14 | 51.20460 | 9.01569 | 114° | 62km/h | 6283m | -3.2m/s | -20.1°C | 6.2% | 464.6hPa | 2.5V | 07:27:44 | 03:24:35 | 00:00:00 | |
| DL1XH-west | 2026-09-01 01:42:11 | 51.20448 | 9.01614 | 112° | 60km/h | 6276m | -3.2m/s | -20.1°C | 6.2% | 465hPa | 2.6V | 07:28:19 | 03:24:37 | 00:00:00 | |
| DB0DAN | 2026-09-01 01:42:10 | 51.20454 | 9.01592 | 113° | 58km/h | 6279m | -3.2m/s | -20.1°C | 5.9% | 464.78hPa | 2.5V | 00:00:00 | 00:00:00 | 00:00:00 | |
| DB0DAN | 2026-09-01 01:42:10 | 51.20460 | 9.01569 | 115° | 58km/h | 6283m | -3.2m/s | -20.1°C | 5.6% | 464.59hPa | 2.5V | 00:00:00 | 00:00:00 | 00:00:00 | |
| HSKMA3-T | 2026-09-01 01:42:05 | 51.20490 | 9.01474 | 118° | 71km/h | 6294m | -2.9m/s | -20.1°C | 3.1% | 463.8hPa | 2.6V | 07:28:19 | 03:24:31 | 00:00:00 | |
| BIOWL1-15 | 2026-09-01 01:42:04 | 51.20498 | 9.01449 | 117° | 73km/h | 6297m | -3m/s | -20.1°C | 2.9% | 463.7hPa | 2.6V | 07:28:19 | 03:24:30 | 00:00:00 | |
| DL1XH-west | 2026-09-01 01:42:01 | 51.20523 | 9.01365 | 114° | 78km/h | 6306m | -3.2m/s | -20.1°C | 2.7% | 463.1hPa | 2.5V | 07:28:19 | 03:24:27 | 00:00:00 | |
| DO2JMG | 2026-09-01 01:42:00 | 51.20531 | 9.01336 | 112° | 80km/h | 6309m | -3m/s | -20.1°C | 2.8% | 462.9hPa | 2.6V | 07:29:10 | 03:24:26 | 00:00:00 | |
| DL8DAS-14 | 2026-09-01 01:41:59 | 51.20545 | 9.01275 | 108° | 80km/h | 6315m | -3.1m/s | -20.1°C | 3.7% | 462.5hPa | 2.6V | 00:00:00 | 00:00:00 | 00:00:00 | |
| DL8OAI-8 | 2026-09-01 01:41:58 | 51.20538 | 9.01305 | 111° | 80km/h | 6312m | -3.0m/s | -20.1°C | 3.7% | 462.7hPa | 2.6V | 07:28:00 | 00:00:00 | 00:00:00 | |
| DB0UT-7 | 2026-09-01 01:41:57 | 51.20551 | 9.01244 | 107° | 71km/h | 6318m | -3.1m/s | -20.1°C | 4.2% | 462.3hPa | 2.6V | 00:00:00 | 00:00:00 | 00:00:00 | |
| DO3DL | 2026-09-01 01:41:56 | 51.20551 | 9.01244 | 108° | 80km/h | 6318m | -3.1m/s | -20.1°C | 3.7% | 462.3hPa | 2.6V | 07:28:00 | 00:00:00 | 00:00:00 | |
| DM0DOS-11 | 2026-09-01 01:41:55 | 51.20579 | 9.01044 | 102° | 64km/h | 6340m | -3.1m/s | -20.2°C | 4% | 460.9hPa | 2.6V | 07:28:03 | 03:24:16 | 00:00:00 | |
| DB0DAN | 2026-09-01 01:41:55 | 51.20561 | 9.01183 | 103° | 73km/h | 6324m | -3.2m/s | -20.2°C | 3.6% | 461.95hPa | 2.5V | 00:00:00 | 00:00:00 | 00:00:00 | |
| BIOWL1-15 | 2026-09-01 01:41:54 | 51.20565 | 9.01153 | 102° | 73km/h | 6327m | -3.2m/s | -20.2°C | 2.8% | 461.7hPa | 2.5V | 07:28:19 | 03:24:20 | 00:00:00 | |
| DO2JMG | 2026-09-01 01:41:50 | 51.20579 | 9.01044 | 103° | 64km/h | 6340m | -3.2m/s | -20.2°C | 2.6% | 460.9hPa | 2.6V | 07:29:10 | 03:24:16 | 00:00:00 | |
| BIOWL9-15 | 2026-09-01 01:41:49 | 51.20587 | 9.00996 | 108° | 60km/h | 6345m | -3.1m/s | -20.3°C | 3.5% | 460.6hPa | 2.6V | 00:00:00 | 00:00:00 | 00:00:00 | |
| DB0ND-19 | 2026-09-01 01:41:48 | 51.20587 | 9.00996 | 108° | 60km/h | 6345m | -3.1m/s | -20.3°C | 3.5% | 460.6hPa | 2.6V | 00:00:00 | 00:00:00 | 00:00:00 | |
| BIOWL1-15 | 2026-09-01 01:41:45 | 51.20622 | 9.00876 | 117° | 73km/h | 6360m | -3.2m/s | -20.4°C | 2.4% | 459.8hPa | 2.6V | 07:28:19 | 03:24:09 | 00:00:00 | |
| HSKMA3-T | 2026-09-01 01:41:44 | 51.20613 | 9.00902 | 117° | 69km/h | 6357m | -3m/s | -20.4°C | 2.4% | 459.9hPa | 2.6V | 07:28:19 | 03:24:10 | 00:00:00 | |
| DJ2DS-15 | 2026-09-01 01:41:43 | 51.20621 | 9.00876 | 117° | 71km/h | 6360m | -3.1m/s | -20.3°C | 3.9% | 459.7hPa | 2.5V | 00:00:00 | 03:24:09 | 00:00:00 | |
| DL1XH1-15 | 2026-09-01 01:41:42 | 51.20646 | 9.00791 | 112° | 80km/h | 6369m | -3m/s | -20.4°C | 3.9% | 459.1hPa | 2.5V | 07:28:13 | 03:24:06 | 00:00:00 | |
| DD1CC3-15 | 2026-09-01 01:41:41 | 51.20630 | 9.00849 | 117° | 77km/h | 6363m | -3.2m/s | -20.4°C | 3.5% | 459.6hPa | 2.5V | 07:28:00 | 00:00:00 | 00:00:00 | |
| DB0DAN | 2026-09-01 01:41:40 | 51.20646 | 9.00791 | 112° | 77km/h | 6370m | -3m/s | -20.4°C | 3.5% | 459.07hPa | 2.5V | 00:00:00 | 00:00:00 | 00:00:00 | |
| DL1XH-west | 2026-09-01 01:41:40 | 51.20646 | 9.00791 | 112° | 80km/h | 6369m | -3m/s | -20.4°C | 2.4% | 459.1hPa | 2.5V | 07:28:19 | 03:24:06 | 00:00:00 | |
| DO9LL-15 | 2026-09-01 01:41:39 | 51.20654 | 9.00761 | 111° | 73km/h | 6373m | -3.3m/s | -20.4°C | 3.9% | 458.9hPa | 2.6V | 07:28:00 | 03:24:05 | 00:00:00 | |
| SONCRA | 2026-09-01 01:41:38 | 51.20661 | 9.00731 | 108° | 80km/h | 6376m | -3.1m/s | -20.5°C | 3.5% | 458.7hPa | 2.6V | 00:00:00 | 00:00:00 | 00:00:00 | |
| BUE01 | 2026-09-01 01:41:36 | 51.20673 | 9.00668 | 105° | 78km/h | 6382m | -3.2m/s | -20.5°C | 3.5% | 458.3hPa | 2.6V | 00:00:00 | 00:00:00 | 00:00:00 | |
| DL1NUX | 2026-09-01 01:41:34 | 51.20699 | 9.00469 | 102° | 62km/h | 6404m | -3.1m/s | -20.6°C | 4% | 457.1hPa | 2.6V | 07:28:24 | 03:23:55 | 00:00:00 | |
| HSKMA3-T | 2026-09-01 01:41:33 | 51.20686 | 9.00577 | 101° | 75km/h | 6391m | -2.9m/s | -20.5°C | 2.5% | 457.8hPa | 2.5V | 07:29:10 | 03:23:59 | 00:00:00 | |
| BIOWL1-15 | 2026-09-01 01:41:32 | 51.20690 | 9.00548 | 101° | 71km/h | 6394m | -3.1m/s | -20.5°C | 2.4% | 457.6hPa | 2.6V | 07:29:10 | 03:23:58 | 00:00:00 | |
| DL1XH1-15 | 2026-09-01 01:41:30 | 51.20696 | 9.00494 | 101° | 66km/h | 6400m | -3.2m/s | -20.5°C | 3.9% | 457.1hPa | 2.6V | 07:28:23 | 03:23:56 | 00:00:00 | |
| DL1XH-west | 2026-09-01 01:41:29 | 51.20699 | 9.00469 | 103° | 62km/h | 6404m | -3.1m/s | -20.6°C | 2.5% | 457.1hPa | 2.6V | 07:29:10 | 03:23:55 | 00:00:00 | |
| DL8DAS-14 | 2026-09-01 01:41:28 | 51.20708 | 9.00421 | 108° | 60km/h | 6410m | -3.2m/s | -20.6°C | 3.5% | 456.7hPa | 2.6V | 00:00:00 | 00:00:00 | 00:00:00 | |
| DB0DAN | 2026-09-01 01:41:25 | 51.20719 | 9.00375 | 114° | 60km/h | 6416m | -2.9m/s | -20.6°C | 3.5% | 456.32hPa | 2.6V | 00:00:00 | 00:00:00 | 00:00:00 | |
| DL1XH1-15 | 2026-09-01 01:41:24 | 51.20758 | 9.00251 | 115° | 75km/h | 6431m | -3.1m/s | -20.7°C | 4.2% | 455.3hPa | 2.6V | 07:28:33 | 03:23:46 | 00:00:00 | |
| DL1NUX | 2026-09-01 01:41:24 | 51.20766 | 9.00223 | 114° | 78km/h | 6435m | -3.2m/s | -20.8°C | 4.2% | 455.2hPa | 2.6V | 07:28:34 | 03:23:45 | 00:00:00 | |
| HSKMA3-T | 2026-09-01 01:41:23 | 51.20733 | 9.00328 | 117° | 68km/h | 6422m | -3.1m/s | -20.7°C | 2.8% | 455.9hPa | 2.6V | 07:29:10 | 03:23:49 | 00:00:00 | |
| BIOWL1-15 | 2026-09-01 01:41:21 | 51.20749 | 9.00278 | 117° | 73km/h | 6428m | -3.1m/s | -20.7°C | 2.8% | 455.6hPa | 2.5V | 07:29:10 | 03:23:47 | 00:00:00 | |
| DL1XH-west | 2026-09-01 01:41:18 | 51.20774 | 9.00194 | 113° | 80km/h | 6438m | -3.2m/s | -20.8°C | 2.9% | 454.9hPa | 2.6V | 07:29:10 | 03:23:44 | 00:00:00 | |
| BIOWL9-15 | 2026-09-01 01:41:18 | 51.20782 | 9.00164 | 110° | 80km/h | 6441m | -3.0m/s | -20.8°C | 3.8% | 454.8hPa | 2.5V | 00:00:00 | 00:00:00 | 00:00:00 | |
| DO2KSM | 2026-09-01 01:41:17 | 51.20782 | 9.00164 | 112° | 80km/h | 6441m | -3.0m/s | -20.8°C | 3.8% | 454.8hPa | 2.5V | 07:29:00 | 00:00:00 | 00:00:00 | |
| DO3DL | 2026-09-01 01:41:16 | 51.20782 | 9.00164 | 112° | 80km/h | 6441m | -3.0m/s | -20.8°C | 3.8% | 454.8hPa | 2.5V | 07:29:00 | 00:00:00 | 00:00:00 | |
| DB0NH | 2026-09-01 01:41:15 | 51.20795 | 9.00102 | 107° | 73km/h | 6447m | -2.8m/s | -20.8°C | 4.3% | 454.3hPa | 2.5V | 00:00:00 | 03:23:41 | 00:00:00 | |
| DL1NUX | 2026-09-01 01:41:14 | 51.20820 | 8.99918 | 98° | 71km/h | 6466m | -3.3m/s | -21°C | 4.6% | 453.1hPa | 2.5V | 07:28:44 | 03:23:35 | 00:00:00 | |
| DD8BA-10 | 2026-09-01 01:41:13 | 51.20805 | 9.00039 | 104° | 69km/h | 6453m | -3.1m/s | -20.9°C | 4.4% | 453.9hPa | 2.5V | 00:00:00 | 00:00:00 | 00:00:00 | |
| DL1XH1-15 | 2026-09-01 01:41:12 | 51.20817 | 8.99948 | 100° | 75km/h | 6463m | -3.4m/s | -21°C | 4.5% | 453.4hPa | 2.5V | 07:28:43 | 03:23:36 | 00:00:00 | |
| BIOWL1-15 | 2026-09-01 01:41:12 | 51.20817 | 8.99948 | 100° | 75km/h | 6463m | -3.4m/s | -21°C | 3.3% | 453.4hPa | 2.5V | 07:29:10 | 03:23:36 | 00:00:00 | |
| HSKMA3-T | 2026-09-01 01:41:12 | 51.20810 | 9.00008 | 102° | 78km/h | 6456m | -3.2m/s | -20.9°C | 3.2% | 453.9hPa | 2.6V | 07:29:10 | 03:23:38 | 00:00:00 | |
| DL1XH-west | 2026-09-01 01:41:08 | 51.20823 | 8.99890 | 99° | 69km/h | 6469m | -3m/s | -21°C | 3.4% | 453hPa | 2.5V | 07:29:10 | 03:23:34 | 00:00:00 | |
| DO2JMG | 2026-09-01 01:41:07 | 51.20825 | 8.99864 | 100° | 66km/h | 6472m | -3m/s | -21°C | 3.4% | 452.8hPa | 2.6V | 07:29:10 | 03:23:33 | 00:00:00 | |
| DJ2DS-15 | 2026-09-01 01:41:07 | 51.20825 | 8.99864 | 100° | 64km/h | 6472m | -3.0m/s | -21.0°C | 4.1% | 452.8hPa | 2.6V | 00:00:00 | 00:00:00 | 00:00:00 | |
| DL3AQ-11 | 2026-09-01 01:41:06 | 51.20829 | 8.99839 | 102° | 62km/h | 6475m | -2.9m/s | -21.0°C | 4.1% | 452.6hPa | 2.6V | 00:00:00 | 00:00:00 | 00:00:00 | |
| BUE01 | 2026-09-01 01:41:05 | 51.20833 | 8.99814 | 106° | 60km/h | 6478m | -2.8m/s | -21.1°C | 4.1% | 452.5hPa | 2.6V | 00:00:00 | 00:00:00 | 00:00:00 | |
| DL1NUX | 2026-09-01 01:41:04 | 51.20872 | 8.99670 | 116° | 71km/h | 6496m | -3.2m/s | -21.2°C | 4.7% | 451.3hPa | 2.6V | 07:28:54 | 03:23:25 | 00:00:00 | |
| HSKMA3-T | 2026-09-01 01:41:02 | 51.20849 | 8.99744 | 114° | 64km/h | 6487m | -3.2m/s | -21.1°C | 3.6% | 451.9hPa | 2.5V | 07:29:10 | 03:23:28 | 00:00:00 | |
| BIOWL1-15 | 2026-09-01 01:41:01 | 51.20872 | 8.99670 | 117° | 71km/h | 6496m | -3.3m/s | -21.2°C | 3.6% | 451.3hPa | 2.6V | 07:29:10 | 03:23:25 | 00:00:00 | |
| DL1XH1-15 | 2026-09-01 01:41:00 | 51.20864 | 8.99695 | 116° | 69km/h | 6493m | -3m/s | -21.2°C | 4.7% | 451.5hPa | 2.6V | 07:28:53 | 03:23:26 | 00:00:00 | |
| DO2JMG | 2026-09-01 01:40:57 | 51.20888 | 8.99617 | 116° | 75km/h | 6503m | -3.4m/s | -21.2°C | 3.7% | 450.9hPa | 2.5V | 07:29:10 | 03:23:23 | 00:00:00 | |
| DB0UT-7 | 2026-09-01 01:40:57 | 51.20888 | 8.99617 | 116° | 73km/h | 6503m | -3.4m/s | -21.2°C | 4.7% | 450.9hPa | 2.5V | 00:00:00 | 00:00:00 | 00:00:00 | |
| DO3DL | 2026-09-01 01:40:56 | 51.20888 | 8.99617 | 117° | 75km/h | 6503m | -3.4m/s | -21.2°C | 4.2% | 450.9hPa | 2.6V | 07:29:00 | 00:00:00 | 00:00:00 | |
| DB0DAN | 2026-09-01 01:40:55 | 51.20905 | 8.99561 | 114° | 75km/h | 6509m | -3.2m/s | -21.3°C | 4.1% | 450.57hPa | 2.6V | 00:00:00 | 00:00:00 | 00:00:00 | |
| DL1NUX | 2026-09-01 01:40:54 | 51.20942 | 8.99378 | 100° | 77km/h | 6528m | -3m/s | -21.3°C | 4.7% | 449.4hPa | 2.6V | 07:29:04 | 03:23:15 | 00:00:00 | |
| HSKMA3-T | 2026-09-01 01:40:51 | 51.20933 | 8.99439 | 106° | 80km/h | 6522m | -2.9m/s | -21.3°C | 3.5% | 449.8hPa | 2.5V | 07:29:10 | 03:23:17 | 00:00:00 | |
| BIOWL1-15 | 2026-09-01 01:40:48 | 51.20945 | 8.99348 | 100° | 73km/h | 6531m | -3m/s | -21.3°C | 3.5% | 449.2hPa | 2.6V | 07:29:10 | 03:23:14 | 00:00:00 | |
| DL1XH-west | 2026-09-01 01:40:46 | 51.20955 | 8.99268 | 103° | 64km/h | 6540m | -3m/s | -21.4°C | 4.1% | 448.8hPa | 2.5V | 07:29:10 | 03:23:11 | 00:00:00 | |
| DO2JMG | 2026-09-01 01:40:46 | 51.20951 | 8.99293 | 101° | 66km/h | 6537m | -3m/s | -21.4°C | 3.8% | 448.8hPa | 2.6V | 07:29:10 | 03:23:12 | 00:00:00 | |
| HSKMA3-T | 2026-09-01 01:40:41 | 51.20975 | 8.99173 | 113° | 64km/h | 6552m | -3.2m/s | -21.4°C | 4.9% | 448hPa | 2.6V | 07:30:01 | 03:23:07 | 00:00:00 | |
| DB0DAN | 2026-09-01 01:40:40 | 51.20982 | 8.99149 | 115° | 62km/h | 6555m | -3m/s | -21.4°C | 5.2% | 447.79hPa | 2.6V | 00:00:00 | 00:00:00 | 00:00:00 | |
| BIOWL1-15 | 2026-09-01 01:40:37 | 51.21004 | 8.99075 | 117° | 71km/h | 6564m | -3.2m/s | -21.4°C | 5.6% | 447.2hPa | 2.6V | 07:30:01 | 03:23:03 | 00:00:00 | |
| DO2JMG | 2026-09-01 01:40:35 | 51.21021 | 8.99023 | 117° | 75km/h | 6570m | -3m/s | -21.5°C | 5.8% | 446.8hPa | 2.6V | 07:33:25 | 03:23:01 | 00:00:00 | |
| DL1XH-west | 2026-09-01 01:40:34 | 51.21029 | 8.98995 | 116° | 77km/h | 6573m | -3.2m/s | -21.5°C | 5.9% | 446.6hPa | 2.5V | 07:30:01 | 03:23:00 | 00:00:00 | |
| HSKMA3-T | 2026-09-01 01:40:30 | 51.21062 | 8.98878 | 111° | 82km/h | 6586m | -2.8m/s | -21.5°C | 6.2% | 445.9hPa | 2.6V | 07:30:01 | 03:22:56 | 00:00:00 | |
| BIOWL1-15 | 2026-09-01 01:40:28 | 51.21099 | 8.98662 | 102° | 71km/h | 6606m | -2.9m/s | -21.6°C | 7% | 444.7hPa | 2.6V | 07:30:01 | 03:22:49 | 00:00:00 | |
| DL1XH-west | 2026-09-01 01:40:24 | 51.21095 | 8.98691 | 101° | 75km/h | 6603m | -3.1m/s | -21.6°C | 6.9% | 444.9hPa | 2.6V | 07:30:01 | 03:22:50 | 00:00:00 | |
| DJ2DS-15 | 2026-09-01 01:40:23 | 51.21099 | 8.98662 | 102° | 75km/h | 6607m | -2.9m/s | -21.5°C | 7.0% | 444.6hPa | 2.5V | 00:00:00 | 03:22:49 | 00:00:00 | |
| BIOWL7-15 | 2026-09-01 01:40:22 | 51.21099 | 8.98662 | 103° | 71km/h | 6607m | -2.9m/s | -21.6°C | 6.4% | 444.7hPa | 2.5V | 00:00:00 | 00:00:00 | 00:00:00 | |
| DL1XH1-15 | 2026-09-01 01:40:20 | 51.21112 | 8.98584 | 109° | 66km/h | 6615m | -2.9m/s | -21.6°C | 7.1% | 444.1hPa | 2.5V | 07:29:33 | 03:22:46 | 00:00:00 | |
| DO2JMG | 2026-09-01 01:40:20 | 51.21112 | 8.98584 | 109° | 66km/h | 6615m | -2.9m/s | -21.6°C | 7.1% | 444.1hPa | 2.5V | 07:33:25 | 03:22:46 | 00:00:00 | |
| BIOWL1-15 | 2026-09-01 01:40:14 | 51.21155 | 8.98433 | 117° | 73km/h | 6633m | -3m/s | -21.8°C | 7.4% | 443hPa | 2.5V | 07:30:01 | 03:22:40 | 00:00:00 | |
| DO2KSM | 2026-09-01 01:40:14 | 51.21147 | 8.98459 | 118° | 71km/h | 6630m | -3.1m/s | -21.8°C | 6.7% | 443.2hPa | 2.5V | 07:30:00 | 00:00:00 | 00:00:00 | |
| DL1XH-west | 2026-09-01 01:40:14 | 51.21163 | 8.98407 | 117° | 73km/h | 6636m | -3.2m/s | -21.8°C | 7.5% | 442.9hPa | 2.6V | 07:30:01 | 03:22:39 | 00:00:00 | |
| DL3AQ-11 | 2026-09-01 01:40:13 | 51.21172 | 8.98380 | 117° | 75km/h | 6639m | -2.9m/s | -21.8°C | 6.8% | 442.7hPa | 2.5V | 00:00:00 | 00:00:00 | 00:00:00 | |
| DM0DOS-11 | 2026-09-01 01:40:11 | 51.21189 | 8.98326 | 117° | 77km/h | 6646m | -3.3m/s | -21.9°C | 7.6% | 442.2hPa | 2.5V | 07:29:43 | 03:22:36 | 00:00:00 | |
| HSKMA3-T | 2026-09-01 01:40:10 | 51.21190 | 8.98326 | 117° | 77km/h | 6646m | -3.3m/s | -21.9°C | 7.5% | 442.2hPa | 2.5V | 07:30:01 | 03:22:36 | 00:00:00 | |
| BIOWL1-15 | 2026-09-01 01:40:03 | 51.21249 | 8.98113 | 110° | 88km/h | 6668m | -3.1m/s | -22.1°C | 8% | 440.9hPa | 2.5V | 07:30:01 | 03:22:29 | 00:00:00 | |
| DJ2DS-15 | 2026-09-01 01:40:03 | 51.21249 | 8.98113 | 110° | 78km/h | 6668m | -3.1m/s | -22.0°C | 7.8% | 440.9hPa | 2.5V | 00:00:00 | 03:22:29 | 00:00:00 | |
| DL1XH1-15 | 2026-09-01 01:40:02 | 51.21269 | 8.98013 | 104° | 86km/h | 6676m | -3.2m/s | -22.1°C | 7.9% | 440.4hPa | 2.6V | 07:29:53 | 03:22:26 | 00:00:00 | |
| HSKMA3-T | 2026-09-01 01:39:59 | 51.21274 | 8.97980 | 103° | 84km/h | 6680m | -3.2m/s | -22.1°C | 8.2% | 440.2hPa | 2.5V | 07:30:01 | 03:22:25 | 00:00:00 | |
| BIOWL1-15 | 2026-09-01 01:39:54 | 51.21316 | 8.97715 | 113° | 73km/h | 6707m | -3m/s | -22.2°C | 7.5% | 438.6hPa | 2.6V | 07:31:43 | 03:22:16 | 00:00:00 | |
| DL1XH-west | 2026-09-01 01:39:53 | 51.21299 | 8.97795 | 104° | 71km/h | 6698m | -2.9m/s | -22.2°C | 7.6% | 439.1hPa | 2.5V | 07:30:01 | 03:22:19 | 00:00:00 | |
| NBG1-10 | 2026-09-01 01:39:53 | 51.21299 | 8.97795 | 104° | 82km/h | 6698m | -2.9m/s | -22.1°C | 7.6% | 439.0hPa | 2.6V | 00:00:00 | 03:22:19 | 00:00:00 | |
| DD8BA-10 | 2026-09-01 01:39:52 | 51.21303 | 8.97768 | 107° | 78km/h | 6701m | -2.9m/s | -22.1°C | 7.5% | 438.9hPa | 2.6V | 00:00:00 | 00:00:00 | 00:00:00 | |
| DL1XH1-15 | 2026-09-01 01:39:50 | 51.21316 | 8.97715 | 113° | 73km/h | 6707m | -3m/s | -22.2°C | 7.4% | 438.6hPa | 2.6V | 07:30:03 | 03:22:16 | 00:00:00 | |
| HSKMA3-T | 2026-09-01 01:39:49 | 51.21323 | 8.97687 | 114° | 77km/h | 6710m | -2.8m/s | -22.2°C | 7.5% | 438.5hPa | 2.6V | 07:30:52 | 03:22:15 | 00:00:00 | |
| DL3AQ-11 | 2026-09-01 01:39:46 | 51.21356 | 8.97569 | 112° | 84km/h | 6721m | -2.9m/s | -22.3°C | 6.7% | 437.7hPa | 2.6V | 00:00:00 | 00:00:00 | 00:00:00 | |
| DL1XH1-15 | 2026-09-01 01:39:45 | 51.21397 | 8.97406 | 110° | 89km/h | 6736m | -3m/s | -22.4°C | 7.4% | 436.8hPa | 2.6V | 07:30:13 | 03:22:06 | 00:00:00 | |
| DB0ND-19 | 2026-09-01 01:39:44 | 51.21365 | 8.97537 | 112° | 84km/h | 6724m | -3.0m/s | -22.3°C | 6.7% | 437.6hPa | 2.5V | 00:00:00 | 00:00:00 | 00:00:00 | |
| DL1XH-west | 2026-09-01 01:39:43 | 51.21373 | 8.97505 | 112° | 88km/h | 6727m | -3.2m/s | -22.4°C | 7.3% | 437.4hPa | 2.5V | 07:30:52 | 03:22:09 | 00:00:00 | |
| BIOWL1-15 | 2026-09-01 01:39:42 | 51.21381 | 8.97472 | 111° | 88km/h | 6730m | -3.1m/s | -22.4°C | 7.4% | 437.2hPa | 2.5V | 07:31:43 | 03:22:08 | 00:00:00 | |
| HSKMA3-T | 2026-09-01 01:39:38 | 51.21413 | 8.97338 | 110° | 91km/h | 6742m | -3.3m/s | -22.4°C | 7.3% | 436.5hPa | 2.6V | 07:30:52 | 03:22:04 | 00:00:00 | |
| AM1SDL-15 | 2026-09-01 01:39:37 | 51.21420 | 8.97303 | 110° | 88km/h | 6746m | -3.3m/s | -22.4°C | 7.3% | 436.3hPa | 2.6V | 00:00:00 | 03:22:03 | 00:00:00 | |
| DK9SH | 2026-09-01 01:39:35 | 51.21427 | 8.97269 | 109° | 91km/h | 6749m | -3.3m/s | -22.5°C | 6.5% | 436.1hPa | 2.6V | 07:30:00 | 00:00:00 | 00:00:00 | |
| DL1NUX | 2026-09-01 01:39:34 | 51.21464 | 8.97022 | 98° | 84km/h | 6770m | -2.7m/s | -22.5°C | 6.6% | 434.8hPa | 2.6V | 07:30:24 | 03:21:55 | 00:00:00 | |
| DL1XH-west | 2026-09-01 01:39:33 | 51.21447 | 8.97162 | 104° | 91km/h | 6758m | -3.1m/s | -22.5°C | 7% | 435.6hPa | 2.6V | 07:30:52 | 03:21:59 | 00:00:00 | |
| DL3AQ-11 | 2026-09-01 01:39:33 | 51.21452 | 8.97127 | 102° | 89km/h | 6761m | -3.1m/s | -22.5°C | 6.2% | 435.4hPa | 2.5V | 00:00:00 | 00:00:00 | 00:00:00 | |
| DD8BA-10 | 2026-09-01 01:39:32 | 51.21452 | 8.97127 | 103° | 84km/h | 6761m | -3.1m/s | -22.5°C | 6.9% | 435.4hPa | 2.5V | 00:00:00 | 00:00:00 | 00:00:00 | |
| DM0DOS-11 | 2026-09-01 01:39:31 | 51.21461 | 8.97056 | 99° | 86km/h | 6767m | -3m/s | -22.5°C | 6.7% | 435hPa | 2.5V | 07:30:23 | 03:21:56 | 00:00:00 | |
| BIOWL1-15 | 2026-09-01 01:39:31 | 51.21457 | 8.97091 | 101° | 89km/h | 6764m | -3m/s | -22.5°C | 6.8% | 435.2hPa | 2.5V | 07:31:43 | 03:21:57 | 00:00:00 | |
| HSKMA3-T | 2026-09-01 01:39:27 | 51.21470 | 8.96958 | 99° | 77km/h | 6776m | -2.8m/s | -22.5°C | 6.2% | 434.5hPa | 2.6V | 07:30:52 | 03:21:53 | 00:00:00 | |
| DB0UT-7 | 2026-09-01 01:39:27 | 51.21470 | 8.96958 | 99° | 82km/h | 6776m | -2.8m/s | -22.4°C | 6.5% | 434.5hPa | 2.6V | 00:00:00 | 03:21:53 | 00:00:00 | |
| DF7PN | 2026-09-01 01:39:26 | 51.21473 | 8.96928 | 99° | 73km/h | 6779m | -2.9m/s | -22.5°C | 5.8% | 434.3hPa | 2.5V | 00:00:00 | 00:00:00 | 00:00:00 | |
| AM1SDL-15 | 2026-09-01 01:39:25 | 51.21476 | 8.96899 | 103° | 80km/h | 6782m | -2.8m/s | -22.5°C | 6.5% | 434.1hPa | 2.5V | 00:00:00 | 03:21:51 | 00:00:00 | |
| DL1NUX | 2026-09-01 01:39:24 | 51.21514 | 8.96727 | 112° | 82km/h | 6799m | -3m/s | -22.6°C | 6.1% | 433.1hPa | 2.5V | 07:30:34 | 03:21:45 | 00:00:00 | |
| DL1XH1-15 | 2026-09-01 01:39:23 | 51.21507 | 8.96757 | 112° | 80km/h | 6796m | -2.6m/s | -22.5°C | 6.1% | 433.4hPa | 2.5V | 07:30:33 | 03:21:46 | 00:00:00 | |
| DL1XH-west | 2026-09-01 01:39:23 | 51.21486 | 8.96843 | 108° | 73km/h | 6787m | -2.8m/s | -22.5°C | 5.9% | 433.9hPa | 2.6V | 07:30:52 | 03:21:49 | 00:00:00 | |
| BIOWL1-15 | 2026-09-01 01:39:20 | 51.21522 | 8.96696 | 112° | 86km/h | 6802m | -3m/s | -22.6°C | 5.7% | 433hPa | 2.6V | 07:31:43 | 03:21:44 | 00:00:00 | |
| HSKMA3-T | 2026-09-01 01:39:17 | 51.21530 | 8.96663 | 112° | 88km/h | 6805m | -2.9m/s | -22.6°C | 5.7% | 432.9hPa | 2.6V | 07:30:52 | 03:21:43 | 00:00:00 | |
| DD1CC3-15 | 2026-09-01 01:39:16 | 51.21530 | 8.96663 | 113° | 88km/h | 6805m | -2.9m/s | -22.6°C | 5.4% | 432.8hPa | 2.5V | 07:30:00 | 00:00:00 | 00:00:00 | |
| DB0NH | 2026-09-01 01:39:15 | 51.21546 | 8.96595 | 109° | 88km/h | 6810m | -2.9m/s | -22.6°C | 6.1% | 432.4hPa | 2.5V | 07:30:00 | 03:21:41 | 00:00:00 | |
| DL1NUX | 2026-09-01 01:39:14 | 51.21577 | 8.96376 | 97° | 86km/h | 6828m | -2.9m/s | -22.8°C | 6% | 431.4hPa | 2.6V | 07:30:44 | 03:21:35 | 00:00:00 | |
| DL1XH-west | 2026-09-01 01:39:12 | 51.21566 | 8.96485 | 103° | 95km/h | 6819m | -2.9m/s | -22.7°C | 5.6% | 432hPa | 2.6V | 07:30:52 | 03:21:38 | 00:00:00 | |
| DM0DOS-11 | 2026-09-01 01:39:11 | 51.21574 | 8.96412 | 98° | 89km/h | 6825m | -2.9m/s | -22.8°C | 6% | 431.5hPa | 2.5V | 07:30:43 | 03:21:36 | 00:00:00 | |
| BIOWL1-15 | 2026-09-01 01:39:10 | 51.21574 | 8.96412 | 99° | 89km/h | 6825m | -2.9m/s | -22.8°C | 5.5% | 431.6hPa | 2.5V | 07:31:43 | 03:21:36 | 00:00:00 | |
| DB0DAN | 2026-09-01 01:39:10 | 51.21574 | 8.96412 | 99° | 86km/h | 6825m | -2.9m/s | -22.8°C | 5.3% | 431.55hPa | 2.5V | 00:00:00 | 00:00:00 | 00:00:00 | |
| HSKMA3-T | 2026-09-01 01:39:06 | 51.21586 | 8.96280 | 100° | 77km/h | 6836m | -2.7m/s | -22.9°C | 5.6% | 431hPa | 2.5V | 07:30:52 | 03:21:32 | 00:00:00 | |
| DL3AQ-11 | 2026-09-01 01:39:06 | 51.21590 | 8.96250 | 102° | 73km/h | 6839m | -2.6m/s | -22.9°C | 5.4% | 430.8hPa | 2.5V | 00:00:00 | 00:00:00 | 00:00:00 | |
| DL1NUX | 2026-09-01 01:39:04 | 51.21629 | 8.96072 | 112° | 84km/h | 6856m | -3.1m/s | -23°C | 5.9% | 429.8hPa | 2.5V | 07:30:54 | 03:21:25 | 00:00:00 | |
| DD8BA-10 | 2026-09-01 01:39:04 | 51.21595 | 8.96221 | 106° | 84km/h | 6842m | -2.8m/s | -22.9°C | 6.0% | 430.6hPa | 2.6V | 00:00:00 | 00:00:00 | 00:00:00 | |
| DJ2DS-15 | 2026-09-01 01:39:03 | 51.21600 | 8.96192 | 109° | 86km/h | 6844m | -2.9m/s | -22.9°C | 6.0% | 430.4hPa | 2.6V | 00:00:00 | 03:21:29 | 00:00:00 | |
| DL1XH1-15 | 2026-09-01 01:39:02 | 51.21621 | 8.96103 | 111° | 82km/h | 6853m | -3m/s | -23°C | 5.9% | 429.9hPa | 2.5V | 07:30:53 | 03:21:26 | 00:00:00 | |
| DL1XH-west | 2026-09-01 01:39:01 | 51.21614 | 8.96133 | 112° | 78km/h | 6850m | -3.1m/s | -23°C | 5.5% | 430.2hPa | 2.6V | 07:30:52 | 03:21:27 | 00:00:00 | |
| BIOWL1-15 | 2026-09-01 01:38:59 | 51.21629 | 8.96072 | 112° | 84km/h | 6856m | -3.1m/s | -23°C | 5.4% | 429.8hPa | 2.5V | 07:31:43 | 03:21:25 | 00:00:00 | |
| HSKMA3-T | 2026-09-01 01:38:56 | 51.21654 | 8.95974 | 111° | 91km/h | 6865m | -3.3m/s | -23.1°C | 5.3% | 429.2hPa | 2.5V | 07:31:43 | 03:21:22 | 00:00:00 | |
| DF7PN | 2026-09-01 01:38:55 | 51.21670 | 8.95903 | 107° | 95km/h | 6871m | -3.0m/s | -23.1°C | 5.2% | 428.9hPa | 2.5V | 00:00:00 | 00:00:00 | 00:00:00 | |
| DL1NUX | 2026-09-01 01:38:54 | 51.21695 | 8.95717 | 98° | 89km/h | 6886m | -2.8m/s | -23.1°C | 6.2% | 428.1hPa | 2.5V | 07:31:04 | 03:21:15 | 00:00:00 | |
| DL3AQ-11 | 2026-09-01 01:38:53 | 51.21682 | 8.95828 | 103° | 95km/h | 6878m | -2.9m/s | -23.2°C | 5.2% | 428.5hPa | 2.5V | 00:00:00 | 00:00:00 | 00:00:00 | |
| DL8DAS-14 | 2026-09-01 01:38:52 | 51.21682 | 8.95828 | 103° | 95km/h | 6878m | -2.9m/s | -23.2°C | 5.2% | 428.5hPa | 2.5V | 00:00:00 | 00:00:00 | 00:00:00 | |
| DM0DOS-11 | 2026-09-01 01:38:51 | 51.21692 | 8.95753 | 99° | 93km/h | 6883m | -2.9m/s | -23.1°C | 6.1% | 428.2hPa | 2.5V | 07:31:03 | 03:21:16 | 00:00:00 | |
| DL1XH-west | 2026-09-01 01:38:51 | 51.21687 | 8.95791 | 101° | 95km/h | 6880m | -2.9m/s | -23.2°C | 5.3% | 428.3hPa | 2.5V | 07:31:43 | 03:21:17 | 00:00:00 | |
| BIOWL1-15 | 2026-09-01 01:38:51 | 51.21695 | 8.95717 | 98° | 89km/h | 6886m | -2.8m/s | -23.1°C | 5.7% | 428.1hPa | 2.5V | 07:31:43 | 03:21:15 | 00:00:00 | |
| HSKMA3-T | 2026-09-01 01:38:46 | 51.21704 | 8.95617 | 100° | 78km/h | 6895m | -2.8m/s | -23°C | 7.6% | 427.6hPa | 2.6V | 07:31:43 | 03:21:12 | 00:00:00 | |
| DB0NH | 2026-09-01 01:38:45 | 51.21708 | 8.95586 | 102° | 84km/h | 6898m | -2.7m/s | -23.0°C | 8.1% | 427.4hPa | 2.6V | 00:00:00 | 03:21:11 | 00:00:00 | |
| DL1NUX | 2026-09-01 01:38:44 | 51.21745 | 8.95410 | 113° | 82km/h | 6915m | -3m/s | -23.2°C | 10.8% | 426.4hPa | 2.6V | 07:31:14 | 03:21:05 | 00:00:00 | |
| DJ2DS-15 | 2026-09-01 01:38:43 | 51.21723 | 8.95498 | 109° | 75km/h | 6906m | -3.0m/s | -23.1°C | 8.2% | 426.8hPa | 2.5V | 00:00:00 | 00:00:00 | 00:00:00 | |
| DL1XH1-15 | 2026-09-01 01:38:42 | 51.21737 | 8.95440 | 112° | 80km/h | 6912m | -2.9m/s | -23.1°C | 10.9% | 426.5hPa | 2.5V | 07:31:13 | 03:21:06 | 00:00:00 | |
| DL1XH-west | 2026-09-01 01:38:40 | 51.21737 | 8.95440 | 112° | 80km/h | 6912m | -2.9m/s | -23.2°C | 12% | 426.5hPa | 2.5V | 07:31:43 | 03:21:06 | 00:00:00 | |
| BIOWL1-15 | 2026-09-01 01:38:38 | 51.21771 | 8.95312 | 112° | 91km/h | 6924m | -2.9m/s | -23.1°C | 9% | 425.7hPa | 2.5V | 07:31:43 | 03:21:02 | 00:00:00 | |
| HSKMA3-T | 2026-09-01 01:38:35 | 51.21780 | 8.95277 | 111° | 95km/h | 6927m | -2.9m/s | -23.2°C | 9.1% | 425.6hPa | 2.5V | 07:31:43 | 03:21:01 | 00:00:00 | |
| DL1NUX | 2026-09-01 01:38:34 | 51.21819 | 8.95056 | 100° | 91km/h | 6945m | -3m/s | -23.2°C | 10.9% | 424.7hPa | 2.5V | 07:31:24 | 03:20:55 | 00:00:00 | |
| DO2JMG | 2026-09-01 01:38:31 | 51.21809 | 8.95130 | 104° | 95km/h | 6939m | -2.8m/s | -23.2°C | 10.7% | 424.9hPa | 2.6V | 07:33:25 | 03:20:57 | 00:00:00 | |
| DL1XH-west | 2026-09-01 01:38:29 | 51.21819 | 8.95056 | 101° | 91km/h | 6945m | -3m/s | -23.3°C | 11.8% | 424.7hPa | 2.5V | 07:31:43 | 03:20:55 | 00:00:00 | |
| BIOWL1-15 | 2026-09-01 01:38:26 | 51.21830 | 8.94953 | 101° | 82km/h | 6954m | -2.9m/s | -23.3°C | 12.3% | 424.1hPa | 2.5V | 07:31:43 | 03:20:52 | 00:00:00 | |
| HSKMA3-T | 2026-09-01 01:38:25 | 51.21834 | 8.94921 | 102° | 80km/h | 6957m | -3m/s | -23.3°C | 12.5% | 423.9hPa | 2.5V | 07:31:43 | 03:20:51 | 00:00:00 | |
| DL1NUX | 2026-09-01 01:38:24 | 51.21871 | 8.94743 | 114° | 80km/h | 6975m | -3.2m/s | -23.4°C | 13.3% | 422.9hPa | 2.5V | 07:31:34 | 03:20:45 | 00:00:00 | |
| DL1XH-west | 2026-09-01 01:38:19 | 51.21871 | 8.94743 | 114° | 80km/h | 6975m | -3.2m/s | -23.4°C | 15.1% | 422.9hPa | 2.5V | 07:31:43 | 03:20:45 | 00:00:00 | |
| BIOWL1-15 | 2026-09-01 01:38:16 | 51.21897 | 8.94651 | 115° | 88km/h | 6984m | -2.9m/s | -23.5°C | 15.7% | 422.3hPa | 2.6V | 07:31:43 | 03:20:42 | 00:00:00 | |
| HSKMA3-T | 2026-09-01 01:38:14 | 51.21916 | 8.94585 | 114° | 93km/h | 6990m | -3m/s | -23.5°C | 16.2% | 422hPa | 2.5V | 07:31:43 | 03:20:40 | 00:00:00 | |
| DL3AQ-11 | 2026-09-01 01:38:13 | 51.21934 | 8.94514 | 109° | 95km/h | 6996m | -2.7m/s | -23.6°C | 13.5% | 421.7hPa | 2.6V | 00:00:00 | 00:00:00 | 00:00:00 | |
| DJ8HS-15 | 2026-09-01 01:38:12 | 51.21934 | 8.94514 | 110° | 84km/h | 6996m | -2.7m/s | -23.5°C | 14.6% | 421.7hPa | 2.6V | 00:00:00 | 03:20:38 | 00:00:00 | |
| DM0DOS-11 | 2026-09-01 01:38:11 | 51.21949 | 8.94440 | 105° | 97km/h | 7002m | -3m/s | -23.6°C | 15% | 421.3hPa | 2.6V | 07:31:43 | 03:20:36 | 00:00:00 | |
| DL1XH-west | 2026-09-01 01:38:09 | 51.21955 | 8.94402 | 104° | 95km/h | 7005m | -3m/s | -23.7°C | 16.7% | 421.2hPa | 2.5V | 07:32:34 | 03:20:35 | 00:00:00 | |
| BIOWL1-15 | 2026-09-01 01:38:05 | 51.21975 | 8.94260 | 102° | 86km/h | 7017m | -3.1m/s | -23.7°C | 17.2% | 420.5hPa | 2.5V | 07:33:25 | 03:20:31 | 00:00:00 | |
| HSKMA3-T | 2026-09-01 01:38:04 | 51.21979 | 8.94227 | 102° | 82km/h | 7020m | -3m/s | -23.8°C | 17.1% | 420.3hPa | 2.5V | 07:32:34 | 03:20:30 | 00:00:00 | |
| DJ2DS-15 | 2026-09-01 01:38:03 | 51.21983 | 8.94195 | 103° | 86km/h | 7023m | -3.0m/s | -23.7°C | 15.2% | 420.0hPa | 2.6V | 00:00:00 | 03:20:29 | 00:00:00 | |
| DL1XH1-15 | 2026-09-01 01:38:02 | 51.21997 | 8.94104 | 105° | 75km/h | 7032m | -3m/s | -23.9°C | 15.2% | 419.5hPa | 2.5V | 07:31:53 | 03:20:26 | 00:00:00 | |
| DL1XH-west | 2026-09-01 01:37:58 | 51.22009 | 8.94046 | 110° | 75km/h | 7038m | -3.1m/s | -23.9°C | 17.2% | 419.2hPa | 2.5V | 07:32:34 | 03:20:24 | 00:00:00 | |
| BIOWL1-15 | 2026-09-01 01:37:57 | 51.22031 | 8.93961 | 115° | 78km/h | 7048m | -3.2m/s | -24°C | 17.3% | 418.6hPa | 2.6V | 07:33:25 | 03:20:21 | 00:00:00 | |
| DL1ZP-14 | 2026-09-01 01:37:55 | 51.22031 | 8.93961 | 114° | 78km/h | 7048m | -3.2m/s | -24.0°C | 14.0% | 418.6hPa | 2.6V | 00:00:00 | 00:00:00 | 00:00:00 | |
| DL1NUX | 2026-09-01 01:37:54 | 51.22086 | 8.93769 | 111° | 95km/h | 7066m | -3.2m/s | -24.1°C | 15.1% | 417.6hPa | 2.6V | 07:32:04 | 03:20:15 | 00:00:00 | |
| HSKMA3-T | 2026-09-01 01:37:53 | 51.22048 | 8.93902 | 115° | 84km/h | 7054m | -3m/s | -24.1°C | 17.2% | 418.4hPa | 2.5V | 07:32:34 | 03:20:19 | 00:00:00 | |
| DO2JMG | 2026-09-01 01:37:52 | 51.22058 | 8.93870 | 115° | 88km/h | 7057m | -3m/s | -24.1°C | 17.2% | 418.2hPa | 2.5V | 07:33:25 | 03:20:18 | 00:00:00 | |
| DJ8HS-15 | 2026-09-01 01:37:52 | 51.22058 | 8.93870 | 116° | 88km/h | 7057m | -2.9m/s | -24.0°C | 15.2% | 418.2hPa | 2.6V | 00:00:00 | 03:20:18 | 00:00:00 | |
| DM0DOS-11 | 2026-09-01 01:37:51 | 51.22077 | 8.93804 | 113° | 93km/h | 7063m | -3m/s | -24.1°C | 15.1% | 417.8hPa | 2.6V | 07:32:03 | 03:20:16 | 00:00:00 | |
| DL1XH-west | 2026-09-01 01:37:47 | 51.22103 | 8.93696 | 109° | 97km/h | 7073m | -3.2m/s | -24.2°C | 17.1% | 417.2hPa | 2.5V | 07:32:34 | 03:20:13 | 00:00:00 | |
| DL3AQ-11 | 2026-09-01 01:37:46 | 51.22118 | 8.93622 | 105° | 95km/h | 7079m | -3.4m/s | -24.3°C | 13.8% | 416.9hPa | 2.6V | 00:00:00 | 00:00:00 | 00:00:00 | |
| DB0NH | 2026-09-01 01:37:45 | 51.22118 | 8.93622 | 106° | 86km/h | 7079m | -3.4m/s | -24.2°C | 14.9% | 416.8hPa | 2.6V | 00:00:00 | 03:20:11 | 00:00:00 | |
| DL1NUX | 2026-09-01 01:37:44 | 51.22147 | 8.93413 | 102° | 78km/h | 7098m | -3m/s | -24.4°C | 14.8% | 415.8hPa | 2.5V | 07:32:14 | 03:20:05 | 00:00:00 | |
| HSKMA3-T | 2026-09-01 01:37:43 | 51.22129 | 8.93548 | 103° | 91km/h | 7086m | -3.3m/s | -24.3°C | 16.9% | 416.5hPa | 2.5V | 07:32:34 | 03:20:09 | 00:00:00 | |
| DJ2DS-15 | 2026-09-01 01:37:43 | 51.22129 | 8.93548 | 103° | 86km/h | 7086m | -3.2m/s | -24.2°C | 14.9% | 416.4hPa | 2.5V | 00:00:00 | 03:20:09 | 00:00:00 | |
| DL1XH1-15 | 2026-09-01 01:37:42 | 51.22142 | 8.93445 | 101° | 82km/h | 7095m | -3.2m/s | -24.4°C | 14.8% | 416hPa | 2.5V | 07:32:13 | 03:20:06 | 00:00:00 | |
| DO3DL | 2026-09-01 01:37:41 | 51.22134 | 8.93512 | 103° | 89km/h | 7089m | -3.2m/s | -24.3°C | 13.8% | 416.3hPa | 2.5V | 07:32:00 | 00:00:00 | 00:00:00 | |
| DB0DAN | 2026-09-01 01:37:40 | 51.22143 | 8.93445 | 101° | 78km/h | 7095m | -3.2m/s | -24.4°C | 13.7% | 415.99hPa | 2.5V | 00:00:00 | 00:00:00 | 00:00:00 | |
| DL1XH-west | 2026-09-01 01:37:37 | 51.22163 | 8.93325 | 111° | 75km/h | 7108m | -3m/s | -24.5°C | 16.6% | 415.3hPa | 2.6V | 07:32:34 | 03:20:02 | 00:00:00 | |
| DO3DL | 2026-09-01 01:37:35 | 51.22163 | 8.93325 | 112° | 75km/h | 7108m | -3.0m/s | -24.5°C | 13.7% | 415.3hPa | 2.5V | 07:32:00 | 00:00:00 | 00:00:00 | |
| DL1NUX | 2026-09-01 01:37:34 | 51.22224 | 8.93117 | 115° | 89km/h | 7130m | -3.5m/s | -24.6°C | 14.7% | 414.1hPa | 2.5V | 07:32:24 | 03:19:55 | 00:00:00 | |
| HSKMA3-T | 2026-09-01 01:37:32 | 51.22196 | 8.93210 | 116° | 82km/h | 7120m | -3.3m/s | -24.5°C | 16.6% | 414.6hPa | 2.6V | 07:32:34 | 03:19:58 | 00:00:00 | |
| DJ8HS-15 | 2026-09-01 01:37:32 | 51.22195 | 8.93210 | 117° | 88km/h | 7120m | -3.3m/s | -24.5°C | 14.9% | 414.5hPa | 2.6V | 00:00:00 | 03:19:58 | 00:00:00 | |
| DM0DOS-11 | 2026-09-01 01:37:31 | 51.22215 | 8.93149 | 116° | 88km/h | 7127m | -3.3m/s | -24.6°C | 14.7% | 414.2hPa | 2.6V | 07:32:23 | 03:19:56 | 00:00:00 | |
| BIOWL1-15 | 2026-09-01 01:37:31 | 51.22205 | 8.93180 | 116° | 86km/h | 7123m | -3.2m/s | -24.5°C | 16.6% | 414.4hPa | 2.6V | 07:33:25 | 03:19:57 | 00:00:00 | |
| DL1XH-west | 2026-09-01 01:37:26 | 51.22253 | 8.93015 | 112° | 95km/h | 7140m | -3.4m/s | -24.7°C | 17% | 413.5hPa | 2.6V | 07:32:34 | 03:19:52 | 00:00:00 | |
| DB0DAN | 2026-09-01 01:37:25 | 51.22261 | 8.92978 | 110° | 91km/h | 7143m | -3.3m/s | -24.7°C | 13.8% | 413.32hPa | 2.6V | 00:00:00 | 00:00:00 | 00:00:00 | |
| DL1NUX | 2026-09-01 01:37:24 | 51.22295 | 8.92762 | 100° | 84km/h | 7162m | -3.2m/s | -24.8°C | 16% | 412.2hPa | 2.6V | 07:32:34 | 03:19:45 | 00:00:00 | |
| DL1ZP-14 | 2026-09-01 01:37:24 | 51.22276 | 8.92905 | 105° | 95km/h | 7149m | -3.1m/s | -24.7°C | 14.1% | 412.9hPa | 2.5V | 00:00:00 | 00:00:00 | 00:00:00 | |
| DL1XH1-15 | 2026-09-01 01:37:22 | 51.22291 | 8.92796 | 100° | 88km/h | 7159m | -3m/s | -24.8°C | 15.9% | 412.4hPa | 2.6V | 07:32:33 | 03:19:46 | 00:00:00 | |
| HSKMA3-T | 2026-09-01 01:37:22 | 51.22282 | 8.92868 | 103° | 93km/h | 7153m | -3.2m/s | -24.7°C | 17.7% | 412.7hPa | 2.5V | 07:32:34 | 03:19:48 | 00:00:00 | |
| BIOWL1-15 | 2026-09-01 01:37:21 | 51.22287 | 8.92831 | 102° | 91km/h | 7156m | -3.1m/s | -24.8°C | 17.8% | 412.6hPa | 2.5V | 07:33:25 | 03:19:47 | 00:00:00 | |
| DL1XH-west | 2026-09-01 01:37:15 | 51.22315 | 8.92641 | 110° | 77km/h | 7175m | -3.2m/s | -24.9°C | 17.9% | 411.6hPa | 2.6V | 07:33:25 | 03:19:41 | 00:00:00 | |
| DD1CC8 | 2026-09-01 01:37:15 | 51.22322 | 8.92612 | 112° | 77km/h | 7178m | -3.0m/s | -24.9°C | 14.8% | 411.3hPa | 2.5V | 00:00:00 | 00:00:00 | 00:00:00 | |
| DL1NUX | 2026-09-01 01:37:14 | 51.22366 | 8.92454 | 113° | 93km/h | 7193m | -3.2m/s | -25°C | 16.9% | 410.5hPa | 2.5V | 07:32:44 | 03:19:35 | 00:00:00 | |
| HSKMA3-T | 2026-09-01 01:37:12 | 51.22338 | 8.92552 | 115° | 84km/h | 7184m | -3m/s | -25°C | 18.1% | 411hPa | 2.5V | 07:33:25 | 03:19:38 | 00:00:00 | |
| BIOWL1-15 | 2026-09-01 01:37:08 | 51.22375 | 8.92419 | 112° | 95km/h | 7196m | -3.2m/s | -25.1°C | 19.2% | 410.2hPa | 2.5V | 07:33:25 | 03:19:34 | 00:00:00 | |
| DL1XH-west | 2026-09-01 01:37:05 | 51.22401 | 8.92310 | 109° | 97km/h | 7206m | -3.4m/s | -25.2°C | 20% | 409.7hPa | 2.6V | 07:33:25 | 03:19:31 | 00:00:00 | |
| DL1LOL-11 | 2026-09-01 01:37:04 | 51.22401 | 8.92310 | 110° | 97km/h | 7206m | -3.4m/s | -25.2°C | 16.4% | 409.7hPa | 2.5V | 07:33:00 | 00:00:00 | 00:00:00 | |
| DJ2DS-15 | 2026-09-01 01:37:03 | 51.22416 | 8.92235 | 107° | 88km/h | 7213m | -3.4m/s | -25.2°C | 18.0% | 409.2hPa | 2.5V | 07:32:00 | 03:19:29 | 00:00:00 | |
| DL1XH1-15 | 2026-09-01 01:37:02 | 51.22435 | 8.92122 | 102° | 97km/h | 7224m | -3.5m/s | -25.3°C | 18.9% | 408.7hPa | 2.6V | 07:32:53 | 03:19:26 | 00:00:00 | |
| HSKMA3-T | 2026-09-01 01:37:01 | 51.22429 | 8.92159 | 104° | 97km/h | 7220m | -3.5m/s | -25.3°C | 21.3% | 408.8hPa | 2.6V | 07:33:25 | 03:19:27 | 00:00:00 | |
| BIOWL1-15 | 2026-09-01 01:36:58 | 51.22444 | 8.92048 | 100° | 91km/h | 7231m | -3.3m/s | -25.4°C | 21.5% | 408.3hPa | 2.5V | 07:33:25 | 03:19:24 | 00:00:00 | |
| DL1XH-west | 2026-09-01 01:36:54 | 51.22459 | 8.91915 | 103° | 77km/h | 7244m | -3.1m/s | -25.5°C | 20.8% | 407.7hPa | 2.6V | 07:33:25 | 03:19:20 | 00:00:00 | |
| DL1ZP-14 | 2026-09-01 01:36:53 | 51.22470 | 8.91855 | 108° | 77km/h | 7250m | -3.1m/s | -25.5°C | 16.8% | 407.3hPa | 2.5V | 00:00:00 | 00:00:00 | 00:00:00 | |
| DJ8HS-15 | 2026-09-01 01:36:52 | 51.22469 | 8.91855 | 109° | 91km/h | 7250m | -3.0m/s | -25.5°C | 18.2% | 407.3hPa | 2.5V | 00:00:00 | 03:19:18 | 00:00:00 | |
| DM0DOS-11 | 2026-09-01 01:36:51 | 51.22483 | 8.91795 | 111° | 82km/h | 7256m | -3.2m/s | -25.6°C | 18.1% | 406.9hPa | 2.5V | 07:33:03 | 03:19:16 | 00:00:00 | |
| HSKMA3-T | 2026-09-01 01:36:51 | 51.22476 | 8.91825 | 110° | 78km/h | 7253m | -3.3m/s | -25.6°C | 20.5% | 407.1hPa | 2.5V | 07:33:25 | 03:19:17 | 00:00:00 | |
| BIOWL1-15 | 2026-09-01 01:36:47 | 51.22508 | 8.91698 | 112° | 91km/h | 7266m | -3.2m/s | -25.7°C | 20.4% | 406.3hPa | 2.6V | 07:33:25 | 03:19:13 | 00:00:00 | |
| DO2JMG | 2026-09-01 01:36:46 | 51.22517 | 8.91663 | 111° | 95km/h | 7269m | -3.2m/s | -25.7°C | 20.4% | 406.2hPa | 2.5V | 07:33:25 | 03:19:12 | 00:00:00 | |
| DB0NH | 2026-09-01 01:36:45 | 51.22525 | 8.91627 | 111° | 93km/h | 7272m | -3.3m/s | -25.7°C | 18.3% | 405.9hPa | 2.5V | 00:00:00 | 03:19:11 | 00:00:00 | |
| DL1NUX | 2026-09-01 01:36:44 | 51.22566 | 8.91398 | 100° | 99km/h | 7293m | -3.4m/s | -25.9°C | 18.2% | 404.7hPa | 2.5V | 07:33:14 | 03:19:05 | 00:00:00 | |
| DL1XH-west | 2026-09-01 01:36:43 | 51.22542 | 8.91553 | 107° | 99km/h | 7279m | -3.4m/s | -25.8°C | 20.6% | 405.6hPa | 2.6V | 07:33:25 | 03:19:09 | 00:00:00 | |
| DJ2DS-15 | 2026-09-01 01:36:43 | 51.22542 | 8.91553 | 108° | 89km/h | 7279m | -3.3m/s | -25.7°C | 18.2% | 405.5hPa | 2.5V | 00:00:00 | 03:19:09 | 00:00:00 | |
| DL1XH1-15 | 2026-09-01 01:36:42 | 51.22561 | 8.91437 | 102° | 99km/h | 7289m | -3.4m/s | -25.9°C | 18.2% | 405hPa | 2.5V | 07:33:13 | 03:19:06 | 00:00:00 | |
| HSKMA3-T | 2026-09-01 01:36:41 | 51.22555 | 8.91476 | 104° | 99km/h | 7286m | -3.3m/s | -25.8°C | 20.8% | 405.2hPa | 2.6V | 07:33:25 | 03:19:07 | 00:00:00 | |
| BIOWL1-15 | 2026-09-01 01:36:39 | 51.22574 | 8.91322 | 98° | 93km/h | 7300m | -3.3m/s | -26°C | 21% | 404.4hPa | 2.6V | 07:33:25 | 03:19:03 | 00:00:00 | |
| DO2JMG | 2026-09-01 01:36:36 | 51.22577 | 8.91286 | 98° | 91km/h | 7303m | -3.4m/s | -26°C | 21% | 404.2hPa | 2.6V | 07:33:25 | 03:19:02 | 00:00:00 | |
| DL0LBS | 2026-09-01 01:36:35 | 51.22577 | 8.91286 | 99° | 91km/h | 7303m | -3.4m/s | 0°C | 0% | 0hPa | 2.6V | 07:33:00 | 00:00:00 | 00:00:00 | |
| DL1NUX | 2026-09-01 01:36:34 | 51.22602 | 8.91056 | 106° | 78km/h | 7326m | -3.1m/s | -26.2°C | 18.4% | 403hPa | 2.6V | 07:33:24 | 03:18:55 | 00:00:00 | |
| DL1XH-west | 2026-09-01 01:36:33 | 51.22586 | 8.91182 | 98° | 82km/h | 7313m | -3.5m/s | -26.1°C | 20.7% | 403.7hPa | 2.5V | 07:33:25 | 03:18:59 | 00:00:00 | |
| HSKMA3-T | 2026-09-01 01:36:30 | 51.22597 | 8.91086 | 104° | 78km/h | 7323m | -3.3m/s | -26.2°C | 20.6% | 403.1hPa | 2.6V | 07:33:25 | 03:18:56 | 00:00:00 | |
| BIOWL1-15 | 2026-09-01 01:36:26 | 51.22624 | 8.90961 | 111° | 86km/h | 7337m | -3.4m/s | -26.3°C | 21.1% | 402.5hPa | 2.5V | 07:34:16 | 03:18:52 | 00:00:00 | |
| DB0DAN | 2026-09-01 01:36:25 | 51.22632 | 8.90928 | 111° | 86km/h | 7340m | -3.4m/s | -26.3°C | 17.2% | 402.22hPa | 2.6V | 00:00:00 | 00:00:00 | 00:00:00 | |
| DO2JMG | 2026-09-01 01:36:25 | 51.22632 | 8.90928 | 111° | 89km/h | 7340m | -3.4m/s | -26.3°C | 21.2% | 402.2hPa | 2.6V | 07:34:16 | 03:18:51 | 00:00:00 | |
| DL1NUX | 2026-09-01 01:36:24 | 51.22677 | 8.90706 | 103° | 100km/h | 7360m | -3.5m/s | -26.5°C | 18.9% | 401.1hPa | 2.6V | 07:33:34 | 03:18:45 | 00:00:00 | |
| DL1XH-west | 2026-09-01 01:36:22 | 51.22664 | 8.90784 | 107° | 100km/h | 7354m | -3.4m/s | -26.4°C | 21.3% | 401.5hPa | 2.5V | 07:34:16 | 03:18:47 | 00:00:00 | |
| HSKMA3-T | 2026-09-01 01:36:20 | 51.22671 | 8.90745 | 105° | 100km/h | 7357m | -3.3m/s | -26.5°C | 21.4% | 401.2hPa | 2.5V | 07:34:16 | 03:18:46 | 00:00:00 | |
| BIOWL1-15 | 2026-09-01 01:36:17 | 51.22696 | 8.90549 | 99° | 95km/h | 7374m | -3.4m/s | -26.6°C | 21.8% | 400.3hPa | 2.5V | 07:34:16 | 03:18:41 | 00:00:00 | |
| DB0NH | 2026-09-01 01:36:15 | 51.22696 | 8.90549 | 99° | 89km/h | 7374m | -3.3m/s | -26.6°C | 19.5% | 400.2hPa | 2.5V | 00:00:00 | 03:18:41 | 00:00:00 | |
| DL1NUX | 2026-09-01 01:36:14 | 51.22716 | 8.90342 | 101° | 78km/h | 7394m | -3.5m/s | -26.8°C | 21% | 399.1hPa | 2.5V | 07:33:44 | 03:18:35 | 00:00:00 | |
| DO2JMG | 2026-09-01 01:36:14 | 51.22700 | 8.90511 | 98° | 93km/h | 7377m | -3.6m/s | -26.7°C | 22% | 400.1hPa | 2.5V | 07:34:16 | 03:18:40 | 00:00:00 | |
| DL1XH-west | 2026-09-01 01:36:10 | 51.22712 | 8.90374 | 100° | 80km/h | 7391m | -3.4m/s | -26.8°C | 23.5% | 399.4hPa | 2.5V | 07:34:16 | 03:18:36 | 00:00:00 | |
| HSKMA3-T | 2026-09-01 01:36:09 | 51.22716 | 8.90342 | 102° | 80km/h | 7394m | -3.5m/s | -26.8°C | 23.8% | 399.2hPa | 2.5V | 07:34:16 | 03:18:35 | 00:00:00 | |
| DO3DL | 2026-09-01 01:36:08 | 51.22716 | 8.90342 | 103° | 80km/h | 7394m | -3.5m/s | -26.8°C | 19.4% | 399.2hPa | 2.6V | 07:34:00 | 00:00:00 | 00:00:00 | |
| DB0ND-19 | 2026-09-01 01:36:07 | 51.22725 | 8.90280 | 105° | 77km/h | 7401m | -3.4m/s | -26.9°C | 19.6% | 398.8hPa | 2.6V | 00:00:00 | 00:00:00 | 00:00:00 | |
| DO2KSM | 2026-09-01 01:36:06 | 51.22725 | 8.90280 | 106° | 78km/h | 7401m | -3.4m/s | -26.9°C | 19.6% | 398.7hPa | 2.6V | 07:34:00 | 00:00:00 | 00:00:00 | |
| DO9LL-15 | 2026-09-01 01:36:05 | 51.22736 | 8.90219 | 108° | 88km/h | 7408m | -3.8m/s | -26.9°C | 21.1% | 398.3hPa | 2.6V | 00:00:00 | 03:18:31 | 00:00:00 | |
| DL1NUX | 2026-09-01 01:36:04 | 51.22781 | 8.90026 | 110° | 95km/h | 7430m | -3.3m/s | -27.1°C | 21.2% | 397.2hPa | 2.6V | 07:33:54 | 03:18:25 | 00:00:00 | |
| BIOWL1-15 | 2026-09-01 01:36:04 | 51.22743 | 8.90189 | 109° | 80km/h | 7412m | -3.9m/s | -27°C | 24.1% | 398.2hPa | 2.5V | 07:34:16 | 03:18:30 | 00:00:00 | |
| DL1XH-west | 2026-09-01 01:35:59 | 51.22781 | 8.90026 | 111° | 95km/h | 7430m | -3.3m/s | -27.1°C | 23.7% | 397.2hPa | 2.6V | 07:34:16 | 03:18:25 | 00:00:00 | |
| HSKMA3-T | 2026-09-01 01:35:58 | 51.22790 | 8.89990 | 109° | 97km/h | 7433m | -3.3m/s | -27.2°C | 23.7% | 396.9hPa | 2.5V | 07:34:16 | 03:18:24 | 00:00:00 | |
| BIOWL1-15 | 2026-09-01 01:35:56 | 51.22817 | 8.89836 | 103° | 99km/h | 7447m | -3.7m/s | -27.3°C | 23.7% | 396.3hPa | 2.6V | 07:34:16 | 03:18:20 | 00:00:00 | |
| BUE01 | 2026-09-01 01:35:55 | 51.22817 | 8.89836 | 102° | 99km/h | 7447m | -3.7m/s | -27.3°C | 19.5% | 396.3hPa | 2.5V | 00:00:00 | 00:00:00 | 00:00:00 | |
| DL3OBA | 2026-09-01 01:35:53 | 51.22817 | 8.89836 | 104° | 99km/h | 7447m | -3.7m/s | -27.3°C | 19.5% | 396.3hPa | 2.5V | 07:34:00 | 00:00:00 | 00:00:00 | |
| DL1XH1-15 | 2026-09-01 01:35:52 | 51.22834 | 8.89684 | 97° | 91km/h | 7461m | -3.8m/s | -27.4°C | 21.1% | 395.5hPa | 2.5V | 07:34:03 | 03:18:16 | 00:00:00 | |
| DL1XH-west | 2026-09-01 01:35:49 | 51.22837 | 8.89648 | 98° | 89km/h | 7465m | -3.6m/s | -27.4°C | 23.5% | 395.3hPa | 2.6V | 07:34:16 | 03:18:15 | 00:00:00 | |
| HSKMA3-T | 2026-09-01 01:35:48 | 51.22840 | 8.89613 | 98° | 88km/h | 7468m | -3.7m/s | -27.4°C | 23.4% | 395.1hPa | 2.6V | 07:34:16 | 03:18:14 | 00:00:00 | |
| DL8DAS-14 | 2026-09-01 01:35:46 | 51.22846 | 8.89545 | 97° | 82km/h | 7476m | -3.6m/s | -27.5°C | 18.8% | 394.7hPa | 2.5V | 00:00:00 | 00:00:00 | 00:00:00 | |
| DB0NH | 2026-09-01 01:35:45 | 51.22849 | 8.89512 | 99° | 84km/h | 7479m | -3.6m/s | -27.4°C | 19.9% | 394.4hPa | 2.5V | 00:00:00 | 03:18:11 | 00:00:00 | |
| DL1NUX | 2026-09-01 01:35:44 | 51.22874 | 8.89330 | 108° | 77km/h | 7501m | -3.5m/s | -27.6°C | 19.4% | 393.3hPa | 2.5V | 07:34:14 | 03:18:05 | 00:00:00 | |
| BIOWL1-15 | 2026-09-01 01:35:44 | 51.22852 | 8.89481 | 99° | 80km/h | 7483m | -3.7m/s | -27.5°C | 22.4% | 394.3hPa | 2.5V | 07:34:16 | 03:18:10 | 00:00:00 | |
| DJ2DS-15 | 2026-09-01 01:35:43 | 51.22855 | 8.89449 | 101° | 86km/h | 7486m | -3.5m/s | -27.4°C | 19.5% | 394.0hPa | 2.5V | 00:00:00 | 03:18:09 | 00:00:00 | |
| DL1XH1-15 | 2026-09-01 01:35:42 | 51.22868 | 8.89359 | 106° | 77km/h | 7497m | -3.5m/s | -27.6°C | 19.4% | 393.5hPa | 2.5V | 07:34:13 | 03:18:06 | 00:00:00 | |
| DL1XH-west | 2026-09-01 01:35:38 | 51.22881 | 8.89300 | 110° | 78km/h | 7504m | -3.5m/s | -27.6°C | 21.9% | 393.1hPa | 2.5V | 07:34:16 | 03:18:04 | 00:00:00 | |
| HSKMA3-T | 2026-09-01 01:35:37 | 51.22888 | 8.89270 | 112° | 82km/h | 7508m | -3.7m/s | -27.7°C | 21.9% | 392.9hPa | 2.6V | 07:34:16 | 03:18:03 | 00:00:00 | |
| DB0ND-19 | 2026-09-01 01:35:36 | 51.22896 | 8.89239 | 112° | 84km/h | 7511m | -3.7m/s | -27.7°C | 17.9% | 392.7hPa | 2.6V | 00:00:00 | 00:00:00 | 00:00:00 | |
| DL1NUX | 2026-09-01 01:35:34 | 51.22946 | 8.88987 | 101° | 97km/h | 7536m | -3.7m/s | -27.9°C | 19.9% | 391.4hPa | 2.6V | 07:34:24 | 03:17:55 | 00:00:00 | |
| BIOWL1-15 | 2026-09-01 01:35:33 | 51.22921 | 8.89138 | 110° | 95km/h | 7522m | -3.4m/s | -27.8°C | 22.1% | 392.1hPa | 2.6V | 07:35:07 | 03:17:59 | 00:00:00 | |
| DL1XH1-15 | 2026-09-01 01:35:32 | 51.22941 | 8.89026 | 102° | 99km/h | 7533m | -3.7m/s | -27.9°C | 19.8% | 391.6hPa | 2.5V | 07:34:23 | 03:17:56 | 00:00:00 | |
| DL1XH-west | 2026-09-01 01:35:27 | 51.22954 | 8.88912 | 98° | 91km/h | 7543m | -3.7m/s | -28°C | 22.5% | 391hPa | 2.5V | 07:35:07 | 03:17:53 | 00:00:00 | |
| DO2JMG | 2026-09-01 01:35:26 | 51.22957 | 8.88876 | 97° | 88km/h | 7547m | -3.4m/s | -28°C | 22.4% | 390.9hPa | 2.5V | 07:35:07 | 03:17:52 | 00:00:00 | |
| SONCRA | 2026-09-01 01:35:26 | 51.22957 | 8.88876 | 97° | 88km/h | 7547m | -3.4m/s | -28.0°C | 18.2% | 390.9hPa | 2.5V | 00:00:00 | 00:00:00 | 00:00:00 | |
| DO2KSM | 2026-09-01 01:35:25 | 51.22957 | 8.88876 | 98° | 88km/h | 7547m | -3.4m/s | -28.0°C | 18.2% | 390.9hPa | 2.5V | 07:35:00 | 00:00:00 | 00:00:00 | |
| DL1NUX | 2026-09-01 01:35:24 | 51.22981 | 8.88656 | 106° | 75km/h | 7572m | -3.6m/s | -28.2°C | 19.4% | 389.4hPa | 2.5V | 07:34:34 | 03:17:45 | 00:00:00 | |
| BIOWL1-15 | 2026-09-01 01:35:22 | 51.22968 | 8.88745 | 100° | 77km/h | 7561m | -3.6m/s | -28.1°C | 22.2% | 390.1hPa | 2.5V | 07:35:07 | 03:17:48 | 00:00:00 | |
| DM0DOS-11 | 2026-09-01 01:35:20 | 51.22976 | 8.88686 | 103° | 75km/h | 7569m | -3.5m/s | -28.1°C | 19.4% | 389.6hPa | 2.6V | 07:34:33 | 03:17:46 | 00:00:00 | |
| DL1XH-west | 2026-09-01 01:35:17 | 51.22993 | 8.88598 | 111° | 78km/h | 7579m | -3.7m/s | -28.2°C | 21.9% | 389hPa | 2.5V | 07:35:07 | 03:17:43 | 00:00:00 | |
| DO2JMG | 2026-09-01 01:35:16 | 51.23000 | 8.88567 | 111° | 82km/h | 7583m | -3.5m/s | -28.2°C | 21.8% | 388.9hPa | 2.6V | 07:35:07 | 03:17:42 | 00:00:00 | |
| DL1XH1-15 | 2026-09-01 01:35:15 | 51.23048 | 8.88364 | 107° | 97km/h | 7605m | -3.7m/s | -28.4°C | 19.5% | 387.6hPa | 2.6V | 07:34:43 | 03:17:36 | 00:00:00 | |
| NBG1-10 | 2026-09-01 01:35:15 | 51.23008 | 8.88536 | 112° | 86km/h | 7587m | -3.6m/s | -28.2°C | 19.1% | 388.6hPa | 2.6V | 00:00:00 | 03:17:41 | 00:00:00 | |
| DL1NUX | 2026-09-01 01:35:14 | 51.23055 | 8.88327 | 105° | 97km/h | 7609m | -3.7m/s | -28.4°C | 19.6% | 387.4hPa | 2.6V | 07:34:44 | 03:17:35 | 00:00:00 | |
| BIOWL1-15 | 2026-09-01 01:35:11 | 51.23067 | 8.88252 | 102° | 95km/h | 7616m | -3.6m/s | -28.5°C | 22.4% | 387.1hPa | 2.5V | 07:35:07 | 03:17:33 | 00:00:00 | |
| DB0DAN | 2026-09-01 01:35:10 | 51.23048 | 8.88364 | 107° | 91km/h | 7605m | -3.7m/s | -28.4°C | 17.9% | 387.65hPa | 2.6V | 00:00:00 | 00:00:00 | 00:00:00 | |
| DL1XH-west | 2026-09-01 01:35:06 | 51.23071 | 8.88214 | 100° | 93km/h | 7620m | -3.8m/s | -28.5°C | 22.4% | 386.9hPa | 2.5V | 07:35:07 | 03:17:32 | 00:00:00 | |
| DB0ND-19 | 2026-09-01 01:35:05 | 51.23075 | 8.88177 | 98° | 91km/h | 7623m | -3.7m/s | -28.5°C | 18.2% | 386.7hPa | 2.5V | 00:00:00 | 00:00:00 | 00:00:00 | |
| DL1NUX | 2026-09-01 01:35:04 | 51.23092 | 8.87980 | 99° | 75km/h | 7646m | -3.7m/s | -28.7°C | 19.9% | 385.5hPa | 2.5V | 07:34:54 | 03:17:25 | 00:00:00 | |
| BIOWL1-15 | 2026-09-01 01:35:00 | 51.23088 | 8.88010 | 99° | 77km/h | 7642m | -3.7m/s | -28.7°C | 22.7% | 385.7hPa | 2.5V | 07:35:07 | 03:17:26 | 00:00:00 | |
| DO2JMG | 2026-09-01 01:34:56 | 51.23104 | 8.87894 | 107° | 73km/h | 7657m | -3.8m/s | -28.8°C | 22.9% | 384.9hPa | 2.6V | 07:35:07 | 03:17:22 | 00:00:00 | |
| DB0DAN | 2026-09-01 01:34:55 | 51.23110 | 8.87866 | 109° | 71km/h | 7661m | -4m/s | -28.9°C | 18.5% | 384.62hPa | 2.5V | 00:00:00 | 00:00:00 | 00:00:00 | |
| DL1XH-west | 2026-09-01 01:34:55 | 51.23110 | 8.87866 | 109° | 75km/h | 7661m | -4m/s | -28.9°C | 23% | 384.6hPa | 2.5V | 07:35:07 | 03:17:21 | 00:00:00 | |
| SONCRA | 2026-09-01 01:34:55 | 51.23117 | 8.87837 | 110° | 75km/h | 7665m | -3.8m/s | -28.9°C | 18.6% | 384.5hPa | 2.5V | 00:00:00 | 00:00:00 | 00:00:00 | |
| DL1NUX | 2026-09-01 01:34:54 | 51.23156 | 8.87679 | 110° | 93km/h | 7683m | -3.8m/s | -29.1°C | 20.7% | 383.4hPa | 2.5V | 07:35:04 | 03:17:15 | 00:00:00 | |
| BIOWL1-15 | 2026-09-01 01:34:49 | 51.23156 | 8.87679 | 110° | 93km/h | 7683m | -3.8m/s | -29.1°C | 23.4% | 383.4hPa | 2.5V | 07:35:07 | 03:17:15 | 00:00:00 | |
| DO2JMG | 2026-09-01 01:34:46 | 51.23178 | 8.87570 | 104° | 97km/h | 7694m | -3.7m/s | -29.2°C | 23.6% | 382.9hPa | 2.5V | 07:35:07 | 03:17:12 | 00:00:00 | |
| HSKMA3-T | 2026-09-01 01:34:45 | 51.23183 | 8.87532 | 103° | 95km/h | 7697m | -3.7m/s | -29.2°C | 23.7% | 382.6hPa | 2.5V | 07:35:58 | 03:17:11 | 00:00:00 | |
| DB0NH | 2026-09-01 01:34:45 | 51.23183 | 8.87532 | 103° | 86km/h | 7697m | -3.7m/s | -29.2°C | 21.0% | 382.6hPa | 2.5V | 00:00:00 | 03:17:11 | 00:00:00 | |
| DL1NUX | 2026-09-01 01:34:44 | 51.23204 | 8.87322 | 99° | 77km/h | 7720m | -3.7m/s | -29.4°C | 21.4% | 381.5hPa | 2.6V | 07:35:14 | 03:17:05 | 00:00:00 | |
| DL1XH-west | 2026-09-01 01:34:44 | 51.23188 | 8.87494 | 101° | 95km/h | 7701m | -3.8m/s | -29.3°C | 23.8% | 382.5hPa | 2.6V | 07:35:58 | 03:17:10 | 00:00:00 | |
| DL4BBY-15 | 2026-09-01 01:34:43 | 51.23192 | 8.87457 | 100° | 82km/h | 7705m | -3.8m/s | -29.2°C | 0% | 0hPa | 2.5V | 00:00:00 | 00:00:00 | 00:00:00 | |
| DB0DAN | 2026-09-01 01:34:40 | 51.23201 | 8.87354 | 98° | 77km/h | 7716m | -3.8m/s | -29.4°C | 19.6% | 381.7hPa | 2.5V | 00:00:00 | 00:00:00 | 00:00:00 | |
| BIOWL1-15 | 2026-09-01 01:34:39 | 51.23204 | 8.87322 | 99° | 77km/h | 7720m | -3.7m/s | -29.4°C | 24.1% | 381.5hPa | 2.6V | 07:35:58 | 03:17:05 | 00:00:00 | |
| HSKMA3-T | 2026-09-01 01:34:35 | 51.23222 | 8.87207 | 109° | 75km/h | 7734m | -4m/s | -29.6°C | 24.4% | 380.7hPa | 2.5V | 07:35:58 | 03:17:01 | 00:00:00 | |
| DL1XH-west | 2026-09-01 01:34:34 | 51.23228 | 8.87178 | 110° | 75km/h | 7738m | -3.9m/s | -29.6°C | 24.5% | 380.5hPa | 2.5V | 07:35:58 | 03:17:00 | 00:00:00 | |
| DL1XH1-15 | 2026-09-01 01:34:32 | 51.23259 | 8.87059 | 113° | 86km/h | 7753m | -3.9m/s | -29.7°C | 22% | 379.7hPa | 2.5V | 07:35:23 | 03:16:56 | 00:00:00 | |
| BIOWL1-15 | 2026-09-01 01:34:31 | 51.23268 | 8.87026 | 112° | 88km/h | 7757m | -4m/s | -29.8°C | 24.9% | 379.6hPa | 2.5V | 07:35:58 | 03:16:55 | 00:00:00 | |
| DD8BA-10 | 2026-09-01 01:34:31 | 51.23251 | 8.87090 | 113° | 91km/h | 7750m | -3.7m/s | -29.6°C | 21.8% | 379.8hPa | 2.5V | 00:00:00 | 00:00:00 | 00:00:00 | |
| DJ2DS-15 | 2026-09-01 01:34:30 | 51.23259 | 8.87059 | 113° | 84km/h | 7753m | -3.9m/s | -29.7°C | 20.1% | 379.7hPa | 2.5V | 00:00:00 | 00:00:00 | 00:00:00 | |
| DD1CC3-15 | 2026-09-01 01:34:29 | 51.23259 | 8.87059 | 114° | 86km/h | 7754m | -3.9m/s | -29.7°C | 20.2% | 379.7hPa | 2.5V | 07:35:00 | 00:00:00 | 00:00:00 | |
| DB0UT-7 | 2026-09-01 01:34:27 | 51.23284 | 8.86958 | 110° | 86km/h | 7765m | -3.7m/s | -29.8°C | 22.2% | 379.0hPa | 2.5V | 00:00:00 | 03:16:53 | 00:00:00 | |
| DK9SH | 2026-09-01 01:34:26 | 51.23284 | 8.86958 | 111° | 93km/h | 7765m | -3.8m/s | -29.8°C | 20.3% | 379.1hPa | 2.5V | 07:35:00 | 00:00:00 | 00:00:00 | |
| DB0DAN | 2026-09-01 01:34:25 | 51.23299 | 8.86886 | 106° | 91km/h | 7772m | -3.8m/s | -29.9°C | 20.5% | 378.67hPa | 2.5V | 00:00:00 | 00:00:00 | 00:00:00 | |
| HSKMA3-T | 2026-09-01 01:34:25 | 51.23299 | 8.86886 | 106° | 95km/h | 7772m | -3.8m/s | -29.9°C | 25.3% | 378.7hPa | 2.5V | 07:35:58 | 03:16:51 | 00:00:00 | |
| DL1NUX | 2026-09-01 01:34:24 | 51.23326 | 8.86668 | 97° | 86km/h | 7795m | -3.8m/s | -30.1°C | 22.2% | 377.5hPa | 2.5V | 07:35:34 | 03:16:45 | 00:00:00 | |
| DL1XH-west | 2026-09-01 01:34:24 | 51.23305 | 8.86849 | 104° | 95km/h | 7776m | -3.6m/s | -29.9°C | 25.2% | 378.5hPa | 2.5V | 07:35:58 | 03:16:50 | 00:00:00 | |
| BIOWL1-15 | 2026-09-01 01:34:20 | 51.23328 | 8.86634 | 98° | 82km/h | 7799m | -3.6m/s | -30.1°C | 24.9% | 377.3hPa | 2.6V | 07:35:58 | 03:16:44 | 00:00:00 | |
| HSKMA3-T | 2026-09-01 01:34:15 | 51.23339 | 8.86541 | 103° | 75km/h | 7810m | -3.5m/s | -30.3°C | 25.1% | 376.7hPa | 2.5V | 07:35:58 | 03:16:41 | 00:00:00 | |
| DL1XH-west | 2026-09-01 01:34:13 | 51.23349 | 8.86484 | 108° | 75km/h | 7817m | -3.8m/s | -30.3°C | 25.3% | 376.3hPa | 2.5V | 07:35:58 | 03:16:39 | 00:00:00 | |
| DL3AQ-11 | 2026-09-01 01:34:13 | 51.23354 | 8.86455 | 108° | 75km/h | 7821m | -3.9m/s | -30.4°C | 20.5% | 376.1hPa | 2.6V | 00:00:00 | 00:00:00 | 00:00:00 | |
| DL1XH1-15 | 2026-09-01 01:34:12 | 51.23368 | 8.86398 | 110° | 77km/h | 7828m | -3.6m/s | -30.4°C | 22.6% | 375.7hPa | 2.6V | 07:35:43 | 03:16:36 | 00:00:00 | |
| DL3OBA | 2026-09-01 01:34:11 | 51.23354 | 8.86455 | 110° | 75km/h | 7821m | -3.9m/s | -30.4°C | 20.5% | 376.1hPa | 2.6V | 07:35:00 | 00:00:00 | 00:00:00 | |
| DB0DAN | 2026-09-01 01:34:10 | 51.23368 | 8.86398 | 111° | 73km/h | 7828m | -3.6m/s | -30.4°C | 20.6% | 375.72hPa | 2.6V | 00:00:00 | 00:00:00 | 00:00:00 | |
| BIOWL1-15 | 2026-09-01 01:34:07 | 51.23390 | 8.86311 | 113° | 80km/h | 7839m | -3.9m/s | -30.5°C | 25.7% | 375.2hPa | 2.5V | 07:35:58 | 03:16:33 | 00:00:00 | |
| HSKMA3-T | 2026-09-01 01:34:04 | 51.23415 | 8.86218 | 113° | 88km/h | 7851m | -3.8m/s | -30.6°C | 26% | 374.5hPa | 2.5V | 07:35:58 | 03:16:30 | 00:00:00 | |
| DL1XH-west | 2026-09-01 01:34:02 | 51.23432 | 8.86151 | 111° | 93km/h | 7858m | -3.9m/s | -30.7°C | 26.2% | 374.1hPa | 2.5V | 07:35:58 | 03:16:28 | 00:00:00 | |
| DM0DOS-11 | 2026-09-01 01:34:01 | 51.23448 | 8.86079 | 107° | 95km/h | 7866m | -3.9m/s | -30.8°C | 23.5% | 373.7hPa | 2.6V | 07:35:53 | 03:16:26 | 00:00:00 | |
| DO2JMG | 2026-09-01 01:34:00 | 51.23448 | 8.86079 | 108° | 95km/h | 7866m | -3.9m/s | -30.8°C | 26.4% | 373.7hPa | 2.6V | 07:37:40 | 03:16:26 | 00:00:00 | |
| BIOWL1-15 | 2026-09-01 01:33:58 | 51.23471 | 8.85931 | 100° | 91km/h | 7881m | -3.8m/s | -30.9°C | 27% | 372.9hPa | 2.5V | 07:35:58 | 03:16:22 | 00:00:00 | |
| DB0UT-7 | 2026-09-01 01:33:57 | 51.23466 | 8.85968 | 102° | 88km/h | 7878m | -3.7m/s | -30.8°C | 23.8% | 373.1hPa | 2.6V | 00:00:00 | 00:00:00 | 00:00:00 | |
| DL1NUX | 2026-09-01 01:33:54 | 51.23493 | 8.85703 | 101° | 75km/h | 7908m | -4.2m/s | -31.1°C | 31.6% | 371.5hPa | 2.6V | 07:36:04 | 03:16:15 | 00:00:00 | |
| HSKMA3-T | 2026-09-01 01:33:53 | 51.23480 | 8.85827 | 98° | 82km/h | 7892m | -3.8m/s | -31°C | 28.2% | 372.3hPa | 2.6V | 07:36:49 | 03:16:19 | 00:00:00 | |
| SONCRA | 2026-09-01 01:33:53 | 51.23483 | 8.85795 | 98° | 78km/h | 7896m | -3.9m/s | -31.1°C | 23.6% | 372.1hPa | 2.5V | 00:00:00 | 00:00:00 | 00:00:00 | |
| DL1XH1-15 | 2026-09-01 01:33:52 | 51.23489 | 8.85733 | 99° | 75km/h | 7904m | -4.1m/s | -31.1°C | 29% | 371.7hPa | 2.5V | 07:36:03 | 03:16:16 | 00:00:00 | |
| DL1XH-west | 2026-09-01 01:33:52 | 51.23483 | 8.85795 | 98° | 80km/h | 7896m | -3.9m/s | -31.1°C | 29% | 372.1hPa | 2.5V | 07:36:49 | 03:16:18 | 00:00:00 | |
| BIOWL1-15 | 2026-09-01 01:33:48 | 51.23508 | 8.85617 | 110° | 77km/h | 7920m | -3.7m/s | -31.2°C | 39.7% | 370.9hPa | 2.5V | 07:37:40 | 03:16:12 | 00:00:00 | |
| DL1ZP-14 | 2026-09-01 01:33:46 | 51.23508 | 8.85617 | 109° | 75km/h | 7920m | -3.7m/s | -31.2°C | 34.5% | 370.9hPa | 2.5V | 00:00:00 | 00:00:00 | 00:00:00 | |
| DB0NH | 2026-09-01 01:33:45 | 51.23514 | 8.85588 | 112° | 88km/h | 7924m | -3.6m/s | -31.2°C | 37.7% | 370.7hPa | 2.6V | 00:00:00 | 03:16:11 | 00:00:00 | |
| DL1NUX | 2026-09-01 01:33:44 | 51.23563 | 8.85385 | 107° | 95km/h | 7946m | -4m/s | -31.5°C | 39.1% | 369.5hPa | 2.6V | 07:36:14 | 03:16:05 | 00:00:00 | |
| HSKMA3-T | 2026-09-01 01:33:43 | 51.23530 | 8.85526 | 112° | 88km/h | 7931m | -3.6m/s | -31.3°C | 40.4% | 370.4hPa | 2.5V | 07:36:49 | 03:16:09 | 00:00:00 | |
| DJ2DS-15 | 2026-09-01 01:33:43 | 51.23530 | 8.85525 | 113° | 89km/h | 7931m | -3.6m/s | -31.3°C | 38.2% | 370.4hPa | 2.6V | 00:00:00 | 03:16:09 | 00:00:00 | |
| DL1XH1-15 | 2026-09-01 01:33:42 | 51.23555 | 8.85422 | 108° | 95km/h | 7942m | -3.7m/s | -31.4°C | 38.8% | 369.8hPa | 2.6V | 07:36:13 | 03:16:06 | 00:00:00 | |
| DL1XH-west | 2026-09-01 01:33:42 | 51.23539 | 8.85492 | 111° | 91km/h | 7935m | -3.7m/s | -31.4°C | 40.7% | 370.2hPa | 2.5V | 07:36:49 | 03:16:08 | 00:00:00 | |
| BIOWL1-15 | 2026-09-01 01:33:38 | 51.23583 | 8.85273 | 105° | 97km/h | 7958m | -4.1m/s | -31.6°C | 41.9% | 368.9hPa | 2.5V | 07:37:40 | 03:16:02 | 00:00:00 | |
| DO2JMG | 2026-09-01 01:33:37 | 51.23577 | 8.85311 | 106° | 97km/h | 7954m | -3.8m/s | -31.5°C | 41.7% | 369.1hPa | 2.5V | 07:37:40 | 03:16:03 | 00:00:00 | |
| DL1NUX | 2026-09-01 01:33:34 | 51.23613 | 8.85016 | 97° | 86km/h | 7986m | -3.9m/s | -31.8°C | 39.6% | 367.5hPa | 2.6V | 07:36:24 | 03:15:55 | 00:00:00 | |
| DL3AQ-11 | 2026-09-01 01:33:33 | 51.23603 | 8.85123 | 99° | 91km/h | 7974m | -4.0m/s | -31.7°C | 36.7% | 368.1hPa | 2.6V | 00:00:00 | 00:00:00 | 00:00:00 | |
| DL1XH1-15 | 2026-09-01 01:33:32 | 51.23610 | 8.85051 | 97° | 88km/h | 7982m | -4m/s | -31.8°C | 39.7% | 367.7hPa | 2.6V | 07:36:23 | 03:15:56 | 00:00:00 | |
| HSKMA3-T | 2026-09-01 01:33:32 | 51.23603 | 8.85123 | 99° | 93km/h | 7974m | -4m/s | -31.7°C | 42.8% | 368.1hPa | 2.5V | 07:36:49 | 03:15:58 | 00:00:00 | |
| DL1XH-west | 2026-09-01 01:33:31 | 51.23607 | 8.85086 | 98° | 91km/h | 7978m | -4.1m/s | -31.7°C | 43% | 367.9hPa | 2.5V | 07:36:49 | 03:15:57 | 00:00:00 | |
| BIOWL1-15 | 2026-09-01 01:33:27 | 51.23624 | 8.84889 | 102° | 75km/h | 8001m | -3.8m/s | -31.9°C | 41.6% | 366.7hPa | 2.6V | 07:37:40 | 03:15:51 | 00:00:00 | |
| DB0UT-7 | 2026-09-01 01:33:27 | 51.23618 | 8.84950 | 98° | 86km/h | 7993m | -3.8m/s | -31.8°C | 39.2% | 367.0hPa | 2.5V | 00:00:00 | 03:15:53 | 00:00:00 | |
| DB0DAN | 2026-09-01 01:33:25 | 51.23624 | 8.84889 | 102° | 71km/h | 8001m | -3.8m/s | -31.9°C | 36.2% | 366.69hPa | 2.6V | 00:00:00 | 00:00:00 | 00:00:00 | |
| DL1NUX | 2026-09-01 01:33:24 | 51.23661 | 8.84711 | 111° | 84km/h | 8024m | -3.9m/s | -32.1°C | 39.7% | 365.6hPa | 2.6V | 07:36:34 | 03:15:45 | 00:00:00 | |
| HSKMA3-T | 2026-09-01 01:33:21 | 51.23646 | 8.84772 | 110° | 78km/h | 8016m | -3.8m/s | -32°C | 41.7% | 365.9hPa | 2.5V | 07:36:49 | 03:15:47 | 00:00:00 | |
| DM0DOS-11 | 2026-09-01 01:33:20 | 51.23653 | 8.84741 | 111° | 80km/h | 8020m | -3.9m/s | -32°C | 39.5% | 365.8hPa | 2.5V | 07:36:33 | 03:15:46 | 00:00:00 | |
| DL1XH-west | 2026-09-01 01:33:20 | 51.23653 | 8.84741 | 111° | 80km/h | 8020m | -3.9m/s | -32°C | 41.8% | 365.8hPa | 2.5V | 07:36:49 | 03:15:46 | 00:00:00 | |
| BIOWL1-15 | 2026-09-01 01:33:15 | 51.23693 | 8.84578 | 111° | 93km/h | 8039m | -4.1m/s | -32.2°C | 42.7% | 364.7hPa | 2.6V | 07:37:40 | 03:15:41 | 00:00:00 | |
| DB0NH | 2026-09-01 01:33:15 | 51.23693 | 8.84578 | 111° | 91km/h | 8039m | -4.1m/s | -32.1°C | 39.8% | 364.7hPa | 2.6V | 00:00:00 | 03:15:41 | 00:00:00 | |
| DL4XJ-10 | 2026-09-01 01:33:13 | 51.23709 | 8.84507 | 109° | 89km/h | 8047m | -4.0m/s | -32.2°C | 0% | 0hPa | 2.6V | 00:00:00 | 00:00:00 | 00:00:00 | |
| DL1XH1-15 | 2026-09-01 01:33:12 | 51.23730 | 8.84393 | 103° | 99km/h | 8060m | -4.1m/s | -32.4°C | 40.3% | 363.7hPa | 2.6V | 07:36:43 | 03:15:36 | 00:00:00 | |
| HSKMA3-T | 2026-09-01 01:33:11 | 51.23724 | 8.84432 | 105° | 99km/h | 8055m | -4m/s | -32.3°C | 43.3% | 363.9hPa | 2.5V | 07:36:49 | 03:15:37 | 00:00:00 | |
| DL1XH-west | 2026-09-01 01:33:10 | 51.23730 | 8.84393 | 104° | 99km/h | 8060m | -4.1m/s | -32.4°C | 43.4% | 363.7hPa | 2.6V | 07:36:49 | 03:15:36 | 00:00:00 | |
| BIOWL1-15 | 2026-09-01 01:33:07 | 51.23749 | 8.84205 | 96° | 88km/h | 8080m | -4.2m/s | -32.6°C | 44% | 362.7hPa | 2.5V | 07:37:40 | 03:15:31 | 00:00:00 | |
| DL3AQ-11 | 2026-09-01 01:33:06 | 51.23749 | 8.84205 | 96° | 88km/h | 8080m | -4.2m/s | -32.6°C | 38.7% | 362.7hPa | 2.6V | 00:00:00 | 00:00:00 | 00:00:00 | |
| DL1NUX | 2026-09-01 01:33:04 | 51.23773 | 8.84013 | 108° | 80km/h | 8103m | -3.7m/s | -32.8°C | 45.8% | 361.5hPa | 2.6V | 07:36:54 | 03:15:25 | 00:00:00 | |
| DJ2DS-15 | 2026-09-01 01:33:03 | 51.23754 | 8.84137 | 98° | 91km/h | 8088m | -3.8m/s | -32.6°C | 42.8% | 362.2hPa | 2.6V | 00:00:00 | 03:15:29 | 00:00:00 | |
| NBG1-10 | 2026-09-01 01:33:02 | 51.23757 | 8.84106 | 101° | 88km/h | 8092m | -3.8m/s | -32.6°C | 43.6% | 362.0hPa | 2.5V | 00:00:00 | 03:15:28 | 00:00:00 | |
| DM0DOS-11 | 2026-09-01 01:33:00 | 51.23767 | 8.84044 | 106° | 78km/h | 8099m | -3.7m/s | -32.7°C | 45.2% | 361.6hPa | 2.6V | 07:36:53 | 03:15:26 | 00:00:00 | |
| DL1XH-west | 2026-09-01 01:33:00 | 51.23767 | 8.84044 | 106° | 78km/h | 8099m | -3.7m/s | -32.7°C | 46.4% | 361.7hPa | 2.6V | 07:37:40 | 03:15:26 | 00:00:00 | |
| DL1CLM-18 | 2026-09-01 01:32:59 | 51.23767 | 8.84044 | 107° | 78km/h | 8099m | -3.7m/s | -32.7°C | 42.0% | 361.7hPa | 2.5V | 00:00:00 | 00:00:00 | 00:00:00 | |
| DB0UT-7 | 2026-09-01 01:32:57 | 51.23788 | 8.83950 | 112° | 93km/h | 8110m | -3.8m/s | -32.7°C | 46.1% | 361.0hPa | 2.5V | 00:00:00 | 00:00:00 | 00:00:00 | |
| DL1NUX | 2026-09-01 01:32:54 | 51.23855 | 8.83662 | 107° | 102km/h | 8143m | -4.2m/s | -32.8°C | 43.5% | 359.3hPa | 2.5V | 07:37:04 | 03:15:15 | 00:00:00 | |
| BIOWL1-15 | 2026-09-01 01:32:53 | 51.23821 | 8.83813 | 111° | 95km/h | 8127m | -4.1m/s | -32.8°C | 47.1% | 360.2hPa | 2.6V | 07:37:40 | 03:15:19 | 00:00:00 | |
| DL4XJ-10 | 2026-09-01 01:32:53 | 51.23821 | 8.83812 | 111° | 91km/h | 8127m | -4.1m/s | -32.8°C | 0% | 0hPa | 2.5V | 00:00:00 | 00:00:00 | 00:00:00 | |
| DL1XH1-15 | 2026-09-01 01:32:52 | 51.23847 | 8.83701 | 108° | 100km/h | 8139m | -4.2m/s | -32.8°C | 43.5% | 359.6hPa | 2.5V | 07:37:03 | 03:15:16 | 00:00:00 | |
| DL1XH-west | 2026-09-01 01:32:49 | 51.23855 | 8.83662 | 107° | 102km/h | 8143m | -4.2m/s | -32.8°C | 46.9% | 359.3hPa | 2.5V | 07:37:40 | 03:15:15 | 00:00:00 | |
| SO1NDE-10 | 2026-09-01 01:32:48 | 51.23862 | 8.83622 | 106° | 95km/h | 8148m | -4.2m/s | -32.8°C | 43.4% | 359.0hPa | 2.6V | 00:00:00 | 03:15:14 | 00:00:00 | |
| DD1CC3-15 | 2026-09-01 01:32:46 | 51.23869 | 8.83582 | 105° | 102km/h | 8152m | -4.0m/s | -32.8°C | 40.5% | 358.9hPa | 2.5V | 07:37:00 | 00:00:00 | 00:00:00 | |
| DB0NH | 2026-09-01 01:32:45 | 51.23879 | 8.83503 | 100° | 95km/h | 8159m | -3.7m/s | -32.8°C | 44.1% | 358.5hPa | 2.5V | 00:00:00 | 03:15:11 | 00:00:00 | |
| DL1NUX | 2026-09-01 01:32:44 | 51.23903 | 8.83294 | 105° | 80km/h | 8182m | -3.9m/s | -33.1°C | 46.5% | 357.3hPa | 2.5V | 07:37:14 | 03:15:05 | 00:00:00 | |
| BIOWL1-15 | 2026-09-01 01:32:42 | 51.23890 | 8.83392 | 99° | 86km/h | 8170m | -3.8m/s | -33°C | 47.1% | 358hPa | 2.6V | 07:37:40 | 03:15:08 | 00:00:00 | |
| DM0DOS-11 | 2026-09-01 01:32:40 | 51.23898 | 8.83326 | 103° | 82km/h | 8178m | -3.9m/s | -33.1°C | 45.9% | 357.6hPa | 2.6V | 07:37:13 | 03:15:06 | 00:00:00 | |
| DL1XH-west | 2026-09-01 01:32:38 | 51.23909 | 8.83263 | 108° | 82km/h | 8186m | -3.8m/s | -33.1°C | 48.9% | 357.2hPa | 2.5V | 07:37:40 | 03:15:04 | 00:00:00 | |
| DO2JMG | 2026-09-01 01:32:37 | 51.23915 | 8.83231 | 109° | 84km/h | 8190m | -4m/s | -33.2°C | 49.7% | 356.9hPa | 2.5V | 07:37:40 | 03:15:03 | 00:00:00 | |
| BIOWL1-15 | 2026-09-01 01:32:35 | 51.23965 | 8.83031 | 113° | 95km/h | 8214m | -4.3m/s | -33.3°C | 52.3% | 355.7hPa | 2.5V | 07:37:40 | 03:14:57 | 00:00:00 | |
| DL1NUX | 2026-09-01 01:32:34 | 51.23984 | 8.82959 | 111° | 100km/h | 8223m | -4.1m/s | -33.3°C | 49.9% | 355.4hPa | 2.6V | 07:37:24 | 03:14:55 | 00:00:00 | |
| DO9LL-15 | 2026-09-01 01:32:33 | 51.23947 | 8.83101 | 113° | 97km/h | 8206m | -3.9m/s | -33.2°C | 49.8% | 356.1hPa | 2.5V | 07:37:00 | 03:14:59 | 00:00:00 | |
| DL1XH1-15 | 2026-09-01 01:32:32 | 51.23975 | 8.82996 | 112° | 97km/h | 8219m | -4.2m/s | -33.3°C | 49.7% | 355.5hPa | 2.5V | 07:37:23 | 03:14:56 | 00:00:00 | |
| HSKMA3-T | 2026-09-01 01:32:28 | 51.23994 | 8.82921 | 111° | 102km/h | 8227m | -4m/s | -33.4°C | 53.1% | 355.2hPa | 2.6V | 07:37:40 | 03:14:54 | 00:00:00 | |
| DL1XH-west | 2026-09-01 01:32:27 | 51.24003 | 8.82882 | 110° | 104km/h | 8231m | -4m/s | -33.4°C | 53.6% | 354.9hPa | 2.5V | 07:37:40 | 03:14:53 | 00:00:00 | |
| DB0UT-7 | 2026-09-01 01:32:27 | 51.24003 | 8.82882 | 110° | 99km/h | 8231m | -4.0m/s | -33.4°C | 50.8% | 354.9hPa | 2.6V | 07:37:00 | 03:14:53 | 00:00:00 | |
| DD1CC3-15 | 2026-09-01 01:32:26 | 51.24011 | 8.82842 | 109° | 106km/h | 8235m | -4.3m/s | -33.4°C | 47.7% | 354.7hPa | 2.6V | 07:37:00 | 00:00:00 | 00:00:00 | |
| DL3AQ-11 | 2026-09-01 01:32:25 | 51.24019 | 8.82801 | 106° | 106km/h | 8239m | -4.2m/s | -33.5°C | 47.9% | 354.5hPa | 2.6V | 00:00:00 | 00:00:00 | 00:00:00 | |
| DL1NUX | 2026-09-01 01:32:24 | 51.24053 | 8.82557 | 99° | 97km/h | 8264m | -4.1m/s | -33.7°C | 53.7% | 353.2hPa | 2.6V | 07:37:34 | 03:14:45 | 00:00:00 | |
| BIOWL1-15 | 2026-09-01 01:32:23 | 51.24044 | 8.82636 | 101° | 102km/h | 8256m | -4.2m/s | -33.6°C | 55% | 353.7hPa | 2.5V | 07:37:40 | 03:14:47 | 00:00:00 | |
| DJ2DS-15 | 2026-09-01 01:32:23 | 51.24033 | 8.82718 | 104° | 93km/h | 8247m | -3.9m/s | -33.5°C | 52.0% | 354.1hPa | 2.6V | 00:00:00 | 03:14:49 | 00:00:00 | |
| DL1XH1-15 | 2026-09-01 01:32:22 | 51.24049 | 8.82596 | 99° | 100km/h | 8259m | -4m/s | -33.7°C | 53.3% | 353.5hPa | 2.6V | 07:37:33 | 03:14:46 | 00:00:00 | |
| DL1XH-west | 2026-09-01 01:32:17 | 51.24060 | 8.82483 | 100° | 89km/h | 8272m | -4m/s | -33.8°C | 56.2% | 352.9hPa | 2.5V | 07:37:40 | 03:14:43 | 00:00:00 | |
| DB0NH | 2026-09-01 01:32:15 | 51.24069 | 8.82415 | 104° | 95km/h | 8280m | -3.9m/s | -33.8°C | 55.6% | 352.4hPa | 2.5V | 00:00:00 | 03:14:41 | 00:00:00 | |
| DL1NUX | 2026-09-01 01:32:14 | 51.24113 | 8.82221 | 113° | 91km/h | 8304m | -4.2m/s | -34°C | 59.2% | 351.3hPa | 2.5V | 07:37:44 | 03:14:35 | 00:00:00 | |
| DL4XJ-10 | 2026-09-01 01:32:13 | 51.24081 | 8.82351 | 109° | 100km/h | 8288m | -4.0m/s | -33.8°C | 0% | 0hPa | 2.5V | 00:00:00 | 00:00:00 | 00:00:00 | |
| DL1XH1-15 | 2026-09-01 01:32:12 | 51.24104 | 8.82254 | 112° | 88km/h | 8300m | -4.2m/s | -34°C | 58.6% | 351.4hPa | 2.5V | 07:37:43 | 03:14:36 | 00:00:00 | |
| BIOWL1-15 | 2026-09-01 01:32:11 | 51.24096 | 8.82287 | 111° | 86km/h | 8296m | -4.1m/s | -34°C | 59% | 351.7hPa | 2.6V | 07:38:31 | 03:14:37 | 00:00:00 | |
| DB0DAN | 2026-09-01 01:32:10 | 51.24104 | 8.82254 | 112° | 84km/h | 8300m | -4.2m/s | -34°C | 54.7% | 351.44hPa | 2.5V | 00:00:00 | 00:00:00 | 00:00:00 | |
| DL1XH-west | 2026-09-01 01:32:06 | 51.24141 | 8.82114 | 112° | 100km/h | 8316m | -4m/s | -34.1°C | 61.5% | 350.6hPa | 2.6V | 07:38:31 | 03:14:32 | 00:00:00 | |
| DD1CC3-15 | 2026-09-01 01:32:05 | 51.24141 | 8.82114 | 113° | 100km/h | 8316m | -4.0m/s | -34.1°C | 57.2% | 350.6hPa | 2.5V | 07:38:00 | 00:00:00 | 00:00:00 | |
| DL1NUX | 2026-09-01 01:32:04 | 51.24200 | 8.81831 | 104° | 108km/h | 8345m | -4.1m/s | -34.3°C | 68.4% | 349.2hPa | 2.5V | 07:37:54 | 03:14:25 | 00:00:00 | |
| BIOWL1-15 | 2026-09-01 01:32:00 | 51.24217 | 8.81705 | 101° | 104km/h | 8357m | -4m/s | -34.4°C | 71.6% | 348.6hPa | 2.6V | 07:38:31 | 03:14:22 | 00:00:00 | |
| DL1XH-west | 2026-09-01 01:31:55 | 51.24222 | 8.81664 | 100° | 102km/h | 8361m | -4.1m/s | -34.4°C | 72% | 348.4hPa | 2.6V | 07:38:31 | 03:14:21 | 00:00:00 | |
| DB0DAN | 2026-09-01 01:31:55 | 51.24222 | 8.81664 | 100° | 97km/h | 8361m | -4.1m/s | -34.4°C | 66.6% | 348.39hPa | 2.6V | 00:00:00 | 00:00:00 | 00:00:00 | |
| DL1NUX | 2026-09-01 01:31:54 | 51.24249 | 8.81444 | 105° | 84km/h | 8385m | -4m/s | -34.6°C | 74% | 347.1hPa | 2.6V | 07:38:04 | 03:14:15 | 00:00:00 | |
| DL1XH-west | 2026-09-01 01:31:45 | 51.24277 | 8.81314 | 112° | 89km/h | 8401m | -4.1m/s | -34.7°C | 76.5% | 346.4hPa | 2.5V | 07:38:31 | 03:14:11 | 00:00:00 | |
| HSKMA3-T | 2026-09-01 01:31:44 | 51.24286 | 8.81280 | 114° | 91km/h | 8405m | -4.3m/s | -34.7°C | 76.6% | 346.2hPa | 2.6V | 07:38:31 | 03:14:10 | 00:00:00 | |
| DJ2DS-15 | 2026-09-01 01:31:43 | 51.24295 | 8.81246 | 114° | 97km/h | 8410m | -4.1m/s | -34.7°C | 76.3% | 345.9hPa | 2.6V | 07:38:00 | 03:14:09 | 00:00:00 | |
| DL1ZP-14 | 2026-09-01 01:31:42 | 51.24305 | 8.81210 | 113° | 97km/h | 8414m | -4.0m/s | -34.8°C | 71.7% | 345.8hPa | 2.6V | 00:00:00 | 00:00:00 | 00:00:00 | |
| DB0DAN | 2026-09-01 01:31:40 | 51.24325 | 8.81135 | 112° | 99km/h | 8422m | -4.4m/s | -34.8°C | 71.1% | 345.35hPa | 2.5V | 00:00:00 | 00:00:00 | 00:00:00 | |
| DO2JMG | 2026-09-01 01:31:39 | 51.24335 | 8.81096 | 111° | 106km/h | 8427m | -4.2m/s | -34.8°C | 74.9% | 345.2hPa | 2.5V | 07:41:04 | 03:14:05 | 00:00:00 | |
| BIOWL1-15 | 2026-09-01 01:31:37 | 51.24352 | 8.81014 | 107° | 108km/h | 8435m | -4.1m/s | -34.9°C | 73.3% | 344.7hPa | 2.6V | 07:38:31 | 03:14:03 | 00:00:00 | |
| DL1XH-west | 2026-09-01 01:31:35 | 51.24366 | 8.80931 | 103° | 106km/h | 8443m | -3.9m/s | -34.9°C | 72.5% | 344.3hPa | 2.5V | 07:38:31 | 03:14:01 | 00:00:00 | |
| HSKMA3-T | 2026-09-01 01:31:34 | 51.24371 | 8.80890 | 101° | 102km/h | 8446m | -3.9m/s | -35°C | 72.1% | 344.2hPa | 2.5V | 07:38:31 | 03:14:00 | 00:00:00 | |
| BIOWL1-15 | 2026-09-01 01:31:26 | 51.24406 | 8.80597 | 104° | 84km/h | 8479m | -4.1m/s | -35.2°C | 69.4% | 342.5hPa | 2.6V | 07:38:31 | 03:13:52 | 00:00:00 | |
| DB0DAN | 2026-09-01 01:31:25 | 51.24412 | 8.80564 | 107° | 80km/h | 8483m | -4m/s | -35.3°C | 64.5% | 342.36hPa | 2.6V | 00:00:00 | 00:00:00 | 00:00:00 | |
| DL1XH-west | 2026-09-01 01:31:24 | 51.24418 | 8.80532 | 109° | 84km/h | 8487m | -4.2m/s | -35.3°C | 69.9% | 342.1hPa | 2.6V | 07:38:31 | 03:13:50 | 00:00:00 | |
| DO2JMG | 2026-09-01 01:31:23 | 51.24426 | 8.80500 | 111° | 86km/h | 8491m | -4m/s | -35.3°C | 70.1% | 341.9hPa | 2.5V | 07:41:04 | 03:13:49 | 00:00:00 | |
| DJ2DS-15 | 2026-09-01 01:31:23 | 51.24426 | 8.80499 | 111° | 99km/h | 8491m | -3.9m/s | -35.3°C | 69.6% | 341.9hPa | 2.6V | 00:00:00 | 03:13:49 | 00:00:00 | |
| DO2KSM | 2026-09-01 01:31:22 | 51.24426 | 8.80499 | 112° | 86km/h | 8491m | -4.0m/s | -35.3°C | 65.1% | 341.9hPa | 2.6V | 07:38:00 | 00:00:00 | 00:00:00 | |
| DM0DOS-11 | 2026-09-01 01:31:21 | 51.24452 | 8.80399 | 113° | 95km/h | 8503m | -4m/s | -35.4°C | 70.8% | 341.3hPa | 2.6V | 07:38:33 | 03:13:46 | 00:00:00 | |
| BIOWL1-15 | 2026-09-01 01:31:16 | 51.24492 | 8.80249 | 112° | 106km/h | 8520m | -4.1m/s | -35.6°C | 72.6% | 340.6hPa | 2.5V | 07:39:22 | 03:13:42 | 00:00:00 | |
| DL1XH-west | 2026-09-01 01:31:14 | 51.24511 | 8.80168 | 109° | 110km/h | 8528m | -4.2m/s | -35.6°C | 73.4% | 340.2hPa | 2.6V | 07:39:22 | 03:13:40 | 00:00:00 | |
| HSKMA3-T | 2026-09-01 01:31:13 | 51.24519 | 8.80126 | 107° | 110km/h | 8532m | -4.1m/s | -35.6°C | 73.6% | 339.9hPa | 2.6V | 07:39:22 | 03:13:39 | 00:00:00 | |
| DL4XJ-10 | 2026-09-01 01:31:13 | 51.24519 | 8.80126 | 107° | 97km/h | 8533m | -4.1m/s | -35.6°C | 0% | 0hPa | 2.5V | 00:00:00 | 00:00:00 | 00:00:00 | |
| DJ8HS-15 | 2026-09-01 01:31:12 | 51.24527 | 8.80084 | 106° | 97km/h | 8537m | -4.1m/s | -35.6°C | 72.9% | 339.6hPa | 2.5V | 00:00:00 | 03:13:38 | 00:00:00 | |
| DM0DOS-11 | 2026-09-01 01:31:11 | 51.24539 | 8.80001 | 101° | 104km/h | 8545m | -4m/s | -35.8°C | 72.9% | 339.3hPa | 2.5V | 07:38:43 | 03:13:36 | 00:00:00 | |
| DB0DAN | 2026-09-01 01:31:10 | 51.24539 | 8.80001 | 101° | 99km/h | 8545m | -4m/s | -35.8°C | 68.2% | 339.32hPa | 2.5V | 00:00:00 | 00:00:00 | 00:00:00 | |
| BIOWL1-15 | 2026-09-01 01:31:08 | 51.24556 | 8.79847 | 101° | 89km/h | 8561m | -4.1m/s | -35.9°C | 73.5% | 338.5hPa | 2.6V | 07:39:22 | 03:13:32 | 00:00:00 | |
| HSKMA3-T | 2026-09-01 01:31:03 | 51.24571 | 8.79746 | 107° | 84km/h | 8573m | -4.2m/s | -36°C | 73.3% | 337.9hPa | 2.5V | 07:39:22 | 03:13:29 | 00:00:00 | |
| DO2JMG | 2026-09-01 01:30:55 | 51.24641 | 8.79469 | 112° | 104km/h | 8606m | -4.1m/s | -36.3°C | 73% | 336.3hPa | 2.6V | 07:41:04 | 03:13:21 | 00:00:00 | |
| DL1XH-west | 2026-09-01 01:30:53 | 51.24660 | 8.79388 | 109° | 108km/h | 8614m | -4m/s | -36.4°C | 73.3% | 335.9hPa | 2.5V | 07:39:22 | 03:13:19 | 00:00:00 | |
| DL4XJ-10 | 2026-09-01 01:30:53 | 51.24660 | 8.79388 | 109° | 95km/h | 8614m | -4.0m/s | -36.3°C | 0% | 0hPa | 2.6V | 00:00:00 | 00:00:00 | 00:00:00 | |
| DJ8HS-15 | 2026-09-01 01:30:52 | 51.24668 | 8.79347 | 108° | 93km/h | 8618m | -4.1m/s | -36.3°C | 74.1% | 335.7hPa | 2.6V | 00:00:00 | 03:13:18 | 00:00:00 | |
| DM0DOS-11 | 2026-09-01 01:30:51 | 51.24683 | 8.79263 | 103° | 106km/h | 8626m | -4.1m/s | -36.5°C | 74.1% | 335.4hPa | 2.6V | 07:39:03 | 03:13:16 | 00:00:00 | |
| WPPR-10 | 2026-09-01 01:30:47 | 51.24699 | 8.79140 | 100° | 100km/h | 8638m | -4.2m/s | -36.6°C | 69.8% | 334.7hPa | 2.5V | 00:00:00 | 00:00:00 | 00:00:00 | |
| SONCRA | 2026-09-01 01:30:46 | 51.24704 | 8.79100 | 100° | 97km/h | 8643m | -4.1m/s | -36.6°C | 70.0% | 334.5hPa | 2.5V | 00:00:00 | 00:00:00 | 00:00:00 | |
| DB0NH | 2026-09-01 01:30:45 | 51.24708 | 8.79062 | 100° | 95km/h | 8647m | -3.9m/s | -36.6°C | 74.9% | 334.3hPa | 2.5V | 00:00:00 | 03:13:11 | 00:00:00 | |
| DO2JMG | 2026-09-01 01:30:45 | 51.24708 | 8.79062 | 100° | 95km/h | 8647m | -3.9m/s | -36.6°C | 74.3% | 334.3hPa | 2.5V | 07:41:04 | 03:13:11 | 00:00:00 | |
| DL1NUX | 2026-09-01 01:30:44 | 51.24736 | 8.78852 | 105° | 84km/h | 8671m | -4.1m/s | -36.8°C | 74.1% | 333.2hPa | 2.5V | 07:39:14 | 03:13:05 | 00:00:00 | |
| BIOWL1-15 | 2026-09-01 01:30:44 | 51.24712 | 8.79024 | 100° | 93km/h | 8651m | -4m/s | -36.7°C | 74.4% | 334.1hPa | 2.5V | 07:39:22 | 03:13:10 | 00:00:00 | |
| HSKMA3-T | 2026-09-01 01:30:43 | 51.24716 | 8.78988 | 101° | 89km/h | 8654m | -4.1m/s | -36.7°C | 74.4% | 333.9hPa | 2.6V | 07:39:22 | 03:13:09 | 00:00:00 | |
| DL1XH-west | 2026-09-01 01:30:42 | 51.24721 | 8.78953 | 102° | 88km/h | 8659m | -4.2m/s | -36.7°C | 74.3% | 333.7hPa | 2.6V | 07:39:22 | 03:13:08 | 00:00:00 | |
| DL1XH1-15 | 2026-09-01 01:30:42 | 51.24731 | 8.78885 | 104° | 86km/h | 8667m | -4.1m/s | -36.8°C | 74.3% | 333.3hPa | 2.5V | 07:39:13 | 03:13:06 | 00:00:00 | |
| DD8BA-10 | 2026-09-01 01:30:41 | 51.24725 | 8.78919 | 104° | 86km/h | 8663m | -3.9m/s | -36.7°C | 74.7% | 333.5hPa | 2.5V | 00:00:00 | 00:00:00 | 00:00:00 | |
| DL1ZP-14 | 2026-09-01 01:30:40 | 51.24731 | 8.78885 | 104° | 84km/h | 8667m | -4.1m/s | -36.8°C | 69.4% | 333.3hPa | 2.5V | 00:00:00 | 00:00:00 | 00:00:00 | |
| HTAHTA | 2026-09-01 01:30:39 | 51.24742 | 8.78819 | 106° | 82km/h | 8675m | -4.3m/s | -36.8°C | 68.8% | 332.9hPa | 2.5V | 00:00:00 | 00:00:00 | 00:00:00 | |
| DO3DL | 2026-09-01 01:30:37 | 51.24742 | 8.78819 | 107° | 84km/h | 8675m | -4.3m/s | -36.8°C | 68.8% | 332.9hPa | 2.5V | 07:39:00 | 00:00:00 | 00:00:00 | |
| DL8DAS-14 | 2026-09-01 01:30:36 | 51.24755 | 8.78755 | 108° | 84km/h | 8683m | -4.3m/s | -36.9°C | 67.9% | 332.6hPa | 2.5V | 00:00:00 | 00:00:00 | 00:00:00 | |
| DL1XH1-15 | 2026-09-01 01:30:35 | 51.24805 | 8.78556 | 113° | 97km/h | 8708m | -4m/s | -37°C | 70.1% | 331.3hPa | 2.5V | 07:39:23 | 03:12:56 | 00:00:00 | |
| BIOWL1-15 | 2026-09-01 01:30:33 | 51.24777 | 8.78658 | 112° | 88km/h | 8696m | -4.2m/s | -37°C | 71.7% | 331.9hPa | 2.5V | 07:39:22 | 03:12:59 | 00:00:00 | |
| DL1XH-west | 2026-09-01 01:30:32 | 51.24786 | 8.78625 | 113° | 89km/h | 8700m | -4.3m/s | -37°C | 71.5% | 331.7hPa | 2.5V | 07:39:22 | 03:12:58 | 00:00:00 | |
| DJ8HS-15 | 2026-09-01 01:30:32 | 51.24786 | 8.78625 | 114° | 99km/h | 8700m | -4.2m/s | -36.9°C | 70.5% | 331.6hPa | 2.5V | 07:39:00 | 03:12:58 | 00:00:00 | |
| DM0DOS-11 | 2026-09-01 01:30:31 | 51.24815 | 8.78519 | 113° | 100km/h | 8712m | -4.1m/s | -37.1°C | 70.3% | 331.1hPa | 2.6V | 07:39:24 | 03:12:55 | 00:00:00 | |
| DD8BA-10 | 2026-09-01 01:30:31 | 51.24795 | 8.78591 | 114° | 104km/h | 8704m | -4.2m/s | -37.0°C | 70.4% | 331.5hPa | 2.6V | 00:00:00 | 00:00:00 | 00:00:00 | |
| AM1SDL-15 | 2026-09-01 01:30:30 | 51.24805 | 8.78556 | 114° | 102km/h | 8708m | -4.0m/s | -37.0°C | 70.1% | 331.3hPa | 2.6V | 00:00:00 | 03:12:56 | 00:00:00 | |
| DB0UT-7 | 2026-09-01 01:30:27 | 51.24835 | 8.78442 | 112° | 97km/h | 8721m | -4.3m/s | -37.1°C | 70.2% | 330.7hPa | 2.6V | 00:00:00 | 03:12:53 | 00:00:00 | |
| DB0ND-19 | 2026-09-01 01:30:26 | 51.24853 | 8.78361 | 107° | 108km/h | 8729m | -3.9m/s | -37.2°C | 65.0% | 330.3hPa | 2.5V | 00:00:00 | 00:00:00 | 00:00:00 | |
| NBG1-10 | 2026-09-01 01:30:25 | 51.24853 | 8.78361 | 108° | 93km/h | 8729m | -3.9m/s | -37.2°C | 69.8% | 330.3hPa | 2.5V | 00:00:00 | 03:12:51 | 00:00:00 | |
| DL1NUX | 2026-09-01 01:30:24 | 51.24889 | 8.78114 | 99° | 99km/h | 8754m | -4.2m/s | -37.5°C | 67.3% | 329.1hPa | 2.5V | 07:39:34 | 03:12:45 | 00:00:00 | |
| BIOWL1-15 | 2026-09-01 01:30:24 | 51.24874 | 8.78236 | 103° | 106km/h | 8741m | -4.3m/s | -37.4°C | 68.2% | 329.8hPa | 2.6V | 07:40:13 | 03:12:48 | 00:00:00 | |
| DJ2DS-15 | 2026-09-01 01:30:23 | 51.24868 | 8.78278 | 105° | 91km/h | 8737m | -4.2m/s | -37.3°C | 69.1% | 330.0hPa | 2.6V | 00:00:00 | 03:12:49 | 00:00:00 | |
| DL1XH1-15 | 2026-09-01 01:30:22 | 51.24884 | 8.78154 | 99° | 100km/h | 8750m | -4.1m/s | -37.4°C | 66.6% | 329.4hPa | 2.6V | 07:39:33 | 03:12:46 | 00:00:00 | |
| HSKMA3-T | 2026-09-01 01:30:21 | 51.24879 | 8.78195 | 101° | 104km/h | 8746m | -4.2m/s | -37.4°C | 67.1% | 329.6hPa | 2.6V | 07:40:13 | 03:12:47 | 00:00:00 | |
| DD8BA-10 | 2026-09-01 01:30:21 | 51.24879 | 8.78195 | 102° | 91km/h | 8746m | -4.1m/s | -37.3°C | 67.2% | 329.5hPa | 2.6V | 00:00:00 | 00:00:00 | 00:00:00 | |
| DM0DOS-11 | 2026-09-01 01:30:19 | 51.24892 | 8.78076 | 99° | 95km/h | 8758m | -4.4m/s | -37.5°C | 67.8% | 329hPa | 2.5V | 07:39:35 | 03:12:44 | 00:00:00 | |
| SO1NDE-10 | 2026-09-01 01:30:18 | 51.24892 | 8.78076 | 100° | 93km/h | 8758m | -4.4m/s | -37.4°C | 67.8% | 329.0hPa | 2.6V | 00:00:00 | 03:12:44 | 00:00:00 | |
| SONCRA | 2026-09-01 01:30:17 | 51.24905 | 8.77968 | 102° | 86km/h | 8771m | -4.1m/s | -37.6°C | 64.7% | 328.3hPa | 2.6V | 00:00:00 | 00:00:00 | 00:00:00 | |
| DB0NH | 2026-09-01 01:30:15 | 51.24905 | 8.77968 | 103° | 93km/h | 8771m | -4.1m/s | -37.5°C | 69.6% | 328.3hPa | 2.6V | 00:00:00 | 03:12:41 | 00:00:00 | |
| DL1NUX | 2026-09-01 01:30:14 | 51.24944 | 8.77774 | 112° | 86km/h | 8795m | -4.5m/s | -37.8°C | 70.3% | 327.2hPa | 2.5V | 07:39:44 | 03:12:35 | 00:00:00 | |
| DM0DOS-11 | 2026-09-01 01:30:13 | 51.24953 | 8.77742 | 113° | 88km/h | 8800m | -4.4m/s | -37.8°C | 69.9% | 327hPa | 2.6V | 07:39:45 | 03:12:34 | 00:00:00 | |
| DL3AQ-11 | 2026-09-01 01:30:13 | 51.24921 | 8.77869 | 108° | 82km/h | 8783m | -4.1m/s | -37.7°C | 65.0% | 327.8hPa | 2.5V | 00:00:00 | 00:00:00 | 00:00:00 | |
| DL1XH1-15 | 2026-09-01 01:30:12 | 51.24936 | 8.77806 | 111° | 84km/h | 8791m | -4.2m/s | -37.7°C | 70.4% | 327.4hPa | 2.5V | 07:39:43 | 03:12:36 | 00:00:00 | |
| DL1XH-west | 2026-09-01 01:30:11 | 51.24928 | 8.77838 | 110° | 84km/h | 8787m | -4m/s | -37.7°C | 70.5% | 327.6hPa | 2.5V | 07:40:13 | 03:12:37 | 00:00:00 | |
| HSKMA3-T | 2026-09-01 01:30:10 | 51.24936 | 8.77806 | 112° | 84km/h | 8791m | -4.2m/s | -37.7°C | 70.8% | 327.4hPa | 2.5V | 07:40:13 | 03:12:36 | 00:00:00 | |
| DL1ZP-14 | 2026-09-01 01:30:09 | 51.24944 | 8.77774 | 112° | 84km/h | 8795m | -4.5m/s | -37.8°C | 65.4% | 327.2hPa | 2.5V | 00:00:00 | 00:00:00 | 00:00:00 | |
| HTAHTA | 2026-09-01 01:30:08 | 51.24962 | 8.77710 | 114° | 88km/h | 8804m | -4.3m/s | -37.8°C | 64.5% | 326.8hPa | 2.6V | 00:00:00 | 00:00:00 | 00:00:00 | |
| DF7PN | 2026-09-01 01:30:07 | 51.24971 | 8.77677 | 114° | 91km/h | 8808m | -4.3m/s | -37.9°C | 64.0% | 326.6hPa | 2.6V | 00:00:00 | 00:00:00 | 00:00:00 | |
| AM1SDL-15 | 2026-09-01 01:30:06 | 51.24971 | 8.77677 | 115° | 102km/h | 8808m | -4.2m/s | -37.8°C | 68.9% | 326.5hPa | 2.6V | 00:00:00 | 03:12:32 | 00:00:00 | |
| DL8DAS-14 | 2026-09-01 01:30:05 | 51.24981 | 8.77643 | 115° | 95km/h | 8812m | -4.1m/s | -37.9°C | 63.6% | 326.4hPa | 2.6V | 00:00:00 | 00:00:00 | 00:00:00 | |
| DL1NUX | 2026-09-01 01:30:04 | 51.25041 | 8.77414 | 107° | 108km/h | 8837m | -4m/s | -38.1°C | 63.9% | 325.2hPa | 2.6V | 07:39:54 | 03:12:25 | 00:00:00 | |
| BIOWL1-15 | 2026-09-01 01:30:03 | 51.25023 | 8.77495 | 112° | 106km/h | 8829m | -4m/s | -38.1°C | 66.1% | 325.6hPa | 2.6V | 07:40:13 | 03:12:27 | 00:00:00 | |
| DL1XH1-15 | 2026-09-01 01:30:02 | 51.25032 | 8.77455 | 110° | 106km/h | 8833m | -4m/s | -38.1°C | 64.7% | 325.4hPa | 2.6V | 07:39:53 | 03:12:26 | 00:00:00 | |
| DL3AQ-11 | 2026-09-01 01:30:02 | 51.25023 | 8.77495 | 111° | 104km/h | 8829m | -4.0m/s | -38.1°C | 60.7% | 325.6hPa | 2.5V | 00:00:00 | 00:00:00 | 00:00:00 | |
| DM0DOS-11 | 2026-09-01 01:30:01 | 51.25049 | 8.77373 | 105° | 106km/h | 8841m | -4.1m/s | -38.2°C | 63% | 325.1hPa | 2.5V | 07:39:55 | 03:12:24 | 00:00:00 | |
| DL1XH-west | 2026-09-01 01:30:00 | 51.25032 | 8.77455 | 110° | 106km/h | 8833m | -4.1m/s | -38.1°C | 64.9% | 325.4hPa | 2.6V | 07:40:13 | 03:12:26 | 00:00:00 | |
| DO2JMG | 2026-09-01 01:29:55 | 51.25067 | 8.77251 | 101° | 100km/h | 8853m | -3.9m/s | -38.3°C | 62.4% | 324.4hPa | 2.5V | 07:41:04 | 03:12:21 | 00:00:00 | |
| DB0ND-19 | 2026-09-01 01:29:55 | 51.25072 | 8.77212 | 100° | 95km/h | 8857m | -4.1m/s | -38.3°C | 57.5% | 324.3hPa | 2.5V | 00:00:00 | 00:00:00 | 00:00:00 | |
| DL1NUX | 2026-09-01 01:29:54 | 51.25096 | 8.77036 | 105° | 84km/h | 8878m | -4.3m/s | -38.5°C | 63.9% | 323.3hPa | 2.5V | 07:40:04 | 03:12:15 | 00:00:00 | |
| DL1XH1-15 | 2026-09-01 01:29:52 | 51.25090 | 8.77069 | 103° | 86km/h | 8874m | -4.2m/s | -38.4°C | 63.3% | 323.4hPa | 2.5V | 07:40:03 | 03:12:16 | 00:00:00 | |
| HSKMA3-T | 2026-09-01 01:29:49 | 51.25096 | 8.77036 | 106° | 84km/h | 8878m | -4.4m/s | -38.5°C | 64.3% | 323.3hPa | 2.5V | 07:40:13 | 03:12:15 | 00:00:00 | |
| DM0DOS-11 | 2026-09-01 01:29:49 | 51.25102 | 8.77004 | 108° | 84km/h | 8882m | -4.1m/s | -38.5°C | 64.3% | 323.1hPa | 2.5V | 07:40:05 | 03:12:14 | 00:00:00 | |
| DL3AQ-11 | 2026-09-01 01:29:46 | 51.25125 | 8.76909 | 114° | 86km/h | 8894m | -4.3m/s | -38.6°C | 60.2% | 322.5hPa | 2.6V | 00:00:00 | 00:00:00 | 00:00:00 | |
| WPPR-10 | 2026-09-01 01:29:45 | 51.25125 | 8.76909 | 114° | 86km/h | 8894m | -4.3m/s | -38.6°C | 60.2% | 322.5hPa | 2.6V | 00:00:00 | 00:00:00 | 00:00:00 | |
| SONCRA | 2026-09-01 01:29:44 | 51.25135 | 8.76877 | 115° | 88km/h | 8898m | -4.2m/s | -38.7°C | 60.2% | 322.3hPa | 2.6V | 00:00:00 | 00:00:00 | 00:00:00 | |
| DJ2DS-15 | 2026-09-01 01:29:43 | 51.25145 | 8.76844 | 116° | 100km/h | 8903m | -4.1m/s | -38.6°C | 65.0% | 322.1hPa | 2.6V | 00:00:00 | 03:12:09 | 00:00:00 | |
| DL1XH1-15 | 2026-09-01 01:29:42 | 51.25176 | 8.76743 | 116° | 97km/h | 8915m | -4.2m/s | -38.8°C | 65.6% | 321.5hPa | 2.6V | 07:40:13 | 03:12:06 | 00:00:00 | |
| DM0DOS-11 | 2026-09-01 01:29:42 | 51.25197 | 8.76670 | 114° | 102km/h | 8923m | -4.1m/s | -38.9°C | 66.7% | 321.1hPa | 2.6V | 07:40:15 | 03:12:04 | 00:00:00 | |
| BIOWL1-15 | 2026-09-01 01:29:42 | 51.25176 | 8.76743 | 116° | 97km/h | 8915m | -4.2m/s | -38.8°C | 65.4% | 321.5hPa | 2.6V | 07:40:13 | 03:12:06 | 00:00:00 | |
| DL1XH-west | 2026-09-01 01:29:39 | 51.25186 | 8.76707 | 115° | 99km/h | 8919m | -4.2m/s | -38.8°C | 65.7% | 321.3hPa | 2.6V | 07:41:04 | 03:12:05 | 00:00:00 | |
| DL1ZP-14 | 2026-09-01 01:29:38 | 51.25208 | 8.76633 | 113° | 102km/h | 8927m | -3.9m/s | -38.9°C | 62.2% | 320.9hPa | 2.5V | 00:00:00 | 00:00:00 | 00:00:00 | |
| DF7PN | 2026-09-01 01:29:36 | 51.25227 | 8.76554 | 110° | 104km/h | 8935m | -4.1m/s | -39.0°C | 63.0% | 320.6hPa | 2.5V | 00:00:00 | 00:00:00 | 00:00:00 | |
| DL1NUX | 2026-09-01 01:29:34 | 51.25273 | 8.76309 | 103° | 102km/h | 8960m | -4.3m/s | -39.1°C | 70.3% | 319.4hPa | 2.5V | 07:40:24 | 03:11:55 | 00:00:00 | |
| DO9LL-15 | 2026-09-01 01:29:33 | 51.25245 | 8.76473 | 108° | 99km/h | 8943m | -4.0m/s | -39.0°C | 69.6% | 320.1hPa | 2.5V | 00:00:00 | 03:11:59 | 00:00:00 | |
| DL1XH1-15 | 2026-09-01 01:29:32 | 51.25267 | 8.76350 | 104° | 104km/h | 8956m | -4.1m/s | -39.1°C | 70.8% | 319.6hPa | 2.5V | 07:40:23 | 03:11:56 | 00:00:00 | |
| HSKMA3-T | 2026-09-01 01:29:28 | 51.25279 | 8.76269 | 103° | 100km/h | 8964m | -4.1m/s | -39.2°C | 70.7% | 319.2hPa | 2.5V | 07:41:04 | 03:11:54 | 00:00:00 | |
| DB0UT-7 | 2026-09-01 01:29:27 | 51.25284 | 8.76230 | 102° | 97km/h | 8969m | -4.2m/s | -39.2°C | 69.4% | 318.9hPa | 2.6V | 00:00:00 | 03:11:53 | 00:00:00 | |
| DL1XH1-15 | 2026-09-01 01:29:25 | 51.25318 | 8.75982 | 108° | 84km/h | 8998m | -3.8m/s | -39.5°C | 68% | 317.6hPa | 2.6V | 07:40:33 | 03:11:46 | 00:00:00 | |
| DL1NUX | 2026-09-01 01:29:24 | 51.25325 | 8.75950 | 111° | 84km/h | 9002m | -3.8m/s | -39.5°C | 68.2% | 317.5hPa | 2.6V | 07:40:34 | 03:11:45 | 00:00:00 | |
| DO2JMG | 2026-09-01 01:29:23 | 51.25302 | 8.76082 | 102° | 88km/h | 8986m | -4.2m/s | -39.3°C | 67.7% | 318.2hPa | 2.5V | 07:41:04 | 03:11:49 | 00:00:00 | |
| DJ2DS-15 | 2026-09-01 01:29:23 | 51.25302 | 8.76082 | 102° | 97km/h | 8986m | -4.1m/s | -39.3°C | 66.8% | 318.2hPa | 2.5V | 00:00:00 | 03:11:49 | 00:00:00 | |
| DM0DOS-11 | 2026-09-01 01:29:22 | 51.25333 | 8.75918 | 113° | 88km/h | 9005m | -3.8m/s | -39.5°C | 68.5% | 317.3hPa | 2.5V | 07:40:35 | 03:11:44 | 00:00:00 | |
| DF8AY | 2026-09-01 01:29:20 | 51.25318 | 8.75982 | 108° | 84km/h | 8998m | -3.8m/s | 0°C | 0% | 317.6hPa | 2.6V | 18:12:15 | 03:11:46 | 00:00:00 | |
| BIOWL1-15 | 2026-09-01 01:29:18 | 51.25333 | 8.75918 | 114° | 88km/h | 9005m | -3.8m/s | -39.5°C | 67.3% | 317.3hPa | 2.5V | 07:41:04 | 03:11:44 | 00:00:00 | |
| DL1XH-west | 2026-09-01 01:29:17 | 51.25342 | 8.75886 | 115° | 89km/h | 9009m | -3.9m/s | -39.6°C | 67.4% | 317.1hPa | 2.5V | 07:41:04 | 03:11:43 | 00:00:00 | |
| DL1CLM-18 | 2026-09-01 01:29:17 | 51.25342 | 8.75886 | 116° | 89km/h | 9009m | -3.9m/s | -39.6°C | 63.6% | 317.1hPa | 2.6V | 00:00:00 | 00:00:00 | 00:00:00 | |
| NBG1-10 | 2026-09-01 01:29:16 | 51.25352 | 8.75853 | 116° | 102km/h | 9013m | -4.0m/s | -39.6°C | 68.8% | 316.9hPa | 2.6V | 00:00:00 | 03:11:42 | 00:00:00 | |
| DB0NH | 2026-09-01 01:29:15 | 51.25362 | 8.75818 | 116° | 99km/h | 9017m | -4.0m/s | -39.6°C | 69.7% | 316.7hPa | 2.6V | 00:00:00 | 03:11:41 | 00:00:00 | |
| DL1NUX | 2026-09-01 01:29:14 | 51.25425 | 8.75590 | 110° | 108km/h | 9042m | -4.4m/s | -39.8°C | 70.5% | 315.6hPa | 2.6V | 07:40:44 | 03:11:35 | 00:00:00 | |
| DL8DAS-15 | 2026-09-01 01:29:13 | 51.25384 | 8.75746 | 116° | 102km/h | 9025m | -4.3m/s | -39.7°C | 65.1% | 316.4hPa | 2.6V | 00:00:00 | 00:00:00 | 00:00:00 | |
| DM0DOS-11 | 2026-09-01 01:29:12 | 51.25434 | 8.75548 | 108° | 110km/h | 9046m | -4.4m/s | -39.9°C | 70% | 315.4hPa | 2.6V | 07:40:45 | 03:11:34 | 00:00:00 | |
| DL1XH1-15 | 2026-09-01 01:29:12 | 51.25415 | 8.75630 | 111° | 108km/h | 9038m | -4.2m/s | -39.8°C | 70.6% | 315.8hPa | 2.5V | 07:40:43 | 03:11:36 | 00:00:00 | |
| DO2JMG | 2026-09-01 01:29:12 | 51.25394 | 8.75709 | 114° | 104km/h | 9030m | -4.4m/s | -39.7°C | 69.3% | 316.2hPa | 2.5V | 07:41:04 | 03:11:38 | 00:00:00 | |
| BIOWL1-15 | 2026-09-01 01:29:08 | 51.25434 | 8.75548 | 109° | 110km/h | 9047m | -4.4m/s | -39.9°C | 69.8% | 315.4hPa | 2.6V | 07:41:04 | 03:11:34 | 00:00:00 | |
| HSKMA3-T | 2026-09-01 01:29:07 | 51.25442 | 8.75507 | 107° | 110km/h | 9051m | -4.3m/s | -39.9°C | 69.6% | 315.2hPa | 2.6V | 07:41:04 | 03:11:33 | 00:00:00 | |
| DL1XH-west | 2026-09-01 01:29:07 | 51.25450 | 8.75464 | 105° | 108km/h | 9055m | -4.2m/s | -39.9°C | 69.3% | 315hPa | 2.5V | 07:41:04 | 03:11:32 | 00:00:00 | |
| DJ2DS-15 | 2026-09-01 01:29:06 | 51.25457 | 8.75422 | 103° | 106km/h | 9059m | -4.1m/s | -40.0°C | 63.0% | 314.8hPa | 2.5V | 00:00:00 | 00:00:00 | 00:00:00 | |
| DL1XH1-15 | 2026-09-01 01:29:05 | 51.25480 | 8.75222 | 99° | 93km/h | 9079m | -4.1m/s | -40.1°C | 66.6% | 313.8hPa | 2.5V | 07:40:53 | 03:11:26 | 00:00:00 | |
| DF7PN | 2026-09-01 01:29:05 | 51.25462 | 8.75380 | 101° | 104km/h | 9063m | -4.1m/s | -40.0°C | 62.6% | 314.6hPa | 2.5V | 00:00:00 | 00:00:00 | 00:00:00 | |
| DL1NUX | 2026-09-01 01:29:04 | 51.25484 | 8.75186 | 100° | 89km/h | 9084m | -4.2m/s | -40.2°C | 66.9% | 313.6hPa | 2.5V | 07:40:54 | 03:11:25 | 00:00:00 | |
| DO9LL-15 | 2026-09-01 01:29:03 | 51.25467 | 8.75339 | 101° | 102km/h | 9067m | -4.1m/s | -40.0°C | 67.1% | 314.3hPa | 2.5V | 00:00:00 | 03:11:29 | 00:00:00 | |
| DM0DOS-11 | 2026-09-01 01:29:02 | 51.25488 | 8.75150 | 102° | 88km/h | 9088m | -4.3m/s | -40.2°C | 67% | 313.5hPa | 2.5V | 07:40:55 | 03:11:24 | 00:00:00 | |
| DO2JMG | 2026-09-01 01:29:01 | 51.25476 | 8.75260 | 99° | 97km/h | 9075m | -4.1m/s | -40.1°C | 67.5% | 314hPa | 2.5V | 07:41:04 | 03:11:27 | 00:00:00 | |
| DF8AY | 2026-09-01 01:28:59 | 51.25484 | 8.75186 | 101° | 89km/h | 9084m | -4.2m/s | 0°C | 0% | 313.6hPa | 2.5V | 18:12:15 | 03:11:25 | 00:00:00 | |
| BIOWL1-15 | 2026-09-01 01:28:57 | 51.25494 | 8.75116 | 105° | 86km/h | 9092m | -4.2m/s | -40.2°C | 66.8% | 313.3hPa | 2.6V | 07:41:04 | 03:11:23 | 00:00:00 | |
| DL1XH-west | 2026-09-01 01:28:55 | 51.25507 | 8.75050 | 110° | 88km/h | 9100m | -4m/s | -40.3°C | 66.6% | 312.9hPa | 2.6V | 07:41:04 | 03:11:21 | 00:00:00 | |
| DL1NUX | 2026-09-01 01:28:54 | 51.25563 | 8.74836 | 112° | 104km/h | 9124m | -4.1m/s | -40.5°C | 68% | 311.8hPa | 2.5V | 07:41:04 | 03:11:15 | 00:00:00 | |
| DB0ND-19 | 2026-09-01 01:28:53 | 51.25533 | 8.74947 | 113° | 95km/h | 9112m | -3.9m/s | -40.4°C | 61.6% | 312.4hPa | 2.5V | 00:00:00 | 00:00:00 | 00:00:00 | |
| DM0DOS-11 | 2026-09-01 01:28:52 | 51.25573 | 8.74797 | 111° | 106km/h | 9128m | -4m/s | -40.5°C | 68.7% | 311.6hPa | 2.5V | 07:41:05 | 03:11:14 | 00:00:00 | |
| DL1XH1-15 | 2026-09-01 01:28:52 | 51.25553 | 8.74874 | 113° | 100km/h | 9120m | -4.2m/s | -40.5°C | 67.8% | 312hPa | 2.6V | 07:41:03 | 03:11:16 | 00:00:00 | |
| DO2JMG | 2026-09-01 01:28:50 | 51.25553 | 8.74874 | 113° | 100km/h | 9120m | -4.2m/s | -40.5°C | 66.8% | 312hPa | 2.6V | 07:41:04 | 03:11:16 | 00:00:00 | |
| HSKMA3-T | 2026-09-01 01:28:47 | 51.25582 | 8.74757 | 110° | 108km/h | 9133m | -4m/s | -40.6°C | 67.5% | 311.4hPa | 2.5V | 07:41:55 | 03:11:13 | 00:00:00 | |
| BIOWL1-15 | 2026-09-01 01:28:46 | 51.25591 | 8.74715 | 109° | 110km/h | 9137m | -4.3m/s | -40.6°C | 67.8% | 311.2hPa | 2.5V | 07:41:55 | 03:11:12 | 00:00:00 | |
| DL1XH-west | 2026-09-01 01:28:45 | 51.25600 | 8.74673 | 108° | 110km/h | 9141m | -4.1m/s | -40.7°C | 68.2% | 311hPa | 2.6V | 07:41:55 | 03:11:11 | 00:00:00 | |
| DB0NH | 2026-09-01 01:28:45 | 51.25600 | 8.74673 | 108° | 106km/h | 9141m | -4.1m/s | -40.6°C | 69.7% | 311.0hPa | 2.6V | 00:00:00 | 03:11:11 | 00:00:00 | |
| DL1NUX | 2026-09-01 01:28:44 | 51.25644 | 8.74413 | 102° | 111km/h | 9166m | -4.4m/s | -40.9°C | 69.9% | 309.9hPa | 2.6V | 07:41:14 | 03:11:05 | 00:00:00 | |
| DJ2DS-15 | 2026-09-01 01:28:43 | 51.25616 | 8.74588 | 106° | 102km/h | 9149m | -4.2m/s | -40.7°C | 69.8% | 310.7hPa | 2.6V | 00:00:00 | 03:11:09 | 00:00:00 | |
| DM0DOS-11 | 2026-09-01 01:28:42 | 51.25650 | 8.74369 | 101° | 111km/h | 9171m | -4.5m/s | -40.9°C | 69.8% | 309.7hPa | 2.6V | 07:41:15 | 03:11:04 | 00:00:00 | |
| DO2JMG | 2026-09-01 01:28:40 | 51.25637 | 8.74457 | 104° | 111km/h | 9162m | -4.2m/s | -40.8°C | 69.9% | 310.1hPa | 2.5V | 07:41:55 | 03:11:06 | 00:00:00 | |
| HSKMA3-T | 2026-09-01 01:28:37 | 51.25655 | 8.74325 | 101° | 111km/h | 9175m | -4.4m/s | -41°C | 70.6% | 309.5hPa | 2.5V | 07:41:55 | 03:11:03 | 00:00:00 | |
| DL1XH-west | 2026-09-01 01:28:35 | 51.25665 | 8.74238 | 100° | 108km/h | 9184m | -4.2m/s | -41°C | 70.8% | 309.1hPa | 2.5V | 07:41:55 | 03:11:01 | 00:00:00 | |
| DF7PN | 2026-09-01 01:28:34 | 51.25673 | 8.74154 | 97° | 102km/h | 9192m | -4.2m/s | -41.1°C | 64.4% | 308.7hPa | 2.6V | 00:00:00 | 00:00:00 | 00:00:00 | |
| DO9LL-15 | 2026-09-01 01:28:33 | 51.25673 | 8.74153 | 98° | 102km/h | 9192m | -4.2m/s | -41.1°C | 69.9% | 308.6hPa | 2.6V | 07:41:00 | 03:10:59 | 00:00:00 | |
| DM0DOS-11 | 2026-09-01 01:28:32 | 51.25693 | 8.73967 | 103° | 88km/h | 9213m | -4m/s | -41.3°C | 72% | 307.8hPa | 2.6V | 07:41:25 | 03:10:54 | 00:00:00 | |
| DL1XH1-15 | 2026-09-01 01:28:32 | 51.25684 | 8.74037 | 99° | 91km/h | 9204m | -4m/s | -41.2°C | 71% | 308.1hPa | 2.5V | 07:41:23 | 03:10:56 | 00:00:00 | |
| DO2JMG | 2026-09-01 01:28:30 | 51.25684 | 8.74037 | 99° | 91km/h | 9204m | -4m/s | -41.2°C | 71.1% | 308.1hPa | 2.5V | 07:41:55 | 03:10:56 | 00:00:00 | |
| HSKMA3-T | 2026-09-01 01:28:26 | 51.25705 | 8.73898 | 108° | 91km/h | 9221m | -4.3m/s | -41.4°C | 71.8% | 307.4hPa | 2.6V | 07:41:55 | 03:10:52 | 00:00:00 | |
| DL3AQ-11 | 2026-09-01 01:28:25 | 51.25713 | 8.73863 | 110° | 93km/h | 9225m | -4.1m/s | -41.4°C | 68.0% | 307.2hPa | 2.5V | 00:00:00 | 00:00:00 | 00:00:00 | |
| DL1NUX | 2026-09-01 01:28:24 | 51.25767 | 8.73626 | 107° | 113km/h | 9250m | -4.3m/s | -41.6°C | 75.6% | 306.1hPa | 2.5V | 07:41:34 | 03:10:45 | 00:00:00 | |
| DL1XH-west | 2026-09-01 01:28:24 | 51.25721 | 8.73827 | 111° | 97km/h | 9229m | -4.2m/s | -41.4°C | 72.6% | 307hPa | 2.5V | 07:41:55 | 03:10:50 | 00:00:00 | |
| DO2JMG | 2026-09-01 01:28:19 | 51.25767 | 8.73626 | 108° | 113km/h | 9250m | -4.3m/s | -41.6°C | 74.4% | 306.1hPa | 2.5V | 07:41:55 | 03:10:45 | 00:00:00 | |
| HSKMA3-T | 2026-09-01 01:28:15 | 51.25797 | 8.73446 | 102° | 115km/h | 9267m | -4.3m/s | -41.8°C | 75.3% | 305.3hPa | 2.5V | 07:41:55 | 03:10:41 | 00:00:00 | |
| DL1XH-west | 2026-09-01 01:28:13 | 51.25808 | 8.73355 | 100° | 113km/h | 9276m | -4.3m/s | -41.9°C | 75.3% | 304.9hPa | 2.5V | 07:41:55 | 03:10:39 | 00:00:00 | |
| DL3AQ-11 | 2026-09-01 01:28:13 | 51.25812 | 8.73310 | 98° | 111km/h | 9281m | -4.4m/s | -41.9°C | 69.1% | 304.7hPa | 2.5V | 00:00:00 | 00:00:00 | 00:00:00 | |
| DL4BBY-15 | 2026-09-01 01:28:12 | 51.25812 | 8.73310 | 99° | 104km/h | 9281m | -4.3m/s | -41.9°C | 0% | 0hPa | 2.5V | 00:00:00 | 00:00:00 | 00:00:00 | |
| DL8DAS-15 | 2026-09-01 01:28:11 | 51.25812 | 8.73310 | 99° | 113km/h | 9281m | -4.4m/s | -41.9°C | 69.1% | 304.7hPa | 2.5V | 00:00:00 | 00:00:00 | 00:00:00 | |
| DB0DAN | 2026-09-01 01:28:10 | 51.25819 | 8.73222 | 96° | 102km/h | 9289m | -4.2m/s | -42°C | 69.8% | 304.3hPa | 2.5V | 00:00:00 | 00:00:00 | 00:00:00 | |
| DO2JMG | 2026-09-01 01:28:09 | 51.25822 | 8.73180 | 96° | 104km/h | 9293m | -4.2m/s | -42°C | 75.6% | 304.1hPa | 2.5V | 07:41:55 | 03:10:35 | 00:00:00 | |
| DL1CLM-18 | 2026-09-01 01:28:07 | 51.25825 | 8.73138 | 97° | 102km/h | 9298m | -4.2m/s | -42.0°C | 71.1% | 303.9hPa | 2.5V | 00:00:00 | 00:00:00 | 00:00:00 | |
| DL1ZP-14 | 2026-09-01 01:28:05 | 51.25839 | 8.72984 | 101° | 91km/h | 9314m | -4.0m/s | -42.2°C | 73.6% | 303.2hPa | 2.5V | 00:00:00 | 00:00:00 | 00:00:00 | |
| DL1NUX | 2026-09-01 01:28:04 | 51.25872 | 8.72802 | 109° | 99km/h | 9335m | -4.5m/s | -42.2°C | 79.4% | 302.3hPa | 2.5V | 07:41:54 | 03:10:25 | 00:00:00 | |
| HSKMA3-T | 2026-09-01 01:28:04 | 51.25839 | 8.72984 | 102° | 93km/h | 9314m | -4m/s | -42.2°C | 77.3% | 303.2hPa | 2.5V | 07:41:55 | 03:10:30 | 00:00:00 | |
| DL1XH-west | 2026-09-01 01:28:02 | 51.25850 | 8.72911 | 106° | 93km/h | 9322m | -4.2m/s | -42.2°C | 77.8% | 302.9hPa | 2.6V | 07:41:55 | 03:10:28 | 00:00:00 | |
| DF8AY | 2026-09-01 01:28:00 | 51.25864 | 8.72839 | 108° | 95km/h | 9331m | -4.3m/s | 0°C | 0% | 302.6hPa | 2.5V | 18:12:15 | 03:10:26 | 00:00:00 | |
| DO2JMG | 2026-09-01 01:27:58 | 51.25880 | 8.72765 | 110° | 100km/h | 9339m | -4.5m/s | -42.3°C | 78.4% | 302.1hPa | 2.5V | 07:41:55 | 03:10:24 | 00:00:00 | |
| DD1CC8 | 2026-09-01 01:27:56 | 51.25907 | 8.72646 | 109° | 108km/h | 9353m | -4.4m/s | -42.3°C | 73.3% | 301.5hPa | 2.5V | 00:00:00 | 00:00:00 | 00:00:00 | |
| DB0DAN | 2026-09-01 01:27:55 | 51.25907 | 8.72646 | 110° | 102km/h | 9353m | -4.4m/s | -42.3°C | 73.3% | 301.51hPa | 2.5V | 00:00:00 | 00:00:00 | 00:00:00 | |
| DL1NUX | 2026-09-01 01:27:54 | 51.25956 | 8.72380 | 101° | 117km/h | 9379m | -4.1m/s | -42.5°C | 83.1% | 300.3hPa | 2.5V | 07:42:04 | 03:10:15 | 00:00:00 | |
| HSKMA3-T | 2026-09-01 01:27:54 | 51.25916 | 8.72605 | 109° | 111km/h | 9357m | -4.6m/s | -42.4°C | 79.1% | 301.3hPa | 2.5V | 07:42:46 | 03:10:20 | 00:00:00 | |
| BIOWL1-15 | 2026-09-01 01:27:53 | 51.25925 | 8.72562 | 108° | 113km/h | 9362m | -4.4m/s | -42.4°C | 79.4% | 301.1hPa | 2.5V | 07:42:46 | 03:10:19 | 00:00:00 | |
| DM0DOS-11 | 2026-09-01 01:27:52 | 51.25961 | 8.72335 | 99° | 113km/h | 9383m | -4.2m/s | -42.6°C | 83.4% | 300.2hPa | 2.5V | 07:42:05 | 03:10:14 | 00:00:00 | |
| DL1XH-west | 2026-09-01 01:27:52 | 51.25934 | 8.72518 | 107° | 115km/h | 9366m | -4.3m/s | -42.4°C | 79.8% | 300.9hPa | 2.6V | 07:42:46 | 03:10:18 | 00:00:00 | |
| DO2JMG | 2026-09-01 01:27:48 | 51.25961 | 8.72335 | 100° | 115km/h | 9383m | -4.2m/s | -42.6°C | 81.7% | 300.2hPa | 2.5V | 07:44:28 | 03:10:14 | 00:00:00 | |
| HSKMA3-T | 2026-09-01 01:27:44 | 51.25976 | 8.72164 | 98° | 100km/h | 9399m | -4.1m/s | -42.7°C | 82.5% | 299.4hPa | 2.5V | 07:42:46 | 03:10:10 | 00:00:00 | |
| DJ2DS-15 | 2026-09-01 01:27:43 | 51.25979 | 8.72124 | 99° | 102km/h | 9403m | -4.3m/s | -42.7°C | 84.2% | 299.2hPa | 2.5V | 00:00:00 | 03:10:09 | 00:00:00 | |
| DM0DOS-11 | 2026-09-01 01:27:42 | 51.26003 | 8.71939 | 105° | 91km/h | 9424m | -4.1m/s | -42.8°C | 83.1% | 298.3hPa | 2.5V | 07:42:15 | 03:10:04 | 00:00:00 | |
| DL1XH1-15 | 2026-09-01 01:27:42 | 51.25992 | 8.72011 | 101° | 93km/h | 9416m | -4.3m/s | -42.8°C | 84.2% | 298.7hPa | 2.5V | 07:42:13 | 03:10:06 | 00:00:00 | |
| BIOWL1-15 | 2026-09-01 01:27:42 | 51.25983 | 8.72086 | 99° | 95km/h | 9408m | -4.3m/s | -42.7°C | 82.7% | 299.1hPa | 2.6V | 07:42:46 | 03:10:08 | 00:00:00 | |
| DL1XH-west | 2026-09-01 01:27:41 | 51.25987 | 8.72048 | 100° | 93km/h | 9412m | -4.1m/s | -42.8°C | 82.9% | 298.9hPa | 2.6V | 07:42:46 | 03:10:07 | 00:00:00 | |
| DB0DAN | 2026-09-01 01:27:40 | 51.25992 | 8.72011 | 102° | 88km/h | 9416m | -4.3m/s | -42.8°C | 77.8% | 298.69hPa | 2.5V | 00:00:00 | 00:00:00 | 00:00:00 | |
| DO2JMG | 2026-09-01 01:27:35 | 51.26024 | 8.71832 | 110° | 95km/h | 9437m | -4.2m/s | -42.9°C | 81.9% | 297.7hPa | 2.5V | 07:44:28 | 03:10:01 | 00:00:00 | |
| DL1NUX | 2026-09-01 01:27:34 | 51.26082 | 8.71599 | 110° | 111km/h | 9463m | -4.3m/s | -43.1°C | 81.1% | 296.6hPa | 2.5V | 07:42:24 | 03:09:55 | 00:00:00 | |
| HSKMA3-T | 2026-09-01 01:27:34 | 51.26033 | 8.71795 | 112° | 99km/h | 9441m | -4.4m/s | -42.9°C | 81.7% | 297.5hPa | 2.5V | 07:42:46 | 03:10:00 | 00:00:00 | |
| DL1ZP-14 | 2026-09-01 01:27:34 | 51.26042 | 8.71758 | 112° | 100km/h | 9445m | -4.3m/s | -43.0°C | 75.4% | 297.3hPa | 2.5V | 00:00:00 | 00:00:00 | 00:00:00 | |
| DO9LL-15 | 2026-09-01 01:27:33 | 51.26042 | 8.71758 | 113° | 106km/h | 9446m | -4.3m/s | -42.9°C | 81.8% | 297.3hPa | 2.5V | 00:00:00 | 03:09:59 | 00:00:00 | |
| DL1XH1-15 | 2026-09-01 01:27:32 | 51.26072 | 8.71640 | 111° | 110km/h | 9458m | -4.2m/s | -43.1°C | 81.2% | 296.8hPa | 2.5V | 07:42:23 | 03:09:56 | 00:00:00 | |
| BIOWL1-15 | 2026-09-01 01:27:31 | 51.26062 | 8.71681 | 112° | 106km/h | 9454m | -4.2m/s | -43°C | 80.8% | 297hPa | 2.6V | 07:42:46 | 03:09:57 | 00:00:00 | |
| DL1XH-west | 2026-09-01 01:27:30 | 51.26072 | 8.71640 | 111° | 110km/h | 9458m | -4.2m/s | -43.1°C | 80.5% | 296.8hPa | 2.5V | 07:42:46 | 03:09:56 | 00:00:00 | |
| DL8DAS-15 | 2026-09-01 01:27:29 | 51.26082 | 8.71599 | 111° | 111km/h | 9463m | -4.3m/s | -43.1°C | 74.8% | 296.6hPa | 2.6V | 00:00:00 | 00:00:00 | 00:00:00 | |
| DB0UT-7 | 2026-09-01 01:27:27 | 51.26101 | 8.71512 | 108° | 108km/h | 9471m | -4.2m/s | -43.1°C | 80.6% | 296.2hPa | 2.6V | 00:00:00 | 03:09:53 | 00:00:00 | |
| DB0DAN | 2026-09-01 01:27:25 | 51.26116 | 8.71422 | 104° | 110km/h | 9479m | -4.2m/s | -43.2°C | 73.7% | 295.87hPa | 2.5V | 00:00:00 | 00:00:00 | 00:00:00 | |
| DL1CLM-18 | 2026-09-01 01:27:25 | 51.26117 | 8.71422 | 105° | 115km/h | 9480m | -4.2m/s | -43.2°C | 73.7% | 295.9hPa | 2.5V | 00:00:00 | 00:00:00 | 00:00:00 | |
| DL1NUX | 2026-09-01 01:27:24 | 51.26147 | 8.71159 | 98° | 104km/h | 9505m | -4.3m/s | -43.4°C | 78.9% | 294.7hPa | 2.5V | 07:42:34 | 03:09:45 | 00:00:00 | |
| HSKMA3-T | 2026-09-01 01:27:23 | 51.26129 | 8.71332 | 101° | 113km/h | 9488m | -4.4m/s | -43.3°C | 79.3% | 295.5hPa | 2.5V | 07:42:46 | 03:09:49 | 00:00:00 | |
| DJ2DS-15 | 2026-09-01 01:27:23 | 51.26129 | 8.71332 | 102° | 102km/h | 9488m | -4.3m/s | -43.2°C | 79.2% | 295.5hPa | 2.5V | 00:00:00 | 03:09:49 | 00:00:00 | |
| DL1XH1-15 | 2026-09-01 01:27:22 | 51.26143 | 8.71201 | 98° | 106km/h | 9501m | -4.3m/s | -43.4°C | 78.7% | 295hPa | 2.5V | 07:42:33 | 03:09:46 | 00:00:00 | |
| DM0DOS-11 | 2026-09-01 01:27:22 | 51.26151 | 8.71118 | 98° | 100km/h | 9509m | -4.3m/s | -43.4°C | 78.9% | 294.5hPa | 2.5V | 07:42:35 | 03:09:44 | 00:00:00 | |
| DL1XH-west | 2026-09-01 01:27:20 | 51.26147 | 8.71159 | 98° | 104km/h | 9505m | -4.3m/s | -43.4°C | 79.6% | 294.7hPa | 2.5V | 07:42:46 | 03:09:45 | 00:00:00 | |
| DF8AY | 2026-09-01 01:27:15 | 51.26163 | 8.71003 | 101° | 93km/h | 9522m | -4.4m/s | 0°C | 0% | 294hPa | 2.5V | 18:12:15 | 03:09:41 | 00:00:00 | |
| DL8OAI-8 | 2026-09-01 01:27:15 | 51.26162 | 8.71003 | 102° | 93km/h | 9522m | -4.4m/s | -43.5°C | 73.8% | 294.0hPa | 2.5V | 07:42:00 | 00:00:00 | 00:00:00 | |
| DL1NUX | 2026-09-01 01:27:14 | 51.26205 | 8.70786 | 112° | 102km/h | 9547m | -4.2m/s | -43.8°C | 83.6% | 292.9hPa | 2.5V | 07:42:44 | 03:09:35 | 00:00:00 | |
| DM0DOS-11 | 2026-09-01 01:27:12 | 51.26215 | 8.70747 | 111° | 104km/h | 9551m | -4.4m/s | -43.8°C | 83.2% | 292.7hPa | 2.5V | 07:42:45 | 03:09:34 | 00:00:00 | |
| HSKMA3-T | 2026-09-01 01:27:12 | 51.26179 | 8.70896 | 108° | 93km/h | 9535m | -4.1m/s | -43.7°C | 80.3% | 293.4hPa | 2.6V | 07:42:46 | 03:09:38 | 00:00:00 | |
| DL4BBY-15 | 2026-09-01 01:27:12 | 51.26180 | 8.70896 | 108° | 104km/h | 9535m | -4.0m/s | -43.6°C | 0% | 0hPa | 2.5V | 00:00:00 | 00:00:00 | 00:00:00 | |
| DB0DAN | 2026-09-01 01:27:10 | 51.26196 | 8.70823 | 112° | 95km/h | 9543m | -4m/s | -43.7°C | 76.9% | 293.12hPa | 2.5V | 00:00:00 | 00:00:00 | 00:00:00 | |
| DL1XH-west | 2026-09-01 01:27:08 | 51.26215 | 8.70747 | 112° | 104km/h | 9551m | -4.4m/s | -43.8°C | 81.6% | 292.7hPa | 2.5V | 07:42:46 | 03:09:34 | 00:00:00 | |
| DF8AY | 2026-09-01 01:27:05 | 51.26245 | 8.70625 | 111° | 111km/h | 9564m | -4.5m/s | 0°C | 0% | 292.2hPa | 2.5V | 18:12:15 | 03:09:31 | 00:00:00 | |
| DL1XH1-15 | 2026-09-01 01:27:05 | 51.26291 | 8.70405 | 105° | 117km/h | 9586m | -4.3m/s | -44.1°C | 81.2% | 291.2hPa | 2.5V | 07:42:53 | 03:09:26 | 00:00:00 | |
| DO3DL | 2026-09-01 01:27:05 | 51.26245 | 8.70625 | 112° | 111km/h | 9564m | -4.5m/s | -43.9°C | 76.7% | 292.2hPa | 2.5V | 07:43:00 | 00:00:00 | 00:00:00 | |
| DL1NUX | 2026-09-01 01:27:04 | 51.26298 | 8.70359 | 103° | 117km/h | 9590m | -4.5m/s | -44.1°C | 80.9% | 291.1hPa | 2.5V | 07:42:54 | 03:09:25 | 00:00:00 | |
| DJ2DS-15 | 2026-09-01 01:27:03 | 51.26264 | 8.70540 | 109° | 104km/h | 9573m | -4.2m/s | -44.0°C | 82.4% | 291.7hPa | 2.5V | 00:00:00 | 03:09:29 | 00:00:00 | |
| DM0DOS-11 | 2026-09-01 01:27:02 | 51.26305 | 8.70313 | 102° | 117km/h | 9594m | -4.2m/s | -44.1°C | 81.1% | 290.9hPa | 2.5V | 07:42:55 | 03:09:24 | 00:00:00 | |
| HSKMA3-T | 2026-09-01 01:27:01 | 51.26282 | 8.70450 | 107° | 117km/h | 9581m | -4.2m/s | -44.1°C | 82% | 291.4hPa | 2.6V | 07:43:37 | 03:09:27 | 00:00:00 | |
| DL1XH-west | 2026-09-01 01:26:58 | 51.26305 | 8.70313 | 102° | 117km/h | 9594m | -4.2m/s | -44.2°C | 81.4% | 290.9hPa | 2.5V | 07:43:37 | 03:09:24 | 00:00:00 | |
| BIOWL1-15 | 2026-09-01 01:26:57 | 51.26320 | 8.70179 | 98° | 108km/h | 9607m | -4.1m/s | -44.3°C | 81.1% | 290.3hPa | 2.5V | 07:43:37 | 03:09:21 | 00:00:00 | |
| DB0UT-7 | 2026-09-01 01:26:57 | 51.26310 | 8.70267 | 101° | 108km/h | 9599m | -4.0m/s | -44.1°C | 81.5% | 290.6hPa | 2.5V | 00:00:00 | 00:00:00 | 00:00:00 | |
| DO2KSM | 2026-09-01 01:26:56 | 51.26315 | 8.70223 | 100° | 111km/h | 9603m | -4.2m/s | -44.2°C | 75.2% | 290.5hPa | 2.5V | 07:43:00 | 00:00:00 | 00:00:00 | |
| DL4XJ-10 | 2026-09-01 01:26:55 | 51.26319 | 8.70179 | 99° | 104km/h | 9607m | -4.1m/s | -44.2°C | 0% | 0hPa | 2.5V | 00:00:00 | 00:00:00 | 00:00:00 | |
| DL1NUX | 2026-09-01 01:26:54 | 51.26345 | 8.69943 | 104° | 93km/h | 9631m | -4.1m/s | -44.4°C | 80.3% | 289.2hPa | 2.5V | 07:43:04 | 03:09:15 | 00:00:00 | |
| DF8AY | 2026-09-01 01:26:54 | 51.26323 | 8.70137 | 98° | 104km/h | 9611m | -4.2m/s | 0°C | 0% | 290.1hPa | 2.5V | 18:12:15 | 03:09:20 | 00:00:00 | |
| DD1CC8 | 2026-09-01 01:26:54 | 51.26327 | 8.70096 | 98° | 100km/h | 9615m | -4.1m/s | -44.3°C | 74.9% | 290.0hPa | 2.5V | 00:00:00 | 00:00:00 | 00:00:00 | |
| DL3AQ-11 | 2026-09-01 01:26:53 | 51.26331 | 8.70056 | 99° | 97km/h | 9619m | -4.1m/s | -44.3°C | 74.7% | 289.8hPa | 2.5V | 00:00:00 | 00:00:00 | 00:00:00 | |
| DD8BA-10 | 2026-09-01 01:26:52 | 51.26331 | 8.70056 | 100° | 97km/h | 9619m | -4.1m/s | -44.3°C | 81.3% | 289.7hPa | 2.5V | 00:00:00 | 00:00:00 | 00:00:00 | |
| DM0DOS-11 | 2026-09-01 01:26:51 | 51.26352 | 8.69907 | 105° | 93km/h | 9635m | -4.1m/s | -44.4°C | 80.2% | 289.1hPa | 2.5V | 07:43:05 | 03:09:14 | 00:00:00 | |
| HSKMA3-T | 2026-09-01 01:26:50 | 51.26340 | 8.69980 | 102° | 93km/h | 9627m | -4.1m/s | -44.4°C | 79.9% | 289.4hPa | 2.5V | 07:43:37 | 03:09:16 | 00:00:00 | |
| DL1XH-west | 2026-09-01 01:26:47 | 51.26358 | 8.69871 | 108° | 93km/h | 9640m | -4.2m/s | -44.5°C | 78.8% | 288.9hPa | 2.6V | 07:43:37 | 03:09:13 | 00:00:00 | |
| BIOWL1-15 | 2026-09-01 01:26:45 | 51.26374 | 8.69799 | 110° | 97km/h | 9648m | -4.2m/s | -44.5°C | 78.1% | 288.6hPa | 2.5V | 07:43:37 | 03:09:11 | 00:00:00 | |
| DB0NH | 2026-09-01 01:26:45 | 51.26374 | 8.69799 | 111° | 110km/h | 9648m | -4.1m/s | -44.5°C | 79.6% | 288.5hPa | 2.5V | 00:00:00 | 03:09:11 | 00:00:00 | |
| DL1NUX | 2026-09-01 01:26:44 | 51.26432 | 8.69562 | 110° | 113km/h | 9673m | -4.2m/s | -44.7°C | 80% | 287.4hPa | 2.5V | 07:43:14 | 03:09:05 | 00:00:00 | |
| DJ2DS-15 | 2026-09-01 01:26:43 | 51.26392 | 8.69724 | 112° | 113km/h | 9657m | -4.3m/s | -44.5°C | 80.0% | 288.1hPa | 2.5V | 00:00:00 | 03:09:09 | 00:00:00 | |
| DL3AQ-11 | 2026-09-01 01:26:42 | 51.26412 | 8.69645 | 111° | 108km/h | 9665m | -4.1m/s | -44.6°C | 73.5% | 287.8hPa | 2.5V | 00:00:00 | 00:00:00 | 00:00:00 | |
| DM0DOS-11 | 2026-09-01 01:26:41 | 51.26442 | 8.69518 | 109° | 117km/h | 9678m | -4m/s | -44.7°C | 80% | 287.2hPa | 2.5V | 07:43:15 | 03:09:04 | 00:00:00 | |
| HSKMA3-T | 2026-09-01 01:26:39 | 51.26432 | 8.69562 | 110° | 113km/h | 9673m | -4.2m/s | -44.7°C | 78.9% | 287.4hPa | 2.5V | 07:43:37 | 03:09:05 | 00:00:00 | |
| DL1XH-west | 2026-09-01 01:26:36 | 51.26461 | 8.69428 | 107° | 120km/h | 9686m | -4.4m/s | -44.8°C | 79.4% | 286.9hPa | 2.6V | 07:43:37 | 03:09:02 | 00:00:00 | |
| BUE01 | 2026-09-01 01:26:36 | 51.26469 | 8.69381 | 105° | 120km/h | 9691m | -4.4m/s | -44.8°C | 73.3% | 286.7hPa | 2.5V | 00:00:00 | 00:00:00 | 00:00:00 | |
| DL4XJ-10 | 2026-09-01 01:26:35 | 51.26469 | 8.69381 | 106° | 110km/h | 9691m | -4.3m/s | -44.8°C | 0% | 0hPa | 2.5V | 00:00:00 | 00:00:00 | 00:00:00 | |
| DL1NUX | 2026-09-01 01:26:34 | 51.26510 | 8.69098 | 99° | 117km/h | 9717m | -4.2m/s | -45°C | 79.3% | 285.5hPa | 2.5V | 07:43:24 | 03:08:55 | 00:00:00 | |
| BIOWL1-15 | 2026-09-01 01:26:34 | 51.26478 | 8.69334 | 105° | 120km/h | 9695m | -4.5m/s | -44.9°C | 79.4% | 286.5hPa | 2.5V | 07:43:37 | 03:09:00 | 00:00:00 | |
| DL8OAI-8 | 2026-09-01 01:26:34 | 51.26477 | 8.69334 | 106° | 120km/h | 9695m | -4.5m/s | -44.9°C | 72.8% | 286.5hPa | 2.5V | 07:43:00 | 00:00:00 | 00:00:00 | |
| DK9SH | 2026-09-01 01:26:33 | 51.26485 | 8.69286 | 105° | 122km/h | 9700m | -4.6m/s | -44.9°C | 72.1% | 286.3hPa | 2.5V | 07:43:00 | 00:00:00 | 00:00:00 | |
| DD8BA-10 | 2026-09-01 01:26:32 | 51.26492 | 8.69239 | 103° | 110km/h | 9704m | -4.5m/s | -44.8°C | 78.3% | 286.1hPa | 2.5V | 00:00:00 | 00:00:00 | 00:00:00 | |
| DM0DOS-11 | 2026-09-01 01:26:31 | 51.26515 | 8.69052 | 98° | 113km/h | 9722m | -4.2m/s | -45°C | 79.9% | 285.4hPa | 2.5V | 07:43:25 | 03:08:54 | 00:00:00 | |
| DO2JMG | 2026-09-01 01:26:30 | 51.26505 | 8.69144 | 101° | 119km/h | 9713m | -4.3m/s | -44.9°C | 79.3% | 285.8hPa | 2.5V | 07:44:28 | 03:08:56 | 00:00:00 | |
| HSKMA3-T | 2026-09-01 01:26:28 | 51.26515 | 8.69052 | 99° | 113km/h | 9722m | -4.2m/s | -45°C | 79.7% | 285.4hPa | 2.5V | 07:43:37 | 03:08:54 | 00:00:00 | |
| DL1XH-15 | 2026-09-01 01:26:27 | 51.26543 | 8.68807 | 104° | 99km/h | 9745m | -4.1m/s | -45.3°C | 80% | 284.4hPa | 2.5V | 07:43:31 | 03:08:48 | 00:00:00 | |
| DL1XH-west | 2026-09-01 01:26:25 | 51.26528 | 8.68924 | 100° | 102km/h | 9733m | -3.8m/s | -45.1°C | 80.5% | 284.9hPa | 2.6V | 07:43:37 | 03:08:51 | 00:00:00 | |
| DL1NUX | 2026-09-01 01:26:24 | 51.26564 | 8.68691 | 108° | 102km/h | 9758m | -3.9m/s | -45.3°C | 80.3% | 283.9hPa | 2.6V | 07:43:34 | 03:08:45 | 00:00:00 | |
| BIOWL1-15 | 2026-09-01 01:26:24 | 51.26532 | 8.68884 | 101° | 100km/h | 9737m | -4m/s | -45.2°C | 80.7% | 284.7hPa | 2.6V | 07:43:37 | 03:08:50 | 00:00:00 | |
| HSKMA3-T | 2026-09-01 01:26:18 | 51.26573 | 8.68651 | 109° | 104km/h | 9762m | -4m/s | -45.4°C | 80% | 283.7hPa | 2.6V | 07:43:37 | 03:08:44 | 00:00:00 | |
| BIOWL1-15 | 2026-09-01 01:26:18 | 51.26610 | 8.68485 | 110° | 113km/h | 9777m | -3.9m/s | -45.4°C | 79.9% | 283hPa | 2.6V | 07:44:28 | 03:08:40 | 00:00:00 | |
| DL1XH-west | 2026-09-01 01:26:15 | 51.26600 | 8.68528 | 110° | 111km/h | 9773m | -3.9m/s | -45.4°C | 79.8% | 283.2hPa | 2.5V | 07:44:28 | 03:08:41 | 00:00:00 | |
| DB0NH | 2026-09-01 01:26:15 | 51.26600 | 8.68528 | 110° | 115km/h | 9773m | -3.9m/s | -45.4°C | 81.4% | 283.1hPa | 2.6V | 00:00:00 | 03:08:41 | 00:00:00 | |
| DL1NUX | 2026-09-01 01:26:14 | 51.26659 | 8.68261 | 108° | 120km/h | 9798m | -4m/s | -45.6°C | 82.6% | 282.2hPa | 2.6V | 07:43:44 | 03:08:35 | 00:00:00 | |
| DF8AY | 2026-09-01 01:26:12 | 51.26668 | 8.68215 | 108° | 122km/h | 9802m | -4.3m/s | 0°C | 0% | 282hPa | 2.6V | 18:12:15 | 03:08:34 | 00:00:00 | |
| DD8BA-10 | 2026-09-01 01:26:12 | 51.26629 | 8.68397 | 110° | 122km/h | 9786m | -3.9m/s | -45.4°C | 82.0% | 282.7hPa | 2.5V | 00:00:00 | 00:00:00 | 00:00:00 | |
| DM0DOS-11 | 2026-09-01 01:26:11 | 51.26668 | 8.68215 | 107° | 122km/h | 9802m | -4.3m/s | -45.6°C | 82.6% | 282hPa | 2.6V | 07:43:45 | 03:08:34 | 00:00:00 | |
| GOEST3-10 | 2026-09-01 01:26:11 | 51.26639 | 8.68353 | 109° | 120km/h | 9790m | -4.0m/s | -45.5°C | 82.3% | 282.5hPa | 2.5V | 00:00:00 | 00:00:00 | 00:00:00 | |
| WPPR-10 | 2026-09-01 01:26:08 | 51.26668 | 8.68215 | 107° | 120km/h | 9802m | -4.3m/s | -45.6°C | 75.6% | 282.0hPa | 2.5V | 00:00:00 | 00:00:00 | 00:00:00 | |
| DL1XH-15 | 2026-09-01 01:26:07 | 51.26718 | 8.67923 | 101° | 126km/h | 9827m | -4.1m/s | -45.8°C | 83.1% | 281hPa | 2.5V | 07:43:51 | 03:08:28 | 00:00:00 | |
| HSKMA3-T | 2026-09-01 01:26:07 | 51.26678 | 8.68168 | 107° | 124km/h | 9806m | -4.1m/s | -45.6°C | 82.2% | 281.8hPa | 2.5V | 07:44:28 | 03:08:33 | 00:00:00 | |
| DO3DL | 2026-09-01 01:26:07 | 51.26678 | 8.68167 | 108° | 124km/h | 9806m | -4.1m/s | -45.6°C | 75.7% | 281.8hPa | 2.5V | 07:44:00 | 00:00:00 | 00:00:00 | |
| DJ2DS-15 | 2026-09-01 01:26:06 | 51.26695 | 8.68071 | 105° | 124km/h | 9814m | -4.3m/s | -45.7°C | 76.1% | 281.5hPa | 2.5V | 00:00:00 | 00:00:00 | 00:00:00 | |
| DL1XH1-15 | 2026-09-01 01:26:05 | 51.26729 | 8.67825 | 99° | 122km/h | 9835m | -4.1m/s | -45.9°C | 82.9% | 280.6hPa | 2.5V | 07:43:53 | 03:08:26 | 00:00:00 | |
| DL1XH-west | 2026-09-01 01:26:05 | 51.26695 | 8.68071 | 106° | 126km/h | 9814m | -4.3m/s | -45.7°C | 82.8% | 281.5hPa | 2.5V | 07:44:28 | 03:08:31 | 00:00:00 | |
| DO2JMG | 2026-09-01 01:26:04 | 51.26704 | 8.68022 | 104° | 126km/h | 9819m | -4.2m/s | -45.8°C | 83.1% | 281.3hPa | 2.6V | 07:44:28 | 03:08:30 | 00:00:00 | |
| BIOWL1-15 | 2026-09-01 01:26:04 | 51.26724 | 8.67874 | 100° | 124km/h | 9831m | -4.2m/s | -45.8°C | 83.7% | 280.8hPa | 2.5V | 07:44:28 | 03:08:27 | 00:00:00 | |
| DF8AY | 2026-09-01 01:26:02 | 51.26718 | 8.67923 | 102° | 126km/h | 9827m | -4.1m/s | 0°C | 0% | 281hPa | 2.5V | 18:12:15 | 03:08:28 | 00:00:00 | |
| DL3AQ-11 | 2026-09-01 01:26:02 | 51.26724 | 8.67874 | 100° | 122km/h | 9831m | -4.2m/s | -45.8°C | 75.9% | 280.8hPa | 2.6V | 00:00:00 | 00:00:00 | 00:00:00 | |
| DM0DOS-11 | 2026-09-01 01:26:01 | 51.26738 | 8.67728 | 97° | 119km/h | 9844m | -4.1m/s | -46°C | 83.1% | 280.3hPa | 2.6V | 07:43:55 | 03:08:24 | 00:00:00 | |
| HSKMA3-T | 2026-09-01 01:25:56 | 51.26746 | 8.67635 | 97° | 115km/h | 9851m | -4m/s | -46°C | 84.3% | 279.9hPa | 2.6V | 07:44:28 | 03:08:22 | 00:00:00 | |
| DB0DAN | 2026-09-01 01:25:55 | 51.26749 | 8.67589 | 97° | 108km/h | 9856m | -4.1m/s | -46°C | 76.8% | 279.77hPa | 2.5V | 00:00:00 | 00:00:00 | 00:00:00 | |
| DL1XH-west | 2026-09-01 01:25:54 | 51.26752 | 8.67545 | 97° | 111km/h | 9860m | -4m/s | -46.1°C | 84.4% | 279.6hPa | 2.5V | 07:44:28 | 03:08:20 | 00:00:00 | |
| BIOWL1-15 | 2026-09-01 01:25:53 | 51.26763 | 8.67416 | 99° | 104km/h | 9872m | -3.8m/s | -46.2°C | 84.4% | 279.1hPa | 2.6V | 07:44:28 | 03:08:17 | 00:00:00 | |
| DD1CC8 | 2026-09-01 01:25:52 | 51.26763 | 8.67416 | 99° | 104km/h | 9872m | -3.8m/s | -46.2°C | 77.5% | 279.1hPa | 2.5V | 00:00:00 | 00:00:00 | 00:00:00 | |
| DM0DOS-11 | 2026-09-01 01:25:51 | 51.26779 | 8.67293 | 103° | 104km/h | 9883m | -4m/s | -46.3°C | 86.1% | 278.6hPa | 2.5V | 07:44:05 | 03:08:14 | 00:00:00 | |
| DL3AQ-11 | 2026-09-01 01:25:46 | 51.26800 | 8.67169 | 107° | 108km/h | 9895m | -3.9m/s | -46.4°C | 80.3% | 278.2hPa | 2.6V | 00:00:00 | 00:00:00 | 00:00:00 | |
| DL1XH1-15 | 2026-09-01 01:25:45 | 51.26846 | 8.66953 | 109° | 117km/h | 9915m | -4.1m/s | -46.5°C | 87.4% | 277.3hPa | 2.6V | 07:44:13 | 03:08:06 | 00:00:00 | |
| HSKMA3-T | 2026-09-01 01:25:45 | 51.26800 | 8.67169 | 107° | 110km/h | 9895m | -3.9m/s | -46.4°C | 85.6% | 278.2hPa | 2.6V | 07:44:28 | 03:08:11 | 00:00:00 | |
| DL1XH-west | 2026-09-01 01:25:43 | 51.26818 | 8.67084 | 109° | 113km/h | 9903m | -3.8m/s | -46.4°C | 86.2% | 277.8hPa | 2.5V | 07:44:28 | 03:08:09 | 00:00:00 | |
| BIOWL1-15 | 2026-09-01 01:25:41 | 51.26836 | 8.66997 | 109° | 115km/h | 9911m | -4m/s | -46.5°C | 86.8% | 277.5hPa | 2.5V | 07:44:28 | 03:08:07 | 00:00:00 | |
| DB0DAN | 2026-09-01 01:25:40 | 51.26846 | 8.66953 | 109° | 111km/h | 9915m | -4.1m/s | -46.6°C | 80.1% | 277.31hPa | 2.6V | 00:00:00 | 00:00:00 | 00:00:00 | |
| HSKMA3-T | 2026-09-01 01:25:35 | 51.26895 | 8.66720 | 108° | 126km/h | 9935m | -4.1m/s | -46.7°C | 86.7% | 276.5hPa | 2.5V | 07:44:28 | 03:08:01 | 00:00:00 | |
| AA1-15 | 2026-09-01 01:25:34 | 51.26905 | 8.66672 | 107° | 128km/h | 9939m | -4m/s | -46.8°C | 86.5% | 276.3hPa | 2.5V | 07:44:28 | 03:08:00 | 00:00:00 | |
| DL1XH-west | 2026-09-01 01:25:33 | 51.26914 | 8.66622 | 106° | 130km/h | 9943m | -4.1m/s | -46.8°C | 86.3% | 276.1hPa | 2.6V | 07:44:28 | 03:07:59 | 00:00:00 | |
| BIOWL1-15 | 2026-09-01 01:25:32 | 51.26955 | 8.66271 | 97° | 117km/h | 9971m | -3.8m/s | -47°C | 86.4% | 275hPa | 2.5V | 07:44:28 | 03:07:52 | 00:00:00 | |
| DL1XH-15 | 2026-09-01 01:25:31 | 51.26943 | 8.66418 | 99° | 128km/h | 9959m | -3.9m/s | -46.9°C | 87.5% | 275.4hPa | 2.5V | 07:44:24 | 03:07:55 | 00:00:00 | |
| HSKMA3-T | 2026-09-01 01:25:25 | 51.26959 | 8.66225 | 97° | 113km/h | 9974m | -3.9m/s | -47.1°C | 86.6% | 274.8hPa | 2.5V | 07:44:28 | 03:07:51 | 00:00:00 | |
| DB0DAN | 2026-09-01 01:25:25 | 51.26959 | 8.66225 | 97° | 108km/h | 9974m | -3.9m/s | -47.1°C | 81.6% | 274.84hPa | 2.5V | 00:00:00 | 00:00:00 | 00:00:00 | |
| DO2JMG | 2026-09-01 01:25:23 | 51.26967 | 8.66138 | 99° | 106km/h | 9982m | -4m/s | -47.1°C | 86.6% | 274.5hPa | 2.5V | 07:45:19 | 03:07:49 | 00:00:00 | |
| DL1XH-west | 2026-09-01 01:25:22 | 51.26971 | 8.66096 | 100° | 106km/h | 9986m | -4.1m/s | -47.2°C | 86.5% | 274.4hPa | 2.6V | 07:45:19 | 03:07:48 | 00:00:00 | |
| DD8BA-10 | 2026-09-01 01:25:22 | 51.26971 | 8.66096 | 101° | 106km/h | 9986m | -4.1m/s | -47.1°C | 88.1% | 274.3hPa | 2.5V | 00:00:00 | 00:00:00 | 00:00:00 | |
| DM0DOS-11 | 2026-09-01 01:25:21 | 51.26995 | 8.65934 | 107° | 104km/h | 10003m | -4m/s | -47.3°C | 85.1% | 273.7hPa | 2.5V | 07:44:35 | 03:07:44 | 00:00:00 | |
| BIOWL1-15 | 2026-09-01 01:25:17 | 51.27023 | 8.65811 | 111° | 111km/h | 10015m | -4m/s | -47.4°C | 84.9% | 273.2hPa | 2.6V | 07:45:19 | 03:07:41 | 00:00:00 | |
| HSKMA3-T | 2026-09-01 01:25:14 | 51.27033 | 8.65768 | 111° | 115km/h | 10018m | -4.1m/s | -47.4°C | 84.7% | 273hPa | 2.6V | 07:45:19 | 03:07:40 | 00:00:00 | |
| DL1XH-west | 2026-09-01 01:25:12 | 51.27054 | 8.65679 | 110° | 122km/h | 10026m | -3.9m/s | -47.5°C | 84.4% | 272.6hPa | 2.5V | 07:45:19 | 03:07:38 | 00:00:00 | |
| DD8BA-10 | 2026-09-01 01:25:12 | 51.27054 | 8.65679 | 111° | 122km/h | 10027m | -3.9m/s | -47.4°C | 83.5% | 272.6hPa | 2.5V | 00:00:00 | 00:00:00 | 00:00:00 | |
| DM0DOS-11 | 2026-09-01 01:25:11 | 51.27092 | 8.65484 | 103° | 128km/h | 10042m | -3.6m/s | -47.6°C | 84.9% | 272.1hPa | 2.5V | 07:44:45 | 03:07:34 | 00:00:00 | |
| DL1XH1-15 | 2026-09-01 01:25:11 | 51.27075 | 8.65584 | 107° | 128km/h | 10034m | -3.8m/s | -47.5°C | 84.1% | 272.4hPa | 2.6V | 07:44:43 | 03:07:36 | 00:00:00 | |
| DB0DAN | 2026-09-01 01:25:10 | 51.27075 | 8.65584 | 108° | 122km/h | 10034m | -3.8m/s | -47.5°C | 76.7% | 272.37hPa | 2.6V | 00:00:00 | 00:00:00 | 00:00:00 | |
| DF8AY | 2026-09-01 01:25:09 | 51.27084 | 8.65534 | 106° | 130km/h | 10038m | -3.7m/s | 0°C | 0% | 272.2hPa | 2.6V | 18:12:15 | 03:07:35 | 00:00:00 | |
| DJ8HS-15 | 2026-09-01 01:25:07 | 51.27099 | 8.65434 | 102° | 113km/h | 10046m | -3.8m/s | -47.6°C | 85.2% | 271.9hPa | 2.5V | 00:00:00 | 03:07:33 | 00:00:00 | |
| DL1XH1-15 | 2026-09-01 01:25:06 | 51.27133 | 8.65118 | 101° | 104km/h | 10072m | -3.8m/s | -47.8°C | 85.7% | 270.9hPa | 2.5V | 07:44:53 | 03:07:26 | 00:00:00 | |
| BIOWL1-15 | 2026-09-01 01:25:04 | 51.27115 | 8.65289 | 99° | 115km/h | 10056m | -3.6m/s | -47.7°C | 84.4% | 271.5hPa | 2.6V | 07:45:19 | 03:07:30 | 00:00:00 | |
| HSKMA3-T | 2026-09-01 01:25:03 | 51.27119 | 8.65245 | 99° | 111km/h | 10060m | -3.8m/s | -47.7°C | 84.5% | 271.3hPa | 2.6V | 07:45:19 | 03:07:29 | 00:00:00 | |
| DL1XH-west | 2026-09-01 01:25:01 | 51.27128 | 8.65159 | 101° | 106km/h | 10068m | -4m/s | -47.8°C | 84.7% | 270.9hPa | 2.5V | 07:45:19 | 03:07:27 | 00:00:00 | |
| DF8AY | 2026-09-01 01:24:59 | 51.27139 | 8.65077 | 104° | 102km/h | 10075m | -3.7m/s | 0°C | 0% | 270.7hPa | 2.5V | 18:12:15 | 03:07:25 | 00:00:00 | |
| HTAHTA | 2026-09-01 01:24:58 | 51.27160 | 8.64960 | 108° | 100km/h | 10087m | -4.2m/s | -47.9°C | 77.2% | 270.2hPa | 2.6V | 00:00:00 | 00:00:00 | 00:00:00 | |
| DB0UT-7 | 2026-09-01 01:24:57 | 51.27152 | 8.64999 | 107° | 113km/h | 10083m | -4.1m/s | -47.8°C | 85.1% | 270.3hPa | 2.6V | 00:00:00 | 00:00:00 | 00:00:00 | |
| GOEST3-10 | 2026-09-01 01:24:56 | 51.27160 | 8.64960 | 109° | 106km/h | 10087m | -4.1m/s | -47.9°C | 84.7% | 270.2hPa | 2.6V | 00:00:00 | 03:07:22 | 00:00:00 | |
| DL1XH1-15 | 2026-09-01 01:24:55 | 51.27219 | 8.64715 | 112° | 117km/h | 10111m | -4m/s | -48.1°C | 84.3% | 269.2hPa | 2.6V | 07:45:03 | 03:07:16 | 00:00:00 | |
| HSKMA3-T | 2026-09-01 01:24:53 | 51.27187 | 8.64841 | 112° | 108km/h | 10099m | -4.1m/s | -48°C | 84.9% | 269.7hPa | 2.5V | 07:45:19 | 03:07:19 | 00:00:00 | |
| DL3AQ-11 | 2026-09-01 01:24:53 | 51.27197 | 8.64800 | 112° | 110km/h | 10103m | -4.1m/s | -48.0°C | 77.1% | 269.5hPa | 2.6V | 00:00:00 | 00:00:00 | 00:00:00 | |
| DD8BA-10 | 2026-09-01 01:24:52 | 51.27197 | 8.64800 | 113° | 122km/h | 10103m | -4.0m/s | -48.0°C | 84.6% | 269.5hPa | 2.6V | 00:00:00 | 00:00:00 | 00:00:00 | |
| DL1XH-15 | 2026-09-01 01:24:51 | 51.27231 | 8.64671 | 112° | 119km/h | 10115m | -4m/s | -48.1°C | 84.2% | 269.1hPa | 2.6V | 07:45:04 | 03:07:15 | 00:00:00 | |
| DL1XH-west | 2026-09-01 01:24:50 | 51.27219 | 8.64715 | 113° | 117km/h | 10111m | -4m/s | -48.1°C | 84.9% | 269.2hPa | 2.6V | 07:45:19 | 03:07:16 | 00:00:00 | |
| DF8AY | 2026-09-01 01:24:48 | 51.27242 | 8.64626 | 111° | 122km/h | 10119m | -3.8m/s | 0°C | 0% | 268.9hPa | 2.5V | 18:12:15 | 03:07:14 | 00:00:00 | |
| SO1NDE-10 | 2026-09-01 01:24:48 | 51.27242 | 8.64626 | 112° | 117km/h | 10119m | -3.8m/s | -48.1°C | 84.3% | 268.8hPa | 2.5V | 00:00:00 | 03:07:14 | 00:00:00 | |
| DJ8HS-15 | 2026-09-01 01:24:47 | 51.27253 | 8.64580 | 111° | 115km/h | 10123m | -3.8m/s | -48.1°C | 84.1% | 268.7hPa | 2.5V | 00:00:00 | 03:07:13 | 00:00:00 | |
| DL4XJ-10 | 2026-09-01 01:24:46 | 51.27264 | 8.64532 | 109° | 113km/h | 10126m | -3.8m/s | -48.2°C | 0% | 0hPa | 2.5V | 00:00:00 | 00:00:00 | 00:00:00 | |
| DL1XH1-15 | 2026-09-01 01:24:45 | 51.27313 | 8.64236 | 100° | 122km/h | 10150m | -3.9m/s | -48.4°C | 84.9% | 267.7hPa | 2.5V | 07:45:13 | 03:07:06 | 00:00:00 | |
| DB0ND-19 | 2026-09-01 01:24:45 | 51.27283 | 8.64434 | 106° | 128km/h | 10134m | -4.0m/s | -48.3°C | 76.8% | 268.3hPa | 2.6V | 00:00:00 | 00:00:00 | 00:00:00 | |
| BIOWL9-15 | 2026-09-01 01:24:44 | 51.27283 | 8.64434 | 106° | 128km/h | 10134m | -4.0m/s | -48.3°C | 76.8% | 268.3hPa | 2.6V | 00:00:00 | 00:00:00 | 00:00:00 | |
| HSKMA3-T | 2026-09-01 01:24:43 | 51.27292 | 8.64384 | 105° | 128km/h | 10138m | -4.1m/s | -48.3°C | 85% | 268.2hPa | 2.6V | 07:45:19 | 03:07:09 | 00:00:00 | |
| BIOWL1-15 | 2026-09-01 01:24:42 | 51.27300 | 8.64334 | 104° | 126km/h | 10142m | -3.8m/s | -48.4°C | 84.9% | 267.9hPa | 2.5V | 07:45:19 | 03:07:08 | 00:00:00 | |
| DL1NUX | 2026-09-01 01:24:42 | 51.27319 | 8.64188 | 100° | 119km/h | 10154m | -4m/s | -48.5°C | 85% | 267.5hPa | 2.5V | 07:45:14 | 03:07:05 | 00:00:00 | |
| DL3AQ-11 | 2026-09-01 01:24:42 | 51.27307 | 8.64285 | 102° | 124km/h | 10146m | -3.8m/s | -48.4°C | 77.0% | 267.8hPa | 2.6V | 00:00:00 | 00:00:00 | 00:00:00 | |
| DM0DOS-11 | 2026-09-01 01:24:41 | 51.27324 | 8.64141 | 99° | 117km/h | 10158m | -4.2m/s | -48.5°C | 85.1% | 267.3hPa | 2.6V | 07:45:15 | 03:07:04 | 00:00:00 | |
| DB0DAN | 2026-09-01 01:24:40 | 51.27313 | 8.64236 | 101° | 117km/h | 10150m | -3.9m/s | -48.4°C | 77.2% | 267.66hPa | 2.5V | 00:00:00 | 00:00:00 | 00:00:00 | |
| DL1XH-west | 2026-09-01 01:24:39 | 51.27319 | 8.64188 | 100° | 119km/h | 10154m | -4m/s | -48.5°C | 85.2% | 267.5hPa | 2.5V | 07:45:19 | 03:07:05 | 00:00:00 | |
| DF8AY | 2026-09-01 01:24:38 | 51.27324 | 8.64141 | 100° | 117km/h | 10158m | -4.2m/s | 0°C | 0% | 267.3hPa | 2.6V | 18:12:15 | 03:07:04 | 00:00:00 | |
| WPPR-10 | 2026-09-01 01:24:35 | 51.27344 | 8.63968 | 102° | 102km/h | 10174m | -4.0m/s | -48.6°C | 77.9% | 266.8hPa | 2.6V | 00:00:00 | 00:00:00 | 00:00:00 | |
| DD1CC3-15 | 2026-09-01 01:24:34 | 51.27344 | 8.63968 | 104° | 104km/h | 10174m | -4.0m/s | -48.6°C | 77.9% | 266.8hPa | 2.6V | 07:45:00 | 00:00:00 | 00:00:00 | |
| DO9LL-15 | 2026-09-01 01:24:33 | 51.27350 | 8.63927 | 105° | 111km/h | 10178m | -4.0m/s | -48.6°C | 85.8% | 266.5hPa | 2.6V | 07:45:00 | 03:06:59 | 00:00:00 | |
| DL1XH1-15 | 2026-09-01 01:24:32 | 51.27374 | 8.63811 | 110° | 102km/h | 10190m | -4m/s | -48.8°C | 85.7% | 266.1hPa | 2.6V | 07:45:23 | 03:06:56 | 00:00:00 | |
| HSKMA3-T | 2026-09-01 01:24:32 | 51.27357 | 8.63888 | 107° | 100km/h | 10182m | -4.1m/s | -48.7°C | 86.2% | 266.4hPa | 2.5V | 07:46:10 | 03:06:58 | 00:00:00 | |
| DD8BA-10 | 2026-09-01 01:24:32 | 51.27357 | 8.63888 | 107° | 113km/h | 10182m | -4.1m/s | -48.7°C | 85.5% | 266.4hPa | 2.5V | 07:45:00 | 00:00:00 | 00:00:00 | |
| DL1XH-15 | 2026-09-01 01:24:31 | 51.27383 | 8.63772 | 111° | 104km/h | 10194m | -4m/s | -48.8°C | 85.8% | 265.9hPa | 2.5V | 07:45:24 | 03:06:55 | 00:00:00 | |
| DM0DOS-11 | 2026-09-01 01:24:31 | 51.27393 | 8.63733 | 112° | 106km/h | 10198m | -4.2m/s | -48.9°C | 86% | 265.7hPa | 2.5V | 07:45:25 | 03:06:54 | 00:00:00 | |
| BIOWL1-15 | 2026-09-01 01:24:31 | 51.27365 | 8.63850 | 109° | 100km/h | 10186m | -4.1m/s | -48.7°C | 86.3% | 266.2hPa | 2.6V | 07:46:10 | 03:06:57 | 00:00:00 | |
| DL1XH-west | 2026-09-01 01:24:29 | 51.27383 | 8.63772 | 112° | 104km/h | 10194m | -4m/s | -48.8°C | 86.4% | 265.9hPa | 2.5V | 07:46:10 | 03:06:55 | 00:00:00 | |
| DF8AY | 2026-09-01 01:24:28 | 51.27393 | 8.63733 | 113° | 106km/h | 10198m | -4.2m/s | 0°C | 0% | 265.8hPa | 2.5V | 18:12:15 | 03:06:54 | 00:00:00 | |
| DO3DL | 2026-09-01 01:24:28 | 51.27393 | 8.63733 | 114° | 106km/h | 10198m | -4.2m/s | -48.9°C | 78.3% | 265.7hPa | 2.5V | 07:46:00 | 00:00:00 | 00:00:00 | |
| DB0UT-7 | 2026-09-01 01:24:27 | 51.27404 | 8.63693 | 114° | 115km/h | 10202m | -4.1m/s | -48.8°C | 86.2% | 265.5hPa | 2.5V | 07:45:00 | 03:06:53 | 00:00:00 | |
| DB0DAN | 2026-09-01 01:24:25 | 51.27427 | 8.63609 | 113° | 113km/h | 10210m | -3.9m/s | -48.9°C | 79.1% | 265.25hPa | 2.6V | 00:00:00 | 00:00:00 | 00:00:00 | |
| DL1XH-15 | 2026-09-01 01:24:24 | 51.27487 | 8.63323 | 102° | 126km/h | 10232m | -3.7m/s | -49.2°C | 87.8% | 264.3hPa | 2.5V | 07:45:34 | 03:06:45 | 00:00:00 | |
| DL8DAS-14 | 2026-09-01 01:24:24 | 51.27450 | 8.63519 | 110° | 124km/h | 10218m | -3.7m/s | -49.0°C | 80.4% | 264.9hPa | 2.5V | 00:00:00 | 00:00:00 | 00:00:00 | |
| DL1XH1-15 | 2026-09-01 01:24:22 | 51.27479 | 8.63372 | 104° | 128km/h | 10229m | -3.7m/s | -49.1°C | 87.8% | 264.5hPa | 2.5V | 07:45:33 | 03:06:46 | 00:00:00 | |
| DM0DOS-11 | 2026-09-01 01:24:21 | 51.27493 | 8.63274 | 101° | 122km/h | 10236m | -3.9m/s | -49.2°C | 87.8% | 264.2hPa | 2.5V | 07:45:35 | 03:06:44 | 00:00:00 | |
| HSKMA3-T | 2026-09-01 01:24:21 | 51.27471 | 8.63422 | 107° | 128km/h | 10225m | -3.6m/s | -49.1°C | 86.9% | 264.6hPa | 2.5V | 07:46:10 | 03:06:47 | 00:00:00 | |
| DL1XH-west | 2026-09-01 01:24:19 | 51.27487 | 8.63323 | 103° | 126km/h | 10232m | -3.7m/s | -49.2°C | 86.8% | 264.3hPa | 2.5V | 07:46:10 | 03:06:45 | 00:00:00 | |
| AA1-15 | 2026-09-01 01:24:17 | 51.27499 | 8.63226 | 101° | 119km/h | 10240m | -3.9m/s | -49.2°C | 86.7% | 264hPa | 2.6V | 07:46:10 | 03:06:43 | 00:00:00 | |
| NBG1-10 | 2026-09-01 01:24:16 | 51.27505 | 8.63179 | 100° | 111km/h | 10244m | -3.8m/s | -49.2°C | 86.7% | 263.9hPa | 2.6V | 00:00:00 | 03:06:42 | 00:00:00 | |
| DB0NH | 2026-09-01 01:24:15 | 51.27510 | 8.63134 | 100° | 111km/h | 10248m | -3.7m/s | -49.3°C | 86.4% | 263.7hPa | 2.6V | 00:00:00 | 03:06:41 | 00:00:00 | |
| DO3DL | 2026-09-01 01:24:14 | 51.27510 | 8.63134 | 101° | 111km/h | 10248m | -3.8m/s | -49.3°C | 78.5% | 263.8hPa | 2.6V | 07:46:00 | 00:00:00 | 00:00:00 | |
| BIOWL9-15 | 2026-09-01 01:24:13 | 51.27519 | 8.63048 | 100° | 104km/h | 10256m | -3.9m/s | -49.4°C | 77.4% | 263.4hPa | 2.6V | 00:00:00 | 00:00:00 | 00:00:00 | |
| DL1XH1-15 | 2026-09-01 01:24:12 | 51.27536 | 8.62928 | 105° | 99km/h | 10267m | -4m/s | -49.5°C | 84.2% | 262.9hPa | 2.6V | 07:45:43 | 03:06:36 | 00:00:00 | |
| DL4BBY-15 | 2026-09-01 01:24:12 | 51.27524 | 8.63007 | 102° | 110km/h | 10260m | -3.7m/s | -49.4°C | 0% | 0hPa | 2.6V | 00:00:00 | 00:00:00 | 00:00:00 | |
| DL1XH-15 | 2026-09-01 01:24:11 | 51.27543 | 8.62889 | 107° | 99km/h | 10271m | -3.9m/s | -49.5°C | 83.8% | 262.8hPa | 2.6V | 07:45:44 | 03:06:35 | 00:00:00 | |
| DM0DOS-11 | 2026-09-01 01:24:11 | 51.27551 | 8.62851 | 109° | 100km/h | 10275m | -3.9m/s | -49.5°C | 83.9% | 262.7hPa | 2.5V | 07:45:45 | 03:06:34 | 00:00:00 | |
| BIOWL1-15 | 2026-09-01 01:24:10 | 51.27551 | 8.62851 | 109° | 100km/h | 10275m | -3.9m/s | -49.5°C | 85% | 262.7hPa | 2.5V | 07:46:10 | 03:06:34 | 00:00:00 | |
| DB0DAN | 2026-09-01 01:24:10 | 51.27536 | 8.62928 | 105° | 95km/h | 10267m | -4m/s | -49.5°C | 76.4% | 262.96hPa | 2.6V | 00:00:00 | 00:00:00 | 00:00:00 | |
| HSKMA3-T | 2026-09-01 01:24:10 | 51.27536 | 8.62928 | 105° | 99km/h | 10267m | -4m/s | -49.5°C | 85.3% | 263hPa | 2.6V | 07:46:10 | 03:06:36 | 00:00:00 | |
| DL1XH-west | 2026-09-01 01:24:09 | 51.27543 | 8.62889 | 107° | 99km/h | 10271m | -3.9m/s | -49.5°C | 85.1% | 262.8hPa | 2.6V | 07:46:10 | 03:06:35 | 00:00:00 | |
| AA1-15 | 2026-09-01 01:24:06 | 51.27570 | 8.62775 | 112° | 104km/h | 10283m | -3.9m/s | -49.6°C | 85% | 262.4hPa | 2.5V | 07:46:10 | 03:06:32 | 00:00:00 | |
| DL1CLM-18 | 2026-09-01 01:24:04 | 51.27590 | 8.62695 | 114° | 111km/h | 10291m | -3.9m/s | -49.7°C | 76.5% | 262.0hPa | 2.6V | 00:00:00 | 00:00:00 | 00:00:00 | |
| DL1XH1-15 | 2026-09-01 01:24:03 | 51.27636 | 8.62519 | 110° | 122km/h | 10306m | -3.8m/s | -49.8°C | 84.5% | 261.4hPa | 2.6V | 07:45:53 | 03:06:26 | 00:00:00 | |
| DO9LL-15 | 2026-09-01 01:24:03 | 51.27602 | 8.62653 | 114° | 119km/h | 10295m | -3.8m/s | -49.7°C | 84.5% | 261.8hPa | 2.5V | 00:00:00 | 03:06:29 | 00:00:00 | |
| DO3DL | 2026-09-01 01:24:02 | 51.27613 | 8.62610 | 113° | 117km/h | 10299m | -3.9m/s | -49.8°C | 76.6% | 261.7hPa | 2.5V | 07:46:00 | 00:00:00 | 00:00:00 | |
| DM0DOS-11 | 2026-09-01 01:24:01 | 51.27656 | 8.62425 | 107° | 124km/h | 10314m | -3.8m/s | -49.9°C | 85% | 261.1hPa | 2.5V | 07:45:55 | 03:06:24 | 00:00:00 | |
| HSKMA3-T | 2026-09-01 01:24:00 | 51.27636 | 8.62519 | 110° | 122km/h | 10306m | -3.8m/s | -49.8°C | 84.9% | 261.4hPa | 2.6V | 07:46:10 | 03:06:26 | 00:00:00 | |
| BIOWL1-15 | 2026-09-01 01:23:58 | 51.27656 | 8.62425 | 108° | 124km/h | 10314m | -3.8m/s | -49.9°C | 84.8% | 261.1hPa | 2.5V | 07:46:10 | 03:06:24 | 00:00:00 | |
| DO2JMG | 2026-09-01 01:23:56 | 51.27674 | 8.62329 | 105° | 124km/h | 10321m | -3.8m/s | -50°C | 84.6% | 260.9hPa | 2.5V | 07:46:10 | 03:06:22 | 00:00:00 | |
| HTAHTA | 2026-09-01 01:23:56 | 51.27682 | 8.62280 | 104° | 122km/h | 10325m | -3.6m/s | -50.0°C | 77.3% | 260.6hPa | 2.5V | 00:00:00 | 00:00:00 | 00:00:00 | |
| SONDE2-11 | 2026-09-01 01:23:54 | 51.27689 | 8.62233 | 102° | 119km/h | 10329m | -3.5m/s | -50.1°C | 77.6% | 260.6hPa | 2.5V | 00:00:00 | 00:00:00 | 00:00:00 | |
| DL8DAS-14 | 2026-09-01 01:23:53 | 51.27701 | 8.62140 | 101° | 113km/h | 10336m | -3.5m/s | -50.1°C | 77.4% | 260.3hPa | 2.5V | 00:00:00 | 00:00:00 | 00:00:00 | |
| DL1XH1-15 | 2026-09-01 01:23:52 | 51.27711 | 8.62051 | 100° | 110km/h | 10343m | -3.7m/s | -50.2°C | 84.8% | 260hPa | 2.5V | 07:46:03 | 03:06:16 | 00:00:00 | |
| DL4XJ-10 | 2026-09-01 01:23:52 | 51.27701 | 8.62140 | 102° | 106km/h | 10336m | -3.4m/s | -50.1°C | 0% | 0hPa | 2.5V | 00:00:00 | 00:00:00 | 00:00:00 | |
| DL1XH-15 | 2026-09-01 01:23:51 | 51.27716 | 8.62008 | 100° | 108km/h | 10346m | -3.7m/s | -50.2°C | 84% | 259.8hPa | 2.5V | 07:46:04 | 03:06:15 | 00:00:00 | |
| HSKMA3-T | 2026-09-01 01:23:49 | 51.27716 | 8.62008 | 100° | 108km/h | 10346m | -3.7m/s | -50.2°C | 83.2% | 259.8hPa | 2.5V | 07:46:10 | 03:06:15 | 00:00:00 | |
| DL1XH-west | 2026-09-01 01:23:48 | 51.27721 | 8.61966 | 100° | 106km/h | 10350m | -3.8m/s | -50.2°C | 82.8% | 259.7hPa | 2.6V | 07:46:10 | 03:06:14 | 00:00:00 | |
| DF8AY | 2026-09-01 01:23:47 | 51.27726 | 8.61924 | 101° | 102km/h | 10354m | -3.8m/s | 0°C | 0% | 259.6hPa | 2.6V | 18:12:15 | 03:06:13 | 00:00:00 | |
| DO2JMG | 2026-09-01 01:23:45 | 51.27736 | 8.61844 | 102° | 100km/h | 10362m | -4m/s | -50.3°C | 82.1% | 259.2hPa | 2.5V | 07:46:10 | 03:06:11 | 00:00:00 | |
| AA1-15 | 2026-09-01 01:23:43 | 51.27748 | 8.61767 | 106° | 97km/h | 10370m | -3.9m/s | -50.4°C | 81.6% | 258.9hPa | 2.5V | 07:46:10 | 03:06:09 | 00:00:00 | |
| NBG1-10 | 2026-09-01 01:23:43 | 51.27747 | 8.61767 | 106° | 106km/h | 10370m | -3.9m/s | -50.3°C | 81.8% | 258.9hPa | 2.5V | 00:00:00 | 03:06:09 | 00:00:00 | |
| DL4BBY-15 | 2026-09-01 01:23:42 | 51.27755 | 8.61730 | 108° | 108km/h | 10374m | -3.7m/s | -50.4°C | 0% | 0hPa | 2.6V | 00:00:00 | 00:00:00 | 00:00:00 | |
| DL1XH-15 | 2026-09-01 01:23:41 | 51.27781 | 8.61618 | 112° | 102km/h | 10385m | -4.1m/s | -50.5°C | 81.9% | 258.3hPa | 2.6V | 07:46:14 | 03:06:05 | 00:00:00 | |
| DM0DOS-11 | 2026-09-01 01:23:41 | 51.27791 | 8.61580 | 113° | 104km/h | 10388m | -3.9m/s | -50.5°C | 81.7% | 258.1hPa | 2.6V | 07:46:15 | 03:06:04 | 00:00:00 | |
| HSKMA3-T | 2026-09-01 01:23:38 | 51.27791 | 8.61580 | 114° | 104km/h | 10388m | -3.9m/s | -50.6°C | 80.8% | 258.1hPa | 2.6V | 07:47:01 | 03:06:04 | 00:00:00 | |
| DL1XH-west | 2026-09-01 01:23:37 | 51.27802 | 8.61541 | 114° | 108km/h | 10392m | -3.7m/s | -50.6°C | 80.4% | 258.1hPa | 2.5V | 07:47:01 | 03:06:03 | 00:00:00 | |
| DF8AY | 2026-09-01 01:23:36 | 51.27813 | 8.61500 | 114° | 111km/h | 10396m | -3.7m/s | 0°C | 0% | 257.8hPa | 2.5V | 18:12:15 | 03:06:02 | 00:00:00 | |
| DO2JMG | 2026-09-01 01:23:35 | 51.27825 | 8.61459 | 114° | 115km/h | 10400m | -3.7m/s | -50.6°C | 79.8% | 257.7hPa | 2.5V | 07:47:52 | 03:06:01 | 00:00:00 | |
| AA1-15 | 2026-09-01 01:23:32 | 51.27858 | 8.61325 | 109° | 122km/h | 10411m | -3.7m/s | -50.7°C | 78.7% | 257.3hPa | 2.6V | 07:47:01 | 03:05:58 | 00:00:00 | |
| DL4XJ-10 | 2026-09-01 01:23:32 | 51.27858 | 8.61325 | 110° | 110km/h | 10412m | -3.6m/s | -50.7°C | 0% | 0hPa | 2.5V | 00:00:00 | 00:00:00 | 00:00:00 | |
| DL1XH-15 | 2026-09-01 01:23:31 | 51.27884 | 8.61183 | 104° | 122km/h | 10423m | -4m/s | -50.8°C | 77.8% | 256.8hPa | 2.5V | 07:46:24 | 03:05:55 | 00:00:00 | |
| DM0DOS-11 | 2026-09-01 01:23:31 | 51.27892 | 8.61135 | 102° | 120km/h | 10427m | -3.8m/s | -50.8°C | 77.3% | 256.7hPa | 2.5V | 07:46:25 | 03:05:54 | 00:00:00 | |
| DL1XH-west | 2026-09-01 01:23:27 | 51.27898 | 8.61088 | 102° | 119km/h | 10431m | -4.1m/s | -50.8°C | 77.2% | 256.6hPa | 2.6V | 07:47:01 | 03:05:53 | 00:00:00 | |
| DF8AY | 2026-09-01 01:23:25 | 51.27909 | 8.60996 | 100° | 113km/h | 10438m | -4m/s | 0°C | 0% | 0hPa | 2.6V | 18:12:15 | 03:05:51 | 00:00:00 | |
| DB0DAN | 2026-09-01 01:23:25 | 51.27909 | 8.60996 | 100° | 108km/h | 10438m | -4m/s | -50.9°C | 68.5% | 256.21hPa | 2.6V | 00:00:00 | 00:00:00 | 00:00:00 | |
| BIOWL1-15 | 2026-09-01 01:23:24 | 51.27913 | 8.60951 | 99° | 111km/h | 10442m | -4.1m/s | -50.9°C | 76.7% | 256.1hPa | 2.5V | 07:47:01 | 03:05:50 | 00:00:00 | |
| SONDE2-11 | 2026-09-01 01:23:23 | 51.27918 | 8.60908 | 98° | 108km/h | 10447m | -4.1m/s | -50.9°C | 67.9% | 255.9hPa | 2.5V | 00:00:00 | 00:00:00 | 00:00:00 | |
| DL1XH1-15 | 2026-09-01 01:23:22 | 51.27930 | 8.60785 | 100° | 99km/h | 10459m | -4.1m/s | -51°C | 74.9% | 255.4hPa | 2.5V | 07:46:33 | 03:05:46 | 00:00:00 | |
| DL3AQ-11 | 2026-09-01 01:23:22 | 51.27926 | 8.60824 | 99° | 100km/h | 10455m | -4.0m/s | -51.0°C | 67.4% | 255.5hPa | 2.6V | 00:00:00 | 00:00:00 | 00:00:00 | |
| DM0DOS-11 | 2026-09-01 01:23:21 | 51.27941 | 8.60709 | 105° | 95km/h | 10467m | -3.8m/s | -51.1°C | 74.9% | 255.1hPa | 2.6V | 07:46:35 | 03:05:44 | 00:00:00 | |
| AA1-15 | 2026-09-01 01:23:20 | 51.27931 | 8.60785 | 101° | 99km/h | 10459m | -4.1m/s | -51°C | 75.9% | 255.4hPa | 2.5V | 07:47:01 | 03:05:46 | 00:00:00 | |
| DL1XH-west | 2026-09-01 01:23:17 | 51.27948 | 8.60672 | 108° | 95km/h | 10470m | -3.8m/s | -51.2°C | 75.4% | 254.9hPa | 2.6V | 07:47:01 | 03:05:43 | 00:00:00 | |
| BIOWL1-15 | 2026-09-01 01:23:14 | 51.27975 | 8.60560 | 113° | 104km/h | 10482m | -3.8m/s | -51.3°C | 75% | 254.5hPa | 2.5V | 07:47:01 | 03:05:40 | 00:00:00 | |
| DL1LOL-11 | 2026-09-01 01:23:14 | 51.27975 | 8.60560 | 114° | 104km/h | 10482m | -3.8m/s | -51.3°C | 67.1% | 254.5hPa | 2.6V | 00:00:00 | 00:00:00 | 00:00:00 | |
| DL4BBY-15 | 2026-09-01 01:23:12 | 51.27996 | 8.60480 | 113° | 108km/h | 10490m | -3.7m/s | -51.3°C | 0% | 0hPa | 2.6V | 00:00:00 | 00:00:00 | 00:00:00 | |
| DL1XH1-15 | 2026-09-01 01:23:11 | 51.28018 | 8.60393 | 111° | 119km/h | 10497m | -4.1m/s | -51.4°C | 74.2% | 253.9hPa | 2.6V | 07:46:43 | 03:05:36 | 00:00:00 | |
| DM0DOS-11 | 2026-09-01 01:23:11 | 51.28038 | 8.60303 | 108° | 120km/h | 10505m | -3.9m/s | -51.4°C | 73.4% | 253.6hPa | 2.5V | 07:46:45 | 03:05:34 | 00:00:00 | |
| AA1-15 | 2026-09-01 01:23:09 | 51.28028 | 8.60348 | 110° | 120km/h | 10501m | -4.1m/s | -51.4°C | 74.5% | 253.7hPa | 2.6V | 07:47:01 | 03:05:35 | 00:00:00 | |
| DL1XH-west | 2026-09-01 01:23:07 | 51.28048 | 8.60256 | 107° | 122km/h | 10510m | -4.2m/s | -51.5°C | 74.2% | 253.4hPa | 2.5V | 07:47:01 | 03:05:33 | 00:00:00 | |
| DJ8HS-15 | 2026-09-01 01:23:07 | 51.28048 | 8.60256 | 108° | 106km/h | 10510m | -4.1m/s | -51.4°C | 73.4% | 253.4hPa | 2.5V | 00:00:00 | 03:05:33 | 00:00:00 | |
| GOEST3-10 | 2026-09-01 01:23:06 | 51.28057 | 8.60209 | 106° | 119km/h | 10513m | -4.0m/s | -51.5°C | 73.8% | 253.2hPa | 2.6V | 00:00:00 | 03:05:32 | 00:00:00 | |
| EDDB2-11 | 2026-09-01 01:23:05 | 51.28088 | 8.59978 | 99° | 110km/h | 10533m | -3.7m/s | -51.7°C | 66.0% | 252.5hPa | 2.6V | 00:00:00 | 00:00:00 | 00:00:00 | |
| DL1XH-15 | 2026-09-01 01:23:03 | 51.28096 | 8.59891 | 98° | 106km/h | 10540m | -4m/s | -51.7°C | 73.5% | 252.3hPa | 2.6V | 07:46:54 | 03:05:25 | 00:00:00 | |
| DO2JMG | 2026-09-01 01:23:03 | 51.28078 | 8.60068 | 101° | 117km/h | 10525m | -3.8m/s | -51.6°C | 74% | 252.8hPa | 2.6V | 07:47:52 | 03:05:29 | 00:00:00 | |
| DM0DOS-11 | 2026-09-01 01:23:01 | 51.28101 | 8.59850 | 99° | 104km/h | 10544m | -3.7m/s | -51.7°C | 73.4% | 252.1hPa | 2.6V | 07:46:55 | 03:05:24 | 00:00:00 | |
| DL1XH1-15 | 2026-09-01 01:23:01 | 51.28092 | 8.59934 | 99° | 108km/h | 10536m | -3.9m/s | -51.7°C | 73.7% | 252.3hPa | 2.5V | 07:46:53 | 03:05:26 | 00:00:00 | |
| AA1-15 | 2026-09-01 01:22:59 | 51.28096 | 8.59891 | 99° | 106km/h | 10540m | -4m/s | -51.7°C | 73.8% | 252.3hPa | 2.6V | 07:47:01 | 03:05:25 | 00:00:00 | |
| DL1XH-west | 2026-09-01 01:22:57 | 51.28105 | 8.59809 | 100° | 100km/h | 10548m | -3.8m/s | -51.8°C | 73.8% | 251.9hPa | 2.5V | 07:47:01 | 03:05:23 | 00:00:00 | |
| DF8AY | 2026-09-01 01:22:53 | 51.28125 | 8.59655 | 104° | 95km/h | 10563m | -3.8m/s | 0°C | 0% | 0hPa | 2.6V | 18:12:15 | 03:05:19 | 00:00:00 | |
| DL3OBA | 2026-09-01 01:22:53 | 51.28125 | 8.59655 | 105° | 95km/h | 10563m | -3.8m/s | -51.9°C | 65.1% | 251.4hPa | 2.5V | 07:47:00 | 00:00:00 | 00:00:00 | |
| DL1XH-15 | 2026-09-01 01:22:52 | 51.28152 | 8.59509 | 109° | 97km/h | 10579m | -4.2m/s | -52°C | 72.9% | 250.7hPa | 2.5V | 07:47:04 | 03:05:15 | 00:00:00 | |
| DL4XJ-10 | 2026-09-01 01:22:52 | 51.28131 | 8.59618 | 106° | 110km/h | 10567m | -3.8m/s | -51.9°C | 0% | 0hPa | 2.5V | 00:00:00 | 00:00:00 | 00:00:00 | |
| DL1XH1-15 | 2026-09-01 01:22:51 | 51.28145 | 8.59545 | 108° | 95km/h | 10575m | -4.2m/s | -52°C | 72.8% | 250.8hPa | 2.5V | 07:47:03 | 03:05:16 | 00:00:00 | |
| DM0DOS-11 | 2026-09-01 01:22:51 | 51.28161 | 8.59472 | 110° | 99km/h | 10583m | -4m/s | -52°C | 73.2% | 250.6hPa | 2.6V | 07:47:05 | 03:05:14 | 00:00:00 | |
| DO2JMG | 2026-09-01 01:22:50 | 51.28145 | 8.59545 | 108° | 95km/h | 10575m | -4.2m/s | -52°C | 73.4% | 250.8hPa | 2.5V | 07:47:52 | 03:05:16 | 00:00:00 | |
| AA1-15 | 2026-09-01 01:22:49 | 51.28153 | 8.59509 | 110° | 97km/h | 10579m | -4.2m/s | -52°C | 73.4% | 250.7hPa | 2.5V | 07:47:52 | 03:05:15 | 00:00:00 | |
| HSKMA3-T | 2026-09-01 01:22:46 | 51.28180 | 8.59395 | 112° | 106km/h | 10591m | -3.9m/s | -52.1°C | 73.9% | 250.2hPa | 2.5V | 07:47:52 | 03:05:12 | 00:00:00 | |
| DD1CC8 | 2026-09-01 01:22:45 | 51.28191 | 8.59355 | 111° | 110km/h | 10595m | -4.0m/s | -52.2°C | 67.1% | 250.1hPa | 2.5V | 00:00:00 | 00:00:00 | 00:00:00 | |
| DO1YAY-16 | 2026-09-01 01:22:44 | 51.28201 | 8.59313 | 111° | 113km/h | 10599m | -3.8m/s | -52.2°C | 67.4% | 250.0hPa | 2.5V | 00:00:00 | 00:00:00 | 00:00:00 | |
| DL1XH-15 | 2026-09-01 01:22:42 | 51.28245 | 8.59084 | 102° | 120km/h | 10617m | -3.8m/s | -52.4°C | 75.7% | 249.2hPa | 2.5V | 07:47:14 | 03:05:05 | 00:00:00 | |
| DL3AQ-11 | 2026-09-01 01:22:42 | 51.28229 | 8.59178 | 106° | 119km/h | 10609m | -3.8m/s | -52.3°C | 68.0% | 249.5hPa | 2.5V | 00:00:00 | 00:00:00 | 00:00:00 | |
| DM0DOS-11 | 2026-09-01 01:22:41 | 51.28251 | 8.59037 | 101° | 120km/h | 10621m | -3.9m/s | -52.4°C | 75.5% | 249.1hPa | 2.5V | 07:47:15 | 03:05:04 | 00:00:00 | |
| BIOWL1-15 | 2026-09-01 01:22:41 | 51.28229 | 8.59178 | 106° | 120km/h | 10610m | -3.8m/s | -52.3°C | 74.9% | 249.5hPa | 2.5V | 07:47:52 | 03:05:07 | 00:00:00 | |
| DB0DAN | 2026-09-01 01:22:40 | 51.28237 | 8.59132 | 105° | 115km/h | 10613m | -3.9m/s | -52.3°C | 67.9% | 249.36hPa | 2.5V | 00:00:00 | 00:00:00 | 00:00:00 | |
| DF8AY | 2026-09-01 01:22:40 | 51.28237 | 8.59132 | 105° | 120km/h | 10613m | -3.9m/s | 0°C | 0% | 0hPa | 2.5V | 18:12:15 | 03:05:06 | 00:00:00 | |
| DO2JMG | 2026-09-01 01:22:39 | 51.28245 | 8.59084 | 103° | 120km/h | 10617m | -3.8m/s | -52.4°C | 74.9% | 249.2hPa | 2.5V | 07:47:52 | 03:05:05 | 00:00:00 | |
| AA1-15 | 2026-09-01 01:22:38 | 51.28251 | 8.59037 | 102° | 120km/h | 10621m | -3.9m/s | -52.4°C | 74.9% | 249.1hPa | 2.5V | 07:47:52 | 03:05:04 | 00:00:00 | |
| DL1XH-west | 2026-09-01 01:22:36 | 51.28263 | 8.58942 | 100° | 119km/h | 10629m | -4.1m/s | -52.4°C | 74.5% | 248.8hPa | 2.6V | 07:47:52 | 03:05:02 | 00:00:00 | |
| HSKMA3-T | 2026-09-01 01:22:35 | 51.28268 | 8.58895 | 100° | 119km/h | 10633m | -4.1m/s | -52.5°C | 74.3% | 248.6hPa | 2.5V | 07:47:52 | 03:05:01 | 00:00:00 | |
| DO3DL | 2026-09-01 01:22:34 | 51.28273 | 8.58847 | 100° | 119km/h | 10637m | -4.1m/s | -52.5°C | 65.8% | 248.5hPa | 2.5V | 07:47:00 | 00:00:00 | 00:00:00 | |
| DL1XH-15 | 2026-09-01 01:22:32 | 51.28291 | 8.58622 | 96° | 106km/h | 10656m | -3.9m/s | -52.6°C | 72.6% | 247.7hPa | 2.5V | 07:47:24 | 03:04:55 | 00:00:00 | |
| DM0DOS-11 | 2026-09-01 01:22:31 | 51.28294 | 8.58581 | 96° | 102km/h | 10660m | -4m/s | -52.6°C | 72.3% | 247.6hPa | 2.5V | 07:47:25 | 03:04:54 | 00:00:00 | |
| BIOWL1-15 | 2026-09-01 01:22:31 | 51.28285 | 8.58709 | 97° | 111km/h | 10648m | -3.9m/s | -52.6°C | 73.3% | 248hPa | 2.6V | 07:47:52 | 03:04:57 | 00:00:00 | |
| DO2JMG | 2026-09-01 01:22:28 | 51.28295 | 8.58581 | 97° | 102km/h | 10660m | -4m/s | -52.6°C | 72.4% | 247.6hPa | 2.5V | 07:47:52 | 03:04:54 | 00:00:00 | |
| AA1-15 | 2026-09-01 01:22:27 | 51.28298 | 8.58540 | 97° | 100km/h | 10664m | -4.1m/s | -52.7°C | 72.2% | 247.4hPa | 2.6V | 07:47:52 | 03:04:53 | 00:00:00 | |
| DL1XH-west | 2026-09-01 01:22:26 | 51.28301 | 8.58501 | 98° | 97km/h | 10668m | -4m/s | -52.7°C | 71.9% | 247.2hPa | 2.6V | 07:47:52 | 03:04:52 | 00:00:00 | |
| HSKMA3-T | 2026-09-01 01:22:24 | 51.28309 | 8.58425 | 102° | 93km/h | 10676m | -4m/s | -52.7°C | 71.2% | 247hPa | 2.5V | 07:47:52 | 03:04:50 | 00:00:00 | |
| BIOWL1-15 | 2026-09-01 01:22:24 | 51.28334 | 8.58279 | 109° | 99km/h | 10692m | -3.9m/s | -52.8°C | 70.5% | 246.3hPa | 2.6V | 07:47:52 | 03:04:46 | 00:00:00 | |
| HTAHTA | 2026-09-01 01:22:23 | 51.28334 | 8.58279 | 108° | 97km/h | 10692m | -3.9m/s | -52.8°C | 62.7% | 246.3hPa | 2.5V | 00:00:00 | 00:00:00 | 00:00:00 | |
| DM0DOS-11 | 2026-09-01 01:22:21 | 51.28352 | 8.58202 | 110° | 104km/h | 10699m | -3.9m/s | -52.9°C | 71.1% | 246hPa | 2.5V | 07:47:35 | 03:04:44 | 00:00:00 | |
| DO2JMG | 2026-09-01 01:22:18 | 51.28352 | 8.58202 | 111° | 104km/h | 10699m | -3.9m/s | -52.9°C | 70.5% | 246hPa | 2.5V | 07:47:52 | 03:04:44 | 00:00:00 | |
| AA1-15 | 2026-09-01 01:22:16 | 51.28371 | 8.58120 | 110° | 113km/h | 10707m | -3.9m/s | -52.9°C | 70.4% | 245.7hPa | 2.5V | 07:47:52 | 03:04:42 | 00:00:00 | |
| DL1XH-west | 2026-09-01 01:22:15 | 51.28381 | 8.58077 | 109° | 117km/h | 10711m | -3.9m/s | -52.9°C | 70.3% | 245.6hPa | 2.6V | 07:47:52 | 03:04:41 | 00:00:00 | |
| HSKMA3-T | 2026-09-01 01:22:14 | 51.28390 | 8.58032 | 107° | 119km/h | 10715m | -3.9m/s | -53°C | 70.3% | 245.5hPa | 2.6V | 07:47:52 | 03:04:40 | 00:00:00 | |
| DO1YAY-16 | 2026-09-01 01:22:13 | 51.28399 | 8.57985 | 105° | 120km/h | 10718m | -3.9m/s | -53.0°C | 62.2% | 245.3hPa | 2.5V | 00:00:00 | 00:00:00 | 00:00:00 | |
| DL3OBA | 2026-09-01 01:22:12 | 51.28406 | 8.57938 | 105° | 122km/h | 10722m | -4.1m/s | -53.0°C | 62.3% | 245.1hPa | 2.5V | 07:47:00 | 00:00:00 | 00:00:00 | |
| DM0DOS-11 | 2026-09-01 01:22:11 | 51.28429 | 8.57749 | 97° | 115km/h | 10737m | -4m/s | -53.2°C | 70.1% | 244.5hPa | 2.5V | 07:47:45 | 03:04:34 | 00:00:00 | |
| DB0DAN | 2026-09-01 01:22:10 | 51.28420 | 8.57843 | 100° | 115km/h | 10730m | -3.9m/s | -53.1°C | 62.2% | 244.8hPa | 2.5V | 00:00:00 | 00:00:00 | 00:00:00 | |
| BIOWL1-15 | 2026-09-01 01:22:09 | 51.28425 | 8.57795 | 99° | 119km/h | 10733m | -3.9m/s | -53.1°C | 70.4% | 244.7hPa | 2.5V | 07:47:52 | 03:04:35 | 00:00:00 | |
| AA1-15 | 2026-09-01 01:22:06 | 51.28435 | 8.57659 | 96° | 106km/h | 10745m | -3.8m/s | -53.3°C | 70.4% | 244.2hPa | 2.6V | 07:47:52 | 03:04:32 | 00:00:00 | |
| DL1XH-west | 2026-09-01 01:22:04 | 51.28441 | 8.57577 | 97° | 99km/h | 10752m | -3.8m/s | -53.3°C | 70.4% | 244hPa | 2.5V | 07:47:52 | 03:04:30 | 00:00:00 | |
| HSKMA3-T | 2026-09-01 01:22:03 | 51.28444 | 8.57538 | 99° | 97km/h | 10755m | -4.2m/s | -53.4°C | 70.5% | 243.8hPa | 2.5V | 07:47:52 | 03:04:29 | 00:00:00 | |
| DL1XH1-15 | 2026-09-01 01:22:01 | 51.28458 | 8.57425 | 103° | 93km/h | 10766m | -3.9m/s | -53.5°C | 70.3% | 243.4hPa | 2.5V | 07:47:53 | 03:04:26 | 00:00:00 | |
| DO2JMG | 2026-09-01 01:22:00 | 51.28458 | 8.57425 | 103° | 95km/h | 10766m | -3.9m/s | -53.5°C | 70.5% | 243.4hPa | 2.5V | 07:48:43 | 03:04:26 | 00:00:00 | |
| AA1-15 | 2026-09-01 01:21:56 | 51.28494 | 8.57237 | 109° | 100km/h | 10784m | -4.5m/s | -53.7°C | 70.6% | 242.7hPa | 2.5V | 07:48:43 | 03:04:21 | 00:00:00 | |
| DL1XH-west | 2026-09-01 01:21:54 | 51.28502 | 8.57198 | 109° | 102km/h | 10788m | -4.4m/s | -53.7°C | 70.7% | 242.5hPa | 2.5V | 07:48:43 | 03:04:20 | 00:00:00 | |
| DJ2DS-15 | 2026-09-01 01:21:53 | 51.28511 | 8.57159 | 109° | 104km/h | 10792m | -4.5m/s | -53.7°C | 62.5% | 242.3hPa | 2.6V | 00:00:00 | 00:00:00 | 00:00:00 | |
| HSKMA3-T | 2026-09-01 01:21:53 | 51.28511 | 8.57159 | 110° | 106km/h | 10792m | -4.5m/s | -53.7°C | 70.7% | 242.3hPa | 2.5V | 07:48:43 | 03:04:19 | 00:00:00 | |
| DL1ZP-14 | 2026-09-01 01:21:52 | 51.28529 | 8.57077 | 108° | 108km/h | 10800m | -4.1m/s | -53.8°C | 62.5% | 242.0hPa | 2.6V | 00:00:00 | 00:00:00 | 00:00:00 | |
| DL1XH1-15 | 2026-09-01 01:21:51 | 51.28538 | 8.57036 | 109° | 110km/h | 10804m | -4.3m/s | -53.8°C | 70.3% | 241.9hPa | 2.6V | 07:48:03 | 03:04:16 | 00:00:00 | |
| DO2JMG | 2026-09-01 01:21:49 | 51.28547 | 8.56993 | 108° | 111km/h | 10808m | -4.3m/s | -53.9°C | 70.8% | 241.7hPa | 2.6V | 07:48:43 | 03:04:15 | 00:00:00 | |
| AA1-15 | 2026-09-01 01:21:45 | 51.28581 | 8.56814 | 106° | 115km/h | 10823m | -4.6m/s | -54°C | 70.5% | 241.2hPa | 2.5V | 07:48:43 | 03:04:11 | 00:00:00 | |
| DL1XH-west | 2026-09-01 01:21:44 | 51.28597 | 8.56722 | 104° | 119km/h | 10832m | -4.6m/s | -54.1°C | 70.3% | 240.9hPa | 2.6V | 07:48:43 | 03:04:09 | 00:00:00 | |
| HSKMA3-T | 2026-09-01 01:21:42 | 51.28605 | 8.56674 | 104° | 122km/h | 10836m | -4.9m/s | -54.1°C | 70.3% | 240.7hPa | 2.6V | 07:48:43 | 03:04:08 | 00:00:00 | |
| DL4BBY-15 | 2026-09-01 01:21:42 | 51.28605 | 8.56674 | 105° | 111km/h | 10836m | -4.8m/s | -54.1°C | 0% | 0hPa | 2.5V | 00:00:00 | 00:00:00 | 00:00:00 | |
| DJ2DS-15 | 2026-09-01 01:21:41 | 51.28612 | 8.56627 | 103° | 106km/h | 10841m | -4.5m/s | -54.1°C | 69.5% | 240.5hPa | 2.5V | 00:00:00 | 03:04:07 | 00:00:00 | |
| DL1XH-15 | 2026-09-01 01:21:40 | 51.28624 | 8.56531 | 99° | 120km/h | 10849m | -4.1m/s | -54.2°C | 69.8% | 240.2hPa | 2.5V | 07:48:14 | 03:04:05 | 00:00:00 | |
| DO2JMG | 2026-09-01 01:21:39 | 51.28624 | 8.56531 | 99° | 122km/h | 10849m | -4.1m/s | -54.2°C | 70% | 240.2hPa | 2.5V | 07:48:43 | 03:04:05 | 00:00:00 | |
| BIOWL1-15 | 2026-09-01 01:21:37 | 51.28633 | 8.56437 | 97° | 113km/h | 10857m | -4m/s | -54.3°C | 70% | 239.9hPa | 2.5V | 07:48:43 | 03:04:03 | 00:00:00 | |
| AA1-15 | 2026-09-01 01:21:35 | 51.28639 | 8.56348 | 95° | 108km/h | 10864m | -3.8m/s | -54.4°C | 70% | 239.7hPa | 2.6V | 07:48:43 | 03:04:01 | 00:00:00 | |
| DL1XH-west | 2026-09-01 01:21:33 | 51.28644 | 8.56265 | 97° | 102km/h | 10872m | -4m/s | -54.4°C | 70.1% | 239.4hPa | 2.6V | 07:48:43 | 03:03:59 | 00:00:00 | |
| HSKMA3-T | 2026-09-01 01:21:32 | 51.28647 | 8.56225 | 98° | 99km/h | 10876m | -4.1m/s | -54.5°C | 70% | 239.3hPa | 2.5V | 07:48:43 | 03:03:58 | 00:00:00 | |
| DL1XH1-15 | 2026-09-01 01:21:31 | 51.28656 | 8.56150 | 102° | 93km/h | 10883m | -4.2m/s | -54.5°C | 70.5% | 238.9hPa | 2.5V | 07:48:23 | 03:03:56 | 00:00:00 | |
| DO2JMG | 2026-09-01 01:21:28 | 51.28668 | 8.56076 | 105° | 95km/h | 10891m | -4.3m/s | -54.6°C | 69.6% | 238.7hPa | 2.6V | 07:48:43 | 03:03:54 | 00:00:00 | |
| BIOWL1-15 | 2026-09-01 01:21:27 | 51.28675 | 8.56039 | 108° | 99km/h | 10895m | -4.7m/s | -54.6°C | 69.4% | 238.5hPa | 2.6V | 07:48:43 | 03:03:53 | 00:00:00 | |
| AA1-15 | 2026-09-01 01:21:24 | 51.28701 | 8.55923 | 110° | 104km/h | 10908m | -4.5m/s | -54.7°C | 69% | 238.1hPa | 2.5V | 07:48:43 | 03:03:50 | 00:00:00 | |
| DL1XH-west | 2026-09-01 01:21:22 | 51.28721 | 8.55840 | 110° | 115km/h | 10916m | -4.8m/s | -54.8°C | 68.5% | 237.7hPa | 2.6V | 07:48:43 | 03:03:48 | 00:00:00 | |
| HSKMA3-T | 2026-09-01 01:21:21 | 51.28730 | 8.55796 | 109° | 119km/h | 10921m | -4.9m/s | -54.8°C | 68.2% | 237.6hPa | 2.5V | 07:48:43 | 03:03:47 | 00:00:00 | |
| DL1XH1-15 | 2026-09-01 01:21:21 | 51.28740 | 8.55750 | 108° | 120km/h | 10926m | -5.2m/s | -54.9°C | 67.4% | 237.4hPa | 2.5V | 07:48:33 | 03:03:46 | 00:00:00 | |
| BIOWL1-15 | 2026-09-01 01:21:18 | 51.28772 | 8.55558 | 101° | 124km/h | 10943m | -4.2m/s | -55°C | 67.4% | 236.8hPa | 2.6V | 07:48:43 | 03:03:42 | 00:00:00 | |
| DF8AY | 2026-09-01 01:21:13 | 51.28786 | 8.55417 | 97° | 111km/h | 10955m | -3.7m/s | 0°C | 0% | 0hPa | 2.5V | 18:12:15 | 03:03:39 | 00:00:00 | |
| DO2JMG | 2026-09-01 01:21:12 | 51.28790 | 8.55373 | 97° | 108km/h | 10959m | -4m/s | -55.1°C | 67.1% | 236.2hPa | 2.6V | 07:48:43 | 03:03:38 | 00:00:00 | |
| DL1XH-west | 2026-09-01 01:21:11 | 51.28793 | 8.55331 | 97° | 106km/h | 10963m | -4.1m/s | -55.1°C | 67% | 236.1hPa | 2.6V | 07:48:43 | 03:03:37 | 00:00:00 | |
| DL1XH-15 | 2026-09-01 01:21:11 | 51.28800 | 8.55249 | 98° | 100km/h | 10971m | -4.1m/s | -55.2°C | 67.4% | 235.8hPa | 2.5V | 07:48:44 | 03:03:35 | 00:00:00 | |
| DL1XH1-15 | 2026-09-01 01:21:11 | 51.28796 | 8.55289 | 97° | 102km/h | 10967m | -4.2m/s | -55.1°C | 67.4% | 235.9hPa | 2.5V | 07:48:43 | 03:03:36 | 00:00:00 | |
| HSKMA3-T | 2026-09-01 01:21:10 | 51.28796 | 8.55289 | 98° | 102km/h | 10967m | -4.2m/s | -55.1°C | 67% | 235.9hPa | 2.5V | 07:48:43 | 03:03:36 | 00:00:00 | |
| DM0DOS-11 | 2026-09-01 01:21:09 | 51.28804 | 8.55209 | 99° | 97km/h | 10975m | -4.1m/s | -55.2°C | 67.2% | 235.6hPa | 2.5V | 07:48:45 | 03:03:34 | 00:00:00 | |
| BIOWL1-15 | 2026-09-01 01:21:07 | 51.28819 | 8.55095 | 104° | 95km/h | 10987m | -4m/s | -55.2°C | 66.8% | 235.2hPa | 2.5V | 07:49:34 | 03:03:31 | 00:00:00 | |
| DJ8HS-15 | 2026-09-01 01:21:07 | 51.28808 | 8.55171 | 102° | 111km/h | 10979m | -4.7m/s | -55.1°C | 66.8% | 235.5hPa | 2.6V | 07:48:00 | 03:03:33 | 00:00:00 | |
| DL3AQ-11 | 2026-09-01 01:21:06 | 51.28819 | 8.55095 | 103° | 95km/h | 10987m | -4.0m/s | -55.2°C | 58.6% | 235.2hPa | 2.5V | 00:00:00 | 00:00:00 | 00:00:00 | |
| DL4XJ-10 | 2026-09-01 01:21:05 | 51.28819 | 8.55095 | 104° | 111km/h | 10987m | -4.0m/s | -55.3°C | 0% | 0hPa | 2.5V | 00:00:00 | 00:00:00 | 00:00:00 | |
| DL1NUX | 2026-09-01 01:21:04 | 51.28868 | 8.54861 | 110° | 110km/h | 11010m | -4.4m/s | -55.4°C | 66.5% | 234.3hPa | 2.5V | 07:48:54 | 03:03:25 | 00:00:00 | |
| DF8AY | 2026-09-01 01:21:03 | 51.28833 | 8.55019 | 107° | 100km/h | 10995m | -4.5m/s | 0°C | 0% | 0hPa | 2.5V | 18:12:15 | 03:03:29 | 00:00:00 | |
| AA1-15 | 2026-09-01 01:21:02 | 51.28841 | 8.54981 | 109° | 100km/h | 10999m | -4.1m/s | -55.3°C | 66.5% | 234.7hPa | 2.5V | 07:49:34 | 03:03:28 | 00:00:00 | |
| DL1XH1-15 | 2026-09-01 01:21:01 | 51.28859 | 8.54902 | 110° | 108km/h | 11007m | -3.6m/s | -55.4°C | 66.5% | 234.4hPa | 2.6V | 07:48:53 | 03:03:26 | 00:00:00 | |
| DL1XH-west | 2026-09-01 01:21:00 | 51.28859 | 8.54902 | 110° | 108km/h | 11007m | -3.6m/s | -55.4°C | 66.4% | 234.4hPa | 2.6V | 07:49:34 | 03:03:26 | 00:00:00 | |
| HSKMA3-T | 2026-09-01 01:20:59 | 51.28869 | 8.54861 | 110° | 110km/h | 11010m | -4.4m/s | -55.4°C | 66.3% | 234.3hPa | 2.5V | 07:49:34 | 03:03:25 | 00:00:00 | |
| DM0DOS-11 | 2026-09-01 01:20:59 | 51.28878 | 8.54819 | 109° | 111km/h | 11014m | -4.2m/s | -55.5°C | 66.5% | 234.2hPa | 2.5V | 07:48:55 | 03:03:24 | 00:00:00 | |
| BIOWL1-15 | 2026-09-01 01:20:57 | 51.28906 | 8.54686 | 108° | 120km/h | 11026m | -4.6m/s | -55.6°C | 66.1% | 233.7hPa | 2.6V | 07:49:34 | 03:03:21 | 00:00:00 | |
| SONCRA | 2026-09-01 01:20:56 | 51.28897 | 8.54732 | 108° | 117km/h | 11022m | -4.5m/s | -55.5°C | 58.0% | 233.9hPa | 2.5V | 00:00:00 | 00:00:00 | 00:00:00 | |
| GOEST3-10 | 2026-09-01 01:20:54 | 51.28915 | 8.54639 | 106° | 120km/h | 11030m | -4.2m/s | -55.5°C | 66.2% | 233.5hPa | 2.5V | 00:00:00 | 00:00:00 | 00:00:00 | |
| DL1XH-15 | 2026-09-01 01:20:53 | 51.28949 | 8.54400 | 100° | 120km/h | 11050m | -4.8m/s | -55.7°C | 65.3% | 232.8hPa | 2.5V | 07:49:04 | 03:03:15 | 00:00:00 | |
| AA1-15 | 2026-09-01 01:20:51 | 51.28938 | 8.54497 | 102° | 120km/h | 11042m | -3.8m/s | -55.7°C | 65.7% | 233.2hPa | 2.6V | 07:49:34 | 03:03:17 | 00:00:00 | |
| DL1XH-west | 2026-09-01 01:20:50 | 51.28944 | 8.54449 | 101° | 122km/h | 11046m | -4.2m/s | -55.7°C | 65.7% | 233hPa | 2.6V | 07:49:34 | 03:03:16 | 00:00:00 | |
| DL1ZP-14 | 2026-09-01 01:20:50 | 51.28949 | 8.54400 | 100° | 120km/h | 11050m | -4.8m/s | -55.7°C | 57.0% | 232.8hPa | 2.5V | 00:00:00 | 00:00:00 | 00:00:00 | |
| DM0DOS-11 | 2026-09-01 01:20:49 | 51.28955 | 8.54352 | 99° | 119km/h | 11055m | -4.7m/s | -55.8°C | 65.3% | 232.8hPa | 2.5V | 07:49:05 | 03:03:14 | 00:00:00 | |
| HSKMA3-T | 2026-09-01 01:20:48 | 51.28955 | 8.54352 | 100° | 119km/h | 11055m | -4.7m/s | -55.8°C | 65.6% | 232.8hPa | 2.5V | 07:49:34 | 03:03:14 | 00:00:00 | |
| BIOWL1-15 | 2026-09-01 01:20:45 | 51.28967 | 8.54215 | 96° | 110km/h | 11069m | -3.9m/s | -55.9°C | 65.6% | 232.3hPa | 2.6V | 07:49:34 | 03:03:11 | 00:00:00 | |
| DB0NH | 2026-09-01 01:20:45 | 51.28967 | 8.54215 | 97° | 110km/h | 11069m | -3.8m/s | -55.8°C | 65.3% | 232.2hPa | 2.5V | 00:00:00 | 03:03:11 | 00:00:00 | |
| DL8OAI-8 | 2026-09-01 01:20:44 | 51.28967 | 8.54215 | 97° | 110km/h | 11069m | -3.9m/s | -55.9°C | 57.0% | 232.3hPa | 2.5V | 07:49:00 | 00:00:00 | 00:00:00 | |
| DK9SH | 2026-09-01 01:20:43 | 51.28969 | 8.54172 | 97° | 106km/h | 11073m | -4.4m/s | -55.9°C | 56.9% | 232.1hPa | 2.5V | 07:49:00 | 00:00:00 | 00:00:00 | |
| DL4BBY-15 | 2026-09-01 01:20:42 | 51.28975 | 8.54088 | 98° | 108km/h | 11081m | -3.9m/s | -56.0°C | 0% | 0hPa | 2.5V | 00:00:00 | 00:00:00 | 00:00:00 | |
| DL1XH1-15 | 2026-09-01 01:20:41 | 51.28984 | 8.54011 | 102° | 95km/h | 11089m | -4.1m/s | -56°C | 65.1% | 231.5hPa | 2.5V | 07:49:13 | 03:03:06 | 00:00:00 | |
| AA1-15 | 2026-09-01 01:20:40 | 51.28984 | 8.54011 | 102° | 95km/h | 11089m | -4.1m/s | -56.1°C | 65.3% | 231.5hPa | 2.5V | 07:49:34 | 03:03:06 | 00:00:00 | |
| DM0DOS-11 | 2026-09-01 01:20:39 | 51.28995 | 8.53937 | 106° | 95km/h | 11097m | -3.8m/s | -56.1°C | 65.2% | 231.2hPa | 2.6V | 07:49:15 | 03:03:04 | 00:00:00 | |
| HSKMA3-T | 2026-09-01 01:20:38 | 51.28995 | 8.53937 | 107° | 95km/h | 11097m | -3.8m/s | -56.1°C | 65.2% | 231.2hPa | 2.6V | 07:49:34 | 03:03:04 | 00:00:00 | |
| DF8AY | 2026-09-01 01:20:37 | 51.29003 | 8.53899 | 109° | 100km/h | 11101m | -4.4m/s | 0°C | 0% | 0hPa | 2.6V | 18:12:15 | 03:03:03 | 00:00:00 | |
| DO2JMG | 2026-09-01 01:20:35 | 51.29020 | 8.53822 | 111° | 106km/h | 11108m | -4.4m/s | -56.2°C | 65.1% | 230.7hPa | 2.5V | 07:50:25 | 03:03:01 | 00:00:00 | |
| BIOWL1-15 | 2026-09-01 01:20:34 | 51.29030 | 8.53781 | 110° | 111km/h | 11113m | -4.2m/s | -56.3°C | 65% | 230.7hPa | 2.5V | 07:49:34 | 03:03:00 | 00:00:00 | |
| DL1XH1-15 | 2026-09-01 01:20:31 | 51.29068 | 8.53605 | 106° | 120km/h | 11129m | -4.3m/s | -56.4°C | 64% | 230hPa | 2.6V | 07:49:23 | 03:02:56 | 00:00:00 | |
| DL1LOL-11 | 2026-09-01 01:20:30 | 51.29059 | 8.53650 | 110° | 119km/h | 11125m | -4.7m/s | -56.4°C | 55.6% | 230.2hPa | 2.5V | 00:00:00 | 00:00:00 | 00:00:00 | |
| DM0DOS-11 | 2026-09-01 01:20:29 | 51.29085 | 8.53510 | 105° | 122km/h | 11138m | -4.4m/s | -56.5°C | 64% | 229.7hPa | 2.5V | 07:49:25 | 03:02:54 | 00:00:00 | |
| DL1XH-west | 2026-09-01 01:20:29 | 51.29077 | 8.53558 | 106° | 124km/h | 11133m | -4.8m/s | -56.5°C | 64.5% | 229.9hPa | 2.6V | 07:49:34 | 03:02:55 | 00:00:00 | |
| AA1-15 | 2026-09-01 01:20:27 | 51.29093 | 8.53462 | 103° | 124km/h | 11142m | -3.8m/s | -56.5°C | 64.4% | 229.5hPa | 2.5V | 07:49:34 | 03:02:53 | 00:00:00 | |
| DJ8HS-15 | 2026-09-01 01:20:27 | 51.29093 | 8.53462 | 104° | 108km/h | 11142m | -3.7m/s | -56.5°C | 64.0% | 229.5hPa | 2.5V | 00:00:00 | 03:02:53 | 00:00:00 | |
| WPPR-10 | 2026-09-01 01:20:26 | 51.29100 | 8.53413 | 101° | 120km/h | 11146m | -4.6m/s | -56.6°C | 55.5% | 229.4hPa | 2.5V | 00:00:00 | 00:00:00 | 00:00:00 | |
| SONCRA | 2026-09-01 01:20:25 | 51.29106 | 8.53365 | 100° | 120km/h | 11150m | -4.8m/s | -56.6°C | 55.6% | 229.3hPa | 2.5V | 00:00:00 | 00:00:00 | 00:00:00 | |
| DL1XH-15 | 2026-09-01 01:20:23 | 51.29130 | 8.53091 | 97° | 104km/h | 11175m | -4.2m/s | -56.8°C | 64.6% | 228.4hPa | 2.5V | 07:49:34 | 03:02:45 | 00:00:00 | |
| BIOWL1-15 | 2026-09-01 01:20:23 | 51.29116 | 8.53269 | 98° | 119km/h | 11158m | -4.1m/s | -56.7°C | 64.2% | 228.9hPa | 2.6V | 07:49:34 | 03:02:49 | 00:00:00 | |
| DO2JMG | 2026-09-01 01:20:21 | 51.29123 | 8.53177 | 97° | 111km/h | 11167m | -4.3m/s | -56.7°C | 64.1% | 228.6hPa | 2.6V | 07:50:25 | 03:02:47 | 00:00:00 | |
| DL1XH-west | 2026-09-01 01:20:19 | 51.29130 | 8.53091 | 97° | 104km/h | 11175m | -4.2m/s | -56.8°C | 64.1% | 228.4hPa | 2.5V | 07:49:34 | 03:02:45 | 00:00:00 | |
| HSKMA3-T | 2026-09-01 01:20:17 | 51.29137 | 8.53010 | 99° | 100km/h | 11183m | -3.9m/s | -56.9°C | 64.2% | 228.2hPa | 2.5V | 07:50:25 | 03:02:43 | 00:00:00 | |
| AA1-15 | 2026-09-01 01:20:13 | 51.29158 | 8.52854 | 105° | 100km/h | 11198m | -4m/s | -57°C | 64.5% | 227.6hPa | 2.5V | 07:51:16 | 03:02:39 | 00:00:00 | |
| BIOWL1-15 | 2026-09-01 01:20:12 | 51.29224 | 8.52535 | 110° | 108km/h | 11229m | -4.4m/s | -57.3°C | 64.4% | 226.4hPa | 2.5V | 07:50:25 | 03:02:31 | 00:00:00 | |
| DL4BBY-15 | 2026-09-01 01:20:12 | 51.29165 | 8.52815 | 106° | 115km/h | 11202m | -3.8m/s | -57.1°C | 0% | 0hPa | 2.6V | 00:00:00 | 00:00:00 | 00:00:00 | |
| DL1XH-15 | 2026-09-01 01:20:11 | 51.29188 | 8.52697 | 108° | 106km/h | 11212m | -4m/s | -57.1°C | 65.9% | 226.9hPa | 2.6V | 07:49:44 | 03:02:35 | 00:00:00 | |
| DL1XH-west | 2026-09-01 01:20:08 | 51.29197 | 8.52656 | 109° | 104km/h | 11216m | -4.3m/s | -57.2°C | 64.6% | 226.8hPa | 2.6V | 07:50:25 | 03:02:34 | 00:00:00 | |
| HSKMA3-T | 2026-09-01 01:20:06 | 51.29215 | 8.52577 | 110° | 110km/h | 11225m | -4.6m/s | -57.2°C | 64.5% | 226.5hPa | 2.5V | 07:50:25 | 03:02:32 | 00:00:00 | |
| BIOWL9-15 | 2026-09-01 01:20:05 | 51.29234 | 8.52494 | 110° | 111km/h | 11233m | -4.8m/s | -57.3°C | 55.9% | 226.2hPa | 2.5V | 00:00:00 | 00:00:00 | 00:00:00 | |
| DL1NUX | 2026-09-01 01:20:04 | 51.29285 | 8.52274 | 108° | 120km/h | 11254m | -4.4m/s | -57.4°C | 65.5% | 225.5hPa | 2.5V | 07:49:54 | 03:02:25 | 00:00:00 | |
| DO2JMG | 2026-09-01 01:20:04 | 51.29234 | 8.52494 | 111° | 113km/h | 11233m | -4.8m/s | -57.3°C | 64.3% | 226.2hPa | 2.5V | 07:50:25 | 03:02:30 | 00:00:00 | |
| BIOWL1-15 | 2026-09-01 01:20:02 | 51.29254 | 8.52409 | 112° | 115km/h | 11242m | -4.3m/s | -57.4°C | 64.3% | 226hPa | 2.6V | 07:50:25 | 03:02:28 | 00:00:00 | |
| DL3AQ-11 | 2026-09-01 01:20:02 | 51.29265 | 8.52365 | 111° | 117km/h | 11246m | -4.6m/s | -57.4°C | 56.1% | 225.8hPa | 2.6V | 00:00:00 | 00:00:00 | 00:00:00 | |
| DJ2DS-15 | 2026-09-01 01:20:01 | 51.29265 | 8.52365 | 112° | 120km/h | 11246m | -4.5m/s | -57.3°C | 64.8% | 225.7hPa | 2.6V | 00:00:00 | 03:02:27 | 00:00:00 | |
| DL8DAS-15 | 2026-09-01 01:20:00 | 51.29275 | 8.52320 | 111° | 119km/h | 11250m | -4.5m/s | -57.4°C | 56.4% | 225.7hPa | 2.5V | 00:00:00 | 00:00:00 | 00:00:00 | |
| DM0DOS-11 | 2026-09-01 01:19:59 | 51.29295 | 8.52227 | 108° | 124km/h | 11258m | -4.4m/s | -57.4°C | 65.8% | 225.3hPa | 2.5V | 07:49:55 | 03:02:24 | 00:00:00 | |
| DL1XH-west | 2026-09-01 01:19:58 | 51.29295 | 8.52227 | 108° | 124km/h | 11258m | -4.4m/s | -57.4°C | 64.4% | 225.4hPa | 2.5V | 07:50:25 | 03:02:24 | 00:00:00 | |
| HSKMA3-T | 2026-09-01 01:19:56 | 51.29320 | 8.52083 | 104° | 124km/h | 11270m | -4.1m/s | -57.5°C | 64.8% | 225hPa | 2.6V | 07:50:25 | 03:02:21 | 00:00:00 | |
| DB0DAN | 2026-09-01 01:19:55 | 51.29320 | 8.52083 | 104° | 119km/h | 11270m | -4.1m/s | -57.5°C | 58.4% | 224.98hPa | 2.6V | 00:00:00 | 00:00:00 | 00:00:00 | |
| DO2JMG | 2026-09-01 01:19:54 | 51.29327 | 8.52035 | 103° | 120km/h | 11273m | -3.6m/s | -57.5°C | 65% | 224.8hPa | 2.6V | 07:50:25 | 03:02:20 | 00:00:00 | |
| BIOWL1-15 | 2026-09-01 01:19:52 | 51.29340 | 8.51938 | 102° | 120km/h | 11281m | -4m/s | -57.5°C | 64.9% | 224.5hPa | 2.5V | 07:50:25 | 03:02:18 | 00:00:00 | |
| DL1XH-15 | 2026-09-01 01:19:50 | 51.29357 | 8.51795 | 99° | 122km/h | 11292m | -4.5m/s | -57.6°C | 67% | 224.1hPa | 2.6V | 07:50:04 | 03:02:15 | 00:00:00 | |
| DM0DOS-11 | 2026-09-01 01:19:49 | 51.29362 | 8.51747 | 98° | 119km/h | 11296m | -4.3m/s | -57.6°C | 66.7% | 223.9hPa | 2.6V | 07:50:05 | 03:02:14 | 00:00:00 | |
| DL1XH-west | 2026-09-01 01:19:47 | 51.29366 | 8.51699 | 99° | 120km/h | 11300m | -4.5m/s | -57.6°C | 63.9% | 223.9hPa | 2.6V | 07:50:25 | 03:02:13 | 00:00:00 | |
| HSKMA3-T | 2026-09-01 01:19:45 | 51.29375 | 8.51605 | 98° | 117km/h | 11309m | -4.2m/s | -57.7°C | 63.4% | 223.5hPa | 2.5V | 07:50:25 | 03:02:11 | 00:00:00 | |
| DO2JMG | 2026-09-01 01:19:44 | 51.29379 | 8.51558 | 98° | 117km/h | 11313m | -4.3m/s | -57.7°C | 63.3% | 223.4hPa | 2.5V | 07:50:25 | 03:02:10 | 00:00:00 | |
| BIOWL1-15 | 2026-09-01 01:19:41 | 51.29395 | 8.51375 | 97° | 113km/h | 11328m | -5m/s | -57.7°C | 62.6% | 222.8hPa | 2.5V | 07:50:25 | 03:02:06 | 00:00:00 | |
| DL1XH1-15 | 2026-09-01 01:19:41 | 51.29395 | 8.51375 | 97° | 113km/h | 11328m | -5m/s | -57.7°C | 64% | 222.8hPa | 2.5V | 07:50:13 | 03:02:06 | 00:00:00 | |
| DB0DAN | 2026-09-01 01:19:40 | 51.29395 | 8.51375 | 97° | 108km/h | 11328m | -5m/s | -57.7°C | 55.2% | 222.8hPa | 2.5V | 00:00:00 | 00:00:00 | 00:00:00 | |
| DM0DOS-11 | 2026-09-01 01:19:39 | 51.29401 | 8.51285 | 96° | 111km/h | 11338m | -4m/s | -57.6°C | 63.6% | 222.5hPa | 2.5V | 07:50:15 | 03:02:04 | 00:00:00 | |
| DL1XH-west | 2026-09-01 01:19:37 | 51.29404 | 8.51241 | 96° | 110km/h | 11342m | -4.3m/s | -57.6°C | 62.1% | 222.4hPa | 2.5V | 07:50:25 | 03:02:03 | 00:00:00 | |
| HSKMA3-T | 2026-09-01 01:19:35 | 51.29410 | 8.51154 | 96° | 108km/h | 11350m | -4.3m/s | -57.6°C | 62% | 222.2hPa | 2.6V | 07:50:25 | 03:02:01 | 00:00:00 | |
| DL1NUX | 2026-09-01 01:19:34 | 51.29433 | 8.50912 | 102° | 97km/h | 11374m | -4.2m/s | -57.6°C | 61.7% | 221.3hPa | 2.5V | 07:50:24 | 03:01:55 | 00:00:00 | |
| DO2JMG | 2026-09-01 01:19:34 | 51.29413 | 8.51112 | 97° | 106km/h | 11355m | -4.3m/s | -57.6°C | 61.8% | 222hPa | 2.6V | 07:50:25 | 03:02:00 | 00:00:00 | |
| BIOWL9-15 | 2026-09-01 01:19:34 | 51.29416 | 8.51070 | 98° | 100km/h | 11359m | -4.0m/s | -57.6°C | 53.8% | 221.9hPa | 2.6V | 00:00:00 | 00:00:00 | 00:00:00 | |
| DL3AQ-11 | 2026-09-01 01:19:33 | 51.29420 | 8.51030 | 98° | 97km/h | 11363m | -3.8m/s | -57.7°C | 53.9% | 221.7hPa | 2.6V | 00:00:00 | 00:00:00 | 00:00:00 | |
| DM0DOS-11 | 2026-09-01 01:19:29 | 51.29439 | 8.50874 | 103° | 95km/h | 11378m | -3.9m/s | -57.7°C | 61.8% | 221.1hPa | 2.6V | 07:50:25 | 03:01:54 | 00:00:00 | |
| BIOWL1-15 | 2026-09-01 01:19:29 | 51.29433 | 8.50912 | 103° | 97km/h | 11374m | -4.2m/s | -57.7°C | 61.3% | 221.3hPa | 2.5V | 07:50:25 | 03:01:55 | 00:00:00 | |
| DL1XH-west | 2026-09-01 01:19:26 | 51.29450 | 8.50800 | 104° | 97km/h | 11385m | -4.7m/s | -57.7°C | 61% | 220.9hPa | 2.6V | 07:51:16 | 03:01:52 | 00:00:00 | |
| HSKMA3-T | 2026-09-01 01:19:25 | 51.29457 | 8.50762 | 105° | 100km/h | 11390m | -4.4m/s | -57.7°C | 60.9% | 220.7hPa | 2.5V | 07:51:16 | 03:01:51 | 00:00:00 | |
| DO2JMG | 2026-09-01 01:19:23 | 51.29472 | 8.50683 | 110° | 100km/h | 11398m | -4.4m/s | -57.7°C | 60.6% | 220.4hPa | 2.5V | 07:51:16 | 03:01:49 | 00:00:00 | |
| SONCRA | 2026-09-01 01:19:23 | 51.29472 | 8.50683 | 109° | 100km/h | 11398m | -4.4m/s | -57.7°C | 52.7% | 220.4hPa | 2.5V | 00:00:00 | 00:00:00 | 00:00:00 | |
| DL3AQ-11 | 2026-09-01 01:19:22 | 51.29490 | 8.50603 | 110° | 108km/h | 11406m | -4.5m/s | -57.8°C | 52.4% | 220.1hPa | 2.5V | 00:00:00 | 00:00:00 | 00:00:00 | |
| DL1XH-15 | 2026-09-01 01:19:21 | 51.29508 | 8.50518 | 108° | 111km/h | 11414m | -4.7m/s | -57.8°C | 61.1% | 219.8hPa | 2.5V | 07:50:34 | 03:01:45 | 00:00:00 | |
| DJ2DS-15 | 2026-09-01 01:19:21 | 51.29490 | 8.50603 | 111° | 113km/h | 11407m | -4.5m/s | -57.7°C | 61.0% | 220.0hPa | 2.5V | 00:00:00 | 03:01:47 | 00:00:00 | |
| DO2KSM | 2026-09-01 01:19:20 | 51.29490 | 8.50603 | 111° | 110km/h | 11407m | -4.5m/s | -57.8°C | 52.4% | 220.1hPa | 2.5V | 07:51:00 | 00:00:00 | 00:00:00 | |
| DM0DOS-11 | 2026-09-01 01:19:19 | 51.29517 | 8.50474 | 108° | 115km/h | 11418m | -4.7m/s | -57.9°C | 61.2% | 219.7hPa | 2.5V | 07:50:35 | 03:01:44 | 00:00:00 | |
| BIOWL1-15 | 2026-09-01 01:19:19 | 51.29508 | 8.50518 | 108° | 111km/h | 11414m | -4.7m/s | -57.8°C | 60% | 219.8hPa | 2.5V | 07:51:16 | 03:01:45 | 00:00:00 | |
| DL1XH-west | 2026-09-01 01:19:15 | 51.29543 | 8.50337 | 104° | 119km/h | 11431m | -4.5m/s | -58°C | 59.6% | 219.2hPa | 2.6V | 07:51:16 | 03:01:41 | 00:00:00 | |
| HSKMA3-T | 2026-09-01 01:19:14 | 51.29551 | 8.50290 | 103° | 119km/h | 11435m | -4m/s | -58°C | 59.5% | 219.1hPa | 2.6V | 07:51:16 | 03:01:40 | 00:00:00 | |
| DM0DOS-11 | 2026-09-01 01:19:13 | 51.29577 | 8.50010 | 94° | 113km/h | 11460m | -4.4m/s | -58°C | 60.2% | 218.3hPa | 2.6V | 07:50:45 | 03:01:34 | 00:00:00 | |
| DL4BBY-15 | 2026-09-01 01:19:12 | 51.29562 | 8.50195 | 100° | 111km/h | 11443m | -4.2m/s | -58.1°C | 0% | 0hPa | 2.5V | 00:00:00 | 00:00:00 | 00:00:00 | |
| DB0DAN | 2026-09-01 01:19:10 | 51.29571 | 8.50102 | 98° | 113km/h | 11451m | -4.6m/s | -58°C | 52.4% | 218.54hPa | 2.5V | 00:00:00 | 00:00:00 | 00:00:00 | |
| BIOWL1-15 | 2026-09-01 01:19:08 | 51.29580 | 8.49965 | 95° | 111km/h | 11464m | -4.8m/s | -58.1°C | 58.7% | 218.1hPa | 2.6V | 07:51:16 | 03:01:33 | 00:00:00 | |
| DD1CC8 | 2026-09-01 01:19:08 | 51.29577 | 8.50010 | 94° | 111km/h | 11460m | -4.4m/s | -58.0°C | 51.6% | 218.3hPa | 2.6V | 00:00:00 | 00:00:00 | 00:00:00 | |
| DJ8HS-15 | 2026-09-01 01:19:07 | 51.29580 | 8.49965 | 96° | 108km/h | 11464m | -4.7m/s | -58.0°C | 60.1% | 218.1hPa | 2.6V | 00:00:00 | 03:01:33 | 00:00:00 | |
| DL3AQ-11 | 2026-09-01 01:19:06 | 51.29585 | 8.49879 | 94° | 104km/h | 11473m | -5.0m/s | -58.1°C | 51.0% | 217.8hPa | 2.6V | 00:00:00 | 00:00:00 | 00:00:00 | |
| DL1XH1-15 | 2026-09-01 01:19:05 | 51.29603 | 8.49686 | 103° | 95km/h | 11495m | -4.3m/s | -58.3°C | 59.9% | 217hPa | 2.6V | 07:50:53 | 03:01:26 | 00:00:00 | |
| DL1XH-west | 2026-09-01 01:19:04 | 51.29587 | 8.49838 | 96° | 100km/h | 11478m | -4.6m/s | -58.1°C | 58.2% | 217.7hPa | 2.5V | 07:51:16 | 03:01:30 | 00:00:00 | |
| BIOWL1-15 | 2026-09-01 01:18:59 | 51.29624 | 8.49574 | 109° | 100km/h | 11507m | -4.2m/s | -58.4°C | 57.4% | 216.6hPa | 2.5V | 07:51:16 | 03:01:23 | 00:00:00 | |
| DB0UT-7 | 2026-09-01 01:18:57 | 51.29624 | 8.49574 | 109° | 110km/h | 11507m | -4.2m/s | -58.3°C | 59.8% | 216.6hPa | 2.5V | 00:00:00 | 00:00:00 | 00:00:00 | |
| DD8BA-10 | 2026-09-01 01:18:56 | 51.29632 | 8.49534 | 110° | 117km/h | 11510m | -4.0m/s | -58.4°C | 59.7% | 216.5hPa | 2.5V | 00:00:00 | 00:00:00 | 00:00:00 | |
| DL1XH1-15 | 2026-09-01 01:18:55 | 51.29684 | 8.49269 | 102° | 120km/h | 11535m | -4.4m/s | -58.5°C | 57.4% | 215.6hPa | 2.5V | 07:51:03 | 03:01:16 | 00:00:00 | |
| DB0DAN | 2026-09-01 01:18:55 | 51.29641 | 8.49493 | 109° | 104km/h | 11514m | -4.2m/s | -58.4°C | 50.8% | 216.37hPa | 2.6V | 00:00:00 | 00:00:00 | 00:00:00 | |
| DL1XH-west | 2026-09-01 01:18:54 | 51.29651 | 8.49451 | 109° | 113km/h | 11518m | -4.7m/s | -58.4°C | 56.9% | 216.1hPa | 2.6V | 07:51:16 | 03:01:20 | 00:00:00 | |
| AA1-15 | 2026-09-01 01:18:53 | 51.29660 | 8.49407 | 108° | 119km/h | 11522m | -4.7m/s | -58.4°C | 56.7% | 216.1hPa | 2.5V | 07:51:16 | 03:01:19 | 00:00:00 | |
| DJ2DS-15 | 2026-09-01 01:18:53 | 51.29660 | 8.49407 | 107° | 117km/h | 11522m | -4.7m/s | -58.4°C | 50.2% | 216.1hPa | 2.6V | 00:00:00 | 00:00:00 | 00:00:00 | |
| SONCRA | 2026-09-01 01:18:52 | 51.29668 | 8.49362 | 105° | 117km/h | 11526m | -4.6m/s | -58.4°C | 49.8% | 215.9hPa | 2.6V | 00:00:00 | 00:00:00 | 00:00:00 | |
| DL1NUX | 2026-09-01 01:18:51 | 51.29691 | 8.49221 | 102° | 122km/h | 11539m | -5m/s | -58.5°C | 56.8% | 215.5hPa | 2.6V | 07:51:04 | 03:01:15 | 00:00:00 | |
| DF8AY | 2026-09-01 01:18:50 | 51.29684 | 8.49269 | 103° | 120km/h | 11535m | -4.4m/s | -58.5°C | 55.1% | 215.6hPa | 2.5V | 07:52:58 | 03:01:16 | 00:00:00 | |
| BIOWL1-15 | 2026-09-01 01:18:48 | 51.29708 | 8.49077 | 98° | 119km/h | 11552m | -5m/s | -58.4°C | 52.5% | 215hPa | 2.5V | 07:51:16 | 03:01:12 | 00:00:00 | |
| DO2JMG | 2026-09-01 01:18:47 | 51.29703 | 8.49125 | 100° | 122km/h | 11547m | -5.1m/s | -58.4°C | 53.1% | 215.2hPa | 2.6V | 07:51:16 | 03:01:13 | 00:00:00 | |
| DD8BA-10 | 2026-09-01 01:18:46 | 51.29708 | 8.49077 | 99° | 111km/h | 11552m | -4.9m/s | -58.4°C | 54.5% | 215.0hPa | 2.5V | 00:00:00 | 00:00:00 | 00:00:00 | |
| DL1XH1-15 | 2026-09-01 01:18:45 | 51.29726 | 8.48797 | 93° | 110km/h | 11579m | -4.6m/s | -58.4°C | 52.7% | 214.1hPa | 2.5V | 07:51:13 | 03:01:06 | 00:00:00 | |
| DL1XH-west | 2026-09-01 01:18:43 | 51.29719 | 8.48934 | 95° | 119km/h | 11566m | -4.5m/s | -58.4°C | 51.3% | 214.6hPa | 2.5V | 07:51:16 | 03:01:09 | 00:00:00 | |
| AA1-15 | 2026-09-01 01:18:43 | 51.29722 | 8.48887 | 95° | 115km/h | 11570m | -4.5m/s | -58.4°C | 50.9% | 214.4hPa | 2.6V | 07:51:16 | 03:01:08 | 00:00:00 | |
| DF8AY | 2026-09-01 01:18:39 | 51.29777 | 8.48398 | 109° | 102km/h | 11620m | -4.9m/s | -58.2°C | 47% | 212.8hPa | 2.6V | 07:52:58 | 03:00:56 | 00:00:00 | |
| DM0DOS-11 | 2026-09-01 01:18:39 | 51.29731 | 8.48713 | 96° | 102km/h | 11588m | -4.6m/s | -58.4°C | 52.1% | 213.9hPa | 2.5V | 07:51:15 | 03:01:04 | 00:00:00 | |
| DO2JMG | 2026-09-01 01:18:36 | 51.29737 | 8.48632 | 100° | 99km/h | 11595m | -4.3m/s | -58.3°C | 48.5% | 213.6hPa | 2.6V | 07:52:58 | 03:01:02 | 00:00:00 | |
| DL1XH1-15 | 2026-09-01 01:18:35 | 51.29777 | 8.48398 | 108° | 102km/h | 11620m | -4.9m/s | -58.2°C | 49.1% | 212.8hPa | 2.6V | 07:51:23 | 03:00:56 | 00:00:00 | |
| DL1NUX | 2026-09-01 01:18:34 | 51.29786 | 8.48358 | 109° | 106km/h | 11625m | -4.9m/s | -58.2°C | 49.1% | 212.6hPa | 2.6V | 07:51:24 | 03:00:55 | 00:00:00 | |
| DL1XH-west | 2026-09-01 01:18:32 | 51.29761 | 8.48476 | 107° | 100km/h | 11612m | -4.4m/s | -58.2°C | 47.4% | 213.1hPa | 2.5V | 07:52:07 | 03:00:58 | 00:00:00 | |
| AA1-15 | 2026-09-01 01:18:31 | 51.29769 | 8.48437 | 108° | 100km/h | 11616m | -4.4m/s | -58.2°C | 47.1% | 212.9hPa | 2.6V | 07:52:07 | 03:00:57 | 00:00:00 | |
| DF8AY | 2026-09-01 01:18:29 | 51.29785 | 8.48358 | 109° | 106km/h | 11625m | -4.9m/s | -58.2°C | 46.9% | 212.6hPa | 2.6V | 07:52:58 | 03:00:55 | 00:00:00 | |
| GOEST3-10 | 2026-09-01 01:18:29 | 51.29785 | 8.48358 | 110° | 111km/h | 11625m | -4.8m/s | -58.1°C | 49.1% | 212.5hPa | 2.5V | 00:00:00 | 03:00:55 | 00:00:00 | |
| DJ8HS-15 | 2026-09-01 01:18:27 | 51.29803 | 8.48275 | 108° | 122km/h | 11634m | -4.5m/s | -58.1°C | 49.0% | 212.3hPa | 2.5V | 07:51:00 | 03:00:53 | 00:00:00 | |
| DD8BA-10 | 2026-09-01 01:18:26 | 51.29812 | 8.48232 | 108° | 120km/h | 11638m | -4.8m/s | -58.1°C | 49.1% | 212.1hPa | 2.5V | 00:00:00 | 00:00:00 | 00:00:00 | |
| DL1XH1-15 | 2026-09-01 01:18:25 | 51.29861 | 8.47954 | 103° | 124km/h | 11663m | -4.8m/s | -57.7°C | 47.3% | 211.3hPa | 2.5V | 07:51:33 | 03:00:46 | 00:00:00 | |
| BIOWL1-15 | 2026-09-01 01:18:23 | 51.29838 | 8.48097 | 106° | 117km/h | 11651m | -4.7m/s | -57.9°C | 45.9% | 211.7hPa | 2.6V | 07:52:07 | 03:00:49 | 00:00:00 | |
| DL1XH-15 | 2026-09-01 01:18:22 | 51.29868 | 8.47904 | 101° | 126km/h | 11668m | -4.5m/s | -57.7°C | 47% | 211.2hPa | 2.6V | 07:51:34 | 03:00:45 | 00:00:00 | |
| DL1XH-west | 2026-09-01 01:18:21 | 51.29854 | 8.48002 | 103° | 122km/h | 11659m | -4.4m/s | -57.7°C | 45.5% | 211.5hPa | 2.5V | 07:52:07 | 03:00:47 | 00:00:00 | |
| AA1-15 | 2026-09-01 01:18:20 | 51.29861 | 8.47954 | 104° | 124km/h | 11663m | -4.8m/s | -57.7°C | 45.4% | 211.3hPa | 2.5V | 07:52:07 | 03:00:46 | 00:00:00 | |
| GOEST3-10 | 2026-09-01 01:18:19 | 51.29868 | 8.47904 | 102° | 126km/h | 11668m | -4.4m/s | -57.6°C | 47.0% | 211.1hPa | 2.5V | 00:00:00 | 03:00:45 | 00:00:00 | |
| DO2KSM | 2026-09-01 01:18:18 | 51.29868 | 8.47904 | 102° | 126km/h | 11668m | -4.5m/s | -57.7°C | 39.3% | 211.2hPa | 2.5V | 07:52:00 | 00:00:00 | 00:00:00 | |
| DD8BA-10 | 2026-09-01 01:18:16 | 51.29886 | 8.47755 | 100° | 124km/h | 11681m | -4.1m/s | -57.6°C | 46.0% | 210.7hPa | 2.5V | 00:00:00 | 00:00:00 | 00:00:00 | |
| DL1XH1-15 | 2026-09-01 01:18:15 | 51.29911 | 8.47449 | 94° | 122km/h | 11708m | -4.7m/s | -57.5°C | 44.4% | 209.8hPa | 2.5V | 07:51:43 | 03:00:36 | 00:00:00 | |
| DB0NH | 2026-09-01 01:18:15 | 51.29891 | 8.47704 | 99° | 115km/h | 11685m | -4.5m/s | -57.6°C | 45.7% | 210.5hPa | 2.5V | 00:00:00 | 03:00:41 | 00:00:00 | |
| DL1NUX | 2026-09-01 01:18:14 | 51.29913 | 8.47399 | 93° | 122km/h | 11712m | -4.9m/s | -57.4°C | 44% | 209.7hPa | 2.5V | 07:51:44 | 03:00:35 | 00:00:00 | |
| BIOWL1-15 | 2026-09-01 01:18:12 | 51.29904 | 8.47549 | 96° | 126km/h | 11699m | -4.9m/s | -57.6°C | 44.5% | 210.2hPa | 2.6V | 07:52:07 | 03:00:38 | 00:00:00 | |
| DL1XH-west | 2026-09-01 01:18:11 | 51.29908 | 8.47499 | 96° | 124km/h | 11703m | -4.6m/s | -57.6°C | 44.5% | 210hPa | 2.6V | 07:52:07 | 03:00:37 | 00:00:00 | |
| HSKMA3-T | 2026-09-01 01:18:10 | 51.29911 | 8.47449 | 95° | 122km/h | 11708m | -4.7m/s | -57.5°C | 44.3% | 209.8hPa | 2.5V | 07:52:07 | 03:00:36 | 00:00:00 | |
| DB0DAN | 2026-09-01 01:18:10 | 51.29911 | 8.47449 | 95° | 117km/h | 11708m | -4.7m/s | -57.5°C | 37.1% | 209.84hPa | 2.5V | 00:00:00 | 00:00:00 | 00:00:00 | |
| AA1-15 | 2026-09-01 01:18:09 | 51.29913 | 8.47399 | 94° | 122km/h | 11713m | -4.9m/s | -57.4°C | 44.3% | 209.7hPa | 2.5V | 07:52:07 | 03:00:35 | 00:00:00 | |
| GOEST3-10 | 2026-09-01 01:18:09 | 51.29913 | 8.47399 | 94° | 115km/h | 11713m | -4.8m/s | -57.3°C | 44.0% | 209.7hPa | 2.5V | 00:00:00 | 03:00:35 | 00:00:00 | |
| DL1CLM-18 | 2026-09-01 01:18:08 | 51.29913 | 8.47399 | 95° | 122km/h | 11713m | -4.9m/s | -57.4°C | 36.8% | 209.7hPa | 2.5V | 00:00:00 | 00:00:00 | 00:00:00 | |
| DJ8HS-15 | 2026-09-01 01:18:07 | 51.29918 | 8.47302 | 93° | 110km/h | 11723m | -4.4m/s | -57.2°C | 43.6% | 209.3hPa | 2.5V | 00:00:00 | 03:00:33 | 00:00:00 | |
| DD1CC3-15 | 2026-09-01 01:18:06 | 51.29919 | 8.47256 | 94° | 111km/h | 11727m | -4.2m/s | -57.3°C | 36.5% | 209.3hPa | 2.6V | 07:52:00 | 00:00:00 | 00:00:00 | |
| DL1XH1-15 | 2026-09-01 01:18:05 | 51.29937 | 8.47005 | 99° | 99km/h | 11751m | -4.3m/s | -57.5°C | 43% | 208.4hPa | 2.6V | 07:51:53 | 03:00:26 | 00:00:00 | |
| DF8AY | 2026-09-01 01:18:05 | 51.29921 | 8.47211 | 94° | 108km/h | 11731m | -4m/s | -57.4°C | 43.7% | 209.1hPa | 2.6V | 07:52:58 | 03:00:31 | 00:00:00 | |
| BIOWL1-15 | 2026-09-01 01:18:04 | 51.29929 | 8.47085 | 98° | 100km/h | 11743m | -4.5m/s | -57.4°C | 43.4% | 208.6hPa | 2.5V | 07:52:07 | 03:00:28 | 00:00:00 | |
| GOEST3-10 | 2026-09-01 01:18:04 | 51.29924 | 8.47168 | 95° | 102km/h | 11735m | -4.0m/s | -57.3°C | 43.5% | 208.9hPa | 2.5V | 00:00:00 | 00:00:00 | 00:00:00 | |
| DL3AQ-11 | 2026-09-01 01:18:02 | 51.29933 | 8.47045 | 98° | 99km/h | 11747m | -4.4m/s | -57.4°C | 35.9% | 208.6hPa | 2.5V | 00:00:00 | 00:00:00 | 00:00:00 | |
| DL1XH-15 | 2026-09-01 01:18:01 | 51.29942 | 8.46965 | 100° | 100km/h | 11756m | -4.8m/s | -57.5°C | 43% | 208.2hPa | 2.5V | 07:51:54 | 03:00:25 | 00:00:00 | |
| DL1XH-west | 2026-09-01 01:18:00 | 51.29937 | 8.47005 | 100° | 99km/h | 11752m | -4.3m/s | -57.5°C | 43% | 208.4hPa | 2.6V | 07:52:07 | 03:00:26 | 00:00:00 | |
| HSKMA3-T | 2026-09-01 01:17:59 | 51.29942 | 8.46965 | 101° | 100km/h | 11756m | -4.8m/s | -57.5°C | 42.9% | 208.2hPa | 2.5V | 07:52:07 | 03:00:25 | 00:00:00 | |
| DM0DOS-11 | 2026-09-01 01:17:59 | 51.29947 | 8.46925 | 101° | 100km/h | 11760m | -4.8m/s | -57.5°C | 42.9% | 208.1hPa | 2.5V | 07:51:55 | 03:00:24 | 00:00:00 | |
| AA1-15 | 2026-09-01 01:17:58 | 51.29947 | 8.46925 | 102° | 100km/h | 11760m | -4.8m/s | -57.5°C | 42.7% | 208.1hPa | 2.5V | 07:52:07 | 03:00:24 | 00:00:00 | |
| DB0UT-7 | 2026-09-01 01:17:57 | 51.29953 | 8.46886 | 105° | 119km/h | 11765m | -4.9m/s | -57.4°C | 42.8% | 207.9hPa | 2.5V | 00:00:00 | 00:00:00 | 00:00:00 | |
| DD8BA-10 | 2026-09-01 01:17:56 | 51.29960 | 8.46845 | 105° | 117km/h | 11769m | -4.5m/s | -57.4°C | 42.7% | 207.8hPa | 2.5V | 00:00:00 | 00:00:00 | 00:00:00 | |
| DL1XH1-15 | 2026-09-01 01:17:55 | 51.30006 | 8.46579 | 104° | 119km/h | 11795m | -5.3m/s | -57.5°C | 41.7% | 206.9hPa | 2.5V | 07:52:03 | 03:00:16 | 00:00:00 | |
| DJ2KF-10 | 2026-09-01 01:17:55 | 51.29967 | 8.46802 | 105° | 117km/h | 11774m | -4.2m/s | -57.4°C | 42.7% | 207.6hPa | 2.6V | 00:00:00 | 03:00:21 | 00:00:00 | |
| DL1NUX | 2026-09-01 01:17:54 | 51.30014 | 8.46532 | 105° | 122km/h | 11800m | -5m/s | -57.5°C | 41.4% | 206.8hPa | 2.5V | 07:52:04 | 03:00:15 | 00:00:00 | |
| BIOWL1-15 | 2026-09-01 01:17:53 | 51.29998 | 8.46625 | 105° | 120km/h | 11790m | -5.3m/s | -57.5°C | 41.5% | 207.1hPa | 2.5V | 07:52:07 | 03:00:17 | 00:00:00 | |
| DF8AY | 2026-09-01 01:17:52 | 51.29990 | 8.46671 | 107° | 117km/h | 11786m | -4.9m/s | -57.5°C | 41.7% | 207.2hPa | 2.5V | 07:52:58 | 03:00:18 | 00:00:00 | |
| DM0DOS-11 | 2026-09-01 01:17:51 | 51.30022 | 8.46484 | 103° | 124km/h | 11805m | -4.5m/s | -57.5°C | 41% | 206.6hPa | 2.6V | 07:52:05 | 03:00:14 | 00:00:00 | |
| DL1XH-west | 2026-09-01 01:17:49 | 51.30014 | 8.46532 | 106° | 122km/h | 11800m | -5m/s | -57.5°C | 41% | 206.8hPa | 2.5V | 07:52:07 | 03:00:15 | 00:00:00 | |
| HSKMA3-T | 2026-09-01 01:17:48 | 51.30022 | 8.46484 | 104° | 124km/h | 11805m | -4.5m/s | -57.6°C | 40.7% | 206.6hPa | 2.6V | 07:52:07 | 03:00:14 | 00:00:00 | |
| AA1-15 | 2026-09-01 01:17:47 | 51.30030 | 8.46435 | 105° | 126km/h | 11809m | -4.5m/s | -57.6°C | 40.4% | 206.5hPa | 2.6V | 07:52:07 | 03:00:13 | 00:00:00 | |
| DL3AQ-11 | 2026-09-01 01:17:46 | 51.30045 | 8.46335 | 103° | 128km/h | 11817m | -5.2m/s | -57.7°C | 33.0% | 206.2hPa | 2.5V | 00:00:00 | 00:00:00 | 00:00:00 | |
| DL1XH1-15 | 2026-09-01 01:17:45 | 51.30074 | 8.46079 | 96° | 130km/h | 11840m | -4.9m/s | -57.8°C | 38.6% | 205.5hPa | 2.5V | 07:52:13 | 03:00:06 | 00:00:00 | |
| DB0NH | 2026-09-01 01:17:44 | 51.30052 | 8.46285 | 102° | 115km/h | 11822m | -5.0m/s | -57.7°C | 39.7% | 206.1hPa | 2.5V | 00:00:00 | 03:00:10 | 00:00:00 | |
| DL4BBY-15 | 2026-09-01 01:17:42 | 51.30064 | 8.46182 | 101° | 113km/h | 11831m | -5.2m/s | -57.8°C | 0% | 0hPa | 2.5V | 00:00:00 | 00:00:00 | 00:00:00 | |
| DL1XH-15 | 2026-09-01 01:17:41 | 51.30078 | 8.46027 | 96° | 128km/h | 11844m | -5.4m/s | -57.7°C | 38.5% | 205.3hPa | 2.5V | 07:52:14 | 03:00:05 | 00:00:00 | |
| BIOWL1-15 | 2026-09-01 01:17:41 | 51.30070 | 8.46130 | 98° | 128km/h | 11835m | -4.9m/s | -57.8°C | 38.5% | 205.7hPa | 2.5V | 07:52:58 | 03:00:07 | 00:00:00 | |
| DO9LL-15 | 2026-09-01 01:17:41 | 51.30069 | 8.46130 | 99° | 113km/h | 11835m | -4.9m/s | -57.7°C | 38.8% | 205.6hPa | 2.5V | 00:00:00 | 03:00:07 | 00:00:00 | |
| DO3DL | 2026-09-01 01:17:40 | 51.30070 | 8.46130 | 99° | 128km/h | 11835m | -4.9m/s | -57.8°C | 31.9% | 205.7hPa | 2.5V | 07:52:00 | 00:00:00 | 00:00:00 | |
| DM0DOS-11 | 2026-09-01 01:17:39 | 51.30081 | 8.45976 | 94° | 128km/h | 11849m | -4.6m/s | -57.6°C | 38% | 205.2hPa | 2.5V | 07:52:15 | 03:00:04 | 00:00:00 | |
| DL1XH-west | 2026-09-01 01:17:38 | 51.30081 | 8.45976 | 95° | 128km/h | 11849m | -4.6m/s | -57.6°C | 37.5% | 205.2hPa | 2.5V | 07:52:58 | 03:00:04 | 00:00:00 | |
| HSKMA3-T | 2026-09-01 01:17:38 | 51.30084 | 8.45925 | 94° | 126km/h | 11853m | -4.6m/s | -57.5°C | 37% | 205hPa | 2.6V | 07:52:58 | 03:00:03 | 00:00:00 | |
| AA1-15 | 2026-09-01 01:17:36 | 51.30086 | 8.45875 | 94° | 122km/h | 11858m | -4.6m/s | -57.5°C | 36.5% | 204.9hPa | 2.6V | 07:52:58 | 03:00:02 | 00:00:00 | |
| DF8AY | 2026-09-01 01:17:35 | 51.30088 | 8.45826 | 93° | 120km/h | 11862m | -4.8m/s | -57.5°C | 35.9% | 204.8hPa | 2.6V | 07:52:58 | 03:00:01 | 00:00:00 | |
| DD1CC8 | 2026-09-01 01:17:35 | 51.30088 | 8.45826 | 93° | 119km/h | 11862m | -4.8m/s | -57.5°C | 29.9% | 204.8hPa | 2.6V | 00:00:00 | 00:00:00 | 00:00:00 | |
| DL1NUX | 2026-09-01 01:17:34 | 51.30104 | 8.45560 | 97° | 108km/h | 11888m | -4.7m/s | -57.7°C | 35.1% | 203.9hPa | 2.6V | 07:52:24 | 02:59:55 | 00:00:00 | |
| DM0DOS-11 | 2026-09-01 01:17:33 | 51.30108 | 8.45518 | 97° | 104km/h | 11893m | -4.9m/s | -57.7°C | 34.5% | 203.8hPa | 2.5V | 07:52:25 | 02:59:54 | 00:00:00 | |
| BIOWL1-15 | 2026-09-01 01:17:31 | 51.30097 | 8.45645 | 96° | 108km/h | 11879m | -4.9m/s | -57.6°C | 34.3% | 204.2hPa | 2.5V | 07:52:58 | 02:59:57 | 00:00:00 | |
| DL1XH-west | 2026-09-01 01:17:28 | 51.30108 | 8.45518 | 98° | 104km/h | 11893m | -4.9m/s | -57.7°C | 32.8% | 203.8hPa | 2.5V | 07:52:58 | 02:59:54 | 00:00:00 | |
| HSKMA3-T | 2026-09-01 01:17:26 | 51.30117 | 8.45436 | 100° | 102km/h | 11902m | -5.3m/s | -57.7°C | 31.8% | 203.5hPa | 2.5V | 07:52:58 | 02:59:52 | 00:00:00 | |
| AA1-15 | 2026-09-01 01:17:25 | 51.30122 | 8.45394 | 101° | 106km/h | 11907m | -4.7m/s | -57.8°C | 31.2% | 203.4hPa | 2.6V | 07:52:58 | 02:59:51 | 00:00:00 | |
| DB0DAN | 2026-09-01 01:17:25 | 51.30122 | 8.45394 | 101° | 102km/h | 11907m | -4.7m/s | -57.8°C | 26.5% | 203.37hPa | 2.6V | 00:00:00 | 00:00:00 | 00:00:00 | |
| BIOWL1-15 | 2026-09-01 01:17:22 | 51.30153 | 8.45188 | 106° | 108km/h | 11930m | -4.9m/s | -57.3°C | 27.7% | 202.6hPa | 2.6V | 07:52:58 | 02:59:46 | 00:00:00 | |
| DL1XH-15 | 2026-09-01 01:17:21 | 51.30161 | 8.45146 | 105° | 108km/h | 11934m | -4.6m/s | -57.1°C | 27% | 202.4hPa | 2.6V | 07:52:34 | 02:59:45 | 00:00:00 | |
| DO3DL | 2026-09-01 01:17:20 | 51.30146 | 8.45230 | 106° | 104km/h | 11926m | -4.9m/s | -57.4°C | 23.4% | 202.8hPa | 2.5V | 07:52:00 | 00:00:00 | 00:00:00 | |
| DM0DOS-11 | 2026-09-01 01:17:19 | 51.30168 | 8.45105 | 106° | 106km/h | 11939m | -4.7m/s | -57°C | 26.1% | 202.3hPa | 2.5V | 07:52:35 | 02:59:44 | 00:00:00 | |
| DL1XH-west | 2026-09-01 01:17:17 | 51.30176 | 8.45063 | 107° | 110km/h | 11943m | -5m/s | -57°C | 25.7% | 202.1hPa | 2.5V | 07:52:58 | 02:59:43 | 00:00:00 | |
| HSKMA3-T | 2026-09-01 01:17:16 | 51.30185 | 8.45020 | 109° | 115km/h | 11948m | -5m/s | -57°C | 25.2% | 202hPa | 2.5V | 07:52:58 | 02:59:42 | 00:00:00 | |
| DD8BA-10 | 2026-09-01 01:17:16 | 51.30185 | 8.45020 | 109° | 122km/h | 11948m | -4.9m/s | -57.0°C | 25.0% | 201.9hPa | 2.5V | 00:00:00 | 00:00:00 | 00:00:00 | |
| DL1XH1-15 | 2026-09-01 01:17:15 | 51.30241 | 8.44738 | 104° | 126km/h | 11975m | -4.5m/s | -56.7°C | 22.6% | 201.1hPa | 2.5V | 07:52:43 | 02:59:36 | 00:00:00 | |
| AA1-15 | 2026-09-01 01:17:14 | 51.30203 | 8.44930 | 108° | 120km/h | 11957m | -4.7m/s | -57°C | 24.2% | 201.7hPa | 2.6V | 07:52:58 | 02:59:40 | 00:00:00 | |
| DL1XH-west | 2026-09-01 01:17:06 | 51.30265 | 8.44544 | 99° | 115km/h | 11992m | -4.4m/s | -56.5°C | 21% | 200.6hPa | 2.5V | 07:52:58 | 02:59:32 | 00:00:00 | |
| DD8BA-10 | 2026-09-01 01:17:06 | 51.30264 | 8.44544 | 99° | 106km/h | 11992m | -4.4m/s | -56.5°C | 21.3% | 200.6hPa | 2.5V | 00:00:00 | 00:00:00 | 00:00:00 | |
| DL1XH1-15 | 2026-09-01 01:17:05 | 51.30294 | 8.44287 | 101° | 102km/h | 12017m | -4.7m/s | -56.5°C | 19.6% | 199.8hPa | 2.5V | 07:52:53 | 02:59:26 | 00:00:00 | |
| HSKMA3-T | 2026-09-01 01:17:05 | 51.30269 | 8.44499 | 99° | 111km/h | 11996m | -4.7m/s | -56.5°C | 20.7% | 200.5hPa | 2.5V | 07:52:58 | 02:59:31 | 00:00:00 | |
| AA1-15 | 2026-09-01 01:17:04 | 51.30274 | 8.44455 | 99° | 110km/h | 12001m | -4.6m/s | -56.6°C | 20.4% | 200.3hPa | 2.5V | 07:52:58 | 02:59:30 | 00:00:00 | |
| AM1SDL-15 | 2026-09-01 01:17:03 | 51.30278 | 8.44411 | 100° | 102km/h | 12005m | -4.4m/s | -56.5°C | 20.4% | 200.1hPa | 2.5V | 00:00:00 | 02:59:29 | 00:00:00 | |
| DM0DOS-11 | 2026-09-01 01:17:01 | 51.30305 | 8.44206 | 103° | 102km/h | 12025m | -4.7m/s | -56.4°C | 19% | 199.5hPa | 2.5V | 07:52:55 | 02:59:24 | 00:00:00 | |
| BIOWL1-15 | 2026-09-01 01:16:59 | 51.30299 | 8.44246 | 103° | 104km/h | 12021m | -4.6m/s | -56.5°C | 18.9% | 199.6hPa | 2.5V | 07:52:58 | 02:59:25 | 00:00:00 | |
| DO2JMG | 2026-09-01 01:16:57 | 51.30312 | 8.44167 | 105° | 99km/h | 12029m | -4.8m/s | -56.4°C | 18.3% | 199.4hPa | 2.6V | 07:52:58 | 02:59:23 | 00:00:00 | |
| DL1XH-west | 2026-09-01 01:16:56 | 51.30318 | 8.44128 | 106° | 100km/h | 12033m | -4.7m/s | -56.4°C | 18.1% | 199.2hPa | 2.6V | 07:52:58 | 02:59:22 | 00:00:00 | |
| HSKMA3-T | 2026-09-01 01:16:55 | 51.30325 | 8.44089 | 105° | 102km/h | 12037m | -5.2m/s | -56.4°C | 17.9% | 199.1hPa | 2.5V | 07:52:58 | 02:59:21 | 00:00:00 | |
| AA1-15 | 2026-09-01 01:16:53 | 51.30338 | 8.44013 | 105° | 99km/h | 12046m | -5.1m/s | -56.4°C | 17.4% | 198.8hPa | 2.5V | 07:53:49 | 02:59:19 | 00:00:00 | |
| DF8AY | 2026-09-01 01:16:52 | 51.30344 | 8.43975 | 106° | 97km/h | 12051m | -5.3m/s | -56.4°C | 17.1% | 198.7hPa | 2.6V | 07:53:49 | 02:59:18 | 00:00:00 | |
| DJ2KF-10 | 2026-09-01 01:16:52 | 51.30344 | 8.43975 | 106° | 91km/h | 12051m | -5.2m/s | -56.4°C | 17.9% | 198.6hPa | 2.5V | 00:00:00 | 02:59:18 | 00:00:00 | |
| DL1NUX | 2026-09-01 01:16:49 | 51.30362 | 8.43862 | 104° | 99km/h | 12066m | -5.2m/s | -56.3°C | 17.2% | 198.2hPa | 2.5V | 07:53:04 | 02:59:15 | 00:00:00 | |
| BIOWL1-15 | 2026-09-01 01:16:49 | 51.30362 | 8.43862 | 104° | 99km/h | 12066m | -5.2m/s | -56.3°C | 16.4% | 198.2hPa | 2.5V | 07:53:49 | 02:59:15 | 00:00:00 | |
| DO2JMG | 2026-09-01 01:16:47 | 51.30374 | 8.43787 | 104° | 99km/h | 12076m | -5.3m/s | -56.4°C | 15.9% | 198hPa | 2.6V | 07:56:22 | 02:59:13 | 00:00:00 | |
| DL1XH-west | 2026-09-01 01:16:46 | 51.30380 | 8.43749 | 103° | 97km/h | 12081m | -5m/s | -56.4°C | 15.7% | 197.8hPa | 2.6V | 07:53:49 | 02:59:12 | 00:00:00 | |
| HSKMA3-T | 2026-09-01 01:16:45 | 51.30385 | 8.43711 | 102° | 97km/h | 12085m | -4.9m/s | -56.4°C | 15.4% | 197.6hPa | 2.5V | 07:53:49 | 02:59:11 | 00:00:00 | |
| AA1-15 | 2026-09-01 01:16:43 | 51.30396 | 8.43637 | 104° | 95km/h | 12095m | -5.1m/s | -56.4°C | 14.8% | 197.3hPa | 2.5V | 07:53:49 | 02:59:09 | 00:00:00 | |
| DF8AY | 2026-09-01 01:16:42 | 51.30407 | 8.43562 | 102° | 95km/h | 12105m | -5.1m/s | -56.4°C | 14.2% | 197hPa | 2.6V | 07:53:49 | 02:59:07 | 00:00:00 | |
| DB0NH | 2026-09-01 01:16:42 | 51.30402 | 8.43599 | 103° | 93km/h | 12100m | -5.0m/s | -56.3°C | 15.6% | 197.1hPa | 2.6V | 00:00:00 | 02:59:08 | 00:00:00 | |
| DL1XH-15 | 2026-09-01 01:16:41 | 51.30417 | 8.43486 | 100° | 97km/h | 12115m | -4.7m/s | -56.4°C | 14.9% | 196.8hPa | 2.5V | 07:53:14 | 02:59:05 | 00:00:00 | |
| BIOWL7-15 | 2026-09-01 01:16:40 | 51.30407 | 8.43562 | 103° | 95km/h | 12105m | -5.1m/s | -56.4°C | 11.0% | 197.0hPa | 2.5V | 00:00:00 | 00:00:00 | 00:00:00 | |
| DM0DOS-11 | 2026-09-01 01:16:39 | 51.30422 | 8.43448 | 101° | 97km/h | 12120m | -4.8m/s | -56.3°C | 14.5% | 196.6hPa | 2.5V | 07:53:15 | 02:59:04 | 00:00:00 | |
| DO2JMG | 2026-09-01 01:16:36 | 51.30432 | 8.43372 | 102° | 95km/h | 12129m | -4.9m/s | -56.1°C | 12.5% | 196.3hPa | 2.6V | 07:56:22 | 02:59:02 | 00:00:00 | |
| DD8BA-10 | 2026-09-01 01:16:36 | 51.30432 | 8.43372 | 103° | 88km/h | 12129m | -4.8m/s | -56.0°C | 13.8% | 196.3hPa | 2.6V | 00:00:00 | 00:00:00 | 00:00:00 | |
| DL1XH1-15 | 2026-09-01 01:16:35 | 51.30459 | 8.43157 | 102° | 88km/h | 12155m | -5.1m/s | -55.7°C | 11.7% | 195.4hPa | 2.5V | 07:53:23 | 02:58:56 | 00:00:00 | |
| DL1XH-west | 2026-09-01 01:16:35 | 51.30437 | 8.43334 | 100° | 95km/h | 12133m | -4.7m/s | -55.9°C | 12.2% | 196.2hPa | 2.6V | 07:53:49 | 02:59:01 | 00:00:00 | |
| HSKMA3-T | 2026-09-01 01:16:34 | 51.30441 | 8.43298 | 102° | 93km/h | 12137m | -4.9m/s | -55.8°C | 11.9% | 196hPa | 2.6V | 07:53:49 | 02:59:00 | 00:00:00 | |
| AA1-15 | 2026-09-01 01:16:32 | 51.30450 | 8.43226 | 102° | 89km/h | 12146m | -5.3m/s | -55.7°C | 11.3% | 195.7hPa | 2.5V | 07:53:49 | 02:58:58 | 00:00:00 | |
| GOEST3-10 | 2026-09-01 01:16:32 | 51.30450 | 8.43225 | 102° | 84km/h | 12146m | -5.2m/s | -55.7°C | 12.3% | 195.7hPa | 2.6V | 00:00:00 | 02:58:58 | 00:00:00 | |
| DM0DOS-11 | 2026-09-01 01:16:29 | 51.30470 | 8.43092 | 105° | 84km/h | 12164m | -5.1m/s | -55.6°C | 11.3% | 195.1hPa | 2.6V | 07:53:25 | 02:58:54 | 00:00:00 | |
| DO2JMG | 2026-09-01 01:16:26 | 51.30482 | 8.43031 | 111° | 78km/h | 12173m | -4.9m/s | -55.5°C | 10.1% | 194.9hPa | 2.5V | 07:56:22 | 02:58:52 | 00:00:00 | |
| DD8BA-10 | 2026-09-01 01:16:26 | 51.30482 | 8.43031 | 112° | 91km/h | 12173m | -4.8m/s | -55.4°C | 11.2% | 194.8hPa | 2.5V | 07:53:00 | 00:00:00 | 00:00:00 | |
| DL1XH1-15 | 2026-09-01 01:16:25 | 51.30534 | 8.42842 | 113° | 95km/h | 12200m | -5.1m/s | -55.4°C | 10.9% | 194hPa | 2.5V | 07:53:33 | 02:58:46 | 00:00:00 | |
| DL1XH-west | 2026-09-01 01:16:24 | 51.30497 | 8.42972 | 113° | 80km/h | 12182m | -5m/s | -55.5°C | 9.9% | 194.6hPa | 2.6V | 07:53:49 | 02:58:50 | 00:00:00 | |
| AA1-15 | 2026-09-01 01:16:21 | 51.30525 | 8.42877 | 114° | 93km/h | 12196m | -5m/s | -55.4°C | 9.6% | 194.2hPa | 2.5V | 07:53:49 | 02:58:47 | 00:00:00 | |
| DL1XH-west | 2026-09-01 01:16:13 | 51.30586 | 8.42566 | 102° | 104km/h | 12230m | -5.7m/s | -55.5°C | 8.8% | 193.1hPa | 2.6V | 07:53:49 | 02:58:39 | 00:00:00 | |
| AA1-15 | 2026-09-01 01:16:10 | 51.30600 | 8.42445 | 99° | 99km/h | 12246m | -5.8m/s | -55.5°C | 8.5% | 192.7hPa | 2.5V | 07:53:49 | 02:58:36 | 00:00:00 | |
| DM0DOS-11 | 2026-09-01 01:16:09 | 51.30606 | 8.42368 | 95° | 93km/h | 12257m | -5.5m/s | -55.5°C | 9.8% | 192.4hPa | 2.6V | 07:53:45 | 02:58:34 | 00:00:00 | |
| DF8AY | 2026-09-01 01:16:07 | 51.30608 | 8.42331 | 94° | 93km/h | 12261m | -4.9m/s | -55.5°C | 8.2% | 192.3hPa | 2.5V | 07:53:49 | 02:58:33 | 00:00:00 | |
| HSKMA3-T | 2026-09-01 01:16:03 | 51.30618 | 8.42194 | 99° | 80km/h | 12281m | -4.4m/s | -55.5°C | 7.9% | 191.7hPa | 2.6V | 07:54:40 | 02:58:29 | 00:00:00 | |
| DL1XH-west | 2026-09-01 01:16:02 | 51.30621 | 8.42163 | 101° | 78km/h | 12285m | -4m/s | -55.5°C | 7.8% | 191.6hPa | 2.5V | 07:54:40 | 02:58:28 | 00:00:00 | |
| DF8AY | 2026-09-01 01:16:00 | 51.30666 | 8.41951 | 114° | 89km/h | 12317m | -4.9m/s | -55.4°C | 7.2% | 190.6hPa | 2.5V | 07:55:31 | 02:58:21 | 00:00:00 | |
| DM0DOS-11 | 2026-09-01 01:15:59 | 51.30643 | 8.42045 | 109° | 80km/h | 12302m | -5.1m/s | -55.5°C | 9.1% | 191hPa | 2.6V | 07:53:55 | 02:58:24 | 00:00:00 | |
| AA1-15 | 2026-09-01 01:15:59 | 51.30636 | 8.42075 | 110° | 77km/h | 12297m | -5.4m/s | -55.5°C | 7.5% | 191.1hPa | 2.5V | 07:54:40 | 02:58:25 | 00:00:00 | |
| DJ2DS-15 | 2026-09-01 01:15:58 | 51.30643 | 8.42045 | 110° | 97km/h | 12303m | -5.1m/s | -55.4°C | 9.1% | 191.0hPa | 2.6V | 00:00:00 | 02:58:24 | 00:00:00 | |
| DB0UT-7 | 2026-09-01 01:15:57 | 51.30650 | 8.42014 | 112° | 91km/h | 12307m | -5.6m/s | -55.4°C | 9.1% | 190.8hPa | 2.5V | 00:00:00 | 00:00:00 | 00:00:00 | |
| GOEST3-10 | 2026-09-01 01:15:56 | 51.30657 | 8.41983 | 113° | 93km/h | 12313m | -4.7m/s | -55.4°C | 9.0% | 190.7hPa | 2.5V | 00:00:00 | 02:58:22 | 00:00:00 | |
| DL8OAI-8 | 2026-09-01 01:15:55 | 51.30658 | 8.41983 | 114° | 84km/h | 12313m | -4.7m/s | -55.4°C | 5.7% | 190.7hPa | 2.5V | 07:54:00 | 00:00:00 | 00:00:00 | |
| DL1NUX | 2026-09-01 01:15:54 | 51.30712 | 8.41724 | 101° | 102km/h | 12343m | -4.7m/s | -55.4°C | 8.8% | 189.8hPa | 2.5V | 07:54:04 | 02:58:15 | 00:00:00 | |
| BIOWL1-15 | 2026-09-01 01:15:54 | 51.30675 | 8.41917 | 112° | 93km/h | 12321m | -4.6m/s | -55.4°C | 7.1% | 190.4hPa | 2.5V | 07:54:40 | 02:58:20 | 00:00:00 | |
| HSKMA3-T | 2026-09-01 01:15:53 | 51.30684 | 8.41881 | 110° | 97km/h | 12325m | -5.1m/s | -55.5°C | 7% | 190.3hPa | 2.5V | 07:54:40 | 02:58:19 | 00:00:00 | |
| DL1XH-west | 2026-09-01 01:15:51 | 51.30700 | 8.41805 | 107° | 102km/h | 12334m | -5m/s | -55.5°C | 6.9% | 190hPa | 2.6V | 07:54:40 | 02:58:17 | 00:00:00 | |
| AA1-15 | 2026-09-01 01:15:49 | 51.30712 | 8.41724 | 102° | 102km/h | 12343m | -4.7m/s | -55.4°C | 6.7% | 189.8hPa | 2.5V | 07:54:40 | 02:58:15 | 00:00:00 | |
| WPPR-10 | 2026-09-01 01:15:47 | 51.30727 | 8.41600 | 99° | 102km/h | 12356m | -5.5m/s | -55.3°C | 5.1% | 189.4hPa | 2.6V | 00:00:00 | 00:00:00 | 00:00:00 | |
| SONCRA | 2026-09-01 01:15:46 | 51.30730 | 8.41560 | 97° | 99km/h | 12361m | -5.5m/s | -55.2°C | 5.0% | 189.2hPa | 2.6V | 00:00:00 | 00:00:00 | 00:00:00 | |
| DL1XH1-15 | 2026-09-01 01:15:45 | 51.30743 | 8.41359 | 92° | 97km/h | 12386m | -5.2m/s | -55.3°C | 7.8% | 188.5hPa | 2.6V | 07:54:13 | 02:58:06 | 00:00:00 | |
| BIOWL1-15 | 2026-09-01 01:15:44 | 51.30734 | 8.41520 | 96° | 100km/h | 12366m | -5.8m/s | -55.2°C | 6.1% | 189.1hPa | 2.5V | 07:54:40 | 02:58:10 | 00:00:00 | |
| HSKMA3-T | 2026-09-01 01:15:43 | 51.30736 | 8.41480 | 96° | 99km/h | 12372m | -5.2m/s | -55.2°C | 6% | 188.9hPa | 2.5V | 07:54:40 | 02:58:09 | 00:00:00 | |
| DL4XJ-10 | 2026-09-01 01:15:43 | 51.30736 | 8.41480 | 97° | 88km/h | 12372m | -5.1m/s | -55.2°C | 0% | 0hPa | 2.5V | 00:00:00 | 00:00:00 | 00:00:00 | |
| DL4BBY-15 | 2026-09-01 01:15:42 | 51.30739 | 8.41440 | 97° | 93km/h | 12376m | -5.4m/s | -55.3°C | 0% | 0hPa | 2.5V | 00:00:00 | 00:00:00 | 00:00:00 | |
| DL1XH-15 | 2026-09-01 01:15:41 | 51.30745 | 8.41321 | 92° | 93km/h | 12391m | -5.4m/s | -55.3°C | 7.8% | 188.3hPa | 2.5V | 07:54:14 | 02:58:05 | 00:00:00 | |
| DL1XH-west | 2026-09-01 01:15:41 | 51.30742 | 8.41399 | 94° | 102km/h | 12381m | -5.4m/s | -55.3°C | 5.8% | 188.6hPa | 2.6V | 07:54:40 | 02:58:07 | 00:00:00 | |
| DM0DOS-11 | 2026-09-01 01:15:39 | 51.30746 | 8.41283 | 92° | 95km/h | 12396m | -5.3m/s | -55.3°C | 7.8% | 188.2hPa | 2.5V | 07:54:15 | 02:58:04 | 00:00:00 | |
| AA1-15 | 2026-09-01 01:15:38 | 51.30746 | 8.41283 | 93° | 95km/h | 12396m | -5.3m/s | -55.3°C | 5.5% | 188.2hPa | 2.5V | 07:54:40 | 02:58:04 | 00:00:00 | |
| DJ2DS-15 | 2026-09-01 01:15:38 | 51.30746 | 8.41282 | 93° | 88km/h | 12397m | -5.3m/s | -55.3°C | 7.8% | 188.1hPa | 2.6V | 07:54:00 | 02:58:04 | 00:00:00 | |
| GOEST3-10 | 2026-09-01 01:15:37 | 51.30747 | 8.41245 | 92° | 84km/h | 12401m | -5.2m/s | -55.3°C | 7.8% | 188.0hPa | 2.6V | 07:54:00 | 00:00:00 | 00:00:00 | |
| DD8BA-10 | 2026-09-01 01:15:36 | 51.30747 | 8.41208 | 91° | 80km/h | 12406m | -5.1m/s | -55.3°C | 7.8% | 187.9hPa | 2.6V | 00:00:00 | 00:00:00 | 00:00:00 | |
| DL1XH1-15 | 2026-09-01 01:15:35 | 51.30759 | 8.41018 | 102° | 77km/h | 12434m | -5.1m/s | -54.9°C | 7.1% | 187.1hPa | 2.6V | 07:54:23 | 02:57:56 | 00:00:00 | |
| DL1NUX | 2026-09-01 01:15:34 | 51.30764 | 8.40987 | 103° | 78km/h | 12438m | -4.9m/s | -54.9°C | 7% | 187hPa | 2.5V | 07:54:24 | 02:57:55 | 00:00:00 | |
| BIOWL1-15 | 2026-09-01 01:15:34 | 51.30749 | 8.41141 | 93° | 82km/h | 12415m | -4.9m/s | -55.3°C | 5.1% | 187.7hPa | 2.5V | 07:54:40 | 02:58:00 | 00:00:00 | |
| HSKMA3-T | 2026-09-01 01:15:32 | 51.30753 | 8.41078 | 97° | 75km/h | 12425m | -5m/s | -55.1°C | 4.8% | 187.3hPa | 2.5V | 07:54:40 | 02:57:58 | 00:00:00 | |
| DL1XH-west | 2026-09-01 01:15:32 | 51.30755 | 8.41048 | 100° | 75km/h | 12429m | -4.8m/s | -55°C | 4.7% | 187.2hPa | 2.6V | 07:54:40 | 02:57:57 | 00:00:00 | |
| DM0DOS-11 | 2026-09-01 01:15:29 | 51.30769 | 8.40956 | 106° | 82km/h | 12443m | -5m/s | -54.8°C | 6.9% | 186.8hPa | 2.5V | 07:54:25 | 02:57:54 | 00:00:00 | |
| AA1-15 | 2026-09-01 01:15:28 | 51.30769 | 8.40956 | 106° | 82km/h | 12443m | -5m/s | -54.8°C | 4.3% | 186.9hPa | 2.5V | 07:54:40 | 02:57:54 | 00:00:00 | |
| DB0UT-7 | 2026-09-01 01:15:27 | 51.30775 | 8.40923 | 108° | 102km/h | 12448m | -5.3m/s | -54.7°C | 6.7% | 186.7hPa | 2.5V | 00:00:00 | 02:57:53 | 00:00:00 | |
| DD8BA-10 | 2026-09-01 01:15:26 | 51.30782 | 8.40889 | 107° | 100km/h | 12452m | -5.1m/s | -54.7°C | 6.7% | 186.6hPa | 2.6V | 00:00:00 | 00:00:00 | 00:00:00 | |
| DL1XH1-15 | 2026-09-01 01:15:25 | 51.30819 | 8.40658 | 100° | 106km/h | 12479m | -5m/s | -54.7°C | 6.2% | 185.8hPa | 2.6V | 07:54:33 | 02:57:46 | 00:00:00 | |
| HSKMA3-T | 2026-09-01 01:15:21 | 51.30814 | 8.40699 | 102° | 100km/h | 12475m | -4.8m/s | -54.7°C | 3.5% | 185.9hPa | 2.6V | 07:54:40 | 02:57:47 | 00:00:00 | |
| DL1NUX | 2026-09-01 01:15:20 | 51.30824 | 8.40616 | 100° | 108km/h | 12483m | -5.5m/s | -54.8°C | 6.2% | 185.7hPa | 2.5V | 07:54:34 | 02:57:45 | 00:00:00 | |
| DF8AY | 2026-09-01 01:15:20 | 51.30840 | 8.40448 | 95° | 106km/h | 12502m | -4.8m/s | -54.7°C | 2.9% | 185.1hPa | 2.6V | 07:55:31 | 02:57:41 | 00:00:00 | |
| DL1XH-west | 2026-09-01 01:15:20 | 51.30819 | 8.40658 | 100° | 106km/h | 12479m | -5.1m/s | -54.7°C | 3.4% | 185.8hPa | 2.6V | 07:54:40 | 02:57:46 | 00:00:00 | |
| DM0DOS-11 | 2026-09-01 01:15:19 | 51.30829 | 8.40574 | 99° | 106km/h | 12488m | -5.5m/s | -54.8°C | 6.2% | 185.5hPa | 2.5V | 07:54:35 | 02:57:44 | 00:00:00 | |
| AA1-15 | 2026-09-01 01:15:17 | 51.30833 | 8.40532 | 98° | 104km/h | 12493m | -5.5m/s | -54.8°C | 3% | 185.3hPa | 2.5V | 07:54:40 | 02:57:43 | 00:00:00 | |
| GOEST3-10 | 2026-09-01 01:15:17 | 51.30833 | 8.40532 | 99° | 106km/h | 12493m | -5.4m/s | -54.7°C | 6.1% | 185.3hPa | 2.6V | 00:00:00 | 00:00:00 | 00:00:00 | |
| DL1XH1-15 | 2026-09-01 01:15:16 | 51.30848 | 8.40232 | 91° | 108km/h | 12525m | -5.4m/s | -54.4°C | 5.4% | 184.4hPa | 2.6V | 07:54:43 | 02:57:36 | 00:00:00 | |
| BIOWL1-15 | 2026-09-01 01:15:10 | 51.30848 | 8.40232 | 92° | 108km/h | 12525m | -5.4m/s | -54.4°C | 2.2% | 184.4hPa | 2.6V | 07:55:31 | 02:57:36 | 00:00:00 | |
| DL1XH-west | 2026-09-01 01:15:09 | 51.30849 | 8.40188 | 90° | 108km/h | 12530m | -5.3m/s | -54.3°C | 2.1% | 184.3hPa | 2.6V | 07:55:31 | 02:57:35 | 00:00:00 | |
| DM0DOS-11 | 2026-09-01 01:15:09 | 51.30849 | 8.40145 | 88° | 108km/h | 12535m | -5.3m/s | -54.3°C | 5.2% | 184.2hPa | 2.6V | 07:54:45 | 02:57:34 | 00:00:00 | |
| AA1-15 | 2026-09-01 01:15:07 | 51.30847 | 8.40059 | 87° | 102km/h | 12544m | -5.6m/s | -54.1°C | 1.7% | 183.9hPa | 2.5V | 07:55:31 | 02:57:32 | 00:00:00 | |
| DD8BA-10 | 2026-09-01 01:15:06 | 51.30847 | 8.40059 | 88° | 99km/h | 12544m | -5.6m/s | -54.1°C | 5.0% | 183.8hPa | 2.5V | 07:54:00 | 00:00:00 | 00:00:00 | |
| DL1XH1-15 | 2026-09-01 01:15:05 | 51.30836 | 8.39813 | 84° | 97km/h | 12575m | -5.7m/s | -53.2°C | 4.4% | 183hPa | 2.5V | 07:54:53 | 02:57:26 | 00:00:00 | |
| DO9LL-15 | 2026-09-01 01:15:05 | 51.30846 | 8.40017 | 88° | 89km/h | 12550m | -5.7m/s | -53.9°C | 4.9% | 183.6hPa | 2.5V | 00:00:00 | 02:57:31 | 00:00:00 | |
| GOEST3-10 | 2026-09-01 01:15:02 | 51.30841 | 8.39891 | 84° | 89km/h | 12565m | -5.5m/s | -53.5°C | 4.5% | 183.3hPa | 2.5V | 00:00:00 | 02:57:28 | 00:00:00 | |
| DO3MHA-11 | 2026-09-01 01:15:01 | 51.30838 | 8.39851 | 85° | 89km/h | 12570m | -5.1m/s | -53.3°C | 4.5% | 183.1hPa | 2.5V | 00:00:00 | 02:57:27 | 00:00:00 | |
| DL1NUX | 2026-09-01 01:15:00 | 51.30834 | 8.39774 | 83° | 97km/h | 12580m | -5.2m/s | -53.1°C | 4.3% | 182.9hPa | 2.5V | 07:54:54 | 02:57:25 | 00:00:00 | |
| HSKMA3-T | 2026-09-01 01:14:59 | 51.30834 | 8.39774 | 84° | 97km/h | 12580m | -5.2m/s | -53.2°C | 1.1% | 182.9hPa | 2.5V | 07:55:31 | 02:57:25 | 00:00:00 | |
| BIOWL1-15 | 2026-09-01 01:14:59 | 51.30829 | 8.39699 | 83° | 91km/h | 12590m | -4.9m/s | -53°C | 1% | 182.6hPa | 2.6V | 07:55:31 | 02:57:23 | 00:00:00 | |
| DL1XH-west | 2026-09-01 01:14:58 | 51.30831 | 8.39736 | 83° | 93km/h | 12585m | -5.1m/s | -53.1°C | 1.1% | 182.8hPa | 2.6V | 07:55:31 | 02:57:24 | 00:00:00 | |
| DO2JMG | 2026-09-01 01:14:56 | 51.30827 | 8.39663 | 85° | 89km/h | 12594m | -4.9m/s | -52.9°C | 1% | 182.5hPa | 2.5V | 07:56:22 | 02:57:22 | 00:00:00 | |
| AA1-15 | 2026-09-01 01:14:55 | 51.30825 | 8.39628 | 87° | 88km/h | 12599m | -4.9m/s | -52.8°C | 1% | 182.4hPa | 2.5V | 07:55:31 | 02:57:21 | 00:00:00 | |
| DF8AY | 2026-09-01 01:14:53 | 51.30824 | 8.39561 | 88° | 82km/h | 12607m | -5.3m/s | -52.6°C | 0.9% | 182.2hPa | 2.6V | 07:55:31 | 02:57:19 | 00:00:00 | |
| DL3AQ-11 | 2026-09-01 01:14:53 | 51.30824 | 8.39527 | 89° | 82km/h | 12612m | -5.4m/s | -52.6°C | 1.7% | 182.0hPa | 2.5V | 00:00:00 | 00:00:00 | 00:00:00 | |
| DK9SH | 2026-09-01 01:14:52 | 51.30824 | 8.39561 | 89° | 82km/h | 12607m | -5.3m/s | -52.6°C | 1.7% | 182.2hPa | 2.5V | 07:55:00 | 00:00:00 | 00:00:00 | |
| DO3MHA-11 | 2026-09-01 01:14:51 | 51.30824 | 8.39494 | 93° | 80km/h | 12617m | -5.3m/s | -52.5°C | 4.1% | 181.8hPa | 2.5V | 00:00:00 | 02:57:17 | 00:00:00 | |
| DL1NUX | 2026-09-01 01:14:50 | 51.30826 | 8.39431 | 91° | 78km/h | 12627m | -5.1m/s | -52.4°C | 4.1% | 181.6hPa | 2.5V | 07:55:04 | 02:57:15 | 00:00:00 | |
| DL1XH-west | 2026-09-01 01:14:48 | 51.30827 | 8.39399 | 92° | 82km/h | 12632m | -5.1m/s | -52.3°C | 0.7% | 181.5hPa | 2.6V | 07:55:31 | 02:57:14 | 00:00:00 | |
| DO2JMG | 2026-09-01 01:14:46 | 51.30829 | 8.39334 | 93° | 80km/h | 12641m | -5.3m/s | -52.3°C | 0.8% | 181.2hPa | 2.5V | 07:56:22 | 02:57:12 | 00:00:00 | |
| AA1-15 | 2026-09-01 01:14:45 | 51.30830 | 8.39302 | 92° | 82km/h | 12646m | -5.1m/s | -52.3°C | 0.8% | 181.1hPa | 2.5V | 07:55:31 | 02:57:11 | 00:00:00 | |
| WPPR-10 | 2026-09-01 01:14:45 | 51.30831 | 8.39269 | 91° | 78km/h | 12651m | -4.8m/s | -52.3°C | 1.6% | 181.0hPa | 2.6V | 00:00:00 | 00:00:00 | 00:00:00 | |
| DF8AY | 2026-09-01 01:14:42 | 51.30833 | 8.39207 | 93° | 77km/h | 12660m | -5.3m/s | -52.2°C | 0.8% | 180.7hPa | 2.6V | 07:55:31 | 02:57:08 | 00:00:00 | |
| DL3AQ-11 | 2026-09-01 01:14:42 | 51.30834 | 8.39176 | 95° | 77km/h | 12665m | -5.4m/s | -52.2°C | 1.6% | 180.6hPa | 2.5V | 00:00:00 | 00:00:00 | 00:00:00 | |
| BUE01 | 2026-09-01 01:14:41 | 51.30834 | 8.39176 | 95° | 77km/h | 12665m | -5.4m/s | -52.2°C | 1.6% | 180.6hPa | 2.5V | 00:00:00 | 00:00:00 | 00:00:00 | |
| DL1NUX | 2026-09-01 01:14:40 | 51.30838 | 8.39112 | 94° | 77km/h | 12674m | -4.7m/s | -52.2°C | 4% | 180.3hPa | 2.5V | 07:55:14 | 02:57:05 | 00:00:00 | |
| DL1XH-west | 2026-09-01 01:14:38 | 51.30840 | 8.39081 | 97° | 77km/h | 12678m | -5.1m/s | -52.2°C | 0.8% | 180.2hPa | 2.6V | 07:55:31 | 02:57:04 | 00:00:00 | |
| DJ2DS-15 | 2026-09-01 01:14:38 | 51.30840 | 8.39081 | 97° | 84km/h | 12678m | -5.0m/s | -52.1°C | 4.0% | 180.1hPa | 2.5V | 00:00:00 | 02:57:04 | 00:00:00 | |
| DB0NH | 2026-09-01 01:14:37 | 51.30842 | 8.39050 | 97° | 82km/h | 12683m | -5.0m/s | -52.1°C | 4.0% | 180.0hPa | 2.5V | 00:00:00 | 02:57:03 | 00:00:00 | |
| DD8BA-10 | 2026-09-01 01:14:36 | 51.30845 | 8.39019 | 97° | 77km/h | 12687m | -5.3m/s | -52.0°C | 4.0% | 179.8hPa | 2.5V | 00:00:00 | 00:00:00 | 00:00:00 | |
| DL1XH1-15 | 2026-09-01 01:14:35 | 51.30865 | 8.38840 | 102° | 77km/h | 12716m | -5m/s | -52.1°C | 3.9% | 179.1hPa | 2.5V | 07:55:23 | 02:56:56 | 00:00:00 | |
| DO2JMG | 2026-09-01 01:14:35 | 51.30847 | 8.38989 | 99° | 77km/h | 12692m | -5.6m/s | -52.1°C | 0.8% | 179.8hPa | 2.5V | 07:56:22 | 02:57:01 | 00:00:00 | |
| BIOWL1-15 | 2026-09-01 01:14:34 | 51.30850 | 8.38959 | 97° | 77km/h | 12697m | -5.2m/s | -52.1°C | 0.7% | 179.6hPa | 2.5V | 07:55:31 | 02:57:00 | 00:00:00 | |
| DF8AY | 2026-09-01 01:14:32 | 51.30857 | 8.38899 | 100° | 77km/h | 12707m | -5m/s | -52.1°C | 0.7% | 179.3hPa | 2.6V | 07:55:31 | 02:56:58 | 00:00:00 | |
| HSKMA3-T | 2026-09-01 01:14:28 | 51.30876 | 8.38781 | 107° | 80km/h | 12726m | -5.1m/s | -52°C | 0.7% | 178.8hPa | 2.6V | 07:55:31 | 02:56:54 | 00:00:00 | |
| DL1XH-west | 2026-09-01 01:14:27 | 51.30883 | 8.38750 | 110° | 82km/h | 12731m | -5.4m/s | -52°C | 0.6% | 178.7hPa | 2.6V | 07:55:31 | 02:56:53 | 00:00:00 | |
| DB0UT-7 | 2026-09-01 01:14:27 | 51.30883 | 8.38750 | 111° | 84km/h | 12731m | -5.3m/s | -51.9°C | 3.8% | 178.7hPa | 2.5V | 00:00:00 | 02:56:53 | 00:00:00 | |
| DD8BA-10 | 2026-09-01 01:14:26 | 51.30890 | 8.38718 | 109° | 93km/h | 12735m | -5.3m/s | -51.9°C | 3.8% | 178.5hPa | 2.5V | 00:00:00 | 00:00:00 | 00:00:00 | |
| DL1XH1-15 | 2026-09-01 01:14:25 | 51.30928 | 8.38498 | 98° | 99km/h | 12765m | -4.8m/s | -51.9°C | 3.9% | 177.7hPa | 2.5V | 07:55:33 | 02:56:46 | 00:00:00 | |
| DO2JMG | 2026-09-01 01:14:24 | 51.30905 | 8.38651 | 108° | 91km/h | 12745m | -5.8m/s | -52°C | 0.7% | 178.2hPa | 2.5V | 07:56:22 | 02:56:50 | 00:00:00 | |
| DF8AY | 2026-09-01 01:14:22 | 51.30918 | 8.38576 | 104° | 97km/h | 12755m | -5.2m/s | -51.9°C | 0.7% | 178hPa | 2.6V | 07:55:31 | 02:56:48 | 00:00:00 | |
| DL1XH-15 | 2026-09-01 01:14:21 | 51.30931 | 8.38459 | 95° | 95km/h | 12769m | -4.7m/s | -51.9°C | 3.9% | 177.6hPa | 2.5V | 07:55:34 | 02:56:45 | 00:00:00 | |
| HSKMA3-T | 2026-09-01 01:14:17 | 51.30935 | 8.38385 | 92° | 91km/h | 12778m | -5m/s | -52°C | 0.8% | 177.4hPa | 2.6V | 07:56:22 | 02:56:43 | 00:00:00 | |
| DL1XH-west | 2026-09-01 01:14:16 | 51.30936 | 8.38349 | 92° | 84km/h | 12783m | -5.1m/s | -52°C | 0.8% | 177.3hPa | 2.5V | 07:56:22 | 02:56:42 | 00:00:00 | |
| DO3MHA-12 | 2026-09-01 01:14:16 | 51.30936 | 8.38349 | 93° | 77km/h | 12783m | -5.1m/s | -51.9°C | 3.9% | 177.2hPa | 2.5V | 00:00:00 | 02:56:42 | 00:00:00 | |
| AM1SDL-15 | 2026-09-01 01:14:15 | 51.30936 | 8.38315 | 92° | 75km/h | 12788m | -5.1m/s | -51.9°C | 3.9% | 177.1hPa | 2.5V | 00:00:00 | 02:56:41 | 00:00:00 | |
| DL1XH1-15 | 2026-09-01 01:14:15 | 51.30943 | 8.38159 | 97° | 73km/h | 12812m | -5.2m/s | -52°C | 3.9% | 176.5hPa | 2.5V | 07:55:43 | 02:56:36 | 00:00:00 | |
| DL1NUX | 2026-09-01 01:14:14 | 51.30946 | 8.38131 | 101° | 71km/h | 12816m | -4.9m/s | -52°C | 3.9% | 176.3hPa | 2.5V | 07:55:44 | 02:56:35 | 00:00:00 | |
| AA1-15 | 2026-09-01 01:14:13 | 51.30938 | 8.38249 | 93° | 77km/h | 12797m | -4.9m/s | -52°C | 0.7% | 176.9hPa | 2.6V | 07:56:22 | 02:56:39 | 00:00:00 | |
| BIOWL1-15 | 2026-09-01 01:14:12 | 51.30939 | 8.38219 | 93° | 75km/h | 12802m | -4.9m/s | -52°C | 0.7% | 176.7hPa | 2.6V | 07:56:22 | 02:56:38 | 00:00:00 | |
| DF8AY | 2026-09-01 01:14:11 | 51.30941 | 8.38189 | 94° | 75km/h | 12807m | -5.2m/s | -52°C | 0.8% | 176.6hPa | 2.5V | 07:56:22 | 02:56:37 | 00:00:00 | |
| HSKMA3-T | 2026-09-01 01:14:07 | 51.30955 | 8.38076 | 107° | 69km/h | 12825m | -4.8m/s | -52.1°C | 0.8% | 176.1hPa | 2.6V | 07:56:22 | 02:56:33 | 00:00:00 | |
| DL1XH-west | 2026-09-01 01:14:06 | 51.30961 | 8.38049 | 109° | 71km/h | 12830m | -4.9m/s | -52.1°C | 0.8% | 176hPa | 2.5V | 07:56:22 | 02:56:32 | 00:00:00 | |
| DL1ZP-14 | 2026-09-01 01:14:06 | 51.30967 | 8.38021 | 109° | 73km/h | 12834m | -4.9m/s | -52.1°C | 1.6% | 175.9hPa | 2.5V | 00:00:00 | 00:00:00 | 00:00:00 | |
| DL1XH1-15 | 2026-09-01 01:14:05 | 51.31007 | 8.37868 | 111° | 91km/h | 12857m | -5.5m/s | -52°C | 4% | 175.2hPa | 2.5V | 07:55:53 | 02:56:26 | 00:00:00 | |
| AA1-15 | 2026-09-01 01:14:02 | 51.30991 | 8.37931 | 114° | 82km/h | 12847m | -5.5m/s | -52°C | 0.8% | 175.5hPa | 2.6V | 07:56:22 | 02:56:28 | 00:00:00 | |
| DL1XH-15 | 2026-09-01 01:14:01 | 51.31016 | 8.37834 | 110° | 89km/h | 12862m | -5.4m/s | -52°C | 4% | 175.1hPa | 2.5V | 07:55:54 | 02:56:25 | 00:00:00 | |
| DM0DOS-11 | 2026-09-01 01:14:01 | 51.31023 | 8.37799 | 107° | 93km/h | 12867m | -5m/s | -52°C | 4% | 175hPa | 2.6V | 07:55:55 | 02:56:24 | 00:00:00 | |
| BIOWL1-15 | 2026-09-01 01:14:01 | 51.30999 | 8.37900 | 112° | 84km/h | 12853m | -5.6m/s | -52°C | 0.8% | 175.4hPa | 2.5V | 07:56:22 | 02:56:27 | 00:00:00 | |
| DF8AY | 2026-09-01 01:14:00 | 51.31007 | 8.37868 | 112° | 91km/h | 12857m | -5.5m/s | -52°C | 0.8% | 175.2hPa | 2.5V | 07:56:22 | 02:56:26 | 00:00:00 | |
| DL1XH-west | 2026-09-01 01:13:56 | 51.31038 | 8.37727 | 105° | 95km/h | 12877m | -4.7m/s | -52.1°C | 0.8% | 174.7hPa | 2.5V | 07:56:22 | 02:56:22 | 00:00:00 | |
| DD8BA-10 | 2026-09-01 01:13:56 | 51.31038 | 8.37727 | 105° | 95km/h | 12877m | -4.7m/s | -52.0°C | 4.0% | 174.7hPa | 2.5V | 00:00:00 | 00:00:00 | 00:00:00 | |
| DL1XH-15 | 2026-09-01 01:13:54 | 51.31070 | 8.37461 | 96° | 95km/h | 12909m | -4.8m/s | -52.1°C | 4% | 173.9hPa | 2.5V | 07:56:04 | 02:56:15 | 00:00:00 | |
| BIOWL1-15 | 2026-09-01 01:13:53 | 51.31063 | 8.37536 | 99° | 93km/h | 12899m | -5.4m/s | -52.1°C | 0.9% | 174.1hPa | 2.5V | 07:56:22 | 02:56:17 | 00:00:00 | |
| AA1-15 | 2026-09-01 01:13:52 | 51.31059 | 8.37574 | 101° | 97km/h | 12895m | -5.1m/s | -52.1°C | 0.9% | 174.3hPa | 2.6V | 07:56:22 | 02:56:18 | 00:00:00 | |
| DM0DOS-11 | 2026-09-01 01:13:51 | 51.31072 | 8.37423 | 95° | 95km/h | 12913m | -4.9m/s | -52°C | 4% | 173.8hPa | 2.6V | 07:56:05 | 02:56:14 | 00:00:00 | |
| DF8AY | 2026-09-01 01:13:50 | 51.31067 | 8.37498 | 97° | 93km/h | 12904m | -5m/s | -52.1°C | 0.9% | 174hPa | 2.5V | 07:56:22 | 02:56:16 | 00:00:00 | |
| DL1XH-west | 2026-09-01 01:13:46 | 51.31076 | 8.37348 | 93° | 89km/h | 12922m | -5.3m/s | -52°C | 0.9% | 173.5hPa | 2.5V | 07:56:22 | 02:56:12 | 00:00:00 | |
| HSKMA3-T | 2026-09-01 01:13:45 | 51.31077 | 8.37312 | 92° | 88km/h | 12927m | -5m/s | -52°C | 0.9% | 173.4hPa | 2.5V | 07:56:22 | 02:56:11 | 00:00:00 | |
| DL1CLM-18 | 2026-09-01 01:13:44 | 51.31077 | 8.37312 | 93° | 88km/h | 12927m | -5.0m/s | -52.0°C | 1.7% | 173.4hPa | 2.5V | 00:00:00 | 00:00:00 | 00:00:00 | |
| DL4XJ-10 | 2026-09-01 01:13:43 | 51.31079 | 8.37240 | 92° | 77km/h | 12937m | -5.1m/s | -52.0°C | 0% | 0hPa | 2.5V | 00:00:00 | 00:00:00 | 00:00:00 | |
| DL4BBY-15 | 2026-09-01 01:13:42 | 51.31079 | 8.37203 | 90° | 78km/h | 12941m | -4.6m/s | -52.0°C | 0% | 0hPa | 2.5V | 00:00:00 | 00:00:00 | 00:00:00 | |
| DL1XH-15 | 2026-09-01 01:13:41 | 51.31077 | 8.37097 | 87° | 88km/h | 12955m | -4.9m/s | -52°C | 4% | 172.6hPa | 2.5V | 07:56:14 | 02:56:05 | 00:00:00 | |
| DM0DOS-11 | 2026-09-01 01:13:41 | 51.31076 | 8.37063 | 87° | 82km/h | 12960m | -5.2m/s | -52.1°C | 4% | 172.4hPa | 2.6V | 07:56:15 | 02:56:04 | 00:00:00 | |
| DO2JMG | 2026-09-01 01:13:41 | 51.31078 | 8.37167 | 89° | 84km/h | 12945m | -5.2m/s | -52°C | 0.9% | 172.9hPa | 2.5V | 07:56:22 | 02:56:07 | 00:00:00 | |
| BIOWL1-15 | 2026-09-01 01:13:40 | 51.31078 | 8.37133 | 89° | 88km/h | 12950m | -5.3m/s | -52°C | 0.9% | 172.7hPa | 2.5V | 07:56:22 | 02:56:06 | 00:00:00 | |
| DL1XH-west | 2026-09-01 01:13:36 | 51.31074 | 8.36996 | 85° | 78km/h | 12969m | -5.2m/s | -52.1°C | 0.9% | 172.2hPa | 2.5V | 07:56:22 | 02:56:02 | 00:00:00 | |
| HSKMA3-T | 2026-09-01 01:13:34 | 51.31070 | 8.36932 | 84° | 75km/h | 12979m | -5.5m/s | -52.2°C | 0.9% | 172hPa | 2.5V | 07:56:22 | 02:56:00 | 00:00:00 | |
| DL1NUX | 2026-09-01 01:13:34 | 51.31065 | 8.36787 | 90° | 68km/h | 13004m | -5.3m/s | -52.3°C | 4.2% | 171.3hPa | 2.5V | 07:56:24 | 02:55:55 | 00:00:00 | |
| DL3AQ-11 | 2026-09-01 01:13:33 | 51.31067 | 8.36871 | 84° | 73km/h | 12989m | -5.4m/s | -52.2°C | 1.7% | 171.7hPa | 2.6V | 00:00:00 | 00:00:00 | 00:00:00 | |
| DL8DAS-14 | 2026-09-01 01:13:32 | 51.31067 | 8.36871 | 84° | 73km/h | 12989m | -5.4m/s | -52.2°C | 1.7% | 171.7hPa | 2.6V | 00:00:00 | 00:00:00 | 00:00:00 | |
| DM0DOS-11 | 2026-09-01 01:13:31 | 51.31065 | 8.36760 | 93° | 66km/h | 13009m | -5m/s | -52.3°C | 4.2% | 171.2hPa | 2.6V | 07:56:25 | 02:55:54 | 00:00:00 | |
| DO2JMG | 2026-09-01 01:13:31 | 51.31066 | 8.36843 | 86° | 68km/h | 12994m | -5.5m/s | -52.3°C | 1% | 171.6hPa | 2.5V | 07:56:22 | 02:55:57 | 00:00:00 | |
| AA1-15 | 2026-09-01 01:13:30 | 51.31065 | 8.36815 | 88° | 68km/h | 12999m | -5.2m/s | -52.3°C | 1% | 171.4hPa | 2.5V | 07:57:13 | 02:55:56 | 00:00:00 | |
| DF8AY | 2026-09-01 01:13:29 | 51.31065 | 8.36787 | 90° | 68km/h | 13004m | -5.3m/s | -52.3°C | 1.1% | 171.3hPa | 2.5V | 07:57:13 | 02:55:55 | 00:00:00 | |
| DL1XH-west | 2026-09-01 01:13:25 | 51.31071 | 8.36681 | 97° | 69km/h | 13023m | -5m/s | -52.3°C | 1.2% | 170.9hPa | 2.5V | 07:57:13 | 02:55:51 | 00:00:00 | |
| HSKMA3-T | 2026-09-01 01:13:24 | 51.31074 | 8.36653 | 101° | 73km/h | 13027m | -5.1m/s | -52.3°C | 1.1% | 170.7hPa | 2.5V | 07:57:13 | 02:55:50 | 00:00:00 | |
| DL4XJ-10 | 2026-09-01 01:13:23 | 51.31078 | 8.36624 | 104° | 89km/h | 13032m | -5.2m/s | -52.2°C | 0% | 0hPa | 2.6V | 00:00:00 | 00:00:00 | 00:00:00 | |
| DB0ND-19 | 2026-09-01 01:13:22 | 51.31092 | 8.36537 | 101° | 77km/h | 13046m | -4.9m/s | -52.1°C | 1.8% | 170.2hPa | 2.6V | 00:00:00 | 00:00:00 | 00:00:00 | |
| DM0DOS-11 | 2026-09-01 01:13:21 | 51.31100 | 8.36472 | 100° | 88km/h | 13055m | -5.1m/s | -52.1°C | 4.2% | 170hPa | 2.6V | 07:56:35 | 02:55:44 | 00:00:00 | |
| DO2JMG | 2026-09-01 01:13:20 | 51.31092 | 8.36537 | 102° | 78km/h | 13046m | -4.9m/s | -52.1°C | 1.2% | 170.2hPa | 2.5V | 07:57:13 | 02:55:46 | 00:00:00 | |
| DF8AY | 2026-09-01 01:13:19 | 51.31096 | 8.36505 | 101° | 84km/h | 13050m | -5.2m/s | -52.1°C | 1.2% | 170.1hPa | 2.5V | 07:57:13 | 02:55:45 | 00:00:00 | |
| DO3MHA-11 | 2026-09-01 01:13:19 | 51.31096 | 8.36505 | 102° | 91km/h | 13050m | -5.1m/s | -52.1°C | 4.2% | 170.1hPa | 2.5V | 00:00:00 | 02:55:45 | 00:00:00 | |
| DJ2DS-15 | 2026-09-01 01:13:18 | 51.31100 | 8.36471 | 101° | 93km/h | 13055m | -5.0m/s | -52.0°C | 4.2% | 169.9hPa | 2.5V | 00:00:00 | 02:55:44 | 00:00:00 | |
| EDDB2-11 | 2026-09-01 01:13:16 | 51.31111 | 8.36366 | 96° | 88km/h | 13070m | -5.2m/s | -52.1°C | 1.8% | 169.6hPa | 2.5V | 00:00:00 | 00:00:00 | 00:00:00 | |
| DL1XH1-15 | 2026-09-01 01:13:15 | 51.31118 | 8.36179 | 90° | 97km/h | 13092m | -5.8m/s | -52.2°C | 4.3% | 169hPa | 2.5V | 07:56:43 | 02:55:36 | 00:00:00 | |
| DL1XH-west | 2026-09-01 01:13:15 | 51.31111 | 8.36366 | 97° | 88km/h | 13070m | -5.2m/s | -52.1°C | 1.2% | 169.6hPa | 2.5V | 07:57:13 | 02:55:41 | 00:00:00 | |
| HSKMA3-T | 2026-09-01 01:13:14 | 51.31114 | 8.36330 | 95° | 89km/h | 13075m | -4.7m/s | -52.1°C | 1.2% | 169.4hPa | 2.5V | 07:57:13 | 02:55:40 | 00:00:00 | |
| DO2JMG | 2026-09-01 01:13:10 | 51.31118 | 8.36179 | 90° | 97km/h | 13092m | -5.9m/s | -52.2°C | 1.2% | 169hPa | 2.5V | 07:57:13 | 02:55:36 | 00:00:00 | |
| AA1-15 | 2026-09-01 01:13:09 | 51.31118 | 8.36140 | 90° | 97km/h | 13098m | -5.5m/s | -52.2°C | 1.2% | 168.8hPa | 2.5V | 07:57:13 | 02:55:35 | 00:00:00 | |
| BIOWL1-15 | 2026-09-01 01:13:08 | 51.31117 | 8.36023 | 88° | 97km/h | 13114m | -5.2m/s | -52.2°C | 1.3% | 168.5hPa | 2.5V | 07:57:13 | 02:55:32 | 00:00:00 | |
| DF8AY | 2026-09-01 01:13:08 | 51.31118 | 8.36101 | 90° | 97km/h | 13103m | -5.3m/s | -52.2°C | 1.3% | 168.8hPa | 2.6V | 07:57:13 | 02:55:34 | 00:00:00 | |
| DJ8HS-15 | 2026-09-01 01:13:07 | 51.31118 | 8.36062 | 89° | 88km/h | 13108m | -6.0m/s | -52.2°C | 4.3% | 168.6hPa | 2.6V | 07:56:00 | 02:55:33 | 00:00:00 | |
| DD8BA-10 | 2026-09-01 01:13:06 | 51.31117 | 8.36023 | 88° | 93km/h | 13114m | -5.2m/s | -52.2°C | 4.3% | 168.5hPa | 2.5V | 00:00:00 | 00:00:00 | 00:00:00 | |
| DL1XH1-15 | 2026-09-01 01:13:05 | 51.31110 | 8.35796 | 84° | 95km/h | 13145m | -5.2m/s | -52.4°C | 4.4% | 167.7hPa | 2.5V | 07:56:53 | 02:55:26 | 00:00:00 | |
| DL1XH-west | 2026-09-01 01:13:04 | 51.31115 | 8.35946 | 87° | 93km/h | 13124m | -5.3m/s | -52.3°C | 1.4% | 168.2hPa | 2.5V | 07:57:13 | 02:55:30 | 00:00:00 | |
| HSKMA3-T | 2026-09-01 01:13:03 | 51.31114 | 8.35909 | 87° | 91km/h | 13129m | -5.5m/s | -52.3°C | 1.4% | 168.1hPa | 2.6V | 07:57:13 | 02:55:29 | 00:00:00 | |
| DO2JMG | 2026-09-01 01:13:00 | 51.31109 | 8.35796 | 85° | 95km/h | 13145m | -5.2m/s | -52.4°C | 1.4% | 167.7hPa | 2.5V | 07:57:13 | 02:55:26 | 00:00:00 | |
| BIOWL1-15 | 2026-09-01 01:12:59 | 51.31102 | 8.35685 | 83° | 89km/h | 13160m | -5.5m/s | -52.3°C | 1.6% | 167.4hPa | 2.6V | 07:57:13 | 02:55:23 | 00:00:00 | |
| DF8AY | 2026-09-01 01:12:58 | 51.31104 | 8.35721 | 83° | 89km/h | 13155m | -4.9m/s | -52.4°C | 1.5% | 167.5hPa | 2.6V | 07:57:13 | 02:55:24 | 00:00:00 | |
| DL1XH-west | 2026-09-01 01:12:53 | 51.31088 | 8.35543 | 79° | 84km/h | 13182m | -5m/s | -52.3°C | 1.7% | 166.9hPa | 2.6V | 07:57:13 | 02:55:19 | 00:00:00 | |
| HSKMA3-T | 2026-09-01 01:12:52 | 51.31084 | 8.35511 | 78° | 80km/h | 13187m | -4.8m/s | -52.3°C | 1.7% | 166.7hPa | 2.6V | 07:57:13 | 02:55:18 | 00:00:00 | |
| DL1XH-15 | 2026-09-01 01:12:51 | 51.31072 | 8.35418 | 79° | 73km/h | 13202m | -4.7m/s | -52.1°C | 4.6% | 166.4hPa | 2.5V | 07:57:04 | 02:55:15 | 00:00:00 | |
| DO2JMG | 2026-09-01 01:12:49 | 51.31072 | 8.35418 | 80° | 73km/h | 13202m | -4.7m/s | -52.1°C | 1.7% | 166.4hPa | 2.5V | 07:57:13 | 02:55:15 | 00:00:00 | |
| DF8AY | 2026-09-01 01:12:48 | 51.31069 | 8.35389 | 81° | 71km/h | 13207m | -4.9m/s | -52.1°C | 1.6% | 166.2hPa | 2.6V | 07:57:13 | 02:55:14 | 00:00:00 | |
| BIOWL1-15 | 2026-09-01 01:12:48 | 51.31065 | 8.35333 | 86° | 68km/h | 13217m | -4.7m/s | -52°C | 1.6% | 166hPa | 2.5V | 07:57:13 | 02:55:12 | 00:00:00 | |
| AA1-15 | 2026-09-01 01:12:47 | 51.31066 | 8.35361 | 84° | 71km/h | 13212m | -5m/s | -52°C | 1.6% | 166.2hPa | 2.6V | 07:57:13 | 02:55:13 | 00:00:00 | |
| DL1XH-west | 2026-09-01 01:12:43 | 51.31065 | 8.35250 | 93° | 71km/h | 13232m | -4.5m/s | -52°C | 1.6% | 165.7hPa | 2.6V | 07:57:13 | 02:55:09 | 00:00:00 | |
| HSKMA3-T | 2026-09-01 01:12:42 | 51.31067 | 8.35221 | 95° | 71km/h | 13237m | -5.2m/s | -52°C | 1.5% | 165.6hPa | 2.6V | 07:57:13 | 02:55:08 | 00:00:00 | |
| DL3AQ-11 | 2026-09-01 01:12:42 | 51.31069 | 8.35192 | 97° | 73km/h | 13242m | -5.0m/s | -51.9°C | 2.0% | 165.4hPa | 2.5V | 00:00:00 | 00:00:00 | 00:00:00 | |
| DL1XH-15 | 2026-09-01 01:12:41 | 51.31075 | 8.35131 | 99° | 77km/h | 13252m | -5m/s | -51.9°C | 4.4% | 165.2hPa | 2.5V | 07:57:14 | 02:55:05 | 00:00:00 | |
| DL4XJ-10 | 2026-09-01 01:12:41 | 51.31069 | 8.35192 | 98° | 88km/h | 13242m | -4.9m/s | -51.9°C | 0% | 0hPa | 2.6V | 00:00:00 | 00:00:00 | 00:00:00 | |
| WPPR-10 | 2026-09-01 01:12:40 | 51.31072 | 8.35162 | 98° | 75km/h | 13247m | -4.7m/s | -51.9°C | 2.0% | 165.3hPa | 2.6V | 00:00:00 | 00:00:00 | 00:00:00 | |
| DM0DOS-11 | 2026-09-01 01:12:39 | 51.31078 | 8.35100 | 99° | 78km/h | 13258m | -5.3m/s | -51.9°C | 4.4% | 165hPa | 2.6V | 07:57:15 | 02:55:04 | 00:00:00 | |
| DO2JMG | 2026-09-01 01:12:39 | 51.31075 | 8.35131 | 99° | 77km/h | 13252m | -5.1m/s | -51.9°C | 1.4% | 165.2hPa | 2.5V | 08:02:19 | 02:55:05 | 00:00:00 | |
| DF8AY | 2026-09-01 01:12:38 | 51.31078 | 8.35100 | 100° | 78km/h | 13258m | -5.3m/s | -51.9°C | 1.5% | 165hPa | 2.6V | 07:58:04 | 02:55:04 | 00:00:00 | |
| AA1-15 | 2026-09-01 01:12:37 | 51.31081 | 8.35068 | 100° | 82km/h | 13263m | -5.2m/s | -51.9°C | 1.5% | 164.9hPa | 2.6V | 07:58:04 | 02:55:03 | 00:00:00 | |
| BIOWL1-15 | 2026-09-01 01:12:35 | 51.31092 | 8.34965 | 98° | 91km/h | 13279m | -5.3m/s | -51.8°C | 1.5% | 164.5hPa | 2.5V | 07:58:04 | 02:55:00 | 00:00:00 | |
| DL1XH-west | 2026-09-01 01:12:32 | 51.31097 | 8.34891 | 95° | 93km/h | 13289m | -4.6m/s | -51.7°C | 1.4% | 164.3hPa | 2.6V | 07:58:04 | 02:54:58 | 00:00:00 | |
| DL1XH-15 | 2026-09-01 01:12:31 | 51.31097 | 8.34777 | 86° | 93km/h | 13303m | -4.5m/s | -51.7°C | 4.4% | 164hPa | 2.5V | 07:57:24 | 02:54:55 | 00:00:00 | |
| DF7PN | 2026-09-01 01:12:31 | 51.31098 | 8.34814 | 89° | 93km/h | 13298m | -4.6m/s | -51.7°C | 1.9% | 164.1hPa | 2.6V | 00:00:00 | 00:00:00 | 00:00:00 | |
| DL8DAS-14 | 2026-09-01 01:12:30 | 51.31098 | 8.34814 | 89° | 93km/h | 13298m | -4.6m/s | -51.7°C | 1.9% | 164.1hPa | 2.6V | 00:00:00 | 00:00:00 | 00:00:00 | |
| DM0DOS-11 | 2026-09-01 01:12:29 | 51.31096 | 8.34740 | 84° | 91km/h | 13308m | -4.7m/s | -51.7°C | 4.3% | 163.8hPa | 2.6V | 07:57:25 | 02:54:54 | 00:00:00 | |
| DO2JMG | 2026-09-01 01:12:28 | 51.31096 | 8.34740 | 85° | 91km/h | 13308m | -4.7m/s | -51.7°C | 1.3% | 163.8hPa | 2.6V | 08:02:19 | 02:54:54 | 00:00:00 | |
| DF8AY | 2026-09-01 01:12:27 | 51.31093 | 8.34703 | 82° | 91km/h | 13313m | -4.5m/s | -51.6°C | 1.3% | 163.7hPa | 2.6V | 07:58:04 | 02:54:53 | 00:00:00 | |
| AA1-15 | 2026-09-01 01:12:26 | 51.31090 | 8.34667 | 80° | 89km/h | 13318m | -5m/s | -51.6°C | 1.3% | 163.6hPa | 2.5V | 07:58:04 | 02:54:52 | 00:00:00 | |
| BIOWL1-15 | 2026-09-01 01:12:24 | 51.31081 | 8.34598 | 78° | 86km/h | 13328m | -5m/s | -51.5°C | 1.2% | 163.3hPa | 2.5V | 07:58:04 | 02:54:50 | 00:00:00 | |
| DL1XH-west | 2026-09-01 01:12:21 | 51.31068 | 8.34502 | 78° | 77km/h | 13344m | -5m/s | -51.6°C | 1.2% | 162.9hPa | 2.5V | 07:58:04 | 02:54:47 | 00:00:00 | |
| DL4XJ-10 | 2026-09-01 01:12:21 | 51.31068 | 8.34502 | 78° | 75km/h | 13345m | -4.9m/s | -51.6°C | 0% | 0hPa | 2.5V | 00:00:00 | 00:00:00 | 00:00:00 | |
| DL1XH-15 | 2026-09-01 01:12:20 | 51.31060 | 8.34444 | 78° | 73km/h | 13354m | -4.5m/s | -51.6°C | 4.1% | 162.7hPa | 2.5V | 07:57:34 | 02:54:45 | 00:00:00 | |
| DM0DOS-11 | 2026-09-01 01:12:19 | 51.31056 | 8.34416 | 80° | 68km/h | 13359m | -5m/s | -51.6°C | 4.1% | 162.6hPa | 2.6V | 07:57:35 | 02:54:44 | 00:00:00 | |
| DO2JMG | 2026-09-01 01:12:17 | 51.31053 | 8.34390 | 82° | 64km/h | 13364m | -4.4m/s | -51.5°C | 1.1% | 162.4hPa | 2.6V | 08:02:19 | 02:54:43 | 00:00:00 | |
| AA1-15 | 2026-09-01 01:12:15 | 51.31050 | 8.34340 | 88° | 62km/h | 13374m | -5.2m/s | -51.4°C | 1% | 162.2hPa | 2.5V | 07:58:04 | 02:54:41 | 00:00:00 | |
| BIOWL1-15 | 2026-09-01 01:12:14 | 51.31049 | 8.34314 | 90° | 64km/h | 13379m | -4.5m/s | -51.4°C | 1% | 162.1hPa | 2.5V | 07:58:04 | 02:54:40 | 00:00:00 | |
| HSKMA3-T | 2026-09-01 01:12:11 | 51.31053 | 8.34233 | 97° | 73km/h | 13393m | -4.6m/s | -51.4°C | 1% | 161.7hPa | 2.5V | 07:58:04 | 02:54:37 | 00:00:00 | |
| DL1XH-west | 2026-09-01 01:12:10 | 51.31055 | 8.34204 | 97° | 73km/h | 13398m | -4.3m/s | -51.3°C | 1% | 161.6hPa | 2.5V | 07:58:04 | 02:54:36 | 00:00:00 | |
| DM0DOS-11 | 2026-09-01 01:12:09 | 51.31060 | 8.34144 | 99° | 78km/h | 13407m | -4.8m/s | -51.3°C | 4% | 161.3hPa | 2.6V | 07:57:45 | 02:54:34 | 00:00:00 | |
| DO2JMG | 2026-09-01 01:12:07 | 51.31064 | 8.34112 | 99° | 80km/h | 13412m | -5m/s | -51.4°C | 1% | 161.2hPa | 2.6V | 08:02:19 | 02:54:33 | 00:00:00 | |
| DJ8HS-15 | 2026-09-01 01:12:07 | 51.31064 | 8.34112 | 100° | 91km/h | 13412m | -4.9m/s | -51.3°C | 4.0% | 161.2hPa | 2.6V | 00:00:00 | 02:54:33 | 00:00:00 | |
| DB0NH | 2026-09-01 01:12:06 | 51.31067 | 8.34080 | 97° | 84km/h | 13418m | -4.4m/s | -51.3°C | 4.0% | 161.1hPa | 2.5V | 00:00:00 | 02:54:32 | 00:00:00 | |
| DL1XH1-15 | 2026-09-01 01:12:05 | 51.31077 | 8.33862 | 89° | 97km/h | 13448m | -4.5m/s | -51.6°C | 4.1% | 160.3hPa | 2.5V | 07:57:53 | 02:54:26 | 00:00:00 | |
| BIOWL1-15 | 2026-09-01 01:12:04 | 51.31071 | 8.34011 | 97° | 86km/h | 13428m | -4.8m/s | -51.5°C | 0.9% | 160.8hPa | 2.5V | 07:58:04 | 02:54:30 | 00:00:00 | |
| DL1XH-west | 2026-09-01 01:12:00 | 51.31077 | 8.33862 | 90° | 97km/h | 13448m | -4.5m/s | -51.6°C | 1% | 160.3hPa | 2.5V | 07:58:04 | 02:54:26 | 00:00:00 | |
| DF7PN | 2026-09-01 01:12:00 | 51.31076 | 8.33823 | 88° | 93km/h | 13453m | -5.2m/s | -51.6°C | 1.6% | 160.2hPa | 2.6V | 00:00:00 | 00:00:00 | 00:00:00 | |
| DM0DOS-11 | 2026-09-01 01:11:59 | 51.31075 | 8.33784 | 86° | 100km/h | 13458m | -4.7m/s | -51.6°C | 4% | 160hPa | 2.6V | 07:57:55 | 02:54:24 | 00:00:00 | |
| DF8AY | 2026-09-01 01:11:57 | 51.31073 | 8.33745 | 85° | 97km/h | 13464m | -4.7m/s | -51.6°C | 0.9% | 160hPa | 2.6V | 07:58:04 | 02:54:23 | 00:00:00 | |
| DO9LL-15 | 2026-09-01 01:11:57 | 51.31073 | 8.33745 | 86° | 86km/h | 13464m | -4.7m/s | -51.6°C | 4.0% | 159.9hPa | 2.5V | 00:00:00 | 02:54:23 | 00:00:00 | |
| DO3MHA-12 | 2026-09-01 01:11:56 | 51.31070 | 8.33706 | 82° | 89km/h | 13469m | -4.9m/s | -51.6°C | 4.0% | 159.8hPa | 2.5V | 07:57:00 | 02:54:22 | 00:00:00 | |
| DL1XH1-15 | 2026-09-01 01:11:55 | 51.31039 | 8.33482 | 74° | 84km/h | 13500m | -4.6m/s | -51.5°C | 4% | 159.1hPa | 2.5V | 07:58:03 | 02:54:16 | 00:00:00 | |
| BIOWL1-15 | 2026-09-01 01:11:55 | 51.31057 | 8.33589 | 78° | 97km/h | 13485m | -5m/s | -51.6°C | 0.9% | 159.5hPa | 2.6V | 07:58:04 | 02:54:19 | 00:00:00 | |
| AA1-15 | 2026-09-01 01:11:54 | 51.31062 | 8.33627 | 79° | 99km/h | 13479m | -5.2m/s | -51.6°C | 0.8% | 159.6hPa | 2.5V | 07:58:04 | 02:54:20 | 00:00:00 | |
| DO3DL | 2026-09-01 01:11:53 | 51.31062 | 8.33627 | 80° | 99km/h | 13479m | -5.2m/s | -51.6°C | 1.6% | 159.6hPa | 2.5V | 07:58:00 | 00:00:00 | 00:00:00 | |
| DL1XH-15 | 2026-09-01 01:11:50 | 51.31033 | 8.33450 | 74° | 82km/h | 13505m | -5m/s | -51.4°C | 4% | 158.9hPa | 2.5V | 07:58:04 | 02:54:15 | 00:00:00 | |
| HSKMA3-T | 2026-09-01 01:11:50 | 51.31039 | 8.33482 | 74° | 84km/h | 13500m | -4.6m/s | -51.5°C | 0.9% | 159.1hPa | 2.5V | 07:58:04 | 02:54:16 | 00:00:00 | |
| DL1XH-west | 2026-09-01 01:11:49 | 51.31033 | 8.33450 | 75° | 82km/h | 13505m | -5m/s | -51.4°C | 0.9% | 158.9hPa | 2.5V | 07:58:04 | 02:54:15 | 00:00:00 | |
| BIOWL9-15 | 2026-09-01 01:11:48 | 51.31028 | 8.33418 | 74° | 77km/h | 13510m | -5.2m/s | -51.4°C | 1.6% | 158.8hPa | 2.5V | 00:00:00 | 00:00:00 | 00:00:00 | |
| DO1YAY-16 | 2026-09-01 01:11:47 | 51.31023 | 8.33389 | 75° | 73km/h | 13515m | -4.7m/s | -51.3°C | 1.6% | 158.7hPa | 2.5V | 00:00:00 | 00:00:00 | 00:00:00 | |
| DL3AQ-11 | 2026-09-01 01:11:46 | 51.31015 | 8.33331 | 81° | 69km/h | 13525m | -4.2m/s | -51.3°C | 1.5% | 158.5hPa | 2.5V | 00:00:00 | 00:00:00 | 00:00:00 | |
| DL1XH1-15 | 2026-09-01 01:11:45 | 51.31012 | 8.33192 | 95° | 71km/h | 13549m | -5.2m/s | -51.3°C | 3.9% | 157.8hPa | 2.5V | 07:58:13 | 02:54:06 | 00:00:00 | |
| DF8AY | 2026-09-01 01:11:45 | 51.31015 | 8.33331 | 81° | 71km/h | 13525m | -4.2m/s | -51.3°C | 0.8% | 158.5hPa | 2.5V | 07:58:55 | 02:54:11 | 00:00:00 | |
| AA1-15 | 2026-09-01 01:11:43 | 51.31011 | 8.33276 | 87° | 68km/h | 13534m | -5m/s | -51.3°C | 0.8% | 158.2hPa | 2.6V | 07:58:55 | 02:54:09 | 00:00:00 | |
| BIOWL1-15 | 2026-09-01 01:11:42 | 51.31012 | 8.33192 | 95° | 71km/h | 13549m | -5.2m/s | -51.3°C | 0.8% | 157.8hPa | 2.5V | 07:58:55 | 02:54:06 | 00:00:00 | |
| DL4BBY-15 | 2026-09-01 01:11:42 | 51.31010 | 8.33249 | 91° | 80km/h | 13539m | -4.7m/s | -51.4°C | 0% | 0hPa | 2.5V | 00:00:00 | 00:00:00 | 00:00:00 | |
| DO3DL | 2026-09-01 01:11:41 | 51.31010 | 8.33220 | 95° | 69km/h | 13544m | -5.0m/s | -51.3°C | 1.6% | 158.0hPa | 2.5V | 07:58:00 | 00:00:00 | 00:00:00 | |
| DL1XH-15 | 2026-09-01 01:11:40 | 51.31013 | 8.33163 | 97° | 75km/h | 13555m | -4.7m/s | -51.3°C | 3.9% | 157.7hPa | 2.5V | 07:58:14 | 02:54:05 | 00:00:00 | |
| DB0DAN | 2026-09-01 01:11:40 | 51.31012 | 8.33192 | 95° | 69km/h | 13549m | -5.2m/s | -51.3°C | 0% | 157.85hPa | 2.5V | 00:00:00 | 00:00:00 | 00:00:00 | |
| DM0DOS-11 | 2026-09-01 01:11:39 | 51.31016 | 8.33132 | 98° | 77km/h | 13560m | -5.5m/s | -51.4°C | 3.9% | 157.6hPa | 2.6V | 07:58:15 | 02:54:04 | 00:00:00 | |
| DL1XH-west | 2026-09-01 01:11:39 | 51.31013 | 8.33163 | 98° | 75km/h | 13555m | -4.7m/s | -51.3°C | 0.8% | 157.7hPa | 2.5V | 07:58:55 | 02:54:05 | 00:00:00 | |
| DO3MHA-11 | 2026-09-01 01:11:39 | 51.31013 | 8.33162 | 98° | 89km/h | 13555m | -4.7m/s | -51.3°C | 3.9% | 157.7hPa | 2.5V | 00:00:00 | 02:54:05 | 00:00:00 | |
| DJ2DS-15 | 2026-09-01 01:11:38 | 51.31016 | 8.33132 | 99° | 88km/h | 13560m | -5.5m/s | -51.3°C | 3.9% | 157.6hPa | 2.5V | 00:00:00 | 02:54:04 | 00:00:00 | |
| SONCRA | 2026-09-01 01:11:37 | 51.31019 | 8.33101 | 98° | 80km/h | 13566m | -5.5m/s | -51.4°C | 1.6% | 157.5hPa | 2.5V | 00:00:00 | 00:00:00 | 00:00:00 | |
| DO3MHA-12 | 2026-09-01 01:11:36 | 51.31022 | 8.33068 | 99° | 95km/h | 13572m | -5.1m/s | -51.4°C | 3.9% | 157.3hPa | 2.5V | 00:00:00 | 02:54:02 | 00:00:00 | |
| DL1XH1-15 | 2026-09-01 01:11:35 | 51.31033 | 8.32839 | 89° | 102km/h | 13603m | -5.2m/s | -51.3°C | 3.9% | 156.6hPa | 2.5V | 07:58:23 | 02:53:56 | 00:00:00 | |
| DF8AY | 2026-09-01 01:11:35 | 51.31025 | 8.33033 | 97° | 89km/h | 13577m | -4.8m/s | -51.4°C | 0.8% | 157.2hPa | 2.5V | 07:58:55 | 02:54:01 | 00:00:00 | |
| BIOWL1-15 | 2026-09-01 01:11:32 | 51.31032 | 8.32920 | 93° | 97km/h | 13592m | -5m/s | -51.4°C | 0.9% | 156.8hPa | 2.6V | 07:58:55 | 02:53:58 | 00:00:00 | |
| DL1XH-15 | 2026-09-01 01:11:31 | 51.31032 | 8.32798 | 87° | 100km/h | 13608m | -4.4m/s | -51.3°C | 3.9% | 156.4hPa | 2.5V | 07:58:24 | 02:53:55 | 00:00:00 | |
| HSKMA3-T | 2026-09-01 01:11:29 | 51.31032 | 8.32798 | 87° | 100km/h | 13608m | -4.4m/s | -51.3°C | 0.8% | 156.4hPa | 2.5V | 07:58:55 | 02:53:55 | 00:00:00 | |
| DM0DOS-11 | 2026-09-01 01:11:29 | 51.31030 | 8.32758 | 84° | 99km/h | 13613m | -4.9m/s | -51.4°C | 3.9% | 156.4hPa | 2.6V | 07:58:25 | 02:53:54 | 00:00:00 | |
| DL1XH-west | 2026-09-01 01:11:28 | 51.31030 | 8.32758 | 84° | 99km/h | 13613m | -4.9m/s | -51.4°C | 0.8% | 156.4hPa | 2.6V | 07:58:55 | 02:53:54 | 00:00:00 | |
| DO9LL-15 | 2026-09-01 01:11:27 | 51.31027 | 8.32719 | 83° | 82km/h | 13618m | -4.9m/s | -51.4°C | 3.9% | 156.2hPa | 2.6V | 00:00:00 | 02:53:53 | 00:00:00 | |
| DO3MHA-12 | 2026-09-01 01:11:26 | 51.31023 | 8.32682 | 80° | 75km/h | 13623m | -4.6m/s | -51.4°C | 3.9% | 156.1hPa | 2.5V | 00:00:00 | 02:53:52 | 00:00:00 | |
| DL1XH1-15 | 2026-09-01 01:11:25 | 51.31001 | 8.32493 | 80° | 68km/h | 13652m | -5.1m/s | -51.5°C | 3.9% | 155.4hPa | 2.5V | 07:58:33 | 02:53:46 | 00:00:00 | |
| DO2JMG | 2026-09-01 01:11:25 | 51.31019 | 8.32647 | 80° | 86km/h | 13628m | -4.9m/s | -51.5°C | 0.8% | 156hPa | 2.5V | 08:02:19 | 02:53:51 | 00:00:00 | |
| BIOWL1-15 | 2026-09-01 01:11:21 | 51.31001 | 8.32493 | 81° | 68km/h | 13652m | -5.1m/s | -51.5°C | 0.8% | 155.4hPa | 2.5V | 07:58:55 | 02:53:46 | 00:00:00 | |
| DL1XH-15 | 2026-09-01 01:11:21 | 51.30998 | 8.32466 | 81° | 69km/h | 13657m | -5.2m/s | -51.5°C | 3.9% | 155.3hPa | 2.5V | 07:58:34 | 02:53:45 | 00:00:00 | |
| AA1-15 | 2026-09-01 01:11:21 | 51.31004 | 8.32521 | 80° | 75km/h | 13647m | -4.9m/s | -51.5°C | 0.8% | 155.5hPa | 2.5V | 07:58:55 | 02:53:47 | 00:00:00 | |
| DL4XJ-10 | 2026-09-01 01:11:21 | 51.31004 | 8.32521 | 80° | 80km/h | 13647m | -4.8m/s | -51.5°C | 0% | 0hPa | 2.6V | 00:00:00 | 00:00:00 | 00:00:00 | |
| DM0DOS-11 | 2026-09-01 01:11:19 | 51.30996 | 8.32440 | 85° | 64km/h | 13663m | -4.9m/s | -51.5°C | 3.9% | 155.1hPa | 2.6V | 07:58:35 | 02:53:44 | 00:00:00 | |
| HSKMA3-T | 2026-09-01 01:11:19 | 51.30998 | 8.32466 | 81° | 69km/h | 13657m | -5.2m/s | -51.5°C | 0.8% | 155.3hPa | 2.5V | 07:58:55 | 02:53:45 | 00:00:00 | |
| DL1XH-west | 2026-09-01 01:11:17 | 51.30995 | 8.32414 | 86° | 62km/h | 13668m | -5m/s | -51.5°C | 0.8% | 155hPa | 2.6V | 07:58:55 | 02:53:43 | 00:00:00 | |
| DO3MHA-12 | 2026-09-01 01:11:16 | 51.30994 | 8.32388 | 91° | 77km/h | 13673m | -5.5m/s | -51.4°C | 3.9% | 154.8hPa | 2.5V | 00:00:00 | 02:53:42 | 00:00:00 | |
| DL1XH1-15 | 2026-09-01 01:11:15 | 51.31013 | 8.32223 | 101° | 84km/h | 13706m | -5m/s | -51.5°C | 3.9% | 154.1hPa | 2.5V | 07:58:43 | 02:53:36 | 00:00:00 | |
| DF8AY | 2026-09-01 01:11:15 | 51.30995 | 8.32363 | 97° | 64km/h | 13679m | -5.4m/s | -51.5°C | 0.8% | 154.7hPa | 2.5V | 07:58:55 | 02:53:41 | 00:00:00 | |
| BIOWL1-15 | 2026-09-01 01:11:11 | 51.31018 | 8.32189 | 101° | 86km/h | 13711m | -4.6m/s | -51.6°C | 0.8% | 154hPa | 2.5V | 07:58:55 | 02:53:35 | 00:00:00 | |
| DL1XH-15 | 2026-09-01 01:11:11 | 51.31018 | 8.32189 | 100° | 86km/h | 13711m | -4.6m/s | -51.6°C | 3.9% | 154hPa | 2.5V | 07:58:44 | 02:53:35 | 00:00:00 | |
| DM0DOS-11 | 2026-09-01 01:11:11 | 51.31022 | 8.32155 | 100° | 89km/h | 13716m | -4.5m/s | -51.5°C | 3.9% | 153.9hPa | 2.6V | 07:58:45 | 02:53:34 | 00:00:00 | |
| DB0DAN | 2026-09-01 01:11:10 | 51.31014 | 8.32223 | 102° | 80km/h | 13706m | -5m/s | -51.6°C | 0% | 154.12hPa | 2.5V | 00:00:00 | 00:00:00 | 00:00:00 | |
| HSKMA3-T | 2026-09-01 01:11:08 | 51.31022 | 8.32155 | 101° | 89km/h | 13716m | -4.5m/s | -51.5°C | 0.7% | 153.9hPa | 2.6V | 07:58:55 | 02:53:34 | 00:00:00 | |
| DO2JMG | 2026-09-01 01:11:07 | 51.31026 | 8.32119 | 98° | 93km/h | 13721m | -5.2m/s | -51.5°C | 0.7% | 153.8hPa | 2.6V | 08:02:19 | 02:53:33 | 00:00:00 | |
| DL1XH-west | 2026-09-01 01:11:06 | 51.31029 | 8.32081 | 97° | 95km/h | 13727m | -4.5m/s | -51.5°C | 0.7% | 153.6hPa | 2.5V | 07:58:55 | 02:53:32 | 00:00:00 | |
| DB0NH | 2026-09-01 01:11:06 | 51.31029 | 8.32081 | 97° | 77km/h | 13727m | -4.5m/s | -51.5°C | 3.8% | 153.6hPa | 2.5V | 07:58:00 | 02:53:32 | 00:00:00 | |
| DD8BA-10 | 2026-09-01 01:11:05 | 51.31031 | 8.32043 | 95° | 93km/h | 13732m | -4.9m/s | -51.5°C | 3.9% | 153.4hPa | 2.5V | 07:58:00 | 00:00:00 | 00:00:00 | |
| BUE01 | 2026-09-01 01:11:04 | 51.31033 | 8.32004 | 92° | 97km/h | 13737m | -4.8m/s | -51.6°C | 1.5% | 153.4hPa | 2.5V | 00:00:00 | 00:00:00 | 00:00:00 | |
| DL8OAI-8 | 2026-09-01 01:11:03 | 51.31032 | 8.32004 | 93° | 99km/h | 13737m | -4.8m/s | -51.6°C | 1.5% | 153.4hPa | 2.5V | 07:58:00 | 00:00:00 | 00:00:00 | |
| DL1CLM-18 | 2026-09-01 01:11:02 | 51.31033 | 8.31965 | 91° | 99km/h | 13742m | -4.9m/s | -51.6°C | 1.5% | 153.3hPa | 2.5V | 00:00:00 | 00:00:00 | 00:00:00 | |
| DL1XH-15 | 2026-09-01 01:11:01 | 51.31028 | 8.31812 | 84° | 91km/h | 13764m | -5.2m/s | -51.7°C | 3.9% | 152.8hPa | 2.5V | 07:58:54 | 02:53:25 | 00:00:00 | |
| DF8AY | 2026-09-01 01:11:01 | 51.31030 | 8.31849 | 86° | 95km/h | 13758m | -5.4m/s | -51.7°C | 0.8% | 152.9hPa | 2.5V | 07:58:55 | 02:53:26 | 00:00:00 | |
| BIOWL1-15 | 2026-09-01 01:10:59 | 51.31028 | 8.31812 | 84° | 91km/h | 13764m | -5.2m/s | -51.7°C | 0.7% | 152.8hPa | 2.5V | 07:58:55 | 02:53:25 | 00:00:00 | |
| DM0DOS-11 | 2026-09-01 01:10:59 | 51.31026 | 8.31776 | 82° | 89km/h | 13769m | -4.6m/s | -51.7°C | 3.9% | 152.7hPa | 2.6V | 07:58:55 | 02:53:24 | 00:00:00 | |
| HSKMA3-T | 2026-09-01 01:10:57 | 51.31023 | 8.31741 | 83° | 84km/h | 13774m | -4.3m/s | -51.7°C | 0.8% | 152.5hPa | 2.6V | 07:59:46 | 02:53:23 | 00:00:00 | |
| DL1XH-west | 2026-09-01 01:10:56 | 51.31020 | 8.31709 | 81° | 78km/h | 13778m | -4.4m/s | -51.7°C | 0.8% | 152.4hPa | 2.5V | 07:59:46 | 02:53:22 | 00:00:00 | |
| AA1-15 | 2026-09-01 01:10:55 | 51.31017 | 8.31679 | 80° | 77km/h | 13783m | -4.7m/s | -51.7°C | 0.8% | 152.3hPa | 2.5V | 07:59:46 | 02:53:21 | 00:00:00 | |
| DL3AQ-11 | 2026-09-01 01:10:53 | 51.31008 | 8.31592 | 82° | 68km/h | 13798m | -4.4m/s | -51.8°C | 1.5% | 151.9hPa | 2.5V | 00:00:00 | 00:00:00 | 00:00:00 | |
| DL1XH-15 | 2026-09-01 01:10:51 | 51.31001 | 8.31514 | 86° | 60km/h | 13814m | -5m/s | -51.7°C | 3.9% | 151.6hPa | 2.5V | 07:59:04 | 02:53:15 | 00:00:00 | |
| DM0DOS-11 | 2026-09-01 01:10:49 | 51.31001 | 8.31489 | 89° | 62km/h | 13818m | -5.2m/s | 0°C | 0% | 0hPa | 2.6V | 07:59:05 | 02:53:14 | 00:00:00 | |
| DF8AY | 2026-09-01 01:10:49 | 51.31001 | 8.31514 | 87° | 60km/h | 13814m | -5m/s | -51.7°C | 0.7% | 151.6hPa | 2.5V | 08:00:37 | 02:53:15 | 00:00:00 | |
| BIOWL1-15 | 2026-09-01 01:10:48 | 51.31001 | 8.31489 | 90° | 62km/h | 13818m | -5.2m/s | -51.7°C | 0.7% | 151.5hPa | 2.6V | 07:59:46 | 02:53:14 | 00:00:00 | |
| DL1XH-west | 2026-09-01 01:10:46 | 51.31001 | 8.31439 | 93° | 62km/h | 13830m | -5.3m/s | -51.7°C | 0.7% | 151.2hPa | 2.5V | 07:59:46 | 02:53:12 | 00:00:00 | |
| AA1-15 | 2026-09-01 01:10:45 | 51.31004 | 8.31390 | 100° | 60km/h | 13840m | -5.2m/s | -51.8°C | 0.8% | 150.9hPa | 2.5V | 07:59:46 | 02:53:10 | 00:00:00 | |
| GOEST3-10 | 2026-09-01 01:10:44 | 51.31004 | 8.31390 | 100° | 66km/h | 13841m | -5.2m/s | -51.7°C | 3.9% | 150.9hPa | 2.5V | 00:00:00 | 00:00:00 | 00:00:00 | |
| DL4BBY-15 | 2026-09-01 01:10:42 | 51.31011 | 8.31341 | 104° | 78km/h | 13851m | -4.7m/s | -51.8°C | 0% | 0hPa | 2.5V | 00:00:00 | 00:00:00 | 00:00:00 | |
| DL1XH-15 | 2026-09-01 01:10:41 | 51.31025 | 8.31259 | 105° | 78km/h | 13866m | -4.7m/s | -51.9°C | 3.9% | 150.4hPa | 2.5V | 07:59:14 | 02:53:05 | 00:00:00 | |
| DL4XJ-10 | 2026-09-01 01:10:41 | 51.31015 | 8.31315 | 105° | 84km/h | 13857m | -4.6m/s | -51.9°C | 0% | 0hPa | 2.6V | 00:00:00 | 00:00:00 | 00:00:00 | |
| DO3DL | 2026-09-01 01:10:40 | 51.31015 | 8.31315 | 105° | 68km/h | 13857m | -4.6m/s | -51.9°C | 1.5% | 150.5hPa | 2.6V | 07:59:00 | 00:00:00 | 00:00:00 | |
| DM0DOS-11 | 2026-09-01 01:10:39 | 51.31031 | 8.31229 | 106° | 77km/h | 13871m | -4.8m/s | -51.9°C | 3.9% | 150.2hPa | 2.6V | 07:59:15 | 02:53:04 | 00:00:00 | |
| BIOWL1-15 | 2026-09-01 01:10:38 | 51.31031 | 8.31229 | 106° | 77km/h | 13871m | -4.8m/s | -51.9°C | 0.7% | 150.2hPa | 2.6V | 07:59:46 | 02:53:04 | 00:00:00 | |
| DL1XH-west | 2026-09-01 01:10:36 | 51.31041 | 8.31165 | 102° | 82km/h | 13882m | -5m/s | -52°C | 0.8% | 150hPa | 2.5V | 07:59:46 | 02:53:02 | 00:00:00 | |
| DB0NH | 2026-09-01 01:10:36 | 51.31041 | 8.31165 | 102° | 80km/h | 13882m | -4.9m/s | -52.0°C | 3.9% | 149.9hPa | 2.5V | 00:00:00 | 02:53:02 | 00:00:00 | |
| DL1XH1-15 | 2026-09-01 01:10:35 | 51.31058 | 8.30947 | 89° | 95km/h | 13912m | -5.7m/s | -52.1°C | 3.9% | 149.3hPa | 2.5V | 07:59:23 | 02:52:56 | 00:00:00 | |
| HSKMA3-T | 2026-09-01 01:10:35 | 51.31045 | 8.31131 | 102° | 88km/h | 13887m | -5m/s | -52°C | 0.8% | 149.9hPa | 2.5V | 07:59:46 | 02:53:01 | 00:00:00 | |
| AA1-15 | 2026-09-01 01:10:34 | 51.31049 | 8.31096 | 98° | 91km/h | 13892m | -4.8m/s | -52.1°C | 0.8% | 149.8hPa | 2.5V | 07:59:46 | 02:53:00 | 00:00:00 | |
| GOEST3-10 | 2026-09-01 01:10:34 | 51.31049 | 8.31096 | 99° | 91km/h | 13892m | -4.8m/s | -52.0°C | 4.0% | 149.7hPa | 2.6V | 07:59:00 | 00:00:00 | 00:00:00 | |
| BIOWL7-15 | 2026-09-01 01:10:33 | 51.31053 | 8.31060 | 97° | 89km/h | 13896m | -5.0m/s | -52.1°C | 1.6% | 149.6hPa | 2.6V | 00:00:00 | 00:00:00 | 00:00:00 | |
| DD1CC3-15 | 2026-09-01 01:10:32 | 51.31053 | 8.31060 | 97° | 89km/h | 13896m | -5.0m/s | -52.1°C | 1.6% | 149.6hPa | 2.6V | 07:59:00 | 00:00:00 | 00:00:00 | |
| DM0DOS-11 | 2026-09-01 01:10:31 | 51.31056 | 8.30873 | 86° | 91km/h | 13925m | -5.6m/s | -52.2°C | 3.9% | 149hPa | 2.6V | 07:59:25 | 02:52:54 | 00:00:00 | |
| BIOWL1-15 | 2026-09-01 01:10:27 | 51.31054 | 8.30836 | 85° | 89km/h | 13931m | -5.3m/s | -52.2°C | 0.8% | 148.8hPa | 2.6V | 07:59:46 | 02:52:53 | 00:00:00 | |
| DL1XH-west | 2026-09-01 01:10:26 | 51.31052 | 8.30801 | 83° | 88km/h | 13937m | -5.6m/s | -52.2°C | 0.8% | 148.7hPa | 2.5V | 07:59:46 | 02:52:52 | 00:00:00 | |
| DO2JMG | 2026-09-01 01:10:25 | 51.31049 | 8.30767 | 83° | 84km/h | 13942m | -5.6m/s | -52.2°C | 0.8% | 148.6hPa | 2.5V | 08:02:19 | 02:52:51 | 00:00:00 | |
| DL1XH-15 | 2026-09-01 01:10:24 | 51.31027 | 8.30587 | 80° | 62km/h | 13976m | -4.8m/s | -52.2°C | 4% | 147.8hPa | 2.5V | 07:59:34 | 02:52:45 | 00:00:00 | |
| AA1-15 | 2026-09-01 01:10:24 | 51.31046 | 8.30733 | 81° | 84km/h | 13948m | -5.2m/s | -52.2°C | 0.8% | 148.5hPa | 2.5V | 07:59:46 | 02:52:50 | 00:00:00 | |
| BIOWL1-15 | 2026-09-01 01:10:17 | 51.31024 | 8.30538 | 89° | 60km/h | 13985m | -4.3m/s | -52.3°C | 0.8% | 147.6hPa | 2.6V | 07:59:46 | 02:52:43 | 00:00:00 | |
| DL1XH-west | 2026-09-01 01:10:15 | 51.31026 | 8.30487 | 97° | 68km/h | 13995m | -5m/s | -52.4°C | 0.8% | 147.4hPa | 2.5V | 07:59:46 | 02:52:41 | 00:00:00 | |
| AA1-15 | 2026-09-01 01:10:13 | 51.31033 | 8.30431 | 101° | 73km/h | 14005m | -4.9m/s | -52.4°C | 0.8% | 147.2hPa | 2.6V | 07:59:46 | 02:52:39 | 00:00:00 | |
| DF8AY | 2026-09-01 01:10:11 | 51.31041 | 8.30372 | 104° | 78km/h | 14016m | -5.2m/s | -52.5°C | 0.8% | 146.9hPa | 2.5V | 08:00:37 | 02:52:37 | 00:00:00 | |
| DM0DOS-11 | 2026-09-01 01:10:09 | 51.31055 | 8.30273 | 102° | 88km/h | 14033m | -5.5m/s | -52.6°C | 4% | 146.5hPa | 2.6V | 07:59:45 | 02:52:34 | 00:00:00 | |
| BIOWL1-15 | 2026-09-01 01:10:06 | 51.31064 | 8.30202 | 100° | 91km/h | 14045m | -5.5m/s | -52.6°C | 0.7% | 146.2hPa | 2.5V | 08:00:37 | 02:52:32 | 00:00:00 | |
| DL1XH-west | 2026-09-01 01:10:04 | 51.31070 | 8.30128 | 95° | 95km/h | 14056m | -5.1m/s | -52.4°C | 0.7% | 146hPa | 2.5V | 08:00:37 | 02:52:30 | 00:00:00 | |
| GOEST3-10 | 2026-09-01 01:10:04 | 51.31070 | 8.30128 | 95° | 99km/h | 14056m | -5.1m/s | -52.4°C | 3.9% | 145.9hPa | 2.6V | 00:00:00 | 00:00:00 | 00:00:00 | |
| DM0DOS-11 | 2026-09-01 01:10:03 | 51.31067 | 8.29890 | 82° | 91km/h | 14090m | -5.2m/s | -52.1°C | 3.8% | 145.2hPa | 2.6V | 07:59:55 | 02:52:24 | 00:00:00 | |
| AA1-15 | 2026-09-01 01:10:02 | 51.31073 | 8.30048 | 92° | 100km/h | 14067m | -5.2m/s | -52.4°C | 0.6% | 145.7hPa | 2.6V | 08:00:37 | 02:52:28 | 00:00:00 | |
| DO2JMG | 2026-09-01 01:10:01 | 51.31073 | 8.30007 | 88° | 102km/h | 14072m | -5.6m/s | -52.3°C | 0.7% | 145.6hPa | 2.5V | 08:02:19 | 02:52:27 | 00:00:00 | |
| BIOWL1-15 | 2026-09-01 01:09:55 | 51.31057 | 8.29784 | 81° | 84km/h | 14106m | -5.4m/s | -52.2°C | 0.6% | 144.9hPa | 2.5V | 08:00:37 | 02:52:21 | 00:00:00 | |
| DL1XH-west | 2026-09-01 01:09:54 | 51.31053 | 8.29752 | 79° | 78km/h | 14112m | -5.8m/s | -52.2°C | 0.6% | 144.8hPa | 2.5V | 08:00:37 | 02:52:20 | 00:00:00 | |
| HSKMA3-T | 2026-09-01 01:09:53 | 51.31049 | 8.29722 | 80° | 73km/h | 14117m | -5.6m/s | -52.2°C | 0.6% | 144.6hPa | 2.6V | 08:00:37 | 02:52:19 | 00:00:00 | |
| DM0DOS-11 | 2026-09-01 01:09:53 | 51.31043 | 8.29585 | 92° | 66km/h | 14147m | -5m/s | -52.4°C | 3.9% | 144hPa | 2.6V | 08:00:05 | 02:52:14 | 00:00:00 | |
| AA1-15 | 2026-09-01 01:09:51 | 51.31044 | 8.29666 | 85° | 68km/h | 14129m | -5.9m/s | -52.3°C | 0.5% | 144.4hPa | 2.5V | 08:00:37 | 02:52:17 | 00:00:00 | |
| DO2JMG | 2026-09-01 01:09:50 | 51.31043 | 8.29639 | 87° | 68km/h | 14135m | -5.8m/s | -52.3°C | 0.6% | 144.2hPa | 2.5V | 08:02:19 | 02:52:16 | 00:00:00 | |
| DO3MHA-11 | 2026-09-01 01:09:49 | 51.31042 | 8.29612 | 90° | 80km/h | 14142m | -5.7m/s | -52.3°C | 3.9% | 144.1hPa | 2.5V | 00:00:00 | 02:52:15 | 00:00:00 | |
| SO1NDE-10 | 2026-09-01 01:09:48 | 51.31043 | 8.29585 | 93° | 80km/h | 14147m | -4.9m/s | -52.3°C | 3.9% | 143.9hPa | 2.5V | 00:00:00 | 02:52:14 | 00:00:00 | |
| DJ8HS-15 | 2026-09-01 01:09:47 | 51.31044 | 8.29559 | 98° | 88km/h | 14152m | -4.9m/s | -52.4°C | 3.9% | 143.8hPa | 2.5V | 00:00:00 | 02:52:13 | 00:00:00 | |
| DO3DL | 2026-09-01 01:09:46 | 51.31044 | 8.29559 | 98° | 66km/h | 14152m | -5.0m/s | -52.4°C | 1.4% | 143.8hPa | 2.5V | 08:00:00 | 00:00:00 | 00:00:00 | |
| DD8BA-10 | 2026-09-01 01:09:45 | 51.31051 | 8.29502 | 104° | 91km/h | 14163m | -4.9m/s | -52.3°C | 3.8% | 143.5hPa | 2.5V | 00:00:00 | 00:00:00 | 00:00:00 | |
| DL1XH1-15 | 2026-09-01 01:09:44 | 51.31078 | 8.29334 | 101° | 97km/h | 14191m | -5.9m/s | -52.4°C | 3.9% | 143hPa | 2.5V | 08:00:13 | 02:52:06 | 00:00:00 | |
| BIOWL1-15 | 2026-09-01 01:09:44 | 51.31056 | 8.29472 | 105° | 78km/h | 14168m | -5.6m/s | -52.4°C | 0.5% | 143.5hPa | 2.5V | 08:00:37 | 02:52:10 | 00:00:00 | |
| HSKMA3-T | 2026-09-01 01:09:43 | 51.31061 | 8.29440 | 105° | 84km/h | 14174m | -5.2m/s | -52.4°C | 0.6% | 143.3hPa | 2.6V | 08:00:37 | 02:52:09 | 00:00:00 | |
| DO2JMG | 2026-09-01 01:09:40 | 51.31077 | 8.29334 | 101° | 97km/h | 14191m | -5.9m/s | -52.4°C | 0.6% | 143hPa | 2.5V | 08:02:19 | 02:52:06 | 00:00:00 | |
| DF8AY | 2026-09-01 01:09:36 | 51.31086 | 8.29095 | 86° | 100km/h | 14228m | -5.5m/s | -52.2°C | 0.6% | 142.2hPa | 2.5V | 08:00:37 | 02:52:00 | 00:00:00 | |
| DB0NH | 2026-09-01 01:09:36 | 51.31088 | 8.29176 | 93° | 75km/h | 14217m | -5.4m/s | -52.3°C | 3.9% | 142.4hPa | 2.5V | 00:00:00 | 02:52:02 | 00:00:00 | |
| DD8BA-10 | 2026-09-01 01:09:35 | 51.31088 | 8.29135 | 89° | 86km/h | 14223m | -5.1m/s | -52.2°C | 3.9% | 142.3hPa | 2.5V | 00:00:00 | 00:00:00 | 00:00:00 | |
| DL1XH1-15 | 2026-09-01 01:09:34 | 51.31076 | 8.28949 | 83° | 82km/h | 14250m | -5.4m/s | -52.3°C | 3.9% | 141.7hPa | 2.5V | 08:00:23 | 02:51:56 | 00:00:00 | |
| DL1XH-west | 2026-09-01 01:09:33 | 51.31085 | 8.29056 | 86° | 95km/h | 14234m | -5.2m/s | -52.2°C | 0.6% | 142.1hPa | 2.6V | 08:00:37 | 02:51:59 | 00:00:00 | |
| AA1-15 | 2026-09-01 01:09:29 | 51.31073 | 8.28916 | 80° | 82km/h | 14256m | -5.2m/s | -52.3°C | 0.6% | 141.6hPa | 2.5V | 08:00:37 | 02:51:55 | 00:00:00 | |
| DO3MHA-11 | 2026-09-01 01:09:29 | 51.31073 | 8.28916 | 81° | 68km/h | 14256m | -5.2m/s | -52.2°C | 3.9% | 141.6hPa | 2.5V | 00:00:00 | 02:51:55 | 00:00:00 | |
| DO9LL-15 | 2026-09-01 01:09:27 | 51.31068 | 8.28855 | 84° | 68km/h | 14267m | -5.1m/s | -52.3°C | 3.9% | 141.3hPa | 2.5V | 00:00:00 | 02:51:53 | 00:00:00 | |
| DJ2KF-10 | 2026-09-01 01:09:26 | 51.31066 | 8.28826 | 86° | 57km/h | 14272m | -5.0m/s | -52.3°C | 3.9% | 141.2hPa | 2.5V | 00:00:00 | 02:51:52 | 00:00:00 | |
| SONDE2-11 | 2026-09-01 01:09:25 | 51.31063 | 8.28747 | 88° | 60km/h | 14290m | -5.2m/s | -52.2°C | 1.4% | 140.8hPa | 2.5V | 00:00:00 | 00:00:00 | 00:00:00 | |
| DL1XH1-15 | 2026-09-01 01:09:24 | 51.31064 | 8.28672 | 96° | 58km/h | 14307m | -5.3m/s | -52°C | 3.7% | 140.4hPa | 2.5V | 08:00:33 | 02:51:46 | 00:00:00 | |
| HSKMA3-T | 2026-09-01 01:09:23 | 51.31063 | 8.28747 | 88° | 62km/h | 14290m | -5.2m/s | -52.2°C | 0.6% | 140.8hPa | 2.6V | 08:00:37 | 02:51:49 | 00:00:00 | |
| BIOWL1-15 | 2026-09-01 01:09:22 | 51.31063 | 8.28722 | 89° | 64km/h | 14295m | -5.4m/s | -52.1°C | 0.6% | 140.7hPa | 2.6V | 08:00:37 | 02:51:48 | 00:00:00 | |
| AA1-15 | 2026-09-01 01:09:19 | 51.31068 | 8.28625 | 101° | 62km/h | 14318m | -5.7m/s | -52°C | 0.5% | 140.2hPa | 2.6V | 08:00:37 | 02:51:44 | 00:00:00 | |
| DJ2DS-15 | 2026-09-01 01:09:18 | 51.31068 | 8.28625 | 102° | 78km/h | 14318m | -5.6m/s | -51.9°C | 3.7% | 140.2hPa | 2.5V | 00:00:00 | 02:51:44 | 00:00:00 | |
| DJ2DS-15 | 2026-09-01 01:09:16 | 51.31079 | 8.28553 | 107° | 64km/h | 14336m | -5.4m/s | -52.1°C | 1.3% | 139.8hPa | 2.5V | 00:00:00 | 00:00:00 | 00:00:00 | |
| DL1XH-15 | 2026-09-01 01:09:16 | 51.31079 | 8.28553 | 107° | 66km/h | 14336m | -5.4m/s | -52.1°C | 3.7% | 139.8hPa | 2.5V | 08:00:38 | 02:51:41 | 00:00:00 | |
| DD8BA-10 | 2026-09-01 01:09:15 | 51.31079 | 8.28553 | 108° | 78km/h | 14336m | -5.3m/s | -52.0°C | 3.7% | 139.8hPa | 2.5V | 00:00:00 | 00:00:00 | 00:00:00 | |
| DL1NUX | 2026-09-01 01:09:14 | 51.31121 | 8.28387 | 108° | 88km/h | 14369m | -5.3m/s | -52.1°C | 3.7% | 139.1hPa | 2.5V | 08:00:44 | 02:51:35 | 00:00:00 | |
| DL1XH1-15 | 2026-09-01 01:09:14 | 51.31114 | 8.28419 | 110° | 80km/h | 14363m | -5.4m/s | -52.1°C | 3.8% | 139.2hPa | 2.5V | 08:00:43 | 02:51:36 | 00:00:00 | |
| DF8AY | 2026-09-01 01:09:13 | 51.31092 | 8.28502 | 114° | 69km/h | 14347m | -5.3m/s | -52.1°C | 0.5% | 139.6hPa | 2.6V | 08:01:28 | 02:51:39 | 00:00:00 | |
| DL1XH-west | 2026-09-01 01:09:12 | 51.31099 | 8.28476 | 114° | 73km/h | 14353m | -4.9m/s | -52.1°C | 0.5% | 139.4hPa | 2.6V | 08:01:28 | 02:51:38 | 00:00:00 | |
| BIOWL1-15 | 2026-09-01 01:09:11 | 51.31121 | 8.28387 | 108° | 88km/h | 14369m | -5.3m/s | -52.1°C | 0.5% | 139.1hPa | 2.5V | 08:01:28 | 02:51:35 | 00:00:00 | |
| DO2JMG | 2026-09-01 01:09:11 | 51.31106 | 8.28448 | 112° | 77km/h | 14358m | -5.3m/s | -52.1°C | 0.5% | 139.3hPa | 2.5V | 08:02:19 | 02:51:37 | 00:00:00 | |
| AA1-15 | 2026-09-01 01:09:08 | 51.31127 | 8.28353 | 104° | 89km/h | 14375m | -5.1m/s | -52.1°C | 0.5% | 139hPa | 2.6V | 08:01:28 | 02:51:34 | 00:00:00 | |
| DJ8HS-15 | 2026-09-01 01:09:07 | 51.31132 | 8.28319 | 101° | 68km/h | 14380m | -5.0m/s | -52.1°C | 3.7% | 138.8hPa | 2.6V | 08:00:00 | 02:51:33 | 00:00:00 | |
| DL1XH-15 | 2026-09-01 01:09:06 | 51.31138 | 8.28248 | 95° | 89km/h | 14391m | -5.5m/s | -52.1°C | 3.7% | 138.7hPa | 2.5V | 08:00:48 | 02:51:31 | 00:00:00 | |
| DO3DL | 2026-09-01 01:09:06 | 51.31136 | 8.28284 | 100° | 89km/h | 14386m | -5.1m/s | -52.1°C | 1.3% | 138.7hPa | 2.5V | 08:01:00 | 00:00:00 | 00:00:00 | |
| DD8BA-10 | 2026-09-01 01:09:05 | 51.31138 | 8.28248 | 96° | 77km/h | 14391m | -5.4m/s | -52.1°C | 3.7% | 138.6hPa | 2.5V | 00:00:00 | 00:00:00 | 00:00:00 | |
| DL1XH1-15 | 2026-09-01 01:09:04 | 51.31134 | 8.28079 | 82° | 77km/h | 14420m | -5.4m/s | -52.4°C | 3.7% | 138hPa | 2.5V | 08:00:53 | 02:51:26 | 00:00:00 | |
| DF8AY | 2026-09-01 01:09:03 | 51.31139 | 8.28177 | 88° | 86km/h | 14403m | -5.6m/s | -52.2°C | 0.4% | 138.4hPa | 2.6V | 08:01:28 | 02:51:29 | 00:00:00 | |
| DL1XH-west | 2026-09-01 01:09:02 | 51.31138 | 8.28144 | 86° | 82km/h | 14409m | -5.6m/s | -52.3°C | 0.5% | 138.3hPa | 2.6V | 08:01:28 | 02:51:28 | 00:00:00 | |
| DO3MHA-12 | 2026-09-01 01:09:02 | 51.31138 | 8.28143 | 86° | 66km/h | 14409m | -5.5m/s | -52.2°C | 3.7% | 138.2hPa | 2.5V | 00:00:00 | 02:51:28 | 00:00:00 | |
| DL1NUX | 2026-09-01 01:09:01 | 51.31131 | 8.28049 | 82° | 73km/h | 14426m | -5.5m/s | -52.4°C | 3.7% | 137.9hPa | 2.5V | 08:00:54 | 02:51:25 | 00:00:00 | |
| DO2JMG | 2026-09-01 01:09:01 | 51.31136 | 8.28111 | 85° | 80km/h | 14415m | -5.6m/s | -52.3°C | 0.5% | 138.1hPa | 2.5V | 08:02:19 | 02:51:27 | 00:00:00 | |
| AA1-15 | 2026-09-01 01:08:58 | 51.31129 | 8.28021 | 83° | 68km/h | 14432m | -5.4m/s | -52.5°C | 0.5% | 137.8hPa | 2.6V | 08:01:28 | 02:51:24 | 00:00:00 | |
| DJ2DS-15 | 2026-09-01 01:08:58 | 51.31129 | 8.28021 | 84° | 68km/h | 14432m | -5.3m/s | -52.4°C | 3.8% | 137.8hPa | 2.6V | 08:00:00 | 02:51:24 | 00:00:00 | |
| DB0UT-7 | 2026-09-01 01:08:57 | 51.31127 | 8.27994 | 84° | 69km/h | 14438m | -5.1m/s | -52.5°C | 3.8% | 137.6hPa | 2.5V | 00:00:00 | 00:00:00 | 00:00:00 | |
| DL1XH-15 | 2026-09-01 01:08:56 | 51.31124 | 8.27948 | 85° | 53km/h | 14450m | -5.5m/s | -52.6°C | 3.8% | 137.4hPa | 2.5V | 08:00:58 | 02:51:21 | 00:00:00 | |
| DD8BA-10 | 2026-09-01 01:08:55 | 51.31124 | 8.27948 | 86° | 55km/h | 14450m | -5.4m/s | -52.6°C | 3.8% | 137.4hPa | 2.5V | 00:00:00 | 00:00:00 | 00:00:00 | |
| DL1NUX | 2026-09-01 01:08:54 | 51.31135 | 8.27828 | 110° | 58km/h | 14485m | -5.1m/s | -52.9°C | 3.9% | 136.7hPa | 2.5V | 08:01:04 | 02:51:15 | 00:00:00 | |
| DF8AY | 2026-09-01 01:08:52 | 51.31125 | 8.27889 | 99° | 49km/h | 14468m | -5.3m/s | -52.8°C | 0.5% | 137hPa | 2.6V | 08:01:28 | 02:51:18 | 00:00:00 | |
| DL1XH1-15 | 2026-09-01 01:08:52 | 51.31131 | 8.27849 | 105° | 53km/h | 14479m | -5.4m/s | -52.9°C | 3.9% | 136.8hPa | 2.5V | 08:01:03 | 02:51:16 | 00:00:00 | |
| DL1XH-west | 2026-09-01 01:08:51 | 51.31127 | 8.27869 | 103° | 53km/h | 14474m | -5.3m/s | -52.8°C | 0.5% | 136.9hPa | 2.5V | 08:01:28 | 02:51:17 | 00:00:00 | |
| DO2JMG | 2026-09-01 01:08:50 | 51.31131 | 8.27849 | 106° | 53km/h | 14479m | -5.4m/s | -52.9°C | 0.5% | 136.8hPa | 2.5V | 08:02:19 | 02:51:16 | 00:00:00 | |
| DM0DOS-11 | 2026-09-01 01:08:49 | 51.31141 | 8.27805 | 111° | 62km/h | 14490m | -4.6m/s | -53°C | 4% | 136.6hPa | 2.6V | 08:01:05 | 02:51:14 | 00:00:00 | |
| BIOWL1-15 | 2026-09-01 01:08:48 | 51.31141 | 8.27805 | 112° | 62km/h | 14491m | -4.6m/s | -53°C | 0.6% | 136.6hPa | 2.6V | 08:01:28 | 02:51:14 | 00:00:00 | |
| AA1-15 | 2026-09-01 01:08:47 | 51.31147 | 8.27781 | 111° | 69km/h | 14495m | -5.1m/s | -53°C | 0.7% | 136.4hPa | 2.6V | 08:01:28 | 02:51:13 | 00:00:00 | |
| DO3MHA-11 | 2026-09-01 01:08:47 | 51.31147 | 8.27780 | 111° | 82km/h | 14495m | -5.1m/s | -53.0°C | 4.0% | 136.4hPa | 2.6V | 08:01:00 | 02:51:13 | 00:00:00 | |
| DL1XH1-15 | 2026-09-01 01:08:45 | 51.31176 | 8.27562 | 93° | 86km/h | 14534m | -5.1m/s | -53°C | 4% | 135.6hPa | 2.5V | 08:01:13 | 02:51:06 | 00:00:00 | |
| DD8BA-10 | 2026-09-01 01:08:45 | 51.31158 | 8.27726 | 108° | 84km/h | 14506m | -5.0m/s | -53.0°C | 4.0% | 136.1hPa | 2.5V | 00:00:00 | 00:00:00 | 00:00:00 | |
| DL1NUX | 2026-09-01 01:08:44 | 51.31178 | 8.27527 | 91° | 89km/h | 14540m | -5.6m/s | -53°C | 3.9% | 135.5hPa | 2.5V | 08:01:14 | 02:51:05 | 00:00:00 | |
| GOEST3-10 | 2026-09-01 01:08:44 | 51.31164 | 8.27695 | 104° | 84km/h | 14511m | -5.2m/s | -52.9°C | 4.0% | 136.1hPa | 2.5V | 08:01:00 | 00:00:00 | 00:00:00 | |
| DM0DOS-11 | 2026-09-01 01:08:43 | 51.31178 | 8.27491 | 90° | 88km/h | 14546m | -5.3m/s | -53°C | 3.9% | 135.3hPa | 2.6V | 08:01:15 | 02:51:04 | 00:00:00 | |
| DF8AY | 2026-09-01 01:08:43 | 51.31172 | 8.27630 | 98° | 84km/h | 14523m | -4.9m/s | -53°C | 0.6% | 135.9hPa | 2.6V | 08:01:28 | 02:51:08 | 00:00:00 | |
| DO2JMG | 2026-09-01 01:08:40 | 51.31176 | 8.27562 | 94° | 86km/h | 14534m | -5.1m/s | -53°C | 0.6% | 135.6hPa | 2.5V | 08:02:19 | 02:51:06 | 00:00:00 | |
| BIOWL1-15 | 2026-09-01 01:08:37 | 51.31177 | 8.27456 | 88° | 86km/h | 14552m | -5.6m/s | -53°C | 0.6% | 135.3hPa | 2.6V | 08:01:28 | 02:51:03 | 00:00:00 | |
| AA1-15 | 2026-09-01 01:08:37 | 51.31176 | 8.27422 | 83° | 82km/h | 14558m | -5.7m/s | -53°C | 0.5% | 135.1hPa | 2.5V | 08:01:28 | 02:51:02 | 00:00:00 | |
| DB0NH | 2026-09-01 01:08:36 | 51.31176 | 8.27422 | 84° | 73km/h | 14558m | -5.6m/s | -53.0°C | 3.9% | 135.1hPa | 2.5V | 00:00:00 | 02:51:02 | 00:00:00 | |
| DD8BA-10 | 2026-09-01 01:08:35 | 51.31173 | 8.27388 | 82° | 66km/h | 14564m | -5.4m/s | -53.0°C | 3.9% | 134.9hPa | 2.5V | 08:01:00 | 00:00:00 | 00:00:00 | |
| DL1NUX | 2026-09-01 01:08:34 | 51.31149 | 8.27218 | 75° | 62km/h | 14598m | -5.2m/s | -52.7°C | 3.9% | 134.2hPa | 2.5V | 08:01:24 | 02:50:55 | 00:00:00 | |
| DF8AY | 2026-09-01 01:08:31 | 51.31157 | 8.27267 | 75° | 68km/h | 14587m | -5.2m/s | -52.9°C | 0.6% | 134.5hPa | 2.5V | 08:01:28 | 02:50:57 | 00:00:00 | |
| HSKMA3-T | 2026-09-01 01:08:30 | 51.31153 | 8.27242 | 75° | 64km/h | 14593m | -5.3m/s | -52.8°C | 0.5% | 134.4hPa | 2.5V | 08:01:28 | 02:50:56 | 00:00:00 | |
| DO2JMG | 2026-09-01 01:08:29 | 51.31149 | 8.27218 | 76° | 62km/h | 14598m | -5.2m/s | -52.7°C | 0.5% | 134.3hPa | 2.5V | 08:02:19 | 02:50:55 | 00:00:00 | |
| AA1-15 | 2026-09-01 01:08:26 | 51.31141 | 8.27133 | 87° | 46km/h | 14621m | -5.9m/s | -52.6°C | 0.5% | 133.8hPa | 2.5V | 08:01:28 | 02:50:51 | 00:00:00 | |
| DL1XH1-15 | 2026-09-01 01:08:25 | 51.31150 | 8.27029 | 106° | 60km/h | 14651m | -5.4m/s | -52.5°C | 3.8% | 133.2hPa | 2.5V | 08:01:33 | 02:50:46 | 00:00:00 | |
| DF8AY | 2026-09-01 01:08:22 | 51.31146 | 8.27052 | 104° | 58km/h | 14645m | -5.4m/s | -52.5°C | 0.4% | 133.3hPa | 2.5V | 08:02:19 | 02:50:47 | 00:00:00 | |
| DL1XH-west | 2026-09-01 01:08:20 | 51.31150 | 8.27029 | 106° | 60km/h | 14651m | -5.4m/s | -52.5°C | 0.5% | 133.2hPa | 2.5V | 08:02:19 | 02:50:46 | 00:00:00 | |
| HSKMA3-T | 2026-09-01 01:08:19 | 51.31154 | 8.27005 | 106° | 64km/h | 14656m | -5.2m/s | -52.5°C | 0.4% | 133.1hPa | 2.5V | 08:02:19 | 02:50:45 | 00:00:00 | |
| DO3DL | 2026-09-01 01:08:19 | 51.31154 | 8.27005 | 107° | 64km/h | 14656m | -5.2m/s | -52.5°C | 1.3% | 133.1hPa | 2.6V | 08:02:00 | 00:00:00 | 00:00:00 | |
| DJ2DS-15 | 2026-09-01 01:08:18 | 51.31159 | 8.26979 | 105° | 75km/h | 14661m | -4.6m/s | -52.5°C | 3.8% | 132.9hPa | 2.6V | 00:00:00 | 02:50:44 | 00:00:00 | |
| DO3MHA-11 | 2026-09-01 01:08:17 | 51.31163 | 8.26951 | 104° | 84km/h | 14667m | -5.1m/s | -52.5°C | 3.8% | 132.8hPa | 2.6V | 00:00:00 | 02:50:43 | 00:00:00 | |
| DD1CC8 | 2026-09-01 01:08:16 | 51.31168 | 8.26920 | 103° | 80km/h | 14672m | -5.1m/s | -52.6°C | 1.3% | 132.7hPa | 2.5V | 00:00:00 | 00:00:00 | 00:00:00 | |
| DD8BA-10 | 2026-09-01 01:08:15 | 51.31172 | 8.26888 | 102° | 84km/h | 14678m | -5.1m/s | -52.5°C | 3.8% | 132.6hPa | 2.5V | 00:00:00 | 00:00:00 | 00:00:00 | |
| DL1NUX | 2026-09-01 01:08:14 | 51.31183 | 8.26678 | 87° | 86km/h | 14715m | -5.2m/s | -52.4°C | 3.8% | 131.9hPa | 2.5V | 08:01:44 | 02:50:35 | 00:00:00 | |
| DO2JMG | 2026-09-01 01:08:14 | 51.31176 | 8.26854 | 100° | 84km/h | 14684m | -5.6m/s | -52.5°C | 0.4% | 132.5hPa | 2.5V | 08:02:19 | 02:50:40 | 00:00:00 | |
| BIOWL1-15 | 2026-09-01 01:08:12 | 51.31181 | 8.26786 | 94° | 88km/h | 14696m | -5m/s | -52.5°C | 0.4% | 132.3hPa | 2.6V | 08:02:19 | 02:50:38 | 00:00:00 | |
| DL1XH1-15 | 2026-09-01 01:08:12 | 51.31183 | 8.26714 | 90° | 89km/h | 14708m | -6m/s | -52.4°C | 3.8% | 132hPa | 2.5V | 08:01:43 | 02:50:36 | 00:00:00 | |
| DF8AY | 2026-09-01 01:08:11 | 51.31183 | 8.26750 | 91° | 91km/h | 14702m | -6.1m/s | -52.4°C | 0.4% | 132.1hPa | 2.5V | 08:02:19 | 02:50:37 | 00:00:00 | |
| HSKMA3-T | 2026-09-01 01:08:09 | 51.31183 | 8.26678 | 88° | 86km/h | 14715m | -5.2m/s | -52.4°C | 0.5% | 131.9hPa | 2.5V | 08:02:19 | 02:50:35 | 00:00:00 | |
| DO3MHA-12 | 2026-09-01 01:08:09 | 51.31183 | 8.26678 | 88° | 69km/h | 14715m | -5.1m/s | -52.3°C | 3.8% | 131.9hPa | 2.5V | 00:00:00 | 02:50:35 | 00:00:00 | |
| DO3MHA-11 | 2026-09-01 01:08:07 | 51.31178 | 8.26612 | 81° | 62km/h | 14726m | -4.9m/s | -52.3°C | 3.9% | 131.6hPa | 2.5V | 00:00:00 | 02:50:33 | 00:00:00 | |
| DB0NH | 2026-09-01 01:08:06 | 51.31174 | 8.26580 | 78° | 68km/h | 14731m | -4.8m/s | -52.3°C | 3.8% | 131.5hPa | 2.5V | 00:00:00 | 02:50:32 | 00:00:00 | |
| DL1XH1-15 | 2026-09-01 01:08:05 | 51.31150 | 8.26431 | 79° | 53km/h | 14765m | -5.7m/s | -52.3°C | 3.7% | 130.8hPa | 2.5V | 08:01:53 | 02:50:26 | 00:00:00 | |
| DO2JMG | 2026-09-01 01:08:03 | 51.31162 | 8.26498 | 74° | 60km/h | 14747m | -4.8m/s | -52.4°C | 0.4% | 131.2hPa | 2.6V | 08:02:19 | 02:50:29 | 00:00:00 | |
| DL1NUX | 2026-09-01 01:08:02 | 51.31148 | 8.26411 | 80° | 47km/h | 14771m | -6m/s | -52.3°C | 3.7% | 130.7hPa | 2.5V | 08:01:54 | 02:50:25 | 00:00:00 | |
| BIOWL1-15 | 2026-09-01 01:08:02 | 51.31158 | 8.26475 | 73° | 58km/h | 14753m | -5.5m/s | -52.4°C | 0.3% | 131.1hPa | 2.6V | 08:02:19 | 02:50:28 | 00:00:00 | |
| DF8AY | 2026-09-01 01:08:00 | 51.31150 | 8.26431 | 79° | 53km/h | 14765m | -5.7m/s | -52.3°C | 0.4% | 130.8hPa | 2.5V | 08:02:19 | 02:50:26 | 00:00:00 | |
| DL1XH-west | 2026-09-01 01:07:59 | 51.31148 | 8.26411 | 81° | 47km/h | 14771m | -6m/s | -52.3°C | 0.4% | 130.7hPa | 2.5V | 08:02:19 | 02:50:25 | 00:00:00 | |
| HSKMA3-T | 2026-09-01 01:07:58 | 51.31146 | 8.26392 | 83° | 47km/h | 14777m | -5.8m/s | -52.3°C | 0.3% | 130.6hPa | 2.6V | 08:02:19 | 02:50:24 | 00:00:00 | |
| DJ2DS-15 | 2026-09-01 01:07:58 | 51.31146 | 8.26392 | 83° | 69km/h | 14777m | -5.7m/s | -52.3°C | 3.7% | 130.6hPa | 2.6V | 00:00:00 | 02:50:24 | 00:00:00 | |
| DB0UT-7 | 2026-09-01 01:07:57 | 51.31145 | 8.26373 | 91° | 66km/h | 14783m | -5.6m/s | -52.2°C | 3.8% | 130.4hPa | 2.6V | 08:01:00 | 00:00:00 | 00:00:00 | |
| DL8OAI-8 | 2026-09-01 01:07:56 | 51.31145 | 8.26373 | 91° | 47km/h | 14783m | -5.7m/s | -52.3°C | 1.3% | 130.5hPa | 2.5V | 08:02:00 | 00:00:00 | 00:00:00 | |
| DD8BA-10 | 2026-09-01 01:07:55 | 51.31147 | 8.26336 | 100° | 69km/h | 14794m | -5.5m/s | -52.1°C | 3.7% | 130.2hPa | 2.5V | 00:00:00 | 00:00:00 | 00:00:00 | |
| DL1NUX | 2026-09-01 01:07:54 | 51.31174 | 8.26189 | 102° | 77km/h | 14828m | -5.1m/s | -51.8°C | 3.7% | 129.6hPa | 2.5V | 08:02:04 | 02:50:15 | 00:00:00 | |
| AA1-15 | 2026-09-01 01:07:52 | 51.31159 | 8.26270 | 110° | 64km/h | 14811m | -5.3m/s | -52°C | 0.4% | 129.9hPa | 2.6V | 08:02:19 | 02:50:18 | 00:00:00 | |
| DL1XH1-15 | 2026-09-01 01:07:52 | 51.31169 | 8.26218 | 106° | 73km/h | 14822m | -5m/s | -51.9°C | 3.7% | 129.7hPa | 2.5V | 08:02:03 | 02:50:16 | 00:00:00 | |
| DF8AY | 2026-09-01 01:07:49 | 51.31174 | 8.26189 | 103° | 77km/h | 14828m | -5.1m/s | -51.8°C | 0.3% | 129.6hPa | 2.5V | 08:02:19 | 02:50:15 | 00:00:00 | |
| HSKMA3-T | 2026-09-01 01:07:48 | 51.31177 | 8.26158 | 99° | 78km/h | 14833m | -5.1m/s | -51.8°C | 0.3% | 129.5hPa | 2.6V | 08:02:19 | 02:50:14 | 00:00:00 | |
| DO9LL-15 | 2026-09-01 01:07:48 | 51.31177 | 8.26158 | 99° | 71km/h | 14833m | -5.1m/s | -51.7°C | 3.6% | 129.4hPa | 2.5V | 00:00:00 | 02:50:14 | 00:00:00 | |
| SO1NDE-10 | 2026-09-01 01:07:47 | 51.31180 | 8.26127 | 95° | 71km/h | 14839m | -5.4m/s | -51.7°C | 3.6% | 129.3hPa | 2.5V | 00:00:00 | 02:50:13 | 00:00:00 | |
| DL3OBA | 2026-09-01 01:07:46 | 51.31180 | 8.26127 | 95° | 82km/h | 14839m | -5.4m/s | -51.7°C | 1.2% | 129.4hPa | 2.5V | 00:00:00 | 00:00:00 | 00:00:00 | |
| DL1XH1-15 | 2026-09-01 01:07:45 | 51.31168 | 8.25895 | 73° | 77km/h | 14881m | -5.3m/s | -51.9°C | 3.7% | 128.5hPa | 2.5V | 08:02:13 | 02:50:06 | 00:00:00 | |
| AA1-15 | 2026-09-01 01:07:42 | 51.31176 | 8.25958 | 81° | 84km/h | 14869m | -6m/s | -51.8°C | 0.3% | 128.8hPa | 2.6V | 08:02:19 | 02:50:08 | 00:00:00 | |
| DL1NUX | 2026-09-01 01:07:42 | 51.31162 | 8.25866 | 72° | 75km/h | 14887m | -5.8m/s | -51.9°C | 3.7% | 128.4hPa | 2.5V | 08:02:14 | 02:50:05 | 00:00:00 | |
| DB0ND-19 | 2026-09-01 01:07:40 | 51.31168 | 8.25895 | 73° | 75km/h | 14881m | -5.4m/s | -51.9°C | 1.2% | 128.5hPa | 2.6V | 00:00:00 | 00:00:00 | 00:00:00 | |
| DM0DOS-11 | 2026-09-01 01:07:39 | 51.31157 | 8.25839 | 71° | 68km/h | 14893m | -5.3m/s | -51.9°C | 3.7% | 128.2hPa | 2.6V | 08:02:15 | 02:50:04 | 00:00:00 | |
| DF8AY | 2026-09-01 01:07:39 | 51.31162 | 8.25866 | 73° | 75km/h | 14887m | -5.8m/s | -51.9°C | 0.3% | 128.4hPa | 2.5V | 08:02:19 | 02:50:05 | 00:00:00 | |
| DL1XH-west | 2026-09-01 01:07:37 | 51.31151 | 8.25814 | 69° | 62km/h | 14898m | -5.4m/s | -51.8°C | 0.3% | 128.2hPa | 2.6V | 08:02:19 | 02:50:03 | 00:00:00 | |
| DO3MHA-11 | 2026-09-01 01:07:37 | 51.31151 | 8.25814 | 70° | 55km/h | 14899m | -5.3m/s | -51.7°C | 3.6% | 128.1hPa | 2.5V | 00:00:00 | 02:50:03 | 00:00:00 | |
| DB0NH | 2026-09-01 01:07:36 | 51.31145 | 8.25792 | 69° | 68km/h | 14904m | -5.4m/s | -51.7°C | 3.7% | 128.0hPa | 2.5V | 00:00:00 | 02:50:02 | 00:00:00 | |
| DO2JMG | 2026-09-01 01:07:36 | 51.31146 | 8.25792 | 69° | 57km/h | 14904m | -5.4m/s | -51.7°C | 0.3% | 128.1hPa | 2.5V | 08:02:19 | 02:50:02 | 00:00:00 | |
| DL8OAI-8 | 2026-09-01 01:07:35 | 51.31145 | 8.25792 | 70° | 57km/h | 14904m | -5.4m/s | -51.7°C | 1.2% | 128.1hPa | 2.5V | 08:02:00 | 00:00:00 | 00:00:00 | |
| DL1NUX | 2026-09-01 01:07:34 | 51.31139 | 8.25648 | 103° | 57km/h | 14944m | -5.4m/s | -51.7°C | 3.5% | 127.3hPa | 2.5V | 08:02:24 | 02:49:55 | 00:00:00 | |
| GOEST3-10 | 2026-09-01 01:07:34 | 51.31137 | 8.25751 | 75° | 51km/h | 14916m | -5.4m/s | -51.7°C | 3.6% | 127.8hPa | 2.5V | 00:00:00 | 00:00:00 | 00:00:00 | |
| DL1XH1-15 | 2026-09-01 01:07:32 | 51.31136 | 8.25669 | 101° | 51km/h | 14938m | -5.5m/s | -51.7°C | 3.6% | 127.4hPa | 2.5V | 08:02:23 | 02:49:56 | 00:00:00 | |
| BIOWL1-15 | 2026-09-01 01:07:32 | 51.31133 | 8.25711 | 89° | 51km/h | 14928m | -5.4m/s | -51.7°C | 0.3% | 127.6hPa | 2.6V | 08:03:10 | 02:49:58 | 00:00:00 | |
| AA1-15 | 2026-09-01 01:07:31 | 51.31134 | 8.25690 | 95° | 51km/h | 14933m | -5.5m/s | -51.7°C | 0.2% | 127.5hPa | 2.5V | 08:03:10 | 02:49:57 | 00:00:00 | |
| DF8AY | 2026-09-01 01:07:29 | 51.31139 | 8.25648 | 103° | 57km/h | 14944m | -5.4m/s | -51.7°C | 0.2% | 127.3hPa | 2.5V | 08:04:01 | 02:49:55 | 00:00:00 | |
| DM0DOS-11 | 2026-09-01 01:07:28 | 51.31142 | 8.25624 | 105° | 66km/h | 14950m | -5.8m/s | -51.7°C | 3.5% | 127.1hPa | 2.6V | 08:02:25 | 02:49:54 | 00:00:00 | |
| DJ2DS-15 | 2026-09-01 01:07:28 | 51.31148 | 8.25599 | 109° | 66km/h | 14956m | -5.7m/s | -51.7°C | 1.1% | 127.0hPa | 2.5V | 00:00:00 | 00:00:00 | 00:00:00 | |
| DL1XH-15 | 2026-09-01 01:07:27 | 51.31158 | 8.25542 | 105° | 80km/h | 14967m | -6m/s | -51.6°C | 3.6% | 126.8hPa | 2.5V | 08:02:28 | 02:49:51 | 00:00:00 | |
| DL1XH-west | 2026-09-01 01:07:27 | 51.31148 | 8.25599 | 109° | 66km/h | 14956m | -5.7m/s | -51.7°C | 0.2% | 127hPa | 2.6V | 08:03:10 | 02:49:53 | 00:00:00 | |
| DO2JMG | 2026-09-01 01:07:26 | 51.31153 | 8.25572 | 104° | 73km/h | 14961m | -5.1m/s | -51.6°C | 0.2% | 126.9hPa | 2.5V | 08:04:52 | 02:49:52 | 00:00:00 | |
| DL1XH1-15 | 2026-09-01 01:07:25 | 51.31168 | 8.25375 | 86° | 88km/h | 14997m | -5.2m/s | -51.4°C | 3.6% | 126.2hPa | 2.5V | 08:02:33 | 02:49:46 | 00:00:00 | |
| DD8BA-10 | 2026-09-01 01:07:25 | 51.31158 | 8.25542 | 106° | 82km/h | 14967m | -5.9m/s | -51.5°C | 3.6% | 126.8hPa | 2.5V | 00:00:00 | 00:00:00 | 00:00:00 | |
| DL1NUX | 2026-09-01 01:07:24 | 51.31167 | 8.25340 | 83° | 84km/h | 15003m | -5.5m/s | -51.3°C | 3.6% | 126.2hPa | 2.5V | 08:02:34 | 02:49:45 | 00:00:00 | |
| BIOWL1-15 | 2026-09-01 01:07:21 | 51.31169 | 8.25410 | 90° | 88km/h | 14991m | -5.1m/s | -51.5°C | 0.2% | 126.3hPa | 2.5V | 08:03:10 | 02:49:47 | 00:00:00 | |
| DF8AY | 2026-09-01 01:07:19 | 51.31167 | 8.25340 | 84° | 84km/h | 15003m | -5.5m/s | -51.3°C | 0.2% | 126.2hPa | 2.5V | 08:04:01 | 02:49:45 | 00:00:00 | |
| DK9SH | 2026-09-01 01:07:19 | 51.31167 | 8.25340 | 85° | 84km/h | 15003m | -5.5m/s | -51.3°C | 1.1% | 126.2hPa | 2.6V | 08:03:00 | 00:00:00 | 00:00:00 | |
| DO3DL | 2026-09-01 01:07:18 | 51.31167 | 8.25340 | 85° | 84km/h | 15003m | -5.5m/s | -51.3°C | 1.1% | 126.2hPa | 2.6V | 08:03:00 | 00:00:00 | 00:00:00 | |
| DM0DOS-11 | 2026-09-01 01:07:17 | 51.31160 | 8.25277 | 75° | 77km/h | 15015m | -5.5m/s | -51.4°C | 3.6% | 125.9hPa | 2.6V | 08:02:36 | 02:49:43 | 00:00:00 | |
| HSKMA3-T | 2026-09-01 01:07:17 | 51.31160 | 8.25277 | 76° | 77km/h | 15015m | -5.5m/s | -51.4°C | 0.2% | 125.9hPa | 2.6V | 08:03:10 | 02:49:43 | 00:00:00 | |
| DL1XH-west | 2026-09-01 01:07:16 | 51.31155 | 8.25247 | 73° | 77km/h | 15021m | -5.7m/s | -51.4°C | 0.2% | 125.8hPa | 2.5V | 08:03:10 | 02:49:42 | 00:00:00 | |
| DO2JMG | 2026-09-01 01:07:15 | 51.31149 | 8.25218 | 74° | 75km/h | 15027m | -6m/s | -51.3°C | 0.2% | 125.7hPa | 2.5V | 08:04:52 | 02:49:41 | 00:00:00 | |
| DD8BA-10 | 2026-09-01 01:07:15 | 51.31149 | 8.25218 | 74° | 55km/h | 15028m | -5.9m/s | -51.3°C | 3.6% | 125.6hPa | 2.5V | 00:00:00 | 00:00:00 | 00:00:00 | |
| DL1NUX | 2026-09-01 01:07:14 | 51.31125 | 8.25082 | 84° | 47km/h | 15061m | -5.2m/s | -51.3°C | 3.5% | 125hPa | 2.5V | 08:02:44 | 02:49:35 | 00:00:00 | |
| GOEST3-10 | 2026-09-01 01:07:14 | 51.31144 | 8.25190 | 73° | 58km/h | 15034m | -5.3m/s | -51.3°C | 3.5% | 125.5hPa | 2.5V | 08:02:00 | 00:00:00 | 00:00:00 | |
| NBG1-10 | 2026-09-01 01:07:13 | 51.31138 | 8.25165 | 71° | 53km/h | 15039m | -5.3m/s | -51.2°C | 3.5% | 125.4hPa | 2.6V | 00:00:00 | 02:49:39 | 00:00:00 | |
| DM0DOS-11 | 2026-09-01 01:07:11 | 51.31126 | 8.25047 | 99° | 44km/h | 15072m | -5.9m/s | -51.3°C | 3.4% | 124.7hPa | 2.6V | 08:02:46 | 02:49:33 | 00:00:00 | |
| BIOWL1-15 | 2026-09-01 01:07:10 | 51.31127 | 8.25101 | 79° | 46km/h | 15056m | -5.5m/s | -51.3°C | 0.2% | 125.1hPa | 2.5V | 08:03:10 | 02:49:36 | 00:00:00 | |
| DL4XJ-10 | 2026-09-01 01:07:10 | 51.31127 | 8.25101 | 79° | 40km/h | 15056m | -5.4m/s | -51.3°C | 0% | 0hPa | 2.5V | 00:00:00 | 00:00:00 | 00:00:00 | |
| BIOWL9-15 | 2026-09-01 01:07:09 | 51.31125 | 8.25064 | 93° | 44km/h | 15067m | -5.1m/s | -51.3°C | 1.1% | 124.8hPa | 2.5V | 00:00:00 | 00:00:00 | 00:00:00 | |
| DO1YAY-16 | 2026-09-01 01:07:08 | 51.31126 | 8.25047 | 99° | 42km/h | 15072m | -5.9m/s | -51.3°C | 1.1% | 124.8hPa | 2.5V | 00:00:00 | 00:00:00 | 00:00:00 | |
| DL1XH-15 | 2026-09-01 01:07:07 | 51.31133 | 8.25010 | 111° | 49km/h | 15083m | -6.3m/s | -51.3°C | 3.4% | 124.5hPa | 2.5V | 08:02:48 | 02:49:31 | 00:00:00 | |
| DF8AY | 2026-09-01 01:07:07 | 51.31126 | 8.25047 | 99° | 44km/h | 15072m | -5.9m/s | -51.3°C | 0.1% | 124.8hPa | 2.6V | 08:04:01 | 02:49:33 | 00:00:00 | |
| HSKMA3-T | 2026-09-01 01:07:06 | 51.31129 | 8.25029 | 105° | 49km/h | 15078m | -6m/s | -51.3°C | 0.1% | 124.6hPa | 2.5V | 08:03:10 | 02:49:32 | 00:00:00 | |
| DL1XH-west | 2026-09-01 01:07:05 | 51.31133 | 8.25010 | 111° | 49km/h | 15083m | -6.3m/s | -51.3°C | 0.1% | 124.5hPa | 2.5V | 08:03:10 | 02:49:31 | 00:00:00 | |
| AA1-15 | 2026-09-01 01:07:00 | 51.31163 | 8.24857 | 99° | 82km/h | 15118m | -5.4m/s | -51.3°C | 0.2% | 123.8hPa | 2.5V | 08:03:10 | 02:49:25 | 00:00:00 | |
| BIOWL1-15 | 2026-09-01 01:07:00 | 51.31166 | 8.24757 | 88° | 82km/h | 15134m | -5.9m/s | -51.1°C | 0.2% | 123.5hPa | 2.5V | 08:03:10 | 02:49:22 | 00:00:00 | |
| DM0DOS-11 | 2026-09-01 01:06:59 | 51.31166 | 8.24790 | 91° | 80km/h | 15129m | -5.1m/s | -51.2°C | 3.5% | 123.6hPa | 2.6V | 08:02:56 | 02:49:23 | 00:00:00 | |
| WPPR-10 | 2026-09-01 01:06:59 | 51.31165 | 8.24824 | 94° | 84km/h | 15124m | -5.5m/s | -51.2°C | 1.1% | 123.7hPa | 2.6V | 00:00:00 | 00:00:00 | 00:00:00 | |
| DJ2DS-15 | 2026-09-01 01:06:58 | 51.31165 | 8.24824 | 95° | 58km/h | 15124m | -5.5m/s | -51.2°C | 3.5% | 123.7hPa | 2.6V | 00:00:00 | 02:49:24 | 00:00:00 | |
| DL1XH-15 | 2026-09-01 01:06:57 | 51.31165 | 8.24724 | 85° | 77km/h | 15139m | -6m/s | -51°C | 3.5% | 123.4hPa | 2.5V | 08:02:58 | 02:49:21 | 00:00:00 | |
| HSKMA3-T | 2026-09-01 01:06:55 | 51.31165 | 8.24725 | 85° | 77km/h | 15139m | -6m/s | -51°C | 0.1% | 123.4hPa | 2.5V | 08:03:10 | 02:49:21 | 00:00:00 | |
| DL1XH-west | 2026-09-01 01:06:54 | 51.31162 | 8.24694 | 81° | 73km/h | 15145m | -5.6m/s | -50.9°C | 0.1% | 123.3hPa | 2.5V | 08:03:10 | 02:49:20 | 00:00:00 | |
| DL1NUX | 2026-09-01 01:06:54 | 51.31147 | 8.24572 | 82° | 51km/h | 15174m | -5.5m/s | -51.1°C | 3.5% | 122.7hPa | 2.5V | 08:03:04 | 02:49:15 | 00:00:00 | |
| DF8AY | 2026-09-01 01:06:50 | 51.31149 | 8.24593 | 81° | 53km/h | 15168m | -5.8m/s | -51°C | 0.2% | 122.8hPa | 2.5V | 08:04:01 | 02:49:16 | 00:00:00 | |
| DO3MHA-12 | 2026-09-01 01:06:49 | 51.31147 | 8.24572 | 83° | 46km/h | 15174m | -5.4m/s | -51.0°C | 3.5% | 122.7hPa | 2.5V | 08:03:00 | 02:49:15 | 00:00:00 | |
| AA1-15 | 2026-09-01 01:06:49 | 51.31145 | 8.24553 | 85° | 46km/h | 15179m | -5.6m/s | -51.1°C | 0.1% | 122.6hPa | 2.6V | 08:03:10 | 02:49:14 | 00:00:00 | |
| DM0DOS-11 | 2026-09-01 01:06:48 | 51.31145 | 8.24535 | 92° | 42km/h | 15185m | -6m/s | -51.1°C | 3.5% | 122.5hPa | 2.6V | 08:03:06 | 02:49:13 | 00:00:00 | |
| HSKMA3-T | 2026-09-01 01:06:45 | 51.31147 | 8.24502 | 101° | 40km/h | 15197m | -6.3m/s | -51°C | 0.1% | 122.2hPa | 2.5V | 08:03:10 | 02:49:11 | 00:00:00 | |
| DO2JMG | 2026-09-01 01:06:44 | 51.31150 | 8.24486 | 109° | 40km/h | 15203m | -6.6m/s | -51°C | 0.1% | 122.2hPa | 2.5V | 08:04:52 | 02:49:10 | 00:00:00 | |
| DL1NUX | 2026-09-01 01:06:44 | 51.31177 | 8.24398 | 117° | 60km/h | 15234m | -5.8m/s | -51°C | 3.4% | 121.5hPa | 2.5V | 08:03:14 | 02:49:05 | 00:00:00 | |
| DL1XH-west | 2026-09-01 01:06:43 | 51.31154 | 8.24470 | 114° | 42km/h | 15210m | -6.4m/s | -51°C | 0.1% | 122hPa | 2.6V | 08:03:10 | 02:49:09 | 00:00:00 | |
| DF8AY | 2026-09-01 01:06:39 | 51.31184 | 8.24375 | 116° | 64km/h | 15239m | -5.6m/s | -50.9°C | 0.1% | 121.4hPa | 2.6V | 08:04:01 | 02:49:04 | 00:00:00 | |
| DO3MHA-12 | 2026-09-01 01:06:39 | 51.31177 | 8.24397 | 118° | 69km/h | 15234m | -5.8m/s | -50.9°C | 3.4% | 121.5hPa | 2.6V | 00:00:00 | 02:49:05 | 00:00:00 | |
| DM0DOS-11 | 2026-09-01 01:06:38 | 51.31191 | 8.24351 | 112° | 68km/h | 15245m | -5.7m/s | -50.9°C | 3.4% | 121.3hPa | 2.6V | 08:03:16 | 02:49:03 | 00:00:00 | |
| AA1-15 | 2026-09-01 01:06:37 | 51.31191 | 8.24351 | 112° | 68km/h | 15245m | -5.7m/s | -50.9°C | 0.1% | 121.3hPa | 2.6V | 08:04:01 | 02:49:03 | 00:00:00 | |
| DL1XH-15 | 2026-09-01 01:06:37 | 51.31202 | 8.24297 | 105° | 71km/h | 15256m | -5.6m/s | -50.8°C | 3.4% | 121.1hPa | 2.5V | 08:03:18 | 02:49:01 | 00:00:00 | |
| BIOWL1-15 | 2026-09-01 01:06:35 | 51.31207 | 8.24269 | 102° | 73km/h | 15262m | -5.7m/s | -50.8°C | 0.1% | 121hPa | 2.5V | 08:04:01 | 02:49:00 | 00:00:00 | |
| HSKMA3-T | 2026-09-01 01:06:35 | 51.31202 | 8.24297 | 106° | 71km/h | 15256m | -5.6m/s | -50.8°C | 0.1% | 121.1hPa | 2.5V | 08:04:01 | 02:49:01 | 00:00:00 | |
| DB0NH | 2026-09-01 01:06:35 | 51.31202 | 8.24297 | 106° | 60km/h | 15256m | -5.6m/s | -50.8°C | 3.4% | 121.1hPa | 2.5V | 00:00:00 | 02:49:01 | 00:00:00 | |
| DL1NUX | 2026-09-01 01:06:34 | 51.31214 | 8.24125 | 87° | 69km/h | 15291m | -6.1m/s | -50.7°C | 3.4% | 120.5hPa | 2.5V | 08:03:24 | 02:48:55 | 00:00:00 | |
| DL1XH-west | 2026-09-01 01:06:32 | 51.31212 | 8.24211 | 96° | 73km/h | 15273m | -6m/s | -50.6°C | 0.1% | 120.8hPa | 2.6V | 08:04:01 | 02:48:58 | 00:00:00 | |
| DO2JMG | 2026-09-01 01:06:29 | 51.31214 | 8.24125 | 88° | 69km/h | 15291m | -6.1m/s | -50.7°C | 0.1% | 120.5hPa | 2.5V | 08:04:52 | 02:48:55 | 00:00:00 | |
| DF8AY | 2026-09-01 01:06:27 | 51.31211 | 8.24071 | 83° | 66km/h | 15303m | -6.3m/s | -50.7°C | 0.1% | 120.2hPa | 2.6V | 08:04:01 | 02:48:53 | 00:00:00 | |
| DL1XH-15 | 2026-09-01 01:06:27 | 51.31206 | 8.24020 | 80° | 62km/h | 15315m | -6.2m/s | -50.8°C | 3.4% | 120hPa | 2.5V | 08:03:28 | 02:48:51 | 00:00:00 | |
| AA1-15 | 2026-09-01 01:06:26 | 51.31209 | 8.24045 | 81° | 64km/h | 15309m | -6.3m/s | -50.7°C | 0.1% | 120.1hPa | 2.5V | 08:04:01 | 02:48:52 | 00:00:00 | |
| DD1CC3-15 | 2026-09-01 01:06:26 | 51.31209 | 8.24045 | 82° | 64km/h | 15309m | -6.3m/s | -50.7°C | 1.1% | 120.1hPa | 2.5V | 08:04:00 | 00:00:00 | 00:00:00 | |
| BUE01 | 2026-09-01 01:06:25 | 51.31203 | 8.23996 | 77° | 58km/h | 15321m | -6.1m/s | -50.8°C | 1.1% | 119.9hPa | 2.5V | 00:00:00 | 00:00:00 | 00:00:00 | |
| DL1NUX | 2026-09-01 01:06:24 | 51.31184 | 8.23897 | 68° | 46km/h | 15351m | -6.4m/s | -51°C | 3.4% | 119.3hPa | 2.5V | 08:03:34 | 02:48:45 | 00:00:00 | |
| BIOWL1-15 | 2026-09-01 01:06:24 | 51.31203 | 8.23996 | 78° | 58km/h | 15321m | -6.1m/s | -50.8°C | 0.1% | 119.9hPa | 2.5V | 08:04:01 | 02:48:50 | 00:00:00 | |
| DL1XH-west | 2026-09-01 01:06:22 | 51.31196 | 8.23953 | 74° | 53km/h | 15333m | -6m/s | -50.9°C | 0.1% | 119.7hPa | 2.6V | 08:04:01 | 02:48:48 | 00:00:00 | |
| AM1SDL-15 | 2026-09-01 01:06:21 | 51.31192 | 8.23933 | 72° | 40km/h | 15339m | -6.0m/s | -50.8°C | 3.3% | 119.5hPa | 2.5V | 00:00:00 | 02:48:47 | 00:00:00 | |
| HTAHTA | 2026-09-01 01:06:20 | 51.31189 | 8.23914 | 70° | 47km/h | 15345m | -6.3m/s | -50.9°C | 1.0% | 119.5hPa | 2.5V | 00:00:00 | 00:00:00 | 00:00:00 | |
| DO3MHA-12 | 2026-09-01 01:06:19 | 51.31184 | 8.23897 | 69° | 38km/h | 15351m | -6.4m/s | -50.9°C | 3.4% | 119.2hPa | 2.5V | 00:00:00 | 02:48:45 | 00:00:00 | |
| DL1XH-15 | 2026-09-01 01:06:18 | 51.31171 | 8.23837 | 76° | 35km/h | 15376m | -6.5m/s | -51°C | 3.4% | 118.9hPa | 2.5V | 08:03:38 | 02:48:41 | 00:00:00 | |
| DO2JMG | 2026-09-01 01:06:17 | 51.31177 | 8.23865 | 69° | 40km/h | 15363m | -6.6m/s | -51°C | 0.1% | 119.1hPa | 2.6V | 08:04:52 | 02:48:43 | 00:00:00 | |
| AA1-15 | 2026-09-01 01:06:16 | 51.31174 | 8.23850 | 72° | 37km/h | 15370m | -6.8m/s | -51°C | 0.1% | 119hPa | 2.5V | 08:04:01 | 02:48:42 | 00:00:00 | |
| HSKMA3-T | 2026-09-01 01:06:14 | 51.31170 | 8.23823 | 83° | 33km/h | 15382m | -6.2m/s | -51°C | 0.1% | 118.7hPa | 2.5V | 08:04:01 | 02:48:40 | 00:00:00 | |
| BIOWL1-15 | 2026-09-01 01:06:13 | 51.31170 | 8.23796 | 98° | 37km/h | 15394m | -6.1m/s | -50.9°C | 0.1% | 118.5hPa | 2.6V | 08:04:01 | 02:48:38 | 00:00:00 | |
| DL3AQ-11 | 2026-09-01 01:06:13 | 51.31170 | 8.23796 | 97° | 35km/h | 15394m | -6.1m/s | -50.9°C | 1.1% | 118.5hPa | 2.5V | 00:00:00 | 00:00:00 | 00:00:00 | |
| DL1XH1-15 | 2026-09-01 01:06:12 | 51.31174 | 8.23765 | 106° | 44km/h | 15406m | -5.7m/s | -50.9°C | 3.4% | 118.3hPa | 2.5V | 08:03:43 | 02:48:36 | 00:00:00 | |
| DL1XH-west | 2026-09-01 01:06:11 | 51.31172 | 8.23781 | 103° | 38km/h | 15400m | -6m/s | -50.9°C | 0.1% | 118.4hPa | 2.5V | 08:04:01 | 02:48:37 | 00:00:00 | |
| DO3MHA-12 | 2026-09-01 01:06:09 | 51.31178 | 8.23748 | 108° | 57km/h | 15411m | -5.9m/s | -50.9°C | 3.4% | 118.2hPa | 2.5V | 00:00:00 | 02:48:35 | 00:00:00 | |
| DJ3KS | 2026-09-01 01:06:08 | 51.31178 | 8.23748 | 109° | 46km/h | 15411m | -6.0m/s | -51.0°C | 1.1% | 118.3hPa | 2.5V | 00:00:00 | 00:00:00 | 00:00:00 | |
| DL1XH-15 | 2026-09-01 01:06:07 | 51.31194 | 8.23668 | 107° | 58km/h | 15435m | -6.5m/s | -51.1°C | 3.4% | 117.8hPa | 2.5V | 08:03:48 | 02:48:31 | 00:00:00 | |
| DO2JMG | 2026-09-01 01:06:06 | 51.31189 | 8.23690 | 108° | 55km/h | 15429m | -6.5m/s | -51°C | 0.2% | 117.9hPa | 2.5V | 08:04:52 | 02:48:32 | 00:00:00 | |
| DO1YAY-16 | 2026-09-01 01:06:06 | 51.31193 | 8.23668 | 107° | 57km/h | 15435m | -6.5m/s | -51.1°C | 1.1% | 117.8hPa | 2.5V | 00:00:00 | 00:00:00 | 00:00:00 | |
| DL1XH1-15 | 2026-09-01 01:06:05 | 51.31210 | 8.23545 | 97° | 66km/h | 15466m | -6.3m/s | -51.2°C | 3.5% | 117.2hPa | 2.5V | 08:03:53 | 02:48:26 | 00:00:00 | |
| HSKMA3-T | 2026-09-01 01:06:04 | 51.31197 | 8.23645 | 104° | 60km/h | 15441m | -6.3m/s | -51.1°C | 0.2% | 117.7hPa | 2.5V | 08:04:01 | 02:48:30 | 00:00:00 | |
| DM0DOS-11 | 2026-09-01 01:06:02 | 51.31213 | 8.23463 | 89° | 69km/h | 15484m | -5.9m/s | -51.1°C | 3.5% | 116.9hPa | 2.6V | 08:03:56 | 02:48:23 | 00:00:00 | |
| DL1XH-west | 2026-09-01 01:06:01 | 51.31208 | 8.23571 | 99° | 66km/h | 15460m | -6.6m/s | -51.2°C | 0.2% | 117.3hPa | 2.5V | 08:04:01 | 02:48:27 | 00:00:00 | |
| DO3MHA-12 | 2026-09-01 01:05:59 | 51.31212 | 8.23518 | 96° | 68km/h | 15472m | -6.4m/s | -51.1°C | 3.5% | 117.0hPa | 2.6V | 00:00:00 | 02:48:25 | 00:00:00 | |
| DJ2DS-15 | 2026-09-01 01:05:58 | 51.31213 | 8.23491 | 92° | 66km/h | 15478m | -6.4m/s | -51.1°C | 3.5% | 116.9hPa | 2.6V | 08:03:00 | 02:48:24 | 00:00:00 | |
| DL1XH-15 | 2026-09-01 01:05:57 | 51.31212 | 8.23407 | 86° | 71km/h | 15495m | -6.5m/s | -51.1°C | 3.5% | 116.7hPa | 2.5V | 08:03:58 | 02:48:21 | 00:00:00 | |
| DO2JMG | 2026-09-01 01:05:56 | 51.31213 | 8.23435 | 88° | 68km/h | 15490m | -6.4m/s | -51.1°C | 0.2% | 116.8hPa | 2.5V | 08:04:52 | 02:48:22 | 00:00:00 | |
| HSKMA3-T | 2026-09-01 01:05:53 | 51.31209 | 8.23351 | 82° | 71km/h | 15507m | -6.5m/s | -51.2°C | 0.2% | 116.5hPa | 2.6V | 08:04:01 | 02:48:19 | 00:00:00 | |
| DL1XH1-15 | 2026-09-01 01:05:52 | 51.31201 | 8.23271 | 79° | 66km/h | 15525m | -6.6m/s | -51.2°C | 3.5% | 116.1hPa | 2.5V | 08:04:03 | 02:48:16 | 00:00:00 | |
| DM0DOS-11 | 2026-09-01 01:05:52 | 51.31190 | 8.23193 | 75° | 62km/h | 15543m | -6.4m/s | -51.3°C | 3.5% | 115.8hPa | 2.6V | 08:04:06 | 02:48:13 | 00:00:00 | |
| BIOWL1-15 | 2026-09-01 01:05:51 | 51.31204 | 8.23297 | 81° | 66km/h | 15519m | -6.7m/s | -51.2°C | 0.2% | 116.3hPa | 2.5V | 08:04:52 | 02:48:17 | 00:00:00 | |
| DL1XH-west | 2026-09-01 01:05:50 | 51.31201 | 8.23271 | 80° | 66km/h | 15525m | -6.6m/s | -51.2°C | 0.2% | 116.1hPa | 2.5V | 08:04:52 | 02:48:16 | 00:00:00 | |
| DL1ZP-14 | 2026-09-01 01:05:49 | 51.31194 | 8.23218 | 76° | 66km/h | 15537m | -6.6m/s | -51.3°C | 1.1% | 115.9hPa | 2.6V | 00:00:00 | 00:00:00 | 00:00:00 | |
| DO9LL-15 | 2026-09-01 01:05:48 | 51.31194 | 8.23218 | 77° | 46km/h | 15537m | -6.6m/s | -51.2°C | 3.5% | 115.9hPa | 2.5V | 00:00:00 | 02:48:14 | 00:00:00 | |
| DL1XH-15 | 2026-09-01 01:05:47 | 51.31181 | 8.23144 | 72° | 66km/h | 15555m | -6.3m/s | -51.2°C | 3.4% | 115.6hPa | 2.5V | 08:04:08 | 02:48:11 | 00:00:00 | |
| DO3MHA-11 | 2026-09-01 01:05:47 | 51.31190 | 8.23193 | 76° | 60km/h | 15544m | -6.4m/s | -51.2°C | 3.5% | 115.8hPa | 2.6V | 08:04:00 | 02:48:13 | 00:00:00 | |
| DL1XH1-15 | 2026-09-01 01:05:45 | 51.31151 | 8.23029 | 60° | 57km/h | 15586m | -6.8m/s | -51.3°C | 3.5% | 115hPa | 2.5V | 08:04:13 | 02:48:06 | 00:00:00 | |
| DD8BA-10 | 2026-09-01 01:05:45 | 51.31181 | 8.23143 | 73° | 57km/h | 15555m | -6.2m/s | -51.2°C | 3.4% | 115.5hPa | 2.5V | 00:00:00 | 00:00:00 | 00:00:00 | |
| DL1NUX | 2026-09-01 01:05:44 | 51.31144 | 8.23010 | 57° | 53km/h | 15593m | -6.9m/s | -51.3°C | 3.5% | 114.9hPa | 2.5V | 08:04:14 | 02:48:05 | 00:00:00 | |
| HSKMA3-T | 2026-09-01 01:05:43 | 51.31171 | 8.23095 | 69° | 64km/h | 15567m | -6.6m/s | -51.2°C | 0.2% | 115.4hPa | 2.6V | 08:04:52 | 02:48:09 | 00:00:00 | |
| AA1-15 | 2026-09-01 01:05:42 | 51.31165 | 8.23072 | 66° | 62km/h | 15573m | -6.8m/s | -51.2°C | 0.1% | 115.3hPa | 2.6V | 08:04:52 | 02:48:08 | 00:00:00 | |
| BIOWL1-15 | 2026-09-01 01:05:40 | 51.31151 | 8.23029 | 61° | 57km/h | 15586m | -6.9m/s | -51.3°C | 0.2% | 115hPa | 2.5V | 08:04:52 | 02:48:06 | 00:00:00 | |
| HSKMA3-T | 2026-09-01 01:05:34 | 51.31109 | 8.22921 | 60° | 31km/h | 15630m | -6.6m/s | -51.2°C | 0.2% | 114.3hPa | 2.6V | 08:04:52 | 02:47:59 | 00:00:00 | |
| AA1-15 | 2026-09-01 01:05:33 | 51.31105 | 8.22910 | 67° | 27km/h | 15636m | -6.4m/s | -51.3°C | 0.2% | 114.2hPa | 2.6V | 08:04:52 | 02:47:58 | 00:00:00 | |
| AM1SDL-15 | 2026-09-01 01:05:33 | 51.31105 | 8.22910 | 68° | 33km/h | 15636m | -6.3m/s | -51.2°C | 3.5% | 114.1hPa | 2.6V | 00:00:00 | 02:47:58 | 00:00:00 | |
| DL1XH1-15 | 2026-09-01 01:05:32 | 51.31101 | 8.22889 | 74° | 24km/h | 15648m | -6.4m/s | -51.3°C | 3.4% | 114hPa | 2.5V | 08:04:23 | 02:47:56 | 00:00:00 | |
| BIOWL1-15 | 2026-09-01 01:05:32 | 51.31101 | 8.22830 | 103° | 33km/h | 15679m | -6.8m/s | -51.5°C | 0.2% | 113.4hPa | 2.5V | 08:04:52 | 02:47:51 | 00:00:00 | |
| DL1XH-west | 2026-09-01 01:05:30 | 51.31101 | 8.22889 | 74° | 24km/h | 15648m | -6.4m/s | -51.3°C | 0.1% | 114hPa | 2.5V | 08:04:52 | 02:47:56 | 00:00:00 | |
| DO3MHA-12 | 2026-09-01 01:05:29 | 51.31100 | 8.22879 | 85° | 42km/h | 15654m | -6.4m/s | -51.3°C | 3.5% | 113.8hPa | 2.6V | 00:00:00 | 02:47:55 | 00:00:00 | |
| DM0DOS-11 | 2026-09-01 01:05:28 | 51.31099 | 8.22856 | 90° | 29km/h | 15666m | -6.5m/s | -51.4°C | 3.5% | 113.6hPa | 2.6V | 08:04:26 | 02:47:53 | 00:00:00 | |
| DF8AY | 2026-09-01 01:05:27 | 51.31099 | 8.22856 | 91° | 29km/h | 15666m | -6.5m/s | -51.4°C | 0.2% | 113.7hPa | 2.6V | 08:05:43 | 02:47:53 | 00:00:00 | |
| DB0UT-7 | 2026-09-01 01:05:27 | 51.31099 | 8.22856 | 91° | 40km/h | 15666m | -6.4m/s | -51.4°C | 3.5% | 113.6hPa | 2.5V | 00:00:00 | 02:47:53 | 00:00:00 | |
| DL1LOL-11 | 2026-09-01 01:05:26 | 51.31099 | 8.22856 | 92° | 29km/h | 15666m | -6.5m/s | -51.4°C | 1.1% | 113.6hPa | 2.5V | 00:00:00 | 00:00:00 | 00:00:00 | |
| DL1XH1-15 | 2026-09-01 01:05:25 | 51.31114 | 8.22742 | 101° | 55km/h | 15710m | -6.7m/s | -51.7°C | 3.5% | 112.9hPa | 2.5V | 08:04:33 | 02:47:46 | 00:00:00 | |
| SONCRA | 2026-09-01 01:05:25 | 51.31104 | 8.22816 | 103° | 37km/h | 15685m | -6.6m/s | -51.5°C | 1.1% | 113.3hPa | 2.5V | 00:00:00 | 00:00:00 | 00:00:00 | |
| DL1NUX | 2026-09-01 01:05:24 | 51.31116 | 8.22720 | 96° | 55km/h | 15717m | -6.3m/s | -51.6°C | 3.6% | 112.8hPa | 2.5V | 08:04:34 | 02:47:45 | 00:00:00 | |
| HSKMA3-T | 2026-09-01 01:05:22 | 51.31109 | 8.22783 | 103° | 46km/h | 15698m | -6.7m/s | -51.6°C | 0.2% | 113.1hPa | 2.6V | 08:04:52 | 02:47:48 | 00:00:00 | |
| AA1-15 | 2026-09-01 01:05:21 | 51.31111 | 8.22763 | 101° | 53km/h | 15704m | -6.6m/s | -51.6°C | 0.2% | 113hPa | 2.5V | 08:04:52 | 02:47:47 | 00:00:00 | |
| BIOWL1-15 | 2026-09-01 01:05:21 | 51.31104 | 8.22582 | 67° | 53km/h | 15753m | -6.2m/s | -51.8°C | 0.3% | 112.1hPa | 2.6V | 08:04:52 | 02:47:39 | 00:00:00 | |
| DL1XH-west | 2026-09-01 01:05:19 | 51.31116 | 8.22720 | 96° | 55km/h | 15717m | -6.3m/s | -51.7°C | 0.2% | 112.8hPa | 2.5V | 08:04:52 | 02:47:45 | 00:00:00 | |
| DM0DOS-11 | 2026-09-01 01:05:18 | 51.31117 | 8.22673 | 86° | 60km/h | 15729m | -6.2m/s | -51.6°C | 3.6% | 112.6hPa | 2.6V | 08:04:36 | 02:47:43 | 00:00:00 | |
| DF8AY | 2026-09-01 01:05:16 | 51.31116 | 8.22649 | 83° | 58km/h | 15735m | -6.4m/s | -51.7°C | 0.3% | 112.5hPa | 2.5V | 08:05:43 | 02:47:42 | 00:00:00 | |
| DL8DAS-14 | 2026-09-01 01:05:16 | 51.31113 | 8.22626 | 76° | 58km/h | 15740m | -6.2m/s | -51.7°C | 1.1% | 112.4hPa | 2.5V | 00:00:00 | 00:00:00 | 00:00:00 | |
| DD8BA-10 | 2026-09-01 01:05:15 | 51.31113 | 8.22626 | 77° | 47km/h | 15741m | -6.2m/s | -51.7°C | 3.6% | 112.3hPa | 2.5V | 00:00:00 | 00:00:00 | 00:00:00 | |
| DL1NUX | 2026-09-01 01:05:14 | 51.31081 | 8.22513 | 56° | 42km/h | 15777m | -6.3m/s | -51.7°C | 3.6% | 111.7hPa | 2.5V | 08:04:44 | 02:47:35 | 00:00:00 | |
| GOEST3-10 | 2026-09-01 01:05:13 | 51.31104 | 8.22582 | 68° | 46km/h | 15753m | -6.2m/s | -51.7°C | 3.6% | 112.1hPa | 2.6V | 00:00:00 | 00:00:00 | 00:00:00 | |
| DL1XH1-15 | 2026-09-01 01:05:12 | 51.31087 | 8.22528 | 57° | 46km/h | 15771m | -6.3m/s | -51.7°C | 3.6% | 111.8hPa | 2.5V | 08:04:43 | 02:47:36 | 00:00:00 | |
| HSKMA3-T | 2026-09-01 01:05:12 | 51.31099 | 8.22562 | 63° | 51km/h | 15759m | -6.4m/s | -51.8°C | 0.3% | 112.1hPa | 2.6V | 08:04:52 | 02:47:38 | 00:00:00 | |
| AA1-15 | 2026-09-01 01:05:10 | 51.31087 | 8.22528 | 58° | 46km/h | 15771m | -6.3m/s | -51.7°C | 0.2% | 111.8hPa | 2.5V | 08:04:52 | 02:47:36 | 00:00:00 | |
| DL1XH-west | 2026-09-01 01:05:09 | 51.31081 | 8.22513 | 57° | 42km/h | 15777m | -6.3m/s | -51.7°C | 0.2% | 111.7hPa | 2.5V | 08:04:52 | 02:47:35 | 00:00:00 | |
| DL1XH-15 | 2026-09-01 01:05:08 | 51.31060 | 8.22465 | 56° | 27km/h | 15802m | -6.3m/s | -51.6°C | 3.5% | 111.3hPa | 2.5V | 08:04:48 | 02:47:31 | 00:00:00 | |
| BIOWL1-15 | 2026-09-01 01:05:07 | 51.31053 | 8.22422 | 99° | 20km/h | 15833m | -6.4m/s | -51.8°C | 0.2% | 110.8hPa | 2.5V | 08:05:43 | 02:47:26 | 00:00:00 | |
| DF8AY | 2026-09-01 01:05:05 | 51.31060 | 8.22465 | 57° | 27km/h | 15802m | -6.3m/s | -51.6°C | 0.2% | 111.3hPa | 2.5V | 08:05:43 | 02:47:31 | 00:00:00 | |
| DD8BA-10 | 2026-09-01 01:05:05 | 51.31060 | 8.22465 | 57° | 26km/h | 15802m | -6.3m/s | -51.5°C | 3.5% | 111.2hPa | 2.5V | 00:00:00 | 00:00:00 | 00:00:00 | |
| DL1NUX | 2026-09-01 01:05:04 | 51.31054 | 8.22414 | 103° | 22km/h | 15839m | -6.9m/s | -51.8°C | 3.6% | 110.7hPa | 2.5V | 08:04:54 | 02:47:25 | 00:00:00 | |
| HSKMA3-T | 2026-09-01 01:05:02 | 51.31053 | 8.22439 | 77° | 20km/h | 15821m | -6.3m/s | -51.7°C | 0.2% | 111hPa | 2.6V | 08:04:52 | 02:47:28 | 00:00:00 | |
| DL1XH-west | 2026-09-01 01:04:59 | 51.31054 | 8.22414 | 104° | 22km/h | 15839m | -6.9m/s | -51.8°C | 0.2% | 110.7hPa | 2.5V | 08:05:43 | 02:47:25 | 00:00:00 | |
| DJ2DS-15 | 2026-09-01 01:04:58 | 51.31056 | 8.22405 | 106° | 46km/h | 15846m | -6.6m/s | -51.7°C | 3.6% | 110.5hPa | 2.6V | 00:00:00 | 02:47:24 | 00:00:00 | |
| DB0UT-7 | 2026-09-01 01:04:57 | 51.31059 | 8.22395 | 110° | 40km/h | 15852m | -6.5m/s | -51.7°C | 3.5% | 110.4hPa | 2.6V | 00:00:00 | 00:00:00 | 00:00:00 | |
| DL1XH-15 | 2026-09-01 01:04:56 | 51.31065 | 8.22370 | 112° | 37km/h | 15865m | -6.5m/s | -51.7°C | 3.5% | 110.2hPa | 2.5V | 08:04:58 | 02:47:21 | 00:00:00 | |
| DF8AY | 2026-09-01 01:04:55 | 51.31065 | 8.22370 | 113° | 37km/h | 15865m | -6.5m/s | -51.7°C | 0.2% | 110.2hPa | 2.5V | 08:05:43 | 02:47:21 | 00:00:00 | |
| DD8BA-10 | 2026-09-01 01:04:55 | 51.31065 | 8.22369 | 113° | 47km/h | 15865m | -6.4m/s | -51.6°C | 3.5% | 110.2hPa | 2.5V | 00:00:00 | 00:00:00 | 00:00:00 | |
| DL1NUX | 2026-09-01 01:04:54 | 51.31089 | 8.22268 | 105° | 55km/h | 15903m | -7.3m/s | -51.5°C | 3.5% | 109.6hPa | 2.5V | 08:05:04 | 02:47:15 | 00:00:00 | |
| HSKMA3-T | 2026-09-01 01:04:51 | 51.31081 | 8.22307 | 111° | 47km/h | 15890m | -6.6m/s | -51.6°C | 0.1% | 109.8hPa | 2.5V | 08:05:43 | 02:47:17 | 00:00:00 | |
| DL1XH-15 | 2026-09-01 01:04:50 | 51.31096 | 8.22179 | 86° | 55km/h | 15928m | -6.2m/s | -51.6°C | 3.5% | 109.1hPa | 2.5V | 08:05:08 | 02:47:11 | 00:00:00 | |
| AA1-15 | 2026-09-01 01:04:48 | 51.31092 | 8.22247 | 102° | 53km/h | 15910m | -6.3m/s | -51.5°C | 0.1% | 109.5hPa | 2.6V | 08:05:43 | 02:47:14 | 00:00:00 | |
| DO3MHA-12 | 2026-09-01 01:04:48 | 51.31092 | 8.22247 | 103° | 53km/h | 15910m | -6.3m/s | -51.4°C | 3.5% | 109.4hPa | 2.6V | 00:00:00 | 02:47:14 | 00:00:00 | |
| DO3MHA-11 | 2026-09-01 01:04:47 | 51.31095 | 8.22225 | 99° | 51km/h | 15916m | -6.6m/s | -51.4°C | 3.5% | 109.3hPa | 2.6V | 00:00:00 | 02:47:13 | 00:00:00 | |
| DO3DL | 2026-09-01 01:04:46 | 51.31095 | 8.22225 | 99° | 58km/h | 15916m | -6.6m/s | -51.5°C | 1.1% | 109.3hPa | 2.5V | 08:05:00 | 00:00:00 | 00:00:00 | |
| DL1XH1-15 | 2026-09-01 01:04:45 | 51.31079 | 8.22077 | 64° | 44km/h | 15959m | -6.5m/s | -51.7°C | 3.5% | 108.6hPa | 2.5V | 08:05:13 | 02:47:06 | 00:00:00 | |
| DF8AY | 2026-09-01 01:04:44 | 51.31095 | 8.22157 | 83° | 55km/h | 15934m | -6.5m/s | -51.6°C | 0.2% | 109hPa | 2.5V | 08:05:43 | 02:47:10 | 00:00:00 | |
| HSKMA3-T | 2026-09-01 01:04:41 | 51.31084 | 8.22094 | 68° | 47km/h | 15953m | -6.4m/s | -51.7°C | 0.2% | 108.7hPa | 2.5V | 08:05:43 | 02:47:07 | 00:00:00 | |
| AM1SDL-15 | 2026-09-01 01:04:40 | 51.31080 | 8.22077 | 65° | 47km/h | 15959m | -6.5m/s | -51.7°C | 3.5% | 108.6hPa | 2.6V | 00:00:00 | 02:47:06 | 00:00:00 | |
| DO3DL | 2026-09-01 01:04:39 | 51.31079 | 8.22077 | 65° | 44km/h | 15959m | -6.6m/s | -51.7°C | 1.1% | 108.6hPa | 2.6V | 08:05:00 | 00:00:00 | 00:00:00 | |
| DM0DOS-11 | 2026-09-01 01:04:38 | 51.31064 | 8.22034 | 57° | 37km/h | 15978m | -6.4m/s | -51.6°C | 3.5% | 108.3hPa | 2.6V | 08:05:16 | 02:47:03 | 00:00:00 | |
| DL1XH-west | 2026-09-01 01:04:38 | 51.31069 | 8.22047 | 58° | 40km/h | 15972m | -6.7m/s | -51.6°C | 0.2% | 108.4hPa | 2.6V | 08:05:43 | 02:47:04 | 00:00:00 | |
| DO3MHA-12 | 2026-09-01 01:04:38 | 51.31069 | 8.22047 | 59° | 27km/h | 15972m | -6.7m/s | -51.6°C | 3.5% | 108.4hPa | 2.5V | 00:00:00 | 02:47:04 | 00:00:00 | |
| DL1XH-15 | 2026-09-01 01:04:37 | 51.31055 | 8.22013 | 53° | 29km/h | 15991m | -6.7m/s | -51.7°C | 3.5% | 108.1hPa | 2.5V | 08:05:18 | 02:47:01 | 00:00:00 | |
| AA1-15 | 2026-09-01 01:04:37 | 51.31064 | 8.22034 | 57° | 37km/h | 15978m | -6.4m/s | -51.6°C | 0.1% | 108.3hPa | 2.6V | 08:05:43 | 02:47:03 | 00:00:00 | |
| DF8AY | 2026-09-01 01:04:34 | 51.31051 | 8.22004 | 62° | 27km/h | 15997m | -6.4m/s | -51.8°C | 0.2% | 108hPa | 2.5V | 08:05:43 | 02:47:00 | 00:00:00 | |
| BIOWL9-15 | 2026-09-01 01:04:33 | 51.31048 | 8.21995 | 61° | 22km/h | 16003m | -6.1m/s | -51.9°C | 1.1% | 107.9hPa | 2.5V | 00:00:00 | 00:00:00 | 00:00:00 | |
| DL1XH1-15 | 2026-09-01 01:04:32 | 51.31046 | 8.21969 | 92° | 24km/h | 16020m | -6.5m/s | -52°C | 3.6% | 107.6hPa | 2.5V | 08:05:23 | 02:46:56 | 00:00:00 | |
| DM0DOS-11 | 2026-09-01 01:04:32 | 51.31050 | 8.21936 | 108° | 31km/h | 16040m | -6.6m/s | -52°C | 3.6% | 107.3hPa | 2.6V | 08:05:26 | 02:46:53 | 00:00:00 | |
| HSKMA3-T | 2026-09-01 01:04:31 | 51.31046 | 8.21978 | 85° | 20km/h | 16015m | -6.4m/s | -52°C | 0.2% | 107.7hPa | 2.5V | 08:05:43 | 02:46:57 | 00:00:00 | |
| DL1XH-15 | 2026-09-01 01:04:30 | 51.31056 | 8.21909 | 105° | 37km/h | 16052m | -6.5m/s | -52°C | 3.6% | 107.1hPa | 2.5V | 08:05:28 | 02:46:51 | 00:00:00 | |
| DL1XH-west | 2026-09-01 01:04:28 | 51.31048 | 8.21948 | 107° | 29km/h | 16033m | -6.6m/s | -52°C | 0.2% | 107.4hPa | 2.6V | 08:05:43 | 02:46:54 | 00:00:00 | |
| AA1-15 | 2026-09-01 01:04:26 | 51.31053 | 8.21923 | 106° | 37km/h | 16046m | -6.4m/s | -52°C | 0.3% | 107.2hPa | 2.5V | 08:05:43 | 02:46:52 | 00:00:00 | |
| DL3AQ-11 | 2026-09-01 01:04:26 | 51.31056 | 8.21909 | 105° | 37km/h | 16053m | -6.5m/s | -52.0°C | 1.1% | 107.1hPa | 2.5V | 00:00:00 | 00:00:00 | 00:00:00 | |
| DL1XH1-15 | 2026-09-01 01:04:25 | 51.31071 | 8.21823 | 101° | 55km/h | 16083m | -7m/s | -51.8°C | 3.6% | 106.6hPa | 2.5V | 08:05:33 | 02:46:46 | 00:00:00 | |
| DD8BA-10 | 2026-09-01 01:04:25 | 51.31056 | 8.21909 | 106° | 49km/h | 16053m | -6.5m/s | -52.0°C | 3.6% | 107.1hPa | 2.5V | 00:00:00 | 00:00:00 | 00:00:00 | |
| DL1NUX | 2026-09-01 01:04:24 | 51.31074 | 8.21801 | 100° | 55km/h | 16090m | -6.8m/s | -51.8°C | 3.6% | 106.5hPa | 2.5V | 08:05:34 | 02:46:45 | 00:00:00 | |
| DF8AY | 2026-09-01 01:04:23 | 51.31062 | 8.21880 | 106° | 40km/h | 16065m | -6.4m/s | -51.9°C | 0.2% | 107hPa | 2.6V | 08:05:43 | 02:46:49 | 00:00:00 | |
| BIOWL1-15 | 2026-09-01 01:04:20 | 51.31076 | 8.21779 | 98° | 58km/h | 16096m | -6.5m/s | -51.8°C | 0.2% | 106.4hPa | 2.6V | 08:05:43 | 02:46:44 | 00:00:00 | |
| DD1CC3-15 | 2026-09-01 01:04:20 | 51.31068 | 8.21844 | 104° | 51km/h | 16077m | -6.5m/s | -51.9°C | 1.1% | 106.7hPa | 2.5V | 08:05:00 | 00:00:00 | 00:00:00 | |
| HSKMA3-T | 2026-09-01 01:04:20 | 51.31071 | 8.21823 | 102° | 55km/h | 16083m | -7m/s | -51.8°C | 0.2% | 106.6hPa | 2.5V | 08:05:43 | 02:46:46 | 00:00:00 | |
| DL3OBA | 2026-09-01 01:04:19 | 51.31071 | 8.21823 | 103° | 55km/h | 16084m | -7.0m/s | -51.8°C | 1.1% | 106.6hPa | 2.5V | 08:05:00 | 00:00:00 | 00:00:00 | |
| DO9LL-15 | 2026-09-01 01:04:18 | 51.31076 | 8.21779 | 99° | 47km/h | 16096m | -6.5m/s | -51.8°C | 3.6% | 106.3hPa | 2.5V | 00:00:00 | 02:46:44 | 00:00:00 | |
| DL1XH-15 | 2026-09-01 01:04:17 | 51.31081 | 8.21707 | 93° | 62km/h | 16115m | -6.6m/s | -51.9°C | 3.6% | 106hPa | 2.5V | 08:05:38 | 02:46:41 | 00:00:00 | |
| DL1XH-west | 2026-09-01 01:04:17 | 51.31078 | 8.21755 | 97° | 58km/h | 16103m | -6.6m/s | -51.8°C | 0.2% | 106.2hPa | 2.6V | 08:05:43 | 02:46:43 | 00:00:00 | |
| AA1-15 | 2026-09-01 01:04:16 | 51.31080 | 8.21731 | 96° | 58km/h | 16109m | -6.3m/s | -51.8°C | 0.2% | 106.2hPa | 2.5V | 08:05:43 | 02:46:42 | 00:00:00 | |
| HTAHTA | 2026-09-01 01:04:16 | 51.31081 | 8.21707 | 93° | 60km/h | 16115m | -6.6m/s | -51.9°C | 1.1% | 106.0hPa | 2.5V | 00:00:00 | 00:00:00 | 00:00:00 | |
| DD8BA-10 | 2026-09-01 01:04:15 | 51.31081 | 8.21707 | 94° | 62km/h | 16115m | -6.6m/s | -51.8°C | 3.6% | 106.0hPa | 2.5V | 00:00:00 | 00:00:00 | 00:00:00 | |
| DL1NUX | 2026-09-01 01:04:14 | 51.31070 | 8.21550 | 72° | 64km/h | 16151m | -6.5m/s | -52°C | 3.7% | 105.4hPa | 2.5V | 08:05:44 | 02:46:35 | 00:00:00 | |
| DF8AY | 2026-09-01 01:04:13 | 51.31082 | 8.21656 | 87° | 64km/h | 16127m | -6.6m/s | -51.9°C | 0.2% | 105.8hPa | 2.6V | 08:05:43 | 02:46:39 | 00:00:00 | |
| DL3AQ-11 | 2026-09-01 01:04:13 | 51.31080 | 8.21629 | 82° | 69km/h | 16133m | -6.5m/s | -52.0°C | 1.1% | 105.8hPa | 2.5V | 00:00:00 | 00:00:00 | 00:00:00 | |
| DL1XH1-15 | 2026-09-01 01:04:12 | 51.31075 | 8.21576 | 76° | 68km/h | 16145m | -6.4m/s | -52°C | 3.7% | 105.5hPa | 2.5V | 08:05:43 | 02:46:36 | 00:00:00 | |
| BIOWL1-15 | 2026-09-01 01:04:10 | 51.31065 | 8.21527 | 68° | 57km/h | 16157m | -6.8m/s | -51.9°C | 0.3% | 105.3hPa | 2.6V | 08:06:34 | 02:46:34 | 00:00:00 | |
| HSKMA3-T | 2026-09-01 01:04:10 | 51.31075 | 8.21576 | 77° | 68km/h | 16145m | -6.4m/s | -52°C | 0.3% | 105.5hPa | 2.5V | 08:05:43 | 02:46:36 | 00:00:00 | |
| DL1XH-west | 2026-09-01 01:04:07 | 51.31060 | 8.21507 | 67° | 53km/h | 16164m | -6.3m/s | -51.8°C | 0.2% | 105.3hPa | 2.6V | 08:06:34 | 02:46:33 | 00:00:00 | |
| AA1-15 | 2026-09-01 01:04:06 | 51.31055 | 8.21488 | 65° | 51km/h | 16170m | -6.8m/s | -51.7°C | 0.2% | 105.1hPa | 2.5V | 08:06:34 | 02:46:32 | 00:00:00 | |
| DL1NUX | 2026-09-01 01:04:04 | 51.31030 | 8.21400 | 80° | 26km/h | 16216m | -7.1m/s | -51.8°C | 3.6% | 104.4hPa | 2.5V | 08:05:54 | 02:46:25 | 00:00:00 | |
| BIOWL1-15 | 2026-09-01 01:04:02 | 51.31029 | 8.21390 | 93° | 24km/h | 16223m | -6.4m/s | -51.7°C | 0.2% | 104.3hPa | 2.6V | 08:06:34 | 02:46:24 | 00:00:00 | |
| DF8AY | 2026-09-01 01:04:02 | 51.31036 | 8.21432 | 62° | 31km/h | 16196m | -7m/s | -51.9°C | 0.2% | 104.7hPa | 2.6V | 08:06:34 | 02:46:28 | 00:00:00 | |
| DO2JMG | 2026-09-01 01:04:01 | 51.31033 | 8.21420 | 69° | 31km/h | 16203m | -7.5m/s | -51.9°C | 0.2% | 104.6hPa | 2.5V | 08:07:25 | 02:46:27 | 00:00:00 | |
| HSKMA3-T | 2026-09-01 01:04:00 | 51.31031 | 8.21410 | 75° | 26km/h | 16210m | -6.6m/s | -51.8°C | 0.2% | 104.5hPa | 2.5V | 08:06:34 | 02:46:26 | 00:00:00 | |
| DL1XH-west | 2026-09-01 01:03:56 | 51.31032 | 8.21369 | 104° | 33km/h | 16235m | -6.8m/s | -51.5°C | 0.2% | 104.1hPa | 2.5V | 08:06:34 | 02:46:22 | 00:00:00 | |
| AA1-15 | 2026-09-01 01:03:56 | 51.31034 | 8.21356 | 106° | 37km/h | 16241m | -7m/s | -51.4°C | 0.1% | 104hPa | 2.5V | 08:06:34 | 02:46:21 | 00:00:00 | |
| DD8BA-10 | 2026-09-01 01:03:55 | 51.31034 | 8.21356 | 106° | 51km/h | 16242m | -6.9m/s | -51.3°C | 3.4% | 104.0hPa | 2.6V | 00:00:00 | 00:00:00 | 00:00:00 | |
| AM1SDL-15 | 2026-09-01 01:03:53 | 51.31040 | 8.21326 | 109° | 55km/h | 16255m | -6.2m/s | -51.3°C | 3.4% | 103.7hPa | 2.6V | 08:06:00 | 02:46:19 | 00:00:00 | |
| DL1XH1-15 | 2026-09-01 01:03:52 | 51.31052 | 8.21269 | 107° | 55km/h | 16274m | -6.6m/s | -51.4°C | 3.5% | 103.5hPa | 2.5V | 08:06:03 | 02:46:16 | 00:00:00 | |
| DF8AY | 2026-09-01 01:03:52 | 51.31044 | 8.21308 | 109° | 49km/h | 16261m | -6.6m/s | -51.3°C | 0.1% | 103.7hPa | 2.6V | 08:06:34 | 02:46:18 | 00:00:00 | |
| DO2JMG | 2026-09-01 01:03:51 | 51.31048 | 8.21289 | 108° | 53km/h | 16267m | -6.5m/s | -51.4°C | 0.2% | 103.6hPa | 2.5V | 08:07:25 | 02:46:17 | 00:00:00 | |
| HSKMA3-T | 2026-09-01 01:03:49 | 51.31057 | 8.21247 | 107° | 57km/h | 16280m | -6.4m/s | -51.5°C | 0.2% | 103.4hPa | 2.5V | 08:06:34 | 02:46:15 | 00:00:00 | |
| BIOWL1-15 | 2026-09-01 01:03:47 | 51.31065 | 8.21202 | 105° | 58km/h | 16293m | -6.8m/s | -51.5°C | 0.1% | 103.2hPa | 2.6V | 08:06:34 | 02:46:13 | 00:00:00 | |
| DL1XH-west | 2026-09-01 01:03:46 | 51.31068 | 8.21180 | 100° | 58km/h | 16299m | -6.3m/s | -51.5°C | 0.1% | 103.1hPa | 2.5V | 08:06:34 | 02:46:12 | 00:00:00 | |
| AA1-15 | 2026-09-01 01:03:45 | 51.31071 | 8.21132 | 94° | 62km/h | 16311m | -6.4m/s | -51.5°C | 0.1% | 102.8hPa | 2.5V | 08:06:34 | 02:46:10 | 00:00:00 | |
| DL1ZP-14 | 2026-09-01 01:03:44 | 51.31071 | 8.21132 | 93° | 60km/h | 16312m | -6.4m/s | -51.5°C | 1.0% | 102.8hPa | 2.5V | 00:00:00 | 00:00:00 | 00:00:00 | |
| DF8AY | 2026-09-01 01:03:41 | 51.31071 | 8.21061 | 83° | 60km/h | 16330m | -6.5m/s | -51.5°C | 0.1% | 102.6hPa | 2.5V | 08:06:34 | 02:46:07 | 00:00:00 | |
| DO2JMG | 2026-09-01 01:03:40 | 51.31069 | 8.21037 | 80° | 60km/h | 16336m | -6.3m/s | -51.5°C | 0.1% | 102.5hPa | 2.5V | 08:07:25 | 02:46:06 | 00:00:00 | |
| HSKMA3-T | 2026-09-01 01:03:39 | 51.31066 | 8.21013 | 78° | 60km/h | 16342m | -6.4m/s | -51.5°C | 0.1% | 102.4hPa | 2.5V | 08:06:34 | 02:46:05 | 00:00:00 | |
| DM0DOS-11 | 2026-09-01 01:03:38 | 51.31059 | 8.20968 | 74° | 57km/h | 16355m | -6.5m/s | -51.5°C | 3.4% | 102.2hPa | 2.6V | 08:06:16 | 02:46:03 | 00:00:00 | |
| BIOWL1-15 | 2026-09-01 01:03:37 | 51.31059 | 8.20968 | 75° | 57km/h | 16355m | -6.5m/s | -51.5°C | 0.1% | 102.2hPa | 2.6V | 08:06:34 | 02:46:03 | 00:00:00 | |
| DL1XH-west | 2026-09-01 01:03:35 | 51.31051 | 8.20925 | 70° | 55km/h | 16367m | -6.5m/s | -51.6°C | 0.1% | 102hPa | 2.5V | 08:06:34 | 02:46:01 | 00:00:00 | |
| DD8BA-10 | 2026-09-01 01:03:35 | 51.31051 | 8.20925 | 71° | 51km/h | 16368m | -6.4m/s | -51.5°C | 3.5% | 102.0hPa | 2.5V | 00:00:00 | 00:00:00 | 00:00:00 | |
| DL1NUX | 2026-09-01 01:03:34 | 51.31021 | 8.20810 | 66° | 49km/h | 16405m | -6.4m/s | -51.4°C | 3.5% | 101.4hPa | 2.5V | 08:06:24 | 02:45:55 | 00:00:00 | |
| AA1-15 | 2026-09-01 01:03:33 | 51.31041 | 8.20886 | 67° | 47km/h | 16380m | -6.1m/s | -51.5°C | 0.1% | 101.8hPa | 2.6V | 08:06:34 | 02:45:59 | 00:00:00 | |
| DM0DOS-11 | 2026-09-01 01:03:33 | 51.31006 | 8.20750 | 67° | 53km/h | 16424m | -6.4m/s | -51.5°C | 3.5% | 101.2hPa | 2.5V | 08:06:27 | 02:45:52 | 00:00:00 | |
| DF8AY | 2026-09-01 01:03:31 | 51.31031 | 8.20848 | 65° | 49km/h | 16393m | -6.7m/s | -51.4°C | 0.2% | 101.6hPa | 2.5V | 08:06:34 | 02:45:57 | 00:00:00 | |
| DO2JMG | 2026-09-01 01:03:29 | 51.31021 | 8.20810 | 67° | 49km/h | 16406m | -6.4m/s | -51.4°C | 0.1% | 101.4hPa | 2.5V | 08:07:25 | 02:45:55 | 00:00:00 | |
| DO3MHA-12 | 2026-09-01 01:03:28 | 51.31016 | 8.20790 | 68° | 55km/h | 16412m | -6.3m/s | -51.4°C | 3.5% | 101.3hPa | 2.5V | 00:00:00 | 02:45:54 | 00:00:00 | |
| DL1XH-15 | 2026-09-01 01:03:27 | 51.31001 | 8.20730 | 67° | 53km/h | 16430m | -6.7m/s | -51.5°C | 3.6% | 101.1hPa | 2.5V | 08:06:28 | 02:45:51 | 00:00:00 | |
| BIOWL1-15 | 2026-09-01 01:03:27 | 51.31011 | 8.20770 | 69° | 53km/h | 16418m | -6.5m/s | -51.4°C | 0.2% | 101.2hPa | 2.6V | 08:06:34 | 02:45:53 | 00:00:00 | |
| DB0UT-7 | 2026-09-01 01:03:27 | 51.31011 | 8.20770 | 69° | 47km/h | 16418m | -6.4m/s | -51.4°C | 3.5% | 101.2hPa | 2.6V | 08:06:00 | 02:45:53 | 00:00:00 | |
| EDDB2-11 | 2026-09-01 01:03:26 | 51.31001 | 8.20730 | 67° | 51km/h | 16430m | -6.7m/s | -51.5°C | 1.1% | 101.1hPa | 2.5V | 00:00:00 | 00:00:00 | 00:00:00 | |
| DL1XH1-15 | 2026-09-01 01:03:25 | 51.30976 | 8.20626 | 69° | 60km/h | 16460m | -6.6m/s | -51.7°C | 3.5% | 100.5hPa | 2.5V | 08:06:33 | 02:45:46 | 00:00:00 | |
| DL1XH-west | 2026-09-01 01:03:24 | 51.30996 | 8.20710 | 69° | 53km/h | 16436m | -6.4m/s | -51.6°C | 0.2% | 101hPa | 2.5V | 08:06:34 | 02:45:50 | 00:00:00 | |
| AA1-15 | 2026-09-01 01:03:23 | 51.30991 | 8.20690 | 69° | 55km/h | 16442m | -6.7m/s | -51.6°C | 0.1% | 100.8hPa | 2.6V | 08:06:34 | 02:45:49 | 00:00:00 | |
| DF8AY | 2026-09-01 01:03:20 | 51.30977 | 8.20626 | 69° | 60km/h | 16461m | -6.6m/s | -51.7°C | 0.2% | 100.5hPa | 2.5V | 08:06:34 | 02:45:46 | 00:00:00 | |
| HSKMA3-T | 2026-09-01 01:03:19 | 51.30971 | 8.20603 | 66° | 60km/h | 16467m | -6.6m/s | -51.8°C | 0.1% | 100.5hPa | 2.5V | 08:06:34 | 02:45:45 | 00:00:00 | |
| BIOWL1-15 | 2026-09-01 01:03:18 | 51.30951 | 8.20539 | 60° | 62km/h | 16486m | -7.1m/s | -51.6°C | 0.1% | 100.2hPa | 2.5V | 08:07:25 | 02:45:42 | 00:00:00 | |
| DO3MHA-12 | 2026-09-01 01:03:18 | 51.30965 | 8.20582 | 65° | 55km/h | 16473m | -6.6m/s | -51.7°C | 3.5% | 100.3hPa | 2.6V | 00:00:00 | 02:45:44 | 00:00:00 | |
| DL1XH-15 | 2026-09-01 01:03:17 | 51.30943 | 8.20518 | 56° | 60km/h | 16492m | -6.9m/s | -51.5°C | 3.5% | 100hPa | 2.5V | 08:06:38 | 02:45:41 | 00:00:00 | |
| DL1XH-west | 2026-09-01 01:03:14 | 51.30934 | 8.20498 | 53° | 58km/h | 16499m | -7.2m/s | -51.5°C | 0.1% | 100hPa | 2.5V | 08:07:25 | 02:45:40 | 00:00:00 | |
| AA1-15 | 2026-09-01 01:03:12 | 51.30916 | 8.20463 | 46° | 53km/h | 16511m | -6.5m/s | -51.4°C | 0.1% | 99.8hPa | 2.6V | 08:07:25 | 02:45:38 | 00:00:00 | |
| DL1XH1-15 | 2026-09-01 01:03:12 | 51.30897 | 8.20434 | 39° | 47km/h | 16524m | -6.6m/s | -51.4°C | 3.5% | 99.5hPa | 2.5V | 08:06:43 | 02:45:36 | 00:00:00 | |
| DF8AY | 2026-09-01 01:03:10 | 51.30897 | 8.20434 | 40° | 47km/h | 16524m | -6.6m/s | -51.4°C | 0.1% | 99.5hPa | 2.5V | 08:07:25 | 02:45:36 | 00:00:00 | |
| GOEST3-10 | 2026-09-01 01:03:10 | 51.30897 | 8.20434 | 40° | 42km/h | 16524m | -6.5m/s | -51.3°C | 3.5% | 99.5hPa | 2.5V | 00:00:00 | 00:00:00 | 00:00:00 | |
| DL8OAI-8 | 2026-09-01 01:03:09 | 51.30897 | 8.20434 | 41° | 47km/h | 16524m | -6.6m/s | -51.4°C | 1.1% | 99.5hPa | 2.6V | 08:07:00 | 00:00:00 | 00:00:00 | |
| DM0DOS-11 | 2026-09-01 01:03:08 | 51.30872 | 8.20401 | 41° | 40km/h | 16542m | -7m/s | -51.4°C | 3.4% | 99.3hPa | 2.6V | 08:06:46 | 02:45:33 | 00:00:00 | |
| HSKMA3-T | 2026-09-01 01:03:08 | 51.30879 | 8.20412 | 40° | 42km/h | 16536m | -6.2m/s | -51.4°C | 0.1% | 99.4hPa | 2.6V | 08:07:25 | 02:45:34 | 00:00:00 | |
| DJ2KF-10 | 2026-09-01 01:03:08 | 51.30879 | 8.20412 | 41° | 47km/h | 16536m | -6.1m/s | -51.3°C | 3.4% | 99.3hPa | 2.5V | 00:00:00 | 02:45:34 | 00:00:00 | |
| DO3MHA-11 | 2026-09-01 01:03:07 | 51.30872 | 8.20401 | 42° | 33km/h | 16542m | -6.9m/s | -51.3°C | 3.4% | 99.2hPa | 2.5V | 00:00:00 | 02:45:33 | 00:00:00 | |
| DL1XH1-15 | 2026-09-01 01:03:05 | 51.30835 | 8.20331 | 67° | 27km/h | 16585m | -6.6m/s | -51.6°C | 3.5% | 98.7hPa | 2.5V | 08:06:53 | 02:45:26 | 00:00:00 | |
| BIOWL1-15 | 2026-09-01 01:03:05 | 51.30858 | 8.20381 | 44° | 37km/h | 16555m | -6.8m/s | -51.5°C | 0.1% | 99.1hPa | 2.5V | 08:07:25 | 02:45:31 | 00:00:00 | |
| DL1XH-west | 2026-09-01 01:03:03 | 51.30846 | 8.20362 | 47° | 31km/h | 16567m | -6.8m/s | -51.5°C | 0.2% | 99hPa | 2.6V | 08:07:25 | 02:45:29 | 00:00:00 | |
| DL1NUX | 2026-09-01 01:03:02 | 51.30833 | 8.20320 | 75° | 33km/h | 16591m | -6.4m/s | -51.6°C | 3.5% | 98.5hPa | 2.5V | 08:06:54 | 02:45:25 | 00:00:00 | |
| AA1-15 | 2026-09-01 01:03:01 | 51.30838 | 8.20342 | 66° | 31km/h | 16579m | -6.5m/s | -51.6°C | 0.2% | 98.7hPa | 2.5V | 08:07:25 | 02:45:27 | 00:00:00 | |
| DF8AY | 2026-09-01 01:03:00 | 51.30835 | 8.20331 | 68° | 27km/h | 16585m | -6.6m/s | -51.6°C | 0.2% | 98.7hPa | 2.5V | 08:07:25 | 02:45:26 | 00:00:00 | |
| DO1YAY-16 | 2026-09-01 01:02:59 | 51.30833 | 8.20320 | 75° | 33km/h | 16591m | -6.4m/s | -51.6°C | 1.0% | 98.5hPa | 2.6V | 00:00:00 | 00:00:00 | 00:00:00 | |
| DM0DOS-11 | 2026-09-01 01:02:58 | 51.30830 | 8.20295 | 80° | 35km/h | 16604m | -6.5m/s | -51.5°C | 3.5% | 98.4hPa | 2.6V | 08:06:56 | 02:45:23 | 00:00:00 | |
| DJ2DS-15 | 2026-09-01 01:02:58 | 51.30831 | 8.20308 | 80° | 55km/h | 16598m | -6.7m/s | -51.5°C | 3.5% | 98.4hPa | 2.6V | 08:06:00 | 02:45:24 | 00:00:00 | |
| DL1XH-15 | 2026-09-01 01:02:57 | 51.30828 | 8.20265 | 88° | 38km/h | 16616m | -6.7m/s | -51.6°C | 3.5% | 98.1hPa | 2.5V | 08:06:58 | 02:45:21 | 00:00:00 | |
| HSKMA3-T | 2026-09-01 01:02:57 | 51.30830 | 8.20295 | 81° | 35km/h | 16604m | -6.5m/s | -51.5°C | 0.1% | 98.4hPa | 2.6V | 08:07:25 | 02:45:23 | 00:00:00 | |
| BIOWL1-15 | 2026-09-01 01:02:56 | 51.30829 | 8.20265 | 89° | 38km/h | 16616m | -6.7m/s | -51.6°C | 0.2% | 98.2hPa | 2.5V | 08:07:25 | 02:45:21 | 00:00:00 | |
| DL1XH-west | 2026-09-01 01:02:53 | 51.30830 | 8.20233 | 94° | 44km/h | 16629m | -6.9m/s | -51.6°C | 0.1% | 97.9hPa | 2.6V | 08:07:25 | 02:45:19 | 00:00:00 | |
| AA1-15 | 2026-09-01 01:02:50 | 51.30833 | 8.20179 | 96° | 46km/h | 16648m | -7.2m/s | -51.6°C | 0.1% | 97.7hPa | 2.5V | 08:07:25 | 02:45:16 | 00:00:00 | |
| DF8AY | 2026-09-01 01:02:49 | 51.30834 | 8.20159 | 95° | 51km/h | 16655m | -7.5m/s | -51.6°C | 0.1% | 97.6hPa | 2.5V | 08:07:25 | 02:45:15 | 00:00:00 | |
| HSKMA3-T | 2026-09-01 01:02:47 | 51.30835 | 8.20113 | 91° | 58km/h | 16668m | -6.8m/s | -51.7°C | 0.1% | 97.4hPa | 2.6V | 08:07:25 | 02:45:13 | 00:00:00 | |
| DO3MHA-11 | 2026-09-01 01:02:47 | 51.30835 | 8.20113 | 92° | 69km/h | 16669m | -6.8m/s | -51.6°C | 3.5% | 97.3hPa | 2.6V | 08:07:00 | 02:45:13 | 00:00:00 | |
| DL1XH1-15 | 2026-09-01 01:02:45 | 51.30825 | 8.19917 | 77° | 73km/h | 16713m | -7m/s | -51.7°C | 3.5% | 96.7hPa | 2.5V | 08:07:13 | 02:45:06 | 00:00:00 | |
| BIOWL1-15 | 2026-09-01 01:02:45 | 51.30836 | 8.20063 | 90° | 68km/h | 16681m | -7m/s | -51.7°C | 0.1% | 97.2hPa | 2.5V | 08:07:25 | 02:45:11 | 00:00:00 | |
| SONCRA | 2026-09-01 01:02:44 | 51.30835 | 8.20036 | 86° | 69km/h | 16688m | -7.1m/s | -51.7°C | 1.0% | 97.1hPa | 2.6V | 00:00:00 | 00:00:00 | 00:00:00 | |
| DL1XH-west | 2026-09-01 01:02:42 | 51.30831 | 8.19977 | 82° | 75km/h | 16701m | -6.9m/s | -51.6°C | 0.1% | 96.9hPa | 2.6V | 08:07:25 | 02:45:08 | 00:00:00 | |
| AA1-15 | 2026-09-01 01:02:40 | 51.30825 | 8.19917 | 77° | 73km/h | 16713m | -7m/s | -51.7°C | 0.2% | 96.7hPa | 2.5V | 08:07:25 | 02:45:06 | 00:00:00 | |
| DF8AY | 2026-09-01 01:02:38 | 51.30816 | 8.19860 | 74° | 73km/h | 16726m | -6.8m/s | -51.7°C | 0.2% | 96.6hPa | 2.6V | 08:07:25 | 02:45:04 | 00:00:00 | |
| DM0DOS-11 | 2026-09-01 01:02:38 | 51.30810 | 8.19832 | 72° | 69km/h | 16732m | -6.5m/s | -51.7°C | 3.6% | 96.4hPa | 2.6V | 08:07:16 | 02:45:03 | 00:00:00 | |
| DJ2DS-15 | 2026-09-01 01:02:38 | 51.30816 | 8.19860 | 74° | 47km/h | 16726m | -6.8m/s | -51.7°C | 3.6% | 96.5hPa | 2.5V | 00:00:00 | 02:45:04 | 00:00:00 | |
| DL1XH-15 | 2026-09-01 01:02:37 | 51.30798 | 8.19782 | 68° | 60km/h | 16744m | -6.3m/s | -51.8°C | 3.6% | 96.3hPa | 2.5V | 08:07:18 | 02:45:01 | 00:00:00 | |
| HSKMA3-T | 2026-09-01 01:02:36 | 51.30804 | 8.19806 | 70° | 66km/h | 16738m | -6.1m/s | -51.8°C | 0.2% | 96.4hPa | 2.5V | 08:07:25 | 02:45:02 | 00:00:00 | |
| DO3MHA-12 | 2026-09-01 01:02:36 | 51.30804 | 8.19806 | 70° | 57km/h | 16738m | -6.1m/s | -51.7°C | 3.6% | 96.3hPa | 2.5V | 00:00:00 | 02:45:02 | 00:00:00 | |
| DD8BA-10 | 2026-09-01 01:02:35 | 51.30798 | 8.19782 | 69° | 49km/h | 16744m | -6.3m/s | -51.7°C | 3.6% | 96.2hPa | 2.5V | 08:07:00 | 00:00:00 | 00:00:00 | |
| DL1NUX | 2026-09-01 01:02:34 | 51.30768 | 8.19662 | 70° | 46km/h | 16780m | -6.6m/s | -52°C | 3.7% | 95.7hPa | 2.5V | 08:07:24 | 02:44:55 | 00:00:00 | |
| BIOWL1-15 | 2026-09-01 01:02:34 | 51.30793 | 8.19760 | 67° | 58km/h | 16750m | -6.2m/s | -51.8°C | 0.3% | 96.2hPa | 2.5V | 08:07:25 | 02:45:00 | 00:00:00 | |
| DO2JMG | 2026-09-01 01:02:33 | 51.30787 | 8.19739 | 67° | 55km/h | 16756m | -6.4m/s | -51.9°C | 0.2% | 96.1hPa | 2.6V | 08:07:25 | 02:44:59 | 00:00:00 | |
| DL1XH1-15 | 2026-09-01 01:02:32 | 51.30772 | 8.19680 | 67° | 49km/h | 16774m | -6.7m/s | -52°C | 3.7% | 95.8hPa | 2.5V | 08:07:23 | 02:44:56 | 00:00:00 | |
| DM0DOS-11 | 2026-09-01 01:02:32 | 51.30758 | 8.19610 | 76° | 38km/h | 16800m | -6.2m/s | -51.8°C | 3.7% | 95.4hPa | 2.5V | 08:07:27 | 02:44:52 | 00:00:00 | |
| DL1XH-west | 2026-09-01 01:02:31 | 51.30777 | 8.19699 | 69° | 51km/h | 16768m | -6.6m/s | -51.9°C | 0.3% | 95.9hPa | 2.5V | 08:07:25 | 02:44:57 | 00:00:00 | |
| AA1-15 | 2026-09-01 01:02:29 | 51.30768 | 8.19662 | 70° | 46km/h | 16780m | -6.6m/s | -52°C | 0.3% | 95.7hPa | 2.5V | 08:07:25 | 02:44:55 | 00:00:00 | |
| DF8AY | 2026-09-01 01:02:28 | 51.30764 | 8.19644 | 72° | 44km/h | 16787m | -6.7m/s | -52°C | 0.3% | 95.6hPa | 2.6V | 08:07:25 | 02:44:54 | 00:00:00 | |
| DL1XH-15 | 2026-09-01 01:02:27 | 51.30756 | 8.19595 | 78° | 37km/h | 16806m | -6.3m/s | -51.6°C | 3.6% | 95.3hPa | 2.5V | 08:07:28 | 02:44:51 | 00:00:00 | |
| HSKMA3-T | 2026-09-01 01:02:26 | 51.30758 | 8.19610 | 76° | 38km/h | 16800m | -6.2m/s | -51.8°C | 0.3% | 95.5hPa | 2.5V | 08:08:16 | 02:44:52 | 00:00:00 | |
| DL3AQ-11 | 2026-09-01 01:02:26 | 51.30756 | 8.19595 | 78° | 37km/h | 16806m | -6.3m/s | -51.6°C | 1.0% | 95.3hPa | 2.5V | 00:00:00 | 00:00:00 | 00:00:00 | |
| DL1NUX | 2026-09-01 01:02:25 | 51.30753 | 8.19513 | 98° | 29km/h | 16843m | -7m/s | -50.8°C | 3.4% | 94.8hPa | 2.5V | 08:07:34 | 02:44:45 | 00:00:00 | |
| BIOWL1-15 | 2026-09-01 01:02:24 | 51.30753 | 8.19566 | 84° | 35km/h | 16818m | -6.5m/s | -51.2°C | 0.1% | 95.2hPa | 2.6V | 08:08:16 | 02:44:49 | 00:00:00 | |
| DO2JMG | 2026-09-01 01:02:22 | 51.30752 | 8.19552 | 88° | 35km/h | 16824m | -6.9m/s | -51°C | 0.1% | 95.1hPa | 2.6V | 08:08:16 | 02:44:48 | 00:00:00 | |
| DM0DOS-11 | 2026-09-01 01:02:21 | 51.30760 | 8.19479 | 118° | 35km/h | 16863m | -7.2m/s | -50.6°C | 3.3% | 94.5hPa | 2.5V | 08:07:37 | 02:44:42 | 00:00:00 | |
| DL1XH-west | 2026-09-01 01:02:20 | 51.30752 | 8.19525 | 92° | 29km/h | 16837m | -7.2m/s | -50.8°C | 0.1% | 94.9hPa | 2.5V | 08:08:16 | 02:44:46 | 00:00:00 | |
| DF8AY | 2026-09-01 01:02:18 | 51.30754 | 8.19501 | 101° | 31km/h | 16850m | -7.4m/s | -50.7°C | 0.1% | 94.7hPa | 2.6V | 08:08:16 | 02:44:44 | 00:00:00 | |
| HSKMA3-T | 2026-09-01 01:02:15 | 51.30764 | 8.19467 | 125° | 33km/h | 16870m | -7.1m/s | -50.6°C | 0% | 94.4hPa | 2.5V | 08:08:16 | 02:44:41 | 00:00:00 | |
| DD8BA-10 | 2026-09-01 01:02:15 | 51.30764 | 8.19467 | 126° | 49km/h | 16870m | -7.0m/s | -50.5°C | 3.3% | 94.3hPa | 2.5V | 00:00:00 | 00:00:00 | 00:00:00 | |
| DL1NUX | 2026-09-01 01:02:14 | 51.30804 | 8.19377 | 119° | 57km/h | 16909m | -7.3m/s | -50.6°C | 3.3% | 93.8hPa | 2.5V | 08:07:44 | 02:44:35 | 00:00:00 | |
| BIOWL1-15 | 2026-09-01 01:02:14 | 51.30783 | 8.19428 | 129° | 44km/h | 16890m | -6.7m/s | -50.6°C | 0% | 94.1hPa | 2.6V | 08:08:16 | 02:44:38 | 00:00:00 | |
| DL3AQ-11 | 2026-09-01 01:02:13 | 51.30783 | 8.19428 | 128° | 42km/h | 16890m | -6.7m/s | -50.6°C | 0.9% | 94.1hPa | 2.5V | 00:00:00 | 00:00:00 | 00:00:00 | |
| DL4XJ-10 | 2026-09-01 01:02:11 | 51.30790 | 8.19413 | 127° | 57km/h | 16896m | -7.2m/s | -50.6°C | 0% | 0hPa | 2.5V | 00:00:00 | 00:00:00 | 00:00:00 | |
| DM0DOS-11 | 2026-09-01 01:02:10 | 51.30821 | 8.19313 | 104° | 60km/h | 16928m | -6.5m/s | -50.7°C | 3.4% | 93.6hPa | 2.5V | 08:07:47 | 02:44:32 | 00:00:00 | |
| DL1XH-west | 2026-09-01 01:02:10 | 51.30797 | 8.19396 | 121° | 53km/h | 16903m | -6.9m/s | -50.6°C | 0% | 94hPa | 2.5V | 08:08:16 | 02:44:36 | 00:00:00 | |
| DO2JMG | 2026-09-01 01:02:07 | 51.30817 | 8.19336 | 112° | 58km/h | 16922m | -6.7m/s | -50.7°C | 0.1% | 93.7hPa | 2.6V | 08:08:16 | 02:44:33 | 00:00:00 | |
| HSKMA3-T | 2026-09-01 01:02:04 | 51.30827 | 8.19268 | 97° | 58km/h | 16940m | -6.5m/s | -50.7°C | 0.1% | 93.4hPa | 2.5V | 08:08:16 | 02:44:30 | 00:00:00 | |
| BIOWL1-15 | 2026-09-01 01:02:01 | 51.30828 | 8.19201 | 86° | 55km/h | 16959m | -6.7m/s | -50.6°C | 0% | 93.2hPa | 2.5V | 08:08:16 | 02:44:27 | 00:00:00 | |
| DM0DOS-11 | 2026-09-01 01:02:00 | 51.30816 | 8.19109 | 70° | 44km/h | 16990m | -6.8m/s | -50.6°C | 3.2% | 92.7hPa | 2.5V | 08:07:57 | 02:44:22 | 00:00:00 | |
| DL1XH-west | 2026-09-01 01:01:59 | 51.30825 | 8.19160 | 78° | 49km/h | 16971m | -6.9m/s | -50.6°C | 0% | 93hPa | 2.5V | 08:08:16 | 02:44:25 | 00:00:00 | |
| DO2JMG | 2026-09-01 01:01:56 | 51.30815 | 8.19109 | 70° | 44km/h | 16990m | -6.8m/s | -50.6°C | 0% | 92.7hPa | 2.5V | 08:08:16 | 02:44:22 | 00:00:00 | |
| HSKMA3-T | 2026-09-01 01:01:54 | 51.30807 | 8.19081 | 61° | 35km/h | 17003m | -6.6m/s | -50.6°C | 0% | 92.4hPa | 2.5V | 08:08:16 | 02:44:20 | 00:00:00 | |
| DF8AY-15 | 2026-09-01 01:01:53 | 51.30803 | 8.19069 | 58° | 31km/h | 17010m | -7.2m/s | 0°C | 0% | 0hPa | 2.5V | 00:00:00 | 02:44:19 | 00:00:00 | |
| AM1SDL-15 | 2026-09-01 01:01:52 | 51.30795 | 8.19051 | 55° | 20km/h | 17022m | -7.0m/s | -50.6°C | 3.3% | 92.2hPa | 2.5V | 00:00:00 | 02:44:17 | 00:00:00 | |
| DM0DOS-11 | 2026-09-01 01:01:50 | 51.30787 | 8.19030 | 113° | 9km/h | 17056m | -7.2m/s | -50.8°C | 3.3% | 91.7hPa | 2.5V | 08:08:07 | 02:44:12 | 00:00:00 | |
| BIOWL1-15 | 2026-09-01 01:01:50 | 51.30791 | 8.19019 | 129° | 20km/h | 17069m | -7.3m/s | -50.9°C | 0% | 91.6hPa | 2.5V | 08:08:16 | 02:44:10 | 00:00:00 | |
| DL1XH-west | 2026-09-01 01:01:49 | 51.30789 | 8.19040 | 49° | 13km/h | 17036m | -6.9m/s | -50.7°C | 0% | 92hPa | 2.5V | 08:08:16 | 02:44:15 | 00:00:00 | |
| DO2JMG | 2026-09-01 01:01:45 | 51.30788 | 8.19025 | 116° | 16km/h | 17063m | -6.9m/s | -50.9°C | 0% | 91.7hPa | 2.5V | 08:08:16 | 02:44:11 | 00:00:00 | |
| HSKMA3-T | 2026-09-01 01:01:43 | 51.30794 | 8.19012 | 121° | 24km/h | 17076m | -6.9m/s | -51°C | 0% | 91.5hPa | 2.6V | 08:08:16 | 02:44:09 | 00:00:00 | |
| DO3DL | 2026-09-01 01:01:43 | 51.30791 | 8.19019 | 130° | 20km/h | 17070m | -7.3m/s | -50.9°C | 0.9% | 91.6hPa | 2.5V | 08:08:00 | 00:00:00 | 00:00:00 | |
| SONCRA | 2026-09-01 01:01:42 | 51.30798 | 8.19003 | 124° | 27km/h | 17083m | -7.1m/s | -51.0°C | 1.0% | 91.4hPa | 2.5V | 00:00:00 | 00:00:00 | 00:00:00 | |
| DM0DOS-11 | 2026-09-01 01:01:40 | 51.30815 | 8.18918 | 96° | 44km/h | 17124m | -6.4m/s | -51.4°C | 3.5% | 90.8hPa | 2.5V | 08:08:17 | 02:44:02 | 00:00:00 | |
| GOEST3-10 | 2026-09-01 01:01:40 | 51.30806 | 8.18980 | 118° | 40km/h | 17096m | -7.6m/s | -51.1°C | 3.4% | 91.2hPa | 2.5V | 00:00:00 | 00:00:00 | 00:00:00 | |
| SONDE2-11 | 2026-09-01 01:01:39 | 51.30812 | 8.18951 | 103° | 38km/h | 17110m | -7.3m/s | -51.3°C | 1.0% | 91.0hPa | 2.5V | 00:00:00 | 00:00:00 | 00:00:00 | |
| DL1XH-west | 2026-09-01 01:01:39 | 51.30810 | 8.18966 | 105° | 40km/h | 17103m | -7.2m/s | -51.2°C | 0.1% | 91.1hPa | 2.5V | 08:08:16 | 02:44:05 | 00:00:00 | |
| DJ2DS-15 | 2026-09-01 01:01:38 | 51.30812 | 8.18951 | 104° | 51km/h | 17110m | -7.3m/s | -51.2°C | 3.4% | 91.0hPa | 2.5V | 00:00:00 | 02:44:04 | 00:00:00 | |
| DL1XH-15 | 2026-09-01 01:01:37 | 51.30816 | 8.18900 | 91° | 42km/h | 17130m | -6.8m/s | -51.4°C | 3.4% | 90.8hPa | 2.5V | 08:08:18 | 02:44:01 | 00:00:00 | |
| BIOWL1-15 | 2026-09-01 01:01:36 | 51.30816 | 8.18900 | 92° | 42km/h | 17131m | -6.8m/s | -51.4°C | 0.1% | 90.8hPa | 2.5V | 08:09:07 | 02:44:01 | 00:00:00 | |
| DO2JMG | 2026-09-01 01:01:34 | 51.30816 | 8.18883 | 87° | 47km/h | 17137m | -6.2m/s | 0°C | 0% | 90.7hPa | 2.5V | 08:09:58 | 02:44:00 | 00:00:00 | |
| HSKMA3-T | 2026-09-01 01:01:33 | 51.30815 | 8.18863 | 84° | 49km/h | 17143m | -6.6m/s | -51.5°C | 0.1% | 90.6hPa | 2.6V | 08:09:07 | 02:43:59 | 00:00:00 | |
| DL1NUX | 2026-09-01 01:01:33 | 51.30806 | 8.18782 | 72° | 53km/h | 17168m | -7.1m/s | -51.5°C | 3.4% | 90.2hPa | 2.5V | 08:08:24 | 02:43:55 | 00:00:00 | |
| DL1XH1-15 | 2026-09-01 01:01:33 | 51.30809 | 8.18803 | 75° | 53km/h | 17161m | -6.9m/s | -51.5°C | 3.5% | 90.3hPa | 2.5V | 08:08:23 | 02:43:56 | 00:00:00 | |
| DL1XH-west | 2026-09-01 01:01:29 | 51.30806 | 8.18782 | 72° | 53km/h | 17168m | -7.1m/s | -51.5°C | 0.1% | 90.3hPa | 2.5V | 08:09:07 | 02:43:55 | 00:00:00 | |
| DB0ND-19 | 2026-09-01 01:01:28 | 51.30802 | 8.18763 | 69° | 51km/h | 17175m | -6.9m/s | -51.6°C | 1.0% | 90.1hPa | 2.5V | 00:00:00 | 00:00:00 | 00:00:00 | |
| DL1XH-15 | 2026-09-01 01:01:27 | 51.30786 | 8.18702 | 63° | 57km/h | 17195m | -6.8m/s | -51.7°C | 3.5% | 89.9hPa | 2.5V | 08:08:28 | 02:43:51 | 00:00:00 | |
| BIOWL1-15 | 2026-09-01 01:01:24 | 51.30779 | 8.18682 | 61° | 55km/h | 17201m | -6.8m/s | -51.8°C | 0.1% | 89.8hPa | 2.5V | 08:09:07 | 02:43:50 | 00:00:00 | |
| AM1SDL-15 | 2026-09-01 01:01:24 | 51.30779 | 8.18682 | 62° | 51km/h | 17201m | -6.8m/s | -51.7°C | 3.5% | 89.7hPa | 2.5V | 00:00:00 | 02:43:50 | 00:00:00 | |
| DL1NUX | 2026-09-01 01:01:23 | 51.30737 | 8.18588 | 49° | 57km/h | 17236m | -6.4m/s | -51.9°C | 3.5% | 89.3hPa | 2.5V | 08:08:34 | 02:43:45 | 00:00:00 | |
| DO2JMG | 2026-09-01 01:01:23 | 51.30772 | 8.18662 | 58° | 60km/h | 17208m | -7.3m/s | 0°C | 0% | 89.7hPa | 2.6V | 08:09:58 | 02:43:49 | 00:00:00 | |
| DL1XH1-15 | 2026-09-01 01:01:21 | 51.30746 | 8.18605 | 49° | 57km/h | 17230m | -7.2m/s | -51.8°C | 3.6% | 89.4hPa | 2.5V | 08:08:33 | 02:43:46 | 00:00:00 | |
| DM0DOS-11 | 2026-09-01 01:01:20 | 51.30708 | 8.18542 | 38° | 46km/h | 17255m | -6.1m/s | -51.9°C | 3.6% | 89hPa | 2.5V | 08:08:37 | 02:43:42 | 00:00:00 | |
| DL1XH-west | 2026-09-01 01:01:18 | 51.30727 | 8.18571 | 47° | 57km/h | 17243m | -6.6m/s | -51.9°C | 0.2% | 89.2hPa | 2.6V | 08:09:07 | 02:43:44 | 00:00:00 | |
| DL1XH-15 | 2026-09-01 01:01:18 | 51.30699 | 8.18530 | 41° | 46km/h | 17261m | -6.6m/s | -51.9°C | 3.6% | 88.9hPa | 2.5V | 08:08:38 | 02:43:41 | 00:00:00 | |
| BIOWL1-15 | 2026-09-01 01:01:14 | 51.30666 | 8.18479 | 52° | 33km/h | 17294m | -6.4m/s | -51.8°C | 0.2% | 88.5hPa | 2.5V | 08:09:07 | 02:43:36 | 00:00:00 | |
| DL1NUX | 2026-09-01 01:01:13 | 51.30661 | 8.18470 | 48° | 27km/h | 17300m | -6.7m/s | -51.8°C | 3.6% | 88.5hPa | 2.5V | 08:08:44 | 02:43:35 | 00:00:00 | |
| DO2JMG | 2026-09-01 01:01:12 | 51.30677 | 8.18498 | 44° | 33km/h | 17281m | -6.4m/s | 0°C | 0% | 0hPa | 2.6V | 08:09:58 | 02:43:38 | 00:00:00 | |
| SONCRA | 2026-09-01 01:01:11 | 51.30671 | 8.18489 | 46° | 33km/h | 17287m | -7.3m/s | -51.8°C | 1.0% | 88.6hPa | 2.5V | 00:00:00 | 00:00:00 | 00:00:00 | |
| GOEST3-10 | 2026-09-01 01:01:10 | 51.30666 | 8.18479 | 52° | 29km/h | 17295m | -6.3m/s | -51.8°C | 3.6% | 88.5hPa | 2.5V | 08:08:00 | 00:00:00 | 00:00:00 | |
| DM0DOS-11 | 2026-09-01 01:01:10 | 51.30649 | 8.18444 | 59° | 29km/h | 17321m | -7.4m/s | -51.7°C | 3.5% | 88.2hPa | 2.5V | 08:08:47 | 02:43:32 | 00:00:00 | |
| DL1ZP-14 | 2026-09-01 01:01:09 | 51.30661 | 8.18470 | 48° | 27km/h | 17300m | -6.7m/s | -51.8°C | 1.0% | 88.5hPa | 2.5V | 00:00:00 | 00:00:00 | 00:00:00 | |
| SONDE2-11 | 2026-09-01 01:01:08 | 51.30653 | 8.18453 | 54° | 27km/h | 17314m | -7.1m/s | -51.7°C | 1.0% | 88.2hPa | 2.5V | 00:00:00 | 00:00:00 | 00:00:00 | |
| DL1XH-15 | 2026-09-01 01:01:07 | 51.30645 | 8.18434 | 63° | 29km/h | 17328m | -6.6m/s | -51.6°C | 3.5% | 88hPa | 2.5V | 08:08:48 | 02:43:31 | 00:00:00 | |
| DL1XH-west | 2026-09-01 01:01:07 | 51.30653 | 8.18453 | 54° | 27km/h | 17314m | -7.1m/s | -51.7°C | 0.1% | 88.2hPa | 2.6V | 08:09:07 | 02:43:33 | 00:00:00 | |
| DJ8HS-15 | 2026-09-01 01:01:07 | 51.30653 | 8.18453 | 55° | 40km/h | 17314m | -7.0m/s | -51.6°C | 3.5% | 88.2hPa | 2.6V | 00:00:00 | 02:43:33 | 00:00:00 | |
| DL3AQ-11 | 2026-09-01 01:01:06 | 51.30645 | 8.18434 | 63° | 27km/h | 17328m | -6.6m/s | -51.7°C | 1.0% | 88.0hPa | 2.5V | 00:00:00 | 00:00:00 | 00:00:00 | |
| DD8BA-10 | 2026-09-01 01:01:05 | 51.30645 | 8.18434 | 64° | 29km/h | 17328m | -6.6m/s | -51.6°C | 3.5% | 88.0hPa | 2.5V | 08:08:00 | 00:00:00 | 00:00:00 | |
| DL1NUX | 2026-09-01 01:01:03 | 51.30639 | 8.18373 | 97° | 29km/h | 17371m | -7.2m/s | -51.5°C | 3.5% | 87.5hPa | 2.5V | 08:08:54 | 02:43:25 | 00:00:00 | |
| BIOWL1-15 | 2026-09-01 01:01:03 | 51.30647 | 8.18298 | 97° | 49km/h | 17406m | -6.5m/s | -51.5°C | 0.1% | 87hPa | 2.5V | 08:09:07 | 02:43:20 | 00:00:00 | |
| HSKMA3-T | 2026-09-01 01:01:02 | 51.30639 | 8.18405 | 78° | 27km/h | 17349m | -7.4m/s | -51.6°C | 0.1% | 87.8hPa | 2.6V | 08:09:07 | 02:43:28 | 00:00:00 | |
| DO2JMG | 2026-09-01 01:01:01 | 51.30638 | 8.18395 | 84° | 26km/h | 17357m | -7.1m/s | 0°C | 0% | 0hPa | 2.5V | 08:09:58 | 02:43:27 | 00:00:00 | |
| AM1SDL-15 | 2026-09-01 01:01:01 | 51.30638 | 8.18384 | 90° | 44km/h | 17364m | -7.3m/s | -51.5°C | 3.5% | 87.5hPa | 2.6V | 00:00:00 | 02:43:26 | 00:00:00 | |
| DB0NH | 2026-09-01 01:01:00 | 51.30638 | 8.18384 | 90° | 46km/h | 17364m | -7.3m/s | -51.5°C | 3.5% | 87.5hPa | 2.6V | 00:00:00 | 02:43:26 | 00:00:00 | |
| DJ2DS-15 | 2026-09-01 01:00:58 | 51.30640 | 8.18361 | 100° | 51km/h | 17379m | -7.2m/s | -51.5°C | 3.5% | 87.3hPa | 2.6V | 00:00:00 | 02:43:24 | 00:00:00 | |
| DL1XH-15 | 2026-09-01 01:00:57 | 51.30645 | 8.18317 | 99° | 44km/h | 17399m | -6.8m/s | -51.5°C | 3.5% | 87.1hPa | 2.5V | 08:08:58 | 02:43:21 | 00:00:00 | |
| DB0ND-19 | 2026-09-01 01:00:57 | 51.30643 | 8.18333 | 101° | 40km/h | 17392m | -6.9m/s | -51.5°C | 1.0% | 87.2hPa | 2.5V | 00:00:00 | 00:00:00 | 00:00:00 | |
| BIOWL9-15 | 2026-09-01 01:00:56 | 51.30643 | 8.18333 | 101° | 40km/h | 17392m | -6.9m/s | -51.5°C | 1.0% | 87.2hPa | 2.5V | 00:00:00 | 00:00:00 | 00:00:00 | |
| DL1XH-west | 2026-09-01 01:00:56 | 51.30643 | 8.18333 | 101° | 40km/h | 17392m | -6.9m/s | -51.5°C | 0.1% | 87.2hPa | 2.5V | 08:09:07 | 02:43:22 | 00:00:00 | |
| DD8BA-10 | 2026-09-01 01:00:55 | 51.30645 | 8.18317 | 100° | 57km/h | 17400m | -6.8m/s | -51.5°C | 3.5% | 87.1hPa | 2.5V | 00:00:00 | 00:00:00 | 00:00:00 | |
| DL1NUX | 2026-09-01 01:00:53 | 51.30648 | 8.18183 | 86° | 62km/h | 17440m | -7.1m/s | -51.3°C | 3.4% | 86.6hPa | 2.5V | 08:09:04 | 02:43:15 | 00:00:00 | |
| DF8AY | 2026-09-01 01:00:52 | 51.30649 | 8.18232 | 90° | 58km/h | 17426m | -6.9m/s | -51.5°C | 0.1% | 86.8hPa | 2.5V | 08:09:07 | 02:43:17 | 00:00:00 | |
| HSKMA3-T | 2026-09-01 01:00:52 | 51.30649 | 8.18255 | 92° | 57km/h | 17419m | -6.6m/s | -51.5°C | 0.2% | 86.8hPa | 2.6V | 08:09:07 | 02:43:18 | 00:00:00 | |
| DL1XH1-15 | 2026-09-01 01:00:51 | 51.30649 | 8.18207 | 88° | 60km/h | 17433m | -7m/s | -51.4°C | 3.5% | 86.7hPa | 2.5V | 08:09:03 | 02:43:16 | 00:00:00 | |
| BIOWL1-15 | 2026-09-01 01:00:49 | 51.30636 | 8.18062 | 74° | 57km/h | 17475m | -6.7m/s | -51.4°C | 0.2% | 86.1hPa | 2.5V | 08:09:58 | 02:43:10 | 00:00:00 | |
| DL1XH-west | 2026-09-01 01:00:45 | 51.30639 | 8.18084 | 77° | 58km/h | 17468m | -6.9m/s | -51.4°C | 0.2% | 86.2hPa | 2.5V | 08:09:58 | 02:43:11 | 00:00:00 | |
| DD8BA-10 | 2026-09-01 01:00:45 | 51.30639 | 8.18084 | 77° | 46km/h | 17468m | -6.9m/s | -51.4°C | 3.5% | 86.2hPa | 2.5V | 00:00:00 | 00:00:00 | 00:00:00 | |
| DL1NUX | 2026-09-01 01:00:44 | 51.30614 | 8.17971 | 64° | 40km/h | 17507m | -6.6m/s | -51.5°C | 3.4% | 85.7hPa | 2.5V | 08:09:14 | 02:43:05 | 00:00:00 | |
| DO2JMG | 2026-09-01 01:00:42 | 51.30627 | 8.18021 | 69° | 49km/h | 17488m | -6.5m/s | 0°C | 0% | 0hPa | 2.6V | 08:09:58 | 02:43:08 | 00:00:00 | |
| HSKMA3-T | 2026-09-01 01:00:41 | 51.30623 | 8.18003 | 68° | 46km/h | 17494m | -6.5m/s | -51.5°C | 0.1% | 85.8hPa | 2.5V | 08:09:58 | 02:43:07 | 00:00:00 | |
| DF8AY | 2026-09-01 01:00:40 | 51.30618 | 8.17987 | 66° | 44km/h | 17501m | -6.5m/s | -51.5°C | 0.2% | 85.8hPa | 2.5V | 08:09:58 | 02:43:06 | 00:00:00 | |
| GOEST3-10 | 2026-09-01 01:00:40 | 51.30618 | 8.17986 | 66° | 40km/h | 17501m | -6.4m/s | -51.4°C | 3.5% | 85.7hPa | 2.5V | 00:00:00 | 00:00:00 | 00:00:00 | |
| DL1ZP-14 | 2026-09-01 01:00:38 | 51.30605 | 8.17943 | 61° | 37km/h | 17521m | -6.7m/s | -51.5°C | 1.0% | 85.5hPa | 2.6V | 00:00:00 | 00:00:00 | 00:00:00 | |
| DL1XH-15 | 2026-09-01 01:00:37 | 51.30595 | 8.17917 | 58° | 37km/h | 17534m | -6.9m/s | -51.5°C | 3.5% | 85.3hPa | 2.5V | 08:09:18 | 02:43:01 | 00:00:00 | |
| SONDE2-11 | 2026-09-01 01:00:37 | 51.30600 | 8.17930 | 59° | 37km/h | 17528m | -6.9m/s | -51.5°C | 1.0% | 85.4hPa | 2.5V | 00:00:00 | 00:00:00 | 00:00:00 | |
| DL1XH1-15 | 2026-09-01 01:00:36 | 51.30572 | 8.17865 | 50° | 26km/h | 17570m | -7.1m/s | -51.3°C | 3.4% | 84.8hPa | 2.5V | 08:09:23 | 02:42:56 | 00:00:00 | |
| DL1XH-west | 2026-09-01 01:00:35 | 51.30596 | 8.17917 | 58° | 37km/h | 17534m | -6.9m/s | -51.5°C | 0.2% | 85.3hPa | 2.5V | 08:09:58 | 02:43:01 | 00:00:00 | |
| DD8BA-10 | 2026-09-01 01:00:35 | 51.30595 | 8.17917 | 59° | 26km/h | 17535m | -6.9m/s | -51.4°C | 3.5% | 85.3hPa | 2.5V | 00:00:00 | 00:00:00 | 00:00:00 | |
| DL3OBA | 2026-09-01 01:00:34 | 51.30595 | 8.17917 | 59° | 37km/h | 17535m | -6.9m/s | -51.5°C | 1.0% | 85.4hPa | 2.6V | 08:09:00 | 00:00:00 | 00:00:00 | |
| BIOWL1-15 | 2026-09-01 01:00:32 | 51.30609 | 8.17642 | 99° | 53km/h | 17725m | -7.4m/s | -51.4°C | 0.1% | 82.8hPa | 2.6V | 08:09:58 | 02:42:34 | 00:00:00 | |
| HSKMA3-T | 2026-09-01 01:00:30 | 51.30572 | 8.17865 | 51° | 26km/h | 17570m | -7.1m/s | -51.3°C | 0.1% | 84.8hPa | 2.5V | 08:09:58 | 02:42:56 | 00:00:00 | |
| DF8AY | 2026-09-01 01:00:30 | 51.30568 | 8.17857 | 50° | 22km/h | 17577m | -7.4m/s | -51.2°C | 0.1% | 84.8hPa | 2.5V | 08:09:58 | 02:42:55 | 00:00:00 | |
| DB0NH | 2026-09-01 01:00:30 | 51.30572 | 8.17864 | 51° | 31km/h | 17570m | -7.1m/s | -51.2°C | 3.4% | 84.8hPa | 2.5V | 08:09:00 | 02:42:56 | 00:00:00 | |
| DL1XH-15 | 2026-09-01 01:00:27 | 51.30559 | 8.17836 | 73° | 11km/h | 17606m | -6.9m/s | -51.2°C | 3.4% | 84.4hPa | 2.5V | 08:09:28 | 02:42:51 | 00:00:00 | |
| DJ8HS-15 | 2026-09-01 01:00:27 | 51.30562 | 8.17845 | 54° | 29km/h | 17592m | -7.4m/s | -51.1°C | 3.4% | 84.5hPa | 2.5V | 00:00:00 | 02:42:53 | 00:00:00 | |
| DB0ND-19 | 2026-09-01 01:00:26 | 51.30559 | 8.17836 | 73° | 9km/h | 17606m | -6.9m/s | -51.2°C | 1.0% | 84.4hPa | 2.5V | 00:00:00 | 00:00:00 | 00:00:00 | |
| GOEST3-10 | 2026-09-01 01:00:25 | 51.30559 | 8.17836 | 74° | 13km/h | 17606m | -6.9m/s | -51.2°C | 3.4% | 84.3hPa | 2.5V | 08:09:00 | 02:42:51 | 00:00:00 | |
| DL1XH1-15 | 2026-09-01 01:00:24 | 51.30565 | 8.17813 | 128° | 20km/h | 17641m | -6.8m/s | -51.4°C | 3.5% | 84hPa | 2.5V | 08:09:33 | 02:42:46 | 00:00:00 | |
| DL1XH-west | 2026-09-01 01:00:24 | 51.30559 | 8.17832 | 93° | 9km/h | 17613m | -6.7m/s | -51.2°C | 0.1% | 84.3hPa | 2.5V | 08:09:58 | 02:42:50 | 00:00:00 | |
| DL4XJ-10 | 2026-09-01 01:00:24 | 51.30559 | 8.17832 | 93° | 37km/h | 17613m | -6.7m/s | -51.2°C | 0% | 0hPa | 2.5V | 00:00:00 | 00:00:00 | 00:00:00 | |
| DL1NUX | 2026-09-01 01:00:22 | 51.30569 | 8.17806 | 127° | 24km/h | 17647m | -6.9m/s | -51.4°C | 3.5% | 83.9hPa | 2.5V | 08:09:34 | 02:42:45 | 00:00:00 | |
| HSKMA3-T | 2026-09-01 01:00:20 | 51.30565 | 8.17813 | 129° | 20km/h | 17641m | -6.8m/s | -51.4°C | 0.1% | 84hPa | 2.5V | 08:09:58 | 02:42:46 | 00:00:00 | |
| DF8AY | 2026-09-01 01:00:19 | 51.30573 | 8.17798 | 125° | 27km/h | 17654m | -7m/s | -51.4°C | 0.1% | 83.8hPa | 2.6V | 08:09:58 | 02:42:44 | 00:00:00 | |
| DM0DOS-11 | 2026-09-01 01:00:18 | 51.30581 | 8.17777 | 118° | 35km/h | 17668m | -7.1m/s | -51.4°C | 3.5% | 83.6hPa | 2.5V | 08:09:37 | 02:42:42 | 00:00:00 | |
| SO1NDE-10 | 2026-09-01 01:00:18 | 51.30577 | 8.17788 | 121° | 47km/h | 17662m | -6.7m/s | -51.4°C | 3.4% | 83.7hPa | 2.5V | 00:00:00 | 02:42:43 | 00:00:00 | |
| GOEST3-10 | 2026-09-01 01:00:15 | 51.30585 | 8.17764 | 117° | 40km/h | 17675m | -6.9m/s | -51.4°C | 3.5% | 83.5hPa | 2.5V | 00:00:00 | 02:42:41 | 00:00:00 | |
| DL1NUX | 2026-09-01 01:00:14 | 51.30606 | 8.17663 | 101° | 51km/h | 17718m | -7.1m/s | -51.3°C | 3.4% | 83hPa | 2.5V | 08:09:44 | 02:42:35 | 00:00:00 | |
| DL1XH-west | 2026-09-01 01:00:13 | 51.30593 | 8.17734 | 112° | 42km/h | 17689m | -6.9m/s | -51.4°C | 0.1% | 83.4hPa | 2.6V | 08:09:58 | 02:42:39 | 00:00:00 | |
| DL1XH1-15 | 2026-09-01 01:00:13 | 51.30604 | 8.17682 | 104° | 49km/h | 17710m | -7.2m/s | -51.3°C | 3.4% | 83.1hPa | 2.5V | 08:09:43 | 02:42:36 | 00:00:00 | |
| HSKMA3-T | 2026-09-01 01:00:10 | 51.30604 | 8.17682 | 105° | 49km/h | 17710m | -7.2m/s | -51.3°C | 0.1% | 83.1hPa | 2.5V | 08:09:58 | 02:42:36 | 00:00:00 | |
| GOEST3-10 | 2026-09-01 01:00:10 | 51.30604 | 8.17682 | 105° | 51km/h | 17711m | -7.1m/s | -51.3°C | 3.4% | 83.0hPa | 2.5V | 00:00:00 | 00:00:00 | 00:00:00 | |
| SONCRA | 2026-09-01 01:00:09 | 51.30607 | 8.17663 | 101° | 49km/h | 17718m | -7.1m/s | -51.3°C | 1.0% | 83.0hPa | 2.5V | 00:00:00 | 00:00:00 | 00:00:00 | |
| DM0DOS-11 | 2026-09-01 01:00:07 | 51.30611 | 8.17598 | 91° | 57km/h | 17739m | -7.2m/s | -51.4°C | 3.4% | 82.7hPa | 2.5V | 08:09:47 | 02:42:32 | 00:00:00 | |
| DF8AY | 2026-09-01 01:00:07 | 51.30611 | 8.17620 | 96° | 55km/h | 17732m | -7m/s | -51.4°C | 0.1% | 82.8hPa | 2.6V | 08:09:58 | 02:42:33 | 00:00:00 | |
| DL1ZP-14 | 2026-09-01 01:00:07 | 51.30612 | 8.17598 | 91° | 55km/h | 17739m | -7.2m/s | -51.4°C | 1.0% | 82.7hPa | 2.5V | 00:00:00 | 00:00:00 | 00:00:00 | |
| SONDE2-11 | 2026-09-01 01:00:06 | 51.30612 | 8.17575 | 88° | 57km/h | 17746m | -7.1m/s | -51.4°C | 1.0% | 82.6hPa | 2.5V | 00:00:00 | 00:00:00 | 00:00:00 | |
| DD8BA-10 | 2026-09-01 01:00:05 | 51.30612 | 8.17575 | 89° | 60km/h | 17746m | -7.1m/s | -51.4°C | 3.4% | 82.5hPa | 2.5V | 00:00:00 | 00:00:00 | 00:00:00 | |
| DL1NUX | 2026-09-01 01:00:04 | 51.30595 | 8.17431 | 70° | 60km/h | 17790m | -7.4m/s | -51.6°C | 3.5% | 82hPa | 2.5V | 08:09:54 | 02:42:25 | 00:00:00 | |
| DL1XH-west | 2026-09-01 01:00:02 | 51.30607 | 8.17503 | 79° | 62km/h | 17768m | -7.2m/s | -51.5°C | 0.1% | 82.3hPa | 2.6V | 08:09:58 | 02:42:28 | 00:00:00 | |
| DL1XH1-15 | 2026-09-01 01:00:01 | 51.30600 | 8.17455 | 73° | 62km/h | 17783m | -7.4m/s | -51.6°C | 3.5% | 82.1hPa | 2.5V | 08:09:53 | 02:42:26 | 00:00:00 | |
| HSKMA3-T | 2026-09-01 00:59:59 | 51.30595 | 8.17431 | 70° | 60km/h | 17790m | -7.4m/s | -51.6°C | 0.1% | 82hPa | 2.5V | 08:09:58 | 02:42:25 | 00:00:00 | |
| AA1-15 | 2026-09-01 00:59:56 | 51.30577 | 8.17368 | 62° | 53km/h | 17811m | -6.8m/s | -51.8°C | 0.2% | 81.8hPa | 2.5V | 08:09:58 | 02:42:22 | 00:00:00 | |
| DB0ND-19 | 2026-09-01 00:59:55 | 51.30565 | 8.17335 | 58° | 44km/h | 17825m | -6.5m/s | -51.9°C | 1.0% | 81.6hPa | 2.5V | 00:00:00 | 00:00:00 | 00:00:00 | |
| DL1NUX | 2026-09-01 00:59:54 | 51.30540 | 8.17273 | 58° | 29km/h | 17860m | -7.2m/s | -52°C | 3.6% | 81.2hPa | 2.5V | 08:10:04 | 02:42:15 | 00:00:00 | |
| DO2JMG | 2026-09-01 00:59:52 | 51.30554 | 8.17307 | 57° | 38km/h | 17839m | -7m/s | 0°C | 0% | 0hPa | 2.6V | 18:12:15 | 02:42:18 | 00:00:00 | |
| DL1XH-west | 2026-09-01 00:59:52 | 51.30549 | 8.17295 | 56° | 35km/h | 17846m | -7.1m/s | -52°C | 0.3% | 81.3hPa | 2.5V | 08:10:49 | 02:42:17 | 00:00:00 | |
| HSKMA3-T | 2026-09-01 00:59:49 | 51.30540 | 8.17273 | 58° | 31km/h | 17860m | -7.2m/s | -52°C | 0.2% | 81.2hPa | 2.5V | 08:10:49 | 02:42:15 | 00:00:00 | |
| BIOWL1-15 | 2026-09-01 00:59:46 | 51.30530 | 8.17245 | 67° | 24km/h | 17883m | -7.5m/s | -51.8°C | 0.2% | 80.8hPa | 2.5V | 08:10:49 | 02:42:12 | 00:00:00 | |
| AA1-15 | 2026-09-01 00:59:46 | 51.30529 | 8.17236 | 75° | 22km/h | 17890m | -7.1m/s | -51.9°C | 0.2% | 80.8hPa | 2.5V | 08:10:49 | 02:42:11 | 00:00:00 | |
| DL3AQ-11 | 2026-09-01 00:59:46 | 51.30529 | 8.17236 | 74° | 20km/h | 17890m | -7.1m/s | -51.9°C | 1.0% | 80.8hPa | 2.5V | 00:00:00 | 00:00:00 | 00:00:00 | |
| GOEST3-10 | 2026-09-01 00:59:45 | 51.30529 | 8.17236 | 75° | 20km/h | 17890m | -7.0m/s | -51.8°C | 3.6% | 80.7hPa | 2.5V | 00:00:00 | 02:42:11 | 00:00:00 | |
| DL4XJ-10 | 2026-09-01 00:59:44 | 51.30528 | 8.17228 | 86° | 44km/h | 17898m | -7.2m/s | -51.9°C | 0% | 0hPa | 2.5V | 00:00:00 | 00:00:00 | 00:00:00 | |
| DL1NUX | 2026-09-01 00:59:43 | 51.30539 | 8.17185 | 124° | 33km/h | 17934m | -7.5m/s | -51.9°C | 3.7% | 80.3hPa | 2.5V | 08:10:14 | 02:42:05 | 00:00:00 | |
| DO2JMG | 2026-09-01 00:59:41 | 51.30531 | 8.17204 | 119° | 24km/h | 17919m | -7.4m/s | 0°C | 0% | 0hPa | 2.5V | 18:12:15 | 02:42:07 | 00:00:00 | |
| DL1XH-west | 2026-09-01 00:59:40 | 51.30535 | 8.17195 | 123° | 27km/h | 17927m | -7.6m/s | -51.9°C | 0.3% | 80.3hPa | 2.5V | 08:10:49 | 02:42:06 | 00:00:00 | |
| DM0DOS-11 | 2026-09-01 00:59:40 | 51.30554 | 8.17144 | 114° | 46km/h | 17955m | -6.9m/s | -51.8°C | 3.7% | 80hPa | 2.5V | 08:10:17 | 02:42:02 | 00:00:00 | |
| BIOWL1-15 | 2026-09-01 00:59:39 | 51.30563 | 8.17106 | 107° | 53km/h | 17969m | -6.9m/s | -51.8°C | 0.2% | 79.8hPa | 2.5V | 08:10:49 | 02:42:00 | 00:00:00 | |
| HSKMA3-T | 2026-09-01 00:59:39 | 51.30539 | 8.17185 | 124° | 33km/h | 17934m | -7.5m/s | -51.9°C | 0.3% | 80.3hPa | 2.5V | 08:10:49 | 02:42:05 | 00:00:00 | |
| AA1-15 | 2026-09-01 00:59:35 | 51.30559 | 8.17126 | 111° | 49km/h | 17962m | -6.6m/s | -51.9°C | 0.2% | 79.9hPa | 2.5V | 08:10:49 | 02:42:01 | 00:00:00 | |
| SONDE2-11 | 2026-09-01 00:59:35 | 51.30563 | 8.17106 | 107° | 51km/h | 17969m | -6.9m/s | -51.8°C | 1.0% | 79.8hPa | 2.5V | 00:00:00 | 00:00:00 | 00:00:00 | |
| DF7PN | 2026-09-01 00:59:34 | 51.30563 | 8.17106 | 107° | 51km/h | 17969m | -6.9m/s | -51.8°C | 1.0% | 79.8hPa | 2.5V | 00:00:00 | 00:00:00 | 00:00:00 | |
| DL3AQ-11 | 2026-09-01 00:59:33 | 51.30570 | 8.17063 | 101° | 55km/h | 17983m | -7.1m/s | -51.7°C | 1.0% | 79.6hPa | 2.5V | 00:00:00 | 00:00:00 | 00:00:00 | |
| DO3MHA-11 | 2026-09-01 00:59:31 | 51.30572 | 8.17041 | 99° | 51km/h | 17991m | -7.3m/s | -51.6°C | 3.6% | 79.5hPa | 2.5V | 00:00:00 | 02:41:57 | 00:00:00 | |
| DL1NUX | 2026-09-01 00:59:30 | 51.30576 | 8.16995 | 93° | 57km/h | 18005m | -7.7m/s | -51.5°C | 3.6% | 79.4hPa | 2.5V | 08:10:24 | 02:41:55 | 00:00:00 | |
| DL1XH-west | 2026-09-01 00:59:30 | 51.30574 | 8.17018 | 96° | 57km/h | 17998m | -7.3m/s | -51.5°C | 0.2% | 79.5hPa | 2.5V | 08:10:49 | 02:41:56 | 00:00:00 | |
| HSKMA3-T | 2026-09-01 00:59:29 | 51.30575 | 8.16995 | 94° | 57km/h | 18005m | -7.7m/s | -51.5°C | 0.2% | 79.4hPa | 2.5V | 08:10:49 | 02:41:55 | 00:00:00 | |
| DJ2KF-10 | 2026-09-01 00:59:29 | 51.30575 | 8.16995 | 94° | 47km/h | 18005m | -7.6m/s | -51.5°C | 3.6% | 79.3hPa | 2.5V | 00:00:00 | 02:41:55 | 00:00:00 | |
| DO3MHA-12 | 2026-09-01 00:59:28 | 51.30576 | 8.16972 | 91° | 47km/h | 18013m | -7.4m/s | -51.4°C | 3.6% | 79.2hPa | 2.5V | 00:00:00 | 02:41:54 | 00:00:00 | |
| DB0UT-7 | 2026-09-01 00:59:27 | 51.30576 | 8.16950 | 87° | 33km/h | 18020m | -7.6m/s | -51.4°C | 3.6% | 79.1hPa | 2.5V | 00:00:00 | 02:41:53 | 00:00:00 | |
| DL1XH-15 | 2026-09-01 00:59:26 | 51.30573 | 8.16909 | 79° | 49km/h | 18034m | -7.1m/s | -51.5°C | 3.6% | 79hPa | 2.5V | 08:10:28 | 02:41:51 | 00:00:00 | |
| DL1XH1-15 | 2026-09-01 00:59:25 | 51.30552 | 8.16824 | 58° | 46km/h | 18070m | -7.2m/s | -51.4°C | 3.7% | 78.6hPa | 2.5V | 08:10:33 | 02:41:46 | 00:00:00 | |
| BIOWL1-15 | 2026-09-01 00:59:25 | 51.30573 | 8.16909 | 79° | 49km/h | 18035m | -7.1m/s | -51.5°C | 0.2% | 79hPa | 2.5V | 08:10:49 | 02:41:51 | 00:00:00 | |
| DF8AY | 2026-09-01 00:59:24 | 51.30570 | 8.16890 | 75° | 47km/h | 18042m | -6.8m/s | -51.5°C | 0.2% | 78.9hPa | 2.5V | 08:10:49 | 02:41:50 | 00:00:00 | |
| DB0ND-19 | 2026-09-01 00:59:24 | 51.30567 | 8.16873 | 69° | 46km/h | 18048m | -7.1m/s | -51.5°C | 1.0% | 78.9hPa | 2.5V | 00:00:00 | 00:00:00 | 00:00:00 | |
| BIOWL9-15 | 2026-09-01 00:59:23 | 51.30567 | 8.16873 | 69° | 46km/h | 18048m | -7.1m/s | -51.5°C | 1.0% | 78.9hPa | 2.5V | 00:00:00 | 00:00:00 | 00:00:00 | |
| DL3AQ-11 | 2026-09-01 00:59:22 | 51.30557 | 8.16839 | 61° | 44km/h | 18063m | -7.5m/s | -51.5°C | 1.0% | 78.7hPa | 2.5V | 00:00:00 | 00:00:00 | 00:00:00 | |
| DO3MHA-11 | 2026-09-01 00:59:21 | 51.30557 | 8.16839 | 62° | 38km/h | 18063m | -7.4m/s | -51.4°C | 3.6% | 78.6hPa | 2.5V | 08:10:00 | 02:41:47 | 00:00:00 | |
| DM0DOS-11 | 2026-09-01 00:59:20 | 51.30524 | 8.16770 | 42° | 40km/h | 18100m | -7.8m/s | -51°C | 3.5% | 78.2hPa | 2.5V | 08:10:37 | 02:41:42 | 00:00:00 | |
| DL1XH-west | 2026-09-01 00:59:19 | 51.30545 | 8.16809 | 55° | 44km/h | 18077m | -7.4m/s | -51.3°C | 0.2% | 78.5hPa | 2.5V | 08:10:49 | 02:41:45 | 00:00:00 | |
| HSKMA3-T | 2026-09-01 00:59:18 | 51.30539 | 8.16795 | 51° | 44km/h | 18085m | -7.5m/s | -51.2°C | 0.2% | 78.4hPa | 2.6V | 08:10:49 | 02:41:44 | 00:00:00 | |
| BIOWL1-15 | 2026-09-01 00:59:16 | 51.30486 | 8.16737 | 14° | 16km/h | 18145m | -7.5m/s | -50.7°C | 0.2% | 77.7hPa | 2.5V | 08:10:49 | 02:41:36 | 00:00:00 | |
| DL1XH-15 | 2026-09-01 00:59:16 | 51.30517 | 8.16760 | 37° | 37km/h | 18108m | -7.5m/s | -50.9°C | 3.5% | 78.1hPa | 2.5V | 08:10:38 | 02:41:41 | 00:00:00 | |
| AA1-15 | 2026-09-01 00:59:14 | 51.30510 | 8.16753 | 31° | 33km/h | 18115m | -7.6m/s | -50.8°C | 0.2% | 78hPa | 2.5V | 08:10:49 | 02:41:40 | 00:00:00 | |
| DL1XH1-15 | 2026-09-01 00:59:14 | 51.30486 | 8.16737 | 13° | 16km/h | 18145m | -7.5m/s | -50.7°C | 3.5% | 77.7hPa | 2.5V | 08:10:43 | 02:41:36 | 00:00:00 | |
| DD1CC3-15 | 2026-09-01 00:59:13 | 51.30510 | 8.16753 | 32° | 33km/h | 18116m | -7.6m/s | -50.8°C | 1.0% | 78.0hPa | 2.5V | 08:10:00 | 00:00:00 | 00:00:00 | |
| DL4BBY-15 | 2026-09-01 00:59:12 | 51.30497 | 8.16742 | 21° | 33km/h | 18131m | -7.7m/s | -50.7°C | 0% | 0hPa | 2.5V | 00:00:00 | 00:00:00 | 00:00:00 | |
| DO3MHA-11 | 2026-09-01 00:59:11 | 51.30491 | 8.16739 | 17° | 16km/h | 18138m | -7.2m/s | -50.6°C | 3.5% | 77.7hPa | 2.5V | 00:00:00 | 02:41:37 | 00:00:00 | |
| DM0DOS-11 | 2026-09-01 00:59:10 | 51.30479 | 8.16729 | 98° | 9km/h | 18175m | -7.6m/s | -50.5°C | 3.5% | 77.3hPa | 2.5V | 08:10:47 | 02:41:32 | 00:00:00 | |
| HSKMA3-T | 2026-09-01 00:59:08 | 51.30481 | 8.16735 | 33° | 7km/h | 18160m | -7.4m/s | -50.6°C | 0.1% | 77.5hPa | 2.6V | 08:10:49 | 02:41:34 | 00:00:00 | |
| DO3MHA-12 | 2026-09-01 00:59:08 | 51.30480 | 8.16734 | 33° | 20km/h | 18160m | -7.4m/s | -50.6°C | 3.5% | 77.4hPa | 2.6V | 00:00:00 | 02:41:34 | 00:00:00 | |
| DJ8HS-15 | 2026-09-01 00:59:07 | 51.30480 | 8.16732 | 74° | 35km/h | 18168m | -7.2m/s | -50.5°C | 3.5% | 77.4hPa | 2.6V | 00:00:00 | 02:41:33 | 00:00:00 | |
| DL1XH-15 | 2026-09-01 00:59:06 | 51.30480 | 8.16724 | 109° | 15km/h | 18182m | -7m/s | -50.5°C | 3.5% | 77.2hPa | 2.5V | 08:10:48 | 02:41:31 | 00:00:00 | |
| DL3AQ-11 | 2026-09-01 00:59:06 | 51.30480 | 8.16725 | 109° | 13km/h | 18182m | -7.0m/s | -50.5°C | 0.9% | 77.2hPa | 2.5V | 00:00:00 | 00:00:00 | 00:00:00 | |
| DD8BA-10 | 2026-09-01 00:59:05 | 51.30480 | 8.16725 | 110° | 29km/h | 18182m | -7.0m/s | -50.4°C | 3.5% | 77.2hPa | 2.5V | 00:00:00 | 00:00:00 | 00:00:00 | |
| DL1XH1-15 | 2026-09-01 00:59:04 | 51.30488 | 8.16677 | 95° | 33km/h | 18219m | -7.9m/s | -49.5°C | 3.3% | 76.8hPa | 2.5V | 08:10:53 | 02:41:26 | 00:00:00 | |
| AA1-15 | 2026-09-01 00:59:03 | 51.30483 | 8.16710 | 108° | 24km/h | 18197m | -7.5m/s | -50.3°C | 0.2% | 77.1hPa | 2.6V | 08:11:40 | 02:41:29 | 00:00:00 | |
| BIOWL1-15 | 2026-09-01 00:59:02 | 51.30485 | 8.16701 | 105° | 27km/h | 18204m | -7.6m/s | -50.2°C | 0.1% | 77hPa | 2.6V | 08:11:40 | 02:41:28 | 00:00:00 | |
| DO3MHA-11 | 2026-09-01 00:59:01 | 51.30486 | 8.16690 | 101° | 40km/h | 18212m | -7.5m/s | -49.9°C | 3.4% | 76.9hPa | 2.5V | 00:00:00 | 02:41:27 | 00:00:00 | |
| DL1NUX | 2026-09-01 00:59:00 | 51.30488 | 8.16664 | 91° | 35km/h | 18227m | -7.8m/s | -49.3°C | 3.2% | 76.7hPa | 2.5V | 08:10:54 | 02:41:25 | 00:00:00 | |
| DM0DOS-11 | 2026-09-01 00:59:00 | 51.30484 | 8.16617 | 72° | 42km/h | 18250m | -7.4m/s | -49.1°C | 3.1% | 76.5hPa | 2.5V | 08:10:57 | 02:41:22 | 00:00:00 | |
| DL1XH-west | 2026-09-01 00:58:58 | 51.30488 | 8.16649 | 86° | 38km/h | 18235m | -7.3m/s | -49.3°C | 0% | 76.6hPa | 2.6V | 08:11:40 | 02:41:24 | 00:00:00 | |
| DJ2DS-15 | 2026-09-01 00:58:58 | 51.30488 | 8.16649 | 86° | 44km/h | 18235m | -7.3m/s | -49.2°C | 3.1% | 76.6hPa | 2.6V | 00:00:00 | 02:41:24 | 00:00:00 | |
| DB0UT-7 | 2026-09-01 00:58:57 | 51.30486 | 8.16633 | 79° | 35km/h | 18243m | -7.7m/s | -49.2°C | 3.2% | 76.5hPa | 2.6V | 08:10:00 | 00:00:00 | 00:00:00 | |
| DL1XH-15 | 2026-09-01 00:58:56 | 51.30480 | 8.16601 | 65° | 44km/h | 18257m | -7.3m/s | -49.1°C | 3.1% | 76.4hPa | 2.5V | 08:10:58 | 02:41:21 | 00:00:00 | |
| DD8BA-10 | 2026-09-01 00:58:55 | 51.30480 | 8.16601 | 66° | 47km/h | 18258m | -7.2m/s | -49.1°C | 3.1% | 76.3hPa | 2.5V | 00:00:00 | 00:00:00 | 00:00:00 | |
| DL1XH1-15 | 2026-09-01 00:58:54 | 51.30445 | 8.16528 | 41° | 47km/h | 18293m | -7.4m/s | -49°C | 3% | 76hPa | 2.5V | 08:11:03 | 02:41:16 | 00:00:00 | |
| AA1-15 | 2026-09-01 00:58:54 | 51.30469 | 8.16570 | 55° | 46km/h | 18271m | -7.2m/s | -49.1°C | 0% | 76.2hPa | 2.6V | 08:11:40 | 02:41:19 | 00:00:00 | |
| BIOWL1-15 | 2026-09-01 00:58:52 | 51.30462 | 8.16556 | 50° | 46km/h | 18279m | -7.2m/s | -49°C | 0% | 76.1hPa | 2.6V | 08:11:40 | 02:41:18 | 00:00:00 | |
| WPPR-10 | 2026-09-01 00:58:51 | 51.30445 | 8.16528 | 41° | 47km/h | 18293m | -7.4m/s | -49.0°C | 0.8% | 76.0hPa | 2.5V | 00:00:00 | 00:00:00 | 00:00:00 | |
| DL1XH-15 | 2026-09-01 00:58:50 | 51.30382 | 8.16475 | 11° | 46km/h | 18339m | -7.2m/s | -49.1°C | 3% | 75.4hPa | 2.5V | 08:11:09 | 02:41:10 | 00:00:00 | |
| DL1NUX | 2026-09-01 00:58:50 | 51.30436 | 8.16516 | 37° | 47km/h | 18301m | -7.6m/s | -49°C | 3% | 75.8hPa | 2.5V | 08:11:04 | 02:41:15 | 00:00:00 | |
| DM0DOS-11 | 2026-09-01 00:58:50 | 51.30405 | 8.16487 | 22° | 47km/h | 18324m | -7.3m/s | -49°C | 3% | 75.5hPa | 2.5V | 08:11:07 | 02:41:12 | 00:00:00 | |
| DL1XH-west | 2026-09-01 00:58:48 | 51.30426 | 8.16505 | 33° | 47km/h | 18309m | -7.8m/s | -49°C | 0% | 75.8hPa | 2.6V | 08:11:40 | 02:41:14 | 00:00:00 | |
| HSKMA3-T | 2026-09-01 00:58:47 | 51.30415 | 8.16495 | 28° | 47km/h | 18317m | -7.9m/s | -49°C | 0% | 75.7hPa | 2.6V | 08:11:40 | 02:41:13 | 00:00:00 | |
| EDDB2-11 | 2026-09-01 00:58:46 | 51.30405 | 8.16487 | 22° | 46km/h | 18324m | -7.3m/s | -49.0°C | 0.8% | 75.6hPa | 2.5V | 00:00:00 | 00:00:00 | 00:00:00 | |
| DL1NUX | 2026-09-01 00:58:45 | 51.30330 | 8.16476 | 347° | 35km/h | 18377m | -8.1m/s | -49.4°C | 3% | 75hPa | 2.5V | 08:11:14 | 02:41:05 | 00:00:00 | |
| DL1XH1-15 | 2026-09-01 00:58:44 | 51.30339 | 8.16473 | 351° | 38km/h | 18369m | -7.6m/s | -49.3°C | 3% | 75hPa | 2.5V | 08:11:13 | 02:41:06 | 00:00:00 | |
| AA1-15 | 2026-09-01 00:58:42 | 51.30360 | 8.16471 | 1° | 44km/h | 18354m | -7.7m/s | -49.1°C | 0% | 75.2hPa | 2.6V | 08:11:40 | 02:41:08 | 00:00:00 | |
| BIOWL1-15 | 2026-09-01 00:58:41 | 51.30314 | 8.16483 | 342° | 27km/h | 18393m | -7.5m/s | -49.5°C | 0% | 74.8hPa | 2.6V | 08:11:40 | 02:41:03 | 00:00:00 | |
| DF8AY | 2026-09-01 00:58:41 | 51.30349 | 8.16472 | 356° | 42km/h | 18362m | -7.7m/s | -49.2°C | 0% | 75.2hPa | 2.5V | 08:11:40 | 02:41:07 | 00:00:00 | |
| DO3MHA-11 | 2026-09-01 00:58:41 | 51.30349 | 8.16472 | 357° | 26km/h | 18362m | -7.7m/s | -49.2°C | 3.0% | 75.1hPa | 2.5V | 00:00:00 | 02:41:07 | 00:00:00 | |
| GOEST3-10 | 2026-09-01 00:58:40 | 51.30339 | 8.16473 | 352° | 31km/h | 18370m | -7.6m/s | -49.2°C | 3.0% | 75.0hPa | 2.5V | 00:00:00 | 00:00:00 | 00:00:00 | |
| DL1XH-15 | 2026-09-01 00:58:39 | 51.30303 | 8.16489 | 341° | 18km/h | 18407m | -7.4m/s | -49.7°C | 3.1% | 74.6hPa | 2.5V | 08:11:18 | 02:41:01 | 00:00:00 | |
| DL1XH-west | 2026-09-01 00:58:38 | 51.30321 | 8.16479 | 344° | 33km/h | 18385m | -7.4m/s | -49.5°C | 0% | 74.9hPa | 2.6V | 08:11:40 | 02:41:04 | 00:00:00 | |
| HSKMA3-T | 2026-09-01 00:58:36 | 51.30308 | 8.16486 | 340° | 24km/h | 18400m | -7.4m/s | -49.6°C | 0% | 74.7hPa | 2.5V | 08:11:40 | 02:41:02 | 00:00:00 | |
| SONCRA | 2026-09-01 00:58:36 | 51.30308 | 8.16486 | 339° | 22km/h | 18400m | -7.4m/s | -49.6°C | 0.8% | 74.7hPa | 2.5V | 00:00:00 | 00:00:00 | 00:00:00 | |
| GOEST3-10 | 2026-09-01 00:58:35 | 51.30303 | 8.16489 | 342° | 13km/h | 18407m | -7.4m/s | -49.6°C | 3.1% | 74.6hPa | 2.5V | 00:00:00 | 02:41:01 | 00:00:00 | |
| DL1NUX | 2026-09-01 00:58:34 | 51.30289 | 8.16485 | 65° | 11km/h | 18453m | -7.5m/s | -50.1°C | 3.2% | 74.1hPa | 2.5V | 08:11:24 | 02:40:55 | 00:00:00 | |
| HTAHTA | 2026-09-01 00:58:34 | 51.30299 | 8.16491 | 343° | 13km/h | 18415m | -7.5m/s | -49.8°C | 0.9% | 74.5hPa | 2.5V | 00:00:00 | 00:00:00 | 00:00:00 | |
| DL1XH1-15 | 2026-09-01 00:58:33 | 51.30290 | 8.16488 | 55° | 9km/h | 18445m | -7.8m/s | -50°C | 3.1% | 74.2hPa | 2.5V | 08:11:23 | 02:40:56 | 00:00:00 | |
| AA1-15 | 2026-09-01 00:58:31 | 51.30291 | 8.16491 | 33° | 7km/h | 18437m | -7.5m/s | -50°C | 0% | 74.3hPa | 2.5V | 08:11:40 | 02:40:57 | 00:00:00 | |
| DL1XH-west | 2026-09-01 00:58:27 | 51.30286 | 8.16474 | 74° | 18km/h | 18468m | -7.7m/s | -50.2°C | 0% | 74hPa | 2.6V | 08:11:40 | 02:40:53 | 00:00:00 | |
| HSKMA3-T | 2026-09-01 00:58:26 | 51.30285 | 8.16466 | 75° | 22km/h | 18476m | -7.7m/s | -50.2°C | 0% | 73.8hPa | 2.5V | 08:11:40 | 02:40:52 | 00:00:00 | |
| DD8BA-10 | 2026-09-01 00:58:25 | 51.30283 | 8.16457 | 75° | 40km/h | 18484m | -7.7m/s | -50.2°C | 3.2% | 73.7hPa | 2.5V | 00:00:00 | 00:00:00 | 00:00:00 | |
| DL4XJ-10 | 2026-09-01 00:58:24 | 51.30281 | 8.16447 | 74° | 47km/h | 18492m | -7.9m/s | -50.4°C | 0% | 0hPa | 2.5V | 00:00:00 | 00:00:00 | 00:00:00 | |
| DL1XH1-15 | 2026-09-01 00:58:23 | 51.30267 | 8.16394 | 61° | 42km/h | 18523m | -7.9m/s | -50.6°C | 3.3% | 73.3hPa | 2.5V | 08:11:33 | 02:40:46 | 00:00:00 | |
| DF8AY | 2026-09-01 00:58:21 | 51.30272 | 8.16409 | 65° | 38km/h | 18515m | -7.7m/s | -50.6°C | 0% | 73.4hPa | 2.5V | 08:11:40 | 02:40:47 | 00:00:00 | |
| AA1-15 | 2026-09-01 00:58:20 | 51.30268 | 8.16394 | 61° | 42km/h | 18523m | -7.9m/s | -50.6°C | 0% | 73.3hPa | 2.5V | 08:11:40 | 02:40:46 | 00:00:00 | |
| BIOWL1-15 | 2026-09-01 00:58:20 | 51.30155 | 8.16260 | 15° | 55km/h | 18607m | -7.9m/s | -51.3°C | 0.2% | 72.3hPa | 2.5V | 08:12:31 | 02:40:35 | 00:00:00 | |
| DL1XH-west | 2026-09-01 00:58:17 | 51.30248 | 8.16349 | 49° | 49km/h | 18546m | -7.6m/s | -50.8°C | 0.1% | 73hPa | 2.6V | 08:11:40 | 02:40:43 | 00:00:00 | |
| HSKMA3-T | 2026-09-01 00:58:15 | 51.30229 | 8.16320 | 40° | 53km/h | 18561m | -7.4m/s | -50.9°C | 0.1% | 72.9hPa | 2.5V | 08:11:40 | 02:40:41 | 00:00:00 | |
| GOEST3-10 | 2026-09-01 00:58:15 | 51.30229 | 8.16319 | 41° | 55km/h | 18561m | -7.4m/s | -50.9°C | 3.3% | 72.8hPa | 2.5V | 00:00:00 | 02:40:41 | 00:00:00 | |
| DL1NUX | 2026-09-01 00:58:14 | 51.30154 | 8.16260 | 14° | 55km/h | 18607m | -7.9m/s | -51.3°C | 3.5% | 72.3hPa | 2.5V | 08:11:44 | 02:40:35 | 00:00:00 | |
| DF8AY | 2026-09-01 00:58:11 | 51.30181 | 8.16274 | 23° | 57km/h | 18591m | -7.6m/s | -51.1°C | 0.1% | 72.5hPa | 2.5V | 08:12:31 | 02:40:37 | 00:00:00 | |
| AA1-15 | 2026-09-01 00:58:10 | 51.30168 | 8.16266 | 19° | 55km/h | 18599m | -7.7m/s | -51.2°C | 0.1% | 72.5hPa | 2.5V | 08:12:31 | 02:40:36 | 00:00:00 | |
| GOEST3-10 | 2026-09-01 00:58:10 | 51.30168 | 8.16266 | 19° | 53km/h | 18599m | -7.7m/s | -51.2°C | 3.4% | 72.4hPa | 2.5V | 08:11:00 | 00:00:00 | 00:00:00 | |
| DM0DOS-11 | 2026-09-01 00:58:09 | 51.30117 | 8.16249 | 5° | 47km/h | 18630m | -7.6m/s | -51.4°C | 3.4% | 72.1hPa | 2.5V | 08:11:47 | 02:40:32 | 00:00:00 | |
| DL1XH-west | 2026-09-01 00:58:07 | 51.30129 | 8.16251 | 9° | 49km/h | 18622m | -7.8m/s | -51.4°C | 0.1% | 72.2hPa | 2.6V | 08:12:31 | 02:40:33 | 00:00:00 | |
| HSKMA3-T | 2026-09-01 00:58:05 | 51.30105 | 8.16247 | 3° | 42km/h | 18638m | -7.7m/s | -51.5°C | 0.2% | 72.1hPa | 2.5V | 08:12:31 | 02:40:31 | 00:00:00 | |
| DD8BA-10 | 2026-09-01 00:58:05 | 51.30105 | 8.16247 | 3° | 26km/h | 18638m | -7.6m/s | -51.4°C | 3.5% | 72.0hPa | 2.5V | 08:11:00 | 00:00:00 | 00:00:00 | |
| DL4XJ-10 | 2026-09-01 00:58:04 | 51.30095 | 8.16247 | 2° | 27km/h | 18646m | -7.5m/s | -51.5°C | 0% | 0hPa | 2.5V | 00:00:00 | 00:00:00 | 00:00:00 | |
| DL1XH1-15 | 2026-09-01 00:58:03 | 51.30064 | 8.16246 | 5° | 22km/h | 18676m | -7.4m/s | -51.7°C | 3.5% | 71.6hPa | 2.5V | 08:11:53 | 02:40:26 | 00:00:00 | |
| BIOWL1-15 | 2026-09-01 00:58:03 | 51.30086 | 8.16247 | 360° | 35km/h | 18653m | -8m/s | -51.6°C | 0.1% | 71.9hPa | 2.6V | 08:12:31 | 02:40:29 | 00:00:00 | |
| DF8AY | 2026-09-01 00:58:01 | 51.30064 | 8.16246 | 6° | 22km/h | 18676m | -7.4m/s | -51.7°C | 0.2% | 71.6hPa | 2.5V | 08:12:31 | 02:40:26 | 00:00:00 | |
| DO3MHA-11 | 2026-09-01 00:58:01 | 51.30070 | 8.16247 | 2° | 20km/h | 18668m | -7.5m/s | -51.7°C | 3.5% | 71.7hPa | 2.6V | 00:00:00 | 02:40:27 | 00:00:00 | |
| DL1XH-15 | 2026-09-01 00:58:00 | 51.30046 | 8.16231 | 62° | 16km/h | 18715m | -8.2m/s | -51.8°C | 3.5% | 71.2hPa | 2.6V | 08:11:58 | 02:40:21 | 00:00:00 | |
| AA1-15 | 2026-09-01 00:57:59 | 51.30059 | 8.16245 | 12° | 18km/h | 18683m | -7.6m/s | -51.7°C | 0.2% | 71.6hPa | 2.5V | 08:12:31 | 02:40:25 | 00:00:00 | |
| DM0DOS-11 | 2026-09-01 00:57:58 | 51.30049 | 8.16236 | 47° | 15km/h | 18706m | -7.9m/s | -51.7°C | 3.5% | 71.2hPa | 2.6V | 08:11:57 | 02:40:22 | 00:00:00 | |
| DL1XH-west | 2026-09-01 00:57:56 | 51.30049 | 8.16236 | 48° | 15km/h | 18706m | -7.9m/s | -51.7°C | 0.2% | 71.2hPa | 2.6V | 08:12:31 | 02:40:22 | 00:00:00 | |
| BIOWL1-15 | 2026-09-01 00:57:55 | 51.30035 | 8.16162 | 75° | 44km/h | 18762m | -7.6m/s | -52.1°C | 0.2% | 70.7hPa | 2.5V | 08:12:31 | 02:40:15 | 00:00:00 | |
| DL1NUX | 2026-09-01 00:57:54 | 51.30035 | 8.16162 | 74° | 44km/h | 18762m | -7.6m/s | -52.1°C | 3.6% | 70.7hPa | 2.5V | 08:12:04 | 02:40:15 | 00:00:00 | |
| HSKMA3-T | 2026-09-01 00:57:54 | 51.30045 | 8.16225 | 70° | 20km/h | 18723m | -7.9m/s | -51.8°C | 0.2% | 71.1hPa | 2.5V | 08:12:31 | 02:40:20 | 00:00:00 | |
| DL1XH1-15 | 2026-09-01 00:57:53 | 51.30037 | 8.16178 | 76° | 40km/h | 18754m | -7.5m/s | -52°C | 3.5% | 70.7hPa | 2.6V | 08:12:03 | 02:40:16 | 00:00:00 | |
| DO3DL | 2026-09-01 00:57:52 | 51.30043 | 8.16216 | 76° | 26km/h | 18731m | -8.3m/s | -51.9°C | 1.0% | 71.0hPa | 2.6V | 08:12:00 | 00:00:00 | 00:00:00 | |
| DM0DOS-11 | 2026-09-01 00:57:51 | 51.30017 | 8.16084 | 64° | 58km/h | 18793m | -7.9m/s | -52.1°C | 3.6% | 70.3hPa | 2.6V | 08:12:08 | 02:40:11 | 00:00:00 | |
| DB0ND-19 | 2026-09-01 00:57:51 | 51.30037 | 8.16178 | 76° | 38km/h | 18755m | -7.5m/s | -52.0°C | 1.0% | 70.7hPa | 2.6V | 00:00:00 | 00:00:00 | 00:00:00 | |
| GOEST3-10 | 2026-09-01 00:57:50 | 51.30037 | 8.16178 | 77° | 47km/h | 18755m | -7.4m/s | -52.0°C | 3.5% | 70.7hPa | 2.6V | 00:00:00 | 00:00:00 | 00:00:00 | |
| DL1XH-15 | 2026-09-01 00:57:49 | 51.30017 | 8.16084 | 64° | 58km/h | 18793m | -7.9m/s | -52.1°C | 3.6% | 70.3hPa | 2.6V | 08:12:08 | 02:40:11 | 00:00:00 | |
| AA1-15 | 2026-09-01 00:57:48 | 51.30032 | 8.16144 | 73° | 49km/h | 18770m | -7.8m/s | -52.1°C | 0.2% | 70.6hPa | 2.5V | 08:12:31 | 02:40:14 | 00:00:00 | |
| DL1XH-west | 2026-09-01 00:57:45 | 51.30017 | 8.16084 | 64° | 58km/h | 18793m | -7.9m/s | -52.1°C | 0.2% | 70.3hPa | 2.6V | 08:12:31 | 02:40:11 | 00:00:00 | |
| DD8BA-10 | 2026-09-01 00:57:45 | 51.30017 | 8.16084 | 65° | 60km/h | 18794m | -7.9m/s | -52.0°C | 3.6% | 70.3hPa | 2.5V | 00:00:00 | 00:00:00 | 00:00:00 | |
| DL1NUX | 2026-09-01 00:57:44 | 51.29960 | 8.15968 | 39° | 60km/h | 18840m | -7.9m/s | -52.2°C | 3.6% | 69.8hPa | 2.5V | 08:12:14 | 02:40:05 | 00:00:00 | |
| HSKMA3-T | 2026-09-01 00:57:43 | 51.30002 | 8.16042 | 56° | 62km/h | 18809m | -7.7m/s | -52.1°C | 0.3% | 70.1hPa | 2.5V | 08:12:31 | 02:40:09 | 00:00:00 | |
| BIOWL1-15 | 2026-09-01 00:57:41 | 51.29983 | 8.16002 | 48° | 62km/h | 18824m | -7.5m/s | -52.2°C | 0.3% | 70hPa | 2.6V | 08:12:31 | 02:40:07 | 00:00:00 | |
| DO3MHA-11 | 2026-09-01 00:57:41 | 51.29983 | 8.16002 | 48° | 55km/h | 18825m | -7.5m/s | -52.1°C | 3.6% | 70.0hPa | 2.6V | 00:00:00 | 02:40:07 | 00:00:00 | |
| DM0DOS-11 | 2026-09-01 00:57:40 | 51.29924 | 8.15928 | 29° | 55km/h | 18863m | -8m/s | -52.3°C | 3.7% | 69.6hPa | 2.6V | 08:12:17 | 02:40:02 | 00:00:00 | |
| DO3DL | 2026-09-01 00:57:40 | 51.29972 | 8.15984 | 44° | 62km/h | 18832m | -7.6m/s | -52.2°C | 1.0% | 69.9hPa | 2.6V | 08:12:00 | 00:00:00 | 00:00:00 | |
| DL1XH-15 | 2026-09-01 00:57:39 | 51.29912 | 8.15917 | 27° | 51km/h | 18871m | -8m/s | -52.3°C | 3.7% | 69.5hPa | 2.6V | 08:12:18 | 02:40:01 | 00:00:00 | |
| AA1-15 | 2026-09-01 00:57:37 | 51.29936 | 8.15940 | 34° | 58km/h | 18856m | -7.6m/s | -52.3°C | 0.3% | 69.6hPa | 2.5V | 08:12:31 | 02:40:03 | 00:00:00 | |
| DL1XH-west | 2026-09-01 00:57:35 | 51.29912 | 8.15917 | 28° | 51km/h | 18871m | -8m/s | -52.3°C | 0.3% | 69.5hPa | 2.6V | 08:12:31 | 02:40:01 | 00:00:00 | |
| HSKMA3-T | 2026-09-01 00:57:32 | 51.29881 | 8.15894 | 24° | 38km/h | 18895m | -8m/s | -52.4°C | 0.3% | 69.3hPa | 2.5V | 08:12:31 | 02:39:58 | 00:00:00 | |
| BIOWL1-15 | 2026-09-01 00:57:30 | 51.29854 | 8.15871 | 34° | 24km/h | 18926m | -7.6m/s | -52.3°C | 0.3% | 68.9hPa | 2.5V | 08:12:31 | 02:39:54 | 00:00:00 | |
| DM0DOS-11 | 2026-09-01 00:57:30 | 51.29846 | 8.15861 | 46° | 18km/h | 18941m | -7.8m/s | -52.4°C | 3.7% | 68.8hPa | 2.6V | 08:12:27 | 02:39:52 | 00:00:00 | |
| DB0NH | 2026-09-01 00:57:30 | 51.29865 | 8.15882 | 27° | 33km/h | 18911m | -7.8m/s | -52.3°C | 3.7% | 69.0hPa | 2.6V | 00:00:00 | 02:39:56 | 00:00:00 | |
| DL1XH-15 | 2026-09-01 00:57:29 | 51.29843 | 8.15856 | 53° | 15km/h | 18949m | -7.8m/s | -52.4°C | 3.7% | 68.6hPa | 2.6V | 08:12:28 | 02:39:51 | 00:00:00 | |
| AA1-15 | 2026-09-01 00:57:26 | 51.29846 | 8.15861 | 46° | 18km/h | 18941m | -7.8m/s | -52.4°C | 0.3% | 68.8hPa | 2.6V | 08:12:31 | 02:39:52 | 00:00:00 | |
| GOEST3-10 | 2026-09-01 00:57:26 | 51.29846 | 8.15861 | 47° | 15km/h | 18942m | -7.7m/s | -52.3°C | 3.7% | 68.7hPa | 2.5V | 00:00:00 | 00:00:00 | 00:00:00 | |
| DD8BA-10 | 2026-09-01 00:57:25 | 51.29843 | 8.15856 | 54° | 22km/h | 18949m | -7.7m/s | -52.3°C | 3.7% | 68.6hPa | 2.5V | 00:00:00 | 00:00:00 | 00:00:00 | |
| DL1NUX | 2026-09-01 00:57:24 | 51.29843 | 8.15821 | 110° | 24km/h | 18998m | -8.4m/s | -52.3°C | 3.7% | 68.1hPa | 2.5V | 08:12:34 | 02:39:45 | 00:00:00 | |
| DL1XH-west | 2026-09-01 00:57:24 | 51.29841 | 8.15851 | 64° | 15km/h | 18957m | -8.1m/s | -52.4°C | 0.2% | 68.6hPa | 2.5V | 08:12:31 | 02:39:50 | 00:00:00 | |
| HSKMA3-T | 2026-09-01 00:57:22 | 51.29840 | 8.15841 | 91° | 13km/h | 18973m | -8.1m/s | -52.3°C | 0.3% | 68.4hPa | 2.5V | 08:12:31 | 02:39:48 | 00:00:00 | |
| DO3MHA-11 | 2026-09-01 00:57:21 | 51.29840 | 8.15836 | 102° | 35km/h | 18982m | -8.4m/s | -52.2°C | 3.6% | 68.3hPa | 2.6V | 00:00:00 | 02:39:47 | 00:00:00 | |
| DO3DL | 2026-09-01 00:57:20 | 51.29840 | 8.15836 | 102° | 15km/h | 18982m | -8.5m/s | -52.3°C | 1.0% | 68.3hPa | 2.6V | 08:13:00 | 00:00:00 | 00:00:00 | |
| DM0DOS-11 | 2026-09-01 00:57:19 | 51.29851 | 8.15786 | 106° | 38km/h | 19023m | -7.8m/s | -52.3°C | 3.7% | 67.8hPa | 2.6V | 08:12:37 | 02:39:42 | 00:00:00 | |
| DL1XH-15 | 2026-09-01 00:57:19 | 51.29853 | 8.15770 | 103° | 44km/h | 19030m | -7.9m/s | -52.2°C | 3.7% | 67.8hPa | 2.6V | 08:12:38 | 02:39:41 | 00:00:00 | |
| BIOWL1-15 | 2026-09-01 00:57:18 | 51.29859 | 8.15688 | 89° | 57km/h | 19063m | -8.3m/s | -51.8°C | 0.2% | 67.5hPa | 2.6V | 08:13:22 | 02:39:37 | 00:00:00 | |
| DF8AY | 2026-09-01 00:57:15 | 51.29856 | 8.15752 | 100° | 47km/h | 19038m | -7.8m/s | -52.1°C | 0.3% | 67.7hPa | 2.5V | 08:13:22 | 02:39:40 | 00:00:00 | |
| AA1-15 | 2026-09-01 00:57:15 | 51.29853 | 8.15770 | 103° | 44km/h | 19031m | -7.9m/s | -52.2°C | 0.3% | 67.8hPa | 2.6V | 08:13:22 | 02:39:41 | 00:00:00 | |
| BIOWL1-15 | 2026-09-01 00:57:14 | 51.29853 | 8.15619 | 77° | 58km/h | 19088m | -8.1m/s | -51.8°C | 0.2% | 67.2hPa | 2.5V | 08:13:22 | 02:39:34 | 00:00:00 | |
| DL1XH-west | 2026-09-01 00:57:13 | 51.29857 | 8.15732 | 96° | 51km/h | 19046m | -8.1m/s | -51.9°C | 0.3% | 67.6hPa | 2.5V | 08:13:22 | 02:39:39 | 00:00:00 | |
| HSKMA3-T | 2026-09-01 00:57:12 | 51.29858 | 8.15710 | 93° | 55km/h | 19055m | -8.1m/s | -51.8°C | 0.2% | 67.5hPa | 2.5V | 08:13:22 | 02:39:38 | 00:00:00 | |
| DL4BBY-15 | 2026-09-01 00:57:12 | 51.29858 | 8.15710 | 93° | 35km/h | 19055m | -8.0m/s | -51.8°C | 0% | 0hPa | 2.5V | 00:00:00 | 00:00:00 | 00:00:00 | |
| DL1NUX | 2026-09-01 00:57:11 | 51.29856 | 8.15642 | 81° | 58km/h | 19079m | -8.4m/s | -51.8°C | 3.5% | 67.3hPa | 2.5V | 08:12:44 | 02:39:35 | 00:00:00 | |
| DO3MHA-11 | 2026-09-01 00:57:11 | 51.29858 | 8.15688 | 89° | 53km/h | 19063m | -8.2m/s | -51.7°C | 3.6% | 67.4hPa | 2.6V | 00:00:00 | 02:39:37 | 00:00:00 | |
| DL1XH-15 | 2026-09-01 00:57:09 | 51.29839 | 8.15555 | 63° | 51km/h | 19112m | -7.9m/s | -51.9°C | 3.6% | 67hPa | 2.6V | 08:12:48 | 02:39:31 | 00:00:00 | |
| DM0DOS-11 | 2026-09-01 00:57:09 | 51.29845 | 8.15575 | 67° | 55km/h | 19104m | -7.9m/s | -51.9°C | 3.6% | 67hPa | 2.6V | 08:12:47 | 02:39:32 | 00:00:00 | |
| DF8AY | 2026-09-01 00:57:05 | 51.29839 | 8.15555 | 63° | 51km/h | 19112m | -7.9m/s | -52°C | 0.3% | 67hPa | 2.6V | 08:13:22 | 02:39:31 | 00:00:00 | |
| DD8BA-10 | 2026-09-01 00:57:05 | 51.29839 | 8.15555 | 64° | 35km/h | 19112m | -7.8m/s | -51.9°C | 3.6% | 66.9hPa | 2.6V | 00:00:00 | 00:00:00 | 00:00:00 | |
| DL1NUX | 2026-09-01 00:57:04 | 51.29802 | 8.15479 | 41° | 29km/h | 19159m | -8.3m/s | -52.1°C | 3.7% | 66.5hPa | 2.5V | 08:12:54 | 02:39:25 | 00:00:00 | |
| AA1-15 | 2026-09-01 00:57:04 | 51.29833 | 8.15538 | 59° | 47km/h | 19120m | -7.7m/s | -52°C | 0.3% | 66.9hPa | 2.5V | 08:13:22 | 02:39:30 | 00:00:00 | |
| DL1XH1-15 | 2026-09-01 00:57:03 | 51.29808 | 8.15487 | 43° | 33km/h | 19151m | -8m/s | -52.1°C | 3.7% | 66.6hPa | 2.6V | 08:12:53 | 02:39:26 | 00:00:00 | |
| DL1XH-west | 2026-09-01 00:57:02 | 51.29820 | 8.15509 | 51° | 40km/h | 19135m | -7.6m/s | -52.1°C | 0.3% | 66.7hPa | 2.5V | 08:13:22 | 02:39:28 | 00:00:00 | |
| HTAHTA | 2026-09-01 00:57:01 | 51.29814 | 8.15497 | 46° | 35km/h | 19143m | -7.9m/s | -52.1°C | 1.0% | 66.6hPa | 2.6V | 00:00:00 | 00:00:00 | 00:00:00 | |
| DF7PN | 2026-09-01 00:56:59 | 51.29797 | 8.15472 | 39° | 26km/h | 19168m | -8.0m/s | -52.1°C | 1.0% | 66.4hPa | 2.6V | 00:00:00 | 00:00:00 | 00:00:00 | |
| DL1XH-15 | 2026-09-01 00:56:58 | 51.29785 | 8.15456 | 46° | 13km/h | 19193m | -8.3m/s | -52°C | 3.6% | 66.1hPa | 2.6V | 08:12:58 | 02:39:21 | 00:00:00 | |
| BIOWL1-15 | 2026-09-01 00:56:57 | 51.29785 | 8.15456 | 47° | 13km/h | 19193m | -8.3m/s | -52°C | 0.2% | 66.1hPa | 2.6V | 08:13:22 | 02:39:21 | 00:00:00 | |
| DF8AY | 2026-09-01 00:56:54 | 51.29783 | 8.15453 | 64° | 9km/h | 19201m | -8.1m/s | -51.9°C | 0.2% | 66hPa | 2.5V | 08:13:22 | 02:39:20 | 00:00:00 | |
| DL1NUX | 2026-09-01 00:56:54 | 51.29794 | 8.15433 | 143° | 24km/h | 19241m | -8m/s | -51.7°C | 3.6% | 65.6hPa | 2.5V | 08:13:04 | 02:39:15 | 00:00:00 | |
| DL1XH1-15 | 2026-09-01 00:56:53 | 51.29789 | 8.15438 | 143° | 18km/h | 19233m | -7.7m/s | -51.7°C | 3.5% | 65.7hPa | 2.6V | 08:13:03 | 02:39:16 | 00:00:00 | |
| AA1-15 | 2026-09-01 00:56:53 | 51.29784 | 8.15446 | 127° | 11km/h | 19217m | -7.7m/s | -51.8°C | 0.2% | 65.9hPa | 2.5V | 08:13:22 | 02:39:18 | 00:00:00 | |
| HSKMA3-T | 2026-09-01 00:56:51 | 51.29786 | 8.15443 | 139° | 15km/h | 19225m | -8m/s | -51.7°C | 0.2% | 65.8hPa | 2.6V | 08:13:22 | 02:39:17 | 00:00:00 | |
| DO3MHA-11 | 2026-09-01 00:56:51 | 51.29786 | 8.15442 | 139° | 31km/h | 19225m | -7.9m/s | -51.7°C | 3.5% | 65.7hPa | 2.6V | 00:00:00 | 02:39:17 | 00:00:00 | |
| DL1XH-15 | 2026-09-01 00:56:50 | 51.29816 | 8.15402 | 131° | 37km/h | 19273m | -8.3m/s | -51.6°C | 3.5% | 65.3hPa | 2.6V | 08:13:08 | 02:39:11 | 00:00:00 | |
| BIOWL1-15 | 2026-09-01 00:56:47 | 51.29804 | 8.15420 | 140° | 29km/h | 19257m | -8.3m/s | -51.6°C | 0.2% | 65.5hPa | 2.5V | 08:13:22 | 02:39:13 | 00:00:00 | |
| DO1YAY-16 | 2026-09-01 00:56:47 | 51.29810 | 8.15412 | 136° | 33km/h | 19265m | -7.9m/s | -51.6°C | 1.0% | 65.4hPa | 2.5V | 00:00:00 | 00:00:00 | 00:00:00 | |
| GOEST3-10 | 2026-09-01 00:56:46 | 51.29810 | 8.15412 | 137° | 38km/h | 19265m | -7.9m/s | -51.5°C | 3.5% | 65.3hPa | 2.5V | 00:00:00 | 00:00:00 | 00:00:00 | |
| DD8BA-10 | 2026-09-01 00:56:45 | 51.29816 | 8.15401 | 132° | 44km/h | 19273m | -8.2m/s | -51.6°C | 3.5% | 65.2hPa | 2.5V | 00:00:00 | 00:00:00 | 00:00:00 | |
| DL1NUX | 2026-09-01 00:56:44 | 51.29845 | 8.15309 | 103° | 47km/h | 19321m | -8.2m/s | -51.8°C | 3.5% | 64.8hPa | 2.5V | 08:13:14 | 02:39:05 | 00:00:00 | |
| DF8AY | 2026-09-01 00:56:43 | 51.29833 | 8.15361 | 116° | 44km/h | 19297m | -7.5m/s | -51.7°C | 0.1% | 65.1hPa | 2.5V | 08:13:22 | 02:39:08 | 00:00:00 | |
| DL4XJ-10 | 2026-09-01 00:56:43 | 51.29828 | 8.15376 | 121° | 46km/h | 19289m | -8.0m/s | -51.7°C | 0% | 0hPa | 2.6V | 00:00:00 | 00:00:00 | 00:00:00 | |
| DL1XH1-15 | 2026-09-01 00:56:42 | 51.29842 | 8.15327 | 107° | 47km/h | 19312m | -7.8m/s | -51.7°C | 3.5% | 64.9hPa | 2.6V | 08:13:13 | 02:39:06 | 00:00:00 | |
| HSKMA3-T | 2026-09-01 00:56:41 | 51.29838 | 8.15345 | 111° | 46km/h | 19305m | -8.1m/s | -51.7°C | 0.2% | 65hPa | 2.6V | 08:13:22 | 02:39:07 | 00:00:00 | |
| DL1XH-west | 2026-09-01 00:56:40 | 51.29842 | 8.15327 | 108° | 47km/h | 19312m | -7.9m/s | -51.7°C | 0.2% | 64.9hPa | 2.6V | 08:13:22 | 02:39:06 | 00:00:00 | |
| BIOWL1-15 | 2026-09-01 00:56:39 | 51.29849 | 8.15271 | 95° | 47km/h | 19337m | -8m/s | -51.7°C | 0.2% | 64.7hPa | 2.5V | 08:13:22 | 02:39:03 | 00:00:00 | |
| DL1CLM-18 | 2026-09-01 00:56:39 | 51.29845 | 8.15308 | 105° | 47km/h | 19321m | -8.2m/s | -51.8°C | 1.0% | 64.8hPa | 2.6V | 00:00:00 | 00:00:00 | 00:00:00 | |
| DK9SH | 2026-09-01 00:56:38 | 51.29847 | 8.15290 | 101° | 47km/h | 19329m | -7.8m/s | -51.8°C | 1.0% | 64.8hPa | 2.6V | 08:13:00 | 00:00:00 | 00:00:00 | |
| AM1SDL-15 | 2026-09-01 00:56:37 | 51.29849 | 8.15271 | 95° | 47km/h | 19337m | -8.0m/s | -51.7°C | 3.5% | 64.6hPa | 2.6V | 00:00:00 | 02:39:03 | 00:00:00 | |
| DJ2DS-15 | 2026-09-01 00:56:36 | 51.29849 | 8.15251 | 90° | 40km/h | 19345m | -7.8m/s | -51.7°C | 3.5% | 64.6hPa | 2.6V | 00:00:00 | 02:39:02 | 00:00:00 | |
| DD8BA-10 | 2026-09-01 00:56:35 | 51.29849 | 8.15232 | 85° | 47km/h | 19353m | -7.9m/s | -51.7°C | 3.5% | 64.5hPa | 2.6V | 08:13:00 | 00:00:00 | 00:00:00 | |
| DL1XH1-15 | 2026-09-01 00:56:34 | 51.29831 | 8.15143 | 59° | 47km/h | 19392m | -7.9m/s | -51.9°C | 3.5% | 64.1hPa | 2.6V | 08:13:23 | 02:38:56 | 00:00:00 | |
| DL1NUX | 2026-09-01 00:56:33 | 51.29824 | 8.15127 | 54° | 47km/h | 19401m | -8.3m/s | -51.9°C | 3.5% | 64hPa | 2.5V | 08:13:24 | 02:38:55 | 00:00:00 | |
| DL1XH-west | 2026-09-01 00:56:30 | 51.29831 | 8.15143 | 60° | 47km/h | 19393m | -7.9m/s | -51.9°C | 0.2% | 64.1hPa | 2.6V | 08:14:13 | 02:38:56 | 00:00:00 | |
| DB0NH | 2026-09-01 00:56:30 | 51.29830 | 8.15143 | 60° | 47km/h | 19393m | -7.9m/s | -51.8°C | 3.5% | 64.1hPa | 2.5V | 00:00:00 | 02:38:56 | 00:00:00 | |
| DL1ZP-14 | 2026-09-01 00:56:29 | 51.29824 | 8.15127 | 54° | 47km/h | 19401m | -8.3m/s | -51.9°C | 0.9% | 64.0hPa | 2.5V | 00:00:00 | 00:00:00 | 00:00:00 | |
| DL8DAS-14 | 2026-09-01 00:56:28 | 51.29817 | 8.15112 | 50° | 47km/h | 19409m | -8.1m/s | -52.0°C | 0.9% | 64.0hPa | 2.6V | 00:00:00 | 00:00:00 | 00:00:00 | |
| DM0DOS-11 | 2026-09-01 00:56:27 | 51.29800 | 8.15084 | 42° | 47km/h | 19426m | -8.1m/s | -52°C | 3.6% | 63.8hPa | 2.6V | 08:13:27 | 02:38:52 | 00:00:00 | |
| BIOWL1-15 | 2026-09-01 00:56:27 | 51.29791 | 8.15072 | 38° | 46km/h | 19434m | -8.3m/s | -52.1°C | 0.3% | 63.7hPa | 2.6V | 08:14:13 | 02:38:51 | 00:00:00 | |
| DL3AQ-11 | 2026-09-01 00:56:26 | 51.29791 | 8.15072 | 37° | 44km/h | 19434m | -8.3m/s | -52.1°C | 1.0% | 63.7hPa | 2.6V | 00:00:00 | 00:00:00 | 00:00:00 | |
| DD8BA-10 | 2026-09-01 00:56:25 | 51.29791 | 8.15072 | 38° | 31km/h | 19434m | -8.3m/s | -52.0°C | 3.6% | 63.7hPa | 2.6V | 00:00:00 | 00:00:00 | 00:00:00 | |
| DL4XJ-10 | 2026-09-01 00:56:23 | 51.29773 | 8.15053 | 29° | 26km/h | 19451m | -8.1m/s | -52.2°C | 0% | 0hPa | 2.6V | 00:00:00 | 00:00:00 | 00:00:00 | |
| DL1XH1-15 | 2026-09-01 00:56:22 | 51.29749 | 8.15038 | 12° | 29km/h | 19474m | -7.9m/s | -52.4°C | 3.7% | 63.3hPa | 2.6V | 08:13:33 | 02:38:46 | 00:00:00 | |
| DM0DOS-11 | 2026-09-01 00:56:22 | 51.29726 | 8.15036 | 357° | 15km/h | 19507m | -8.4m/s | -52.5°C | 3.7% | 63hPa | 2.6V | 08:13:37 | 02:38:42 | 00:00:00 | |
| DL1NUX | 2026-09-01 00:56:21 | 51.29742 | 8.15036 | 7° | 26km/h | 19482m | -8m/s | -52.4°C | 3.7% | 63.2hPa | 2.5V | 08:13:34 | 02:38:45 | 00:00:00 | |
| DL1XH-west | 2026-09-01 00:56:20 | 51.29748 | 8.15038 | 12° | 29km/h | 19474m | -7.9m/s | -52.4°C | 0.3% | 63.3hPa | 2.6V | 08:14:13 | 02:38:46 | 00:00:00 | |
| HSKMA3-T | 2026-09-01 00:56:19 | 51.29741 | 8.15037 | 8° | 26km/h | 19482m | -8m/s | -52.4°C | 0.3% | 63.2hPa | 2.5V | 08:14:13 | 02:38:45 | 00:00:00 | |
| BIOWL1-15 | 2026-09-01 00:56:18 | 51.29726 | 8.15036 | 357° | 15km/h | 19507m | -8.4m/s | -52.5°C | 0.3% | 63hPa | 2.6V | 08:14:13 | 02:38:42 | 00:00:00 | |
| DB0ND-19 | 2026-09-01 00:56:18 | 51.29730 | 8.15036 | 357° | 16km/h | 19498m | -8.3m/s | -52.5°C | 1.0% | 63.1hPa | 2.6V | 00:00:00 | 00:00:00 | 00:00:00 | |
| BIOWL9-15 | 2026-09-01 00:56:17 | 51.29726 | 8.15036 | 357° | 13km/h | 19507m | -8.4m/s | -52.5°C | 1.0% | 63.0hPa | 2.6V | 00:00:00 | 00:00:00 | 00:00:00 | |
| DO1YAY-16 | 2026-09-01 00:56:16 | 51.29723 | 8.15036 | 2° | 9km/h | 19515m | -8.5m/s | -52.5°C | 1.0% | 62.9hPa | 2.6V | 00:00:00 | 00:00:00 | 00:00:00 | |
| DD8BA-10 | 2026-09-01 00:56:15 | 51.29723 | 8.15036 | 3° | 20km/h | 19515m | -8.5m/s | -52.4°C | 3.7% | 62.9hPa | 2.6V | 00:00:00 | 00:00:00 | 00:00:00 | |
| DL3AQ-11 | 2026-09-01 00:56:13 | 51.29722 | 8.15032 | 119° | 9km/h | 19540m | -8.2m/s | -52.3°C | 1.0% | 62.7hPa | 2.6V | 00:00:00 | 00:00:00 | 00:00:00 | |
| DL4BBY-15 | 2026-09-01 00:56:12 | 51.29721 | 8.15032 | 120° | 31km/h | 19540m | -8.2m/s | -52.3°C | 0% | 0hPa | 2.6V | 00:00:00 | 00:00:00 | 00:00:00 | |
| DL1XH1-15 | 2026-09-01 00:56:11 | 51.29726 | 8.15021 | 123° | 22km/h | 19556m | -8m/s | -52.1°C | 3.6% | 62.5hPa | 2.6V | 08:13:43 | 02:38:36 | 00:00:00 | |
| DM0DOS-11 | 2026-09-01 00:56:11 | 51.29741 | 8.14975 | 112° | 42km/h | 19589m | -8.3m/s | -51.9°C | 3.6% | 62.1hPa | 2.6V | 08:13:47 | 02:38:32 | 00:00:00 | |
| GOEST3-10 | 2026-09-01 00:56:11 | 51.29723 | 8.15027 | 124° | 27km/h | 19548m | -8.0m/s | -52.1°C | 3.7% | 62.6hPa | 2.6V | 00:00:00 | 02:38:37 | 00:00:00 | |
| DL1XH-15 | 2026-09-01 00:56:09 | 51.29745 | 8.14959 | 108° | 44km/h | 19597m | -8.4m/s | -52°C | 3.6% | 62.1hPa | 2.6V | 08:13:48 | 02:38:31 | 00:00:00 | |
| Es werden nur die letzten 3500 von 9649 Frames angezeigt. GPX/KML und Diagramme bleiben verfügbar. | |||||||||||||||